<?xml version="1.0" encoding="UTF-8" standalone="no" ?>
<gpx xmlns="http://www.topografix.com/GPX/1/1" xmlns:xsi="http://www.w3.org/2001/XMLSchema-instance" xsi:schemaLocation="http://www.topografix.com/GPX/1/1 http://www.topografix.com/GPX/1/1/gpx.xsd" version="1.1" creator="VisuGPX - https://www.visugpx.com">
  <metadata>
    <name>Aubigny Daours</name>
  </metadata>
  <trk>
    <name><![CDATA[Aubigny Daours_1]]></name>
    <trkseg>
      <trkpt lat="49.89987" lon="2.4831">
        <ele>36.6</ele>
        <time>2022-10-19T11:59:46Z</time>
      </trkpt>
      <trkpt lat="49.89987" lon="2.48311">
        <ele>36.6</ele>
        <time>2022-10-19T11:59:47Z</time>
      </trkpt>
      <trkpt lat="49.89987" lon="2.48311">
        <ele>36.6</ele>
        <time>2022-10-19T11:59:48Z</time>
      </trkpt>
      <trkpt lat="49.89987" lon="2.48311">
        <ele>36.6</ele>
        <time>2022-10-19T11:59:49Z</time>
      </trkpt>
      <trkpt lat="49.89987" lon="2.48311">
        <ele>36.6</ele>
        <time>2022-10-19T11:59:50Z</time>
      </trkpt>
      <trkpt lat="49.89987" lon="2.48311">
        <ele>36.6</ele>
        <time>2022-10-19T11:59:51Z</time>
      </trkpt>
      <trkpt lat="49.89987" lon="2.48311">
        <ele>36.6</ele>
        <time>2022-10-19T11:59:52Z</time>
      </trkpt>
      <trkpt lat="49.89987" lon="2.48311">
        <ele>36.6</ele>
        <time>2022-10-19T11:59:53Z</time>
      </trkpt>
      <trkpt lat="49.89987" lon="2.48311">
        <ele>36.6</ele>
        <time>2022-10-19T11:59:54Z</time>
      </trkpt>
      <trkpt lat="49.89987" lon="2.48311">
        <ele>36.6</ele>
        <time>2022-10-19T11:59:55Z</time>
      </trkpt>
      <trkpt lat="49.89987" lon="2.48311">
        <ele>36.6</ele>
        <time>2022-10-19T11:59:56Z</time>
      </trkpt>
      <trkpt lat="49.89987" lon="2.48311">
        <ele>36.6</ele>
        <time>2022-10-19T11:59:57Z</time>
      </trkpt>
      <trkpt lat="49.89987" lon="2.48311">
        <ele>36.6</ele>
        <time>2022-10-19T11:59:58Z</time>
      </trkpt>
      <trkpt lat="49.89987" lon="2.48311">
        <ele>36.6</ele>
        <time>2022-10-19T11:59:59Z</time>
      </trkpt>
      <trkpt lat="49.89987" lon="2.48311">
        <ele>36.6</ele>
        <time>2022-10-19T12:00:00Z</time>
      </trkpt>
      <trkpt lat="49.89987" lon="2.48311">
        <ele>36.6</ele>
        <time>2022-10-19T12:00:01Z</time>
      </trkpt>
      <trkpt lat="49.89987" lon="2.48311">
        <ele>36.6</ele>
        <time>2022-10-19T12:00:02Z</time>
      </trkpt>
      <trkpt lat="49.89987" lon="2.48311">
        <ele>36.6</ele>
        <time>2022-10-19T12:00:03Z</time>
      </trkpt>
      <trkpt lat="49.89987" lon="2.48311">
        <ele>36.6</ele>
        <time>2022-10-19T12:00:04Z</time>
      </trkpt>
      <trkpt lat="49.89987" lon="2.48311">
        <ele>36.6</ele>
        <time>2022-10-19T12:00:05Z</time>
      </trkpt>
      <trkpt lat="49.89987" lon="2.48311">
        <ele>36.6</ele>
        <time>2022-10-19T12:00:06Z</time>
      </trkpt>
      <trkpt lat="49.89987" lon="2.48311">
        <ele>36.6</ele>
        <time>2022-10-19T12:00:07Z</time>
      </trkpt>
      <trkpt lat="49.89987" lon="2.48311">
        <ele>36.6</ele>
        <time>2022-10-19T12:00:08Z</time>
      </trkpt>
      <trkpt lat="49.89987" lon="2.48311">
        <ele>36.6</ele>
        <time>2022-10-19T12:00:09Z</time>
      </trkpt>
      <trkpt lat="49.89987" lon="2.48311">
        <ele>36.6</ele>
        <time>2022-10-19T12:00:10Z</time>
      </trkpt>
      <trkpt lat="49.89987" lon="2.48311">
        <ele>36.6</ele>
        <time>2022-10-19T12:00:11Z</time>
      </trkpt>
      <trkpt lat="49.89987" lon="2.48311">
        <ele>36.6</ele>
        <time>2022-10-19T12:00:12Z</time>
      </trkpt>
      <trkpt lat="49.89987" lon="2.48312">
        <ele>36.6</ele>
        <time>2022-10-19T12:00:13Z</time>
      </trkpt>
      <trkpt lat="49.89987" lon="2.48312">
        <ele>36.6</ele>
        <time>2022-10-19T12:00:14Z</time>
      </trkpt>
      <trkpt lat="49.89987" lon="2.48312">
        <ele>36.6</ele>
        <time>2022-10-19T12:00:15Z</time>
      </trkpt>
      <trkpt lat="49.89987" lon="2.48312">
        <ele>36.6</ele>
        <time>2022-10-19T12:00:16Z</time>
      </trkpt>
      <trkpt lat="49.89987" lon="2.48312">
        <ele>36.6</ele>
        <time>2022-10-19T12:00:17Z</time>
      </trkpt>
      <trkpt lat="49.89987" lon="2.48312">
        <ele>36.6</ele>
        <time>2022-10-19T12:00:18Z</time>
      </trkpt>
      <trkpt lat="49.89987" lon="2.48312">
        <ele>36.6</ele>
        <time>2022-10-19T12:00:19Z</time>
      </trkpt>
      <trkpt lat="49.89987" lon="2.48312">
        <ele>36.6</ele>
        <time>2022-10-19T12:00:20Z</time>
      </trkpt>
      <trkpt lat="49.89987" lon="2.48312">
        <ele>36.6</ele>
        <time>2022-10-19T12:00:21Z</time>
      </trkpt>
      <trkpt lat="49.89987" lon="2.48312">
        <ele>36.6</ele>
        <time>2022-10-19T12:00:22Z</time>
      </trkpt>
      <trkpt lat="49.89987" lon="2.48312">
        <ele>36.6</ele>
        <time>2022-10-19T12:00:23Z</time>
      </trkpt>
      <trkpt lat="49.89987" lon="2.48312">
        <ele>36.6</ele>
        <time>2022-10-19T12:00:24Z</time>
      </trkpt>
      <trkpt lat="49.89987" lon="2.48312">
        <ele>36.6</ele>
        <time>2022-10-19T12:00:25Z</time>
      </trkpt>
      <trkpt lat="49.89987" lon="2.48312">
        <ele>36.6</ele>
        <time>2022-10-19T12:00:26Z</time>
      </trkpt>
      <trkpt lat="49.89987" lon="2.48312">
        <ele>36.6</ele>
        <time>2022-10-19T12:00:27Z</time>
      </trkpt>
      <trkpt lat="49.89987" lon="2.48312">
        <ele>36.6</ele>
        <time>2022-10-19T12:00:28Z</time>
      </trkpt>
      <trkpt lat="49.89987" lon="2.48312">
        <ele>36.6</ele>
        <time>2022-10-19T12:00:29Z</time>
      </trkpt>
      <trkpt lat="49.89987" lon="2.48312">
        <ele>36.6</ele>
        <time>2022-10-19T12:00:30Z</time>
      </trkpt>
      <trkpt lat="49.89987" lon="2.48312">
        <ele>36.6</ele>
        <time>2022-10-19T12:00:31Z</time>
      </trkpt>
      <trkpt lat="49.89987" lon="2.48312">
        <ele>36.6</ele>
        <time>2022-10-19T12:00:32Z</time>
      </trkpt>
      <trkpt lat="49.89987" lon="2.48312">
        <ele>36.6</ele>
        <time>2022-10-19T12:00:33Z</time>
      </trkpt>
      <trkpt lat="49.89987" lon="2.48312">
        <ele>36.6</ele>
        <time>2022-10-19T12:00:34Z</time>
      </trkpt>
      <trkpt lat="49.89987" lon="2.48312">
        <ele>36.6</ele>
        <time>2022-10-19T12:00:35Z</time>
      </trkpt>
      <trkpt lat="49.89987" lon="2.48312">
        <ele>36.6</ele>
        <time>2022-10-19T12:00:36Z</time>
      </trkpt>
      <trkpt lat="49.89987" lon="2.48312">
        <ele>36.6</ele>
        <time>2022-10-19T12:00:37Z</time>
      </trkpt>
      <trkpt lat="49.89987" lon="2.48313">
        <ele>36.6</ele>
        <time>2022-10-19T12:00:38Z</time>
      </trkpt>
      <trkpt lat="49.89987" lon="2.48313">
        <ele>36.6</ele>
        <time>2022-10-19T12:00:39Z</time>
      </trkpt>
      <trkpt lat="49.89987" lon="2.48313">
        <ele>36.6</ele>
        <time>2022-10-19T12:00:40Z</time>
      </trkpt>
      <trkpt lat="49.89987" lon="2.48313">
        <ele>36.6</ele>
        <time>2022-10-19T12:00:41Z</time>
      </trkpt>
      <trkpt lat="49.89987" lon="2.48313">
        <ele>36.6</ele>
        <time>2022-10-19T12:00:42Z</time>
      </trkpt>
      <trkpt lat="49.89987" lon="2.48313">
        <ele>36.6</ele>
        <time>2022-10-19T12:00:43Z</time>
      </trkpt>
      <trkpt lat="49.89987" lon="2.48313">
        <ele>36.6</ele>
        <time>2022-10-19T12:00:44Z</time>
      </trkpt>
      <trkpt lat="49.89987" lon="2.48313">
        <ele>36.6</ele>
        <time>2022-10-19T12:00:45Z</time>
      </trkpt>
      <trkpt lat="49.89987" lon="2.48313">
        <ele>36.6</ele>
        <time>2022-10-19T12:00:46Z</time>
      </trkpt>
      <trkpt lat="49.89987" lon="2.48313">
        <ele>36.6</ele>
        <time>2022-10-19T12:00:47Z</time>
      </trkpt>
      <trkpt lat="49.89987" lon="2.48313">
        <ele>36.6</ele>
        <time>2022-10-19T12:00:48Z</time>
      </trkpt>
      <trkpt lat="49.89987" lon="2.48313">
        <ele>36.6</ele>
        <time>2022-10-19T12:00:49Z</time>
      </trkpt>
      <trkpt lat="49.89987" lon="2.48313">
        <ele>36.6</ele>
        <time>2022-10-19T12:00:50Z</time>
      </trkpt>
      <trkpt lat="49.89987" lon="2.48313">
        <ele>36.6</ele>
        <time>2022-10-19T12:00:51Z</time>
      </trkpt>
      <trkpt lat="49.89987" lon="2.48313">
        <ele>36.6</ele>
        <time>2022-10-19T12:00:52Z</time>
      </trkpt>
      <trkpt lat="49.89987" lon="2.48313">
        <ele>36.6</ele>
        <time>2022-10-19T12:00:53Z</time>
      </trkpt>
      <trkpt lat="49.89987" lon="2.48313">
        <ele>36.6</ele>
        <time>2022-10-19T12:00:54Z</time>
      </trkpt>
      <trkpt lat="49.89987" lon="2.48313">
        <ele>36.6</ele>
        <time>2022-10-19T12:00:55Z</time>
      </trkpt>
      <trkpt lat="49.89987" lon="2.48313">
        <ele>36.6</ele>
        <time>2022-10-19T12:00:56Z</time>
      </trkpt>
      <trkpt lat="49.89987" lon="2.48313">
        <ele>36.6</ele>
        <time>2022-10-19T12:00:57Z</time>
      </trkpt>
      <trkpt lat="49.89987" lon="2.48313">
        <ele>36.6</ele>
        <time>2022-10-19T12:00:58Z</time>
      </trkpt>
      <trkpt lat="49.89987" lon="2.48313">
        <ele>36.6</ele>
        <time>2022-10-19T12:00:59Z</time>
      </trkpt>
      <trkpt lat="49.89987" lon="2.48313">
        <ele>36.6</ele>
        <time>2022-10-19T12:01:00Z</time>
      </trkpt>
      <trkpt lat="49.89986" lon="2.48313">
        <ele>36.6</ele>
        <time>2022-10-19T12:01:01Z</time>
      </trkpt>
      <trkpt lat="49.89986" lon="2.48313">
        <ele>36.6</ele>
        <time>2022-10-19T12:01:02Z</time>
      </trkpt>
      <trkpt lat="49.89986" lon="2.48313">
        <ele>36.6</ele>
        <time>2022-10-19T12:01:04Z</time>
      </trkpt>
      <trkpt lat="49.89986" lon="2.48314">
        <ele>36.6</ele>
        <time>2022-10-19T12:01:05Z</time>
      </trkpt>
      <trkpt lat="49.89986" lon="2.48314">
        <ele>36.6</ele>
        <time>2022-10-19T12:01:06Z</time>
      </trkpt>
      <trkpt lat="49.89986" lon="2.48314">
        <ele>36.6</ele>
        <time>2022-10-19T12:01:07Z</time>
      </trkpt>
      <trkpt lat="49.89986" lon="2.48314">
        <ele>36.6</ele>
        <time>2022-10-19T12:01:08Z</time>
      </trkpt>
      <trkpt lat="49.89986" lon="2.48314">
        <ele>36.6</ele>
        <time>2022-10-19T12:01:09Z</time>
      </trkpt>
      <trkpt lat="49.89986" lon="2.48314">
        <ele>36.6</ele>
        <time>2022-10-19T12:01:10Z</time>
      </trkpt>
      <trkpt lat="49.89986" lon="2.48314">
        <ele>36.6</ele>
        <time>2022-10-19T12:01:11Z</time>
      </trkpt>
      <trkpt lat="49.89986" lon="2.48314">
        <ele>36.6</ele>
        <time>2022-10-19T12:01:12Z</time>
      </trkpt>
      <trkpt lat="49.89986" lon="2.48314">
        <ele>36.6</ele>
        <time>2022-10-19T12:01:13Z</time>
      </trkpt>
      <trkpt lat="49.89986" lon="2.48314">
        <ele>36.6</ele>
        <time>2022-10-19T12:01:14Z</time>
      </trkpt>
      <trkpt lat="49.89986" lon="2.48314">
        <ele>36.6</ele>
        <time>2022-10-19T12:01:15Z</time>
      </trkpt>
      <trkpt lat="49.89986" lon="2.48314">
        <ele>36.6</ele>
        <time>2022-10-19T12:01:16Z</time>
      </trkpt>
      <trkpt lat="49.89986" lon="2.48314">
        <ele>36.6</ele>
        <time>2022-10-19T12:01:17Z</time>
      </trkpt>
      <trkpt lat="49.89986" lon="2.48314">
        <ele>36.6</ele>
        <time>2022-10-19T12:01:18Z</time>
      </trkpt>
      <trkpt lat="49.89986" lon="2.48314">
        <ele>36.6</ele>
        <time>2022-10-19T12:01:19Z</time>
      </trkpt>
      <trkpt lat="49.89986" lon="2.48314">
        <ele>36.6</ele>
        <time>2022-10-19T12:01:20Z</time>
      </trkpt>
      <trkpt lat="49.89986" lon="2.48314">
        <ele>36.6</ele>
        <time>2022-10-19T12:01:21Z</time>
      </trkpt>
      <trkpt lat="49.89986" lon="2.48314">
        <ele>36.6</ele>
        <time>2022-10-19T12:01:22Z</time>
      </trkpt>
      <trkpt lat="49.89986" lon="2.48314">
        <ele>36.6</ele>
        <time>2022-10-19T12:01:23Z</time>
      </trkpt>
      <trkpt lat="49.89986" lon="2.48314">
        <ele>36.6</ele>
        <time>2022-10-19T12:01:24Z</time>
      </trkpt>
      <trkpt lat="49.89986" lon="2.48314">
        <ele>36.6</ele>
        <time>2022-10-19T12:01:25Z</time>
      </trkpt>
      <trkpt lat="49.89986" lon="2.48314">
        <ele>36.6</ele>
        <time>2022-10-19T12:01:26Z</time>
      </trkpt>
      <trkpt lat="49.89986" lon="2.48314">
        <ele>36.6</ele>
        <time>2022-10-19T12:01:27Z</time>
      </trkpt>
      <trkpt lat="49.89986" lon="2.48314">
        <ele>36.6</ele>
        <time>2022-10-19T12:01:28Z</time>
      </trkpt>
      <trkpt lat="49.89986" lon="2.48314">
        <ele>36.6</ele>
        <time>2022-10-19T12:01:29Z</time>
      </trkpt>
      <trkpt lat="49.89986" lon="2.48315">
        <ele>36.6</ele>
        <time>2022-10-19T12:01:30Z</time>
      </trkpt>
      <trkpt lat="49.89986" lon="2.48315">
        <ele>36.6</ele>
        <time>2022-10-19T12:01:31Z</time>
      </trkpt>
      <trkpt lat="49.89986" lon="2.48315">
        <ele>36.6</ele>
        <time>2022-10-19T12:01:32Z</time>
      </trkpt>
      <trkpt lat="49.89986" lon="2.48315">
        <ele>36.6</ele>
        <time>2022-10-19T12:01:33Z</time>
      </trkpt>
      <trkpt lat="49.89986" lon="2.48315">
        <ele>36.6</ele>
        <time>2022-10-19T12:01:34Z</time>
      </trkpt>
      <trkpt lat="49.89986" lon="2.48315">
        <ele>36.6</ele>
        <time>2022-10-19T12:01:35Z</time>
      </trkpt>
      <trkpt lat="49.89986" lon="2.48315">
        <ele>36.6</ele>
        <time>2022-10-19T12:01:36Z</time>
      </trkpt>
      <trkpt lat="49.89986" lon="2.48315">
        <ele>36.6</ele>
        <time>2022-10-19T12:01:37Z</time>
      </trkpt>
      <trkpt lat="49.89986" lon="2.48315">
        <ele>36.6</ele>
        <time>2022-10-19T12:01:38Z</time>
      </trkpt>
      <trkpt lat="49.89986" lon="2.48315">
        <ele>36.6</ele>
        <time>2022-10-19T12:01:39Z</time>
      </trkpt>
      <trkpt lat="49.89986" lon="2.48315">
        <ele>36.6</ele>
        <time>2022-10-19T12:01:40Z</time>
      </trkpt>
      <trkpt lat="49.89986" lon="2.48315">
        <ele>36.6</ele>
        <time>2022-10-19T12:01:41Z</time>
      </trkpt>
      <trkpt lat="49.89986" lon="2.48315">
        <ele>36.6</ele>
        <time>2022-10-19T12:01:43Z</time>
      </trkpt>
      <trkpt lat="49.89986" lon="2.48315">
        <ele>36.6</ele>
        <time>2022-10-19T12:01:44Z</time>
      </trkpt>
      <trkpt lat="49.89986" lon="2.48315">
        <ele>36.6</ele>
        <time>2022-10-19T12:01:45Z</time>
      </trkpt>
      <trkpt lat="49.89986" lon="2.48315">
        <ele>36.6</ele>
        <time>2022-10-19T12:01:46Z</time>
      </trkpt>
      <trkpt lat="49.89986" lon="2.48315">
        <ele>36.6</ele>
        <time>2022-10-19T12:01:47Z</time>
      </trkpt>
      <trkpt lat="49.89986" lon="2.48315">
        <ele>36.6</ele>
        <time>2022-10-19T12:01:48Z</time>
      </trkpt>
      <trkpt lat="49.89986" lon="2.48315">
        <ele>36.6</ele>
        <time>2022-10-19T12:01:49Z</time>
      </trkpt>
      <trkpt lat="49.89986" lon="2.48315">
        <ele>36.6</ele>
        <time>2022-10-19T12:01:50Z</time>
      </trkpt>
      <trkpt lat="49.89986" lon="2.48315">
        <ele>36.6</ele>
        <time>2022-10-19T12:01:51Z</time>
      </trkpt>
      <trkpt lat="49.89986" lon="2.48315">
        <ele>36.6</ele>
        <time>2022-10-19T12:01:53Z</time>
      </trkpt>
      <trkpt lat="49.89986" lon="2.48315">
        <ele>36.6</ele>
        <time>2022-10-19T12:01:54Z</time>
      </trkpt>
      <trkpt lat="49.89986" lon="2.48315">
        <ele>36.6</ele>
        <time>2022-10-19T12:01:55Z</time>
      </trkpt>
      <trkpt lat="49.89986" lon="2.48315">
        <ele>36.6</ele>
        <time>2022-10-19T12:01:56Z</time>
      </trkpt>
      <trkpt lat="49.89986" lon="2.48315">
        <ele>36.6</ele>
        <time>2022-10-19T12:01:57Z</time>
      </trkpt>
      <trkpt lat="49.89986" lon="2.48316">
        <ele>36.6</ele>
        <time>2022-10-19T12:01:58Z</time>
      </trkpt>
      <trkpt lat="49.89986" lon="2.48316">
        <ele>36.6</ele>
        <time>2022-10-19T12:01:59Z</time>
      </trkpt>
      <trkpt lat="49.89986" lon="2.48316">
        <ele>36.6</ele>
        <time>2022-10-19T12:02:00Z</time>
      </trkpt>
      <trkpt lat="49.89986" lon="2.48316">
        <ele>36.6</ele>
        <time>2022-10-19T12:02:02Z</time>
      </trkpt>
      <trkpt lat="49.89986" lon="2.48316">
        <ele>36.6</ele>
        <time>2022-10-19T12:02:03Z</time>
      </trkpt>
      <trkpt lat="49.89986" lon="2.48316">
        <ele>36.6</ele>
        <time>2022-10-19T12:02:04Z</time>
      </trkpt>
      <trkpt lat="49.89986" lon="2.48316">
        <ele>36.6</ele>
        <time>2022-10-19T12:02:05Z</time>
      </trkpt>
      <trkpt lat="49.89986" lon="2.48316">
        <ele>36.6</ele>
        <time>2022-10-19T12:02:06Z</time>
      </trkpt>
      <trkpt lat="49.89986" lon="2.48316">
        <ele>36.6</ele>
        <time>2022-10-19T12:02:07Z</time>
      </trkpt>
      <trkpt lat="49.89986" lon="2.48316">
        <ele>36.6</ele>
        <time>2022-10-19T12:02:08Z</time>
      </trkpt>
      <trkpt lat="49.89986" lon="2.48316">
        <ele>36.6</ele>
        <time>2022-10-19T12:02:09Z</time>
      </trkpt>
      <trkpt lat="49.89986" lon="2.48316">
        <ele>36.6</ele>
        <time>2022-10-19T12:02:10Z</time>
      </trkpt>
      <trkpt lat="49.89986" lon="2.48316">
        <ele>36.6</ele>
        <time>2022-10-19T12:02:11Z</time>
      </trkpt>
      <trkpt lat="49.89986" lon="2.48316">
        <ele>36.6</ele>
        <time>2022-10-19T12:02:12Z</time>
      </trkpt>
      <trkpt lat="49.89986" lon="2.48316">
        <ele>36.6</ele>
        <time>2022-10-19T12:02:13Z</time>
      </trkpt>
      <trkpt lat="49.89986" lon="2.48316">
        <ele>36.6</ele>
        <time>2022-10-19T12:02:14Z</time>
      </trkpt>
      <trkpt lat="49.89986" lon="2.48316">
        <ele>36.6</ele>
        <time>2022-10-19T12:02:15Z</time>
      </trkpt>
      <trkpt lat="49.89986" lon="2.48316">
        <ele>36.6</ele>
        <time>2022-10-19T12:02:16Z</time>
      </trkpt>
      <trkpt lat="49.89986" lon="2.48316">
        <ele>36.6</ele>
        <time>2022-10-19T12:02:17Z</time>
      </trkpt>
      <trkpt lat="49.89986" lon="2.48316">
        <ele>36.6</ele>
        <time>2022-10-19T12:02:18Z</time>
      </trkpt>
      <trkpt lat="49.89986" lon="2.48316">
        <ele>36.6</ele>
        <time>2022-10-19T12:02:19Z</time>
      </trkpt>
      <trkpt lat="49.89986" lon="2.48316">
        <ele>36.6</ele>
        <time>2022-10-19T12:02:20Z</time>
      </trkpt>
      <trkpt lat="49.89986" lon="2.48316">
        <ele>36.6</ele>
        <time>2022-10-19T12:02:21Z</time>
      </trkpt>
      <trkpt lat="49.89986" lon="2.48316">
        <ele>36.6</ele>
        <time>2022-10-19T12:02:22Z</time>
      </trkpt>
      <trkpt lat="49.89985" lon="2.48316">
        <ele>36.6</ele>
        <time>2022-10-19T12:02:23Z</time>
      </trkpt>
      <trkpt lat="49.89985" lon="2.48317">
        <ele>36.6</ele>
        <time>2022-10-19T12:02:24Z</time>
      </trkpt>
      <trkpt lat="49.89985" lon="2.48317">
        <ele>36.6</ele>
        <time>2022-10-19T12:02:25Z</time>
      </trkpt>
      <trkpt lat="49.89985" lon="2.48317">
        <ele>36.6</ele>
        <time>2022-10-19T12:02:26Z</time>
      </trkpt>
      <trkpt lat="49.89985" lon="2.48317">
        <ele>36.6</ele>
        <time>2022-10-19T12:02:27Z</time>
      </trkpt>
      <trkpt lat="49.89985" lon="2.48317">
        <ele>36.6</ele>
        <time>2022-10-19T12:02:28Z</time>
      </trkpt>
      <trkpt lat="49.89985" lon="2.48317">
        <ele>36.6</ele>
        <time>2022-10-19T12:02:29Z</time>
      </trkpt>
      <trkpt lat="49.89985" lon="2.48317">
        <ele>36.6</ele>
        <time>2022-10-19T12:02:30Z</time>
      </trkpt>
      <trkpt lat="49.89985" lon="2.48317">
        <ele>36.6</ele>
        <time>2022-10-19T12:02:31Z</time>
      </trkpt>
      <trkpt lat="49.89985" lon="2.48317">
        <ele>36.6</ele>
        <time>2022-10-19T12:02:32Z</time>
      </trkpt>
      <trkpt lat="49.89985" lon="2.48317">
        <ele>36.6</ele>
        <time>2022-10-19T12:02:33Z</time>
      </trkpt>
      <trkpt lat="49.89985" lon="2.48317">
        <ele>36.6</ele>
        <time>2022-10-19T12:02:34Z</time>
      </trkpt>
      <trkpt lat="49.89985" lon="2.48317">
        <ele>36.6</ele>
        <time>2022-10-19T12:02:35Z</time>
      </trkpt>
      <trkpt lat="49.89985" lon="2.48317">
        <ele>36.6</ele>
        <time>2022-10-19T12:02:36Z</time>
      </trkpt>
      <trkpt lat="49.89985" lon="2.48317">
        <ele>36.6</ele>
        <time>2022-10-19T12:02:37Z</time>
      </trkpt>
      <trkpt lat="49.89985" lon="2.48317">
        <ele>36.6</ele>
        <time>2022-10-19T12:02:38Z</time>
      </trkpt>
      <trkpt lat="49.89985" lon="2.48317">
        <ele>36.6</ele>
        <time>2022-10-19T12:02:39Z</time>
      </trkpt>
      <trkpt lat="49.89985" lon="2.48317">
        <ele>36.6</ele>
        <time>2022-10-19T12:02:40Z</time>
      </trkpt>
      <trkpt lat="49.89985" lon="2.48317">
        <ele>36.6</ele>
        <time>2022-10-19T12:02:41Z</time>
      </trkpt>
      <trkpt lat="49.89985" lon="2.48317">
        <ele>36.6</ele>
        <time>2022-10-19T12:02:42Z</time>
      </trkpt>
      <trkpt lat="49.89985" lon="2.48317">
        <ele>36.6</ele>
        <time>2022-10-19T12:02:43Z</time>
      </trkpt>
      <trkpt lat="49.89985" lon="2.48317">
        <ele>36.6</ele>
        <time>2022-10-19T12:02:44Z</time>
      </trkpt>
      <trkpt lat="49.89985" lon="2.48317">
        <ele>36.6</ele>
        <time>2022-10-19T12:02:45Z</time>
      </trkpt>
      <trkpt lat="49.89985" lon="2.48317">
        <ele>36.6</ele>
        <time>2022-10-19T12:02:46Z</time>
      </trkpt>
      <trkpt lat="49.89985" lon="2.48317">
        <ele>36.6</ele>
        <time>2022-10-19T12:02:47Z</time>
      </trkpt>
      <trkpt lat="49.89985" lon="2.48317">
        <ele>36.6</ele>
        <time>2022-10-19T12:02:48Z</time>
      </trkpt>
      <trkpt lat="49.89985" lon="2.48317">
        <ele>36.6</ele>
        <time>2022-10-19T12:02:49Z</time>
      </trkpt>
      <trkpt lat="49.89985" lon="2.48318">
        <ele>36.6</ele>
        <time>2022-10-19T12:02:50Z</time>
      </trkpt>
      <trkpt lat="49.89985" lon="2.48318">
        <ele>36.6</ele>
        <time>2022-10-19T12:02:51Z</time>
      </trkpt>
      <trkpt lat="49.89985" lon="2.48318">
        <ele>36.6</ele>
        <time>2022-10-19T12:02:52Z</time>
      </trkpt>
      <trkpt lat="49.89985" lon="2.48318">
        <ele>36.6</ele>
        <time>2022-10-19T12:02:53Z</time>
      </trkpt>
      <trkpt lat="49.89985" lon="2.48318">
        <ele>36.6</ele>
        <time>2022-10-19T12:02:54Z</time>
      </trkpt>
      <trkpt lat="49.89985" lon="2.48318">
        <ele>36.6</ele>
        <time>2022-10-19T12:02:55Z</time>
      </trkpt>
      <trkpt lat="49.89985" lon="2.48318">
        <ele>36.6</ele>
        <time>2022-10-19T12:02:56Z</time>
      </trkpt>
      <trkpt lat="49.89985" lon="2.48318">
        <ele>36.6</ele>
        <time>2022-10-19T12:02:57Z</time>
      </trkpt>
      <trkpt lat="49.89985" lon="2.48318">
        <ele>36.6</ele>
        <time>2022-10-19T12:02:58Z</time>
      </trkpt>
      <trkpt lat="49.89985" lon="2.48318">
        <ele>36.6</ele>
        <time>2022-10-19T12:02:59Z</time>
      </trkpt>
      <trkpt lat="49.89985" lon="2.48318">
        <ele>36.6</ele>
        <time>2022-10-19T12:03:00Z</time>
      </trkpt>
      <trkpt lat="49.89985" lon="2.48318">
        <ele>36.6</ele>
        <time>2022-10-19T12:03:01Z</time>
      </trkpt>
      <trkpt lat="49.89984" lon="2.48319">
        <ele>36.6</ele>
        <time>2022-10-19T12:03:02Z</time>
      </trkpt>
      <trkpt lat="49.89985" lon="2.48319">
        <ele>36.6</ele>
        <time>2022-10-19T12:03:03Z</time>
      </trkpt>
      <trkpt lat="49.89985" lon="2.48319">
        <ele>36.6</ele>
        <time>2022-10-19T12:03:04Z</time>
      </trkpt>
      <trkpt lat="49.89985" lon="2.48318">
        <ele>36.6</ele>
        <time>2022-10-19T12:03:05Z</time>
      </trkpt>
      <trkpt lat="49.89986" lon="2.48318">
        <ele>36.6</ele>
        <time>2022-10-19T12:03:06Z</time>
      </trkpt>
      <trkpt lat="49.89986" lon="2.48318">
        <ele>36.6</ele>
        <time>2022-10-19T12:03:07Z</time>
      </trkpt>
      <trkpt lat="49.89986" lon="2.48318">
        <ele>36.6</ele>
        <time>2022-10-19T12:03:08Z</time>
      </trkpt>
      <trkpt lat="49.89986" lon="2.48317">
        <ele>36.6</ele>
        <time>2022-10-19T12:03:09Z</time>
      </trkpt>
      <trkpt lat="49.89986" lon="2.48317">
        <ele>36.6</ele>
        <time>2022-10-19T12:03:10Z</time>
      </trkpt>
      <trkpt lat="49.89986" lon="2.48317">
        <ele>36.6</ele>
        <time>2022-10-19T12:03:11Z</time>
      </trkpt>
      <trkpt lat="49.89986" lon="2.48317">
        <ele>36.6</ele>
        <time>2022-10-19T12:03:12Z</time>
      </trkpt>
      <trkpt lat="49.89986" lon="2.48317">
        <ele>36.6</ele>
        <time>2022-10-19T12:03:13Z</time>
      </trkpt>
      <trkpt lat="49.89986" lon="2.48317">
        <ele>36.6</ele>
        <time>2022-10-19T12:03:14Z</time>
      </trkpt>
      <trkpt lat="49.89987" lon="2.48317">
        <ele>36.6</ele>
        <time>2022-10-19T12:03:15Z</time>
      </trkpt>
      <trkpt lat="49.89987" lon="2.48317">
        <ele>36.6</ele>
        <time>2022-10-19T12:03:16Z</time>
      </trkpt>
      <trkpt lat="49.89988" lon="2.48317">
        <ele>36.6</ele>
        <time>2022-10-19T12:03:17Z</time>
      </trkpt>
      <trkpt lat="49.89989" lon="2.48317">
        <ele>36.6</ele>
        <time>2022-10-19T12:03:18Z</time>
      </trkpt>
      <trkpt lat="49.89989" lon="2.48317">
        <ele>36.6</ele>
        <time>2022-10-19T12:03:19Z</time>
      </trkpt>
      <trkpt lat="49.89989" lon="2.48318">
        <ele>36.6</ele>
        <time>2022-10-19T12:03:21Z</time>
      </trkpt>
      <trkpt lat="49.8999" lon="2.48318">
        <ele>36.6</ele>
        <time>2022-10-19T12:03:22Z</time>
      </trkpt>
      <trkpt lat="49.8999" lon="2.48319">
        <ele>36.6</ele>
        <time>2022-10-19T12:03:24Z</time>
      </trkpt>
      <trkpt lat="49.8999" lon="2.4832">
        <ele>36.6</ele>
        <time>2022-10-19T12:03:25Z</time>
      </trkpt>
      <trkpt lat="49.89989" lon="2.48321">
        <ele>36.6</ele>
        <time>2022-10-19T12:03:26Z</time>
      </trkpt>
      <trkpt lat="49.89989" lon="2.48321">
        <ele>36.6</ele>
        <time>2022-10-19T12:03:27Z</time>
      </trkpt>
      <trkpt lat="49.89989" lon="2.48322">
        <ele>36.6</ele>
        <time>2022-10-19T12:03:29Z</time>
      </trkpt>
      <trkpt lat="49.89989" lon="2.48323">
        <ele>36.6</ele>
        <time>2022-10-19T12:03:30Z</time>
      </trkpt>
      <trkpt lat="49.8999" lon="2.48323">
        <ele>36.6</ele>
        <time>2022-10-19T12:03:31Z</time>
      </trkpt>
      <trkpt lat="49.89991" lon="2.48322">
        <ele>36.6</ele>
        <time>2022-10-19T12:03:32Z</time>
      </trkpt>
      <trkpt lat="49.89992" lon="2.48322">
        <ele>36.6</ele>
        <time>2022-10-19T12:03:33Z</time>
      </trkpt>
      <trkpt lat="49.89994" lon="2.48321">
        <ele>36.6</ele>
        <time>2022-10-19T12:03:35Z</time>
      </trkpt>
      <trkpt lat="49.89995" lon="2.4832">
        <ele>36.6</ele>
        <time>2022-10-19T12:03:36Z</time>
      </trkpt>
      <trkpt lat="49.89996" lon="2.4832">
        <ele>36.6</ele>
        <time>2022-10-19T12:03:37Z</time>
      </trkpt>
      <trkpt lat="49.89998" lon="2.48319">
        <ele>36.6</ele>
        <time>2022-10-19T12:03:38Z</time>
      </trkpt>
      <trkpt lat="49.89999" lon="2.48318">
        <ele>36.6</ele>
        <time>2022-10-19T12:03:40Z</time>
      </trkpt>
      <trkpt lat="49.90001" lon="2.48318">
        <ele>36.6</ele>
        <time>2022-10-19T12:03:41Z</time>
      </trkpt>
      <trkpt lat="49.90002" lon="2.48318">
        <ele>36.6</ele>
        <time>2022-10-19T12:03:43Z</time>
      </trkpt>
      <trkpt lat="49.90003" lon="2.48317">
        <ele>36.6</ele>
        <time>2022-10-19T12:03:44Z</time>
      </trkpt>
      <trkpt lat="49.90004" lon="2.48316">
        <ele>36.6</ele>
        <time>2022-10-19T12:03:45Z</time>
      </trkpt>
      <trkpt lat="49.90004" lon="2.48314">
        <ele>36.6</ele>
        <time>2022-10-19T12:03:46Z</time>
      </trkpt>
      <trkpt lat="49.90005" lon="2.48313">
        <ele>36.6</ele>
        <time>2022-10-19T12:03:47Z</time>
      </trkpt>
      <trkpt lat="49.90006" lon="2.48312">
        <ele>36.6</ele>
        <time>2022-10-19T12:03:48Z</time>
      </trkpt>
      <trkpt lat="49.90007" lon="2.48311">
        <ele>36.6</ele>
        <time>2022-10-19T12:03:50Z</time>
      </trkpt>
      <trkpt lat="49.9001" lon="2.4831">
        <ele>36.6</ele>
        <time>2022-10-19T12:03:51Z</time>
      </trkpt>
      <trkpt lat="49.90011" lon="2.4831">
        <ele>36.6</ele>
        <time>2022-10-19T12:03:52Z</time>
      </trkpt>
      <trkpt lat="49.90011" lon="2.4831">
        <ele>36.6</ele>
        <time>2022-10-19T12:03:53Z</time>
      </trkpt>
      <trkpt lat="49.90014" lon="2.4831">
        <ele>36.6</ele>
        <time>2022-10-19T12:03:54Z</time>
      </trkpt>
      <trkpt lat="49.90015" lon="2.4831">
        <ele>36.6</ele>
        <time>2022-10-19T12:03:55Z</time>
      </trkpt>
      <trkpt lat="49.90017" lon="2.4831">
        <ele>36.6</ele>
        <time>2022-10-19T12:03:56Z</time>
      </trkpt>
      <trkpt lat="49.90019" lon="2.4831">
        <ele>36.6</ele>
        <time>2022-10-19T12:03:58Z</time>
      </trkpt>
      <trkpt lat="49.9002" lon="2.48311">
        <ele>36.6</ele>
        <time>2022-10-19T12:03:59Z</time>
      </trkpt>
      <trkpt lat="49.90022" lon="2.48311">
        <ele>36.6</ele>
        <time>2022-10-19T12:04:00Z</time>
      </trkpt>
      <trkpt lat="49.90023" lon="2.48311">
        <ele>36.6</ele>
        <time>2022-10-19T12:04:01Z</time>
      </trkpt>
      <trkpt lat="49.90025" lon="2.48311">
        <ele>36.5</ele>
        <time>2022-10-19T12:04:02Z</time>
      </trkpt>
      <trkpt lat="49.90028" lon="2.48311">
        <ele>36.5</ele>
        <time>2022-10-19T12:04:03Z</time>
      </trkpt>
      <trkpt lat="49.90029" lon="2.48311">
        <ele>36.5</ele>
        <time>2022-10-19T12:04:04Z</time>
      </trkpt>
      <trkpt lat="49.90031" lon="2.4831">
        <ele>36.5</ele>
        <time>2022-10-19T12:04:05Z</time>
      </trkpt>
      <trkpt lat="49.90033" lon="2.4831">
        <ele>36.5</ele>
        <time>2022-10-19T12:04:07Z</time>
      </trkpt>
      <trkpt lat="49.90034" lon="2.4831">
        <ele>36.5</ele>
        <time>2022-10-19T12:04:08Z</time>
      </trkpt>
      <trkpt lat="49.90035" lon="2.48311">
        <ele>36.5</ele>
        <time>2022-10-19T12:04:09Z</time>
      </trkpt>
      <trkpt lat="49.90037" lon="2.48313">
        <ele>36.4</ele>
        <time>2022-10-19T12:04:10Z</time>
      </trkpt>
      <trkpt lat="49.90038" lon="2.48314">
        <ele>36.4</ele>
        <time>2022-10-19T12:04:11Z</time>
      </trkpt>
      <trkpt lat="49.9004" lon="2.48317">
        <ele>36.4</ele>
        <time>2022-10-19T12:04:12Z</time>
      </trkpt>
      <trkpt lat="49.90041" lon="2.48318">
        <ele>36.4</ele>
        <time>2022-10-19T12:04:13Z</time>
      </trkpt>
      <trkpt lat="49.90041" lon="2.4832">
        <ele>36.4</ele>
        <time>2022-10-19T12:04:14Z</time>
      </trkpt>
      <trkpt lat="49.90042" lon="2.48322">
        <ele>36.4</ele>
        <time>2022-10-19T12:04:15Z</time>
      </trkpt>
      <trkpt lat="49.90042" lon="2.48326">
        <ele>36.3</ele>
        <time>2022-10-19T12:04:17Z</time>
      </trkpt>
      <trkpt lat="49.90043" lon="2.48327">
        <ele>36.3</ele>
        <time>2022-10-19T12:04:18Z</time>
      </trkpt>
      <trkpt lat="49.90043" lon="2.48329">
        <ele>36.3</ele>
        <time>2022-10-19T12:04:19Z</time>
      </trkpt>
      <trkpt lat="49.90043" lon="2.4833">
        <ele>36.3</ele>
        <time>2022-10-19T12:04:20Z</time>
      </trkpt>
      <trkpt lat="49.90044" lon="2.48331">
        <ele>36.2</ele>
        <time>2022-10-19T12:04:21Z</time>
      </trkpt>
      <trkpt lat="49.90045" lon="2.48333">
        <ele>36.2</ele>
        <time>2022-10-19T12:04:23Z</time>
      </trkpt>
      <trkpt lat="49.90045" lon="2.48335">
        <ele>36.2</ele>
        <time>2022-10-19T12:04:24Z</time>
      </trkpt>
      <trkpt lat="49.90045" lon="2.48336">
        <ele>36.2</ele>
        <time>2022-10-19T12:04:25Z</time>
      </trkpt>
      <trkpt lat="49.90046" lon="2.48337">
        <ele>36.2</ele>
        <time>2022-10-19T12:04:26Z</time>
      </trkpt>
      <trkpt lat="49.90045" lon="2.48337">
        <ele>36.2</ele>
        <time>2022-10-19T12:04:28Z</time>
      </trkpt>
      <trkpt lat="49.90044" lon="2.48339">
        <ele>36.1</ele>
        <time>2022-10-19T12:04:29Z</time>
      </trkpt>
      <trkpt lat="49.90044" lon="2.4834">
        <ele>36.1</ele>
        <time>2022-10-19T12:04:30Z</time>
      </trkpt>
      <trkpt lat="49.90043" lon="2.48341">
        <ele>36.1</ele>
        <time>2022-10-19T12:04:31Z</time>
      </trkpt>
      <trkpt lat="49.90043" lon="2.48342">
        <ele>36.1</ele>
        <time>2022-10-19T12:04:33Z</time>
      </trkpt>
      <trkpt lat="49.90042" lon="2.48343">
        <ele>36</ele>
        <time>2022-10-19T12:04:34Z</time>
      </trkpt>
      <trkpt lat="49.90041" lon="2.48345">
        <ele>36</ele>
        <time>2022-10-19T12:04:35Z</time>
      </trkpt>
      <trkpt lat="49.90041" lon="2.48346">
        <ele>36</ele>
        <time>2022-10-19T12:04:36Z</time>
      </trkpt>
      <trkpt lat="49.9004" lon="2.48347">
        <ele>36</ele>
        <time>2022-10-19T12:04:38Z</time>
      </trkpt>
      <trkpt lat="49.90039" lon="2.48348">
        <ele>35.9</ele>
        <time>2022-10-19T12:04:39Z</time>
      </trkpt>
      <trkpt lat="49.90039" lon="2.48349">
        <ele>35.9</ele>
        <time>2022-10-19T12:04:40Z</time>
      </trkpt>
      <trkpt lat="49.90039" lon="2.4835">
        <ele>35.9</ele>
        <time>2022-10-19T12:04:41Z</time>
      </trkpt>
      <trkpt lat="49.90038" lon="2.48351">
        <ele>35.9</ele>
        <time>2022-10-19T12:04:43Z</time>
      </trkpt>
      <trkpt lat="49.90038" lon="2.48353">
        <ele>35.9</ele>
        <time>2022-10-19T12:04:44Z</time>
      </trkpt>
      <trkpt lat="49.90038" lon="2.48354">
        <ele>35.9</ele>
        <time>2022-10-19T12:04:45Z</time>
      </trkpt>
      <trkpt lat="49.90037" lon="2.48355">
        <ele>35.9</ele>
        <time>2022-10-19T12:04:46Z</time>
      </trkpt>
      <trkpt lat="49.90037" lon="2.48357">
        <ele>35.8</ele>
        <time>2022-10-19T12:04:48Z</time>
      </trkpt>
      <trkpt lat="49.90036" lon="2.48358">
        <ele>35.8</ele>
        <time>2022-10-19T12:04:49Z</time>
      </trkpt>
      <trkpt lat="49.90036" lon="2.48358">
        <ele>35.8</ele>
        <time>2022-10-19T12:04:50Z</time>
      </trkpt>
      <trkpt lat="49.90035" lon="2.48359">
        <ele>35.8</ele>
        <time>2022-10-19T12:04:51Z</time>
      </trkpt>
      <trkpt lat="49.90034" lon="2.48361">
        <ele>35.8</ele>
        <time>2022-10-19T12:04:53Z</time>
      </trkpt>
      <trkpt lat="49.90035" lon="2.48363">
        <ele>35.8</ele>
        <time>2022-10-19T12:04:54Z</time>
      </trkpt>
      <trkpt lat="49.90035" lon="2.48363">
        <ele>35.8</ele>
        <time>2022-10-19T12:04:55Z</time>
      </trkpt>
      <trkpt lat="49.90035" lon="2.48365">
        <ele>35.7</ele>
        <time>2022-10-19T12:04:57Z</time>
      </trkpt>
      <trkpt lat="49.90036" lon="2.48367">
        <ele>35.7</ele>
        <time>2022-10-19T12:04:58Z</time>
      </trkpt>
      <trkpt lat="49.90037" lon="2.48369">
        <ele>35.7</ele>
        <time>2022-10-19T12:04:59Z</time>
      </trkpt>
      <trkpt lat="49.90037" lon="2.4837">
        <ele>35.7</ele>
        <time>2022-10-19T12:05:00Z</time>
      </trkpt>
      <trkpt lat="49.90038" lon="2.48371">
        <ele>35.7</ele>
        <time>2022-10-19T12:05:01Z</time>
      </trkpt>
      <trkpt lat="49.90039" lon="2.48375">
        <ele>35.6</ele>
        <time>2022-10-19T12:05:02Z</time>
      </trkpt>
      <trkpt lat="49.90039" lon="2.48376">
        <ele>35.6</ele>
        <time>2022-10-19T12:05:04Z</time>
      </trkpt>
      <trkpt lat="49.90039" lon="2.48378">
        <ele>35.6</ele>
        <time>2022-10-19T12:05:05Z</time>
      </trkpt>
      <trkpt lat="49.9004" lon="2.48379">
        <ele>35.6</ele>
        <time>2022-10-19T12:05:06Z</time>
      </trkpt>
      <trkpt lat="49.9004" lon="2.48381">
        <ele>35.5</ele>
        <time>2022-10-19T12:05:07Z</time>
      </trkpt>
      <trkpt lat="49.90041" lon="2.48382">
        <ele>35.5</ele>
        <time>2022-10-19T12:05:08Z</time>
      </trkpt>
      <trkpt lat="49.90041" lon="2.48383">
        <ele>35.5</ele>
        <time>2022-10-19T12:05:09Z</time>
      </trkpt>
      <trkpt lat="49.90041" lon="2.48384">
        <ele>35.5</ele>
        <time>2022-10-19T12:05:10Z</time>
      </trkpt>
      <trkpt lat="49.90042" lon="2.48386">
        <ele>35.5</ele>
        <time>2022-10-19T12:05:11Z</time>
      </trkpt>
      <trkpt lat="49.90042" lon="2.48387">
        <ele>35.4</ele>
        <time>2022-10-19T12:05:12Z</time>
      </trkpt>
      <trkpt lat="49.90042" lon="2.48389">
        <ele>35.4</ele>
        <time>2022-10-19T12:05:13Z</time>
      </trkpt>
      <trkpt lat="49.90043" lon="2.4839">
        <ele>35.4</ele>
        <time>2022-10-19T12:05:14Z</time>
      </trkpt>
      <trkpt lat="49.90043" lon="2.48391">
        <ele>35.4</ele>
        <time>2022-10-19T12:05:15Z</time>
      </trkpt>
      <trkpt lat="49.90044" lon="2.48394">
        <ele>35.3</ele>
        <time>2022-10-19T12:05:16Z</time>
      </trkpt>
      <trkpt lat="49.90045" lon="2.48395">
        <ele>35.3</ele>
        <time>2022-10-19T12:05:17Z</time>
      </trkpt>
      <trkpt lat="49.90045" lon="2.48396">
        <ele>35.3</ele>
        <time>2022-10-19T12:05:18Z</time>
      </trkpt>
      <trkpt lat="49.90046" lon="2.48398">
        <ele>35.3</ele>
        <time>2022-10-19T12:05:19Z</time>
      </trkpt>
      <trkpt lat="49.90046" lon="2.48399">
        <ele>35.3</ele>
        <time>2022-10-19T12:05:20Z</time>
      </trkpt>
      <trkpt lat="49.90047" lon="2.48401">
        <ele>35.2</ele>
        <time>2022-10-19T12:05:21Z</time>
      </trkpt>
      <trkpt lat="49.90047" lon="2.48401">
        <ele>35.2</ele>
        <time>2022-10-19T12:05:22Z</time>
      </trkpt>
      <trkpt lat="49.90048" lon="2.48402">
        <ele>35.2</ele>
        <time>2022-10-19T12:05:23Z</time>
      </trkpt>
      <trkpt lat="49.90048" lon="2.48404">
        <ele>35.2</ele>
        <time>2022-10-19T12:05:24Z</time>
      </trkpt>
      <trkpt lat="49.90049" lon="2.48407">
        <ele>35.1</ele>
        <time>2022-10-19T12:05:26Z</time>
      </trkpt>
      <trkpt lat="49.90049" lon="2.48409">
        <ele>35.1</ele>
        <time>2022-10-19T12:05:27Z</time>
      </trkpt>
      <trkpt lat="49.9005" lon="2.48412">
        <ele>35.1</ele>
        <time>2022-10-19T12:05:28Z</time>
      </trkpt>
      <trkpt lat="49.9005" lon="2.48414">
        <ele>35</ele>
        <time>2022-10-19T12:05:29Z</time>
      </trkpt>
      <trkpt lat="49.90051" lon="2.48417">
        <ele>35</ele>
        <time>2022-10-19T12:05:31Z</time>
      </trkpt>
      <trkpt lat="49.90052" lon="2.48419">
        <ele>34.9</ele>
        <time>2022-10-19T12:05:32Z</time>
      </trkpt>
      <trkpt lat="49.90053" lon="2.4842">
        <ele>34.9</ele>
        <time>2022-10-19T12:05:33Z</time>
      </trkpt>
      <trkpt lat="49.90054" lon="2.48424">
        <ele>34.9</ele>
        <time>2022-10-19T12:05:34Z</time>
      </trkpt>
      <trkpt lat="49.90054" lon="2.48425">
        <ele>34.8</ele>
        <time>2022-10-19T12:05:35Z</time>
      </trkpt>
      <trkpt lat="49.90054" lon="2.48426">
        <ele>34.8</ele>
        <time>2022-10-19T12:05:36Z</time>
      </trkpt>
      <trkpt lat="49.90055" lon="2.48428">
        <ele>34.8</ele>
        <time>2022-10-19T12:05:37Z</time>
      </trkpt>
      <trkpt lat="49.90055" lon="2.48429">
        <ele>34.8</ele>
        <time>2022-10-19T12:05:38Z</time>
      </trkpt>
      <trkpt lat="49.90056" lon="2.48433">
        <ele>34.7</ele>
        <time>2022-10-19T12:05:39Z</time>
      </trkpt>
      <trkpt lat="49.90056" lon="2.48435">
        <ele>34.7</ele>
        <time>2022-10-19T12:05:41Z</time>
      </trkpt>
      <trkpt lat="49.90057" lon="2.48436">
        <ele>34.7</ele>
        <time>2022-10-19T12:05:42Z</time>
      </trkpt>
      <trkpt lat="49.90057" lon="2.48438">
        <ele>34.7</ele>
        <time>2022-10-19T12:05:43Z</time>
      </trkpt>
      <trkpt lat="49.90057" lon="2.48439">
        <ele>34.6</ele>
        <time>2022-10-19T12:05:44Z</time>
      </trkpt>
      <trkpt lat="49.90058" lon="2.4844">
        <ele>34.6</ele>
        <time>2022-10-19T12:05:45Z</time>
      </trkpt>
      <trkpt lat="49.90058" lon="2.48442">
        <ele>34.6</ele>
        <time>2022-10-19T12:05:46Z</time>
      </trkpt>
      <trkpt lat="49.90059" lon="2.48444">
        <ele>34.6</ele>
        <time>2022-10-19T12:05:47Z</time>
      </trkpt>
      <trkpt lat="49.9006" lon="2.48445">
        <ele>34.5</ele>
        <time>2022-10-19T12:05:48Z</time>
      </trkpt>
      <trkpt lat="49.9006" lon="2.48447">
        <ele>34.5</ele>
        <time>2022-10-19T12:05:49Z</time>
      </trkpt>
      <trkpt lat="49.90061" lon="2.48449">
        <ele>34.5</ele>
        <time>2022-10-19T12:05:51Z</time>
      </trkpt>
      <trkpt lat="49.90062" lon="2.48452">
        <ele>34.4</ele>
        <time>2022-10-19T12:05:52Z</time>
      </trkpt>
      <trkpt lat="49.90063" lon="2.48453">
        <ele>34.4</ele>
        <time>2022-10-19T12:05:53Z</time>
      </trkpt>
      <trkpt lat="49.90063" lon="2.48454">
        <ele>34.4</ele>
        <time>2022-10-19T12:05:54Z</time>
      </trkpt>
      <trkpt lat="49.90065" lon="2.48456">
        <ele>34.4</ele>
        <time>2022-10-19T12:05:55Z</time>
      </trkpt>
      <trkpt lat="49.90065" lon="2.48458">
        <ele>34.3</ele>
        <time>2022-10-19T12:05:57Z</time>
      </trkpt>
      <trkpt lat="49.90066" lon="2.48459">
        <ele>34.3</ele>
        <time>2022-10-19T12:05:58Z</time>
      </trkpt>
      <trkpt lat="49.90066" lon="2.48461">
        <ele>34.3</ele>
        <time>2022-10-19T12:05:59Z</time>
      </trkpt>
      <trkpt lat="49.90067" lon="2.48462">
        <ele>34.3</ele>
        <time>2022-10-19T12:06:00Z</time>
      </trkpt>
      <trkpt lat="49.90067" lon="2.48464">
        <ele>34.2</ele>
        <time>2022-10-19T12:06:01Z</time>
      </trkpt>
      <trkpt lat="49.90068" lon="2.48467">
        <ele>34.2</ele>
        <time>2022-10-19T12:06:03Z</time>
      </trkpt>
      <trkpt lat="49.90068" lon="2.48468">
        <ele>34.2</ele>
        <time>2022-10-19T12:06:04Z</time>
      </trkpt>
      <trkpt lat="49.90068" lon="2.48469">
        <ele>34.2</ele>
        <time>2022-10-19T12:06:05Z</time>
      </trkpt>
      <trkpt lat="49.90069" lon="2.48473">
        <ele>34.1</ele>
        <time>2022-10-19T12:06:06Z</time>
      </trkpt>
      <trkpt lat="49.90069" lon="2.48474">
        <ele>34.1</ele>
        <time>2022-10-19T12:06:07Z</time>
      </trkpt>
      <trkpt lat="49.90069" lon="2.48475">
        <ele>34.1</ele>
        <time>2022-10-19T12:06:08Z</time>
      </trkpt>
      <trkpt lat="49.90068" lon="2.48478">
        <ele>34</ele>
        <time>2022-10-19T12:06:09Z</time>
      </trkpt>
      <trkpt lat="49.90068" lon="2.48479">
        <ele>34</ele>
        <time>2022-10-19T12:06:10Z</time>
      </trkpt>
      <trkpt lat="49.90069" lon="2.48481">
        <ele>34</ele>
        <time>2022-10-19T12:06:11Z</time>
      </trkpt>
      <trkpt lat="49.90069" lon="2.48483">
        <ele>34</ele>
        <time>2022-10-19T12:06:12Z</time>
      </trkpt>
      <trkpt lat="49.90069" lon="2.48485">
        <ele>34</ele>
        <time>2022-10-19T12:06:14Z</time>
      </trkpt>
      <trkpt lat="49.90068" lon="2.48487">
        <ele>33.9</ele>
        <time>2022-10-19T12:06:15Z</time>
      </trkpt>
      <trkpt lat="49.90068" lon="2.48489">
        <ele>33.9</ele>
        <time>2022-10-19T12:06:16Z</time>
      </trkpt>
      <trkpt lat="49.90068" lon="2.4849">
        <ele>33.9</ele>
        <time>2022-10-19T12:06:17Z</time>
      </trkpt>
      <trkpt lat="49.90069" lon="2.48493">
        <ele>33.8</ele>
        <time>2022-10-19T12:06:18Z</time>
      </trkpt>
      <trkpt lat="49.90069" lon="2.48494">
        <ele>33.8</ele>
        <time>2022-10-19T12:06:19Z</time>
      </trkpt>
      <trkpt lat="49.90069" lon="2.48495">
        <ele>33.8</ele>
        <time>2022-10-19T12:06:20Z</time>
      </trkpt>
      <trkpt lat="49.90069" lon="2.48496">
        <ele>33.8</ele>
        <time>2022-10-19T12:06:21Z</time>
      </trkpt>
      <trkpt lat="49.90069" lon="2.48498">
        <ele>33.8</ele>
        <time>2022-10-19T12:06:22Z</time>
      </trkpt>
      <trkpt lat="49.9007" lon="2.48499">
        <ele>33.7</ele>
        <time>2022-10-19T12:06:23Z</time>
      </trkpt>
      <trkpt lat="49.90071" lon="2.48501">
        <ele>33.7</ele>
        <time>2022-10-19T12:06:25Z</time>
      </trkpt>
      <trkpt lat="49.90072" lon="2.48502">
        <ele>33.7</ele>
        <time>2022-10-19T12:06:26Z</time>
      </trkpt>
      <trkpt lat="49.90072" lon="2.48503">
        <ele>33.7</ele>
        <time>2022-10-19T12:06:27Z</time>
      </trkpt>
      <trkpt lat="49.90073" lon="2.48505">
        <ele>33.7</ele>
        <time>2022-10-19T12:06:28Z</time>
      </trkpt>
      <trkpt lat="49.90073" lon="2.48506">
        <ele>33.6</ele>
        <time>2022-10-19T12:06:29Z</time>
      </trkpt>
      <trkpt lat="49.90074" lon="2.48508">
        <ele>33.6</ele>
        <time>2022-10-19T12:06:30Z</time>
      </trkpt>
      <trkpt lat="49.90075" lon="2.48509">
        <ele>33.6</ele>
        <time>2022-10-19T12:06:31Z</time>
      </trkpt>
      <trkpt lat="49.90075" lon="2.48511">
        <ele>33.5</ele>
        <time>2022-10-19T12:06:32Z</time>
      </trkpt>
      <trkpt lat="49.90076" lon="2.48513">
        <ele>33.5</ele>
        <time>2022-10-19T12:06:33Z</time>
      </trkpt>
      <trkpt lat="49.90077" lon="2.48516">
        <ele>33.4</ele>
        <time>2022-10-19T12:06:34Z</time>
      </trkpt>
      <trkpt lat="49.90078" lon="2.48518">
        <ele>33.4</ele>
        <time>2022-10-19T12:06:36Z</time>
      </trkpt>
      <trkpt lat="49.90078" lon="2.48519">
        <ele>33.4</ele>
        <time>2022-10-19T12:06:37Z</time>
      </trkpt>
      <trkpt lat="49.90079" lon="2.48521">
        <ele>33.3</ele>
        <time>2022-10-19T12:06:38Z</time>
      </trkpt>
      <trkpt lat="49.90079" lon="2.48523">
        <ele>33.3</ele>
        <time>2022-10-19T12:06:39Z</time>
      </trkpt>
      <trkpt lat="49.9008" lon="2.48524">
        <ele>33.3</ele>
        <time>2022-10-19T12:06:40Z</time>
      </trkpt>
      <trkpt lat="49.9008" lon="2.48525">
        <ele>33.2</ele>
        <time>2022-10-19T12:06:41Z</time>
      </trkpt>
      <trkpt lat="49.90081" lon="2.48527">
        <ele>33.2</ele>
        <time>2022-10-19T12:06:42Z</time>
      </trkpt>
      <trkpt lat="49.90082" lon="2.48531">
        <ele>33.1</ele>
        <time>2022-10-19T12:06:44Z</time>
      </trkpt>
      <trkpt lat="49.90082" lon="2.48533">
        <ele>33.1</ele>
        <time>2022-10-19T12:06:45Z</time>
      </trkpt>
      <trkpt lat="49.90083" lon="2.48534">
        <ele>33</ele>
        <time>2022-10-19T12:06:46Z</time>
      </trkpt>
      <trkpt lat="49.90084" lon="2.48535">
        <ele>33</ele>
        <time>2022-10-19T12:06:47Z</time>
      </trkpt>
      <trkpt lat="49.90084" lon="2.48537">
        <ele>33</ele>
        <time>2022-10-19T12:06:48Z</time>
      </trkpt>
      <trkpt lat="49.90086" lon="2.48538">
        <ele>32.9</ele>
        <time>2022-10-19T12:06:49Z</time>
      </trkpt>
      <trkpt lat="49.90087" lon="2.48539">
        <ele>32.8</ele>
        <time>2022-10-19T12:06:50Z</time>
      </trkpt>
      <trkpt lat="49.90089" lon="2.48541">
        <ele>32.8</ele>
        <time>2022-10-19T12:06:52Z</time>
      </trkpt>
      <trkpt lat="49.9009" lon="2.48542">
        <ele>32.7</ele>
        <time>2022-10-19T12:06:53Z</time>
      </trkpt>
      <trkpt lat="49.9009" lon="2.48542">
        <ele>32.7</ele>
        <time>2022-10-19T12:06:54Z</time>
      </trkpt>
      <trkpt lat="49.90091" lon="2.48544">
        <ele>32.6</ele>
        <time>2022-10-19T12:06:55Z</time>
      </trkpt>
      <trkpt lat="49.90092" lon="2.48545">
        <ele>32.6</ele>
        <time>2022-10-19T12:06:56Z</time>
      </trkpt>
      <trkpt lat="49.90093" lon="2.48546">
        <ele>32.6</ele>
        <time>2022-10-19T12:06:57Z</time>
      </trkpt>
      <trkpt lat="49.90094" lon="2.48547">
        <ele>32.5</ele>
        <time>2022-10-19T12:06:58Z</time>
      </trkpt>
      <trkpt lat="49.90095" lon="2.48549">
        <ele>32.5</ele>
        <time>2022-10-19T12:06:59Z</time>
      </trkpt>
      <trkpt lat="49.90096" lon="2.4855">
        <ele>32.4</ele>
        <time>2022-10-19T12:07:01Z</time>
      </trkpt>
      <trkpt lat="49.90097" lon="2.48551">
        <ele>32.3</ele>
        <time>2022-10-19T12:07:02Z</time>
      </trkpt>
      <trkpt lat="49.90098" lon="2.48553">
        <ele>32.3</ele>
        <time>2022-10-19T12:07:03Z</time>
      </trkpt>
      <trkpt lat="49.90099" lon="2.48555">
        <ele>32.2</ele>
        <time>2022-10-19T12:07:04Z</time>
      </trkpt>
      <trkpt lat="49.901" lon="2.48558">
        <ele>32.2</ele>
        <time>2022-10-19T12:07:05Z</time>
      </trkpt>
      <trkpt lat="49.901" lon="2.48559">
        <ele>32.1</ele>
        <time>2022-10-19T12:07:06Z</time>
      </trkpt>
      <trkpt lat="49.90101" lon="2.4856">
        <ele>32.1</ele>
        <time>2022-10-19T12:07:07Z</time>
      </trkpt>
      <trkpt lat="49.90101" lon="2.48562">
        <ele>32</ele>
        <time>2022-10-19T12:07:08Z</time>
      </trkpt>
      <trkpt lat="49.90102" lon="2.48564">
        <ele>32</ele>
        <time>2022-10-19T12:07:09Z</time>
      </trkpt>
      <trkpt lat="49.90102" lon="2.48566">
        <ele>31.9</ele>
        <time>2022-10-19T12:07:10Z</time>
      </trkpt>
      <trkpt lat="49.90102" lon="2.48567">
        <ele>31.9</ele>
        <time>2022-10-19T12:07:11Z</time>
      </trkpt>
      <trkpt lat="49.90102" lon="2.48569">
        <ele>31.9</ele>
        <time>2022-10-19T12:07:12Z</time>
      </trkpt>
      <trkpt lat="49.90102" lon="2.48571">
        <ele>31.8</ele>
        <time>2022-10-19T12:07:13Z</time>
      </trkpt>
      <trkpt lat="49.90103" lon="2.48573">
        <ele>31.8</ele>
        <time>2022-10-19T12:07:14Z</time>
      </trkpt>
      <trkpt lat="49.90103" lon="2.48575">
        <ele>31.7</ele>
        <time>2022-10-19T12:07:16Z</time>
      </trkpt>
      <trkpt lat="49.90104" lon="2.48576">
        <ele>31.7</ele>
        <time>2022-10-19T12:07:17Z</time>
      </trkpt>
      <trkpt lat="49.90104" lon="2.48578">
        <ele>31.7</ele>
        <time>2022-10-19T12:07:18Z</time>
      </trkpt>
      <trkpt lat="49.90105" lon="2.4858">
        <ele>31.6</ele>
        <time>2022-10-19T12:07:19Z</time>
      </trkpt>
      <trkpt lat="49.90106" lon="2.48582">
        <ele>31.5</ele>
        <time>2022-10-19T12:07:20Z</time>
      </trkpt>
      <trkpt lat="49.90106" lon="2.48582">
        <ele>31.5</ele>
        <time>2022-10-19T12:07:21Z</time>
      </trkpt>
      <trkpt lat="49.90107" lon="2.48584">
        <ele>31.5</ele>
        <time>2022-10-19T12:07:22Z</time>
      </trkpt>
      <trkpt lat="49.90108" lon="2.48586">
        <ele>31.4</ele>
        <time>2022-10-19T12:07:23Z</time>
      </trkpt>
      <trkpt lat="49.90109" lon="2.48587">
        <ele>31.4</ele>
        <time>2022-10-19T12:07:24Z</time>
      </trkpt>
      <trkpt lat="49.90109" lon="2.48588">
        <ele>31.4</ele>
        <time>2022-10-19T12:07:25Z</time>
      </trkpt>
      <trkpt lat="49.9011" lon="2.48589">
        <ele>31.4</ele>
        <time>2022-10-19T12:07:26Z</time>
      </trkpt>
      <trkpt lat="49.90111" lon="2.48591">
        <ele>31.3</ele>
        <time>2022-10-19T12:07:28Z</time>
      </trkpt>
      <trkpt lat="49.90112" lon="2.48592">
        <ele>31.3</ele>
        <time>2022-10-19T12:07:29Z</time>
      </trkpt>
      <trkpt lat="49.90114" lon="2.48594">
        <ele>31.2</ele>
        <time>2022-10-19T12:07:30Z</time>
      </trkpt>
      <trkpt lat="49.90114" lon="2.48595">
        <ele>31.2</ele>
        <time>2022-10-19T12:07:31Z</time>
      </trkpt>
      <trkpt lat="49.90116" lon="2.48597">
        <ele>31.1</ele>
        <time>2022-10-19T12:07:32Z</time>
      </trkpt>
      <trkpt lat="49.90117" lon="2.48598">
        <ele>31.1</ele>
        <time>2022-10-19T12:07:33Z</time>
      </trkpt>
      <trkpt lat="49.90117" lon="2.48599">
        <ele>31.1</ele>
        <time>2022-10-19T12:07:34Z</time>
      </trkpt>
      <trkpt lat="49.90118" lon="2.48601">
        <ele>31</ele>
        <time>2022-10-19T12:07:35Z</time>
      </trkpt>
      <trkpt lat="49.90119" lon="2.48603">
        <ele>31</ele>
        <time>2022-10-19T12:07:36Z</time>
      </trkpt>
      <trkpt lat="49.90119" lon="2.48605">
        <ele>31</ele>
        <time>2022-10-19T12:07:38Z</time>
      </trkpt>
      <trkpt lat="49.9012" lon="2.48607">
        <ele>30.9</ele>
        <time>2022-10-19T12:07:39Z</time>
      </trkpt>
      <trkpt lat="49.90121" lon="2.48609">
        <ele>30.9</ele>
        <time>2022-10-19T12:07:40Z</time>
      </trkpt>
      <trkpt lat="49.90121" lon="2.4861">
        <ele>30.9</ele>
        <time>2022-10-19T12:07:41Z</time>
      </trkpt>
      <trkpt lat="49.90122" lon="2.48612">
        <ele>30.8</ele>
        <time>2022-10-19T12:07:42Z</time>
      </trkpt>
      <trkpt lat="49.90122" lon="2.48614">
        <ele>30.8</ele>
        <time>2022-10-19T12:07:43Z</time>
      </trkpt>
      <trkpt lat="49.90121" lon="2.48616">
        <ele>30.8</ele>
        <time>2022-10-19T12:07:44Z</time>
      </trkpt>
      <trkpt lat="49.90122" lon="2.48617">
        <ele>30.8</ele>
        <time>2022-10-19T12:07:45Z</time>
      </trkpt>
      <trkpt lat="49.90123" lon="2.48617">
        <ele>30.7</ele>
        <time>2022-10-19T12:07:46Z</time>
      </trkpt>
      <trkpt lat="49.90123" lon="2.48616">
        <ele>30.7</ele>
        <time>2022-10-19T12:07:47Z</time>
      </trkpt>
      <trkpt lat="49.90124" lon="2.48615">
        <ele>30.7</ele>
        <time>2022-10-19T12:07:49Z</time>
      </trkpt>
      <trkpt lat="49.90126" lon="2.48614">
        <ele>30.7</ele>
        <time>2022-10-19T12:07:50Z</time>
      </trkpt>
      <trkpt lat="49.90126" lon="2.48615">
        <ele>30.7</ele>
        <time>2022-10-19T12:07:51Z</time>
      </trkpt>
      <trkpt lat="49.90127" lon="2.48615">
        <ele>30.7</ele>
        <time>2022-10-19T12:07:52Z</time>
      </trkpt>
      <trkpt lat="49.90127" lon="2.48616">
        <ele>30.6</ele>
        <time>2022-10-19T12:07:53Z</time>
      </trkpt>
      <trkpt lat="49.90127" lon="2.48616">
        <ele>30.6</ele>
        <time>2022-10-19T12:07:54Z</time>
      </trkpt>
      <trkpt lat="49.90128" lon="2.48617">
        <ele>30.6</ele>
        <time>2022-10-19T12:07:55Z</time>
      </trkpt>
      <trkpt lat="49.90128" lon="2.48617">
        <ele>30.6</ele>
        <time>2022-10-19T12:07:56Z</time>
      </trkpt>
      <trkpt lat="49.90128" lon="2.48618">
        <ele>30.6</ele>
        <time>2022-10-19T12:07:57Z</time>
      </trkpt>
      <trkpt lat="49.90128" lon="2.48618">
        <ele>30.6</ele>
        <time>2022-10-19T12:07:58Z</time>
      </trkpt>
      <trkpt lat="49.90129" lon="2.48619">
        <ele>30.6</ele>
        <time>2022-10-19T12:07:59Z</time>
      </trkpt>
      <trkpt lat="49.90128" lon="2.48621">
        <ele>30.5</ele>
        <time>2022-10-19T12:08:00Z</time>
      </trkpt>
      <trkpt lat="49.90128" lon="2.48621">
        <ele>30.5</ele>
        <time>2022-10-19T12:08:01Z</time>
      </trkpt>
      <trkpt lat="49.90127" lon="2.48621">
        <ele>30.5</ele>
        <time>2022-10-19T12:08:02Z</time>
      </trkpt>
      <trkpt lat="49.90127" lon="2.48621">
        <ele>30.5</ele>
        <time>2022-10-19T12:08:03Z</time>
      </trkpt>
      <trkpt lat="49.90126" lon="2.4862">
        <ele>30.5</ele>
        <time>2022-10-19T12:08:04Z</time>
      </trkpt>
      <trkpt lat="49.90126" lon="2.4862">
        <ele>30.5</ele>
        <time>2022-10-19T12:08:06Z</time>
      </trkpt>
      <trkpt lat="49.90126" lon="2.48619">
        <ele>30.5</ele>
        <time>2022-10-19T12:08:07Z</time>
      </trkpt>
      <trkpt lat="49.90126" lon="2.48619">
        <ele>30.5</ele>
        <time>2022-10-19T12:08:08Z</time>
      </trkpt>
      <trkpt lat="49.90126" lon="2.48619">
        <ele>30.5</ele>
        <time>2022-10-19T12:08:09Z</time>
      </trkpt>
      <trkpt lat="49.90126" lon="2.4862">
        <ele>30.5</ele>
        <time>2022-10-19T12:08:10Z</time>
      </trkpt>
      <trkpt lat="49.90125" lon="2.4862">
        <ele>30.5</ele>
        <time>2022-10-19T12:08:11Z</time>
      </trkpt>
      <trkpt lat="49.90125" lon="2.4862">
        <ele>30.5</ele>
        <time>2022-10-19T12:08:12Z</time>
      </trkpt>
      <trkpt lat="49.90125" lon="2.4862">
        <ele>30.5</ele>
        <time>2022-10-19T12:08:13Z</time>
      </trkpt>
      <trkpt lat="49.90125" lon="2.4862">
        <ele>30.5</ele>
        <time>2022-10-19T12:08:14Z</time>
      </trkpt>
      <trkpt lat="49.90125" lon="2.4862">
        <ele>30.5</ele>
        <time>2022-10-19T12:08:16Z</time>
      </trkpt>
      <trkpt lat="49.90125" lon="2.48619">
        <ele>30.5</ele>
        <time>2022-10-19T12:08:17Z</time>
      </trkpt>
      <trkpt lat="49.90125" lon="2.48619">
        <ele>30.5</ele>
        <time>2022-10-19T12:08:18Z</time>
      </trkpt>
      <trkpt lat="49.90125" lon="2.48619">
        <ele>30.5</ele>
        <time>2022-10-19T12:08:19Z</time>
      </trkpt>
      <trkpt lat="49.90125" lon="2.48619">
        <ele>30.5</ele>
        <time>2022-10-19T12:08:20Z</time>
      </trkpt>
      <trkpt lat="49.90125" lon="2.48619">
        <ele>30.5</ele>
        <time>2022-10-19T12:08:21Z</time>
      </trkpt>
      <trkpt lat="49.90125" lon="2.48619">
        <ele>30.5</ele>
        <time>2022-10-19T12:08:22Z</time>
      </trkpt>
      <trkpt lat="49.90125" lon="2.48619">
        <ele>30.5</ele>
        <time>2022-10-19T12:08:23Z</time>
      </trkpt>
      <trkpt lat="49.90125" lon="2.48619">
        <ele>30.5</ele>
        <time>2022-10-19T12:08:24Z</time>
      </trkpt>
      <trkpt lat="49.90124" lon="2.48619">
        <ele>30.5</ele>
        <time>2022-10-19T12:08:25Z</time>
      </trkpt>
      <trkpt lat="49.90124" lon="2.48619">
        <ele>30.5</ele>
        <time>2022-10-19T12:08:26Z</time>
      </trkpt>
      <trkpt lat="49.90124" lon="2.48619">
        <ele>30.5</ele>
        <time>2022-10-19T12:08:27Z</time>
      </trkpt>
      <trkpt lat="49.90124" lon="2.48619">
        <ele>30.5</ele>
        <time>2022-10-19T12:08:28Z</time>
      </trkpt>
      <trkpt lat="49.90124" lon="2.48619">
        <ele>30.4</ele>
        <time>2022-10-19T12:08:29Z</time>
      </trkpt>
      <trkpt lat="49.90124" lon="2.48618">
        <ele>30.4</ele>
        <time>2022-10-19T12:08:30Z</time>
      </trkpt>
      <trkpt lat="49.90124" lon="2.48618">
        <ele>30.4</ele>
        <time>2022-10-19T12:08:31Z</time>
      </trkpt>
      <trkpt lat="49.90124" lon="2.48618">
        <ele>30.4</ele>
        <time>2022-10-19T12:08:32Z</time>
      </trkpt>
      <trkpt lat="49.90124" lon="2.48618">
        <ele>30.4</ele>
        <time>2022-10-19T12:08:33Z</time>
      </trkpt>
      <trkpt lat="49.90124" lon="2.48618">
        <ele>30.4</ele>
        <time>2022-10-19T12:08:34Z</time>
      </trkpt>
      <trkpt lat="49.90124" lon="2.48618">
        <ele>30.4</ele>
        <time>2022-10-19T12:08:35Z</time>
      </trkpt>
      <trkpt lat="49.90124" lon="2.48618">
        <ele>30.4</ele>
        <time>2022-10-19T12:08:36Z</time>
      </trkpt>
      <trkpt lat="49.90124" lon="2.48618">
        <ele>30.4</ele>
        <time>2022-10-19T12:08:37Z</time>
      </trkpt>
      <trkpt lat="49.90123" lon="2.48618">
        <ele>30.4</ele>
        <time>2022-10-19T12:08:38Z</time>
      </trkpt>
      <trkpt lat="49.90123" lon="2.48618">
        <ele>30.4</ele>
        <time>2022-10-19T12:08:39Z</time>
      </trkpt>
      <trkpt lat="49.90123" lon="2.48618">
        <ele>30.4</ele>
        <time>2022-10-19T12:08:40Z</time>
      </trkpt>
      <trkpt lat="49.90123" lon="2.48618">
        <ele>30.4</ele>
        <time>2022-10-19T12:08:41Z</time>
      </trkpt>
      <trkpt lat="49.90123" lon="2.48618">
        <ele>30.4</ele>
        <time>2022-10-19T12:08:42Z</time>
      </trkpt>
      <trkpt lat="49.90123" lon="2.48618">
        <ele>30.4</ele>
        <time>2022-10-19T12:08:43Z</time>
      </trkpt>
      <trkpt lat="49.90123" lon="2.48617">
        <ele>30.4</ele>
        <time>2022-10-19T12:08:44Z</time>
      </trkpt>
      <trkpt lat="49.90123" lon="2.48617">
        <ele>30.4</ele>
        <time>2022-10-19T12:08:45Z</time>
      </trkpt>
      <trkpt lat="49.90123" lon="2.48617">
        <ele>30.4</ele>
        <time>2022-10-19T12:08:46Z</time>
      </trkpt>
      <trkpt lat="49.90123" lon="2.48617">
        <ele>30.4</ele>
        <time>2022-10-19T12:08:47Z</time>
      </trkpt>
      <trkpt lat="49.90123" lon="2.48617">
        <ele>30.4</ele>
        <time>2022-10-19T12:08:48Z</time>
      </trkpt>
      <trkpt lat="49.90123" lon="2.48617">
        <ele>30.4</ele>
        <time>2022-10-19T12:08:49Z</time>
      </trkpt>
      <trkpt lat="49.90123" lon="2.48617">
        <ele>30.4</ele>
        <time>2022-10-19T12:08:50Z</time>
      </trkpt>
      <trkpt lat="49.90122" lon="2.48617">
        <ele>30.4</ele>
        <time>2022-10-19T12:08:51Z</time>
      </trkpt>
      <trkpt lat="49.90122" lon="2.48617">
        <ele>30.4</ele>
        <time>2022-10-19T12:08:52Z</time>
      </trkpt>
      <trkpt lat="49.90122" lon="2.48617">
        <ele>30.4</ele>
        <time>2022-10-19T12:08:53Z</time>
      </trkpt>
      <trkpt lat="49.90122" lon="2.48617">
        <ele>30.4</ele>
        <time>2022-10-19T12:08:54Z</time>
      </trkpt>
      <trkpt lat="49.90122" lon="2.48617">
        <ele>30.4</ele>
        <time>2022-10-19T12:08:55Z</time>
      </trkpt>
      <trkpt lat="49.90122" lon="2.48617">
        <ele>30.4</ele>
        <time>2022-10-19T12:08:56Z</time>
      </trkpt>
      <trkpt lat="49.90121" lon="2.48617">
        <ele>30.4</ele>
        <time>2022-10-19T12:08:57Z</time>
      </trkpt>
      <trkpt lat="49.90122" lon="2.48617">
        <ele>30.4</ele>
        <time>2022-10-19T12:08:58Z</time>
      </trkpt>
      <trkpt lat="49.90122" lon="2.48618">
        <ele>30.4</ele>
        <time>2022-10-19T12:08:59Z</time>
      </trkpt>
      <trkpt lat="49.90123" lon="2.48618">
        <ele>30.3</ele>
        <time>2022-10-19T12:09:00Z</time>
      </trkpt>
      <trkpt lat="49.90124" lon="2.48619">
        <ele>30.3</ele>
        <time>2022-10-19T12:09:01Z</time>
      </trkpt>
      <trkpt lat="49.90124" lon="2.48619">
        <ele>30.3</ele>
        <time>2022-10-19T12:09:02Z</time>
      </trkpt>
      <trkpt lat="49.90124" lon="2.4862">
        <ele>30.3</ele>
        <time>2022-10-19T12:09:03Z</time>
      </trkpt>
      <trkpt lat="49.90126" lon="2.48622">
        <ele>30.2</ele>
        <time>2022-10-19T12:09:04Z</time>
      </trkpt>
      <trkpt lat="49.90126" lon="2.48623">
        <ele>30.2</ele>
        <time>2022-10-19T12:09:06Z</time>
      </trkpt>
      <trkpt lat="49.90127" lon="2.48625">
        <ele>30.2</ele>
        <time>2022-10-19T12:09:07Z</time>
      </trkpt>
      <trkpt lat="49.90128" lon="2.48625">
        <ele>30.2</ele>
        <time>2022-10-19T12:09:08Z</time>
      </trkpt>
      <trkpt lat="49.90128" lon="2.48627">
        <ele>30.2</ele>
        <time>2022-10-19T12:09:09Z</time>
      </trkpt>
      <trkpt lat="49.9013" lon="2.48628">
        <ele>30.2</ele>
        <time>2022-10-19T12:09:10Z</time>
      </trkpt>
      <trkpt lat="49.90132" lon="2.48631">
        <ele>30.1</ele>
        <time>2022-10-19T12:09:12Z</time>
      </trkpt>
      <trkpt lat="49.90133" lon="2.48632">
        <ele>30.1</ele>
        <time>2022-10-19T12:09:13Z</time>
      </trkpt>
      <trkpt lat="49.90134" lon="2.48632">
        <ele>30.1</ele>
        <time>2022-10-19T12:09:14Z</time>
      </trkpt>
      <trkpt lat="49.90134" lon="2.48633">
        <ele>30.1</ele>
        <time>2022-10-19T12:09:15Z</time>
      </trkpt>
      <trkpt lat="49.90135" lon="2.48635">
        <ele>30.1</ele>
        <time>2022-10-19T12:09:16Z</time>
      </trkpt>
      <trkpt lat="49.90136" lon="2.48636">
        <ele>30.1</ele>
        <time>2022-10-19T12:09:17Z</time>
      </trkpt>
      <trkpt lat="49.90136" lon="2.48637">
        <ele>30.1</ele>
        <time>2022-10-19T12:09:18Z</time>
      </trkpt>
      <trkpt lat="49.90137" lon="2.48638">
        <ele>30.1</ele>
        <time>2022-10-19T12:09:19Z</time>
      </trkpt>
      <trkpt lat="49.90137" lon="2.4864">
        <ele>30</ele>
        <time>2022-10-19T12:09:20Z</time>
      </trkpt>
      <trkpt lat="49.90138" lon="2.48643">
        <ele>30</ele>
        <time>2022-10-19T12:09:22Z</time>
      </trkpt>
      <trkpt lat="49.90138" lon="2.48643">
        <ele>30</ele>
        <time>2022-10-19T12:09:23Z</time>
      </trkpt>
      <trkpt lat="49.90138" lon="2.48645">
        <ele>30</ele>
        <time>2022-10-19T12:09:24Z</time>
      </trkpt>
      <trkpt lat="49.90138" lon="2.48647">
        <ele>30</ele>
        <time>2022-10-19T12:09:25Z</time>
      </trkpt>
      <trkpt lat="49.90138" lon="2.48648">
        <ele>30</ele>
        <time>2022-10-19T12:09:26Z</time>
      </trkpt>
      <trkpt lat="49.90138" lon="2.4865">
        <ele>30</ele>
        <time>2022-10-19T12:09:28Z</time>
      </trkpt>
      <trkpt lat="49.90138" lon="2.48652">
        <ele>30</ele>
        <time>2022-10-19T12:09:29Z</time>
      </trkpt>
      <trkpt lat="49.90138" lon="2.48653">
        <ele>30</ele>
        <time>2022-10-19T12:09:30Z</time>
      </trkpt>
      <trkpt lat="49.90137" lon="2.48655">
        <ele>30</ele>
        <time>2022-10-19T12:09:31Z</time>
      </trkpt>
      <trkpt lat="49.90137" lon="2.48656">
        <ele>29.9</ele>
        <time>2022-10-19T12:09:32Z</time>
      </trkpt>
      <trkpt lat="49.90137" lon="2.48657">
        <ele>29.9</ele>
        <time>2022-10-19T12:09:33Z</time>
      </trkpt>
      <trkpt lat="49.90137" lon="2.48659">
        <ele>29.9</ele>
        <time>2022-10-19T12:09:34Z</time>
      </trkpt>
      <trkpt lat="49.90137" lon="2.48661">
        <ele>29.9</ele>
        <time>2022-10-19T12:09:36Z</time>
      </trkpt>
      <trkpt lat="49.90137" lon="2.48663">
        <ele>29.9</ele>
        <time>2022-10-19T12:09:37Z</time>
      </trkpt>
      <trkpt lat="49.90137" lon="2.48664">
        <ele>29.9</ele>
        <time>2022-10-19T12:09:38Z</time>
      </trkpt>
      <trkpt lat="49.90137" lon="2.48665">
        <ele>29.9</ele>
        <time>2022-10-19T12:09:39Z</time>
      </trkpt>
      <trkpt lat="49.90136" lon="2.48667">
        <ele>29.8</ele>
        <time>2022-10-19T12:09:40Z</time>
      </trkpt>
      <trkpt lat="49.90136" lon="2.48668">
        <ele>29.8</ele>
        <time>2022-10-19T12:09:41Z</time>
      </trkpt>
      <trkpt lat="49.90136" lon="2.4867">
        <ele>29.8</ele>
        <time>2022-10-19T12:09:42Z</time>
      </trkpt>
      <trkpt lat="49.90136" lon="2.48671">
        <ele>29.8</ele>
        <time>2022-10-19T12:09:44Z</time>
      </trkpt>
      <trkpt lat="49.90136" lon="2.48673">
        <ele>29.8</ele>
        <time>2022-10-19T12:09:45Z</time>
      </trkpt>
      <trkpt lat="49.90136" lon="2.48675">
        <ele>29.8</ele>
        <time>2022-10-19T12:09:46Z</time>
      </trkpt>
      <trkpt lat="49.90136" lon="2.48676">
        <ele>29.8</ele>
        <time>2022-10-19T12:09:47Z</time>
      </trkpt>
      <trkpt lat="49.90136" lon="2.48678">
        <ele>29.8</ele>
        <time>2022-10-19T12:09:48Z</time>
      </trkpt>
      <trkpt lat="49.90136" lon="2.4868">
        <ele>29.8</ele>
        <time>2022-10-19T12:09:49Z</time>
      </trkpt>
      <trkpt lat="49.90136" lon="2.48682">
        <ele>29.7</ele>
        <time>2022-10-19T12:09:50Z</time>
      </trkpt>
      <trkpt lat="49.90136" lon="2.48683">
        <ele>29.7</ele>
        <time>2022-10-19T12:09:51Z</time>
      </trkpt>
      <trkpt lat="49.90135" lon="2.48684">
        <ele>29.7</ele>
        <time>2022-10-19T12:09:53Z</time>
      </trkpt>
      <trkpt lat="49.90135" lon="2.48685">
        <ele>29.7</ele>
        <time>2022-10-19T12:09:54Z</time>
      </trkpt>
      <trkpt lat="49.90135" lon="2.48689">
        <ele>29.7</ele>
        <time>2022-10-19T12:09:55Z</time>
      </trkpt>
      <trkpt lat="49.90135" lon="2.4869">
        <ele>29.7</ele>
        <time>2022-10-19T12:09:56Z</time>
      </trkpt>
      <trkpt lat="49.90134" lon="2.48692">
        <ele>29.7</ele>
        <time>2022-10-19T12:09:57Z</time>
      </trkpt>
      <trkpt lat="49.90134" lon="2.48693">
        <ele>29.7</ele>
        <time>2022-10-19T12:09:58Z</time>
      </trkpt>
      <trkpt lat="49.90134" lon="2.48695">
        <ele>29.7</ele>
        <time>2022-10-19T12:09:59Z</time>
      </trkpt>
      <trkpt lat="49.90134" lon="2.48697">
        <ele>29.7</ele>
        <time>2022-10-19T12:10:00Z</time>
      </trkpt>
      <trkpt lat="49.90134" lon="2.48701">
        <ele>29.7</ele>
        <time>2022-10-19T12:10:01Z</time>
      </trkpt>
      <trkpt lat="49.90133" lon="2.48702">
        <ele>29.7</ele>
        <time>2022-10-19T12:10:02Z</time>
      </trkpt>
      <trkpt lat="49.90133" lon="2.48704">
        <ele>29.7</ele>
        <time>2022-10-19T12:10:04Z</time>
      </trkpt>
      <trkpt lat="49.90133" lon="2.48706">
        <ele>29.7</ele>
        <time>2022-10-19T12:10:05Z</time>
      </trkpt>
      <trkpt lat="49.90133" lon="2.48708">
        <ele>29.6</ele>
        <time>2022-10-19T12:10:06Z</time>
      </trkpt>
      <trkpt lat="49.90133" lon="2.48709">
        <ele>29.6</ele>
        <time>2022-10-19T12:10:07Z</time>
      </trkpt>
      <trkpt lat="49.90133" lon="2.48711">
        <ele>29.6</ele>
        <time>2022-10-19T12:10:08Z</time>
      </trkpt>
      <trkpt lat="49.90132" lon="2.48713">
        <ele>29.6</ele>
        <time>2022-10-19T12:10:09Z</time>
      </trkpt>
      <trkpt lat="49.90132" lon="2.48714">
        <ele>29.6</ele>
        <time>2022-10-19T12:10:10Z</time>
      </trkpt>
      <trkpt lat="49.90132" lon="2.48716">
        <ele>29.6</ele>
        <time>2022-10-19T12:10:11Z</time>
      </trkpt>
      <trkpt lat="49.90132" lon="2.48718">
        <ele>29.6</ele>
        <time>2022-10-19T12:10:12Z</time>
      </trkpt>
      <trkpt lat="49.90132" lon="2.48719">
        <ele>29.6</ele>
        <time>2022-10-19T12:10:13Z</time>
      </trkpt>
      <trkpt lat="49.90132" lon="2.48721">
        <ele>29.6</ele>
        <time>2022-10-19T12:10:14Z</time>
      </trkpt>
      <trkpt lat="49.90131" lon="2.48724">
        <ele>29.6</ele>
        <time>2022-10-19T12:10:16Z</time>
      </trkpt>
      <trkpt lat="49.90131" lon="2.48726">
        <ele>29.6</ele>
        <time>2022-10-19T12:10:17Z</time>
      </trkpt>
      <trkpt lat="49.9013" lon="2.48729">
        <ele>29.6</ele>
        <time>2022-10-19T12:10:18Z</time>
      </trkpt>
      <trkpt lat="49.9013" lon="2.48733">
        <ele>29.6</ele>
        <time>2022-10-19T12:10:19Z</time>
      </trkpt>
      <trkpt lat="49.9013" lon="2.48734">
        <ele>29.6</ele>
        <time>2022-10-19T12:10:20Z</time>
      </trkpt>
      <trkpt lat="49.9013" lon="2.48735">
        <ele>29.6</ele>
        <time>2022-10-19T12:10:21Z</time>
      </trkpt>
      <trkpt lat="49.90129" lon="2.48738">
        <ele>29.6</ele>
        <time>2022-10-19T12:10:22Z</time>
      </trkpt>
      <trkpt lat="49.90129" lon="2.48739">
        <ele>29.6</ele>
        <time>2022-10-19T12:10:23Z</time>
      </trkpt>
      <trkpt lat="49.90129" lon="2.48741">
        <ele>29.5</ele>
        <time>2022-10-19T12:10:24Z</time>
      </trkpt>
      <trkpt lat="49.90128" lon="2.48744">
        <ele>29.5</ele>
        <time>2022-10-19T12:10:26Z</time>
      </trkpt>
      <trkpt lat="49.90128" lon="2.48745">
        <ele>29.5</ele>
        <time>2022-10-19T12:10:27Z</time>
      </trkpt>
      <trkpt lat="49.90128" lon="2.48747">
        <ele>29.5</ele>
        <time>2022-10-19T12:10:28Z</time>
      </trkpt>
      <trkpt lat="49.90128" lon="2.48749">
        <ele>29.5</ele>
        <time>2022-10-19T12:10:29Z</time>
      </trkpt>
      <trkpt lat="49.90128" lon="2.48751">
        <ele>29.5</ele>
        <time>2022-10-19T12:10:30Z</time>
      </trkpt>
      <trkpt lat="49.90127" lon="2.48753">
        <ele>29.5</ele>
        <time>2022-10-19T12:10:31Z</time>
      </trkpt>
      <trkpt lat="49.90127" lon="2.48757">
        <ele>29.5</ele>
        <time>2022-10-19T12:10:32Z</time>
      </trkpt>
      <trkpt lat="49.90127" lon="2.48757">
        <ele>29.5</ele>
        <time>2022-10-19T12:10:33Z</time>
      </trkpt>
      <trkpt lat="49.90127" lon="2.48759">
        <ele>29.5</ele>
        <time>2022-10-19T12:10:34Z</time>
      </trkpt>
      <trkpt lat="49.90127" lon="2.48761">
        <ele>29.5</ele>
        <time>2022-10-19T12:10:35Z</time>
      </trkpt>
      <trkpt lat="49.90126" lon="2.48763">
        <ele>29.5</ele>
        <time>2022-10-19T12:10:37Z</time>
      </trkpt>
      <trkpt lat="49.90126" lon="2.48765">
        <ele>29.5</ele>
        <time>2022-10-19T12:10:38Z</time>
      </trkpt>
      <trkpt lat="49.90126" lon="2.48767">
        <ele>29.5</ele>
        <time>2022-10-19T12:10:39Z</time>
      </trkpt>
      <trkpt lat="49.90125" lon="2.4877">
        <ele>29.5</ele>
        <time>2022-10-19T12:10:40Z</time>
      </trkpt>
      <trkpt lat="49.90125" lon="2.48772">
        <ele>29.5</ele>
        <time>2022-10-19T12:10:41Z</time>
      </trkpt>
      <trkpt lat="49.90125" lon="2.48774">
        <ele>29.5</ele>
        <time>2022-10-19T12:10:43Z</time>
      </trkpt>
      <trkpt lat="49.90125" lon="2.48776">
        <ele>29.5</ele>
        <time>2022-10-19T12:10:44Z</time>
      </trkpt>
      <trkpt lat="49.90124" lon="2.48778">
        <ele>29.5</ele>
        <time>2022-10-19T12:10:45Z</time>
      </trkpt>
      <trkpt lat="49.90124" lon="2.4878">
        <ele>29.5</ele>
        <time>2022-10-19T12:10:46Z</time>
      </trkpt>
      <trkpt lat="49.90124" lon="2.48782">
        <ele>29.5</ele>
        <time>2022-10-19T12:10:47Z</time>
      </trkpt>
      <trkpt lat="49.90124" lon="2.48785">
        <ele>29.5</ele>
        <time>2022-10-19T12:10:48Z</time>
      </trkpt>
      <trkpt lat="49.90124" lon="2.48786">
        <ele>29.5</ele>
        <time>2022-10-19T12:10:49Z</time>
      </trkpt>
      <trkpt lat="49.90124" lon="2.48788">
        <ele>29.5</ele>
        <time>2022-10-19T12:10:50Z</time>
      </trkpt>
      <trkpt lat="49.90123" lon="2.4879">
        <ele>29.5</ele>
        <time>2022-10-19T12:10:51Z</time>
      </trkpt>
      <trkpt lat="49.90123" lon="2.48793">
        <ele>29.5</ele>
        <time>2022-10-19T12:10:52Z</time>
      </trkpt>
      <trkpt lat="49.90123" lon="2.48794">
        <ele>29.5</ele>
        <time>2022-10-19T12:10:54Z</time>
      </trkpt>
      <trkpt lat="49.90122" lon="2.48796">
        <ele>29.5</ele>
        <time>2022-10-19T12:10:55Z</time>
      </trkpt>
      <trkpt lat="49.90122" lon="2.48798">
        <ele>29.5</ele>
        <time>2022-10-19T12:10:56Z</time>
      </trkpt>
      <trkpt lat="49.90121" lon="2.48801">
        <ele>29.5</ele>
        <time>2022-10-19T12:10:57Z</time>
      </trkpt>
      <trkpt lat="49.90121" lon="2.48802">
        <ele>29.5</ele>
        <time>2022-10-19T12:10:58Z</time>
      </trkpt>
      <trkpt lat="49.90121" lon="2.48803">
        <ele>29.5</ele>
        <time>2022-10-19T12:10:59Z</time>
      </trkpt>
      <trkpt lat="49.9012" lon="2.48807">
        <ele>29.5</ele>
        <time>2022-10-19T12:11:00Z</time>
      </trkpt>
      <trkpt lat="49.9012" lon="2.48808">
        <ele>29.5</ele>
        <time>2022-10-19T12:11:01Z</time>
      </trkpt>
      <trkpt lat="49.9012" lon="2.4881">
        <ele>29.5</ele>
        <time>2022-10-19T12:11:02Z</time>
      </trkpt>
      <trkpt lat="49.90119" lon="2.48813">
        <ele>29.5</ele>
        <time>2022-10-19T12:11:03Z</time>
      </trkpt>
      <trkpt lat="49.90119" lon="2.48815">
        <ele>29.5</ele>
        <time>2022-10-19T12:11:05Z</time>
      </trkpt>
      <trkpt lat="49.90119" lon="2.48817">
        <ele>29.5</ele>
        <time>2022-10-19T12:11:06Z</time>
      </trkpt>
      <trkpt lat="49.90118" lon="2.48818">
        <ele>29.5</ele>
        <time>2022-10-19T12:11:07Z</time>
      </trkpt>
      <trkpt lat="49.90118" lon="2.4882">
        <ele>29.5</ele>
        <time>2022-10-19T12:11:08Z</time>
      </trkpt>
      <trkpt lat="49.90117" lon="2.48823">
        <ele>29.5</ele>
        <time>2022-10-19T12:11:09Z</time>
      </trkpt>
      <trkpt lat="49.90117" lon="2.48825">
        <ele>29.5</ele>
        <time>2022-10-19T12:11:10Z</time>
      </trkpt>
      <trkpt lat="49.90117" lon="2.48826">
        <ele>29.5</ele>
        <time>2022-10-19T12:11:11Z</time>
      </trkpt>
      <trkpt lat="49.90117" lon="2.48829">
        <ele>29.5</ele>
        <time>2022-10-19T12:11:13Z</time>
      </trkpt>
      <trkpt lat="49.90117" lon="2.48831">
        <ele>29.5</ele>
        <time>2022-10-19T12:11:14Z</time>
      </trkpt>
      <trkpt lat="49.90117" lon="2.48833">
        <ele>29.5</ele>
        <time>2022-10-19T12:11:15Z</time>
      </trkpt>
      <trkpt lat="49.90117" lon="2.48835">
        <ele>29.5</ele>
        <time>2022-10-19T12:11:16Z</time>
      </trkpt>
      <trkpt lat="49.90116" lon="2.48838">
        <ele>29.5</ele>
        <time>2022-10-19T12:11:17Z</time>
      </trkpt>
      <trkpt lat="49.90116" lon="2.4884">
        <ele>29.5</ele>
        <time>2022-10-19T12:11:18Z</time>
      </trkpt>
      <trkpt lat="49.90116" lon="2.48842">
        <ele>29.5</ele>
        <time>2022-10-19T12:11:19Z</time>
      </trkpt>
      <trkpt lat="49.90116" lon="2.48843">
        <ele>29.5</ele>
        <time>2022-10-19T12:11:20Z</time>
      </trkpt>
      <trkpt lat="49.90116" lon="2.48845">
        <ele>29.5</ele>
        <time>2022-10-19T12:11:21Z</time>
      </trkpt>
      <trkpt lat="49.90115" lon="2.48848">
        <ele>29.5</ele>
        <time>2022-10-19T12:11:23Z</time>
      </trkpt>
      <trkpt lat="49.90115" lon="2.48849">
        <ele>29.5</ele>
        <time>2022-10-19T12:11:24Z</time>
      </trkpt>
      <trkpt lat="49.90115" lon="2.4885">
        <ele>29.5</ele>
        <time>2022-10-19T12:11:25Z</time>
      </trkpt>
      <trkpt lat="49.90115" lon="2.48853">
        <ele>29.5</ele>
        <time>2022-10-19T12:11:26Z</time>
      </trkpt>
      <trkpt lat="49.90115" lon="2.48855">
        <ele>29.5</ele>
        <time>2022-10-19T12:11:27Z</time>
      </trkpt>
      <trkpt lat="49.90115" lon="2.48857">
        <ele>29.5</ele>
        <time>2022-10-19T12:11:28Z</time>
      </trkpt>
      <trkpt lat="49.90115" lon="2.48858">
        <ele>29.5</ele>
        <time>2022-10-19T12:11:29Z</time>
      </trkpt>
      <trkpt lat="49.90115" lon="2.4886">
        <ele>29.5</ele>
        <time>2022-10-19T12:11:30Z</time>
      </trkpt>
      <trkpt lat="49.90115" lon="2.48861">
        <ele>29.5</ele>
        <time>2022-10-19T12:11:31Z</time>
      </trkpt>
      <trkpt lat="49.90115" lon="2.48865">
        <ele>29.5</ele>
        <time>2022-10-19T12:11:33Z</time>
      </trkpt>
      <trkpt lat="49.90115" lon="2.48867">
        <ele>29.5</ele>
        <time>2022-10-19T12:11:34Z</time>
      </trkpt>
      <trkpt lat="49.90115" lon="2.48868">
        <ele>29.5</ele>
        <time>2022-10-19T12:11:35Z</time>
      </trkpt>
      <trkpt lat="49.90114" lon="2.4887">
        <ele>29.5</ele>
        <time>2022-10-19T12:11:36Z</time>
      </trkpt>
      <trkpt lat="49.90114" lon="2.48871">
        <ele>29.5</ele>
        <time>2022-10-19T12:11:37Z</time>
      </trkpt>
      <trkpt lat="49.90113" lon="2.48871">
        <ele>29.5</ele>
        <time>2022-10-19T12:11:38Z</time>
      </trkpt>
      <trkpt lat="49.90112" lon="2.4887">
        <ele>29.5</ele>
        <time>2022-10-19T12:11:39Z</time>
      </trkpt>
      <trkpt lat="49.90112" lon="2.48869">
        <ele>29.5</ele>
        <time>2022-10-19T12:11:40Z</time>
      </trkpt>
      <trkpt lat="49.90112" lon="2.48868">
        <ele>29.5</ele>
        <time>2022-10-19T12:11:41Z</time>
      </trkpt>
      <trkpt lat="49.90112" lon="2.48868">
        <ele>29.5</ele>
        <time>2022-10-19T12:11:42Z</time>
      </trkpt>
      <trkpt lat="49.90111" lon="2.48867">
        <ele>29.5</ele>
        <time>2022-10-19T12:11:43Z</time>
      </trkpt>
      <trkpt lat="49.90111" lon="2.48866">
        <ele>29.5</ele>
        <time>2022-10-19T12:11:44Z</time>
      </trkpt>
      <trkpt lat="49.90111" lon="2.48866">
        <ele>29.5</ele>
        <time>2022-10-19T12:11:45Z</time>
      </trkpt>
      <trkpt lat="49.90111" lon="2.48866">
        <ele>29.5</ele>
        <time>2022-10-19T12:11:46Z</time>
      </trkpt>
      <trkpt lat="49.90111" lon="2.48866">
        <ele>29.5</ele>
        <time>2022-10-19T12:11:47Z</time>
      </trkpt>
      <trkpt lat="49.90111" lon="2.48866">
        <ele>29.5</ele>
        <time>2022-10-19T12:11:48Z</time>
      </trkpt>
      <trkpt lat="49.90111" lon="2.48865">
        <ele>29.5</ele>
        <time>2022-10-19T12:11:49Z</time>
      </trkpt>
      <trkpt lat="49.90111" lon="2.48865">
        <ele>29.5</ele>
        <time>2022-10-19T12:11:50Z</time>
      </trkpt>
      <trkpt lat="49.90111" lon="2.48865">
        <ele>29.5</ele>
        <time>2022-10-19T12:11:51Z</time>
      </trkpt>
      <trkpt lat="49.90111" lon="2.48866">
        <ele>29.5</ele>
        <time>2022-10-19T12:11:53Z</time>
      </trkpt>
      <trkpt lat="49.90111" lon="2.48866">
        <ele>29.5</ele>
        <time>2022-10-19T12:11:54Z</time>
      </trkpt>
      <trkpt lat="49.90111" lon="2.48867">
        <ele>29.5</ele>
        <time>2022-10-19T12:11:55Z</time>
      </trkpt>
      <trkpt lat="49.90111" lon="2.48868">
        <ele>29.5</ele>
        <time>2022-10-19T12:11:56Z</time>
      </trkpt>
      <trkpt lat="49.90111" lon="2.4887">
        <ele>29.4</ele>
        <time>2022-10-19T12:11:58Z</time>
      </trkpt>
      <trkpt lat="49.90111" lon="2.48871">
        <ele>29.4</ele>
        <time>2022-10-19T12:11:59Z</time>
      </trkpt>
      <trkpt lat="49.9011" lon="2.48872">
        <ele>29.4</ele>
        <time>2022-10-19T12:12:01Z</time>
      </trkpt>
      <trkpt lat="49.90109" lon="2.48872">
        <ele>29.4</ele>
        <time>2022-10-19T12:12:02Z</time>
      </trkpt>
      <trkpt lat="49.90108" lon="2.48871">
        <ele>29.4</ele>
        <time>2022-10-19T12:12:04Z</time>
      </trkpt>
      <trkpt lat="49.90107" lon="2.48871">
        <ele>29.4</ele>
        <time>2022-10-19T12:12:05Z</time>
      </trkpt>
      <trkpt lat="49.90106" lon="2.48871">
        <ele>29.4</ele>
        <time>2022-10-19T12:12:06Z</time>
      </trkpt>
      <trkpt lat="49.90105" lon="2.4887">
        <ele>29.4</ele>
        <time>2022-10-19T12:12:07Z</time>
      </trkpt>
      <trkpt lat="49.90104" lon="2.4887">
        <ele>29.4</ele>
        <time>2022-10-19T12:12:08Z</time>
      </trkpt>
      <trkpt lat="49.90103" lon="2.4887">
        <ele>29.4</ele>
        <time>2022-10-19T12:12:09Z</time>
      </trkpt>
      <trkpt lat="49.90102" lon="2.4887">
        <ele>29.4</ele>
        <time>2022-10-19T12:12:10Z</time>
      </trkpt>
      <trkpt lat="49.90101" lon="2.4887">
        <ele>29.4</ele>
        <time>2022-10-19T12:12:11Z</time>
      </trkpt>
      <trkpt lat="49.90099" lon="2.4887">
        <ele>29.4</ele>
        <time>2022-10-19T12:12:13Z</time>
      </trkpt>
      <trkpt lat="49.90098" lon="2.4887">
        <ele>29.4</ele>
        <time>2022-10-19T12:12:14Z</time>
      </trkpt>
      <trkpt lat="49.90098" lon="2.4887">
        <ele>29.4</ele>
        <time>2022-10-19T12:12:15Z</time>
      </trkpt>
      <trkpt lat="49.90097" lon="2.4887">
        <ele>29.4</ele>
        <time>2022-10-19T12:12:16Z</time>
      </trkpt>
      <trkpt lat="49.90096" lon="2.4887">
        <ele>29.4</ele>
        <time>2022-10-19T12:12:17Z</time>
      </trkpt>
      <trkpt lat="49.90095" lon="2.48871">
        <ele>29.4</ele>
        <time>2022-10-19T12:12:18Z</time>
      </trkpt>
      <trkpt lat="49.90094" lon="2.48871">
        <ele>29.4</ele>
        <time>2022-10-19T12:12:19Z</time>
      </trkpt>
      <trkpt lat="49.90093" lon="2.48871">
        <ele>29.4</ele>
        <time>2022-10-19T12:12:20Z</time>
      </trkpt>
      <trkpt lat="49.90092" lon="2.48871">
        <ele>29.4</ele>
        <time>2022-10-19T12:12:21Z</time>
      </trkpt>
      <trkpt lat="49.90092" lon="2.48871">
        <ele>29.4</ele>
        <time>2022-10-19T12:12:22Z</time>
      </trkpt>
      <trkpt lat="49.90091" lon="2.48871">
        <ele>29.4</ele>
        <time>2022-10-19T12:12:24Z</time>
      </trkpt>
      <trkpt lat="49.9009" lon="2.48871">
        <ele>29.4</ele>
        <time>2022-10-19T12:12:25Z</time>
      </trkpt>
      <trkpt lat="49.90089" lon="2.48872">
        <ele>29.4</ele>
        <time>2022-10-19T12:12:26Z</time>
      </trkpt>
      <trkpt lat="49.90088" lon="2.48872">
        <ele>29.4</ele>
        <time>2022-10-19T12:12:27Z</time>
      </trkpt>
      <trkpt lat="49.90087" lon="2.48872">
        <ele>29.4</ele>
        <time>2022-10-19T12:12:28Z</time>
      </trkpt>
      <trkpt lat="49.90086" lon="2.48872">
        <ele>29.4</ele>
        <time>2022-10-19T12:12:29Z</time>
      </trkpt>
      <trkpt lat="49.90085" lon="2.48872">
        <ele>29.4</ele>
        <time>2022-10-19T12:12:30Z</time>
      </trkpt>
      <trkpt lat="49.90084" lon="2.48872">
        <ele>29.4</ele>
        <time>2022-10-19T12:12:32Z</time>
      </trkpt>
      <trkpt lat="49.90083" lon="2.48872">
        <ele>29.4</ele>
        <time>2022-10-19T12:12:33Z</time>
      </trkpt>
      <trkpt lat="49.90082" lon="2.48872">
        <ele>29.4</ele>
        <time>2022-10-19T12:12:34Z</time>
      </trkpt>
      <trkpt lat="49.90081" lon="2.48872">
        <ele>29.4</ele>
        <time>2022-10-19T12:12:35Z</time>
      </trkpt>
      <trkpt lat="49.9008" lon="2.48872">
        <ele>29.4</ele>
        <time>2022-10-19T12:12:36Z</time>
      </trkpt>
      <trkpt lat="49.90079" lon="2.48872">
        <ele>29.4</ele>
        <time>2022-10-19T12:12:37Z</time>
      </trkpt>
      <trkpt lat="49.90077" lon="2.48872">
        <ele>29.4</ele>
        <time>2022-10-19T12:12:38Z</time>
      </trkpt>
      <trkpt lat="49.90076" lon="2.48873">
        <ele>29.4</ele>
        <time>2022-10-19T12:12:39Z</time>
      </trkpt>
      <trkpt lat="49.90074" lon="2.48873">
        <ele>29.4</ele>
        <time>2022-10-19T12:12:40Z</time>
      </trkpt>
      <trkpt lat="49.90073" lon="2.48874">
        <ele>29.3</ele>
        <time>2022-10-19T12:12:42Z</time>
      </trkpt>
      <trkpt lat="49.90072" lon="2.48874">
        <ele>29.3</ele>
        <time>2022-10-19T12:12:43Z</time>
      </trkpt>
      <trkpt lat="49.9007" lon="2.48875">
        <ele>29.3</ele>
        <time>2022-10-19T12:12:44Z</time>
      </trkpt>
      <trkpt lat="49.90069" lon="2.48876">
        <ele>29.3</ele>
        <time>2022-10-19T12:12:45Z</time>
      </trkpt>
      <trkpt lat="49.90069" lon="2.48876">
        <ele>29.3</ele>
        <time>2022-10-19T12:12:46Z</time>
      </trkpt>
      <trkpt lat="49.90067" lon="2.48877">
        <ele>29.3</ele>
        <time>2022-10-19T12:12:47Z</time>
      </trkpt>
      <trkpt lat="49.90066" lon="2.48878">
        <ele>29.3</ele>
        <time>2022-10-19T12:12:48Z</time>
      </trkpt>
      <trkpt lat="49.90064" lon="2.48878">
        <ele>29.3</ele>
        <time>2022-10-19T12:12:49Z</time>
      </trkpt>
      <trkpt lat="49.90063" lon="2.48878">
        <ele>29.3</ele>
        <time>2022-10-19T12:12:51Z</time>
      </trkpt>
      <trkpt lat="49.90062" lon="2.48879">
        <ele>29.3</ele>
        <time>2022-10-19T12:12:52Z</time>
      </trkpt>
      <trkpt lat="49.90061" lon="2.48878">
        <ele>29.3</ele>
        <time>2022-10-19T12:12:53Z</time>
      </trkpt>
      <trkpt lat="49.9006" lon="2.48878">
        <ele>29.3</ele>
        <time>2022-10-19T12:12:54Z</time>
      </trkpt>
      <trkpt lat="49.90058" lon="2.48878">
        <ele>29.3</ele>
        <time>2022-10-19T12:12:55Z</time>
      </trkpt>
      <trkpt lat="49.90056" lon="2.48877">
        <ele>29.3</ele>
        <time>2022-10-19T12:12:57Z</time>
      </trkpt>
      <trkpt lat="49.90055" lon="2.48876">
        <ele>29.3</ele>
        <time>2022-10-19T12:12:58Z</time>
      </trkpt>
      <trkpt lat="49.90053" lon="2.48876">
        <ele>29.3</ele>
        <time>2022-10-19T12:12:59Z</time>
      </trkpt>
      <trkpt lat="49.90051" lon="2.48874">
        <ele>29.3</ele>
        <time>2022-10-19T12:13:00Z</time>
      </trkpt>
      <trkpt lat="49.90051" lon="2.48874">
        <ele>29.3</ele>
        <time>2022-10-19T12:13:01Z</time>
      </trkpt>
      <trkpt lat="49.9005" lon="2.48873">
        <ele>29.3</ele>
        <time>2022-10-19T12:13:02Z</time>
      </trkpt>
      <trkpt lat="49.90048" lon="2.48872">
        <ele>29.3</ele>
        <time>2022-10-19T12:13:03Z</time>
      </trkpt>
      <trkpt lat="49.90047" lon="2.48871">
        <ele>29.3</ele>
        <time>2022-10-19T12:13:04Z</time>
      </trkpt>
      <trkpt lat="49.90046" lon="2.4887">
        <ele>29.3</ele>
        <time>2022-10-19T12:13:05Z</time>
      </trkpt>
      <trkpt lat="49.90045" lon="2.48869">
        <ele>29.3</ele>
        <time>2022-10-19T12:13:06Z</time>
      </trkpt>
      <trkpt lat="49.90044" lon="2.48869">
        <ele>29.3</ele>
        <time>2022-10-19T12:13:07Z</time>
      </trkpt>
      <trkpt lat="49.90042" lon="2.48867">
        <ele>29.3</ele>
        <time>2022-10-19T12:13:08Z</time>
      </trkpt>
      <trkpt lat="49.90041" lon="2.48867">
        <ele>29.3</ele>
        <time>2022-10-19T12:13:09Z</time>
      </trkpt>
      <trkpt lat="49.90039" lon="2.48866">
        <ele>29.3</ele>
        <time>2022-10-19T12:13:11Z</time>
      </trkpt>
      <trkpt lat="49.90039" lon="2.48865">
        <ele>29.3</ele>
        <time>2022-10-19T12:13:12Z</time>
      </trkpt>
      <trkpt lat="49.90038" lon="2.48865">
        <ele>29.3</ele>
        <time>2022-10-19T12:13:13Z</time>
      </trkpt>
      <trkpt lat="49.90036" lon="2.48863">
        <ele>29.3</ele>
        <time>2022-10-19T12:13:14Z</time>
      </trkpt>
      <trkpt lat="49.90035" lon="2.48863">
        <ele>29.3</ele>
        <time>2022-10-19T12:13:15Z</time>
      </trkpt>
      <trkpt lat="49.90034" lon="2.48863">
        <ele>29.3</ele>
        <time>2022-10-19T12:13:16Z</time>
      </trkpt>
      <trkpt lat="49.90033" lon="2.48862">
        <ele>29.3</ele>
        <time>2022-10-19T12:13:17Z</time>
      </trkpt>
      <trkpt lat="49.90032" lon="2.48862">
        <ele>29.3</ele>
        <time>2022-10-19T12:13:18Z</time>
      </trkpt>
      <trkpt lat="49.90031" lon="2.48862">
        <ele>29.3</ele>
        <time>2022-10-19T12:13:19Z</time>
      </trkpt>
      <trkpt lat="49.9003" lon="2.48861">
        <ele>29.3</ele>
        <time>2022-10-19T12:13:20Z</time>
      </trkpt>
      <trkpt lat="49.90028" lon="2.4886">
        <ele>29.4</ele>
        <time>2022-10-19T12:13:22Z</time>
      </trkpt>
      <trkpt lat="49.90027" lon="2.48858">
        <ele>29.4</ele>
        <time>2022-10-19T12:13:23Z</time>
      </trkpt>
      <trkpt lat="49.90026" lon="2.48858">
        <ele>29.4</ele>
        <time>2022-10-19T12:13:24Z</time>
      </trkpt>
      <trkpt lat="49.90025" lon="2.48857">
        <ele>29.4</ele>
        <time>2022-10-19T12:13:25Z</time>
      </trkpt>
      <trkpt lat="49.90025" lon="2.48856">
        <ele>29.4</ele>
        <time>2022-10-19T12:13:26Z</time>
      </trkpt>
      <trkpt lat="49.90024" lon="2.48855">
        <ele>29.4</ele>
        <time>2022-10-19T12:13:27Z</time>
      </trkpt>
      <trkpt lat="49.90023" lon="2.48854">
        <ele>29.4</ele>
        <time>2022-10-19T12:13:28Z</time>
      </trkpt>
      <trkpt lat="49.90021" lon="2.48852">
        <ele>29.4</ele>
        <time>2022-10-19T12:13:30Z</time>
      </trkpt>
      <trkpt lat="49.90021" lon="2.48852">
        <ele>29.4</ele>
        <time>2022-10-19T12:13:31Z</time>
      </trkpt>
      <trkpt lat="49.9002" lon="2.48852">
        <ele>29.4</ele>
        <time>2022-10-19T12:13:32Z</time>
      </trkpt>
      <trkpt lat="49.90019" lon="2.48851">
        <ele>29.4</ele>
        <time>2022-10-19T12:13:33Z</time>
      </trkpt>
      <trkpt lat="49.90017" lon="2.4885">
        <ele>29.4</ele>
        <time>2022-10-19T12:13:34Z</time>
      </trkpt>
      <trkpt lat="49.90017" lon="2.48849">
        <ele>29.4</ele>
        <time>2022-10-19T12:13:35Z</time>
      </trkpt>
      <trkpt lat="49.90016" lon="2.48849">
        <ele>29.5</ele>
        <time>2022-10-19T12:13:36Z</time>
      </trkpt>
      <trkpt lat="49.90015" lon="2.48848">
        <ele>29.5</ele>
        <time>2022-10-19T12:13:37Z</time>
      </trkpt>
      <trkpt lat="49.90013" lon="2.48847">
        <ele>29.5</ele>
        <time>2022-10-19T12:13:39Z</time>
      </trkpt>
      <trkpt lat="49.90012" lon="2.48846">
        <ele>29.5</ele>
        <time>2022-10-19T12:13:40Z</time>
      </trkpt>
      <trkpt lat="49.90011" lon="2.48845">
        <ele>29.5</ele>
        <time>2022-10-19T12:13:41Z</time>
      </trkpt>
      <trkpt lat="49.9001" lon="2.48844">
        <ele>29.5</ele>
        <time>2022-10-19T12:13:42Z</time>
      </trkpt>
      <trkpt lat="49.90008" lon="2.48843">
        <ele>29.5</ele>
        <time>2022-10-19T12:13:44Z</time>
      </trkpt>
      <trkpt lat="49.90007" lon="2.48842">
        <ele>29.5</ele>
        <time>2022-10-19T12:13:45Z</time>
      </trkpt>
      <trkpt lat="49.90005" lon="2.4884">
        <ele>29.5</ele>
        <time>2022-10-19T12:13:46Z</time>
      </trkpt>
      <trkpt lat="49.90004" lon="2.48839">
        <ele>29.5</ele>
        <time>2022-10-19T12:13:47Z</time>
      </trkpt>
      <trkpt lat="49.90003" lon="2.48839">
        <ele>29.5</ele>
        <time>2022-10-19T12:13:48Z</time>
      </trkpt>
      <trkpt lat="49.90002" lon="2.48838">
        <ele>29.5</ele>
        <time>2022-10-19T12:13:49Z</time>
      </trkpt>
      <trkpt lat="49.90001" lon="2.48837">
        <ele>29.5</ele>
        <time>2022-10-19T12:13:50Z</time>
      </trkpt>
      <trkpt lat="49.9" lon="2.48836">
        <ele>29.5</ele>
        <time>2022-10-19T12:13:52Z</time>
      </trkpt>
      <trkpt lat="49.89998" lon="2.48834">
        <ele>29.5</ele>
        <time>2022-10-19T12:13:53Z</time>
      </trkpt>
      <trkpt lat="49.89997" lon="2.48834">
        <ele>29.5</ele>
        <time>2022-10-19T12:13:54Z</time>
      </trkpt>
      <trkpt lat="49.89996" lon="2.48834">
        <ele>29.5</ele>
        <time>2022-10-19T12:13:55Z</time>
      </trkpt>
      <trkpt lat="49.89994" lon="2.48832">
        <ele>29.5</ele>
        <time>2022-10-19T12:13:56Z</time>
      </trkpt>
      <trkpt lat="49.89993" lon="2.48831">
        <ele>29.5</ele>
        <time>2022-10-19T12:13:58Z</time>
      </trkpt>
      <trkpt lat="49.89992" lon="2.4883">
        <ele>29.5</ele>
        <time>2022-10-19T12:13:59Z</time>
      </trkpt>
      <trkpt lat="49.8999" lon="2.48829">
        <ele>29.5</ele>
        <time>2022-10-19T12:14:00Z</time>
      </trkpt>
      <trkpt lat="49.8999" lon="2.48829">
        <ele>29.5</ele>
        <time>2022-10-19T12:14:01Z</time>
      </trkpt>
      <trkpt lat="49.89989" lon="2.48828">
        <ele>29.5</ele>
        <time>2022-10-19T12:14:02Z</time>
      </trkpt>
      <trkpt lat="49.89987" lon="2.48827">
        <ele>29.5</ele>
        <time>2022-10-19T12:14:04Z</time>
      </trkpt>
      <trkpt lat="49.89986" lon="2.48827">
        <ele>29.5</ele>
        <time>2022-10-19T12:14:05Z</time>
      </trkpt>
      <trkpt lat="49.89985" lon="2.48826">
        <ele>29.5</ele>
        <time>2022-10-19T12:14:06Z</time>
      </trkpt>
      <trkpt lat="49.89984" lon="2.48826">
        <ele>29.5</ele>
        <time>2022-10-19T12:14:07Z</time>
      </trkpt>
      <trkpt lat="49.89983" lon="2.48825">
        <ele>29.4</ele>
        <time>2022-10-19T12:14:08Z</time>
      </trkpt>
      <trkpt lat="49.89981" lon="2.48825">
        <ele>29.4</ele>
        <time>2022-10-19T12:14:09Z</time>
      </trkpt>
      <trkpt lat="49.8998" lon="2.48824">
        <ele>29.4</ele>
        <time>2022-10-19T12:14:10Z</time>
      </trkpt>
      <trkpt lat="49.89978" lon="2.48823">
        <ele>29.4</ele>
        <time>2022-10-19T12:14:12Z</time>
      </trkpt>
      <trkpt lat="49.89977" lon="2.48822">
        <ele>29.4</ele>
        <time>2022-10-19T12:14:13Z</time>
      </trkpt>
      <trkpt lat="49.89975" lon="2.48821">
        <ele>29.4</ele>
        <time>2022-10-19T12:14:14Z</time>
      </trkpt>
      <trkpt lat="49.89974" lon="2.48821">
        <ele>29.4</ele>
        <time>2022-10-19T12:14:15Z</time>
      </trkpt>
      <trkpt lat="49.89972" lon="2.48819">
        <ele>29.4</ele>
        <time>2022-10-19T12:14:16Z</time>
      </trkpt>
      <trkpt lat="49.89971" lon="2.48819">
        <ele>29.4</ele>
        <time>2022-10-19T12:14:17Z</time>
      </trkpt>
      <trkpt lat="49.89971" lon="2.48818">
        <ele>29.4</ele>
        <time>2022-10-19T12:14:18Z</time>
      </trkpt>
      <trkpt lat="49.89969" lon="2.48817">
        <ele>29.4</ele>
        <time>2022-10-19T12:14:19Z</time>
      </trkpt>
      <trkpt lat="49.89968" lon="2.48817">
        <ele>29.4</ele>
        <time>2022-10-19T12:14:20Z</time>
      </trkpt>
      <trkpt lat="49.89967" lon="2.48816">
        <ele>29.4</ele>
        <time>2022-10-19T12:14:21Z</time>
      </trkpt>
      <trkpt lat="49.89966" lon="2.48816">
        <ele>29.4</ele>
        <time>2022-10-19T12:14:22Z</time>
      </trkpt>
      <trkpt lat="49.89964" lon="2.48815">
        <ele>29.4</ele>
        <time>2022-10-19T12:14:24Z</time>
      </trkpt>
      <trkpt lat="49.89963" lon="2.48815">
        <ele>29.4</ele>
        <time>2022-10-19T12:14:25Z</time>
      </trkpt>
      <trkpt lat="49.89962" lon="2.48814">
        <ele>29.4</ele>
        <time>2022-10-19T12:14:26Z</time>
      </trkpt>
      <trkpt lat="49.89961" lon="2.48814">
        <ele>29.4</ele>
        <time>2022-10-19T12:14:27Z</time>
      </trkpt>
      <trkpt lat="49.89959" lon="2.48814">
        <ele>29.4</ele>
        <time>2022-10-19T12:14:28Z</time>
      </trkpt>
      <trkpt lat="49.89958" lon="2.48813">
        <ele>29.4</ele>
        <time>2022-10-19T12:14:29Z</time>
      </trkpt>
      <trkpt lat="49.89956" lon="2.48813">
        <ele>29.4</ele>
        <time>2022-10-19T12:14:30Z</time>
      </trkpt>
      <trkpt lat="49.89955" lon="2.48813">
        <ele>29.4</ele>
        <time>2022-10-19T12:14:31Z</time>
      </trkpt>
      <trkpt lat="49.89955" lon="2.48812">
        <ele>29.4</ele>
        <time>2022-10-19T12:14:32Z</time>
      </trkpt>
      <trkpt lat="49.89954" lon="2.48812">
        <ele>29.4</ele>
        <time>2022-10-19T12:14:33Z</time>
      </trkpt>
      <trkpt lat="49.89953" lon="2.48812">
        <ele>29.4</ele>
        <time>2022-10-19T12:14:35Z</time>
      </trkpt>
      <trkpt lat="49.89953" lon="2.48811">
        <ele>29.4</ele>
        <time>2022-10-19T12:14:36Z</time>
      </trkpt>
      <trkpt lat="49.89952" lon="2.48811">
        <ele>29.4</ele>
        <time>2022-10-19T12:14:37Z</time>
      </trkpt>
      <trkpt lat="49.89951" lon="2.48811">
        <ele>29.4</ele>
        <time>2022-10-19T12:14:38Z</time>
      </trkpt>
      <trkpt lat="49.89949" lon="2.4881">
        <ele>29.4</ele>
        <time>2022-10-19T12:14:39Z</time>
      </trkpt>
      <trkpt lat="49.89949" lon="2.4881">
        <ele>29.4</ele>
        <time>2022-10-19T12:14:40Z</time>
      </trkpt>
      <trkpt lat="49.89948" lon="2.4881">
        <ele>29.4</ele>
        <time>2022-10-19T12:14:41Z</time>
      </trkpt>
      <trkpt lat="49.89946" lon="2.4881">
        <ele>29.4</ele>
        <time>2022-10-19T12:14:42Z</time>
      </trkpt>
      <trkpt lat="49.89945" lon="2.4881">
        <ele>29.4</ele>
        <time>2022-10-19T12:14:43Z</time>
      </trkpt>
      <trkpt lat="49.89944" lon="2.48811">
        <ele>29.4</ele>
        <time>2022-10-19T12:14:44Z</time>
      </trkpt>
      <trkpt lat="49.89943" lon="2.48811">
        <ele>29.4</ele>
        <time>2022-10-19T12:14:46Z</time>
      </trkpt>
      <trkpt lat="49.89942" lon="2.48812">
        <ele>29.4</ele>
        <time>2022-10-19T12:14:47Z</time>
      </trkpt>
      <trkpt lat="49.89941" lon="2.48813">
        <ele>29.4</ele>
        <time>2022-10-19T12:14:48Z</time>
      </trkpt>
      <trkpt lat="49.8994" lon="2.48813">
        <ele>29.4</ele>
        <time>2022-10-19T12:14:49Z</time>
      </trkpt>
      <trkpt lat="49.89938" lon="2.48814">
        <ele>29.4</ele>
        <time>2022-10-19T12:14:50Z</time>
      </trkpt>
      <trkpt lat="49.89937" lon="2.48814">
        <ele>29.4</ele>
        <time>2022-10-19T12:14:51Z</time>
      </trkpt>
      <trkpt lat="49.89936" lon="2.48814">
        <ele>29.5</ele>
        <time>2022-10-19T12:14:52Z</time>
      </trkpt>
      <trkpt lat="49.89935" lon="2.48815">
        <ele>29.5</ele>
        <time>2022-10-19T12:14:53Z</time>
      </trkpt>
      <trkpt lat="49.89933" lon="2.48815">
        <ele>29.5</ele>
        <time>2022-10-19T12:14:54Z</time>
      </trkpt>
      <trkpt lat="49.89932" lon="2.48816">
        <ele>29.5</ele>
        <time>2022-10-19T12:14:55Z</time>
      </trkpt>
      <trkpt lat="49.89931" lon="2.48816">
        <ele>29.5</ele>
        <time>2022-10-19T12:14:56Z</time>
      </trkpt>
      <trkpt lat="49.8993" lon="2.48816">
        <ele>29.5</ele>
        <time>2022-10-19T12:14:58Z</time>
      </trkpt>
      <trkpt lat="49.89928" lon="2.48817">
        <ele>29.5</ele>
        <time>2022-10-19T12:14:59Z</time>
      </trkpt>
      <trkpt lat="49.89927" lon="2.48817">
        <ele>29.5</ele>
        <time>2022-10-19T12:15:00Z</time>
      </trkpt>
      <trkpt lat="49.89925" lon="2.48817">
        <ele>29.5</ele>
        <time>2022-10-19T12:15:01Z</time>
      </trkpt>
      <trkpt lat="49.89924" lon="2.48818">
        <ele>29.5</ele>
        <time>2022-10-19T12:15:02Z</time>
      </trkpt>
      <trkpt lat="49.89922" lon="2.48818">
        <ele>29.5</ele>
        <time>2022-10-19T12:15:03Z</time>
      </trkpt>
      <trkpt lat="49.8992" lon="2.48818">
        <ele>29.5</ele>
        <time>2022-10-19T12:15:05Z</time>
      </trkpt>
      <trkpt lat="49.89919" lon="2.48818">
        <ele>29.5</ele>
        <time>2022-10-19T12:15:06Z</time>
      </trkpt>
      <trkpt lat="49.89917" lon="2.48819">
        <ele>29.5</ele>
        <time>2022-10-19T12:15:07Z</time>
      </trkpt>
      <trkpt lat="49.89916" lon="2.48819">
        <ele>29.5</ele>
        <time>2022-10-19T12:15:08Z</time>
      </trkpt>
      <trkpt lat="49.89916" lon="2.48819">
        <ele>29.5</ele>
        <time>2022-10-19T12:15:09Z</time>
      </trkpt>
      <trkpt lat="49.89913" lon="2.4882">
        <ele>29.6</ele>
        <time>2022-10-19T12:15:10Z</time>
      </trkpt>
      <trkpt lat="49.89913" lon="2.48821">
        <ele>29.6</ele>
        <time>2022-10-19T12:15:11Z</time>
      </trkpt>
      <trkpt lat="49.89912" lon="2.48821">
        <ele>29.6</ele>
        <time>2022-10-19T12:15:12Z</time>
      </trkpt>
      <trkpt lat="49.89911" lon="2.48821">
        <ele>29.6</ele>
        <time>2022-10-19T12:15:13Z</time>
      </trkpt>
      <trkpt lat="49.89909" lon="2.48821">
        <ele>29.6</ele>
        <time>2022-10-19T12:15:15Z</time>
      </trkpt>
      <trkpt lat="49.89908" lon="2.48821">
        <ele>29.6</ele>
        <time>2022-10-19T12:15:16Z</time>
      </trkpt>
      <trkpt lat="49.89907" lon="2.48821">
        <ele>29.6</ele>
        <time>2022-10-19T12:15:17Z</time>
      </trkpt>
      <trkpt lat="49.89906" lon="2.4882">
        <ele>29.6</ele>
        <time>2022-10-19T12:15:18Z</time>
      </trkpt>
      <trkpt lat="49.89905" lon="2.48819">
        <ele>29.6</ele>
        <time>2022-10-19T12:15:19Z</time>
      </trkpt>
      <trkpt lat="49.89904" lon="2.48818">
        <ele>29.6</ele>
        <time>2022-10-19T12:15:20Z</time>
      </trkpt>
      <trkpt lat="49.89903" lon="2.48817">
        <ele>29.6</ele>
        <time>2022-10-19T12:15:22Z</time>
      </trkpt>
      <trkpt lat="49.89903" lon="2.48817">
        <ele>29.7</ele>
        <time>2022-10-19T12:15:23Z</time>
      </trkpt>
      <trkpt lat="49.89902" lon="2.48815">
        <ele>29.7</ele>
        <time>2022-10-19T12:15:24Z</time>
      </trkpt>
      <trkpt lat="49.89901" lon="2.48814">
        <ele>29.7</ele>
        <time>2022-10-19T12:15:25Z</time>
      </trkpt>
      <trkpt lat="49.89901" lon="2.48813">
        <ele>29.7</ele>
        <time>2022-10-19T12:15:26Z</time>
      </trkpt>
      <trkpt lat="49.89901" lon="2.48813">
        <ele>29.7</ele>
        <time>2022-10-19T12:15:28Z</time>
      </trkpt>
      <trkpt lat="49.899" lon="2.48812">
        <ele>29.7</ele>
        <time>2022-10-19T12:15:29Z</time>
      </trkpt>
      <trkpt lat="49.89899" lon="2.48811">
        <ele>29.7</ele>
        <time>2022-10-19T12:15:30Z</time>
      </trkpt>
      <trkpt lat="49.89899" lon="2.48811">
        <ele>29.7</ele>
        <time>2022-10-19T12:15:31Z</time>
      </trkpt>
      <trkpt lat="49.89897" lon="2.48809">
        <ele>29.8</ele>
        <time>2022-10-19T12:15:32Z</time>
      </trkpt>
      <trkpt lat="49.89897" lon="2.48807">
        <ele>29.8</ele>
        <time>2022-10-19T12:15:33Z</time>
      </trkpt>
      <trkpt lat="49.89896" lon="2.48806">
        <ele>29.8</ele>
        <time>2022-10-19T12:15:34Z</time>
      </trkpt>
      <trkpt lat="49.89896" lon="2.48805">
        <ele>29.8</ele>
        <time>2022-10-19T12:15:36Z</time>
      </trkpt>
      <trkpt lat="49.89895" lon="2.48803">
        <ele>29.8</ele>
        <time>2022-10-19T12:15:37Z</time>
      </trkpt>
      <trkpt lat="49.89895" lon="2.48802">
        <ele>29.8</ele>
        <time>2022-10-19T12:15:38Z</time>
      </trkpt>
      <trkpt lat="49.89894" lon="2.48801">
        <ele>29.9</ele>
        <time>2022-10-19T12:15:39Z</time>
      </trkpt>
      <trkpt lat="49.89892" lon="2.488">
        <ele>29.9</ele>
        <time>2022-10-19T12:15:40Z</time>
      </trkpt>
      <trkpt lat="49.89891" lon="2.488">
        <ele>29.9</ele>
        <time>2022-10-19T12:15:42Z</time>
      </trkpt>
      <trkpt lat="49.89889" lon="2.488">
        <ele>29.9</ele>
        <time>2022-10-19T12:15:43Z</time>
      </trkpt>
      <trkpt lat="49.89888" lon="2.488">
        <ele>30</ele>
        <time>2022-10-19T12:15:44Z</time>
      </trkpt>
      <trkpt lat="49.89887" lon="2.488">
        <ele>30</ele>
        <time>2022-10-19T12:15:45Z</time>
      </trkpt>
      <trkpt lat="49.89886" lon="2.48801">
        <ele>30</ele>
        <time>2022-10-19T12:15:46Z</time>
      </trkpt>
      <trkpt lat="49.89886" lon="2.48803">
        <ele>30</ele>
        <time>2022-10-19T12:15:47Z</time>
      </trkpt>
      <trkpt lat="49.89886" lon="2.48805">
        <ele>30</ele>
        <time>2022-10-19T12:15:48Z</time>
      </trkpt>
      <trkpt lat="49.89886" lon="2.48806">
        <ele>30</ele>
        <time>2022-10-19T12:15:49Z</time>
      </trkpt>
      <trkpt lat="49.89886" lon="2.48809">
        <ele>30.1</ele>
        <time>2022-10-19T12:15:51Z</time>
      </trkpt>
      <trkpt lat="49.89886" lon="2.4881">
        <ele>30.1</ele>
        <time>2022-10-19T12:15:52Z</time>
      </trkpt>
      <trkpt lat="49.89885" lon="2.48809">
        <ele>30.1</ele>
        <time>2022-10-19T12:15:53Z</time>
      </trkpt>
      <trkpt lat="49.89885" lon="2.48808">
        <ele>30.1</ele>
        <time>2022-10-19T12:15:54Z</time>
      </trkpt>
      <trkpt lat="49.89883" lon="2.48807">
        <ele>30.1</ele>
        <time>2022-10-19T12:15:55Z</time>
      </trkpt>
      <trkpt lat="49.89882" lon="2.48806">
        <ele>30.2</ele>
        <time>2022-10-19T12:15:56Z</time>
      </trkpt>
      <trkpt lat="49.89881" lon="2.48806">
        <ele>30.2</ele>
        <time>2022-10-19T12:15:58Z</time>
      </trkpt>
      <trkpt lat="49.8988" lon="2.48805">
        <ele>30.2</ele>
        <time>2022-10-19T12:15:59Z</time>
      </trkpt>
      <trkpt lat="49.89878" lon="2.48805">
        <ele>30.3</ele>
        <time>2022-10-19T12:16:00Z</time>
      </trkpt>
      <trkpt lat="49.89876" lon="2.48804">
        <ele>30.3</ele>
        <time>2022-10-19T12:16:01Z</time>
      </trkpt>
      <trkpt lat="49.89874" lon="2.48804">
        <ele>30.3</ele>
        <time>2022-10-19T12:16:02Z</time>
      </trkpt>
      <trkpt lat="49.89874" lon="2.48804">
        <ele>30.3</ele>
        <time>2022-10-19T12:16:03Z</time>
      </trkpt>
      <trkpt lat="49.89873" lon="2.48803">
        <ele>30.4</ele>
        <time>2022-10-19T12:16:04Z</time>
      </trkpt>
      <trkpt lat="49.89871" lon="2.48802">
        <ele>30.4</ele>
        <time>2022-10-19T12:16:05Z</time>
      </trkpt>
      <trkpt lat="49.8987" lon="2.48802">
        <ele>30.4</ele>
        <time>2022-10-19T12:16:06Z</time>
      </trkpt>
      <trkpt lat="49.89869" lon="2.48801">
        <ele>30.4</ele>
        <time>2022-10-19T12:16:08Z</time>
      </trkpt>
      <trkpt lat="49.89867" lon="2.488">
        <ele>30.5</ele>
        <time>2022-10-19T12:16:09Z</time>
      </trkpt>
      <trkpt lat="49.89865" lon="2.48798">
        <ele>30.5</ele>
        <time>2022-10-19T12:16:10Z</time>
      </trkpt>
      <trkpt lat="49.89864" lon="2.48797">
        <ele>30.5</ele>
        <time>2022-10-19T12:16:11Z</time>
      </trkpt>
      <trkpt lat="49.89862" lon="2.48796">
        <ele>30.6</ele>
        <time>2022-10-19T12:16:13Z</time>
      </trkpt>
      <trkpt lat="49.89861" lon="2.48795">
        <ele>30.6</ele>
        <time>2022-10-19T12:16:14Z</time>
      </trkpt>
      <trkpt lat="49.89861" lon="2.48795">
        <ele>30.6</ele>
        <time>2022-10-19T12:16:15Z</time>
      </trkpt>
      <trkpt lat="49.8986" lon="2.48794">
        <ele>30.6</ele>
        <time>2022-10-19T12:16:16Z</time>
      </trkpt>
      <trkpt lat="49.89859" lon="2.48794">
        <ele>30.7</ele>
        <time>2022-10-19T12:16:17Z</time>
      </trkpt>
      <trkpt lat="49.89857" lon="2.48794">
        <ele>30.7</ele>
        <time>2022-10-19T12:16:18Z</time>
      </trkpt>
      <trkpt lat="49.89856" lon="2.48793">
        <ele>30.7</ele>
        <time>2022-10-19T12:16:19Z</time>
      </trkpt>
      <trkpt lat="49.89854" lon="2.48793">
        <ele>30.7</ele>
        <time>2022-10-19T12:16:20Z</time>
      </trkpt>
      <trkpt lat="49.89852" lon="2.48792">
        <ele>30.8</ele>
        <time>2022-10-19T12:16:22Z</time>
      </trkpt>
      <trkpt lat="49.89852" lon="2.48792">
        <ele>30.8</ele>
        <time>2022-10-19T12:16:23Z</time>
      </trkpt>
      <trkpt lat="49.89851" lon="2.48791">
        <ele>30.8</ele>
        <time>2022-10-19T12:16:24Z</time>
      </trkpt>
      <trkpt lat="49.89848" lon="2.48791">
        <ele>30.9</ele>
        <time>2022-10-19T12:16:25Z</time>
      </trkpt>
      <trkpt lat="49.89848" lon="2.4879">
        <ele>30.9</ele>
        <time>2022-10-19T12:16:26Z</time>
      </trkpt>
      <trkpt lat="49.89847" lon="2.4879">
        <ele>30.9</ele>
        <time>2022-10-19T12:16:27Z</time>
      </trkpt>
      <trkpt lat="49.89845" lon="2.4879">
        <ele>30.9</ele>
        <time>2022-10-19T12:16:28Z</time>
      </trkpt>
      <trkpt lat="49.89844" lon="2.48789">
        <ele>31</ele>
        <time>2022-10-19T12:16:30Z</time>
      </trkpt>
      <trkpt lat="49.89842" lon="2.48789">
        <ele>31</ele>
        <time>2022-10-19T12:16:31Z</time>
      </trkpt>
      <trkpt lat="49.89841" lon="2.48789">
        <ele>31</ele>
        <time>2022-10-19T12:16:32Z</time>
      </trkpt>
      <trkpt lat="49.89839" lon="2.48789">
        <ele>31.1</ele>
        <time>2022-10-19T12:16:33Z</time>
      </trkpt>
      <trkpt lat="49.89838" lon="2.48788">
        <ele>31.1</ele>
        <time>2022-10-19T12:16:34Z</time>
      </trkpt>
      <trkpt lat="49.89837" lon="2.48788">
        <ele>31.1</ele>
        <time>2022-10-19T12:16:35Z</time>
      </trkpt>
      <trkpt lat="49.89836" lon="2.48788">
        <ele>31.2</ele>
        <time>2022-10-19T12:16:36Z</time>
      </trkpt>
      <trkpt lat="49.89835" lon="2.48787">
        <ele>31.2</ele>
        <time>2022-10-19T12:16:38Z</time>
      </trkpt>
      <trkpt lat="49.89834" lon="2.48787">
        <ele>31.2</ele>
        <time>2022-10-19T12:16:39Z</time>
      </trkpt>
      <trkpt lat="49.89831" lon="2.48786">
        <ele>31.3</ele>
        <time>2022-10-19T12:16:40Z</time>
      </trkpt>
      <trkpt lat="49.89831" lon="2.48785">
        <ele>31.3</ele>
        <time>2022-10-19T12:16:41Z</time>
      </trkpt>
      <trkpt lat="49.8983" lon="2.48785">
        <ele>31.3</ele>
        <time>2022-10-19T12:16:42Z</time>
      </trkpt>
      <trkpt lat="49.89829" lon="2.48784">
        <ele>31.3</ele>
        <time>2022-10-19T12:16:43Z</time>
      </trkpt>
      <trkpt lat="49.89828" lon="2.48782">
        <ele>31.4</ele>
        <time>2022-10-19T12:16:44Z</time>
      </trkpt>
      <trkpt lat="49.89827" lon="2.48781">
        <ele>31.4</ele>
        <time>2022-10-19T12:16:46Z</time>
      </trkpt>
      <trkpt lat="49.89826" lon="2.4878">
        <ele>31.4</ele>
        <time>2022-10-19T12:16:47Z</time>
      </trkpt>
      <trkpt lat="49.89825" lon="2.48779">
        <ele>31.4</ele>
        <time>2022-10-19T12:16:48Z</time>
      </trkpt>
      <trkpt lat="49.89825" lon="2.48778">
        <ele>31.5</ele>
        <time>2022-10-19T12:16:49Z</time>
      </trkpt>
      <trkpt lat="49.89824" lon="2.48777">
        <ele>31.5</ele>
        <time>2022-10-19T12:16:50Z</time>
      </trkpt>
      <trkpt lat="49.89823" lon="2.48775">
        <ele>31.5</ele>
        <time>2022-10-19T12:16:51Z</time>
      </trkpt>
      <trkpt lat="49.89823" lon="2.48774">
        <ele>31.5</ele>
        <time>2022-10-19T12:16:52Z</time>
      </trkpt>
      <trkpt lat="49.89822" lon="2.48771">
        <ele>31.6</ele>
        <time>2022-10-19T12:16:54Z</time>
      </trkpt>
      <trkpt lat="49.89821" lon="2.4877">
        <ele>31.6</ele>
        <time>2022-10-19T12:16:55Z</time>
      </trkpt>
      <trkpt lat="49.89821" lon="2.48768">
        <ele>31.6</ele>
        <time>2022-10-19T12:16:56Z</time>
      </trkpt>
      <trkpt lat="49.89821" lon="2.48767">
        <ele>31.6</ele>
        <time>2022-10-19T12:16:57Z</time>
      </trkpt>
      <trkpt lat="49.8982" lon="2.48766">
        <ele>31.6</ele>
        <time>2022-10-19T12:16:58Z</time>
      </trkpt>
      <trkpt lat="49.8982" lon="2.48764">
        <ele>31.7</ele>
        <time>2022-10-19T12:16:59Z</time>
      </trkpt>
      <trkpt lat="49.89819" lon="2.48763">
        <ele>31.7</ele>
        <time>2022-10-19T12:17:00Z</time>
      </trkpt>
      <trkpt lat="49.89819" lon="2.48761">
        <ele>31.7</ele>
        <time>2022-10-19T12:17:01Z</time>
      </trkpt>
      <trkpt lat="49.89818" lon="2.4876">
        <ele>31.7</ele>
        <time>2022-10-19T12:17:03Z</time>
      </trkpt>
      <trkpt lat="49.89817" lon="2.4876">
        <ele>31.7</ele>
        <time>2022-10-19T12:17:04Z</time>
      </trkpt>
      <trkpt lat="49.89817" lon="2.4876">
        <ele>31.7</ele>
        <time>2022-10-19T12:17:05Z</time>
      </trkpt>
      <trkpt lat="49.89817" lon="2.48759">
        <ele>31.7</ele>
        <time>2022-10-19T12:17:06Z</time>
      </trkpt>
      <trkpt lat="49.89817" lon="2.48758">
        <ele>31.7</ele>
        <time>2022-10-19T12:17:07Z</time>
      </trkpt>
      <trkpt lat="49.89817" lon="2.48757">
        <ele>31.7</ele>
        <time>2022-10-19T12:17:09Z</time>
      </trkpt>
      <trkpt lat="49.89817" lon="2.48755">
        <ele>31.7</ele>
        <time>2022-10-19T12:17:11Z</time>
      </trkpt>
      <trkpt lat="49.89817" lon="2.48753">
        <ele>31.7</ele>
        <time>2022-10-19T12:17:12Z</time>
      </trkpt>
      <trkpt lat="49.89817" lon="2.48751">
        <ele>31.7</ele>
        <time>2022-10-19T12:17:14Z</time>
      </trkpt>
      <trkpt lat="49.89817" lon="2.4875">
        <ele>31.7</ele>
        <time>2022-10-19T12:17:15Z</time>
      </trkpt>
      <trkpt lat="49.89818" lon="2.4875">
        <ele>31.7</ele>
        <time>2022-10-19T12:17:16Z</time>
      </trkpt>
      <trkpt lat="49.89818" lon="2.48751">
        <ele>31.7</ele>
        <time>2022-10-19T12:17:17Z</time>
      </trkpt>
      <trkpt lat="49.89818" lon="2.48751">
        <ele>31.7</ele>
        <time>2022-10-19T12:17:18Z</time>
      </trkpt>
      <trkpt lat="49.89818" lon="2.48752">
        <ele>31.7</ele>
        <time>2022-10-19T12:17:19Z</time>
      </trkpt>
      <trkpt lat="49.89819" lon="2.48752">
        <ele>31.7</ele>
        <time>2022-10-19T12:17:20Z</time>
      </trkpt>
      <trkpt lat="49.89819" lon="2.48752">
        <ele>31.7</ele>
        <time>2022-10-19T12:17:21Z</time>
      </trkpt>
      <trkpt lat="49.89819" lon="2.48753">
        <ele>31.7</ele>
        <time>2022-10-19T12:17:22Z</time>
      </trkpt>
      <trkpt lat="49.89819" lon="2.48753">
        <ele>31.7</ele>
        <time>2022-10-19T12:17:23Z</time>
      </trkpt>
      <trkpt lat="49.89819" lon="2.48753">
        <ele>31.7</ele>
        <time>2022-10-19T12:17:24Z</time>
      </trkpt>
      <trkpt lat="49.89819" lon="2.48753">
        <ele>31.7</ele>
        <time>2022-10-19T12:17:26Z</time>
      </trkpt>
      <trkpt lat="49.89819" lon="2.48753">
        <ele>31.7</ele>
        <time>2022-10-19T12:17:27Z</time>
      </trkpt>
      <trkpt lat="49.89819" lon="2.48753">
        <ele>31.7</ele>
        <time>2022-10-19T12:17:28Z</time>
      </trkpt>
      <trkpt lat="49.89819" lon="2.48753">
        <ele>31.7</ele>
        <time>2022-10-19T12:17:29Z</time>
      </trkpt>
      <trkpt lat="49.89819" lon="2.48753">
        <ele>31.7</ele>
        <time>2022-10-19T12:17:30Z</time>
      </trkpt>
      <trkpt lat="49.89819" lon="2.48753">
        <ele>31.7</ele>
        <time>2022-10-19T12:17:31Z</time>
      </trkpt>
      <trkpt lat="49.89819" lon="2.48753">
        <ele>31.7</ele>
        <time>2022-10-19T12:17:32Z</time>
      </trkpt>
      <trkpt lat="49.89819" lon="2.48753">
        <ele>31.7</ele>
        <time>2022-10-19T12:17:33Z</time>
      </trkpt>
      <trkpt lat="49.89819" lon="2.48753">
        <ele>31.7</ele>
        <time>2022-10-19T12:17:34Z</time>
      </trkpt>
      <trkpt lat="49.89819" lon="2.48753">
        <ele>31.7</ele>
        <time>2022-10-19T12:17:35Z</time>
      </trkpt>
      <trkpt lat="49.89819" lon="2.48753">
        <ele>31.7</ele>
        <time>2022-10-19T12:17:36Z</time>
      </trkpt>
      <trkpt lat="49.89819" lon="2.48753">
        <ele>31.7</ele>
        <time>2022-10-19T12:17:37Z</time>
      </trkpt>
      <trkpt lat="49.89819" lon="2.48753">
        <ele>31.7</ele>
        <time>2022-10-19T12:17:38Z</time>
      </trkpt>
      <trkpt lat="49.89819" lon="2.48753">
        <ele>31.7</ele>
        <time>2022-10-19T12:17:39Z</time>
      </trkpt>
      <trkpt lat="49.89819" lon="2.48753">
        <ele>31.7</ele>
        <time>2022-10-19T12:17:40Z</time>
      </trkpt>
      <trkpt lat="49.89819" lon="2.48753">
        <ele>31.7</ele>
        <time>2022-10-19T12:17:41Z</time>
      </trkpt>
      <trkpt lat="49.89819" lon="2.48753">
        <ele>31.7</ele>
        <time>2022-10-19T12:17:42Z</time>
      </trkpt>
      <trkpt lat="49.89819" lon="2.48753">
        <ele>31.7</ele>
        <time>2022-10-19T12:17:43Z</time>
      </trkpt>
      <trkpt lat="49.89819" lon="2.48753">
        <ele>31.7</ele>
        <time>2022-10-19T12:17:44Z</time>
      </trkpt>
      <trkpt lat="49.89819" lon="2.48753">
        <ele>31.7</ele>
        <time>2022-10-19T12:17:45Z</time>
      </trkpt>
      <trkpt lat="49.89819" lon="2.48753">
        <ele>31.7</ele>
        <time>2022-10-19T12:17:46Z</time>
      </trkpt>
      <trkpt lat="49.89819" lon="2.48753">
        <ele>31.7</ele>
        <time>2022-10-19T12:17:47Z</time>
      </trkpt>
      <trkpt lat="49.89819" lon="2.48753">
        <ele>31.7</ele>
        <time>2022-10-19T12:17:48Z</time>
      </trkpt>
      <trkpt lat="49.89819" lon="2.48753">
        <ele>31.7</ele>
        <time>2022-10-19T12:17:49Z</time>
      </trkpt>
      <trkpt lat="49.89819" lon="2.48753">
        <ele>31.7</ele>
        <time>2022-10-19T12:17:50Z</time>
      </trkpt>
      <trkpt lat="49.89819" lon="2.48753">
        <ele>31.7</ele>
        <time>2022-10-19T12:17:51Z</time>
      </trkpt>
      <trkpt lat="49.89819" lon="2.48753">
        <ele>31.7</ele>
        <time>2022-10-19T12:17:52Z</time>
      </trkpt>
      <trkpt lat="49.89819" lon="2.48753">
        <ele>31.7</ele>
        <time>2022-10-19T12:17:53Z</time>
      </trkpt>
      <trkpt lat="49.89819" lon="2.48753">
        <ele>31.7</ele>
        <time>2022-10-19T12:17:54Z</time>
      </trkpt>
      <trkpt lat="49.89819" lon="2.48753">
        <ele>31.7</ele>
        <time>2022-10-19T12:17:55Z</time>
      </trkpt>
      <trkpt lat="49.89819" lon="2.48753">
        <ele>31.7</ele>
        <time>2022-10-19T12:17:56Z</time>
      </trkpt>
      <trkpt lat="49.89819" lon="2.48753">
        <ele>31.7</ele>
        <time>2022-10-19T12:17:57Z</time>
      </trkpt>
      <trkpt lat="49.89819" lon="2.48753">
        <ele>31.7</ele>
        <time>2022-10-19T12:17:58Z</time>
      </trkpt>
      <trkpt lat="49.89819" lon="2.48753">
        <ele>31.7</ele>
        <time>2022-10-19T12:17:59Z</time>
      </trkpt>
      <trkpt lat="49.89819" lon="2.48753">
        <ele>31.7</ele>
        <time>2022-10-19T12:18:00Z</time>
      </trkpt>
      <trkpt lat="49.89819" lon="2.48753">
        <ele>31.7</ele>
        <time>2022-10-19T12:18:01Z</time>
      </trkpt>
      <trkpt lat="49.89819" lon="2.48753">
        <ele>31.7</ele>
        <time>2022-10-19T12:18:02Z</time>
      </trkpt>
      <trkpt lat="49.89819" lon="2.48753">
        <ele>31.7</ele>
        <time>2022-10-19T12:18:03Z</time>
      </trkpt>
      <trkpt lat="49.89819" lon="2.48753">
        <ele>31.7</ele>
        <time>2022-10-19T12:18:04Z</time>
      </trkpt>
      <trkpt lat="49.89819" lon="2.48753">
        <ele>31.7</ele>
        <time>2022-10-19T12:18:05Z</time>
      </trkpt>
      <trkpt lat="49.89819" lon="2.48753">
        <ele>31.7</ele>
        <time>2022-10-19T12:18:06Z</time>
      </trkpt>
      <trkpt lat="49.89819" lon="2.48753">
        <ele>31.7</ele>
        <time>2022-10-19T12:18:07Z</time>
      </trkpt>
      <trkpt lat="49.8982" lon="2.48758">
        <ele>31.7</ele>
        <time>2022-10-19T12:18:08Z</time>
      </trkpt>
      <trkpt lat="49.89821" lon="2.4876">
        <ele>31.7</ele>
        <time>2022-10-19T12:18:09Z</time>
      </trkpt>
      <trkpt lat="49.89821" lon="2.48759">
        <ele>31.7</ele>
        <time>2022-10-19T12:18:10Z</time>
      </trkpt>
      <trkpt lat="49.89821" lon="2.48758">
        <ele>31.7</ele>
        <time>2022-10-19T12:18:11Z</time>
      </trkpt>
      <trkpt lat="49.89821" lon="2.48757">
        <ele>31.7</ele>
        <time>2022-10-19T12:18:12Z</time>
      </trkpt>
      <trkpt lat="49.8982" lon="2.48756">
        <ele>31.7</ele>
        <time>2022-10-19T12:18:13Z</time>
      </trkpt>
      <trkpt lat="49.8982" lon="2.48755">
        <ele>31.8</ele>
        <time>2022-10-19T12:18:14Z</time>
      </trkpt>
      <trkpt lat="49.8982" lon="2.48754">
        <ele>31.8</ele>
        <time>2022-10-19T12:18:15Z</time>
      </trkpt>
      <trkpt lat="49.8982" lon="2.48753">
        <ele>31.8</ele>
        <time>2022-10-19T12:18:16Z</time>
      </trkpt>
      <trkpt lat="49.8982" lon="2.48752">
        <ele>31.8</ele>
        <time>2022-10-19T12:18:17Z</time>
      </trkpt>
      <trkpt lat="49.8982" lon="2.48749">
        <ele>31.8</ele>
        <time>2022-10-19T12:18:19Z</time>
      </trkpt>
      <trkpt lat="49.89819" lon="2.48747">
        <ele>31.8</ele>
        <time>2022-10-19T12:18:20Z</time>
      </trkpt>
      <trkpt lat="49.89818" lon="2.48742">
        <ele>31.8</ele>
        <time>2022-10-19T12:18:21Z</time>
      </trkpt>
      <trkpt lat="49.89818" lon="2.48741">
        <ele>31.8</ele>
        <time>2022-10-19T12:18:22Z</time>
      </trkpt>
      <trkpt lat="49.89818" lon="2.48738">
        <ele>31.8</ele>
        <time>2022-10-19T12:18:23Z</time>
      </trkpt>
      <trkpt lat="49.89818" lon="2.48736">
        <ele>31.8</ele>
        <time>2022-10-19T12:18:24Z</time>
      </trkpt>
      <trkpt lat="49.89817" lon="2.48734">
        <ele>31.8</ele>
        <time>2022-10-19T12:18:26Z</time>
      </trkpt>
      <trkpt lat="49.89817" lon="2.48732">
        <ele>31.8</ele>
        <time>2022-10-19T12:18:27Z</time>
      </trkpt>
      <trkpt lat="49.89817" lon="2.48729">
        <ele>31.8</ele>
        <time>2022-10-19T12:18:28Z</time>
      </trkpt>
      <trkpt lat="49.89816" lon="2.48727">
        <ele>31.8</ele>
        <time>2022-10-19T12:18:29Z</time>
      </trkpt>
      <trkpt lat="49.89816" lon="2.48725">
        <ele>31.8</ele>
        <time>2022-10-19T12:18:30Z</time>
      </trkpt>
      <trkpt lat="49.89816" lon="2.48723">
        <ele>31.8</ele>
        <time>2022-10-19T12:18:31Z</time>
      </trkpt>
      <trkpt lat="49.89816" lon="2.48721">
        <ele>31.8</ele>
        <time>2022-10-19T12:18:32Z</time>
      </trkpt>
      <trkpt lat="49.89815" lon="2.48719">
        <ele>31.8</ele>
        <time>2022-10-19T12:18:33Z</time>
      </trkpt>
      <trkpt lat="49.89815" lon="2.48717">
        <ele>31.8</ele>
        <time>2022-10-19T12:18:35Z</time>
      </trkpt>
      <trkpt lat="49.89815" lon="2.48713">
        <ele>31.8</ele>
        <time>2022-10-19T12:18:36Z</time>
      </trkpt>
      <trkpt lat="49.89814" lon="2.48712">
        <ele>31.8</ele>
        <time>2022-10-19T12:18:37Z</time>
      </trkpt>
      <trkpt lat="49.89814" lon="2.48708">
        <ele>31.8</ele>
        <time>2022-10-19T12:18:39Z</time>
      </trkpt>
      <trkpt lat="49.89813" lon="2.48707">
        <ele>31.8</ele>
        <time>2022-10-19T12:18:40Z</time>
      </trkpt>
      <trkpt lat="49.89813" lon="2.48706">
        <ele>31.8</ele>
        <time>2022-10-19T12:18:41Z</time>
      </trkpt>
      <trkpt lat="49.89813" lon="2.48704">
        <ele>31.8</ele>
        <time>2022-10-19T12:18:42Z</time>
      </trkpt>
      <trkpt lat="49.89813" lon="2.48703">
        <ele>31.8</ele>
        <time>2022-10-19T12:18:43Z</time>
      </trkpt>
      <trkpt lat="49.89812" lon="2.48701">
        <ele>31.8</ele>
        <time>2022-10-19T12:18:44Z</time>
      </trkpt>
      <trkpt lat="49.89812" lon="2.48699">
        <ele>31.8</ele>
        <time>2022-10-19T12:18:45Z</time>
      </trkpt>
      <trkpt lat="49.89811" lon="2.48697">
        <ele>31.8</ele>
        <time>2022-10-19T12:18:47Z</time>
      </trkpt>
      <trkpt lat="49.89811" lon="2.48695">
        <ele>31.8</ele>
        <time>2022-10-19T12:18:48Z</time>
      </trkpt>
      <trkpt lat="49.89811" lon="2.48694">
        <ele>31.9</ele>
        <time>2022-10-19T12:18:49Z</time>
      </trkpt>
      <trkpt lat="49.8981" lon="2.48692">
        <ele>31.9</ele>
        <time>2022-10-19T12:18:50Z</time>
      </trkpt>
      <trkpt lat="49.8981" lon="2.4869">
        <ele>31.9</ele>
        <time>2022-10-19T12:18:51Z</time>
      </trkpt>
      <trkpt lat="49.8981" lon="2.48688">
        <ele>31.9</ele>
        <time>2022-10-19T12:18:52Z</time>
      </trkpt>
      <trkpt lat="49.8981" lon="2.48686">
        <ele>31.9</ele>
        <time>2022-10-19T12:18:54Z</time>
      </trkpt>
      <trkpt lat="49.8981" lon="2.48684">
        <ele>31.9</ele>
        <time>2022-10-19T12:18:55Z</time>
      </trkpt>
      <trkpt lat="49.8981" lon="2.48681">
        <ele>31.9</ele>
        <time>2022-10-19T12:18:56Z</time>
      </trkpt>
      <trkpt lat="49.89809" lon="2.4868">
        <ele>31.9</ele>
        <time>2022-10-19T12:18:58Z</time>
      </trkpt>
      <trkpt lat="49.89809" lon="2.48678">
        <ele>31.9</ele>
        <time>2022-10-19T12:18:59Z</time>
      </trkpt>
      <trkpt lat="49.89809" lon="2.48677">
        <ele>31.9</ele>
        <time>2022-10-19T12:19:00Z</time>
      </trkpt>
      <trkpt lat="49.89809" lon="2.48674">
        <ele>31.9</ele>
        <time>2022-10-19T12:19:01Z</time>
      </trkpt>
      <trkpt lat="49.89808" lon="2.48673">
        <ele>31.9</ele>
        <time>2022-10-19T12:19:02Z</time>
      </trkpt>
      <trkpt lat="49.89808" lon="2.48672">
        <ele>31.9</ele>
        <time>2022-10-19T12:19:03Z</time>
      </trkpt>
      <trkpt lat="49.89808" lon="2.48671">
        <ele>31.9</ele>
        <time>2022-10-19T12:19:04Z</time>
      </trkpt>
      <trkpt lat="49.89808" lon="2.4867">
        <ele>31.9</ele>
        <time>2022-10-19T12:19:05Z</time>
      </trkpt>
      <trkpt lat="49.89808" lon="2.48667">
        <ele>32</ele>
        <time>2022-10-19T12:19:07Z</time>
      </trkpt>
      <trkpt lat="49.89808" lon="2.48666">
        <ele>32</ele>
        <time>2022-10-19T12:19:08Z</time>
      </trkpt>
      <trkpt lat="49.89807" lon="2.48664">
        <ele>32</ele>
        <time>2022-10-19T12:19:09Z</time>
      </trkpt>
      <trkpt lat="49.89807" lon="2.48662">
        <ele>32</ele>
        <time>2022-10-19T12:19:10Z</time>
      </trkpt>
      <trkpt lat="49.89807" lon="2.4866">
        <ele>32</ele>
        <time>2022-10-19T12:19:11Z</time>
      </trkpt>
      <trkpt lat="49.89806" lon="2.48658">
        <ele>32</ele>
        <time>2022-10-19T12:19:12Z</time>
      </trkpt>
      <trkpt lat="49.89805" lon="2.48656">
        <ele>32</ele>
        <time>2022-10-19T12:19:13Z</time>
      </trkpt>
      <trkpt lat="49.89805" lon="2.48654">
        <ele>32</ele>
        <time>2022-10-19T12:19:14Z</time>
      </trkpt>
      <trkpt lat="49.89804" lon="2.48653">
        <ele>32</ele>
        <time>2022-10-19T12:19:16Z</time>
      </trkpt>
      <trkpt lat="49.89803" lon="2.48652">
        <ele>32</ele>
        <time>2022-10-19T12:19:17Z</time>
      </trkpt>
      <trkpt lat="49.89803" lon="2.4865">
        <ele>32</ele>
        <time>2022-10-19T12:19:18Z</time>
      </trkpt>
      <trkpt lat="49.89802" lon="2.48649">
        <ele>32</ele>
        <time>2022-10-19T12:19:19Z</time>
      </trkpt>
      <trkpt lat="49.89801" lon="2.48646">
        <ele>32</ele>
        <time>2022-10-19T12:19:20Z</time>
      </trkpt>
      <trkpt lat="49.89801" lon="2.48645">
        <ele>32</ele>
        <time>2022-10-19T12:19:21Z</time>
      </trkpt>
      <trkpt lat="49.898" lon="2.48644">
        <ele>32</ele>
        <time>2022-10-19T12:19:22Z</time>
      </trkpt>
      <trkpt lat="49.898" lon="2.48641">
        <ele>32.1</ele>
        <time>2022-10-19T12:19:23Z</time>
      </trkpt>
      <trkpt lat="49.89799" lon="2.4864">
        <ele>32.1</ele>
        <time>2022-10-19T12:19:25Z</time>
      </trkpt>
      <trkpt lat="49.89799" lon="2.48639">
        <ele>32.1</ele>
        <time>2022-10-19T12:19:26Z</time>
      </trkpt>
      <trkpt lat="49.89798" lon="2.48636">
        <ele>32.1</ele>
        <time>2022-10-19T12:19:27Z</time>
      </trkpt>
      <trkpt lat="49.89798" lon="2.48635">
        <ele>32.1</ele>
        <time>2022-10-19T12:19:28Z</time>
      </trkpt>
      <trkpt lat="49.89798" lon="2.48633">
        <ele>32.1</ele>
        <time>2022-10-19T12:19:29Z</time>
      </trkpt>
      <trkpt lat="49.89797" lon="2.48631">
        <ele>32.1</ele>
        <time>2022-10-19T12:19:30Z</time>
      </trkpt>
      <trkpt lat="49.89797" lon="2.48628">
        <ele>32.1</ele>
        <time>2022-10-19T12:19:32Z</time>
      </trkpt>
      <trkpt lat="49.89797" lon="2.48626">
        <ele>32.1</ele>
        <time>2022-10-19T12:19:33Z</time>
      </trkpt>
      <trkpt lat="49.89796" lon="2.48624">
        <ele>32.1</ele>
        <time>2022-10-19T12:19:34Z</time>
      </trkpt>
      <trkpt lat="49.89796" lon="2.48622">
        <ele>32.1</ele>
        <time>2022-10-19T12:19:35Z</time>
      </trkpt>
      <trkpt lat="49.89796" lon="2.48621">
        <ele>32.1</ele>
        <time>2022-10-19T12:19:36Z</time>
      </trkpt>
      <trkpt lat="49.89796" lon="2.48618">
        <ele>32.2</ele>
        <time>2022-10-19T12:19:37Z</time>
      </trkpt>
      <trkpt lat="49.89795" lon="2.48617">
        <ele>32.2</ele>
        <time>2022-10-19T12:19:39Z</time>
      </trkpt>
      <trkpt lat="49.89795" lon="2.48615">
        <ele>32.2</ele>
        <time>2022-10-19T12:19:40Z</time>
      </trkpt>
      <trkpt lat="49.89795" lon="2.48614">
        <ele>32.2</ele>
        <time>2022-10-19T12:19:41Z</time>
      </trkpt>
      <trkpt lat="49.89794" lon="2.4861">
        <ele>32.2</ele>
        <time>2022-10-19T12:19:42Z</time>
      </trkpt>
      <trkpt lat="49.89794" lon="2.48609">
        <ele>32.2</ele>
        <time>2022-10-19T12:19:43Z</time>
      </trkpt>
      <trkpt lat="49.89794" lon="2.48608">
        <ele>32.2</ele>
        <time>2022-10-19T12:19:44Z</time>
      </trkpt>
      <trkpt lat="49.89793" lon="2.48606">
        <ele>32.2</ele>
        <time>2022-10-19T12:19:45Z</time>
      </trkpt>
      <trkpt lat="49.89793" lon="2.48603">
        <ele>32.2</ele>
        <time>2022-10-19T12:19:46Z</time>
      </trkpt>
      <trkpt lat="49.89792" lon="2.48601">
        <ele>32.2</ele>
        <time>2022-10-19T12:19:48Z</time>
      </trkpt>
      <trkpt lat="49.89792" lon="2.486">
        <ele>32.2</ele>
        <time>2022-10-19T12:19:49Z</time>
      </trkpt>
      <trkpt lat="49.89792" lon="2.48598">
        <ele>32.2</ele>
        <time>2022-10-19T12:19:50Z</time>
      </trkpt>
      <trkpt lat="49.89791" lon="2.48595">
        <ele>32.3</ele>
        <time>2022-10-19T12:19:51Z</time>
      </trkpt>
      <trkpt lat="49.89791" lon="2.48594">
        <ele>32.3</ele>
        <time>2022-10-19T12:19:52Z</time>
      </trkpt>
      <trkpt lat="49.8979" lon="2.48593">
        <ele>32.3</ele>
        <time>2022-10-19T12:19:53Z</time>
      </trkpt>
      <trkpt lat="49.8979" lon="2.4859">
        <ele>32.3</ele>
        <time>2022-10-19T12:19:54Z</time>
      </trkpt>
      <trkpt lat="49.89789" lon="2.48589">
        <ele>32.3</ele>
        <time>2022-10-19T12:19:55Z</time>
      </trkpt>
      <trkpt lat="49.89789" lon="2.48587">
        <ele>32.3</ele>
        <time>2022-10-19T12:19:56Z</time>
      </trkpt>
      <trkpt lat="49.89788" lon="2.48584">
        <ele>32.3</ele>
        <time>2022-10-19T12:19:58Z</time>
      </trkpt>
      <trkpt lat="49.89788" lon="2.48583">
        <ele>32.3</ele>
        <time>2022-10-19T12:19:59Z</time>
      </trkpt>
      <trkpt lat="49.89787" lon="2.48583">
        <ele>32.4</ele>
        <time>2022-10-19T12:20:00Z</time>
      </trkpt>
      <trkpt lat="49.89786" lon="2.4858">
        <ele>32.4</ele>
        <time>2022-10-19T12:20:01Z</time>
      </trkpt>
      <trkpt lat="49.89785" lon="2.48579">
        <ele>32.4</ele>
        <time>2022-10-19T12:20:02Z</time>
      </trkpt>
      <trkpt lat="49.89785" lon="2.48577">
        <ele>32.4</ele>
        <time>2022-10-19T12:20:03Z</time>
      </trkpt>
      <trkpt lat="49.89784" lon="2.48574">
        <ele>32.5</ele>
        <time>2022-10-19T12:20:04Z</time>
      </trkpt>
      <trkpt lat="49.89784" lon="2.48573">
        <ele>32.5</ele>
        <time>2022-10-19T12:20:06Z</time>
      </trkpt>
      <trkpt lat="49.89783" lon="2.48572">
        <ele>32.5</ele>
        <time>2022-10-19T12:20:07Z</time>
      </trkpt>
      <trkpt lat="49.89783" lon="2.48569">
        <ele>32.6</ele>
        <time>2022-10-19T12:20:08Z</time>
      </trkpt>
      <trkpt lat="49.89782" lon="2.48568">
        <ele>32.6</ele>
        <time>2022-10-19T12:20:09Z</time>
      </trkpt>
      <trkpt lat="49.89782" lon="2.48567">
        <ele>32.6</ele>
        <time>2022-10-19T12:20:10Z</time>
      </trkpt>
      <trkpt lat="49.89781" lon="2.48563">
        <ele>32.6</ele>
        <time>2022-10-19T12:20:11Z</time>
      </trkpt>
      <trkpt lat="49.8978" lon="2.48562">
        <ele>32.7</ele>
        <time>2022-10-19T12:20:12Z</time>
      </trkpt>
      <trkpt lat="49.8978" lon="2.48561">
        <ele>32.7</ele>
        <time>2022-10-19T12:20:13Z</time>
      </trkpt>
      <trkpt lat="49.8978" lon="2.48559">
        <ele>32.7</ele>
        <time>2022-10-19T12:20:14Z</time>
      </trkpt>
      <trkpt lat="49.89779" lon="2.48557">
        <ele>32.7</ele>
        <time>2022-10-19T12:20:15Z</time>
      </trkpt>
      <trkpt lat="49.89778" lon="2.48556">
        <ele>32.7</ele>
        <time>2022-10-19T12:20:17Z</time>
      </trkpt>
      <trkpt lat="49.89777" lon="2.48553">
        <ele>32.8</ele>
        <time>2022-10-19T12:20:18Z</time>
      </trkpt>
      <trkpt lat="49.89777" lon="2.48552">
        <ele>32.8</ele>
        <time>2022-10-19T12:20:19Z</time>
      </trkpt>
      <trkpt lat="49.89776" lon="2.48552">
        <ele>32.8</ele>
        <time>2022-10-19T12:20:20Z</time>
      </trkpt>
      <trkpt lat="49.89775" lon="2.48551">
        <ele>32.8</ele>
        <time>2022-10-19T12:20:21Z</time>
      </trkpt>
      <trkpt lat="49.89774" lon="2.48549">
        <ele>32.8</ele>
        <time>2022-10-19T12:20:22Z</time>
      </trkpt>
      <trkpt lat="49.89773" lon="2.48548">
        <ele>32.8</ele>
        <time>2022-10-19T12:20:23Z</time>
      </trkpt>
      <trkpt lat="49.89772" lon="2.48548">
        <ele>32.8</ele>
        <time>2022-10-19T12:20:24Z</time>
      </trkpt>
      <trkpt lat="49.89771" lon="2.48547">
        <ele>32.8</ele>
        <time>2022-10-19T12:20:26Z</time>
      </trkpt>
      <trkpt lat="49.8977" lon="2.48547">
        <ele>32.8</ele>
        <time>2022-10-19T12:20:27Z</time>
      </trkpt>
      <trkpt lat="49.89768" lon="2.48547">
        <ele>32.8</ele>
        <time>2022-10-19T12:20:28Z</time>
      </trkpt>
      <trkpt lat="49.89768" lon="2.48547">
        <ele>32.8</ele>
        <time>2022-10-19T12:20:29Z</time>
      </trkpt>
      <trkpt lat="49.89767" lon="2.48548">
        <ele>32.8</ele>
        <time>2022-10-19T12:20:30Z</time>
      </trkpt>
      <trkpt lat="49.89766" lon="2.48549">
        <ele>32.8</ele>
        <time>2022-10-19T12:20:31Z</time>
      </trkpt>
      <trkpt lat="49.89765" lon="2.4855">
        <ele>32.8</ele>
        <time>2022-10-19T12:20:32Z</time>
      </trkpt>
      <trkpt lat="49.89764" lon="2.48551">
        <ele>32.8</ele>
        <time>2022-10-19T12:20:33Z</time>
      </trkpt>
      <trkpt lat="49.89763" lon="2.48552">
        <ele>32.8</ele>
        <time>2022-10-19T12:20:34Z</time>
      </trkpt>
      <trkpt lat="49.89762" lon="2.48554">
        <ele>32.8</ele>
        <time>2022-10-19T12:20:36Z</time>
      </trkpt>
      <trkpt lat="49.89761" lon="2.48555">
        <ele>32.8</ele>
        <time>2022-10-19T12:20:37Z</time>
      </trkpt>
      <trkpt lat="49.89759" lon="2.48556">
        <ele>32.8</ele>
        <time>2022-10-19T12:20:38Z</time>
      </trkpt>
      <trkpt lat="49.89759" lon="2.48557">
        <ele>32.8</ele>
        <time>2022-10-19T12:20:39Z</time>
      </trkpt>
      <trkpt lat="49.89758" lon="2.48558">
        <ele>32.8</ele>
        <time>2022-10-19T12:20:40Z</time>
      </trkpt>
      <trkpt lat="49.89757" lon="2.48559">
        <ele>32.8</ele>
        <time>2022-10-19T12:20:41Z</time>
      </trkpt>
      <trkpt lat="49.89756" lon="2.48561">
        <ele>32.8</ele>
        <time>2022-10-19T12:20:43Z</time>
      </trkpt>
      <trkpt lat="49.89755" lon="2.48562">
        <ele>32.8</ele>
        <time>2022-10-19T12:20:45Z</time>
      </trkpt>
      <trkpt lat="49.89754" lon="2.48563">
        <ele>32.9</ele>
        <time>2022-10-19T12:20:46Z</time>
      </trkpt>
      <trkpt lat="49.89753" lon="2.48563">
        <ele>32.9</ele>
        <time>2022-10-19T12:20:47Z</time>
      </trkpt>
      <trkpt lat="49.89752" lon="2.48564">
        <ele>32.9</ele>
        <time>2022-10-19T12:20:48Z</time>
      </trkpt>
      <trkpt lat="49.89751" lon="2.48565">
        <ele>32.9</ele>
        <time>2022-10-19T12:20:49Z</time>
      </trkpt>
      <trkpt lat="49.8975" lon="2.48565">
        <ele>32.9</ele>
        <time>2022-10-19T12:20:50Z</time>
      </trkpt>
      <trkpt lat="49.89749" lon="2.48566">
        <ele>32.9</ele>
        <time>2022-10-19T12:20:51Z</time>
      </trkpt>
      <trkpt lat="49.89748" lon="2.48566">
        <ele>32.9</ele>
        <time>2022-10-19T12:20:52Z</time>
      </trkpt>
      <trkpt lat="49.89747" lon="2.48566">
        <ele>32.9</ele>
        <time>2022-10-19T12:20:53Z</time>
      </trkpt>
      <trkpt lat="49.89746" lon="2.48567">
        <ele>32.9</ele>
        <time>2022-10-19T12:20:54Z</time>
      </trkpt>
      <trkpt lat="49.89745" lon="2.48567">
        <ele>32.9</ele>
        <time>2022-10-19T12:20:55Z</time>
      </trkpt>
      <trkpt lat="49.89744" lon="2.48568">
        <ele>32.9</ele>
        <time>2022-10-19T12:20:56Z</time>
      </trkpt>
      <trkpt lat="49.89743" lon="2.48568">
        <ele>32.9</ele>
        <time>2022-10-19T12:20:57Z</time>
      </trkpt>
      <trkpt lat="49.89742" lon="2.48569">
        <ele>33</ele>
        <time>2022-10-19T12:20:58Z</time>
      </trkpt>
      <trkpt lat="49.89742" lon="2.48569">
        <ele>33</ele>
        <time>2022-10-19T12:20:59Z</time>
      </trkpt>
      <trkpt lat="49.89741" lon="2.4857">
        <ele>33</ele>
        <time>2022-10-19T12:21:00Z</time>
      </trkpt>
      <trkpt lat="49.8974" lon="2.4857">
        <ele>33</ele>
        <time>2022-10-19T12:21:01Z</time>
      </trkpt>
      <trkpt lat="49.89739" lon="2.48571">
        <ele>33</ele>
        <time>2022-10-19T12:21:02Z</time>
      </trkpt>
      <trkpt lat="49.89738" lon="2.48571">
        <ele>33</ele>
        <time>2022-10-19T12:21:03Z</time>
      </trkpt>
      <trkpt lat="49.89737" lon="2.48572">
        <ele>33</ele>
        <time>2022-10-19T12:21:04Z</time>
      </trkpt>
      <trkpt lat="49.89737" lon="2.48572">
        <ele>33</ele>
        <time>2022-10-19T12:21:05Z</time>
      </trkpt>
      <trkpt lat="49.89736" lon="2.48573">
        <ele>33</ele>
        <time>2022-10-19T12:21:06Z</time>
      </trkpt>
      <trkpt lat="49.89735" lon="2.48573">
        <ele>33</ele>
        <time>2022-10-19T12:21:07Z</time>
      </trkpt>
      <trkpt lat="49.89734" lon="2.48573">
        <ele>33</ele>
        <time>2022-10-19T12:21:08Z</time>
      </trkpt>
      <trkpt lat="49.89733" lon="2.48573">
        <ele>33</ele>
        <time>2022-10-19T12:21:10Z</time>
      </trkpt>
      <trkpt lat="49.89731" lon="2.48573">
        <ele>33</ele>
        <time>2022-10-19T12:21:11Z</time>
      </trkpt>
      <trkpt lat="49.8973" lon="2.48574">
        <ele>33.1</ele>
        <time>2022-10-19T12:21:12Z</time>
      </trkpt>
      <trkpt lat="49.89729" lon="2.48575">
        <ele>33.1</ele>
        <time>2022-10-19T12:21:13Z</time>
      </trkpt>
      <trkpt lat="49.89727" lon="2.48575">
        <ele>33.1</ele>
        <time>2022-10-19T12:21:14Z</time>
      </trkpt>
      <trkpt lat="49.89727" lon="2.48576">
        <ele>33.1</ele>
        <time>2022-10-19T12:21:15Z</time>
      </trkpt>
      <trkpt lat="49.89726" lon="2.48576">
        <ele>33.1</ele>
        <time>2022-10-19T12:21:17Z</time>
      </trkpt>
      <trkpt lat="49.89725" lon="2.48577">
        <ele>33.1</ele>
        <time>2022-10-19T12:21:18Z</time>
      </trkpt>
      <trkpt lat="49.89724" lon="2.48578">
        <ele>33.1</ele>
        <time>2022-10-19T12:21:19Z</time>
      </trkpt>
      <trkpt lat="49.89723" lon="2.48578">
        <ele>33.1</ele>
        <time>2022-10-19T12:21:20Z</time>
      </trkpt>
      <trkpt lat="49.89721" lon="2.48579">
        <ele>33.1</ele>
        <time>2022-10-19T12:21:21Z</time>
      </trkpt>
      <trkpt lat="49.8972" lon="2.4858">
        <ele>33.2</ele>
        <time>2022-10-19T12:21:22Z</time>
      </trkpt>
      <trkpt lat="49.89719" lon="2.4858">
        <ele>33.2</ele>
        <time>2022-10-19T12:21:23Z</time>
      </trkpt>
      <trkpt lat="49.89717" lon="2.4858">
        <ele>33.2</ele>
        <time>2022-10-19T12:21:25Z</time>
      </trkpt>
      <trkpt lat="49.89716" lon="2.48581">
        <ele>33.2</ele>
        <time>2022-10-19T12:21:26Z</time>
      </trkpt>
      <trkpt lat="49.89715" lon="2.48581">
        <ele>33.2</ele>
        <time>2022-10-19T12:21:27Z</time>
      </trkpt>
      <trkpt lat="49.89713" lon="2.48581">
        <ele>33.2</ele>
        <time>2022-10-19T12:21:29Z</time>
      </trkpt>
      <trkpt lat="49.89712" lon="2.48581">
        <ele>33.2</ele>
        <time>2022-10-19T12:21:30Z</time>
      </trkpt>
      <trkpt lat="49.89711" lon="2.48582">
        <ele>33.3</ele>
        <time>2022-10-19T12:21:31Z</time>
      </trkpt>
      <trkpt lat="49.8971" lon="2.48582">
        <ele>33.3</ele>
        <time>2022-10-19T12:21:32Z</time>
      </trkpt>
      <trkpt lat="49.89709" lon="2.48583">
        <ele>33.3</ele>
        <time>2022-10-19T12:21:33Z</time>
      </trkpt>
      <trkpt lat="49.89708" lon="2.48583">
        <ele>33.3</ele>
        <time>2022-10-19T12:21:34Z</time>
      </trkpt>
      <trkpt lat="49.89707" lon="2.48583">
        <ele>33.3</ele>
        <time>2022-10-19T12:21:36Z</time>
      </trkpt>
      <trkpt lat="49.89706" lon="2.48583">
        <ele>33.3</ele>
        <time>2022-10-19T12:21:37Z</time>
      </trkpt>
      <trkpt lat="49.89705" lon="2.48583">
        <ele>33.3</ele>
        <time>2022-10-19T12:21:38Z</time>
      </trkpt>
      <trkpt lat="49.89703" lon="2.48583">
        <ele>33.4</ele>
        <time>2022-10-19T12:21:39Z</time>
      </trkpt>
      <trkpt lat="49.89703" lon="2.48582">
        <ele>33.4</ele>
        <time>2022-10-19T12:21:40Z</time>
      </trkpt>
      <trkpt lat="49.89702" lon="2.48581">
        <ele>33.4</ele>
        <time>2022-10-19T12:21:41Z</time>
      </trkpt>
      <trkpt lat="49.89701" lon="2.48581">
        <ele>33.4</ele>
        <time>2022-10-19T12:21:42Z</time>
      </trkpt>
      <trkpt lat="49.897" lon="2.4858">
        <ele>33.4</ele>
        <time>2022-10-19T12:21:43Z</time>
      </trkpt>
      <trkpt lat="49.89699" lon="2.4858">
        <ele>33.4</ele>
        <time>2022-10-19T12:21:44Z</time>
      </trkpt>
      <trkpt lat="49.89698" lon="2.48579">
        <ele>33.5</ele>
        <time>2022-10-19T12:21:45Z</time>
      </trkpt>
      <trkpt lat="49.89698" lon="2.48579">
        <ele>33.5</ele>
        <time>2022-10-19T12:21:46Z</time>
      </trkpt>
      <trkpt lat="49.89696" lon="2.48579">
        <ele>33.5</ele>
        <time>2022-10-19T12:21:48Z</time>
      </trkpt>
      <trkpt lat="49.89694" lon="2.48579">
        <ele>33.6</ele>
        <time>2022-10-19T12:21:49Z</time>
      </trkpt>
      <trkpt lat="49.89693" lon="2.48578">
        <ele>33.6</ele>
        <time>2022-10-19T12:21:50Z</time>
      </trkpt>
      <trkpt lat="49.89692" lon="2.48578">
        <ele>33.6</ele>
        <time>2022-10-19T12:21:51Z</time>
      </trkpt>
      <trkpt lat="49.89691" lon="2.48578">
        <ele>33.6</ele>
        <time>2022-10-19T12:21:52Z</time>
      </trkpt>
      <trkpt lat="49.8969" lon="2.48578">
        <ele>33.7</ele>
        <time>2022-10-19T12:21:53Z</time>
      </trkpt>
      <trkpt lat="49.89689" lon="2.48578">
        <ele>33.7</ele>
        <time>2022-10-19T12:21:54Z</time>
      </trkpt>
      <trkpt lat="49.89688" lon="2.48578">
        <ele>33.7</ele>
        <time>2022-10-19T12:21:55Z</time>
      </trkpt>
      <trkpt lat="49.89687" lon="2.48578">
        <ele>33.7</ele>
        <time>2022-10-19T12:21:57Z</time>
      </trkpt>
      <trkpt lat="49.89686" lon="2.48578">
        <ele>33.7</ele>
        <time>2022-10-19T12:21:58Z</time>
      </trkpt>
      <trkpt lat="49.89685" lon="2.48578">
        <ele>33.7</ele>
        <time>2022-10-19T12:21:59Z</time>
      </trkpt>
      <trkpt lat="49.89685" lon="2.48577">
        <ele>33.8</ele>
        <time>2022-10-19T12:22:00Z</time>
      </trkpt>
      <trkpt lat="49.89685" lon="2.48576">
        <ele>33.8</ele>
        <time>2022-10-19T12:22:01Z</time>
      </trkpt>
      <trkpt lat="49.89685" lon="2.48575">
        <ele>33.8</ele>
        <time>2022-10-19T12:22:02Z</time>
      </trkpt>
      <trkpt lat="49.89686" lon="2.48572">
        <ele>33.8</ele>
        <time>2022-10-19T12:22:04Z</time>
      </trkpt>
      <trkpt lat="49.89686" lon="2.48571">
        <ele>33.9</ele>
        <time>2022-10-19T12:22:05Z</time>
      </trkpt>
      <trkpt lat="49.89686" lon="2.4857">
        <ele>33.9</ele>
        <time>2022-10-19T12:22:06Z</time>
      </trkpt>
      <trkpt lat="49.89687" lon="2.48569">
        <ele>33.9</ele>
        <time>2022-10-19T12:22:07Z</time>
      </trkpt>
      <trkpt lat="49.89687" lon="2.48569">
        <ele>33.9</ele>
        <time>2022-10-19T12:22:09Z</time>
      </trkpt>
      <trkpt lat="49.89688" lon="2.48569">
        <ele>33.9</ele>
        <time>2022-10-19T12:22:10Z</time>
      </trkpt>
      <trkpt lat="49.89688" lon="2.48569">
        <ele>33.9</ele>
        <time>2022-10-19T12:22:11Z</time>
      </trkpt>
      <trkpt lat="49.89688" lon="2.48569">
        <ele>33.9</ele>
        <time>2022-10-19T12:22:12Z</time>
      </trkpt>
      <trkpt lat="49.89688" lon="2.48569">
        <ele>33.9</ele>
        <time>2022-10-19T12:22:13Z</time>
      </trkpt>
      <trkpt lat="49.89688" lon="2.48569">
        <ele>33.9</ele>
        <time>2022-10-19T12:22:14Z</time>
      </trkpt>
      <trkpt lat="49.89688" lon="2.48569">
        <ele>33.9</ele>
        <time>2022-10-19T12:22:16Z</time>
      </trkpt>
      <trkpt lat="49.89687" lon="2.48569">
        <ele>33.9</ele>
        <time>2022-10-19T12:22:17Z</time>
      </trkpt>
      <trkpt lat="49.89686" lon="2.48569">
        <ele>33.9</ele>
        <time>2022-10-19T12:22:18Z</time>
      </trkpt>
      <trkpt lat="49.89685" lon="2.48569">
        <ele>34</ele>
        <time>2022-10-19T12:22:19Z</time>
      </trkpt>
      <trkpt lat="49.89685" lon="2.4857">
        <ele>34</ele>
        <time>2022-10-19T12:22:21Z</time>
      </trkpt>
      <trkpt lat="49.89684" lon="2.48572">
        <ele>34</ele>
        <time>2022-10-19T12:22:22Z</time>
      </trkpt>
      <trkpt lat="49.89684" lon="2.48575">
        <ele>34.1</ele>
        <time>2022-10-19T12:22:23Z</time>
      </trkpt>
      <trkpt lat="49.89683" lon="2.48575">
        <ele>34.1</ele>
        <time>2022-10-19T12:22:24Z</time>
      </trkpt>
      <trkpt lat="49.89682" lon="2.48576">
        <ele>34.1</ele>
        <time>2022-10-19T12:22:26Z</time>
      </trkpt>
      <trkpt lat="49.89681" lon="2.48578">
        <ele>34.1</ele>
        <time>2022-10-19T12:22:27Z</time>
      </trkpt>
      <trkpt lat="49.8968" lon="2.48579">
        <ele>34.1</ele>
        <time>2022-10-19T12:22:28Z</time>
      </trkpt>
      <trkpt lat="49.89679" lon="2.48581">
        <ele>34.1</ele>
        <time>2022-10-19T12:22:29Z</time>
      </trkpt>
      <trkpt lat="49.89677" lon="2.48582">
        <ele>34.1</ele>
        <time>2022-10-19T12:22:30Z</time>
      </trkpt>
      <trkpt lat="49.89676" lon="2.48584">
        <ele>34</ele>
        <time>2022-10-19T12:22:31Z</time>
      </trkpt>
      <trkpt lat="49.89675" lon="2.48585">
        <ele>34</ele>
        <time>2022-10-19T12:22:32Z</time>
      </trkpt>
      <trkpt lat="49.89675" lon="2.48586">
        <ele>34</ele>
        <time>2022-10-19T12:22:33Z</time>
      </trkpt>
      <trkpt lat="49.89673" lon="2.4859">
        <ele>34</ele>
        <time>2022-10-19T12:22:34Z</time>
      </trkpt>
      <trkpt lat="49.89673" lon="2.48591">
        <ele>34</ele>
        <time>2022-10-19T12:22:35Z</time>
      </trkpt>
      <trkpt lat="49.89672" lon="2.48592">
        <ele>34</ele>
        <time>2022-10-19T12:22:36Z</time>
      </trkpt>
      <trkpt lat="49.89671" lon="2.48593">
        <ele>34</ele>
        <time>2022-10-19T12:22:37Z</time>
      </trkpt>
      <trkpt lat="49.89669" lon="2.48597">
        <ele>34</ele>
        <time>2022-10-19T12:22:39Z</time>
      </trkpt>
      <trkpt lat="49.89668" lon="2.48598">
        <ele>34</ele>
        <time>2022-10-19T12:22:40Z</time>
      </trkpt>
      <trkpt lat="49.89667" lon="2.48599">
        <ele>33.9</ele>
        <time>2022-10-19T12:22:41Z</time>
      </trkpt>
      <trkpt lat="49.89666" lon="2.486">
        <ele>33.9</ele>
        <time>2022-10-19T12:22:42Z</time>
      </trkpt>
      <trkpt lat="49.89664" lon="2.48601">
        <ele>33.9</ele>
        <time>2022-10-19T12:22:43Z</time>
      </trkpt>
      <trkpt lat="49.89663" lon="2.48601">
        <ele>33.9</ele>
        <time>2022-10-19T12:22:45Z</time>
      </trkpt>
      <trkpt lat="49.89662" lon="2.48602">
        <ele>33.9</ele>
        <time>2022-10-19T12:22:46Z</time>
      </trkpt>
      <trkpt lat="49.89661" lon="2.48602">
        <ele>33.9</ele>
        <time>2022-10-19T12:22:47Z</time>
      </trkpt>
      <trkpt lat="49.89659" lon="2.48602">
        <ele>33.9</ele>
        <time>2022-10-19T12:22:48Z</time>
      </trkpt>
      <trkpt lat="49.89658" lon="2.48602">
        <ele>33.9</ele>
        <time>2022-10-19T12:22:49Z</time>
      </trkpt>
      <trkpt lat="49.89656" lon="2.48602">
        <ele>33.9</ele>
        <time>2022-10-19T12:22:50Z</time>
      </trkpt>
      <trkpt lat="49.89655" lon="2.48601">
        <ele>33.9</ele>
        <time>2022-10-19T12:22:51Z</time>
      </trkpt>
      <trkpt lat="49.89654" lon="2.48601">
        <ele>33.9</ele>
        <time>2022-10-19T12:22:53Z</time>
      </trkpt>
      <trkpt lat="49.89652" lon="2.48601">
        <ele>33.9</ele>
        <time>2022-10-19T12:22:54Z</time>
      </trkpt>
      <trkpt lat="49.89651" lon="2.48601">
        <ele>33.9</ele>
        <time>2022-10-19T12:22:55Z</time>
      </trkpt>
      <trkpt lat="49.89651" lon="2.48601">
        <ele>33.9</ele>
        <time>2022-10-19T12:22:56Z</time>
      </trkpt>
      <trkpt lat="49.8965" lon="2.48601">
        <ele>33.9</ele>
        <time>2022-10-19T12:22:57Z</time>
      </trkpt>
      <trkpt lat="49.89649" lon="2.48601">
        <ele>33.9</ele>
        <time>2022-10-19T12:22:58Z</time>
      </trkpt>
      <trkpt lat="49.89647" lon="2.48601">
        <ele>33.9</ele>
        <time>2022-10-19T12:22:59Z</time>
      </trkpt>
      <trkpt lat="49.89647" lon="2.48602">
        <ele>33.9</ele>
        <time>2022-10-19T12:23:00Z</time>
      </trkpt>
      <trkpt lat="49.89647" lon="2.48604">
        <ele>33.9</ele>
        <time>2022-10-19T12:23:01Z</time>
      </trkpt>
      <trkpt lat="49.89648" lon="2.48605">
        <ele>34</ele>
        <time>2022-10-19T12:23:02Z</time>
      </trkpt>
      <trkpt lat="49.89648" lon="2.48606">
        <ele>34</ele>
        <time>2022-10-19T12:23:03Z</time>
      </trkpt>
      <trkpt lat="49.8965" lon="2.48607">
        <ele>34</ele>
        <time>2022-10-19T12:23:04Z</time>
      </trkpt>
      <trkpt lat="49.8965" lon="2.48608">
        <ele>34</ele>
        <time>2022-10-19T12:23:05Z</time>
      </trkpt>
      <trkpt lat="49.89651" lon="2.48608">
        <ele>34</ele>
        <time>2022-10-19T12:23:06Z</time>
      </trkpt>
      <trkpt lat="49.8965" lon="2.48609">
        <ele>34</ele>
        <time>2022-10-19T12:23:07Z</time>
      </trkpt>
      <trkpt lat="49.8965" lon="2.48609">
        <ele>34</ele>
        <time>2022-10-19T12:23:08Z</time>
      </trkpt>
      <trkpt lat="49.89649" lon="2.48609">
        <ele>34</ele>
        <time>2022-10-19T12:23:09Z</time>
      </trkpt>
      <trkpt lat="49.89648" lon="2.48609">
        <ele>34</ele>
        <time>2022-10-19T12:23:11Z</time>
      </trkpt>
      <trkpt lat="49.89648" lon="2.48609">
        <ele>34</ele>
        <time>2022-10-19T12:23:12Z</time>
      </trkpt>
      <trkpt lat="49.89647" lon="2.48609">
        <ele>34</ele>
        <time>2022-10-19T12:23:13Z</time>
      </trkpt>
      <trkpt lat="49.89645" lon="2.48608">
        <ele>34.1</ele>
        <time>2022-10-19T12:23:14Z</time>
      </trkpt>
      <trkpt lat="49.89644" lon="2.48608">
        <ele>34.1</ele>
        <time>2022-10-19T12:23:15Z</time>
      </trkpt>
      <trkpt lat="49.89642" lon="2.48607">
        <ele>34.1</ele>
        <time>2022-10-19T12:23:16Z</time>
      </trkpt>
      <trkpt lat="49.8964" lon="2.48606">
        <ele>34.2</ele>
        <time>2022-10-19T12:23:17Z</time>
      </trkpt>
      <trkpt lat="49.89639" lon="2.48606">
        <ele>34.2</ele>
        <time>2022-10-19T12:23:18Z</time>
      </trkpt>
      <trkpt lat="49.89637" lon="2.48605">
        <ele>34.2</ele>
        <time>2022-10-19T12:23:20Z</time>
      </trkpt>
      <trkpt lat="49.89635" lon="2.48605">
        <ele>34.3</ele>
        <time>2022-10-19T12:23:21Z</time>
      </trkpt>
      <trkpt lat="49.89634" lon="2.48604">
        <ele>34.3</ele>
        <time>2022-10-19T12:23:22Z</time>
      </trkpt>
      <trkpt lat="49.89631" lon="2.48604">
        <ele>34.4</ele>
        <time>2022-10-19T12:23:23Z</time>
      </trkpt>
      <trkpt lat="49.8963" lon="2.48604">
        <ele>34.4</ele>
        <time>2022-10-19T12:23:24Z</time>
      </trkpt>
      <trkpt lat="49.89629" lon="2.48604">
        <ele>34.4</ele>
        <time>2022-10-19T12:23:25Z</time>
      </trkpt>
      <trkpt lat="49.89628" lon="2.48603">
        <ele>34.4</ele>
        <time>2022-10-19T12:23:26Z</time>
      </trkpt>
      <trkpt lat="49.89627" lon="2.48603">
        <ele>34.4</ele>
        <time>2022-10-19T12:23:28Z</time>
      </trkpt>
      <trkpt lat="49.89625" lon="2.48603">
        <ele>34.5</ele>
        <time>2022-10-19T12:23:29Z</time>
      </trkpt>
      <trkpt lat="49.89624" lon="2.48603">
        <ele>34.5</ele>
        <time>2022-10-19T12:23:30Z</time>
      </trkpt>
      <trkpt lat="49.89623" lon="2.48603">
        <ele>34.5</ele>
        <time>2022-10-19T12:23:31Z</time>
      </trkpt>
      <trkpt lat="49.89622" lon="2.48603">
        <ele>34.6</ele>
        <time>2022-10-19T12:23:32Z</time>
      </trkpt>
      <trkpt lat="49.8962" lon="2.48603">
        <ele>34.6</ele>
        <time>2022-10-19T12:23:33Z</time>
      </trkpt>
      <trkpt lat="49.89619" lon="2.48604">
        <ele>34.6</ele>
        <time>2022-10-19T12:23:34Z</time>
      </trkpt>
      <trkpt lat="49.89618" lon="2.48604">
        <ele>34.7</ele>
        <time>2022-10-19T12:23:35Z</time>
      </trkpt>
      <trkpt lat="49.89617" lon="2.48605">
        <ele>34.7</ele>
        <time>2022-10-19T12:23:36Z</time>
      </trkpt>
      <trkpt lat="49.89615" lon="2.48605">
        <ele>34.8</ele>
        <time>2022-10-19T12:23:37Z</time>
      </trkpt>
      <trkpt lat="49.89614" lon="2.48606">
        <ele>34.8</ele>
        <time>2022-10-19T12:23:39Z</time>
      </trkpt>
      <trkpt lat="49.89613" lon="2.48606">
        <ele>34.8</ele>
        <time>2022-10-19T12:23:40Z</time>
      </trkpt>
      <trkpt lat="49.89611" lon="2.48607">
        <ele>34.9</ele>
        <time>2022-10-19T12:23:41Z</time>
      </trkpt>
      <trkpt lat="49.8961" lon="2.48607">
        <ele>34.9</ele>
        <time>2022-10-19T12:23:42Z</time>
      </trkpt>
      <trkpt lat="49.89609" lon="2.48607">
        <ele>34.9</ele>
        <time>2022-10-19T12:23:43Z</time>
      </trkpt>
      <trkpt lat="49.89608" lon="2.48608">
        <ele>35</ele>
        <time>2022-10-19T12:23:44Z</time>
      </trkpt>
      <trkpt lat="49.89607" lon="2.48608">
        <ele>35</ele>
        <time>2022-10-19T12:23:45Z</time>
      </trkpt>
      <trkpt lat="49.89606" lon="2.48609">
        <ele>35</ele>
        <time>2022-10-19T12:23:46Z</time>
      </trkpt>
      <trkpt lat="49.89605" lon="2.48609">
        <ele>35</ele>
        <time>2022-10-19T12:23:47Z</time>
      </trkpt>
      <trkpt lat="49.89603" lon="2.4861">
        <ele>35.1</ele>
        <time>2022-10-19T12:23:49Z</time>
      </trkpt>
      <trkpt lat="49.89602" lon="2.48611">
        <ele>35.1</ele>
        <time>2022-10-19T12:23:50Z</time>
      </trkpt>
      <trkpt lat="49.89601" lon="2.48611">
        <ele>35.2</ele>
        <time>2022-10-19T12:23:51Z</time>
      </trkpt>
      <trkpt lat="49.89598" lon="2.48612">
        <ele>35.2</ele>
        <time>2022-10-19T12:23:52Z</time>
      </trkpt>
      <trkpt lat="49.89598" lon="2.48612">
        <ele>35.3</ele>
        <time>2022-10-19T12:23:53Z</time>
      </trkpt>
      <trkpt lat="49.89597" lon="2.48613">
        <ele>35.3</ele>
        <time>2022-10-19T12:23:54Z</time>
      </trkpt>
      <trkpt lat="49.89595" lon="2.48614">
        <ele>35.3</ele>
        <time>2022-10-19T12:23:55Z</time>
      </trkpt>
      <trkpt lat="49.89595" lon="2.48614">
        <ele>35.4</ele>
        <time>2022-10-19T12:23:56Z</time>
      </trkpt>
      <trkpt lat="49.89594" lon="2.48615">
        <ele>35.4</ele>
        <time>2022-10-19T12:23:57Z</time>
      </trkpt>
      <trkpt lat="49.89592" lon="2.48615">
        <ele>35.4</ele>
        <time>2022-10-19T12:23:58Z</time>
      </trkpt>
      <trkpt lat="49.89591" lon="2.48616">
        <ele>35.5</ele>
        <time>2022-10-19T12:24:00Z</time>
      </trkpt>
      <trkpt lat="49.8959" lon="2.48616">
        <ele>35.5</ele>
        <time>2022-10-19T12:24:01Z</time>
      </trkpt>
      <trkpt lat="49.89588" lon="2.48616">
        <ele>35.5</ele>
        <time>2022-10-19T12:24:02Z</time>
      </trkpt>
      <trkpt lat="49.89587" lon="2.48617">
        <ele>35.6</ele>
        <time>2022-10-19T12:24:03Z</time>
      </trkpt>
      <trkpt lat="49.89586" lon="2.48617">
        <ele>35.6</ele>
        <time>2022-10-19T12:24:04Z</time>
      </trkpt>
      <trkpt lat="49.89585" lon="2.48617">
        <ele>35.6</ele>
        <time>2022-10-19T12:24:05Z</time>
      </trkpt>
      <trkpt lat="49.89584" lon="2.48617">
        <ele>35.7</ele>
        <time>2022-10-19T12:24:07Z</time>
      </trkpt>
      <trkpt lat="49.89583" lon="2.48617">
        <ele>35.7</ele>
        <time>2022-10-19T12:24:08Z</time>
      </trkpt>
      <trkpt lat="49.89582" lon="2.48617">
        <ele>35.7</ele>
        <time>2022-10-19T12:24:09Z</time>
      </trkpt>
      <trkpt lat="49.8958" lon="2.48617">
        <ele>35.8</ele>
        <time>2022-10-19T12:24:10Z</time>
      </trkpt>
      <trkpt lat="49.89579" lon="2.48617">
        <ele>35.8</ele>
        <time>2022-10-19T12:24:11Z</time>
      </trkpt>
      <trkpt lat="49.89578" lon="2.48617">
        <ele>35.8</ele>
        <time>2022-10-19T12:24:12Z</time>
      </trkpt>
      <trkpt lat="49.89577" lon="2.48618">
        <ele>35.9</ele>
        <time>2022-10-19T12:24:13Z</time>
      </trkpt>
      <trkpt lat="49.89576" lon="2.48618">
        <ele>35.9</ele>
        <time>2022-10-19T12:24:14Z</time>
      </trkpt>
      <trkpt lat="49.89575" lon="2.48618">
        <ele>35.9</ele>
        <time>2022-10-19T12:24:16Z</time>
      </trkpt>
      <trkpt lat="49.89574" lon="2.48618">
        <ele>35.9</ele>
        <time>2022-10-19T12:24:17Z</time>
      </trkpt>
      <trkpt lat="49.89573" lon="2.48619">
        <ele>36</ele>
        <time>2022-10-19T12:24:18Z</time>
      </trkpt>
      <trkpt lat="49.89572" lon="2.48619">
        <ele>36</ele>
        <time>2022-10-19T12:24:19Z</time>
      </trkpt>
      <trkpt lat="49.89571" lon="2.4862">
        <ele>36</ele>
        <time>2022-10-19T12:24:20Z</time>
      </trkpt>
      <trkpt lat="49.8957" lon="2.4862">
        <ele>36</ele>
        <time>2022-10-19T12:24:21Z</time>
      </trkpt>
      <trkpt lat="49.89569" lon="2.4862">
        <ele>36.1</ele>
        <time>2022-10-19T12:24:22Z</time>
      </trkpt>
      <trkpt lat="49.89568" lon="2.4862">
        <ele>36.1</ele>
        <time>2022-10-19T12:24:23Z</time>
      </trkpt>
      <trkpt lat="49.89566" lon="2.48621">
        <ele>36.1</ele>
        <time>2022-10-19T12:24:24Z</time>
      </trkpt>
      <trkpt lat="49.89565" lon="2.48621">
        <ele>36.1</ele>
        <time>2022-10-19T12:24:26Z</time>
      </trkpt>
      <trkpt lat="49.89564" lon="2.48622">
        <ele>36.2</ele>
        <time>2022-10-19T12:24:27Z</time>
      </trkpt>
      <trkpt lat="49.89564" lon="2.48623">
        <ele>36.2</ele>
        <time>2022-10-19T12:24:28Z</time>
      </trkpt>
      <trkpt lat="49.89563" lon="2.48624">
        <ele>36.2</ele>
        <time>2022-10-19T12:24:29Z</time>
      </trkpt>
      <trkpt lat="49.89561" lon="2.48624">
        <ele>36.2</ele>
        <time>2022-10-19T12:24:30Z</time>
      </trkpt>
      <trkpt lat="49.8956" lon="2.48626">
        <ele>36.3</ele>
        <time>2022-10-19T12:24:31Z</time>
      </trkpt>
      <trkpt lat="49.89559" lon="2.48626">
        <ele>36.3</ele>
        <time>2022-10-19T12:24:33Z</time>
      </trkpt>
      <trkpt lat="49.89558" lon="2.48627">
        <ele>36.3</ele>
        <time>2022-10-19T12:24:34Z</time>
      </trkpt>
      <trkpt lat="49.89558" lon="2.4863">
        <ele>36.3</ele>
        <time>2022-10-19T12:24:35Z</time>
      </trkpt>
      <trkpt lat="49.89557" lon="2.48631">
        <ele>36.3</ele>
        <time>2022-10-19T12:24:36Z</time>
      </trkpt>
      <trkpt lat="49.89556" lon="2.48632">
        <ele>36.3</ele>
        <time>2022-10-19T12:24:37Z</time>
      </trkpt>
      <trkpt lat="49.89554" lon="2.48633">
        <ele>36.4</ele>
        <time>2022-10-19T12:24:38Z</time>
      </trkpt>
      <trkpt lat="49.89552" lon="2.48633">
        <ele>36.4</ele>
        <time>2022-10-19T12:24:40Z</time>
      </trkpt>
      <trkpt lat="49.8955" lon="2.48632">
        <ele>36.4</ele>
        <time>2022-10-19T12:24:41Z</time>
      </trkpt>
      <trkpt lat="49.89549" lon="2.48631">
        <ele>36.4</ele>
        <time>2022-10-19T12:24:42Z</time>
      </trkpt>
      <trkpt lat="49.89549" lon="2.48631">
        <ele>36.4</ele>
        <time>2022-10-19T12:24:43Z</time>
      </trkpt>
      <trkpt lat="49.89547" lon="2.48631">
        <ele>36.5</ele>
        <time>2022-10-19T12:24:44Z</time>
      </trkpt>
      <trkpt lat="49.89546" lon="2.4863">
        <ele>36.5</ele>
        <time>2022-10-19T12:24:46Z</time>
      </trkpt>
      <trkpt lat="49.89545" lon="2.4863">
        <ele>36.5</ele>
        <time>2022-10-19T12:24:47Z</time>
      </trkpt>
      <trkpt lat="49.89544" lon="2.48629">
        <ele>36.5</ele>
        <time>2022-10-19T12:24:48Z</time>
      </trkpt>
      <trkpt lat="49.89542" lon="2.48629">
        <ele>36.5</ele>
        <time>2022-10-19T12:24:49Z</time>
      </trkpt>
      <trkpt lat="49.89541" lon="2.48629">
        <ele>36.5</ele>
        <time>2022-10-19T12:24:50Z</time>
      </trkpt>
      <trkpt lat="49.8954" lon="2.48629">
        <ele>36.5</ele>
        <time>2022-10-19T12:24:51Z</time>
      </trkpt>
      <trkpt lat="49.89539" lon="2.48629">
        <ele>36.6</ele>
        <time>2022-10-19T12:24:52Z</time>
      </trkpt>
      <trkpt lat="49.89538" lon="2.4863">
        <ele>36.6</ele>
        <time>2022-10-19T12:24:53Z</time>
      </trkpt>
      <trkpt lat="49.89536" lon="2.4863">
        <ele>36.6</ele>
        <time>2022-10-19T12:24:55Z</time>
      </trkpt>
      <trkpt lat="49.89535" lon="2.4863">
        <ele>36.6</ele>
        <time>2022-10-19T12:24:56Z</time>
      </trkpt>
      <trkpt lat="49.89534" lon="2.48631">
        <ele>36.6</ele>
        <time>2022-10-19T12:24:57Z</time>
      </trkpt>
      <trkpt lat="49.89533" lon="2.48632">
        <ele>36.6</ele>
        <time>2022-10-19T12:24:58Z</time>
      </trkpt>
      <trkpt lat="49.89532" lon="2.48632">
        <ele>36.6</ele>
        <time>2022-10-19T12:24:59Z</time>
      </trkpt>
      <trkpt lat="49.89531" lon="2.48633">
        <ele>36.6</ele>
        <time>2022-10-19T12:25:00Z</time>
      </trkpt>
      <trkpt lat="49.89531" lon="2.48633">
        <ele>36.6</ele>
        <time>2022-10-19T12:25:01Z</time>
      </trkpt>
      <trkpt lat="49.8953" lon="2.48633">
        <ele>36.6</ele>
        <time>2022-10-19T12:25:02Z</time>
      </trkpt>
      <trkpt lat="49.89529" lon="2.48634">
        <ele>36.6</ele>
        <time>2022-10-19T12:25:03Z</time>
      </trkpt>
      <trkpt lat="49.89527" lon="2.48634">
        <ele>36.7</ele>
        <time>2022-10-19T12:25:04Z</time>
      </trkpt>
      <trkpt lat="49.89526" lon="2.48634">
        <ele>36.7</ele>
        <time>2022-10-19T12:25:06Z</time>
      </trkpt>
      <trkpt lat="49.89525" lon="2.48635">
        <ele>36.7</ele>
        <time>2022-10-19T12:25:07Z</time>
      </trkpt>
      <trkpt lat="49.89522" lon="2.48635">
        <ele>36.7</ele>
        <time>2022-10-19T12:25:08Z</time>
      </trkpt>
      <trkpt lat="49.89521" lon="2.48635">
        <ele>36.7</ele>
        <time>2022-10-19T12:25:09Z</time>
      </trkpt>
      <trkpt lat="49.8952" lon="2.48634">
        <ele>36.7</ele>
        <time>2022-10-19T12:25:10Z</time>
      </trkpt>
      <trkpt lat="49.89519" lon="2.48634">
        <ele>36.7</ele>
        <time>2022-10-19T12:25:11Z</time>
      </trkpt>
      <trkpt lat="49.89518" lon="2.48634">
        <ele>36.7</ele>
        <time>2022-10-19T12:25:12Z</time>
      </trkpt>
      <trkpt lat="49.89517" lon="2.48635">
        <ele>36.7</ele>
        <time>2022-10-19T12:25:13Z</time>
      </trkpt>
      <trkpt lat="49.89515" lon="2.48635">
        <ele>36.7</ele>
        <time>2022-10-19T12:25:14Z</time>
      </trkpt>
      <trkpt lat="49.89514" lon="2.48635">
        <ele>36.7</ele>
        <time>2022-10-19T12:25:15Z</time>
      </trkpt>
      <trkpt lat="49.89513" lon="2.48636">
        <ele>36.7</ele>
        <time>2022-10-19T12:25:17Z</time>
      </trkpt>
      <trkpt lat="49.89512" lon="2.48636">
        <ele>36.6</ele>
        <time>2022-10-19T12:25:18Z</time>
      </trkpt>
      <trkpt lat="49.89511" lon="2.48636">
        <ele>36.6</ele>
        <time>2022-10-19T12:25:19Z</time>
      </trkpt>
      <trkpt lat="49.8951" lon="2.48637">
        <ele>36.6</ele>
        <time>2022-10-19T12:25:20Z</time>
      </trkpt>
      <trkpt lat="49.89509" lon="2.48637">
        <ele>36.6</ele>
        <time>2022-10-19T12:25:21Z</time>
      </trkpt>
      <trkpt lat="49.89508" lon="2.48638">
        <ele>36.6</ele>
        <time>2022-10-19T12:25:22Z</time>
      </trkpt>
      <trkpt lat="49.89507" lon="2.48638">
        <ele>36.6</ele>
        <time>2022-10-19T12:25:23Z</time>
      </trkpt>
      <trkpt lat="49.89506" lon="2.48638">
        <ele>36.6</ele>
        <time>2022-10-19T12:25:24Z</time>
      </trkpt>
      <trkpt lat="49.89505" lon="2.48639">
        <ele>36.6</ele>
        <time>2022-10-19T12:25:25Z</time>
      </trkpt>
      <trkpt lat="49.89504" lon="2.48639">
        <ele>36.6</ele>
        <time>2022-10-19T12:25:26Z</time>
      </trkpt>
      <trkpt lat="49.89502" lon="2.48639">
        <ele>36.6</ele>
        <time>2022-10-19T12:25:28Z</time>
      </trkpt>
      <trkpt lat="49.89501" lon="2.4864">
        <ele>36.5</ele>
        <time>2022-10-19T12:25:29Z</time>
      </trkpt>
      <trkpt lat="49.89499" lon="2.4864">
        <ele>36.5</ele>
        <time>2022-10-19T12:25:30Z</time>
      </trkpt>
      <trkpt lat="49.89498" lon="2.48641">
        <ele>36.5</ele>
        <time>2022-10-19T12:25:31Z</time>
      </trkpt>
      <trkpt lat="49.89497" lon="2.48641">
        <ele>36.5</ele>
        <time>2022-10-19T12:25:32Z</time>
      </trkpt>
      <trkpt lat="49.89496" lon="2.48642">
        <ele>36.5</ele>
        <time>2022-10-19T12:25:33Z</time>
      </trkpt>
      <trkpt lat="49.89494" lon="2.48642">
        <ele>36.5</ele>
        <time>2022-10-19T12:25:34Z</time>
      </trkpt>
      <trkpt lat="49.89492" lon="2.48643">
        <ele>36.4</ele>
        <time>2022-10-19T12:25:36Z</time>
      </trkpt>
      <trkpt lat="49.89491" lon="2.48643">
        <ele>36.4</ele>
        <time>2022-10-19T12:25:37Z</time>
      </trkpt>
      <trkpt lat="49.8949" lon="2.48644">
        <ele>36.4</ele>
        <time>2022-10-19T12:25:38Z</time>
      </trkpt>
      <trkpt lat="49.89489" lon="2.48645">
        <ele>36.4</ele>
        <time>2022-10-19T12:25:39Z</time>
      </trkpt>
      <trkpt lat="49.89487" lon="2.48646">
        <ele>36.4</ele>
        <time>2022-10-19T12:25:40Z</time>
      </trkpt>
      <trkpt lat="49.89486" lon="2.48646">
        <ele>36.4</ele>
        <time>2022-10-19T12:25:41Z</time>
      </trkpt>
      <trkpt lat="49.89485" lon="2.48647">
        <ele>36.3</ele>
        <time>2022-10-19T12:25:42Z</time>
      </trkpt>
      <trkpt lat="49.89484" lon="2.48647">
        <ele>36.3</ele>
        <time>2022-10-19T12:25:44Z</time>
      </trkpt>
      <trkpt lat="49.89482" lon="2.48648">
        <ele>36.3</ele>
        <time>2022-10-19T12:25:45Z</time>
      </trkpt>
      <trkpt lat="49.89481" lon="2.48648">
        <ele>36.3</ele>
        <time>2022-10-19T12:25:46Z</time>
      </trkpt>
      <trkpt lat="49.89479" lon="2.48648">
        <ele>36.2</ele>
        <time>2022-10-19T12:25:47Z</time>
      </trkpt>
      <trkpt lat="49.89478" lon="2.48648">
        <ele>36.2</ele>
        <time>2022-10-19T12:25:48Z</time>
      </trkpt>
      <trkpt lat="49.89477" lon="2.48649">
        <ele>36.2</ele>
        <time>2022-10-19T12:25:49Z</time>
      </trkpt>
      <trkpt lat="49.89474" lon="2.4865">
        <ele>36.1</ele>
        <time>2022-10-19T12:25:50Z</time>
      </trkpt>
      <trkpt lat="49.89474" lon="2.4865">
        <ele>36.1</ele>
        <time>2022-10-19T12:25:51Z</time>
      </trkpt>
      <trkpt lat="49.89473" lon="2.4865">
        <ele>36.1</ele>
        <time>2022-10-19T12:25:52Z</time>
      </trkpt>
      <trkpt lat="49.89471" lon="2.48651">
        <ele>36.1</ele>
        <time>2022-10-19T12:25:53Z</time>
      </trkpt>
      <trkpt lat="49.8947" lon="2.48651">
        <ele>36.1</ele>
        <time>2022-10-19T12:25:54Z</time>
      </trkpt>
      <trkpt lat="49.89469" lon="2.48651">
        <ele>36.1</ele>
        <time>2022-10-19T12:25:55Z</time>
      </trkpt>
      <trkpt lat="49.89467" lon="2.48651">
        <ele>36</ele>
        <time>2022-10-19T12:25:57Z</time>
      </trkpt>
      <trkpt lat="49.89467" lon="2.48651">
        <ele>36</ele>
        <time>2022-10-19T12:25:58Z</time>
      </trkpt>
      <trkpt lat="49.89466" lon="2.48651">
        <ele>36</ele>
        <time>2022-10-19T12:25:59Z</time>
      </trkpt>
      <trkpt lat="49.89465" lon="2.48651">
        <ele>36</ele>
        <time>2022-10-19T12:26:00Z</time>
      </trkpt>
      <trkpt lat="49.89463" lon="2.48651">
        <ele>35.9</ele>
        <time>2022-10-19T12:26:01Z</time>
      </trkpt>
      <trkpt lat="49.89462" lon="2.48651">
        <ele>35.9</ele>
        <time>2022-10-19T12:26:02Z</time>
      </trkpt>
      <trkpt lat="49.89461" lon="2.48652">
        <ele>35.9</ele>
        <time>2022-10-19T12:26:03Z</time>
      </trkpt>
      <trkpt lat="49.8946" lon="2.48652">
        <ele>35.9</ele>
        <time>2022-10-19T12:26:04Z</time>
      </trkpt>
      <trkpt lat="49.89459" lon="2.48652">
        <ele>35.9</ele>
        <time>2022-10-19T12:26:05Z</time>
      </trkpt>
      <trkpt lat="49.89458" lon="2.48652">
        <ele>35.9</ele>
        <time>2022-10-19T12:26:06Z</time>
      </trkpt>
      <trkpt lat="49.89457" lon="2.48652">
        <ele>35.8</ele>
        <time>2022-10-19T12:26:07Z</time>
      </trkpt>
      <trkpt lat="49.89455" lon="2.48652">
        <ele>35.8</ele>
        <time>2022-10-19T12:26:08Z</time>
      </trkpt>
      <trkpt lat="49.89454" lon="2.48652">
        <ele>35.8</ele>
        <time>2022-10-19T12:26:10Z</time>
      </trkpt>
      <trkpt lat="49.89452" lon="2.48652">
        <ele>35.8</ele>
        <time>2022-10-19T12:26:11Z</time>
      </trkpt>
      <trkpt lat="49.8945" lon="2.48651">
        <ele>35.7</ele>
        <time>2022-10-19T12:26:12Z</time>
      </trkpt>
      <trkpt lat="49.8945" lon="2.48651">
        <ele>35.7</ele>
        <time>2022-10-19T12:26:13Z</time>
      </trkpt>
      <trkpt lat="49.89449" lon="2.48651">
        <ele>35.7</ele>
        <time>2022-10-19T12:26:14Z</time>
      </trkpt>
      <trkpt lat="49.89447" lon="2.4865">
        <ele>35.7</ele>
        <time>2022-10-19T12:26:15Z</time>
      </trkpt>
      <trkpt lat="49.89447" lon="2.4865">
        <ele>35.7</ele>
        <time>2022-10-19T12:26:16Z</time>
      </trkpt>
      <trkpt lat="49.89446" lon="2.4865">
        <ele>35.7</ele>
        <time>2022-10-19T12:26:17Z</time>
      </trkpt>
      <trkpt lat="49.89445" lon="2.4865">
        <ele>35.7</ele>
        <time>2022-10-19T12:26:18Z</time>
      </trkpt>
      <trkpt lat="49.89444" lon="2.4865">
        <ele>35.6</ele>
        <time>2022-10-19T12:26:20Z</time>
      </trkpt>
      <trkpt lat="49.89443" lon="2.4865">
        <ele>35.6</ele>
        <time>2022-10-19T12:26:21Z</time>
      </trkpt>
      <trkpt lat="49.89442" lon="2.4865">
        <ele>35.6</ele>
        <time>2022-10-19T12:26:22Z</time>
      </trkpt>
      <trkpt lat="49.89441" lon="2.4865">
        <ele>35.6</ele>
        <time>2022-10-19T12:26:23Z</time>
      </trkpt>
      <trkpt lat="49.8944" lon="2.4865">
        <ele>35.6</ele>
        <time>2022-10-19T12:26:24Z</time>
      </trkpt>
      <trkpt lat="49.89438" lon="2.4865">
        <ele>35.5</ele>
        <time>2022-10-19T12:26:25Z</time>
      </trkpt>
      <trkpt lat="49.89437" lon="2.4865">
        <ele>35.5</ele>
        <time>2022-10-19T12:26:27Z</time>
      </trkpt>
      <trkpt lat="49.89436" lon="2.4865">
        <ele>35.5</ele>
        <time>2022-10-19T12:26:28Z</time>
      </trkpt>
      <trkpt lat="49.89436" lon="2.48651">
        <ele>35.5</ele>
        <time>2022-10-19T12:26:29Z</time>
      </trkpt>
      <trkpt lat="49.89434" lon="2.48651">
        <ele>35.5</ele>
        <time>2022-10-19T12:26:30Z</time>
      </trkpt>
      <trkpt lat="49.89433" lon="2.48651">
        <ele>35.5</ele>
        <time>2022-10-19T12:26:31Z</time>
      </trkpt>
      <trkpt lat="49.89432" lon="2.48651">
        <ele>35.4</ele>
        <time>2022-10-19T12:26:32Z</time>
      </trkpt>
      <trkpt lat="49.89431" lon="2.48652">
        <ele>35.4</ele>
        <time>2022-10-19T12:26:33Z</time>
      </trkpt>
      <trkpt lat="49.89431" lon="2.48652">
        <ele>35.4</ele>
        <time>2022-10-19T12:26:34Z</time>
      </trkpt>
      <trkpt lat="49.89429" lon="2.48652">
        <ele>35.4</ele>
        <time>2022-10-19T12:26:35Z</time>
      </trkpt>
      <trkpt lat="49.89429" lon="2.48653">
        <ele>35.4</ele>
        <time>2022-10-19T12:26:37Z</time>
      </trkpt>
      <trkpt lat="49.89428" lon="2.48653">
        <ele>35.4</ele>
        <time>2022-10-19T12:26:38Z</time>
      </trkpt>
      <trkpt lat="49.89427" lon="2.48654">
        <ele>35.3</ele>
        <time>2022-10-19T12:26:39Z</time>
      </trkpt>
      <trkpt lat="49.89426" lon="2.48654">
        <ele>35.3</ele>
        <time>2022-10-19T12:26:40Z</time>
      </trkpt>
      <trkpt lat="49.89425" lon="2.48655">
        <ele>35.3</ele>
        <time>2022-10-19T12:26:41Z</time>
      </trkpt>
      <trkpt lat="49.89424" lon="2.48655">
        <ele>35.3</ele>
        <time>2022-10-19T12:26:42Z</time>
      </trkpt>
      <trkpt lat="49.89423" lon="2.48655">
        <ele>35.3</ele>
        <time>2022-10-19T12:26:43Z</time>
      </trkpt>
      <trkpt lat="49.89422" lon="2.48655">
        <ele>35.3</ele>
        <time>2022-10-19T12:26:44Z</time>
      </trkpt>
      <trkpt lat="49.89421" lon="2.48656">
        <ele>35.2</ele>
        <time>2022-10-19T12:26:45Z</time>
      </trkpt>
      <trkpt lat="49.8942" lon="2.48656">
        <ele>35.2</ele>
        <time>2022-10-19T12:26:46Z</time>
      </trkpt>
      <trkpt lat="49.89419" lon="2.48657">
        <ele>35.2</ele>
        <time>2022-10-19T12:26:47Z</time>
      </trkpt>
      <trkpt lat="49.89418" lon="2.48658">
        <ele>35.2</ele>
        <time>2022-10-19T12:26:49Z</time>
      </trkpt>
      <trkpt lat="49.89416" lon="2.48658">
        <ele>35.2</ele>
        <time>2022-10-19T12:26:50Z</time>
      </trkpt>
      <trkpt lat="49.89415" lon="2.48659">
        <ele>35.1</ele>
        <time>2022-10-19T12:26:51Z</time>
      </trkpt>
      <trkpt lat="49.89413" lon="2.48659">
        <ele>35.1</ele>
        <time>2022-10-19T12:26:52Z</time>
      </trkpt>
      <trkpt lat="49.89412" lon="2.48659">
        <ele>35.1</ele>
        <time>2022-10-19T12:26:53Z</time>
      </trkpt>
      <trkpt lat="49.89411" lon="2.48659">
        <ele>35.1</ele>
        <time>2022-10-19T12:26:54Z</time>
      </trkpt>
      <trkpt lat="49.8941" lon="2.48659">
        <ele>35</ele>
        <time>2022-10-19T12:26:55Z</time>
      </trkpt>
      <trkpt lat="49.89408" lon="2.48659">
        <ele>35</ele>
        <time>2022-10-19T12:26:56Z</time>
      </trkpt>
      <trkpt lat="49.89407" lon="2.48658">
        <ele>35</ele>
        <time>2022-10-19T12:26:57Z</time>
      </trkpt>
      <trkpt lat="49.89406" lon="2.48658">
        <ele>35</ele>
        <time>2022-10-19T12:26:58Z</time>
      </trkpt>
      <trkpt lat="49.89405" lon="2.48658">
        <ele>34.9</ele>
        <time>2022-10-19T12:26:59Z</time>
      </trkpt>
      <trkpt lat="49.89403" lon="2.48658">
        <ele>34.9</ele>
        <time>2022-10-19T12:27:01Z</time>
      </trkpt>
      <trkpt lat="49.89402" lon="2.48658">
        <ele>34.9</ele>
        <time>2022-10-19T12:27:02Z</time>
      </trkpt>
      <trkpt lat="49.89399" lon="2.48659">
        <ele>34.9</ele>
        <time>2022-10-19T12:27:03Z</time>
      </trkpt>
      <trkpt lat="49.89399" lon="2.48659">
        <ele>34.8</ele>
        <time>2022-10-19T12:27:04Z</time>
      </trkpt>
      <trkpt lat="49.89398" lon="2.48659">
        <ele>34.8</ele>
        <time>2022-10-19T12:27:05Z</time>
      </trkpt>
      <trkpt lat="49.89396" lon="2.48659">
        <ele>34.8</ele>
        <time>2022-10-19T12:27:06Z</time>
      </trkpt>
      <trkpt lat="49.89395" lon="2.48659">
        <ele>34.8</ele>
        <time>2022-10-19T12:27:07Z</time>
      </trkpt>
      <trkpt lat="49.89393" lon="2.48659">
        <ele>34.7</ele>
        <time>2022-10-19T12:27:09Z</time>
      </trkpt>
      <trkpt lat="49.89392" lon="2.4866">
        <ele>34.7</ele>
        <time>2022-10-19T12:27:10Z</time>
      </trkpt>
      <trkpt lat="49.89391" lon="2.4866">
        <ele>34.7</ele>
        <time>2022-10-19T12:27:11Z</time>
      </trkpt>
      <trkpt lat="49.8939" lon="2.48659">
        <ele>34.7</ele>
        <time>2022-10-19T12:27:12Z</time>
      </trkpt>
      <trkpt lat="49.89389" lon="2.48659">
        <ele>34.7</ele>
        <time>2022-10-19T12:27:13Z</time>
      </trkpt>
      <trkpt lat="49.89388" lon="2.48659">
        <ele>34.7</ele>
        <time>2022-10-19T12:27:14Z</time>
      </trkpt>
      <trkpt lat="49.89386" lon="2.48659">
        <ele>34.6</ele>
        <time>2022-10-19T12:27:15Z</time>
      </trkpt>
      <trkpt lat="49.89384" lon="2.48659">
        <ele>34.6</ele>
        <time>2022-10-19T12:27:16Z</time>
      </trkpt>
      <trkpt lat="49.89383" lon="2.48659">
        <ele>34.6</ele>
        <time>2022-10-19T12:27:17Z</time>
      </trkpt>
      <trkpt lat="49.89382" lon="2.48659">
        <ele>34.6</ele>
        <time>2022-10-19T12:27:18Z</time>
      </trkpt>
      <trkpt lat="49.89381" lon="2.48659">
        <ele>34.6</ele>
        <time>2022-10-19T12:27:20Z</time>
      </trkpt>
      <trkpt lat="49.89379" lon="2.48659">
        <ele>34.5</ele>
        <time>2022-10-19T12:27:21Z</time>
      </trkpt>
      <trkpt lat="49.89378" lon="2.48659">
        <ele>34.5</ele>
        <time>2022-10-19T12:27:22Z</time>
      </trkpt>
      <trkpt lat="49.89377" lon="2.48659">
        <ele>34.5</ele>
        <time>2022-10-19T12:27:23Z</time>
      </trkpt>
      <trkpt lat="49.89376" lon="2.48659">
        <ele>34.5</ele>
        <time>2022-10-19T12:27:24Z</time>
      </trkpt>
      <trkpt lat="49.89375" lon="2.48659">
        <ele>34.5</ele>
        <time>2022-10-19T12:27:25Z</time>
      </trkpt>
      <trkpt lat="49.89374" lon="2.4866">
        <ele>34.5</ele>
        <time>2022-10-19T12:27:26Z</time>
      </trkpt>
      <trkpt lat="49.89372" lon="2.4866">
        <ele>34.4</ele>
        <time>2022-10-19T12:27:28Z</time>
      </trkpt>
      <trkpt lat="49.89371" lon="2.4866">
        <ele>34.4</ele>
        <time>2022-10-19T12:27:29Z</time>
      </trkpt>
      <trkpt lat="49.8937" lon="2.4866">
        <ele>34.4</ele>
        <time>2022-10-19T12:27:30Z</time>
      </trkpt>
      <trkpt lat="49.89368" lon="2.4866">
        <ele>34.4</ele>
        <time>2022-10-19T12:27:31Z</time>
      </trkpt>
      <trkpt lat="49.89367" lon="2.48661">
        <ele>34.4</ele>
        <time>2022-10-19T12:27:32Z</time>
      </trkpt>
      <trkpt lat="49.89365" lon="2.48661">
        <ele>34.4</ele>
        <time>2022-10-19T12:27:33Z</time>
      </trkpt>
      <trkpt lat="49.89364" lon="2.48661">
        <ele>34.3</ele>
        <time>2022-10-19T12:27:35Z</time>
      </trkpt>
      <trkpt lat="49.89363" lon="2.48661">
        <ele>34.3</ele>
        <time>2022-10-19T12:27:36Z</time>
      </trkpt>
      <trkpt lat="49.89362" lon="2.48661">
        <ele>34.3</ele>
        <time>2022-10-19T12:27:37Z</time>
      </trkpt>
      <trkpt lat="49.89361" lon="2.48661">
        <ele>34.3</ele>
        <time>2022-10-19T12:27:38Z</time>
      </trkpt>
      <trkpt lat="49.89361" lon="2.48661">
        <ele>34.3</ele>
        <time>2022-10-19T12:27:39Z</time>
      </trkpt>
      <trkpt lat="49.8936" lon="2.48661">
        <ele>34.3</ele>
        <time>2022-10-19T12:27:40Z</time>
      </trkpt>
      <trkpt lat="49.89358" lon="2.48661">
        <ele>34.3</ele>
        <time>2022-10-19T12:27:41Z</time>
      </trkpt>
      <trkpt lat="49.89357" lon="2.48661">
        <ele>34.3</ele>
        <time>2022-10-19T12:27:43Z</time>
      </trkpt>
      <trkpt lat="49.89356" lon="2.48661">
        <ele>34.3</ele>
        <time>2022-10-19T12:27:44Z</time>
      </trkpt>
      <trkpt lat="49.89354" lon="2.48661">
        <ele>34.2</ele>
        <time>2022-10-19T12:27:45Z</time>
      </trkpt>
      <trkpt lat="49.89352" lon="2.48662">
        <ele>34.2</ele>
        <time>2022-10-19T12:27:46Z</time>
      </trkpt>
      <trkpt lat="49.89351" lon="2.48662">
        <ele>34.2</ele>
        <time>2022-10-19T12:27:47Z</time>
      </trkpt>
      <trkpt lat="49.8935" lon="2.48662">
        <ele>34.2</ele>
        <time>2022-10-19T12:27:48Z</time>
      </trkpt>
      <trkpt lat="49.89349" lon="2.48661">
        <ele>34.2</ele>
        <time>2022-10-19T12:27:49Z</time>
      </trkpt>
      <trkpt lat="49.89348" lon="2.48661">
        <ele>34.2</ele>
        <time>2022-10-19T12:27:50Z</time>
      </trkpt>
      <trkpt lat="49.89346" lon="2.48661">
        <ele>34.2</ele>
        <time>2022-10-19T12:27:51Z</time>
      </trkpt>
      <trkpt lat="49.89346" lon="2.48661">
        <ele>34.2</ele>
        <time>2022-10-19T12:27:52Z</time>
      </trkpt>
      <trkpt lat="49.89344" lon="2.48662">
        <ele>34.2</ele>
        <time>2022-10-19T12:27:53Z</time>
      </trkpt>
      <trkpt lat="49.89343" lon="2.48662">
        <ele>34.1</ele>
        <time>2022-10-19T12:27:54Z</time>
      </trkpt>
      <trkpt lat="49.89341" lon="2.48663">
        <ele>34.1</ele>
        <time>2022-10-19T12:27:56Z</time>
      </trkpt>
      <trkpt lat="49.8934" lon="2.48663">
        <ele>34.1</ele>
        <time>2022-10-19T12:27:57Z</time>
      </trkpt>
      <trkpt lat="49.89339" lon="2.48663">
        <ele>34.1</ele>
        <time>2022-10-19T12:27:58Z</time>
      </trkpt>
      <trkpt lat="49.89338" lon="2.48663">
        <ele>34.1</ele>
        <time>2022-10-19T12:27:59Z</time>
      </trkpt>
      <trkpt lat="49.89337" lon="2.48664">
        <ele>34.1</ele>
        <time>2022-10-19T12:28:00Z</time>
      </trkpt>
      <trkpt lat="49.89335" lon="2.48664">
        <ele>34.1</ele>
        <time>2022-10-19T12:28:01Z</time>
      </trkpt>
      <trkpt lat="49.89334" lon="2.48664">
        <ele>34.1</ele>
        <time>2022-10-19T12:28:02Z</time>
      </trkpt>
      <trkpt lat="49.89334" lon="2.48664">
        <ele>34.1</ele>
        <time>2022-10-19T12:28:03Z</time>
      </trkpt>
      <trkpt lat="49.89333" lon="2.48665">
        <ele>34.1</ele>
        <time>2022-10-19T12:28:04Z</time>
      </trkpt>
      <trkpt lat="49.89332" lon="2.48665">
        <ele>34.1</ele>
        <time>2022-10-19T12:28:05Z</time>
      </trkpt>
      <trkpt lat="49.8933" lon="2.48665">
        <ele>34.1</ele>
        <time>2022-10-19T12:28:06Z</time>
      </trkpt>
      <trkpt lat="49.89329" lon="2.48665">
        <ele>34.1</ele>
        <time>2022-10-19T12:28:07Z</time>
      </trkpt>
      <trkpt lat="49.89328" lon="2.48665">
        <ele>34</ele>
        <time>2022-10-19T12:28:09Z</time>
      </trkpt>
      <trkpt lat="49.89327" lon="2.48665">
        <ele>34</ele>
        <time>2022-10-19T12:28:10Z</time>
      </trkpt>
      <trkpt lat="49.89325" lon="2.48665">
        <ele>34</ele>
        <time>2022-10-19T12:28:11Z</time>
      </trkpt>
      <trkpt lat="49.89324" lon="2.48665">
        <ele>34</ele>
        <time>2022-10-19T12:28:12Z</time>
      </trkpt>
      <trkpt lat="49.89323" lon="2.48666">
        <ele>34</ele>
        <time>2022-10-19T12:28:13Z</time>
      </trkpt>
      <trkpt lat="49.89322" lon="2.48666">
        <ele>34</ele>
        <time>2022-10-19T12:28:14Z</time>
      </trkpt>
      <trkpt lat="49.89321" lon="2.48666">
        <ele>34</ele>
        <time>2022-10-19T12:28:15Z</time>
      </trkpt>
      <trkpt lat="49.89319" lon="2.48667">
        <ele>34</ele>
        <time>2022-10-19T12:28:16Z</time>
      </trkpt>
      <trkpt lat="49.89319" lon="2.48667">
        <ele>34</ele>
        <time>2022-10-19T12:28:17Z</time>
      </trkpt>
      <trkpt lat="49.89317" lon="2.48667">
        <ele>34</ele>
        <time>2022-10-19T12:28:18Z</time>
      </trkpt>
      <trkpt lat="49.89316" lon="2.48667">
        <ele>34</ele>
        <time>2022-10-19T12:28:20Z</time>
      </trkpt>
      <trkpt lat="49.89315" lon="2.48667">
        <ele>34</ele>
        <time>2022-10-19T12:28:21Z</time>
      </trkpt>
      <trkpt lat="49.89314" lon="2.48667">
        <ele>34</ele>
        <time>2022-10-19T12:28:22Z</time>
      </trkpt>
      <trkpt lat="49.89313" lon="2.48668">
        <ele>34</ele>
        <time>2022-10-19T12:28:23Z</time>
      </trkpt>
      <trkpt lat="49.89312" lon="2.48668">
        <ele>34</ele>
        <time>2022-10-19T12:28:24Z</time>
      </trkpt>
      <trkpt lat="49.8931" lon="2.48668">
        <ele>34</ele>
        <time>2022-10-19T12:28:25Z</time>
      </trkpt>
      <trkpt lat="49.89309" lon="2.48667">
        <ele>34</ele>
        <time>2022-10-19T12:28:26Z</time>
      </trkpt>
      <trkpt lat="49.89308" lon="2.48667">
        <ele>34</ele>
        <time>2022-10-19T12:28:27Z</time>
      </trkpt>
      <trkpt lat="49.89307" lon="2.48667">
        <ele>34</ele>
        <time>2022-10-19T12:28:29Z</time>
      </trkpt>
      <trkpt lat="49.89306" lon="2.48666">
        <ele>34</ele>
        <time>2022-10-19T12:28:30Z</time>
      </trkpt>
      <trkpt lat="49.89304" lon="2.48666">
        <ele>34</ele>
        <time>2022-10-19T12:28:31Z</time>
      </trkpt>
      <trkpt lat="49.89304" lon="2.48665">
        <ele>34</ele>
        <time>2022-10-19T12:28:33Z</time>
      </trkpt>
      <trkpt lat="49.89302" lon="2.48665">
        <ele>34</ele>
        <time>2022-10-19T12:28:34Z</time>
      </trkpt>
      <trkpt lat="49.89302" lon="2.48665">
        <ele>34</ele>
        <time>2022-10-19T12:28:36Z</time>
      </trkpt>
      <trkpt lat="49.893" lon="2.48665">
        <ele>34</ele>
        <time>2022-10-19T12:28:37Z</time>
      </trkpt>
      <trkpt lat="49.893" lon="2.48665">
        <ele>34</ele>
        <time>2022-10-19T12:28:38Z</time>
      </trkpt>
      <trkpt lat="49.89299" lon="2.48665">
        <ele>34</ele>
        <time>2022-10-19T12:28:39Z</time>
      </trkpt>
      <trkpt lat="49.89298" lon="2.48665">
        <ele>34</ele>
        <time>2022-10-19T12:28:40Z</time>
      </trkpt>
      <trkpt lat="49.89298" lon="2.48664">
        <ele>34</ele>
        <time>2022-10-19T12:28:41Z</time>
      </trkpt>
      <trkpt lat="49.89298" lon="2.48664">
        <ele>34</ele>
        <time>2022-10-19T12:28:42Z</time>
      </trkpt>
      <trkpt lat="49.89298" lon="2.48664">
        <ele>34</ele>
        <time>2022-10-19T12:28:43Z</time>
      </trkpt>
      <trkpt lat="49.89298" lon="2.48664">
        <ele>34</ele>
        <time>2022-10-19T12:28:44Z</time>
      </trkpt>
      <trkpt lat="49.89299" lon="2.48664">
        <ele>34</ele>
        <time>2022-10-19T12:28:46Z</time>
      </trkpt>
      <trkpt lat="49.89299" lon="2.48664">
        <ele>34</ele>
        <time>2022-10-19T12:28:47Z</time>
      </trkpt>
      <trkpt lat="49.89299" lon="2.48664">
        <ele>34</ele>
        <time>2022-10-19T12:28:48Z</time>
      </trkpt>
      <trkpt lat="49.89298" lon="2.48664">
        <ele>34</ele>
        <time>2022-10-19T12:28:49Z</time>
      </trkpt>
      <trkpt lat="49.89297" lon="2.48663">
        <ele>34</ele>
        <time>2022-10-19T12:28:51Z</time>
      </trkpt>
      <trkpt lat="49.89296" lon="2.48663">
        <ele>34</ele>
        <time>2022-10-19T12:28:52Z</time>
      </trkpt>
      <trkpt lat="49.89295" lon="2.48663">
        <ele>34</ele>
        <time>2022-10-19T12:28:53Z</time>
      </trkpt>
      <trkpt lat="49.89294" lon="2.48662">
        <ele>34</ele>
        <time>2022-10-19T12:28:55Z</time>
      </trkpt>
      <trkpt lat="49.89293" lon="2.48662">
        <ele>34</ele>
        <time>2022-10-19T12:28:56Z</time>
      </trkpt>
      <trkpt lat="49.89292" lon="2.48661">
        <ele>34</ele>
        <time>2022-10-19T12:28:57Z</time>
      </trkpt>
      <trkpt lat="49.89292" lon="2.48661">
        <ele>34</ele>
        <time>2022-10-19T12:28:58Z</time>
      </trkpt>
      <trkpt lat="49.89291" lon="2.48661">
        <ele>34</ele>
        <time>2022-10-19T12:28:59Z</time>
      </trkpt>
      <trkpt lat="49.8929" lon="2.4866">
        <ele>34</ele>
        <time>2022-10-19T12:29:00Z</time>
      </trkpt>
      <trkpt lat="49.89288" lon="2.48659">
        <ele>34</ele>
        <time>2022-10-19T12:29:02Z</time>
      </trkpt>
      <trkpt lat="49.89288" lon="2.48659">
        <ele>34</ele>
        <time>2022-10-19T12:29:03Z</time>
      </trkpt>
      <trkpt lat="49.89287" lon="2.48658">
        <ele>34</ele>
        <time>2022-10-19T12:29:04Z</time>
      </trkpt>
      <trkpt lat="49.89286" lon="2.48656">
        <ele>34</ele>
        <time>2022-10-19T12:29:06Z</time>
      </trkpt>
      <trkpt lat="49.89285" lon="2.48654">
        <ele>34</ele>
        <time>2022-10-19T12:29:07Z</time>
      </trkpt>
      <trkpt lat="49.89285" lon="2.48653">
        <ele>34</ele>
        <time>2022-10-19T12:29:08Z</time>
      </trkpt>
      <trkpt lat="49.89285" lon="2.48651">
        <ele>34</ele>
        <time>2022-10-19T12:29:10Z</time>
      </trkpt>
      <trkpt lat="49.89285" lon="2.48647">
        <ele>33.9</ele>
        <time>2022-10-19T12:29:12Z</time>
      </trkpt>
      <trkpt lat="49.89285" lon="2.48644">
        <ele>33.9</ele>
        <time>2022-10-19T12:29:14Z</time>
      </trkpt>
      <trkpt lat="49.89285" lon="2.48643">
        <ele>33.9</ele>
        <time>2022-10-19T12:29:15Z</time>
      </trkpt>
      <trkpt lat="49.89284" lon="2.48643">
        <ele>33.9</ele>
        <time>2022-10-19T12:29:16Z</time>
      </trkpt>
      <trkpt lat="49.89284" lon="2.48643">
        <ele>33.9</ele>
        <time>2022-10-19T12:29:17Z</time>
      </trkpt>
      <trkpt lat="49.89284" lon="2.48642">
        <ele>33.9</ele>
        <time>2022-10-19T12:29:18Z</time>
      </trkpt>
      <trkpt lat="49.89285" lon="2.48642">
        <ele>33.9</ele>
        <time>2022-10-19T12:29:19Z</time>
      </trkpt>
      <trkpt lat="49.89285" lon="2.48642">
        <ele>33.9</ele>
        <time>2022-10-19T12:29:20Z</time>
      </trkpt>
      <trkpt lat="49.89285" lon="2.48643">
        <ele>33.9</ele>
        <time>2022-10-19T12:29:21Z</time>
      </trkpt>
      <trkpt lat="49.89285" lon="2.48643">
        <ele>33.9</ele>
        <time>2022-10-19T12:29:22Z</time>
      </trkpt>
      <trkpt lat="49.89285" lon="2.48643">
        <ele>33.9</ele>
        <time>2022-10-19T12:29:23Z</time>
      </trkpt>
      <trkpt lat="49.89285" lon="2.48642">
        <ele>33.9</ele>
        <time>2022-10-19T12:29:24Z</time>
      </trkpt>
      <trkpt lat="49.89285" lon="2.48643">
        <ele>33.9</ele>
        <time>2022-10-19T12:29:25Z</time>
      </trkpt>
      <trkpt lat="49.89285" lon="2.48643">
        <ele>33.9</ele>
        <time>2022-10-19T12:29:26Z</time>
      </trkpt>
      <trkpt lat="49.89284" lon="2.48642">
        <ele>33.9</ele>
        <time>2022-10-19T12:29:27Z</time>
      </trkpt>
      <trkpt lat="49.89284" lon="2.48642">
        <ele>33.9</ele>
        <time>2022-10-19T12:29:28Z</time>
      </trkpt>
      <trkpt lat="49.89284" lon="2.48642">
        <ele>33.9</ele>
        <time>2022-10-19T12:29:29Z</time>
      </trkpt>
      <trkpt lat="49.89284" lon="2.48642">
        <ele>33.9</ele>
        <time>2022-10-19T12:29:30Z</time>
      </trkpt>
      <trkpt lat="49.89284" lon="2.48643">
        <ele>33.9</ele>
        <time>2022-10-19T12:29:31Z</time>
      </trkpt>
      <trkpt lat="49.89285" lon="2.48644">
        <ele>33.9</ele>
        <time>2022-10-19T12:29:32Z</time>
      </trkpt>
      <trkpt lat="49.89285" lon="2.48644">
        <ele>33.9</ele>
        <time>2022-10-19T12:29:33Z</time>
      </trkpt>
      <trkpt lat="49.89285" lon="2.48644">
        <ele>33.9</ele>
        <time>2022-10-19T12:29:34Z</time>
      </trkpt>
      <trkpt lat="49.89285" lon="2.48644">
        <ele>33.9</ele>
        <time>2022-10-19T12:29:35Z</time>
      </trkpt>
      <trkpt lat="49.89285" lon="2.48645">
        <ele>33.9</ele>
        <time>2022-10-19T12:29:36Z</time>
      </trkpt>
      <trkpt lat="49.89284" lon="2.48646">
        <ele>33.9</ele>
        <time>2022-10-19T12:29:37Z</time>
      </trkpt>
      <trkpt lat="49.89283" lon="2.48645">
        <ele>33.9</ele>
        <time>2022-10-19T12:29:38Z</time>
      </trkpt>
      <trkpt lat="49.89283" lon="2.48645">
        <ele>33.9</ele>
        <time>2022-10-19T12:29:39Z</time>
      </trkpt>
      <trkpt lat="49.89282" lon="2.48645">
        <ele>33.9</ele>
        <time>2022-10-19T12:29:40Z</time>
      </trkpt>
      <trkpt lat="49.89282" lon="2.48645">
        <ele>33.9</ele>
        <time>2022-10-19T12:29:41Z</time>
      </trkpt>
      <trkpt lat="49.89281" lon="2.48645">
        <ele>33.9</ele>
        <time>2022-10-19T12:29:42Z</time>
      </trkpt>
      <trkpt lat="49.89281" lon="2.48645">
        <ele>33.9</ele>
        <time>2022-10-19T12:29:43Z</time>
      </trkpt>
      <trkpt lat="49.8928" lon="2.48646">
        <ele>33.9</ele>
        <time>2022-10-19T12:29:44Z</time>
      </trkpt>
      <trkpt lat="49.8928" lon="2.48646">
        <ele>33.9</ele>
        <time>2022-10-19T12:29:45Z</time>
      </trkpt>
      <trkpt lat="49.89279" lon="2.48647">
        <ele>33.9</ele>
        <time>2022-10-19T12:29:46Z</time>
      </trkpt>
      <trkpt lat="49.89278" lon="2.48648">
        <ele>33.9</ele>
        <time>2022-10-19T12:29:48Z</time>
      </trkpt>
      <trkpt lat="49.89278" lon="2.48648">
        <ele>33.9</ele>
        <time>2022-10-19T12:29:49Z</time>
      </trkpt>
      <trkpt lat="49.89277" lon="2.48649">
        <ele>33.9</ele>
        <time>2022-10-19T12:29:50Z</time>
      </trkpt>
      <trkpt lat="49.89275" lon="2.48651">
        <ele>33.9</ele>
        <time>2022-10-19T12:29:52Z</time>
      </trkpt>
      <trkpt lat="49.89274" lon="2.48651">
        <ele>33.8</ele>
        <time>2022-10-19T12:29:53Z</time>
      </trkpt>
      <trkpt lat="49.89274" lon="2.48651">
        <ele>33.8</ele>
        <time>2022-10-19T12:29:54Z</time>
      </trkpt>
      <trkpt lat="49.89272" lon="2.48651">
        <ele>33.8</ele>
        <time>2022-10-19T12:29:55Z</time>
      </trkpt>
      <trkpt lat="49.89271" lon="2.4865">
        <ele>33.8</ele>
        <time>2022-10-19T12:29:56Z</time>
      </trkpt>
      <trkpt lat="49.89271" lon="2.4865">
        <ele>33.8</ele>
        <time>2022-10-19T12:29:57Z</time>
      </trkpt>
      <trkpt lat="49.8927" lon="2.48649">
        <ele>33.8</ele>
        <time>2022-10-19T12:29:59Z</time>
      </trkpt>
      <trkpt lat="49.89269" lon="2.48648">
        <ele>33.8</ele>
        <time>2022-10-19T12:30:00Z</time>
      </trkpt>
      <trkpt lat="49.89268" lon="2.48648">
        <ele>33.8</ele>
        <time>2022-10-19T12:30:01Z</time>
      </trkpt>
      <trkpt lat="49.89268" lon="2.48647">
        <ele>33.8</ele>
        <time>2022-10-19T12:30:02Z</time>
      </trkpt>
      <trkpt lat="49.89267" lon="2.48646">
        <ele>33.8</ele>
        <time>2022-10-19T12:30:03Z</time>
      </trkpt>
      <trkpt lat="49.89266" lon="2.48645">
        <ele>33.8</ele>
        <time>2022-10-19T12:30:04Z</time>
      </trkpt>
      <trkpt lat="49.89266" lon="2.48644">
        <ele>33.8</ele>
        <time>2022-10-19T12:30:05Z</time>
      </trkpt>
      <trkpt lat="49.89265" lon="2.48642">
        <ele>33.8</ele>
        <time>2022-10-19T12:30:06Z</time>
      </trkpt>
      <trkpt lat="49.89264" lon="2.48641">
        <ele>33.8</ele>
        <time>2022-10-19T12:30:07Z</time>
      </trkpt>
      <trkpt lat="49.89264" lon="2.4864">
        <ele>33.8</ele>
        <time>2022-10-19T12:30:08Z</time>
      </trkpt>
      <trkpt lat="49.89263" lon="2.48639">
        <ele>33.8</ele>
        <time>2022-10-19T12:30:09Z</time>
      </trkpt>
      <trkpt lat="49.89263" lon="2.48637">
        <ele>33.8</ele>
        <time>2022-10-19T12:30:10Z</time>
      </trkpt>
      <trkpt lat="49.89261" lon="2.48633">
        <ele>33.8</ele>
        <time>2022-10-19T12:30:12Z</time>
      </trkpt>
      <trkpt lat="49.89261" lon="2.48632">
        <ele>33.8</ele>
        <time>2022-10-19T12:30:13Z</time>
      </trkpt>
      <trkpt lat="49.8926" lon="2.48631">
        <ele>33.8</ele>
        <time>2022-10-19T12:30:14Z</time>
      </trkpt>
      <trkpt lat="49.89259" lon="2.48629">
        <ele>33.8</ele>
        <time>2022-10-19T12:30:16Z</time>
      </trkpt>
      <trkpt lat="49.89259" lon="2.48626">
        <ele>33.8</ele>
        <time>2022-10-19T12:30:17Z</time>
      </trkpt>
      <trkpt lat="49.89258" lon="2.48624">
        <ele>33.8</ele>
        <time>2022-10-19T12:30:18Z</time>
      </trkpt>
      <trkpt lat="49.89257" lon="2.48621">
        <ele>33.8</ele>
        <time>2022-10-19T12:30:19Z</time>
      </trkpt>
      <trkpt lat="49.89257" lon="2.4862">
        <ele>33.8</ele>
        <time>2022-10-19T12:30:20Z</time>
      </trkpt>
      <trkpt lat="49.89257" lon="2.48618">
        <ele>33.8</ele>
        <time>2022-10-19T12:30:21Z</time>
      </trkpt>
      <trkpt lat="49.89256" lon="2.48616">
        <ele>33.8</ele>
        <time>2022-10-19T12:30:22Z</time>
      </trkpt>
      <trkpt lat="49.89256" lon="2.48615">
        <ele>33.8</ele>
        <time>2022-10-19T12:30:23Z</time>
      </trkpt>
      <trkpt lat="49.89255" lon="2.48613">
        <ele>33.8</ele>
        <time>2022-10-19T12:30:24Z</time>
      </trkpt>
      <trkpt lat="49.89255" lon="2.48612">
        <ele>33.8</ele>
        <time>2022-10-19T12:30:26Z</time>
      </trkpt>
      <trkpt lat="49.89254" lon="2.48609">
        <ele>33.8</ele>
        <time>2022-10-19T12:30:27Z</time>
      </trkpt>
      <trkpt lat="49.89253" lon="2.48608">
        <ele>33.8</ele>
        <time>2022-10-19T12:30:28Z</time>
      </trkpt>
      <trkpt lat="49.89253" lon="2.48607">
        <ele>33.8</ele>
        <time>2022-10-19T12:30:29Z</time>
      </trkpt>
      <trkpt lat="49.89252" lon="2.48605">
        <ele>33.8</ele>
        <time>2022-10-19T12:30:30Z</time>
      </trkpt>
      <trkpt lat="49.89251" lon="2.48604">
        <ele>33.8</ele>
        <time>2022-10-19T12:30:31Z</time>
      </trkpt>
      <trkpt lat="49.89251" lon="2.48602">
        <ele>33.8</ele>
        <time>2022-10-19T12:30:32Z</time>
      </trkpt>
      <trkpt lat="49.8925" lon="2.48601">
        <ele>33.8</ele>
        <time>2022-10-19T12:30:33Z</time>
      </trkpt>
      <trkpt lat="49.89249" lon="2.48599">
        <ele>33.9</ele>
        <time>2022-10-19T12:30:35Z</time>
      </trkpt>
      <trkpt lat="49.89248" lon="2.48598">
        <ele>33.9</ele>
        <time>2022-10-19T12:30:36Z</time>
      </trkpt>
      <trkpt lat="49.89248" lon="2.48597">
        <ele>33.9</ele>
        <time>2022-10-19T12:30:37Z</time>
      </trkpt>
      <trkpt lat="49.89247" lon="2.48596">
        <ele>33.9</ele>
        <time>2022-10-19T12:30:38Z</time>
      </trkpt>
      <trkpt lat="49.89246" lon="2.48594">
        <ele>33.9</ele>
        <time>2022-10-19T12:30:39Z</time>
      </trkpt>
      <trkpt lat="49.89245" lon="2.48593">
        <ele>33.9</ele>
        <time>2022-10-19T12:30:40Z</time>
      </trkpt>
      <trkpt lat="49.89244" lon="2.48591">
        <ele>33.9</ele>
        <time>2022-10-19T12:30:41Z</time>
      </trkpt>
      <trkpt lat="49.89243" lon="2.4859">
        <ele>33.9</ele>
        <time>2022-10-19T12:30:42Z</time>
      </trkpt>
      <trkpt lat="49.89242" lon="2.48589">
        <ele>33.9</ele>
        <time>2022-10-19T12:30:44Z</time>
      </trkpt>
      <trkpt lat="49.89242" lon="2.48588">
        <ele>33.9</ele>
        <time>2022-10-19T12:30:45Z</time>
      </trkpt>
      <trkpt lat="49.89241" lon="2.48586">
        <ele>33.9</ele>
        <time>2022-10-19T12:30:46Z</time>
      </trkpt>
      <trkpt lat="49.8924" lon="2.48585">
        <ele>33.9</ele>
        <time>2022-10-19T12:30:47Z</time>
      </trkpt>
      <trkpt lat="49.8924" lon="2.48584">
        <ele>34</ele>
        <time>2022-10-19T12:30:48Z</time>
      </trkpt>
      <trkpt lat="49.89239" lon="2.48583">
        <ele>34</ele>
        <time>2022-10-19T12:30:49Z</time>
      </trkpt>
      <trkpt lat="49.89239" lon="2.48582">
        <ele>34</ele>
        <time>2022-10-19T12:30:50Z</time>
      </trkpt>
      <trkpt lat="49.89238" lon="2.4858">
        <ele>34</ele>
        <time>2022-10-19T12:30:52Z</time>
      </trkpt>
      <trkpt lat="49.89237" lon="2.48579">
        <ele>34</ele>
        <time>2022-10-19T12:30:53Z</time>
      </trkpt>
      <trkpt lat="49.89236" lon="2.48577">
        <ele>34</ele>
        <time>2022-10-19T12:30:54Z</time>
      </trkpt>
      <trkpt lat="49.89235" lon="2.48574">
        <ele>34</ele>
        <time>2022-10-19T12:30:55Z</time>
      </trkpt>
      <trkpt lat="49.89234" lon="2.48573">
        <ele>34</ele>
        <time>2022-10-19T12:30:56Z</time>
      </trkpt>
      <trkpt lat="49.89234" lon="2.48572">
        <ele>34.1</ele>
        <time>2022-10-19T12:30:57Z</time>
      </trkpt>
      <trkpt lat="49.89233" lon="2.48571">
        <ele>34.1</ele>
        <time>2022-10-19T12:30:58Z</time>
      </trkpt>
      <trkpt lat="49.89232" lon="2.48569">
        <ele>34.1</ele>
        <time>2022-10-19T12:30:59Z</time>
      </trkpt>
      <trkpt lat="49.89232" lon="2.48568">
        <ele>34.1</ele>
        <time>2022-10-19T12:31:00Z</time>
      </trkpt>
      <trkpt lat="49.89231" lon="2.48566">
        <ele>34.1</ele>
        <time>2022-10-19T12:31:01Z</time>
      </trkpt>
      <trkpt lat="49.8923" lon="2.48564">
        <ele>34.1</ele>
        <time>2022-10-19T12:31:03Z</time>
      </trkpt>
      <trkpt lat="49.89229" lon="2.48562">
        <ele>34.1</ele>
        <time>2022-10-19T12:31:04Z</time>
      </trkpt>
      <trkpt lat="49.89228" lon="2.4856">
        <ele>34.2</ele>
        <time>2022-10-19T12:31:05Z</time>
      </trkpt>
      <trkpt lat="49.89227" lon="2.48558">
        <ele>34.2</ele>
        <time>2022-10-19T12:31:07Z</time>
      </trkpt>
      <trkpt lat="49.89227" lon="2.48556">
        <ele>34.2</ele>
        <time>2022-10-19T12:31:08Z</time>
      </trkpt>
      <trkpt lat="49.89226" lon="2.48555">
        <ele>34.2</ele>
        <time>2022-10-19T12:31:09Z</time>
      </trkpt>
      <trkpt lat="49.89225" lon="2.48553">
        <ele>34.2</ele>
        <time>2022-10-19T12:31:10Z</time>
      </trkpt>
      <trkpt lat="49.89225" lon="2.48551">
        <ele>34.2</ele>
        <time>2022-10-19T12:31:11Z</time>
      </trkpt>
      <trkpt lat="49.89224" lon="2.48548">
        <ele>34.2</ele>
        <time>2022-10-19T12:31:12Z</time>
      </trkpt>
      <trkpt lat="49.89224" lon="2.48547">
        <ele>34.2</ele>
        <time>2022-10-19T12:31:13Z</time>
      </trkpt>
      <trkpt lat="49.89223" lon="2.48546">
        <ele>34.2</ele>
        <time>2022-10-19T12:31:14Z</time>
      </trkpt>
      <trkpt lat="49.89223" lon="2.48544">
        <ele>34.3</ele>
        <time>2022-10-19T12:31:16Z</time>
      </trkpt>
      <trkpt lat="49.89223" lon="2.48543">
        <ele>34.3</ele>
        <time>2022-10-19T12:31:17Z</time>
      </trkpt>
      <trkpt lat="49.89222" lon="2.48541">
        <ele>34.3</ele>
        <time>2022-10-19T12:31:18Z</time>
      </trkpt>
      <trkpt lat="49.89221" lon="2.48539">
        <ele>34.3</ele>
        <time>2022-10-19T12:31:19Z</time>
      </trkpt>
      <trkpt lat="49.89221" lon="2.48538">
        <ele>34.3</ele>
        <time>2022-10-19T12:31:20Z</time>
      </trkpt>
      <trkpt lat="49.8922" lon="2.48536">
        <ele>34.3</ele>
        <time>2022-10-19T12:31:21Z</time>
      </trkpt>
      <trkpt lat="49.89219" lon="2.48534">
        <ele>34.3</ele>
        <time>2022-10-19T12:31:22Z</time>
      </trkpt>
      <trkpt lat="49.89218" lon="2.48533">
        <ele>34.3</ele>
        <time>2022-10-19T12:31:23Z</time>
      </trkpt>
      <trkpt lat="49.89218" lon="2.48531">
        <ele>34.3</ele>
        <time>2022-10-19T12:31:24Z</time>
      </trkpt>
      <trkpt lat="49.89217" lon="2.48529">
        <ele>34.3</ele>
        <time>2022-10-19T12:31:25Z</time>
      </trkpt>
      <trkpt lat="49.89217" lon="2.48527">
        <ele>34.3</ele>
        <time>2022-10-19T12:31:27Z</time>
      </trkpt>
      <trkpt lat="49.89216" lon="2.48525">
        <ele>34.4</ele>
        <time>2022-10-19T12:31:28Z</time>
      </trkpt>
      <trkpt lat="49.89215" lon="2.48522">
        <ele>34.4</ele>
        <time>2022-10-19T12:31:29Z</time>
      </trkpt>
      <trkpt lat="49.89214" lon="2.48521">
        <ele>34.4</ele>
        <time>2022-10-19T12:31:30Z</time>
      </trkpt>
      <trkpt lat="49.89214" lon="2.4852">
        <ele>34.4</ele>
        <time>2022-10-19T12:31:31Z</time>
      </trkpt>
      <trkpt lat="49.89213" lon="2.48518">
        <ele>34.4</ele>
        <time>2022-10-19T12:31:32Z</time>
      </trkpt>
      <trkpt lat="49.89213" lon="2.48517">
        <ele>34.4</ele>
        <time>2022-10-19T12:31:33Z</time>
      </trkpt>
      <trkpt lat="49.89211" lon="2.48514">
        <ele>34.4</ele>
        <time>2022-10-19T12:31:34Z</time>
      </trkpt>
      <trkpt lat="49.89211" lon="2.48513">
        <ele>34.4</ele>
        <time>2022-10-19T12:31:36Z</time>
      </trkpt>
      <trkpt lat="49.8921" lon="2.48512">
        <ele>34.4</ele>
        <time>2022-10-19T12:31:37Z</time>
      </trkpt>
      <trkpt lat="49.8921" lon="2.4851">
        <ele>34.4</ele>
        <time>2022-10-19T12:31:38Z</time>
      </trkpt>
      <trkpt lat="49.89209" lon="2.48509">
        <ele>34.5</ele>
        <time>2022-10-19T12:31:39Z</time>
      </trkpt>
      <trkpt lat="49.89209" lon="2.48508">
        <ele>34.5</ele>
        <time>2022-10-19T12:31:40Z</time>
      </trkpt>
      <trkpt lat="49.89208" lon="2.48505">
        <ele>34.5</ele>
        <time>2022-10-19T12:31:41Z</time>
      </trkpt>
      <trkpt lat="49.89207" lon="2.48504">
        <ele>34.5</ele>
        <time>2022-10-19T12:31:42Z</time>
      </trkpt>
      <trkpt lat="49.89207" lon="2.48502">
        <ele>34.5</ele>
        <time>2022-10-19T12:31:43Z</time>
      </trkpt>
      <trkpt lat="49.89206" lon="2.48501">
        <ele>34.5</ele>
        <time>2022-10-19T12:31:44Z</time>
      </trkpt>
      <trkpt lat="49.89206" lon="2.485">
        <ele>34.6</ele>
        <time>2022-10-19T12:31:45Z</time>
      </trkpt>
      <trkpt lat="49.89205" lon="2.48498">
        <ele>34.6</ele>
        <time>2022-10-19T12:31:46Z</time>
      </trkpt>
      <trkpt lat="49.89204" lon="2.48496">
        <ele>34.6</ele>
        <time>2022-10-19T12:31:48Z</time>
      </trkpt>
      <trkpt lat="49.89204" lon="2.48495">
        <ele>34.6</ele>
        <time>2022-10-19T12:31:49Z</time>
      </trkpt>
      <trkpt lat="49.89203" lon="2.48494">
        <ele>34.6</ele>
        <time>2022-10-19T12:31:50Z</time>
      </trkpt>
      <trkpt lat="49.89203" lon="2.48493">
        <ele>34.7</ele>
        <time>2022-10-19T12:31:51Z</time>
      </trkpt>
      <trkpt lat="49.89202" lon="2.4849">
        <ele>34.7</ele>
        <time>2022-10-19T12:31:53Z</time>
      </trkpt>
      <trkpt lat="49.89202" lon="2.48488">
        <ele>34.7</ele>
        <time>2022-10-19T12:31:54Z</time>
      </trkpt>
      <trkpt lat="49.89201" lon="2.48487">
        <ele>34.7</ele>
        <time>2022-10-19T12:31:55Z</time>
      </trkpt>
      <trkpt lat="49.89201" lon="2.48486">
        <ele>34.7</ele>
        <time>2022-10-19T12:31:56Z</time>
      </trkpt>
      <trkpt lat="49.892" lon="2.48485">
        <ele>34.8</ele>
        <time>2022-10-19T12:31:57Z</time>
      </trkpt>
      <trkpt lat="49.89199" lon="2.48484">
        <ele>34.8</ele>
        <time>2022-10-19T12:31:59Z</time>
      </trkpt>
      <trkpt lat="49.89199" lon="2.48483">
        <ele>34.8</ele>
        <time>2022-10-19T12:32:00Z</time>
      </trkpt>
      <trkpt lat="49.89198" lon="2.48482">
        <ele>34.8</ele>
        <time>2022-10-19T12:32:01Z</time>
      </trkpt>
      <trkpt lat="49.89197" lon="2.48481">
        <ele>34.9</ele>
        <time>2022-10-19T12:32:02Z</time>
      </trkpt>
      <trkpt lat="49.89196" lon="2.4848">
        <ele>34.9</ele>
        <time>2022-10-19T12:32:03Z</time>
      </trkpt>
      <trkpt lat="49.89196" lon="2.48479">
        <ele>34.9</ele>
        <time>2022-10-19T12:32:04Z</time>
      </trkpt>
      <trkpt lat="49.89195" lon="2.48478">
        <ele>34.9</ele>
        <time>2022-10-19T12:32:05Z</time>
      </trkpt>
      <trkpt lat="49.89194" lon="2.48476">
        <ele>35</ele>
        <time>2022-10-19T12:32:07Z</time>
      </trkpt>
      <trkpt lat="49.89193" lon="2.48473">
        <ele>35</ele>
        <time>2022-10-19T12:32:08Z</time>
      </trkpt>
      <trkpt lat="49.89193" lon="2.48472">
        <ele>35</ele>
        <time>2022-10-19T12:32:09Z</time>
      </trkpt>
      <trkpt lat="49.89192" lon="2.48469">
        <ele>35.1</ele>
        <time>2022-10-19T12:32:10Z</time>
      </trkpt>
      <trkpt lat="49.89191" lon="2.48468">
        <ele>35.1</ele>
        <time>2022-10-19T12:32:12Z</time>
      </trkpt>
      <trkpt lat="49.8919" lon="2.48466">
        <ele>35.1</ele>
        <time>2022-10-19T12:32:13Z</time>
      </trkpt>
      <trkpt lat="49.8919" lon="2.48466">
        <ele>35.1</ele>
        <time>2022-10-19T12:32:14Z</time>
      </trkpt>
      <trkpt lat="49.89189" lon="2.48464">
        <ele>35.2</ele>
        <time>2022-10-19T12:32:15Z</time>
      </trkpt>
      <trkpt lat="49.89189" lon="2.48463">
        <ele>35.2</ele>
        <time>2022-10-19T12:32:16Z</time>
      </trkpt>
      <trkpt lat="49.89188" lon="2.48461">
        <ele>35.2</ele>
        <time>2022-10-19T12:32:17Z</time>
      </trkpt>
      <trkpt lat="49.89187" lon="2.4846">
        <ele>35.3</ele>
        <time>2022-10-19T12:32:18Z</time>
      </trkpt>
      <trkpt lat="49.89186" lon="2.48458">
        <ele>35.3</ele>
        <time>2022-10-19T12:32:20Z</time>
      </trkpt>
      <trkpt lat="49.89185" lon="2.48457">
        <ele>35.3</ele>
        <time>2022-10-19T12:32:21Z</time>
      </trkpt>
      <trkpt lat="49.89185" lon="2.48455">
        <ele>35.3</ele>
        <time>2022-10-19T12:32:22Z</time>
      </trkpt>
      <trkpt lat="49.89183" lon="2.48452">
        <ele>35.4</ele>
        <time>2022-10-19T12:32:23Z</time>
      </trkpt>
      <trkpt lat="49.89183" lon="2.48452">
        <ele>35.4</ele>
        <time>2022-10-19T12:32:24Z</time>
      </trkpt>
      <trkpt lat="49.89182" lon="2.48451">
        <ele>35.4</ele>
        <time>2022-10-19T12:32:25Z</time>
      </trkpt>
      <trkpt lat="49.89181" lon="2.48448">
        <ele>35.5</ele>
        <time>2022-10-19T12:32:26Z</time>
      </trkpt>
      <trkpt lat="49.8918" lon="2.48447">
        <ele>35.5</ele>
        <time>2022-10-19T12:32:27Z</time>
      </trkpt>
      <trkpt lat="49.8918" lon="2.48445">
        <ele>35.6</ele>
        <time>2022-10-19T12:32:28Z</time>
      </trkpt>
      <trkpt lat="49.89179" lon="2.48444">
        <ele>35.6</ele>
        <time>2022-10-19T12:32:30Z</time>
      </trkpt>
      <trkpt lat="49.89179" lon="2.48442">
        <ele>35.6</ele>
        <time>2022-10-19T12:32:31Z</time>
      </trkpt>
      <trkpt lat="49.89178" lon="2.48441">
        <ele>35.7</ele>
        <time>2022-10-19T12:32:32Z</time>
      </trkpt>
      <trkpt lat="49.89177" lon="2.48439">
        <ele>35.7</ele>
        <time>2022-10-19T12:32:33Z</time>
      </trkpt>
      <trkpt lat="49.89177" lon="2.48437">
        <ele>35.7</ele>
        <time>2022-10-19T12:32:34Z</time>
      </trkpt>
      <trkpt lat="49.89176" lon="2.48435">
        <ele>35.8</ele>
        <time>2022-10-19T12:32:36Z</time>
      </trkpt>
      <trkpt lat="49.89175" lon="2.48434">
        <ele>35.8</ele>
        <time>2022-10-19T12:32:37Z</time>
      </trkpt>
      <trkpt lat="49.89174" lon="2.48431">
        <ele>35.9</ele>
        <time>2022-10-19T12:32:38Z</time>
      </trkpt>
      <trkpt lat="49.89174" lon="2.48429">
        <ele>35.9</ele>
        <time>2022-10-19T12:32:39Z</time>
      </trkpt>
      <trkpt lat="49.89173" lon="2.48428">
        <ele>35.9</ele>
        <time>2022-10-19T12:32:40Z</time>
      </trkpt>
      <trkpt lat="49.89173" lon="2.48426">
        <ele>36</ele>
        <time>2022-10-19T12:32:41Z</time>
      </trkpt>
      <trkpt lat="49.89172" lon="2.48424">
        <ele>36</ele>
        <time>2022-10-19T12:32:42Z</time>
      </trkpt>
      <trkpt lat="49.89171" lon="2.48421">
        <ele>36.1</ele>
        <time>2022-10-19T12:32:44Z</time>
      </trkpt>
      <trkpt lat="49.89171" lon="2.4842">
        <ele>36.1</ele>
        <time>2022-10-19T12:32:45Z</time>
      </trkpt>
      <trkpt lat="49.8917" lon="2.48419">
        <ele>36.1</ele>
        <time>2022-10-19T12:32:46Z</time>
      </trkpt>
      <trkpt lat="49.8917" lon="2.48418">
        <ele>36.2</ele>
        <time>2022-10-19T12:32:47Z</time>
      </trkpt>
      <trkpt lat="49.89169" lon="2.48415">
        <ele>36.2</ele>
        <time>2022-10-19T12:32:48Z</time>
      </trkpt>
      <trkpt lat="49.89168" lon="2.48414">
        <ele>36.3</ele>
        <time>2022-10-19T12:32:49Z</time>
      </trkpt>
      <trkpt lat="49.89168" lon="2.48412">
        <ele>36.3</ele>
        <time>2022-10-19T12:32:51Z</time>
      </trkpt>
      <trkpt lat="49.89168" lon="2.48411">
        <ele>36.3</ele>
        <time>2022-10-19T12:32:52Z</time>
      </trkpt>
      <trkpt lat="49.89167" lon="2.4841">
        <ele>36.3</ele>
        <time>2022-10-19T12:32:53Z</time>
      </trkpt>
      <trkpt lat="49.89167" lon="2.48409">
        <ele>36.4</ele>
        <time>2022-10-19T12:32:54Z</time>
      </trkpt>
      <trkpt lat="49.89166" lon="2.48408">
        <ele>36.4</ele>
        <time>2022-10-19T12:32:55Z</time>
      </trkpt>
      <trkpt lat="49.89165" lon="2.48406">
        <ele>36.5</ele>
        <time>2022-10-19T12:32:56Z</time>
      </trkpt>
      <trkpt lat="49.89165" lon="2.48405">
        <ele>36.5</ele>
        <time>2022-10-19T12:32:57Z</time>
      </trkpt>
      <trkpt lat="49.89164" lon="2.48404">
        <ele>36.5</ele>
        <time>2022-10-19T12:32:58Z</time>
      </trkpt>
      <trkpt lat="49.89164" lon="2.48403">
        <ele>36.6</ele>
        <time>2022-10-19T12:32:59Z</time>
      </trkpt>
      <trkpt lat="49.89162" lon="2.48401">
        <ele>36.7</ele>
        <time>2022-10-19T12:33:01Z</time>
      </trkpt>
      <trkpt lat="49.89162" lon="2.484">
        <ele>36.7</ele>
        <time>2022-10-19T12:33:02Z</time>
      </trkpt>
      <trkpt lat="49.89161" lon="2.48398">
        <ele>36.7</ele>
        <time>2022-10-19T12:33:03Z</time>
      </trkpt>
      <trkpt lat="49.8916" lon="2.48398">
        <ele>36.8</ele>
        <time>2022-10-19T12:33:04Z</time>
      </trkpt>
      <trkpt lat="49.89159" lon="2.48396">
        <ele>36.8</ele>
        <time>2022-10-19T12:33:05Z</time>
      </trkpt>
      <trkpt lat="49.89159" lon="2.48395">
        <ele>36.8</ele>
        <time>2022-10-19T12:33:06Z</time>
      </trkpt>
      <trkpt lat="49.89158" lon="2.48394">
        <ele>36.9</ele>
        <time>2022-10-19T12:33:07Z</time>
      </trkpt>
      <trkpt lat="49.89158" lon="2.48392">
        <ele>36.9</ele>
        <time>2022-10-19T12:33:09Z</time>
      </trkpt>
      <trkpt lat="49.89157" lon="2.48391">
        <ele>37</ele>
        <time>2022-10-19T12:33:10Z</time>
      </trkpt>
      <trkpt lat="49.89156" lon="2.48388">
        <ele>37</ele>
        <time>2022-10-19T12:33:11Z</time>
      </trkpt>
      <trkpt lat="49.89155" lon="2.48387">
        <ele>37.1</ele>
        <time>2022-10-19T12:33:12Z</time>
      </trkpt>
      <trkpt lat="49.89155" lon="2.48386">
        <ele>37.1</ele>
        <time>2022-10-19T12:33:13Z</time>
      </trkpt>
      <trkpt lat="49.89154" lon="2.48385">
        <ele>37.1</ele>
        <time>2022-10-19T12:33:14Z</time>
      </trkpt>
      <trkpt lat="49.89154" lon="2.48384">
        <ele>37.2</ele>
        <time>2022-10-19T12:33:15Z</time>
      </trkpt>
      <trkpt lat="49.89153" lon="2.48382">
        <ele>37.2</ele>
        <time>2022-10-19T12:33:16Z</time>
      </trkpt>
      <trkpt lat="49.89152" lon="2.48379">
        <ele>37.3</ele>
        <time>2022-10-19T12:33:18Z</time>
      </trkpt>
      <trkpt lat="49.89152" lon="2.48378">
        <ele>37.3</ele>
        <time>2022-10-19T12:33:19Z</time>
      </trkpt>
      <trkpt lat="49.89152" lon="2.48377">
        <ele>37.4</ele>
        <time>2022-10-19T12:33:20Z</time>
      </trkpt>
      <trkpt lat="49.89151" lon="2.48376">
        <ele>37.4</ele>
        <time>2022-10-19T12:33:21Z</time>
      </trkpt>
      <trkpt lat="49.8915" lon="2.48374">
        <ele>37.5</ele>
        <time>2022-10-19T12:33:22Z</time>
      </trkpt>
      <trkpt lat="49.8915" lon="2.48373">
        <ele>37.5</ele>
        <time>2022-10-19T12:33:23Z</time>
      </trkpt>
      <trkpt lat="49.89149" lon="2.48372">
        <ele>37.5</ele>
        <time>2022-10-19T12:33:24Z</time>
      </trkpt>
      <trkpt lat="49.89149" lon="2.48371">
        <ele>37.6</ele>
        <time>2022-10-19T12:33:26Z</time>
      </trkpt>
      <trkpt lat="49.89148" lon="2.48369">
        <ele>37.6</ele>
        <time>2022-10-19T12:33:27Z</time>
      </trkpt>
      <trkpt lat="49.89147" lon="2.48367">
        <ele>37.7</ele>
        <time>2022-10-19T12:33:28Z</time>
      </trkpt>
      <trkpt lat="49.89147" lon="2.48366">
        <ele>37.7</ele>
        <time>2022-10-19T12:33:29Z</time>
      </trkpt>
      <trkpt lat="49.89146" lon="2.48365">
        <ele>37.8</ele>
        <time>2022-10-19T12:33:30Z</time>
      </trkpt>
      <trkpt lat="49.89145" lon="2.48362">
        <ele>37.8</ele>
        <time>2022-10-19T12:33:31Z</time>
      </trkpt>
      <trkpt lat="49.89144" lon="2.48361">
        <ele>37.8</ele>
        <time>2022-10-19T12:33:32Z</time>
      </trkpt>
      <trkpt lat="49.89144" lon="2.4836">
        <ele>37.9</ele>
        <time>2022-10-19T12:33:34Z</time>
      </trkpt>
      <trkpt lat="49.89143" lon="2.48359">
        <ele>37.9</ele>
        <time>2022-10-19T12:33:35Z</time>
      </trkpt>
      <trkpt lat="49.89142" lon="2.48358">
        <ele>37.9</ele>
        <time>2022-10-19T12:33:36Z</time>
      </trkpt>
      <trkpt lat="49.89142" lon="2.48356">
        <ele>38</ele>
        <time>2022-10-19T12:33:37Z</time>
      </trkpt>
      <trkpt lat="49.89141" lon="2.48355">
        <ele>38</ele>
        <time>2022-10-19T12:33:38Z</time>
      </trkpt>
      <trkpt lat="49.8914" lon="2.48354">
        <ele>38</ele>
        <time>2022-10-19T12:33:39Z</time>
      </trkpt>
      <trkpt lat="49.8914" lon="2.48353">
        <ele>38.1</ele>
        <time>2022-10-19T12:33:40Z</time>
      </trkpt>
      <trkpt lat="49.89139" lon="2.48351">
        <ele>38.1</ele>
        <time>2022-10-19T12:33:42Z</time>
      </trkpt>
      <trkpt lat="49.89138" lon="2.4835">
        <ele>38.1</ele>
        <time>2022-10-19T12:33:43Z</time>
      </trkpt>
      <trkpt lat="49.89137" lon="2.48349">
        <ele>38.2</ele>
        <time>2022-10-19T12:33:44Z</time>
      </trkpt>
      <trkpt lat="49.89137" lon="2.48348">
        <ele>38.2</ele>
        <time>2022-10-19T12:33:45Z</time>
      </trkpt>
      <trkpt lat="49.89136" lon="2.48346">
        <ele>38.2</ele>
        <time>2022-10-19T12:33:46Z</time>
      </trkpt>
      <trkpt lat="49.89135" lon="2.48344">
        <ele>38.3</ele>
        <time>2022-10-19T12:33:47Z</time>
      </trkpt>
      <trkpt lat="49.89134" lon="2.48342">
        <ele>38.3</ele>
        <time>2022-10-19T12:33:48Z</time>
      </trkpt>
      <trkpt lat="49.89134" lon="2.48342">
        <ele>38.3</ele>
        <time>2022-10-19T12:33:49Z</time>
      </trkpt>
      <trkpt lat="49.89133" lon="2.4834">
        <ele>38.3</ele>
        <time>2022-10-19T12:33:51Z</time>
      </trkpt>
      <trkpt lat="49.89133" lon="2.48339">
        <ele>38.3</ele>
        <time>2022-10-19T12:33:52Z</time>
      </trkpt>
      <trkpt lat="49.89132" lon="2.48337">
        <ele>38.4</ele>
        <time>2022-10-19T12:33:53Z</time>
      </trkpt>
      <trkpt lat="49.89131" lon="2.48335">
        <ele>38.4</ele>
        <time>2022-10-19T12:33:54Z</time>
      </trkpt>
      <trkpt lat="49.8913" lon="2.48334">
        <ele>38.4</ele>
        <time>2022-10-19T12:33:55Z</time>
      </trkpt>
      <trkpt lat="49.89129" lon="2.48333">
        <ele>38.4</ele>
        <time>2022-10-19T12:33:56Z</time>
      </trkpt>
      <trkpt lat="49.89129" lon="2.48332">
        <ele>38.4</ele>
        <time>2022-10-19T12:33:57Z</time>
      </trkpt>
      <trkpt lat="49.89128" lon="2.4833">
        <ele>38.5</ele>
        <time>2022-10-19T12:33:59Z</time>
      </trkpt>
      <trkpt lat="49.89127" lon="2.48328">
        <ele>38.5</ele>
        <time>2022-10-19T12:34:00Z</time>
      </trkpt>
      <trkpt lat="49.89126" lon="2.48327">
        <ele>38.5</ele>
        <time>2022-10-19T12:34:01Z</time>
      </trkpt>
      <trkpt lat="49.89126" lon="2.48325">
        <ele>38.5</ele>
        <time>2022-10-19T12:34:02Z</time>
      </trkpt>
      <trkpt lat="49.89125" lon="2.48324">
        <ele>38.5</ele>
        <time>2022-10-19T12:34:03Z</time>
      </trkpt>
      <trkpt lat="49.89124" lon="2.48322">
        <ele>38.5</ele>
        <time>2022-10-19T12:34:04Z</time>
      </trkpt>
      <trkpt lat="49.89124" lon="2.48321">
        <ele>38.5</ele>
        <time>2022-10-19T12:34:05Z</time>
      </trkpt>
      <trkpt lat="49.89123" lon="2.48319">
        <ele>38.5</ele>
        <time>2022-10-19T12:34:07Z</time>
      </trkpt>
      <trkpt lat="49.89123" lon="2.48318">
        <ele>38.5</ele>
        <time>2022-10-19T12:34:08Z</time>
      </trkpt>
      <trkpt lat="49.89123" lon="2.48316">
        <ele>38.5</ele>
        <time>2022-10-19T12:34:09Z</time>
      </trkpt>
      <trkpt lat="49.89122" lon="2.48314">
        <ele>38.6</ele>
        <time>2022-10-19T12:34:10Z</time>
      </trkpt>
      <trkpt lat="49.89122" lon="2.48313">
        <ele>38.6</ele>
        <time>2022-10-19T12:34:11Z</time>
      </trkpt>
      <trkpt lat="49.89122" lon="2.48311">
        <ele>38.6</ele>
        <time>2022-10-19T12:34:12Z</time>
      </trkpt>
      <trkpt lat="49.89122" lon="2.48309">
        <ele>38.6</ele>
        <time>2022-10-19T12:34:14Z</time>
      </trkpt>
      <trkpt lat="49.89121" lon="2.48307">
        <ele>38.6</ele>
        <time>2022-10-19T12:34:15Z</time>
      </trkpt>
      <trkpt lat="49.89121" lon="2.48306">
        <ele>38.6</ele>
        <time>2022-10-19T12:34:16Z</time>
      </trkpt>
      <trkpt lat="49.8912" lon="2.48304">
        <ele>38.6</ele>
        <time>2022-10-19T12:34:17Z</time>
      </trkpt>
      <trkpt lat="49.8912" lon="2.48302">
        <ele>38.6</ele>
        <time>2022-10-19T12:34:18Z</time>
      </trkpt>
      <trkpt lat="49.8912" lon="2.483">
        <ele>38.6</ele>
        <time>2022-10-19T12:34:19Z</time>
      </trkpt>
      <trkpt lat="49.89119" lon="2.48299">
        <ele>38.6</ele>
        <time>2022-10-19T12:34:20Z</time>
      </trkpt>
      <trkpt lat="49.89118" lon="2.48296">
        <ele>38.6</ele>
        <time>2022-10-19T12:34:21Z</time>
      </trkpt>
      <trkpt lat="49.89118" lon="2.48295">
        <ele>38.6</ele>
        <time>2022-10-19T12:34:23Z</time>
      </trkpt>
      <trkpt lat="49.89117" lon="2.48293">
        <ele>38.6</ele>
        <time>2022-10-19T12:34:24Z</time>
      </trkpt>
      <trkpt lat="49.89117" lon="2.48292">
        <ele>38.6</ele>
        <time>2022-10-19T12:34:25Z</time>
      </trkpt>
      <trkpt lat="49.89116" lon="2.4829">
        <ele>38.6</ele>
        <time>2022-10-19T12:34:26Z</time>
      </trkpt>
      <trkpt lat="49.89116" lon="2.48288">
        <ele>38.7</ele>
        <time>2022-10-19T12:34:28Z</time>
      </trkpt>
      <trkpt lat="49.89115" lon="2.48286">
        <ele>38.7</ele>
        <time>2022-10-19T12:34:29Z</time>
      </trkpt>
      <trkpt lat="49.89114" lon="2.48284">
        <ele>38.7</ele>
        <time>2022-10-19T12:34:30Z</time>
      </trkpt>
      <trkpt lat="49.89114" lon="2.48283">
        <ele>38.7</ele>
        <time>2022-10-19T12:34:31Z</time>
      </trkpt>
      <trkpt lat="49.89113" lon="2.48282">
        <ele>38.7</ele>
        <time>2022-10-19T12:34:32Z</time>
      </trkpt>
      <trkpt lat="49.89113" lon="2.4828">
        <ele>38.7</ele>
        <time>2022-10-19T12:34:33Z</time>
      </trkpt>
      <trkpt lat="49.89112" lon="2.48279">
        <ele>38.7</ele>
        <time>2022-10-19T12:34:34Z</time>
      </trkpt>
      <trkpt lat="49.89112" lon="2.48278">
        <ele>38.7</ele>
        <time>2022-10-19T12:34:36Z</time>
      </trkpt>
      <trkpt lat="49.89111" lon="2.48277">
        <ele>38.7</ele>
        <time>2022-10-19T12:34:37Z</time>
      </trkpt>
      <trkpt lat="49.89111" lon="2.48275">
        <ele>38.7</ele>
        <time>2022-10-19T12:34:38Z</time>
      </trkpt>
      <trkpt lat="49.8911" lon="2.48274">
        <ele>38.7</ele>
        <time>2022-10-19T12:34:39Z</time>
      </trkpt>
      <trkpt lat="49.8911" lon="2.48272">
        <ele>38.7</ele>
        <time>2022-10-19T12:34:40Z</time>
      </trkpt>
      <trkpt lat="49.89109" lon="2.48269">
        <ele>38.7</ele>
        <time>2022-10-19T12:34:41Z</time>
      </trkpt>
      <trkpt lat="49.89108" lon="2.48268">
        <ele>38.7</ele>
        <time>2022-10-19T12:34:42Z</time>
      </trkpt>
      <trkpt lat="49.89108" lon="2.48266">
        <ele>38.7</ele>
        <time>2022-10-19T12:34:43Z</time>
      </trkpt>
      <trkpt lat="49.89107" lon="2.48265">
        <ele>38.7</ele>
        <time>2022-10-19T12:34:44Z</time>
      </trkpt>
      <trkpt lat="49.89107" lon="2.48263">
        <ele>38.8</ele>
        <time>2022-10-19T12:34:46Z</time>
      </trkpt>
      <trkpt lat="49.89106" lon="2.48262">
        <ele>38.8</ele>
        <time>2022-10-19T12:34:47Z</time>
      </trkpt>
      <trkpt lat="49.89105" lon="2.4826">
        <ele>38.8</ele>
        <time>2022-10-19T12:34:48Z</time>
      </trkpt>
      <trkpt lat="49.89104" lon="2.48258">
        <ele>38.8</ele>
        <time>2022-10-19T12:34:49Z</time>
      </trkpt>
      <trkpt lat="49.89103" lon="2.48256">
        <ele>38.8</ele>
        <time>2022-10-19T12:34:50Z</time>
      </trkpt>
      <trkpt lat="49.89103" lon="2.48255">
        <ele>38.8</ele>
        <time>2022-10-19T12:34:51Z</time>
      </trkpt>
      <trkpt lat="49.89102" lon="2.48254">
        <ele>38.8</ele>
        <time>2022-10-19T12:34:52Z</time>
      </trkpt>
      <trkpt lat="49.89101" lon="2.48252">
        <ele>38.8</ele>
        <time>2022-10-19T12:34:54Z</time>
      </trkpt>
      <trkpt lat="49.89101" lon="2.4825">
        <ele>38.8</ele>
        <time>2022-10-19T12:34:55Z</time>
      </trkpt>
      <trkpt lat="49.891" lon="2.48249">
        <ele>38.8</ele>
        <time>2022-10-19T12:34:56Z</time>
      </trkpt>
      <trkpt lat="49.891" lon="2.48247">
        <ele>38.8</ele>
        <time>2022-10-19T12:34:57Z</time>
      </trkpt>
      <trkpt lat="49.89099" lon="2.48246">
        <ele>38.8</ele>
        <time>2022-10-19T12:34:58Z</time>
      </trkpt>
      <trkpt lat="49.89099" lon="2.48244">
        <ele>38.9</ele>
        <time>2022-10-19T12:34:59Z</time>
      </trkpt>
      <trkpt lat="49.89098" lon="2.48243">
        <ele>38.9</ele>
        <time>2022-10-19T12:35:00Z</time>
      </trkpt>
      <trkpt lat="49.89097" lon="2.48241">
        <ele>38.9</ele>
        <time>2022-10-19T12:35:01Z</time>
      </trkpt>
      <trkpt lat="49.89097" lon="2.4824">
        <ele>38.9</ele>
        <time>2022-10-19T12:35:03Z</time>
      </trkpt>
      <trkpt lat="49.89096" lon="2.48238">
        <ele>38.9</ele>
        <time>2022-10-19T12:35:04Z</time>
      </trkpt>
      <trkpt lat="49.89095" lon="2.48237">
        <ele>38.9</ele>
        <time>2022-10-19T12:35:05Z</time>
      </trkpt>
      <trkpt lat="49.89094" lon="2.48234">
        <ele>38.9</ele>
        <time>2022-10-19T12:35:06Z</time>
      </trkpt>
      <trkpt lat="49.89094" lon="2.48233">
        <ele>38.9</ele>
        <time>2022-10-19T12:35:08Z</time>
      </trkpt>
      <trkpt lat="49.89094" lon="2.48232">
        <ele>38.9</ele>
        <time>2022-10-19T12:35:09Z</time>
      </trkpt>
      <trkpt lat="49.89093" lon="2.4823">
        <ele>38.9</ele>
        <time>2022-10-19T12:35:10Z</time>
      </trkpt>
      <trkpt lat="49.89092" lon="2.48229">
        <ele>38.9</ele>
        <time>2022-10-19T12:35:11Z</time>
      </trkpt>
      <trkpt lat="49.89092" lon="2.48227">
        <ele>38.9</ele>
        <time>2022-10-19T12:35:12Z</time>
      </trkpt>
      <trkpt lat="49.89091" lon="2.48226">
        <ele>38.9</ele>
        <time>2022-10-19T12:35:13Z</time>
      </trkpt>
      <trkpt lat="49.89091" lon="2.48224">
        <ele>38.9</ele>
        <time>2022-10-19T12:35:14Z</time>
      </trkpt>
      <trkpt lat="49.8909" lon="2.48222">
        <ele>38.9</ele>
        <time>2022-10-19T12:35:16Z</time>
      </trkpt>
      <trkpt lat="49.8909" lon="2.4822">
        <ele>38.9</ele>
        <time>2022-10-19T12:35:17Z</time>
      </trkpt>
      <trkpt lat="49.89089" lon="2.48219">
        <ele>39</ele>
        <time>2022-10-19T12:35:18Z</time>
      </trkpt>
      <trkpt lat="49.89089" lon="2.48214">
        <ele>39</ele>
        <time>2022-10-19T12:35:19Z</time>
      </trkpt>
      <trkpt lat="49.89089" lon="2.48213">
        <ele>39</ele>
        <time>2022-10-19T12:35:21Z</time>
      </trkpt>
      <trkpt lat="49.89088" lon="2.48211">
        <ele>39</ele>
        <time>2022-10-19T12:35:22Z</time>
      </trkpt>
      <trkpt lat="49.89088" lon="2.4821">
        <ele>39</ele>
        <time>2022-10-19T12:35:23Z</time>
      </trkpt>
      <trkpt lat="49.89088" lon="2.48208">
        <ele>39</ele>
        <time>2022-10-19T12:35:24Z</time>
      </trkpt>
      <trkpt lat="49.89088" lon="2.48205">
        <ele>39</ele>
        <time>2022-10-19T12:35:25Z</time>
      </trkpt>
      <trkpt lat="49.89088" lon="2.48204">
        <ele>39</ele>
        <time>2022-10-19T12:35:26Z</time>
      </trkpt>
      <trkpt lat="49.89087" lon="2.48203">
        <ele>39</ele>
        <time>2022-10-19T12:35:27Z</time>
      </trkpt>
      <trkpt lat="49.89087" lon="2.48201">
        <ele>39</ele>
        <time>2022-10-19T12:35:28Z</time>
      </trkpt>
      <trkpt lat="49.89087" lon="2.48198">
        <ele>39.1</ele>
        <time>2022-10-19T12:35:29Z</time>
      </trkpt>
      <trkpt lat="49.89086" lon="2.48197">
        <ele>39.1</ele>
        <time>2022-10-19T12:35:30Z</time>
      </trkpt>
      <trkpt lat="49.89086" lon="2.48195">
        <ele>39.1</ele>
        <time>2022-10-19T12:35:31Z</time>
      </trkpt>
      <trkpt lat="49.89085" lon="2.48193">
        <ele>39.1</ele>
        <time>2022-10-19T12:35:33Z</time>
      </trkpt>
      <trkpt lat="49.89084" lon="2.48191">
        <ele>39.1</ele>
        <time>2022-10-19T12:35:34Z</time>
      </trkpt>
      <trkpt lat="49.89083" lon="2.48189">
        <ele>39.2</ele>
        <time>2022-10-19T12:35:35Z</time>
      </trkpt>
      <trkpt lat="49.89082" lon="2.48186">
        <ele>39.2</ele>
        <time>2022-10-19T12:35:36Z</time>
      </trkpt>
      <trkpt lat="49.89082" lon="2.48185">
        <ele>39.2</ele>
        <time>2022-10-19T12:35:37Z</time>
      </trkpt>
      <trkpt lat="49.89082" lon="2.48183">
        <ele>39.2</ele>
        <time>2022-10-19T12:35:38Z</time>
      </trkpt>
      <trkpt lat="49.89081" lon="2.48181">
        <ele>39.2</ele>
        <time>2022-10-19T12:35:39Z</time>
      </trkpt>
      <trkpt lat="49.89081" lon="2.48179">
        <ele>39.2</ele>
        <time>2022-10-19T12:35:41Z</time>
      </trkpt>
      <trkpt lat="49.8908" lon="2.48177">
        <ele>39.3</ele>
        <time>2022-10-19T12:35:42Z</time>
      </trkpt>
      <trkpt lat="49.8908" lon="2.48175">
        <ele>39.3</ele>
        <time>2022-10-19T12:35:43Z</time>
      </trkpt>
      <trkpt lat="49.89079" lon="2.48172">
        <ele>39.3</ele>
        <time>2022-10-19T12:35:44Z</time>
      </trkpt>
      <trkpt lat="49.89079" lon="2.48171">
        <ele>39.3</ele>
        <time>2022-10-19T12:35:45Z</time>
      </trkpt>
      <trkpt lat="49.89078" lon="2.48168">
        <ele>39.4</ele>
        <time>2022-10-19T12:35:46Z</time>
      </trkpt>
      <trkpt lat="49.89077" lon="2.48166">
        <ele>39.4</ele>
        <time>2022-10-19T12:35:47Z</time>
      </trkpt>
      <trkpt lat="49.89077" lon="2.48165">
        <ele>39.4</ele>
        <time>2022-10-19T12:35:48Z</time>
      </trkpt>
      <trkpt lat="49.89076" lon="2.48162">
        <ele>39.4</ele>
        <time>2022-10-19T12:35:50Z</time>
      </trkpt>
      <trkpt lat="49.89076" lon="2.48161">
        <ele>39.4</ele>
        <time>2022-10-19T12:35:51Z</time>
      </trkpt>
      <trkpt lat="49.89075" lon="2.4816">
        <ele>39.4</ele>
        <time>2022-10-19T12:35:52Z</time>
      </trkpt>
      <trkpt lat="49.89075" lon="2.48157">
        <ele>39.5</ele>
        <time>2022-10-19T12:35:53Z</time>
      </trkpt>
      <trkpt lat="49.89074" lon="2.48155">
        <ele>39.5</ele>
        <time>2022-10-19T12:35:54Z</time>
      </trkpt>
      <trkpt lat="49.89074" lon="2.48154">
        <ele>39.5</ele>
        <time>2022-10-19T12:35:55Z</time>
      </trkpt>
      <trkpt lat="49.89073" lon="2.48152">
        <ele>39.5</ele>
        <time>2022-10-19T12:35:56Z</time>
      </trkpt>
      <trkpt lat="49.89073" lon="2.48151">
        <ele>39.5</ele>
        <time>2022-10-19T12:35:57Z</time>
      </trkpt>
      <trkpt lat="49.89072" lon="2.48149">
        <ele>39.5</ele>
        <time>2022-10-19T12:35:58Z</time>
      </trkpt>
      <trkpt lat="49.89071" lon="2.48147">
        <ele>39.6</ele>
        <time>2022-10-19T12:36:00Z</time>
      </trkpt>
      <trkpt lat="49.89071" lon="2.48146">
        <ele>39.6</ele>
        <time>2022-10-19T12:36:01Z</time>
      </trkpt>
      <trkpt lat="49.89071" lon="2.48145">
        <ele>39.6</ele>
        <time>2022-10-19T12:36:02Z</time>
      </trkpt>
      <trkpt lat="49.8907" lon="2.48143">
        <ele>39.6</ele>
        <time>2022-10-19T12:36:03Z</time>
      </trkpt>
      <trkpt lat="49.8907" lon="2.48142">
        <ele>39.6</ele>
        <time>2022-10-19T12:36:04Z</time>
      </trkpt>
      <trkpt lat="49.8907" lon="2.4814">
        <ele>39.6</ele>
        <time>2022-10-19T12:36:05Z</time>
      </trkpt>
      <trkpt lat="49.89069" lon="2.48139">
        <ele>39.6</ele>
        <time>2022-10-19T12:36:06Z</time>
      </trkpt>
      <trkpt lat="49.89068" lon="2.48137">
        <ele>39.6</ele>
        <time>2022-10-19T12:36:07Z</time>
      </trkpt>
      <trkpt lat="49.89068" lon="2.48135">
        <ele>39.7</ele>
        <time>2022-10-19T12:36:09Z</time>
      </trkpt>
      <trkpt lat="49.89067" lon="2.48133">
        <ele>39.7</ele>
        <time>2022-10-19T12:36:10Z</time>
      </trkpt>
      <trkpt lat="49.89067" lon="2.48132">
        <ele>39.7</ele>
        <time>2022-10-19T12:36:11Z</time>
      </trkpt>
      <trkpt lat="49.89066" lon="2.4813">
        <ele>39.7</ele>
        <time>2022-10-19T12:36:12Z</time>
      </trkpt>
      <trkpt lat="49.89065" lon="2.48127">
        <ele>39.7</ele>
        <time>2022-10-19T12:36:13Z</time>
      </trkpt>
      <trkpt lat="49.89065" lon="2.48126">
        <ele>39.8</ele>
        <time>2022-10-19T12:36:14Z</time>
      </trkpt>
      <trkpt lat="49.89064" lon="2.48125">
        <ele>39.8</ele>
        <time>2022-10-19T12:36:15Z</time>
      </trkpt>
      <trkpt lat="49.89064" lon="2.48122">
        <ele>39.8</ele>
        <time>2022-10-19T12:36:16Z</time>
      </trkpt>
      <trkpt lat="49.89063" lon="2.4812">
        <ele>39.8</ele>
        <time>2022-10-19T12:36:18Z</time>
      </trkpt>
      <trkpt lat="49.89063" lon="2.48119">
        <ele>39.8</ele>
        <time>2022-10-19T12:36:19Z</time>
      </trkpt>
      <trkpt lat="49.89062" lon="2.48115">
        <ele>39.9</ele>
        <time>2022-10-19T12:36:20Z</time>
      </trkpt>
      <trkpt lat="49.89062" lon="2.48114">
        <ele>39.9</ele>
        <time>2022-10-19T12:36:21Z</time>
      </trkpt>
      <trkpt lat="49.89062" lon="2.48113">
        <ele>39.9</ele>
        <time>2022-10-19T12:36:22Z</time>
      </trkpt>
      <trkpt lat="49.89061" lon="2.4811">
        <ele>39.9</ele>
        <time>2022-10-19T12:36:23Z</time>
      </trkpt>
      <trkpt lat="49.89061" lon="2.48109">
        <ele>39.9</ele>
        <time>2022-10-19T12:36:24Z</time>
      </trkpt>
      <trkpt lat="49.89061" lon="2.48108">
        <ele>39.9</ele>
        <time>2022-10-19T12:36:25Z</time>
      </trkpt>
      <trkpt lat="49.8906" lon="2.48105">
        <ele>40</ele>
        <time>2022-10-19T12:36:26Z</time>
      </trkpt>
      <trkpt lat="49.8906" lon="2.48104">
        <ele>40</ele>
        <time>2022-10-19T12:36:28Z</time>
      </trkpt>
      <trkpt lat="49.89059" lon="2.48102">
        <ele>40</ele>
        <time>2022-10-19T12:36:29Z</time>
      </trkpt>
      <trkpt lat="49.89059" lon="2.48101">
        <ele>40.1</ele>
        <time>2022-10-19T12:36:30Z</time>
      </trkpt>
      <trkpt lat="49.89058" lon="2.481">
        <ele>40.1</ele>
        <time>2022-10-19T12:36:31Z</time>
      </trkpt>
      <trkpt lat="49.89058" lon="2.48098">
        <ele>40.1</ele>
        <time>2022-10-19T12:36:32Z</time>
      </trkpt>
      <trkpt lat="49.89057" lon="2.48096">
        <ele>40.2</ele>
        <time>2022-10-19T12:36:33Z</time>
      </trkpt>
      <trkpt lat="49.89056" lon="2.48095">
        <ele>40.2</ele>
        <time>2022-10-19T12:36:34Z</time>
      </trkpt>
      <trkpt lat="49.89056" lon="2.48093">
        <ele>40.2</ele>
        <time>2022-10-19T12:36:35Z</time>
      </trkpt>
      <trkpt lat="49.89055" lon="2.48091">
        <ele>40.3</ele>
        <time>2022-10-19T12:36:36Z</time>
      </trkpt>
      <trkpt lat="49.89055" lon="2.4809">
        <ele>40.3</ele>
        <time>2022-10-19T12:36:38Z</time>
      </trkpt>
      <trkpt lat="49.89055" lon="2.48088">
        <ele>40.3</ele>
        <time>2022-10-19T12:36:39Z</time>
      </trkpt>
      <trkpt lat="49.89054" lon="2.48086">
        <ele>40.4</ele>
        <time>2022-10-19T12:36:40Z</time>
      </trkpt>
      <trkpt lat="49.89053" lon="2.48085">
        <ele>40.4</ele>
        <time>2022-10-19T12:36:41Z</time>
      </trkpt>
      <trkpt lat="49.89052" lon="2.48084">
        <ele>40.4</ele>
        <time>2022-10-19T12:36:42Z</time>
      </trkpt>
      <trkpt lat="49.89052" lon="2.48083">
        <ele>40.5</ele>
        <time>2022-10-19T12:36:43Z</time>
      </trkpt>
      <trkpt lat="49.89051" lon="2.48082">
        <ele>40.5</ele>
        <time>2022-10-19T12:36:44Z</time>
      </trkpt>
      <trkpt lat="49.8905" lon="2.4808">
        <ele>40.5</ele>
        <time>2022-10-19T12:36:45Z</time>
      </trkpt>
      <trkpt lat="49.8905" lon="2.48079">
        <ele>40.5</ele>
        <time>2022-10-19T12:36:47Z</time>
      </trkpt>
      <trkpt lat="49.89049" lon="2.48078">
        <ele>40.6</ele>
        <time>2022-10-19T12:36:48Z</time>
      </trkpt>
      <trkpt lat="49.89049" lon="2.48077">
        <ele>40.6</ele>
        <time>2022-10-19T12:36:49Z</time>
      </trkpt>
      <trkpt lat="49.89048" lon="2.48075">
        <ele>40.6</ele>
        <time>2022-10-19T12:36:50Z</time>
      </trkpt>
      <trkpt lat="49.89048" lon="2.48074">
        <ele>40.7</ele>
        <time>2022-10-19T12:36:51Z</time>
      </trkpt>
      <trkpt lat="49.89047" lon="2.48072">
        <ele>40.7</ele>
        <time>2022-10-19T12:36:52Z</time>
      </trkpt>
      <trkpt lat="49.89047" lon="2.4807">
        <ele>40.7</ele>
        <time>2022-10-19T12:36:53Z</time>
      </trkpt>
      <trkpt lat="49.89046" lon="2.48067">
        <ele>40.8</ele>
        <time>2022-10-19T12:36:55Z</time>
      </trkpt>
      <trkpt lat="49.89046" lon="2.48065">
        <ele>40.8</ele>
        <time>2022-10-19T12:36:56Z</time>
      </trkpt>
      <trkpt lat="49.89045" lon="2.48063">
        <ele>40.8</ele>
        <time>2022-10-19T12:36:58Z</time>
      </trkpt>
      <trkpt lat="49.89045" lon="2.48062">
        <ele>40.9</ele>
        <time>2022-10-19T12:36:59Z</time>
      </trkpt>
      <trkpt lat="49.89044" lon="2.48059">
        <ele>40.9</ele>
        <time>2022-10-19T12:37:00Z</time>
      </trkpt>
      <trkpt lat="49.89044" lon="2.48058">
        <ele>40.9</ele>
        <time>2022-10-19T12:37:01Z</time>
      </trkpt>
      <trkpt lat="49.89043" lon="2.48056">
        <ele>41</ele>
        <time>2022-10-19T12:37:02Z</time>
      </trkpt>
      <trkpt lat="49.89042" lon="2.48054">
        <ele>41</ele>
        <time>2022-10-19T12:37:03Z</time>
      </trkpt>
      <trkpt lat="49.89041" lon="2.48051">
        <ele>41</ele>
        <time>2022-10-19T12:37:05Z</time>
      </trkpt>
      <trkpt lat="49.89041" lon="2.4805">
        <ele>41.1</ele>
        <time>2022-10-19T12:37:06Z</time>
      </trkpt>
      <trkpt lat="49.89039" lon="2.48047">
        <ele>41.1</ele>
        <time>2022-10-19T12:37:07Z</time>
      </trkpt>
      <trkpt lat="49.89039" lon="2.48046">
        <ele>41.1</ele>
        <time>2022-10-19T12:37:08Z</time>
      </trkpt>
      <trkpt lat="49.89039" lon="2.48045">
        <ele>41.2</ele>
        <time>2022-10-19T12:37:09Z</time>
      </trkpt>
      <trkpt lat="49.89038" lon="2.48042">
        <ele>41.2</ele>
        <time>2022-10-19T12:37:10Z</time>
      </trkpt>
      <trkpt lat="49.89037" lon="2.4804">
        <ele>41.2</ele>
        <time>2022-10-19T12:37:11Z</time>
      </trkpt>
      <trkpt lat="49.89037" lon="2.48037">
        <ele>41.3</ele>
        <time>2022-10-19T12:37:12Z</time>
      </trkpt>
      <trkpt lat="49.89036" lon="2.48036">
        <ele>41.3</ele>
        <time>2022-10-19T12:37:14Z</time>
      </trkpt>
      <trkpt lat="49.89036" lon="2.48034">
        <ele>41.4</ele>
        <time>2022-10-19T12:37:15Z</time>
      </trkpt>
      <trkpt lat="49.89036" lon="2.48033">
        <ele>41.4</ele>
        <time>2022-10-19T12:37:16Z</time>
      </trkpt>
      <trkpt lat="49.89035" lon="2.48031">
        <ele>41.4</ele>
        <time>2022-10-19T12:37:17Z</time>
      </trkpt>
      <trkpt lat="49.89035" lon="2.48029">
        <ele>41.5</ele>
        <time>2022-10-19T12:37:18Z</time>
      </trkpt>
      <trkpt lat="49.89035" lon="2.48027">
        <ele>41.5</ele>
        <time>2022-10-19T12:37:19Z</time>
      </trkpt>
      <trkpt lat="49.89034" lon="2.48025">
        <ele>41.5</ele>
        <time>2022-10-19T12:37:20Z</time>
      </trkpt>
      <trkpt lat="49.89034" lon="2.48022">
        <ele>41.6</ele>
        <time>2022-10-19T12:37:21Z</time>
      </trkpt>
      <trkpt lat="49.89033" lon="2.48021">
        <ele>41.6</ele>
        <time>2022-10-19T12:37:23Z</time>
      </trkpt>
      <trkpt lat="49.89033" lon="2.4802">
        <ele>41.6</ele>
        <time>2022-10-19T12:37:24Z</time>
      </trkpt>
      <trkpt lat="49.89033" lon="2.48017">
        <ele>41.7</ele>
        <time>2022-10-19T12:37:25Z</time>
      </trkpt>
      <trkpt lat="49.89033" lon="2.48016">
        <ele>41.7</ele>
        <time>2022-10-19T12:37:27Z</time>
      </trkpt>
      <trkpt lat="49.89032" lon="2.48014">
        <ele>41.7</ele>
        <time>2022-10-19T12:37:28Z</time>
      </trkpt>
      <trkpt lat="49.89032" lon="2.48013">
        <ele>41.7</ele>
        <time>2022-10-19T12:37:29Z</time>
      </trkpt>
      <trkpt lat="49.89031" lon="2.4801">
        <ele>41.8</ele>
        <time>2022-10-19T12:37:30Z</time>
      </trkpt>
      <trkpt lat="49.89031" lon="2.48009">
        <ele>41.8</ele>
        <time>2022-10-19T12:37:31Z</time>
      </trkpt>
      <trkpt lat="49.89031" lon="2.48008">
        <ele>41.8</ele>
        <time>2022-10-19T12:37:32Z</time>
      </trkpt>
      <trkpt lat="49.8903" lon="2.48006">
        <ele>41.9</ele>
        <time>2022-10-19T12:37:33Z</time>
      </trkpt>
      <trkpt lat="49.8903" lon="2.48004">
        <ele>41.9</ele>
        <time>2022-10-19T12:37:34Z</time>
      </trkpt>
      <trkpt lat="49.89029" lon="2.48002">
        <ele>41.9</ele>
        <time>2022-10-19T12:37:36Z</time>
      </trkpt>
      <trkpt lat="49.89029" lon="2.48">
        <ele>42</ele>
        <time>2022-10-19T12:37:37Z</time>
      </trkpt>
      <trkpt lat="49.89029" lon="2.47998">
        <ele>42</ele>
        <time>2022-10-19T12:37:38Z</time>
      </trkpt>
      <trkpt lat="49.89028" lon="2.47995">
        <ele>42.1</ele>
        <time>2022-10-19T12:37:40Z</time>
      </trkpt>
      <trkpt lat="49.89028" lon="2.47993">
        <ele>42.1</ele>
        <time>2022-10-19T12:37:41Z</time>
      </trkpt>
      <trkpt lat="49.89027" lon="2.47992">
        <ele>42.1</ele>
        <time>2022-10-19T12:37:42Z</time>
      </trkpt>
      <trkpt lat="49.89027" lon="2.4799">
        <ele>42.1</ele>
        <time>2022-10-19T12:37:43Z</time>
      </trkpt>
      <trkpt lat="49.89027" lon="2.47988">
        <ele>42.2</ele>
        <time>2022-10-19T12:37:44Z</time>
      </trkpt>
      <trkpt lat="49.89026" lon="2.47985">
        <ele>42.2</ele>
        <time>2022-10-19T12:37:45Z</time>
      </trkpt>
      <trkpt lat="49.89026" lon="2.47984">
        <ele>42.3</ele>
        <time>2022-10-19T12:37:46Z</time>
      </trkpt>
      <trkpt lat="49.89026" lon="2.47983">
        <ele>42.3</ele>
        <time>2022-10-19T12:37:47Z</time>
      </trkpt>
      <trkpt lat="49.89026" lon="2.47981">
        <ele>42.3</ele>
        <time>2022-10-19T12:37:48Z</time>
      </trkpt>
      <trkpt lat="49.89026" lon="2.47979">
        <ele>42.3</ele>
        <time>2022-10-19T12:37:50Z</time>
      </trkpt>
      <trkpt lat="49.89025" lon="2.47977">
        <ele>42.4</ele>
        <time>2022-10-19T12:37:51Z</time>
      </trkpt>
      <trkpt lat="49.89025" lon="2.47976">
        <ele>42.4</ele>
        <time>2022-10-19T12:37:52Z</time>
      </trkpt>
      <trkpt lat="49.89025" lon="2.47974">
        <ele>42.4</ele>
        <time>2022-10-19T12:37:53Z</time>
      </trkpt>
      <trkpt lat="49.89024" lon="2.47973">
        <ele>42.5</ele>
        <time>2022-10-19T12:37:54Z</time>
      </trkpt>
      <trkpt lat="49.89024" lon="2.4797">
        <ele>42.5</ele>
        <time>2022-10-19T12:37:55Z</time>
      </trkpt>
      <trkpt lat="49.89024" lon="2.47969">
        <ele>42.5</ele>
        <time>2022-10-19T12:37:56Z</time>
      </trkpt>
      <trkpt lat="49.89023" lon="2.47968">
        <ele>42.5</ele>
        <time>2022-10-19T12:37:57Z</time>
      </trkpt>
      <trkpt lat="49.89023" lon="2.47964">
        <ele>42.6</ele>
        <time>2022-10-19T12:37:59Z</time>
      </trkpt>
      <trkpt lat="49.89022" lon="2.47963">
        <ele>42.6</ele>
        <time>2022-10-19T12:38:00Z</time>
      </trkpt>
      <trkpt lat="49.89022" lon="2.47962">
        <ele>42.6</ele>
        <time>2022-10-19T12:38:01Z</time>
      </trkpt>
      <trkpt lat="49.89022" lon="2.47961">
        <ele>42.6</ele>
        <time>2022-10-19T12:38:02Z</time>
      </trkpt>
      <trkpt lat="49.89021" lon="2.47959">
        <ele>42.7</ele>
        <time>2022-10-19T12:38:03Z</time>
      </trkpt>
      <trkpt lat="49.89021" lon="2.47957">
        <ele>42.7</ele>
        <time>2022-10-19T12:38:04Z</time>
      </trkpt>
      <trkpt lat="49.89021" lon="2.47955">
        <ele>42.7</ele>
        <time>2022-10-19T12:38:05Z</time>
      </trkpt>
      <trkpt lat="49.8902" lon="2.47954">
        <ele>42.8</ele>
        <time>2022-10-19T12:38:06Z</time>
      </trkpt>
      <trkpt lat="49.8902" lon="2.47952">
        <ele>42.8</ele>
        <time>2022-10-19T12:38:07Z</time>
      </trkpt>
      <trkpt lat="49.8902" lon="2.47949">
        <ele>42.8</ele>
        <time>2022-10-19T12:38:08Z</time>
      </trkpt>
      <trkpt lat="49.89019" lon="2.47947">
        <ele>42.8</ele>
        <time>2022-10-19T12:38:10Z</time>
      </trkpt>
      <trkpt lat="49.89019" lon="2.47946">
        <ele>42.9</ele>
        <time>2022-10-19T12:38:11Z</time>
      </trkpt>
      <trkpt lat="49.89019" lon="2.47944">
        <ele>42.9</ele>
        <time>2022-10-19T12:38:12Z</time>
      </trkpt>
      <trkpt lat="49.89019" lon="2.47942">
        <ele>42.9</ele>
        <time>2022-10-19T12:38:13Z</time>
      </trkpt>
      <trkpt lat="49.89019" lon="2.47941">
        <ele>43</ele>
        <time>2022-10-19T12:38:14Z</time>
      </trkpt>
      <trkpt lat="49.89019" lon="2.47937">
        <ele>43</ele>
        <time>2022-10-19T12:38:16Z</time>
      </trkpt>
      <trkpt lat="49.89018" lon="2.47935">
        <ele>43</ele>
        <time>2022-10-19T12:38:17Z</time>
      </trkpt>
      <trkpt lat="49.89018" lon="2.47932">
        <ele>43.1</ele>
        <time>2022-10-19T12:38:18Z</time>
      </trkpt>
      <trkpt lat="49.89018" lon="2.4793">
        <ele>43.1</ele>
        <time>2022-10-19T12:38:19Z</time>
      </trkpt>
      <trkpt lat="49.89018" lon="2.47928">
        <ele>43.1</ele>
        <time>2022-10-19T12:38:20Z</time>
      </trkpt>
      <trkpt lat="49.89017" lon="2.47927">
        <ele>43.2</ele>
        <time>2022-10-19T12:38:21Z</time>
      </trkpt>
      <trkpt lat="49.89017" lon="2.47925">
        <ele>43.2</ele>
        <time>2022-10-19T12:38:22Z</time>
      </trkpt>
      <trkpt lat="49.89016" lon="2.47921">
        <ele>43.3</ele>
        <time>2022-10-19T12:38:25Z</time>
      </trkpt>
      <trkpt lat="49.89016" lon="2.47918">
        <ele>43.3</ele>
        <time>2022-10-19T12:38:26Z</time>
      </trkpt>
      <trkpt lat="49.89016" lon="2.47916">
        <ele>43.4</ele>
        <time>2022-10-19T12:38:27Z</time>
      </trkpt>
      <trkpt lat="49.89016" lon="2.47914">
        <ele>43.4</ele>
        <time>2022-10-19T12:38:28Z</time>
      </trkpt>
      <trkpt lat="49.89016" lon="2.47913">
        <ele>43.4</ele>
        <time>2022-10-19T12:38:29Z</time>
      </trkpt>
      <trkpt lat="49.89016" lon="2.4791">
        <ele>43.5</ele>
        <time>2022-10-19T12:38:30Z</time>
      </trkpt>
      <trkpt lat="49.89015" lon="2.47909">
        <ele>43.5</ele>
        <time>2022-10-19T12:38:31Z</time>
      </trkpt>
      <trkpt lat="49.89015" lon="2.47907">
        <ele>43.6</ele>
        <time>2022-10-19T12:38:33Z</time>
      </trkpt>
      <trkpt lat="49.89015" lon="2.47904">
        <ele>43.6</ele>
        <time>2022-10-19T12:38:34Z</time>
      </trkpt>
      <trkpt lat="49.89015" lon="2.47902">
        <ele>43.7</ele>
        <time>2022-10-19T12:38:35Z</time>
      </trkpt>
      <trkpt lat="49.89014" lon="2.47901">
        <ele>43.7</ele>
        <time>2022-10-19T12:38:36Z</time>
      </trkpt>
      <trkpt lat="49.89014" lon="2.479">
        <ele>43.7</ele>
        <time>2022-10-19T12:38:37Z</time>
      </trkpt>
      <trkpt lat="49.89014" lon="2.47899">
        <ele>43.7</ele>
        <time>2022-10-19T12:38:38Z</time>
      </trkpt>
      <trkpt lat="49.89014" lon="2.47897">
        <ele>43.8</ele>
        <time>2022-10-19T12:38:39Z</time>
      </trkpt>
      <trkpt lat="49.89014" lon="2.47895">
        <ele>43.8</ele>
        <time>2022-10-19T12:38:41Z</time>
      </trkpt>
      <trkpt lat="49.89013" lon="2.47893">
        <ele>43.8</ele>
        <time>2022-10-19T12:38:42Z</time>
      </trkpt>
      <trkpt lat="49.89013" lon="2.47892">
        <ele>43.9</ele>
        <time>2022-10-19T12:38:43Z</time>
      </trkpt>
      <trkpt lat="49.89013" lon="2.4789">
        <ele>43.9</ele>
        <time>2022-10-19T12:38:44Z</time>
      </trkpt>
      <trkpt lat="49.89013" lon="2.47888">
        <ele>43.9</ele>
        <time>2022-10-19T12:38:45Z</time>
      </trkpt>
      <trkpt lat="49.89012" lon="2.47886">
        <ele>44</ele>
        <time>2022-10-19T12:38:46Z</time>
      </trkpt>
      <trkpt lat="49.89012" lon="2.47885">
        <ele>44</ele>
        <time>2022-10-19T12:38:47Z</time>
      </trkpt>
      <trkpt lat="49.89012" lon="2.47882">
        <ele>44</ele>
        <time>2022-10-19T12:38:48Z</time>
      </trkpt>
      <trkpt lat="49.89012" lon="2.47881">
        <ele>44.1</ele>
        <time>2022-10-19T12:38:50Z</time>
      </trkpt>
      <trkpt lat="49.89011" lon="2.47879">
        <ele>44.1</ele>
        <time>2022-10-19T12:38:51Z</time>
      </trkpt>
      <trkpt lat="49.89011" lon="2.47878">
        <ele>44.1</ele>
        <time>2022-10-19T12:38:52Z</time>
      </trkpt>
      <trkpt lat="49.89011" lon="2.47876">
        <ele>44.1</ele>
        <time>2022-10-19T12:38:53Z</time>
      </trkpt>
      <trkpt lat="49.89011" lon="2.47874">
        <ele>44.2</ele>
        <time>2022-10-19T12:38:54Z</time>
      </trkpt>
      <trkpt lat="49.8901" lon="2.47872">
        <ele>44.2</ele>
        <time>2022-10-19T12:38:55Z</time>
      </trkpt>
      <trkpt lat="49.8901" lon="2.4787">
        <ele>44.2</ele>
        <time>2022-10-19T12:38:56Z</time>
      </trkpt>
      <trkpt lat="49.8901" lon="2.47868">
        <ele>44.2</ele>
        <time>2022-10-19T12:38:58Z</time>
      </trkpt>
      <trkpt lat="49.8901" lon="2.47867">
        <ele>44.3</ele>
        <time>2022-10-19T12:38:59Z</time>
      </trkpt>
      <trkpt lat="49.8901" lon="2.47865">
        <ele>44.3</ele>
        <time>2022-10-19T12:39:00Z</time>
      </trkpt>
      <trkpt lat="49.8901" lon="2.47864">
        <ele>44.3</ele>
        <time>2022-10-19T12:39:01Z</time>
      </trkpt>
      <trkpt lat="49.89009" lon="2.47862">
        <ele>44.3</ele>
        <time>2022-10-19T12:39:02Z</time>
      </trkpt>
      <trkpt lat="49.89009" lon="2.47861">
        <ele>44.3</ele>
        <time>2022-10-19T12:39:03Z</time>
      </trkpt>
      <trkpt lat="49.89009" lon="2.4786">
        <ele>44.3</ele>
        <time>2022-10-19T12:39:04Z</time>
      </trkpt>
      <trkpt lat="49.89009" lon="2.47857">
        <ele>44.4</ele>
        <time>2022-10-19T12:39:05Z</time>
      </trkpt>
      <trkpt lat="49.89009" lon="2.47856">
        <ele>44.4</ele>
        <time>2022-10-19T12:39:06Z</time>
      </trkpt>
      <trkpt lat="49.89008" lon="2.47854">
        <ele>44.4</ele>
        <time>2022-10-19T12:39:08Z</time>
      </trkpt>
      <trkpt lat="49.89008" lon="2.47852">
        <ele>44.4</ele>
        <time>2022-10-19T12:39:09Z</time>
      </trkpt>
      <trkpt lat="49.89008" lon="2.4785">
        <ele>44.4</ele>
        <time>2022-10-19T12:39:10Z</time>
      </trkpt>
      <trkpt lat="49.89007" lon="2.47847">
        <ele>44.4</ele>
        <time>2022-10-19T12:39:12Z</time>
      </trkpt>
      <trkpt lat="49.89007" lon="2.47845">
        <ele>44.4</ele>
        <time>2022-10-19T12:39:13Z</time>
      </trkpt>
      <trkpt lat="49.89007" lon="2.47844">
        <ele>44.4</ele>
        <time>2022-10-19T12:39:14Z</time>
      </trkpt>
      <trkpt lat="49.89007" lon="2.47842">
        <ele>44.4</ele>
        <time>2022-10-19T12:39:15Z</time>
      </trkpt>
      <trkpt lat="49.89006" lon="2.4784">
        <ele>44.4</ele>
        <time>2022-10-19T12:39:16Z</time>
      </trkpt>
      <trkpt lat="49.89006" lon="2.47839">
        <ele>44.5</ele>
        <time>2022-10-19T12:39:17Z</time>
      </trkpt>
      <trkpt lat="49.89006" lon="2.47837">
        <ele>44.5</ele>
        <time>2022-10-19T12:39:18Z</time>
      </trkpt>
      <trkpt lat="49.89006" lon="2.47835">
        <ele>44.5</ele>
        <time>2022-10-19T12:39:19Z</time>
      </trkpt>
      <trkpt lat="49.89005" lon="2.47832">
        <ele>44.5</ele>
        <time>2022-10-19T12:39:21Z</time>
      </trkpt>
      <trkpt lat="49.89005" lon="2.47831">
        <ele>44.5</ele>
        <time>2022-10-19T12:39:22Z</time>
      </trkpt>
      <trkpt lat="49.89005" lon="2.47829">
        <ele>44.5</ele>
        <time>2022-10-19T12:39:23Z</time>
      </trkpt>
      <trkpt lat="49.89005" lon="2.47828">
        <ele>44.5</ele>
        <time>2022-10-19T12:39:24Z</time>
      </trkpt>
      <trkpt lat="49.89004" lon="2.47825">
        <ele>44.5</ele>
        <time>2022-10-19T12:39:25Z</time>
      </trkpt>
      <trkpt lat="49.89004" lon="2.47823">
        <ele>44.5</ele>
        <time>2022-10-19T12:39:26Z</time>
      </trkpt>
      <trkpt lat="49.89004" lon="2.47821">
        <ele>44.5</ele>
        <time>2022-10-19T12:39:27Z</time>
      </trkpt>
      <trkpt lat="49.89004" lon="2.47819">
        <ele>44.6</ele>
        <time>2022-10-19T12:39:29Z</time>
      </trkpt>
      <trkpt lat="49.89004" lon="2.47818">
        <ele>44.6</ele>
        <time>2022-10-19T12:39:30Z</time>
      </trkpt>
      <trkpt lat="49.89003" lon="2.47815">
        <ele>44.6</ele>
        <time>2022-10-19T12:39:31Z</time>
      </trkpt>
      <trkpt lat="49.89003" lon="2.47814">
        <ele>44.6</ele>
        <time>2022-10-19T12:39:32Z</time>
      </trkpt>
      <trkpt lat="49.89003" lon="2.47812">
        <ele>44.6</ele>
        <time>2022-10-19T12:39:33Z</time>
      </trkpt>
      <trkpt lat="49.89003" lon="2.47811">
        <ele>44.7</ele>
        <time>2022-10-19T12:39:34Z</time>
      </trkpt>
      <trkpt lat="49.89003" lon="2.47807">
        <ele>44.7</ele>
        <time>2022-10-19T12:39:35Z</time>
      </trkpt>
      <trkpt lat="49.89002" lon="2.47806">
        <ele>44.7</ele>
        <time>2022-10-19T12:39:36Z</time>
      </trkpt>
      <trkpt lat="49.89002" lon="2.47805">
        <ele>44.7</ele>
        <time>2022-10-19T12:39:37Z</time>
      </trkpt>
      <trkpt lat="49.89002" lon="2.47801">
        <ele>44.8</ele>
        <time>2022-10-19T12:39:39Z</time>
      </trkpt>
      <trkpt lat="49.89002" lon="2.478">
        <ele>44.8</ele>
        <time>2022-10-19T12:39:40Z</time>
      </trkpt>
      <trkpt lat="49.89002" lon="2.47798">
        <ele>44.8</ele>
        <time>2022-10-19T12:39:41Z</time>
      </trkpt>
      <trkpt lat="49.89003" lon="2.47797">
        <ele>44.8</ele>
        <time>2022-10-19T12:39:42Z</time>
      </trkpt>
      <trkpt lat="49.89002" lon="2.47795">
        <ele>44.8</ele>
        <time>2022-10-19T12:39:43Z</time>
      </trkpt>
      <trkpt lat="49.89002" lon="2.47793">
        <ele>44.8</ele>
        <time>2022-10-19T12:39:44Z</time>
      </trkpt>
      <trkpt lat="49.89003" lon="2.4779">
        <ele>44.9</ele>
        <time>2022-10-19T12:39:45Z</time>
      </trkpt>
      <trkpt lat="49.89003" lon="2.47788">
        <ele>44.9</ele>
        <time>2022-10-19T12:39:46Z</time>
      </trkpt>
      <trkpt lat="49.89003" lon="2.47787">
        <ele>44.9</ele>
        <time>2022-10-19T12:39:48Z</time>
      </trkpt>
      <trkpt lat="49.89003" lon="2.47785">
        <ele>44.9</ele>
        <time>2022-10-19T12:39:49Z</time>
      </trkpt>
      <trkpt lat="49.89003" lon="2.47783">
        <ele>45</ele>
        <time>2022-10-19T12:39:50Z</time>
      </trkpt>
      <trkpt lat="49.89003" lon="2.47782">
        <ele>45</ele>
        <time>2022-10-19T12:39:51Z</time>
      </trkpt>
      <trkpt lat="49.89003" lon="2.4778">
        <ele>45</ele>
        <time>2022-10-19T12:39:52Z</time>
      </trkpt>
      <trkpt lat="49.89003" lon="2.47779">
        <ele>45</ele>
        <time>2022-10-19T12:39:53Z</time>
      </trkpt>
      <trkpt lat="49.89003" lon="2.47777">
        <ele>45</ele>
        <time>2022-10-19T12:39:54Z</time>
      </trkpt>
      <trkpt lat="49.89002" lon="2.47775">
        <ele>45</ele>
        <time>2022-10-19T12:39:55Z</time>
      </trkpt>
      <trkpt lat="49.89002" lon="2.47773">
        <ele>45.1</ele>
        <time>2022-10-19T12:39:56Z</time>
      </trkpt>
      <trkpt lat="49.89002" lon="2.47771">
        <ele>45.1</ele>
        <time>2022-10-19T12:39:58Z</time>
      </trkpt>
      <trkpt lat="49.89002" lon="2.47769">
        <ele>45.1</ele>
        <time>2022-10-19T12:39:59Z</time>
      </trkpt>
      <trkpt lat="49.89001" lon="2.47768">
        <ele>45.1</ele>
        <time>2022-10-19T12:40:00Z</time>
      </trkpt>
      <trkpt lat="49.89001" lon="2.47766">
        <ele>45.1</ele>
        <time>2022-10-19T12:40:01Z</time>
      </trkpt>
      <trkpt lat="49.89001" lon="2.47765">
        <ele>45.2</ele>
        <time>2022-10-19T12:40:02Z</time>
      </trkpt>
      <trkpt lat="49.89" lon="2.47764">
        <ele>45.2</ele>
        <time>2022-10-19T12:40:03Z</time>
      </trkpt>
      <trkpt lat="49.89" lon="2.47762">
        <ele>45.2</ele>
        <time>2022-10-19T12:40:04Z</time>
      </trkpt>
      <trkpt lat="49.89" lon="2.47761">
        <ele>45.2</ele>
        <time>2022-10-19T12:40:06Z</time>
      </trkpt>
      <trkpt lat="49.88999" lon="2.47759">
        <ele>45.2</ele>
        <time>2022-10-19T12:40:07Z</time>
      </trkpt>
      <trkpt lat="49.88999" lon="2.47757">
        <ele>45.2</ele>
        <time>2022-10-19T12:40:08Z</time>
      </trkpt>
      <trkpt lat="49.88999" lon="2.47756">
        <ele>45.2</ele>
        <time>2022-10-19T12:40:09Z</time>
      </trkpt>
      <trkpt lat="49.88998" lon="2.47755">
        <ele>45.3</ele>
        <time>2022-10-19T12:40:10Z</time>
      </trkpt>
      <trkpt lat="49.88998" lon="2.47754">
        <ele>45.3</ele>
        <time>2022-10-19T12:40:11Z</time>
      </trkpt>
      <trkpt lat="49.88998" lon="2.47752">
        <ele>45.3</ele>
        <time>2022-10-19T12:40:13Z</time>
      </trkpt>
      <trkpt lat="49.88998" lon="2.4775">
        <ele>45.3</ele>
        <time>2022-10-19T12:40:14Z</time>
      </trkpt>
      <trkpt lat="49.88997" lon="2.47749">
        <ele>45.3</ele>
        <time>2022-10-19T12:40:15Z</time>
      </trkpt>
      <trkpt lat="49.88997" lon="2.47747">
        <ele>45.3</ele>
        <time>2022-10-19T12:40:16Z</time>
      </trkpt>
      <trkpt lat="49.88997" lon="2.47745">
        <ele>45.3</ele>
        <time>2022-10-19T12:40:17Z</time>
      </trkpt>
      <trkpt lat="49.88997" lon="2.47743">
        <ele>45.4</ele>
        <time>2022-10-19T12:40:18Z</time>
      </trkpt>
      <trkpt lat="49.88996" lon="2.4774">
        <ele>45.4</ele>
        <time>2022-10-19T12:40:19Z</time>
      </trkpt>
      <trkpt lat="49.88996" lon="2.47739">
        <ele>45.4</ele>
        <time>2022-10-19T12:40:20Z</time>
      </trkpt>
      <trkpt lat="49.88996" lon="2.47738">
        <ele>45.4</ele>
        <time>2022-10-19T12:40:21Z</time>
      </trkpt>
      <trkpt lat="49.88995" lon="2.47736">
        <ele>45.4</ele>
        <time>2022-10-19T12:40:23Z</time>
      </trkpt>
      <trkpt lat="49.88995" lon="2.47734">
        <ele>45.4</ele>
        <time>2022-10-19T12:40:24Z</time>
      </trkpt>
      <trkpt lat="49.88995" lon="2.47732">
        <ele>45.5</ele>
        <time>2022-10-19T12:40:25Z</time>
      </trkpt>
      <trkpt lat="49.88994" lon="2.47729">
        <ele>45.5</ele>
        <time>2022-10-19T12:40:26Z</time>
      </trkpt>
      <trkpt lat="49.88994" lon="2.47728">
        <ele>45.5</ele>
        <time>2022-10-19T12:40:27Z</time>
      </trkpt>
      <trkpt lat="49.88994" lon="2.47727">
        <ele>45.5</ele>
        <time>2022-10-19T12:40:28Z</time>
      </trkpt>
      <trkpt lat="49.88994" lon="2.47725">
        <ele>45.5</ele>
        <time>2022-10-19T12:40:29Z</time>
      </trkpt>
      <trkpt lat="49.88993" lon="2.47723">
        <ele>45.6</ele>
        <time>2022-10-19T12:40:30Z</time>
      </trkpt>
      <trkpt lat="49.88993" lon="2.47721">
        <ele>45.6</ele>
        <time>2022-10-19T12:40:32Z</time>
      </trkpt>
      <trkpt lat="49.88993" lon="2.47719">
        <ele>45.6</ele>
        <time>2022-10-19T12:40:33Z</time>
      </trkpt>
      <trkpt lat="49.88992" lon="2.47717">
        <ele>45.6</ele>
        <time>2022-10-19T12:40:34Z</time>
      </trkpt>
      <trkpt lat="49.88992" lon="2.47715">
        <ele>45.6</ele>
        <time>2022-10-19T12:40:35Z</time>
      </trkpt>
      <trkpt lat="49.88992" lon="2.47712">
        <ele>45.7</ele>
        <time>2022-10-19T12:40:37Z</time>
      </trkpt>
      <trkpt lat="49.88991" lon="2.4771">
        <ele>45.7</ele>
        <time>2022-10-19T12:40:38Z</time>
      </trkpt>
      <trkpt lat="49.88991" lon="2.47708">
        <ele>45.7</ele>
        <time>2022-10-19T12:40:39Z</time>
      </trkpt>
      <trkpt lat="49.88991" lon="2.47706">
        <ele>45.7</ele>
        <time>2022-10-19T12:40:40Z</time>
      </trkpt>
      <trkpt lat="49.88991" lon="2.47703">
        <ele>45.7</ele>
        <time>2022-10-19T12:40:41Z</time>
      </trkpt>
      <trkpt lat="49.88991" lon="2.47701">
        <ele>45.7</ele>
        <time>2022-10-19T12:40:42Z</time>
      </trkpt>
      <trkpt lat="49.88991" lon="2.47699">
        <ele>45.8</ele>
        <time>2022-10-19T12:40:43Z</time>
      </trkpt>
      <trkpt lat="49.88991" lon="2.47698">
        <ele>45.8</ele>
        <time>2022-10-19T12:40:44Z</time>
      </trkpt>
      <trkpt lat="49.88991" lon="2.47696">
        <ele>45.8</ele>
        <time>2022-10-19T12:40:45Z</time>
      </trkpt>
      <trkpt lat="49.88991" lon="2.47694">
        <ele>45.8</ele>
        <time>2022-10-19T12:40:47Z</time>
      </trkpt>
      <trkpt lat="49.88991" lon="2.47692">
        <ele>45.8</ele>
        <time>2022-10-19T12:40:48Z</time>
      </trkpt>
      <trkpt lat="49.88991" lon="2.47688">
        <ele>45.9</ele>
        <time>2022-10-19T12:40:49Z</time>
      </trkpt>
      <trkpt lat="49.88991" lon="2.47687">
        <ele>45.9</ele>
        <time>2022-10-19T12:40:50Z</time>
      </trkpt>
      <trkpt lat="49.8899" lon="2.47686">
        <ele>45.9</ele>
        <time>2022-10-19T12:40:51Z</time>
      </trkpt>
      <trkpt lat="49.8899" lon="2.47684">
        <ele>45.9</ele>
        <time>2022-10-19T12:40:52Z</time>
      </trkpt>
      <trkpt lat="49.8899" lon="2.47682">
        <ele>45.9</ele>
        <time>2022-10-19T12:40:53Z</time>
      </trkpt>
      <trkpt lat="49.88989" lon="2.47681">
        <ele>45.9</ele>
        <time>2022-10-19T12:40:54Z</time>
      </trkpt>
      <trkpt lat="49.88989" lon="2.47678">
        <ele>46</ele>
        <time>2022-10-19T12:40:55Z</time>
      </trkpt>
      <trkpt lat="49.88989" lon="2.47676">
        <ele>46</ele>
        <time>2022-10-19T12:40:57Z</time>
      </trkpt>
      <trkpt lat="49.88989" lon="2.47675">
        <ele>46</ele>
        <time>2022-10-19T12:40:58Z</time>
      </trkpt>
      <trkpt lat="49.88988" lon="2.47673">
        <ele>46</ele>
        <time>2022-10-19T12:40:59Z</time>
      </trkpt>
      <trkpt lat="49.88988" lon="2.47671">
        <ele>46</ele>
        <time>2022-10-19T12:41:00Z</time>
      </trkpt>
      <trkpt lat="49.88987" lon="2.47667">
        <ele>46.1</ele>
        <time>2022-10-19T12:41:02Z</time>
      </trkpt>
      <trkpt lat="49.88987" lon="2.47666">
        <ele>46.1</ele>
        <time>2022-10-19T12:41:03Z</time>
      </trkpt>
      <trkpt lat="49.88987" lon="2.47664">
        <ele>46.1</ele>
        <time>2022-10-19T12:41:04Z</time>
      </trkpt>
      <trkpt lat="49.88986" lon="2.47662">
        <ele>46.1</ele>
        <time>2022-10-19T12:41:05Z</time>
      </trkpt>
      <trkpt lat="49.88986" lon="2.4766">
        <ele>46.1</ele>
        <time>2022-10-19T12:41:07Z</time>
      </trkpt>
      <trkpt lat="49.88986" lon="2.47658">
        <ele>46.2</ele>
        <time>2022-10-19T12:41:08Z</time>
      </trkpt>
      <trkpt lat="49.88986" lon="2.47655">
        <ele>46.2</ele>
        <time>2022-10-19T12:41:09Z</time>
      </trkpt>
      <trkpt lat="49.88986" lon="2.47654">
        <ele>46.2</ele>
        <time>2022-10-19T12:41:11Z</time>
      </trkpt>
      <trkpt lat="49.88986" lon="2.47652">
        <ele>46.2</ele>
        <time>2022-10-19T12:41:12Z</time>
      </trkpt>
      <trkpt lat="49.88986" lon="2.47651">
        <ele>46.2</ele>
        <time>2022-10-19T12:41:13Z</time>
      </trkpt>
      <trkpt lat="49.88986" lon="2.4765">
        <ele>46.2</ele>
        <time>2022-10-19T12:41:14Z</time>
      </trkpt>
      <trkpt lat="49.88986" lon="2.47648">
        <ele>46.2</ele>
        <time>2022-10-19T12:41:15Z</time>
      </trkpt>
      <trkpt lat="49.88986" lon="2.47646">
        <ele>46.2</ele>
        <time>2022-10-19T12:41:17Z</time>
      </trkpt>
      <trkpt lat="49.88986" lon="2.47645">
        <ele>46.2</ele>
        <time>2022-10-19T12:41:18Z</time>
      </trkpt>
      <trkpt lat="49.88986" lon="2.47643">
        <ele>46.2</ele>
        <time>2022-10-19T12:41:19Z</time>
      </trkpt>
      <trkpt lat="49.88986" lon="2.47642">
        <ele>46.2</ele>
        <time>2022-10-19T12:41:20Z</time>
      </trkpt>
      <trkpt lat="49.88986" lon="2.47639">
        <ele>46.2</ele>
        <time>2022-10-19T12:41:21Z</time>
      </trkpt>
      <trkpt lat="49.88986" lon="2.47638">
        <ele>46.2</ele>
        <time>2022-10-19T12:41:22Z</time>
      </trkpt>
      <trkpt lat="49.88986" lon="2.47637">
        <ele>46.2</ele>
        <time>2022-10-19T12:41:24Z</time>
      </trkpt>
      <trkpt lat="49.88986" lon="2.47635">
        <ele>46.3</ele>
        <time>2022-10-19T12:41:25Z</time>
      </trkpt>
      <trkpt lat="49.88986" lon="2.47634">
        <ele>46.3</ele>
        <time>2022-10-19T12:41:26Z</time>
      </trkpt>
      <trkpt lat="49.88985" lon="2.47632">
        <ele>46.3</ele>
        <time>2022-10-19T12:41:27Z</time>
      </trkpt>
      <trkpt lat="49.88985" lon="2.47631">
        <ele>46.3</ele>
        <time>2022-10-19T12:41:28Z</time>
      </trkpt>
      <trkpt lat="49.88985" lon="2.47629">
        <ele>46.3</ele>
        <time>2022-10-19T12:41:29Z</time>
      </trkpt>
      <trkpt lat="49.88985" lon="2.47627">
        <ele>46.3</ele>
        <time>2022-10-19T12:41:30Z</time>
      </trkpt>
      <trkpt lat="49.88985" lon="2.47624">
        <ele>46.4</ele>
        <time>2022-10-19T12:41:31Z</time>
      </trkpt>
      <trkpt lat="49.88985" lon="2.47623">
        <ele>46.4</ele>
        <time>2022-10-19T12:41:32Z</time>
      </trkpt>
      <trkpt lat="49.88985" lon="2.47621">
        <ele>46.4</ele>
        <time>2022-10-19T12:41:33Z</time>
      </trkpt>
      <trkpt lat="49.88984" lon="2.47618">
        <ele>46.4</ele>
        <time>2022-10-19T12:41:35Z</time>
      </trkpt>
      <trkpt lat="49.88984" lon="2.47617">
        <ele>46.4</ele>
        <time>2022-10-19T12:41:36Z</time>
      </trkpt>
      <trkpt lat="49.88983" lon="2.47615">
        <ele>46.5</ele>
        <time>2022-10-19T12:41:37Z</time>
      </trkpt>
      <trkpt lat="49.88983" lon="2.47614">
        <ele>46.5</ele>
        <time>2022-10-19T12:41:38Z</time>
      </trkpt>
      <trkpt lat="49.88983" lon="2.47612">
        <ele>46.5</ele>
        <time>2022-10-19T12:41:40Z</time>
      </trkpt>
      <trkpt lat="49.88983" lon="2.4761">
        <ele>46.5</ele>
        <time>2022-10-19T12:41:41Z</time>
      </trkpt>
      <trkpt lat="49.88982" lon="2.47607">
        <ele>46.5</ele>
        <time>2022-10-19T12:41:42Z</time>
      </trkpt>
      <trkpt lat="49.88982" lon="2.47606">
        <ele>46.6</ele>
        <time>2022-10-19T12:41:43Z</time>
      </trkpt>
      <trkpt lat="49.88982" lon="2.47604">
        <ele>46.6</ele>
        <time>2022-10-19T12:41:44Z</time>
      </trkpt>
      <trkpt lat="49.88981" lon="2.47602">
        <ele>46.6</ele>
        <time>2022-10-19T12:41:45Z</time>
      </trkpt>
      <trkpt lat="49.88981" lon="2.476">
        <ele>46.6</ele>
        <time>2022-10-19T12:41:46Z</time>
      </trkpt>
      <trkpt lat="49.88981" lon="2.47598">
        <ele>46.6</ele>
        <time>2022-10-19T12:41:48Z</time>
      </trkpt>
      <trkpt lat="49.8898" lon="2.47597">
        <ele>46.6</ele>
        <time>2022-10-19T12:41:49Z</time>
      </trkpt>
      <trkpt lat="49.8898" lon="2.47595">
        <ele>46.6</ele>
        <time>2022-10-19T12:41:50Z</time>
      </trkpt>
      <trkpt lat="49.8898" lon="2.47594">
        <ele>46.7</ele>
        <time>2022-10-19T12:41:51Z</time>
      </trkpt>
      <trkpt lat="49.8898" lon="2.47593">
        <ele>46.7</ele>
        <time>2022-10-19T12:41:52Z</time>
      </trkpt>
      <trkpt lat="49.88979" lon="2.47592">
        <ele>46.7</ele>
        <time>2022-10-19T12:41:53Z</time>
      </trkpt>
      <trkpt lat="49.88979" lon="2.47591">
        <ele>46.7</ele>
        <time>2022-10-19T12:41:55Z</time>
      </trkpt>
      <trkpt lat="49.88978" lon="2.4759">
        <ele>46.7</ele>
        <time>2022-10-19T12:41:56Z</time>
      </trkpt>
      <trkpt lat="49.88978" lon="2.47588">
        <ele>46.7</ele>
        <time>2022-10-19T12:41:57Z</time>
      </trkpt>
      <trkpt lat="49.88977" lon="2.47587">
        <ele>46.7</ele>
        <time>2022-10-19T12:41:58Z</time>
      </trkpt>
      <trkpt lat="49.88977" lon="2.47586">
        <ele>46.7</ele>
        <time>2022-10-19T12:41:59Z</time>
      </trkpt>
      <trkpt lat="49.88977" lon="2.47585">
        <ele>46.7</ele>
        <time>2022-10-19T12:42:01Z</time>
      </trkpt>
      <trkpt lat="49.88978" lon="2.47583">
        <ele>46.7</ele>
        <time>2022-10-19T12:42:02Z</time>
      </trkpt>
      <trkpt lat="49.88978" lon="2.47581">
        <ele>46.7</ele>
        <time>2022-10-19T12:42:03Z</time>
      </trkpt>
      <trkpt lat="49.88979" lon="2.47578">
        <ele>46.7</ele>
        <time>2022-10-19T12:42:04Z</time>
      </trkpt>
      <trkpt lat="49.8898" lon="2.47577">
        <ele>46.7</ele>
        <time>2022-10-19T12:42:06Z</time>
      </trkpt>
      <trkpt lat="49.8898" lon="2.47576">
        <ele>46.7</ele>
        <time>2022-10-19T12:42:07Z</time>
      </trkpt>
      <trkpt lat="49.88981" lon="2.47575">
        <ele>46.7</ele>
        <time>2022-10-19T12:42:08Z</time>
      </trkpt>
      <trkpt lat="49.88981" lon="2.47573">
        <ele>46.7</ele>
        <time>2022-10-19T12:42:09Z</time>
      </trkpt>
      <trkpt lat="49.88981" lon="2.47571">
        <ele>46.7</ele>
        <time>2022-10-19T12:42:11Z</time>
      </trkpt>
      <trkpt lat="49.88981" lon="2.47569">
        <ele>46.7</ele>
        <time>2022-10-19T12:42:12Z</time>
      </trkpt>
      <trkpt lat="49.88981" lon="2.47567">
        <ele>46.6</ele>
        <time>2022-10-19T12:42:14Z</time>
      </trkpt>
      <trkpt lat="49.88981" lon="2.47566">
        <ele>46.6</ele>
        <time>2022-10-19T12:42:15Z</time>
      </trkpt>
      <trkpt lat="49.88981" lon="2.47565">
        <ele>46.6</ele>
        <time>2022-10-19T12:42:16Z</time>
      </trkpt>
      <trkpt lat="49.88981" lon="2.47565">
        <ele>46.6</ele>
        <time>2022-10-19T12:42:17Z</time>
      </trkpt>
      <trkpt lat="49.88981" lon="2.47564">
        <ele>46.6</ele>
        <time>2022-10-19T12:42:18Z</time>
      </trkpt>
      <trkpt lat="49.88981" lon="2.47564">
        <ele>46.6</ele>
        <time>2022-10-19T12:42:19Z</time>
      </trkpt>
      <trkpt lat="49.88981" lon="2.47564">
        <ele>46.6</ele>
        <time>2022-10-19T12:42:20Z</time>
      </trkpt>
      <trkpt lat="49.88981" lon="2.47564">
        <ele>46.6</ele>
        <time>2022-10-19T12:42:21Z</time>
      </trkpt>
      <trkpt lat="49.88981" lon="2.47564">
        <ele>46.6</ele>
        <time>2022-10-19T12:42:22Z</time>
      </trkpt>
      <trkpt lat="49.88981" lon="2.47564">
        <ele>46.6</ele>
        <time>2022-10-19T12:42:23Z</time>
      </trkpt>
      <trkpt lat="49.88981" lon="2.47564">
        <ele>46.6</ele>
        <time>2022-10-19T12:42:24Z</time>
      </trkpt>
      <trkpt lat="49.88981" lon="2.47565">
        <ele>46.6</ele>
        <time>2022-10-19T12:42:25Z</time>
      </trkpt>
      <trkpt lat="49.88981" lon="2.47565">
        <ele>46.6</ele>
        <time>2022-10-19T12:42:26Z</time>
      </trkpt>
      <trkpt lat="49.8898" lon="2.47565">
        <ele>46.6</ele>
        <time>2022-10-19T12:42:27Z</time>
      </trkpt>
      <trkpt lat="49.8898" lon="2.47565">
        <ele>46.6</ele>
        <time>2022-10-19T12:42:28Z</time>
      </trkpt>
      <trkpt lat="49.8898" lon="2.47565">
        <ele>46.6</ele>
        <time>2022-10-19T12:42:29Z</time>
      </trkpt>
      <trkpt lat="49.8898" lon="2.47565">
        <ele>46.6</ele>
        <time>2022-10-19T12:42:30Z</time>
      </trkpt>
      <trkpt lat="49.8898" lon="2.47565">
        <ele>46.6</ele>
        <time>2022-10-19T12:42:31Z</time>
      </trkpt>
      <trkpt lat="49.88981" lon="2.47565">
        <ele>46.6</ele>
        <time>2022-10-19T12:42:32Z</time>
      </trkpt>
      <trkpt lat="49.88981" lon="2.47565">
        <ele>46.6</ele>
        <time>2022-10-19T12:42:33Z</time>
      </trkpt>
      <trkpt lat="49.88981" lon="2.47565">
        <ele>46.6</ele>
        <time>2022-10-19T12:42:34Z</time>
      </trkpt>
      <trkpt lat="49.88981" lon="2.47565">
        <ele>46.6</ele>
        <time>2022-10-19T12:42:35Z</time>
      </trkpt>
      <trkpt lat="49.88981" lon="2.47565">
        <ele>46.6</ele>
        <time>2022-10-19T12:42:36Z</time>
      </trkpt>
      <trkpt lat="49.88981" lon="2.47565">
        <ele>46.6</ele>
        <time>2022-10-19T12:42:37Z</time>
      </trkpt>
      <trkpt lat="49.88981" lon="2.47565">
        <ele>46.6</ele>
        <time>2022-10-19T12:42:38Z</time>
      </trkpt>
      <trkpt lat="49.88981" lon="2.47565">
        <ele>46.6</ele>
        <time>2022-10-19T12:42:39Z</time>
      </trkpt>
      <trkpt lat="49.88981" lon="2.47565">
        <ele>46.6</ele>
        <time>2022-10-19T12:42:40Z</time>
      </trkpt>
      <trkpt lat="49.88981" lon="2.47565">
        <ele>46.6</ele>
        <time>2022-10-19T12:42:41Z</time>
      </trkpt>
      <trkpt lat="49.88981" lon="2.47565">
        <ele>46.6</ele>
        <time>2022-10-19T12:42:42Z</time>
      </trkpt>
      <trkpt lat="49.88981" lon="2.47565">
        <ele>46.6</ele>
        <time>2022-10-19T12:42:43Z</time>
      </trkpt>
      <trkpt lat="49.88981" lon="2.47565">
        <ele>46.6</ele>
        <time>2022-10-19T12:42:44Z</time>
      </trkpt>
      <trkpt lat="49.88981" lon="2.47565">
        <ele>46.6</ele>
        <time>2022-10-19T12:42:45Z</time>
      </trkpt>
      <trkpt lat="49.88981" lon="2.47565">
        <ele>46.6</ele>
        <time>2022-10-19T12:42:46Z</time>
      </trkpt>
      <trkpt lat="49.88981" lon="2.47565">
        <ele>46.6</ele>
        <time>2022-10-19T12:42:47Z</time>
      </trkpt>
      <trkpt lat="49.88981" lon="2.47565">
        <ele>46.6</ele>
        <time>2022-10-19T12:42:48Z</time>
      </trkpt>
      <trkpt lat="49.88981" lon="2.47565">
        <ele>46.6</ele>
        <time>2022-10-19T12:42:49Z</time>
      </trkpt>
      <trkpt lat="49.88981" lon="2.47565">
        <ele>46.6</ele>
        <time>2022-10-19T12:42:50Z</time>
      </trkpt>
      <trkpt lat="49.88981" lon="2.47565">
        <ele>46.6</ele>
        <time>2022-10-19T12:42:51Z</time>
      </trkpt>
      <trkpt lat="49.88981" lon="2.47565">
        <ele>46.6</ele>
        <time>2022-10-19T12:42:52Z</time>
      </trkpt>
      <trkpt lat="49.88981" lon="2.47565">
        <ele>46.6</ele>
        <time>2022-10-19T12:42:53Z</time>
      </trkpt>
      <trkpt lat="49.88981" lon="2.47565">
        <ele>46.6</ele>
        <time>2022-10-19T12:42:54Z</time>
      </trkpt>
      <trkpt lat="49.88981" lon="2.47565">
        <ele>46.6</ele>
        <time>2022-10-19T12:42:55Z</time>
      </trkpt>
      <trkpt lat="49.88981" lon="2.47565">
        <ele>46.6</ele>
        <time>2022-10-19T12:42:56Z</time>
      </trkpt>
      <trkpt lat="49.88981" lon="2.47565">
        <ele>46.6</ele>
        <time>2022-10-19T12:42:57Z</time>
      </trkpt>
      <trkpt lat="49.88981" lon="2.47565">
        <ele>46.6</ele>
        <time>2022-10-19T12:42:58Z</time>
      </trkpt>
      <trkpt lat="49.88981" lon="2.47565">
        <ele>46.6</ele>
        <time>2022-10-19T12:42:59Z</time>
      </trkpt>
      <trkpt lat="49.88981" lon="2.47565">
        <ele>46.6</ele>
        <time>2022-10-19T12:43:00Z</time>
      </trkpt>
      <trkpt lat="49.88981" lon="2.47565">
        <ele>46.6</ele>
        <time>2022-10-19T12:43:01Z</time>
      </trkpt>
      <trkpt lat="49.88981" lon="2.47565">
        <ele>46.6</ele>
        <time>2022-10-19T12:43:02Z</time>
      </trkpt>
      <trkpt lat="49.88981" lon="2.47565">
        <ele>46.6</ele>
        <time>2022-10-19T12:43:03Z</time>
      </trkpt>
      <trkpt lat="49.88981" lon="2.47565">
        <ele>46.6</ele>
        <time>2022-10-19T12:43:04Z</time>
      </trkpt>
      <trkpt lat="49.88981" lon="2.47565">
        <ele>46.6</ele>
        <time>2022-10-19T12:43:05Z</time>
      </trkpt>
      <trkpt lat="49.88981" lon="2.47565">
        <ele>46.6</ele>
        <time>2022-10-19T12:43:06Z</time>
      </trkpt>
      <trkpt lat="49.88981" lon="2.47565">
        <ele>46.6</ele>
        <time>2022-10-19T12:43:07Z</time>
      </trkpt>
      <trkpt lat="49.88981" lon="2.47565">
        <ele>46.6</ele>
        <time>2022-10-19T12:43:08Z</time>
      </trkpt>
      <trkpt lat="49.88981" lon="2.47565">
        <ele>46.6</ele>
        <time>2022-10-19T12:43:09Z</time>
      </trkpt>
      <trkpt lat="49.88981" lon="2.47565">
        <ele>46.6</ele>
        <time>2022-10-19T12:43:10Z</time>
      </trkpt>
      <trkpt lat="49.88981" lon="2.47565">
        <ele>46.6</ele>
        <time>2022-10-19T12:43:11Z</time>
      </trkpt>
      <trkpt lat="49.88981" lon="2.47565">
        <ele>46.6</ele>
        <time>2022-10-19T12:43:12Z</time>
      </trkpt>
      <trkpt lat="49.88981" lon="2.47565">
        <ele>46.6</ele>
        <time>2022-10-19T12:43:13Z</time>
      </trkpt>
      <trkpt lat="49.88981" lon="2.47565">
        <ele>46.6</ele>
        <time>2022-10-19T12:43:14Z</time>
      </trkpt>
      <trkpt lat="49.88981" lon="2.47565">
        <ele>46.6</ele>
        <time>2022-10-19T12:43:15Z</time>
      </trkpt>
      <trkpt lat="49.88981" lon="2.47565">
        <ele>46.6</ele>
        <time>2022-10-19T12:43:16Z</time>
      </trkpt>
      <trkpt lat="49.88981" lon="2.47569">
        <ele>46.6</ele>
        <time>2022-10-19T12:43:17Z</time>
      </trkpt>
      <trkpt lat="49.88982" lon="2.4757">
        <ele>46.6</ele>
        <time>2022-10-19T12:43:18Z</time>
      </trkpt>
      <trkpt lat="49.88982" lon="2.47569">
        <ele>46.6</ele>
        <time>2022-10-19T12:43:19Z</time>
      </trkpt>
      <trkpt lat="49.88982" lon="2.47568">
        <ele>46.6</ele>
        <time>2022-10-19T12:43:20Z</time>
      </trkpt>
      <trkpt lat="49.88982" lon="2.47567">
        <ele>46.6</ele>
        <time>2022-10-19T12:43:22Z</time>
      </trkpt>
      <trkpt lat="49.88982" lon="2.47566">
        <ele>46.5</ele>
        <time>2022-10-19T12:43:23Z</time>
      </trkpt>
      <trkpt lat="49.88982" lon="2.47564">
        <ele>46.5</ele>
        <time>2022-10-19T12:43:24Z</time>
      </trkpt>
      <trkpt lat="49.88982" lon="2.47562">
        <ele>46.5</ele>
        <time>2022-10-19T12:43:25Z</time>
      </trkpt>
      <trkpt lat="49.88982" lon="2.4756">
        <ele>46.5</ele>
        <time>2022-10-19T12:43:27Z</time>
      </trkpt>
      <trkpt lat="49.88981" lon="2.47557">
        <ele>46.5</ele>
        <time>2022-10-19T12:43:28Z</time>
      </trkpt>
      <trkpt lat="49.88981" lon="2.47554">
        <ele>46.5</ele>
        <time>2022-10-19T12:43:29Z</time>
      </trkpt>
      <trkpt lat="49.8898" lon="2.47552">
        <ele>46.5</ele>
        <time>2022-10-19T12:43:30Z</time>
      </trkpt>
      <trkpt lat="49.8898" lon="2.47551">
        <ele>46.5</ele>
        <time>2022-10-19T12:43:32Z</time>
      </trkpt>
      <trkpt lat="49.8898" lon="2.47549">
        <ele>46.5</ele>
        <time>2022-10-19T12:43:33Z</time>
      </trkpt>
      <trkpt lat="49.88979" lon="2.47548">
        <ele>46.4</ele>
        <time>2022-10-19T12:43:34Z</time>
      </trkpt>
      <trkpt lat="49.88979" lon="2.47547">
        <ele>46.4</ele>
        <time>2022-10-19T12:43:35Z</time>
      </trkpt>
      <trkpt lat="49.88979" lon="2.47545">
        <ele>46.4</ele>
        <time>2022-10-19T12:43:36Z</time>
      </trkpt>
      <trkpt lat="49.88978" lon="2.47542">
        <ele>46.4</ele>
        <time>2022-10-19T12:43:37Z</time>
      </trkpt>
      <trkpt lat="49.88978" lon="2.47541">
        <ele>46.4</ele>
        <time>2022-10-19T12:43:39Z</time>
      </trkpt>
      <trkpt lat="49.88978" lon="2.47539">
        <ele>46.4</ele>
        <time>2022-10-19T12:43:40Z</time>
      </trkpt>
      <trkpt lat="49.88978" lon="2.47537">
        <ele>46.4</ele>
        <time>2022-10-19T12:43:41Z</time>
      </trkpt>
      <trkpt lat="49.88979" lon="2.47535">
        <ele>46.4</ele>
        <time>2022-10-19T12:43:43Z</time>
      </trkpt>
      <trkpt lat="49.88979" lon="2.47534">
        <ele>46.3</ele>
        <time>2022-10-19T12:43:44Z</time>
      </trkpt>
      <trkpt lat="49.88978" lon="2.47532">
        <ele>46.3</ele>
        <time>2022-10-19T12:43:45Z</time>
      </trkpt>
      <trkpt lat="49.88978" lon="2.47531">
        <ele>46.3</ele>
        <time>2022-10-19T12:43:46Z</time>
      </trkpt>
      <trkpt lat="49.88978" lon="2.47528">
        <ele>46.3</ele>
        <time>2022-10-19T12:43:48Z</time>
      </trkpt>
      <trkpt lat="49.88978" lon="2.47527">
        <ele>46.3</ele>
        <time>2022-10-19T12:43:49Z</time>
      </trkpt>
      <trkpt lat="49.88978" lon="2.47525">
        <ele>46.2</ele>
        <time>2022-10-19T12:43:50Z</time>
      </trkpt>
      <trkpt lat="49.88978" lon="2.47524">
        <ele>46.2</ele>
        <time>2022-10-19T12:43:51Z</time>
      </trkpt>
      <trkpt lat="49.88978" lon="2.47522">
        <ele>46.2</ele>
        <time>2022-10-19T12:43:53Z</time>
      </trkpt>
      <trkpt lat="49.88978" lon="2.47521">
        <ele>46.2</ele>
        <time>2022-10-19T12:43:54Z</time>
      </trkpt>
      <trkpt lat="49.88978" lon="2.4752">
        <ele>46.2</ele>
        <time>2022-10-19T12:43:55Z</time>
      </trkpt>
      <trkpt lat="49.88977" lon="2.47519">
        <ele>46.2</ele>
        <time>2022-10-19T12:43:56Z</time>
      </trkpt>
      <trkpt lat="49.88977" lon="2.47516">
        <ele>46.1</ele>
        <time>2022-10-19T12:43:58Z</time>
      </trkpt>
      <trkpt lat="49.88977" lon="2.47514">
        <ele>46.1</ele>
        <time>2022-10-19T12:43:59Z</time>
      </trkpt>
      <trkpt lat="49.88977" lon="2.47513">
        <ele>46.1</ele>
        <time>2022-10-19T12:44:00Z</time>
      </trkpt>
      <trkpt lat="49.88977" lon="2.47512">
        <ele>46.1</ele>
        <time>2022-10-19T12:44:01Z</time>
      </trkpt>
      <trkpt lat="49.88977" lon="2.4751">
        <ele>46.1</ele>
        <time>2022-10-19T12:44:02Z</time>
      </trkpt>
      <trkpt lat="49.88976" lon="2.47509">
        <ele>46.1</ele>
        <time>2022-10-19T12:44:03Z</time>
      </trkpt>
      <trkpt lat="49.88976" lon="2.47507">
        <ele>46.1</ele>
        <time>2022-10-19T12:44:05Z</time>
      </trkpt>
      <trkpt lat="49.88976" lon="2.47505">
        <ele>46</ele>
        <time>2022-10-19T12:44:06Z</time>
      </trkpt>
      <trkpt lat="49.88976" lon="2.47503">
        <ele>46</ele>
        <time>2022-10-19T12:44:07Z</time>
      </trkpt>
      <trkpt lat="49.88975" lon="2.475">
        <ele>46</ele>
        <time>2022-10-19T12:44:08Z</time>
      </trkpt>
      <trkpt lat="49.88975" lon="2.47499">
        <ele>46</ele>
        <time>2022-10-19T12:44:09Z</time>
      </trkpt>
      <trkpt lat="49.88974" lon="2.47497">
        <ele>46</ele>
        <time>2022-10-19T12:44:10Z</time>
      </trkpt>
      <trkpt lat="49.88974" lon="2.47495">
        <ele>46</ele>
        <time>2022-10-19T12:44:11Z</time>
      </trkpt>
      <trkpt lat="49.88974" lon="2.47492">
        <ele>46</ele>
        <time>2022-10-19T12:44:12Z</time>
      </trkpt>
      <trkpt lat="49.88974" lon="2.47491">
        <ele>46</ele>
        <time>2022-10-19T12:44:14Z</time>
      </trkpt>
      <trkpt lat="49.88973" lon="2.4749">
        <ele>45.9</ele>
        <time>2022-10-19T12:44:15Z</time>
      </trkpt>
      <trkpt lat="49.88973" lon="2.47486">
        <ele>45.9</ele>
        <time>2022-10-19T12:44:16Z</time>
      </trkpt>
      <trkpt lat="49.88973" lon="2.47485">
        <ele>45.9</ele>
        <time>2022-10-19T12:44:17Z</time>
      </trkpt>
      <trkpt lat="49.88973" lon="2.47483">
        <ele>45.9</ele>
        <time>2022-10-19T12:44:18Z</time>
      </trkpt>
      <trkpt lat="49.88972" lon="2.47482">
        <ele>45.9</ele>
        <time>2022-10-19T12:44:19Z</time>
      </trkpt>
      <trkpt lat="49.88972" lon="2.4748">
        <ele>45.9</ele>
        <time>2022-10-19T12:44:21Z</time>
      </trkpt>
      <trkpt lat="49.88972" lon="2.47478">
        <ele>45.9</ele>
        <time>2022-10-19T12:44:22Z</time>
      </trkpt>
      <trkpt lat="49.88971" lon="2.47476">
        <ele>45.9</ele>
        <time>2022-10-19T12:44:23Z</time>
      </trkpt>
      <trkpt lat="49.88971" lon="2.47474">
        <ele>45.8</ele>
        <time>2022-10-19T12:44:24Z</time>
      </trkpt>
      <trkpt lat="49.88971" lon="2.47473">
        <ele>45.8</ele>
        <time>2022-10-19T12:44:25Z</time>
      </trkpt>
      <trkpt lat="49.8897" lon="2.47471">
        <ele>45.8</ele>
        <time>2022-10-19T12:44:26Z</time>
      </trkpt>
      <trkpt lat="49.88969" lon="2.47468">
        <ele>45.8</ele>
        <time>2022-10-19T12:44:28Z</time>
      </trkpt>
      <trkpt lat="49.88969" lon="2.47467">
        <ele>45.8</ele>
        <time>2022-10-19T12:44:29Z</time>
      </trkpt>
      <trkpt lat="49.88968" lon="2.47466">
        <ele>45.8</ele>
        <time>2022-10-19T12:44:30Z</time>
      </trkpt>
      <trkpt lat="49.88968" lon="2.47465">
        <ele>45.8</ele>
        <time>2022-10-19T12:44:31Z</time>
      </trkpt>
      <trkpt lat="49.88968" lon="2.47463">
        <ele>45.8</ele>
        <time>2022-10-19T12:44:32Z</time>
      </trkpt>
      <trkpt lat="49.88967" lon="2.4746">
        <ele>45.8</ele>
        <time>2022-10-19T12:44:33Z</time>
      </trkpt>
      <trkpt lat="49.88967" lon="2.47459">
        <ele>45.8</ele>
        <time>2022-10-19T12:44:34Z</time>
      </trkpt>
      <trkpt lat="49.88967" lon="2.47457">
        <ele>45.7</ele>
        <time>2022-10-19T12:44:35Z</time>
      </trkpt>
      <trkpt lat="49.88967" lon="2.47455">
        <ele>45.7</ele>
        <time>2022-10-19T12:44:36Z</time>
      </trkpt>
      <trkpt lat="49.88967" lon="2.47452">
        <ele>45.7</ele>
        <time>2022-10-19T12:44:37Z</time>
      </trkpt>
      <trkpt lat="49.88967" lon="2.4745">
        <ele>45.7</ele>
        <time>2022-10-19T12:44:39Z</time>
      </trkpt>
      <trkpt lat="49.88967" lon="2.47449">
        <ele>45.7</ele>
        <time>2022-10-19T12:44:40Z</time>
      </trkpt>
      <trkpt lat="49.88967" lon="2.47447">
        <ele>45.7</ele>
        <time>2022-10-19T12:44:41Z</time>
      </trkpt>
      <trkpt lat="49.88966" lon="2.47445">
        <ele>45.7</ele>
        <time>2022-10-19T12:44:42Z</time>
      </trkpt>
      <trkpt lat="49.88966" lon="2.47443">
        <ele>45.7</ele>
        <time>2022-10-19T12:44:43Z</time>
      </trkpt>
      <trkpt lat="49.88966" lon="2.47442">
        <ele>45.7</ele>
        <time>2022-10-19T12:44:44Z</time>
      </trkpt>
      <trkpt lat="49.88966" lon="2.4744">
        <ele>45.7</ele>
        <time>2022-10-19T12:44:45Z</time>
      </trkpt>
      <trkpt lat="49.88966" lon="2.47438">
        <ele>45.6</ele>
        <time>2022-10-19T12:44:46Z</time>
      </trkpt>
      <trkpt lat="49.88966" lon="2.47435">
        <ele>45.6</ele>
        <time>2022-10-19T12:44:48Z</time>
      </trkpt>
      <trkpt lat="49.88965" lon="2.47434">
        <ele>45.6</ele>
        <time>2022-10-19T12:44:49Z</time>
      </trkpt>
      <trkpt lat="49.88965" lon="2.47433">
        <ele>45.6</ele>
        <time>2022-10-19T12:44:50Z</time>
      </trkpt>
      <trkpt lat="49.88965" lon="2.47431">
        <ele>45.6</ele>
        <time>2022-10-19T12:44:51Z</time>
      </trkpt>
      <trkpt lat="49.88965" lon="2.47428">
        <ele>45.6</ele>
        <time>2022-10-19T12:44:52Z</time>
      </trkpt>
      <trkpt lat="49.88965" lon="2.47427">
        <ele>45.6</ele>
        <time>2022-10-19T12:44:53Z</time>
      </trkpt>
      <trkpt lat="49.88965" lon="2.47426">
        <ele>45.6</ele>
        <time>2022-10-19T12:44:54Z</time>
      </trkpt>
      <trkpt lat="49.88965" lon="2.47424">
        <ele>45.6</ele>
        <time>2022-10-19T12:44:55Z</time>
      </trkpt>
      <trkpt lat="49.88964" lon="2.47421">
        <ele>45.5</ele>
        <time>2022-10-19T12:44:57Z</time>
      </trkpt>
      <trkpt lat="49.88965" lon="2.47419">
        <ele>45.5</ele>
        <time>2022-10-19T12:44:58Z</time>
      </trkpt>
      <trkpt lat="49.88964" lon="2.47418">
        <ele>45.5</ele>
        <time>2022-10-19T12:44:59Z</time>
      </trkpt>
      <trkpt lat="49.88964" lon="2.47416">
        <ele>45.5</ele>
        <time>2022-10-19T12:45:00Z</time>
      </trkpt>
      <trkpt lat="49.88964" lon="2.47414">
        <ele>45.5</ele>
        <time>2022-10-19T12:45:01Z</time>
      </trkpt>
      <trkpt lat="49.88964" lon="2.47411">
        <ele>45.5</ele>
        <time>2022-10-19T12:45:02Z</time>
      </trkpt>
      <trkpt lat="49.88964" lon="2.47409">
        <ele>45.4</ele>
        <time>2022-10-19T12:45:04Z</time>
      </trkpt>
      <trkpt lat="49.88963" lon="2.47407">
        <ele>45.4</ele>
        <time>2022-10-19T12:45:05Z</time>
      </trkpt>
      <trkpt lat="49.88963" lon="2.47405">
        <ele>45.4</ele>
        <time>2022-10-19T12:45:06Z</time>
      </trkpt>
      <trkpt lat="49.88963" lon="2.47403">
        <ele>45.4</ele>
        <time>2022-10-19T12:45:07Z</time>
      </trkpt>
      <trkpt lat="49.88962" lon="2.474">
        <ele>45.3</ele>
        <time>2022-10-19T12:45:08Z</time>
      </trkpt>
      <trkpt lat="49.88962" lon="2.47399">
        <ele>45.3</ele>
        <time>2022-10-19T12:45:09Z</time>
      </trkpt>
      <trkpt lat="49.88962" lon="2.47397">
        <ele>45.3</ele>
        <time>2022-10-19T12:45:10Z</time>
      </trkpt>
      <trkpt lat="49.88962" lon="2.47396">
        <ele>45.3</ele>
        <time>2022-10-19T12:45:11Z</time>
      </trkpt>
      <trkpt lat="49.88962" lon="2.47395">
        <ele>45.3</ele>
        <time>2022-10-19T12:45:12Z</time>
      </trkpt>
      <trkpt lat="49.88962" lon="2.47392">
        <ele>45.3</ele>
        <time>2022-10-19T12:45:13Z</time>
      </trkpt>
      <trkpt lat="49.88961" lon="2.47391">
        <ele>45.3</ele>
        <time>2022-10-19T12:45:15Z</time>
      </trkpt>
      <trkpt lat="49.88961" lon="2.47389">
        <ele>45.2</ele>
        <time>2022-10-19T12:45:16Z</time>
      </trkpt>
      <trkpt lat="49.88961" lon="2.47387">
        <ele>45.2</ele>
        <time>2022-10-19T12:45:17Z</time>
      </trkpt>
      <trkpt lat="49.8896" lon="2.47384">
        <ele>45.2</ele>
        <time>2022-10-19T12:45:18Z</time>
      </trkpt>
      <trkpt lat="49.8896" lon="2.47383">
        <ele>45.2</ele>
        <time>2022-10-19T12:45:19Z</time>
      </trkpt>
      <trkpt lat="49.8896" lon="2.47382">
        <ele>45.2</ele>
        <time>2022-10-19T12:45:20Z</time>
      </trkpt>
      <trkpt lat="49.8896" lon="2.47381">
        <ele>45.2</ele>
        <time>2022-10-19T12:45:21Z</time>
      </trkpt>
      <trkpt lat="49.88959" lon="2.47378">
        <ele>45.1</ele>
        <time>2022-10-19T12:45:22Z</time>
      </trkpt>
      <trkpt lat="49.88959" lon="2.47376">
        <ele>45.1</ele>
        <time>2022-10-19T12:45:24Z</time>
      </trkpt>
      <trkpt lat="49.88958" lon="2.47374">
        <ele>45.1</ele>
        <time>2022-10-19T12:45:25Z</time>
      </trkpt>
      <trkpt lat="49.88958" lon="2.47373">
        <ele>45.1</ele>
        <time>2022-10-19T12:45:26Z</time>
      </trkpt>
      <trkpt lat="49.88958" lon="2.47371">
        <ele>45.1</ele>
        <time>2022-10-19T12:45:27Z</time>
      </trkpt>
      <trkpt lat="49.88958" lon="2.47369">
        <ele>45.1</ele>
        <time>2022-10-19T12:45:28Z</time>
      </trkpt>
      <trkpt lat="49.88958" lon="2.47367">
        <ele>45.1</ele>
        <time>2022-10-19T12:45:29Z</time>
      </trkpt>
      <trkpt lat="49.88957" lon="2.47366">
        <ele>45.1</ele>
        <time>2022-10-19T12:45:31Z</time>
      </trkpt>
      <trkpt lat="49.88957" lon="2.47364">
        <ele>45</ele>
        <time>2022-10-19T12:45:32Z</time>
      </trkpt>
      <trkpt lat="49.88957" lon="2.47362">
        <ele>45</ele>
        <time>2022-10-19T12:45:33Z</time>
      </trkpt>
      <trkpt lat="49.88957" lon="2.47361">
        <ele>45</ele>
        <time>2022-10-19T12:45:34Z</time>
      </trkpt>
      <trkpt lat="49.88957" lon="2.4736">
        <ele>45</ele>
        <time>2022-10-19T12:45:35Z</time>
      </trkpt>
      <trkpt lat="49.88956" lon="2.47358">
        <ele>45</ele>
        <time>2022-10-19T12:45:36Z</time>
      </trkpt>
      <trkpt lat="49.88956" lon="2.47356">
        <ele>45</ele>
        <time>2022-10-19T12:45:38Z</time>
      </trkpt>
      <trkpt lat="49.88956" lon="2.47354">
        <ele>45</ele>
        <time>2022-10-19T12:45:39Z</time>
      </trkpt>
      <trkpt lat="49.88956" lon="2.47353">
        <ele>45</ele>
        <time>2022-10-19T12:45:40Z</time>
      </trkpt>
      <trkpt lat="49.88956" lon="2.47352">
        <ele>45</ele>
        <time>2022-10-19T12:45:41Z</time>
      </trkpt>
      <trkpt lat="49.88955" lon="2.4735">
        <ele>45</ele>
        <time>2022-10-19T12:45:42Z</time>
      </trkpt>
      <trkpt lat="49.88955" lon="2.47348">
        <ele>44.9</ele>
        <time>2022-10-19T12:45:43Z</time>
      </trkpt>
      <trkpt lat="49.88955" lon="2.47347">
        <ele>44.9</ele>
        <time>2022-10-19T12:45:44Z</time>
      </trkpt>
      <trkpt lat="49.88955" lon="2.47345">
        <ele>44.9</ele>
        <time>2022-10-19T12:45:46Z</time>
      </trkpt>
      <trkpt lat="49.88955" lon="2.47343">
        <ele>44.9</ele>
        <time>2022-10-19T12:45:47Z</time>
      </trkpt>
      <trkpt lat="49.88955" lon="2.47342">
        <ele>44.9</ele>
        <time>2022-10-19T12:45:48Z</time>
      </trkpt>
      <trkpt lat="49.88954" lon="2.47339">
        <ele>44.9</ele>
        <time>2022-10-19T12:45:49Z</time>
      </trkpt>
      <trkpt lat="49.88954" lon="2.47338">
        <ele>44.9</ele>
        <time>2022-10-19T12:45:50Z</time>
      </trkpt>
      <trkpt lat="49.88954" lon="2.47336">
        <ele>44.9</ele>
        <time>2022-10-19T12:45:51Z</time>
      </trkpt>
      <trkpt lat="49.88954" lon="2.47334">
        <ele>44.8</ele>
        <time>2022-10-19T12:45:52Z</time>
      </trkpt>
      <trkpt lat="49.88954" lon="2.47332">
        <ele>44.8</ele>
        <time>2022-10-19T12:45:53Z</time>
      </trkpt>
      <trkpt lat="49.88954" lon="2.4733">
        <ele>44.8</ele>
        <time>2022-10-19T12:45:54Z</time>
      </trkpt>
      <trkpt lat="49.88954" lon="2.47328">
        <ele>44.8</ele>
        <time>2022-10-19T12:45:56Z</time>
      </trkpt>
      <trkpt lat="49.88953" lon="2.47326">
        <ele>44.8</ele>
        <time>2022-10-19T12:45:57Z</time>
      </trkpt>
      <trkpt lat="49.88953" lon="2.47325">
        <ele>44.8</ele>
        <time>2022-10-19T12:45:58Z</time>
      </trkpt>
      <trkpt lat="49.88953" lon="2.47323">
        <ele>44.8</ele>
        <time>2022-10-19T12:45:59Z</time>
      </trkpt>
      <trkpt lat="49.88953" lon="2.47321">
        <ele>44.7</ele>
        <time>2022-10-19T12:46:00Z</time>
      </trkpt>
      <trkpt lat="49.88953" lon="2.47319">
        <ele>44.7</ele>
        <time>2022-10-19T12:46:01Z</time>
      </trkpt>
      <trkpt lat="49.88953" lon="2.47317">
        <ele>44.7</ele>
        <time>2022-10-19T12:46:02Z</time>
      </trkpt>
      <trkpt lat="49.88953" lon="2.47315">
        <ele>44.7</ele>
        <time>2022-10-19T12:46:04Z</time>
      </trkpt>
      <trkpt lat="49.88953" lon="2.47314">
        <ele>44.7</ele>
        <time>2022-10-19T12:46:05Z</time>
      </trkpt>
      <trkpt lat="49.88952" lon="2.47312">
        <ele>44.7</ele>
        <time>2022-10-19T12:46:06Z</time>
      </trkpt>
      <trkpt lat="49.88952" lon="2.47311">
        <ele>44.6</ele>
        <time>2022-10-19T12:46:07Z</time>
      </trkpt>
      <trkpt lat="49.88952" lon="2.47308">
        <ele>44.6</ele>
        <time>2022-10-19T12:46:08Z</time>
      </trkpt>
      <trkpt lat="49.88952" lon="2.47307">
        <ele>44.6</ele>
        <time>2022-10-19T12:46:09Z</time>
      </trkpt>
      <trkpt lat="49.88951" lon="2.47305">
        <ele>44.6</ele>
        <time>2022-10-19T12:46:10Z</time>
      </trkpt>
      <trkpt lat="49.88951" lon="2.47304">
        <ele>44.6</ele>
        <time>2022-10-19T12:46:11Z</time>
      </trkpt>
      <trkpt lat="49.88951" lon="2.47302">
        <ele>44.6</ele>
        <time>2022-10-19T12:46:12Z</time>
      </trkpt>
      <trkpt lat="49.8895" lon="2.473">
        <ele>44.6</ele>
        <time>2022-10-19T12:46:14Z</time>
      </trkpt>
      <trkpt lat="49.8895" lon="2.47299">
        <ele>44.6</ele>
        <time>2022-10-19T12:46:15Z</time>
      </trkpt>
      <trkpt lat="49.8895" lon="2.47297">
        <ele>44.5</ele>
        <time>2022-10-19T12:46:16Z</time>
      </trkpt>
      <trkpt lat="49.8895" lon="2.47295">
        <ele>44.5</ele>
        <time>2022-10-19T12:46:17Z</time>
      </trkpt>
      <trkpt lat="49.88949" lon="2.47292">
        <ele>44.5</ele>
        <time>2022-10-19T12:46:18Z</time>
      </trkpt>
      <trkpt lat="49.88949" lon="2.47291">
        <ele>44.5</ele>
        <time>2022-10-19T12:46:19Z</time>
      </trkpt>
      <trkpt lat="49.88948" lon="2.47288">
        <ele>44.5</ele>
        <time>2022-10-19T12:46:20Z</time>
      </trkpt>
      <trkpt lat="49.88948" lon="2.47286">
        <ele>44.5</ele>
        <time>2022-10-19T12:46:21Z</time>
      </trkpt>
      <trkpt lat="49.88948" lon="2.47285">
        <ele>44.5</ele>
        <time>2022-10-19T12:46:22Z</time>
      </trkpt>
      <trkpt lat="49.88947" lon="2.47282">
        <ele>44.5</ele>
        <time>2022-10-19T12:46:24Z</time>
      </trkpt>
      <trkpt lat="49.88947" lon="2.4728">
        <ele>44.5</ele>
        <time>2022-10-19T12:46:25Z</time>
      </trkpt>
      <trkpt lat="49.88946" lon="2.47279">
        <ele>44.5</ele>
        <time>2022-10-19T12:46:26Z</time>
      </trkpt>
      <trkpt lat="49.88946" lon="2.47277">
        <ele>44.5</ele>
        <time>2022-10-19T12:46:27Z</time>
      </trkpt>
      <trkpt lat="49.88945" lon="2.47275">
        <ele>44.5</ele>
        <time>2022-10-19T12:46:28Z</time>
      </trkpt>
      <trkpt lat="49.88945" lon="2.47272">
        <ele>44.5</ele>
        <time>2022-10-19T12:46:29Z</time>
      </trkpt>
      <trkpt lat="49.88945" lon="2.47271">
        <ele>44.5</ele>
        <time>2022-10-19T12:46:30Z</time>
      </trkpt>
      <trkpt lat="49.88944" lon="2.4727">
        <ele>44.5</ele>
        <time>2022-10-19T12:46:31Z</time>
      </trkpt>
      <trkpt lat="49.88944" lon="2.47268">
        <ele>44.5</ele>
        <time>2022-10-19T12:46:32Z</time>
      </trkpt>
      <trkpt lat="49.88943" lon="2.47265">
        <ele>44.5</ele>
        <time>2022-10-19T12:46:34Z</time>
      </trkpt>
      <trkpt lat="49.88943" lon="2.47264">
        <ele>44.5</ele>
        <time>2022-10-19T12:46:35Z</time>
      </trkpt>
      <trkpt lat="49.88942" lon="2.47263">
        <ele>44.5</ele>
        <time>2022-10-19T12:46:36Z</time>
      </trkpt>
      <trkpt lat="49.88942" lon="2.47261">
        <ele>44.5</ele>
        <time>2022-10-19T12:46:37Z</time>
      </trkpt>
      <trkpt lat="49.88941" lon="2.47259">
        <ele>44.5</ele>
        <time>2022-10-19T12:46:38Z</time>
      </trkpt>
      <trkpt lat="49.88941" lon="2.47256">
        <ele>44.6</ele>
        <time>2022-10-19T12:46:39Z</time>
      </trkpt>
      <trkpt lat="49.88941" lon="2.47253">
        <ele>44.6</ele>
        <time>2022-10-19T12:46:40Z</time>
      </trkpt>
      <trkpt lat="49.8894" lon="2.47252">
        <ele>44.6</ele>
        <time>2022-10-19T12:46:41Z</time>
      </trkpt>
      <trkpt lat="49.8894" lon="2.4725">
        <ele>44.6</ele>
        <time>2022-10-19T12:46:42Z</time>
      </trkpt>
      <trkpt lat="49.8894" lon="2.47245">
        <ele>44.6</ele>
        <time>2022-10-19T12:46:43Z</time>
      </trkpt>
      <trkpt lat="49.8894" lon="2.47244">
        <ele>44.6</ele>
        <time>2022-10-19T12:46:45Z</time>
      </trkpt>
      <trkpt lat="49.8894" lon="2.47242">
        <ele>44.6</ele>
        <time>2022-10-19T12:46:46Z</time>
      </trkpt>
      <trkpt lat="49.8894" lon="2.47241">
        <ele>44.6</ele>
        <time>2022-10-19T12:46:47Z</time>
      </trkpt>
      <trkpt lat="49.88939" lon="2.47239">
        <ele>44.5</ele>
        <time>2022-10-19T12:46:48Z</time>
      </trkpt>
      <trkpt lat="49.88939" lon="2.47237">
        <ele>44.5</ele>
        <time>2022-10-19T12:46:49Z</time>
      </trkpt>
      <trkpt lat="49.88939" lon="2.47235">
        <ele>44.5</ele>
        <time>2022-10-19T12:46:50Z</time>
      </trkpt>
      <trkpt lat="49.88938" lon="2.47233">
        <ele>44.5</ele>
        <time>2022-10-19T12:46:52Z</time>
      </trkpt>
      <trkpt lat="49.88937" lon="2.4723">
        <ele>44.5</ele>
        <time>2022-10-19T12:46:53Z</time>
      </trkpt>
      <trkpt lat="49.88937" lon="2.47226">
        <ele>44.5</ele>
        <time>2022-10-19T12:46:54Z</time>
      </trkpt>
      <trkpt lat="49.88937" lon="2.47225">
        <ele>44.5</ele>
        <time>2022-10-19T12:46:56Z</time>
      </trkpt>
      <trkpt lat="49.88936" lon="2.47223">
        <ele>44.5</ele>
        <time>2022-10-19T12:46:57Z</time>
      </trkpt>
      <trkpt lat="49.88936" lon="2.47222">
        <ele>44.5</ele>
        <time>2022-10-19T12:46:58Z</time>
      </trkpt>
      <trkpt lat="49.88936" lon="2.4722">
        <ele>44.5</ele>
        <time>2022-10-19T12:46:59Z</time>
      </trkpt>
      <trkpt lat="49.88936" lon="2.47219">
        <ele>44.5</ele>
        <time>2022-10-19T12:47:00Z</time>
      </trkpt>
      <trkpt lat="49.88936" lon="2.47217">
        <ele>44.5</ele>
        <time>2022-10-19T12:47:01Z</time>
      </trkpt>
      <trkpt lat="49.88935" lon="2.47215">
        <ele>44.5</ele>
        <time>2022-10-19T12:47:02Z</time>
      </trkpt>
      <trkpt lat="49.88935" lon="2.47213">
        <ele>44.5</ele>
        <time>2022-10-19T12:47:03Z</time>
      </trkpt>
      <trkpt lat="49.88935" lon="2.47211">
        <ele>44.5</ele>
        <time>2022-10-19T12:47:04Z</time>
      </trkpt>
      <trkpt lat="49.88934" lon="2.47209">
        <ele>44.5</ele>
        <time>2022-10-19T12:47:06Z</time>
      </trkpt>
      <trkpt lat="49.88934" lon="2.47208">
        <ele>44.5</ele>
        <time>2022-10-19T12:47:07Z</time>
      </trkpt>
      <trkpt lat="49.88934" lon="2.47206">
        <ele>44.5</ele>
        <time>2022-10-19T12:47:08Z</time>
      </trkpt>
      <trkpt lat="49.88934" lon="2.47204">
        <ele>44.5</ele>
        <time>2022-10-19T12:47:09Z</time>
      </trkpt>
      <trkpt lat="49.88934" lon="2.47203">
        <ele>44.5</ele>
        <time>2022-10-19T12:47:10Z</time>
      </trkpt>
      <trkpt lat="49.88934" lon="2.47201">
        <ele>44.5</ele>
        <time>2022-10-19T12:47:11Z</time>
      </trkpt>
      <trkpt lat="49.88933" lon="2.47198">
        <ele>44.5</ele>
        <time>2022-10-19T12:47:12Z</time>
      </trkpt>
      <trkpt lat="49.88933" lon="2.47197">
        <ele>44.5</ele>
        <time>2022-10-19T12:47:13Z</time>
      </trkpt>
      <trkpt lat="49.88933" lon="2.47195">
        <ele>44.5</ele>
        <time>2022-10-19T12:47:14Z</time>
      </trkpt>
      <trkpt lat="49.88933" lon="2.47192">
        <ele>44.5</ele>
        <time>2022-10-19T12:47:15Z</time>
      </trkpt>
      <trkpt lat="49.88932" lon="2.47191">
        <ele>44.5</ele>
        <time>2022-10-19T12:47:17Z</time>
      </trkpt>
      <trkpt lat="49.88932" lon="2.47189">
        <ele>44.4</ele>
        <time>2022-10-19T12:47:18Z</time>
      </trkpt>
      <trkpt lat="49.88932" lon="2.47187">
        <ele>44.4</ele>
        <time>2022-10-19T12:47:19Z</time>
      </trkpt>
      <trkpt lat="49.88932" lon="2.47186">
        <ele>44.4</ele>
        <time>2022-10-19T12:47:20Z</time>
      </trkpt>
      <trkpt lat="49.88932" lon="2.47184">
        <ele>44.4</ele>
        <time>2022-10-19T12:47:21Z</time>
      </trkpt>
      <trkpt lat="49.88931" lon="2.47181">
        <ele>44.4</ele>
        <time>2022-10-19T12:47:22Z</time>
      </trkpt>
      <trkpt lat="49.88931" lon="2.47179">
        <ele>44.4</ele>
        <time>2022-10-19T12:47:23Z</time>
      </trkpt>
      <trkpt lat="49.8893" lon="2.47178">
        <ele>44.4</ele>
        <time>2022-10-19T12:47:24Z</time>
      </trkpt>
      <trkpt lat="49.8893" lon="2.47175">
        <ele>44.4</ele>
        <time>2022-10-19T12:47:25Z</time>
      </trkpt>
      <trkpt lat="49.88929" lon="2.47174">
        <ele>44.4</ele>
        <time>2022-10-19T12:47:27Z</time>
      </trkpt>
      <trkpt lat="49.88929" lon="2.47173">
        <ele>44.4</ele>
        <time>2022-10-19T12:47:28Z</time>
      </trkpt>
      <trkpt lat="49.88928" lon="2.4717">
        <ele>44.4</ele>
        <time>2022-10-19T12:47:29Z</time>
      </trkpt>
      <trkpt lat="49.88928" lon="2.47169">
        <ele>44.4</ele>
        <time>2022-10-19T12:47:30Z</time>
      </trkpt>
      <trkpt lat="49.88928" lon="2.47167">
        <ele>44.4</ele>
        <time>2022-10-19T12:47:31Z</time>
      </trkpt>
      <trkpt lat="49.88927" lon="2.47164">
        <ele>44.3</ele>
        <time>2022-10-19T12:47:32Z</time>
      </trkpt>
      <trkpt lat="49.88927" lon="2.47163">
        <ele>44.3</ele>
        <time>2022-10-19T12:47:33Z</time>
      </trkpt>
      <trkpt lat="49.88926" lon="2.47161">
        <ele>44.3</ele>
        <time>2022-10-19T12:47:34Z</time>
      </trkpt>
      <trkpt lat="49.88926" lon="2.4716">
        <ele>44.3</ele>
        <time>2022-10-19T12:47:35Z</time>
      </trkpt>
      <trkpt lat="49.88926" lon="2.47158">
        <ele>44.3</ele>
        <time>2022-10-19T12:47:36Z</time>
      </trkpt>
      <trkpt lat="49.88926" lon="2.47156">
        <ele>44.3</ele>
        <time>2022-10-19T12:47:37Z</time>
      </trkpt>
      <trkpt lat="49.88925" lon="2.47154">
        <ele>44.3</ele>
        <time>2022-10-19T12:47:39Z</time>
      </trkpt>
      <trkpt lat="49.88925" lon="2.47152">
        <ele>44.3</ele>
        <time>2022-10-19T12:47:40Z</time>
      </trkpt>
      <trkpt lat="49.88925" lon="2.47151">
        <ele>44.3</ele>
        <time>2022-10-19T12:47:41Z</time>
      </trkpt>
      <trkpt lat="49.88924" lon="2.47148">
        <ele>44.2</ele>
        <time>2022-10-19T12:47:42Z</time>
      </trkpt>
      <trkpt lat="49.88924" lon="2.47146">
        <ele>44.2</ele>
        <time>2022-10-19T12:47:43Z</time>
      </trkpt>
      <trkpt lat="49.88924" lon="2.47145">
        <ele>44.2</ele>
        <time>2022-10-19T12:47:44Z</time>
      </trkpt>
      <trkpt lat="49.88923" lon="2.47144">
        <ele>44.2</ele>
        <time>2022-10-19T12:47:45Z</time>
      </trkpt>
      <trkpt lat="49.88923" lon="2.47142">
        <ele>44.2</ele>
        <time>2022-10-19T12:47:46Z</time>
      </trkpt>
      <trkpt lat="49.88923" lon="2.4714">
        <ele>44.2</ele>
        <time>2022-10-19T12:47:47Z</time>
      </trkpt>
      <trkpt lat="49.88922" lon="2.47137">
        <ele>44.2</ele>
        <time>2022-10-19T12:47:49Z</time>
      </trkpt>
      <trkpt lat="49.88922" lon="2.47136">
        <ele>44.2</ele>
        <time>2022-10-19T12:47:50Z</time>
      </trkpt>
      <trkpt lat="49.88922" lon="2.47135">
        <ele>44.1</ele>
        <time>2022-10-19T12:47:51Z</time>
      </trkpt>
      <trkpt lat="49.88922" lon="2.47133">
        <ele>44.1</ele>
        <time>2022-10-19T12:47:52Z</time>
      </trkpt>
      <trkpt lat="49.88921" lon="2.47132">
        <ele>44.1</ele>
        <time>2022-10-19T12:47:53Z</time>
      </trkpt>
      <trkpt lat="49.88921" lon="2.47129">
        <ele>44.1</ele>
        <time>2022-10-19T12:47:54Z</time>
      </trkpt>
      <trkpt lat="49.88921" lon="2.47128">
        <ele>44.1</ele>
        <time>2022-10-19T12:47:55Z</time>
      </trkpt>
      <trkpt lat="49.88921" lon="2.47126">
        <ele>44.1</ele>
        <time>2022-10-19T12:47:56Z</time>
      </trkpt>
      <trkpt lat="49.8892" lon="2.47125">
        <ele>44</ele>
        <time>2022-10-19T12:47:58Z</time>
      </trkpt>
      <trkpt lat="49.8892" lon="2.47123">
        <ele>44</ele>
        <time>2022-10-19T12:47:59Z</time>
      </trkpt>
      <trkpt lat="49.8892" lon="2.47122">
        <ele>44</ele>
        <time>2022-10-19T12:48:00Z</time>
      </trkpt>
      <trkpt lat="49.8892" lon="2.4712">
        <ele>44</ele>
        <time>2022-10-19T12:48:01Z</time>
      </trkpt>
      <trkpt lat="49.88919" lon="2.47117">
        <ele>44</ele>
        <time>2022-10-19T12:48:02Z</time>
      </trkpt>
      <trkpt lat="49.88919" lon="2.47115">
        <ele>43.9</ele>
        <time>2022-10-19T12:48:03Z</time>
      </trkpt>
      <trkpt lat="49.88919" lon="2.47114">
        <ele>43.9</ele>
        <time>2022-10-19T12:48:04Z</time>
      </trkpt>
      <trkpt lat="49.88919" lon="2.47112">
        <ele>43.9</ele>
        <time>2022-10-19T12:48:06Z</time>
      </trkpt>
      <trkpt lat="49.88919" lon="2.4711">
        <ele>43.9</ele>
        <time>2022-10-19T12:48:07Z</time>
      </trkpt>
      <trkpt lat="49.88919" lon="2.47109">
        <ele>43.9</ele>
        <time>2022-10-19T12:48:08Z</time>
      </trkpt>
      <trkpt lat="49.88918" lon="2.47107">
        <ele>43.9</ele>
        <time>2022-10-19T12:48:09Z</time>
      </trkpt>
      <trkpt lat="49.88918" lon="2.47105">
        <ele>43.8</ele>
        <time>2022-10-19T12:48:10Z</time>
      </trkpt>
      <trkpt lat="49.88918" lon="2.47104">
        <ele>43.8</ele>
        <time>2022-10-19T12:48:11Z</time>
      </trkpt>
      <trkpt lat="49.88917" lon="2.47102">
        <ele>43.8</ele>
        <time>2022-10-19T12:48:12Z</time>
      </trkpt>
      <trkpt lat="49.88917" lon="2.471">
        <ele>43.8</ele>
        <time>2022-10-19T12:48:13Z</time>
      </trkpt>
      <trkpt lat="49.88916" lon="2.47097">
        <ele>43.7</ele>
        <time>2022-10-19T12:48:15Z</time>
      </trkpt>
      <trkpt lat="49.88916" lon="2.47096">
        <ele>43.7</ele>
        <time>2022-10-19T12:48:16Z</time>
      </trkpt>
      <trkpt lat="49.88916" lon="2.47094">
        <ele>43.7</ele>
        <time>2022-10-19T12:48:17Z</time>
      </trkpt>
      <trkpt lat="49.88915" lon="2.47093">
        <ele>43.7</ele>
        <time>2022-10-19T12:48:18Z</time>
      </trkpt>
      <trkpt lat="49.88915" lon="2.4709">
        <ele>43.7</ele>
        <time>2022-10-19T12:48:19Z</time>
      </trkpt>
      <trkpt lat="49.88914" lon="2.47088">
        <ele>43.6</ele>
        <time>2022-10-19T12:48:20Z</time>
      </trkpt>
      <trkpt lat="49.88914" lon="2.47087">
        <ele>43.6</ele>
        <time>2022-10-19T12:48:21Z</time>
      </trkpt>
      <trkpt lat="49.88914" lon="2.47085">
        <ele>43.6</ele>
        <time>2022-10-19T12:48:22Z</time>
      </trkpt>
      <trkpt lat="49.88913" lon="2.47084">
        <ele>43.6</ele>
        <time>2022-10-19T12:48:23Z</time>
      </trkpt>
      <trkpt lat="49.88913" lon="2.47082">
        <ele>43.6</ele>
        <time>2022-10-19T12:48:25Z</time>
      </trkpt>
      <trkpt lat="49.88913" lon="2.47078">
        <ele>43.6</ele>
        <time>2022-10-19T12:48:26Z</time>
      </trkpt>
      <trkpt lat="49.88913" lon="2.47077">
        <ele>43.6</ele>
        <time>2022-10-19T12:48:27Z</time>
      </trkpt>
      <trkpt lat="49.88913" lon="2.47076">
        <ele>43.6</ele>
        <time>2022-10-19T12:48:28Z</time>
      </trkpt>
      <trkpt lat="49.88912" lon="2.47074">
        <ele>43.5</ele>
        <time>2022-10-19T12:48:29Z</time>
      </trkpt>
      <trkpt lat="49.88912" lon="2.47071">
        <ele>43.5</ele>
        <time>2022-10-19T12:48:30Z</time>
      </trkpt>
      <trkpt lat="49.88912" lon="2.4707">
        <ele>43.5</ele>
        <time>2022-10-19T12:48:31Z</time>
      </trkpt>
      <trkpt lat="49.88913" lon="2.47068">
        <ele>43.5</ele>
        <time>2022-10-19T12:48:33Z</time>
      </trkpt>
      <trkpt lat="49.88912" lon="2.47067">
        <ele>43.5</ele>
        <time>2022-10-19T12:48:34Z</time>
      </trkpt>
      <trkpt lat="49.88912" lon="2.47065">
        <ele>43.5</ele>
        <time>2022-10-19T12:48:35Z</time>
      </trkpt>
      <trkpt lat="49.88912" lon="2.47063">
        <ele>43.5</ele>
        <time>2022-10-19T12:48:36Z</time>
      </trkpt>
      <trkpt lat="49.88912" lon="2.47062">
        <ele>43.5</ele>
        <time>2022-10-19T12:48:37Z</time>
      </trkpt>
      <trkpt lat="49.88911" lon="2.47061">
        <ele>43.5</ele>
        <time>2022-10-19T12:48:38Z</time>
      </trkpt>
      <trkpt lat="49.8891" lon="2.47059">
        <ele>43.4</ele>
        <time>2022-10-19T12:48:40Z</time>
      </trkpt>
      <trkpt lat="49.8891" lon="2.47058">
        <ele>43.4</ele>
        <time>2022-10-19T12:48:41Z</time>
      </trkpt>
      <trkpt lat="49.88909" lon="2.47056">
        <ele>43.4</ele>
        <time>2022-10-19T12:48:42Z</time>
      </trkpt>
      <trkpt lat="49.88909" lon="2.47055">
        <ele>43.4</ele>
        <time>2022-10-19T12:48:43Z</time>
      </trkpt>
      <trkpt lat="49.88909" lon="2.47054">
        <ele>43.4</ele>
        <time>2022-10-19T12:48:45Z</time>
      </trkpt>
      <trkpt lat="49.88909" lon="2.47053">
        <ele>43.4</ele>
        <time>2022-10-19T12:48:46Z</time>
      </trkpt>
      <trkpt lat="49.88908" lon="2.47051">
        <ele>43.4</ele>
        <time>2022-10-19T12:48:47Z</time>
      </trkpt>
      <trkpt lat="49.88908" lon="2.4705">
        <ele>43.4</ele>
        <time>2022-10-19T12:48:48Z</time>
      </trkpt>
      <trkpt lat="49.88908" lon="2.47049">
        <ele>43.4</ele>
        <time>2022-10-19T12:48:49Z</time>
      </trkpt>
      <trkpt lat="49.88908" lon="2.47047">
        <ele>43.4</ele>
        <time>2022-10-19T12:48:50Z</time>
      </trkpt>
      <trkpt lat="49.88908" lon="2.47046">
        <ele>43.4</ele>
        <time>2022-10-19T12:48:51Z</time>
      </trkpt>
      <trkpt lat="49.88908" lon="2.47044">
        <ele>43.3</ele>
        <time>2022-10-19T12:48:53Z</time>
      </trkpt>
      <trkpt lat="49.88908" lon="2.47042">
        <ele>43.3</ele>
        <time>2022-10-19T12:48:54Z</time>
      </trkpt>
      <trkpt lat="49.88908" lon="2.47041">
        <ele>43.3</ele>
        <time>2022-10-19T12:48:55Z</time>
      </trkpt>
      <trkpt lat="49.88908" lon="2.47039">
        <ele>43.3</ele>
        <time>2022-10-19T12:48:56Z</time>
      </trkpt>
      <trkpt lat="49.88907" lon="2.47038">
        <ele>43.3</ele>
        <time>2022-10-19T12:48:57Z</time>
      </trkpt>
      <trkpt lat="49.88907" lon="2.47036">
        <ele>43.3</ele>
        <time>2022-10-19T12:48:58Z</time>
      </trkpt>
      <trkpt lat="49.88907" lon="2.47035">
        <ele>43.3</ele>
        <time>2022-10-19T12:48:59Z</time>
      </trkpt>
      <trkpt lat="49.88906" lon="2.47034">
        <ele>43.3</ele>
        <time>2022-10-19T12:49:01Z</time>
      </trkpt>
      <trkpt lat="49.88906" lon="2.47033">
        <ele>43.2</ele>
        <time>2022-10-19T12:49:02Z</time>
      </trkpt>
      <trkpt lat="49.88906" lon="2.47032">
        <ele>43.2</ele>
        <time>2022-10-19T12:49:03Z</time>
      </trkpt>
      <trkpt lat="49.88906" lon="2.47032">
        <ele>43.2</ele>
        <time>2022-10-19T12:49:04Z</time>
      </trkpt>
      <trkpt lat="49.88906" lon="2.47032">
        <ele>43.2</ele>
        <time>2022-10-19T12:49:05Z</time>
      </trkpt>
      <trkpt lat="49.88907" lon="2.47032">
        <ele>43.2</ele>
        <time>2022-10-19T12:49:06Z</time>
      </trkpt>
      <trkpt lat="49.88907" lon="2.47032">
        <ele>43.2</ele>
        <time>2022-10-19T12:49:08Z</time>
      </trkpt>
      <trkpt lat="49.88907" lon="2.47032">
        <ele>43.2</ele>
        <time>2022-10-19T12:49:09Z</time>
      </trkpt>
      <trkpt lat="49.88907" lon="2.47032">
        <ele>43.2</ele>
        <time>2022-10-19T12:49:10Z</time>
      </trkpt>
      <trkpt lat="49.88907" lon="2.47032">
        <ele>43.2</ele>
        <time>2022-10-19T12:49:11Z</time>
      </trkpt>
      <trkpt lat="49.88907" lon="2.47032">
        <ele>43.2</ele>
        <time>2022-10-19T12:49:12Z</time>
      </trkpt>
      <trkpt lat="49.88907" lon="2.47032">
        <ele>43.2</ele>
        <time>2022-10-19T12:49:13Z</time>
      </trkpt>
      <trkpt lat="49.88907" lon="2.47032">
        <ele>43.2</ele>
        <time>2022-10-19T12:49:14Z</time>
      </trkpt>
      <trkpt lat="49.88907" lon="2.47032">
        <ele>43.2</ele>
        <time>2022-10-19T12:49:15Z</time>
      </trkpt>
      <trkpt lat="49.88907" lon="2.47033">
        <ele>43.2</ele>
        <time>2022-10-19T12:49:16Z</time>
      </trkpt>
      <trkpt lat="49.88907" lon="2.47033">
        <ele>43.2</ele>
        <time>2022-10-19T12:49:17Z</time>
      </trkpt>
      <trkpt lat="49.88907" lon="2.47033">
        <ele>43.2</ele>
        <time>2022-10-19T12:49:18Z</time>
      </trkpt>
      <trkpt lat="49.88907" lon="2.47033">
        <ele>43.2</ele>
        <time>2022-10-19T12:49:19Z</time>
      </trkpt>
      <trkpt lat="49.88907" lon="2.47033">
        <ele>43.2</ele>
        <time>2022-10-19T12:49:20Z</time>
      </trkpt>
      <trkpt lat="49.88907" lon="2.47033">
        <ele>43.2</ele>
        <time>2022-10-19T12:49:21Z</time>
      </trkpt>
      <trkpt lat="49.88907" lon="2.47033">
        <ele>43.2</ele>
        <time>2022-10-19T12:49:22Z</time>
      </trkpt>
      <trkpt lat="49.88907" lon="2.47033">
        <ele>43.2</ele>
        <time>2022-10-19T12:49:23Z</time>
      </trkpt>
      <trkpt lat="49.88907" lon="2.47033">
        <ele>43.2</ele>
        <time>2022-10-19T12:49:24Z</time>
      </trkpt>
      <trkpt lat="49.88907" lon="2.47033">
        <ele>43.2</ele>
        <time>2022-10-19T12:49:25Z</time>
      </trkpt>
      <trkpt lat="49.88907" lon="2.47033">
        <ele>43.2</ele>
        <time>2022-10-19T12:49:26Z</time>
      </trkpt>
      <trkpt lat="49.88907" lon="2.47033">
        <ele>43.2</ele>
        <time>2022-10-19T12:49:27Z</time>
      </trkpt>
      <trkpt lat="49.88907" lon="2.47034">
        <ele>43.2</ele>
        <time>2022-10-19T12:49:28Z</time>
      </trkpt>
      <trkpt lat="49.88907" lon="2.47034">
        <ele>43.2</ele>
        <time>2022-10-19T12:49:29Z</time>
      </trkpt>
      <trkpt lat="49.88907" lon="2.47034">
        <ele>43.2</ele>
        <time>2022-10-19T12:49:30Z</time>
      </trkpt>
      <trkpt lat="49.88907" lon="2.47034">
        <ele>43.2</ele>
        <time>2022-10-19T12:49:31Z</time>
      </trkpt>
      <trkpt lat="49.88907" lon="2.47034">
        <ele>43.2</ele>
        <time>2022-10-19T12:49:32Z</time>
      </trkpt>
      <trkpt lat="49.88907" lon="2.47034">
        <ele>43.2</ele>
        <time>2022-10-19T12:49:33Z</time>
      </trkpt>
      <trkpt lat="49.88907" lon="2.47034">
        <ele>43.2</ele>
        <time>2022-10-19T12:49:34Z</time>
      </trkpt>
      <trkpt lat="49.88907" lon="2.47034">
        <ele>43.2</ele>
        <time>2022-10-19T12:49:35Z</time>
      </trkpt>
      <trkpt lat="49.88908" lon="2.47034">
        <ele>43.2</ele>
        <time>2022-10-19T12:49:36Z</time>
      </trkpt>
      <trkpt lat="49.88908" lon="2.47034">
        <ele>43.2</ele>
        <time>2022-10-19T12:49:37Z</time>
      </trkpt>
      <trkpt lat="49.88908" lon="2.47034">
        <ele>43.2</ele>
        <time>2022-10-19T12:49:38Z</time>
      </trkpt>
      <trkpt lat="49.88908" lon="2.47034">
        <ele>43.2</ele>
        <time>2022-10-19T12:49:39Z</time>
      </trkpt>
      <trkpt lat="49.88908" lon="2.47035">
        <ele>43.2</ele>
        <time>2022-10-19T12:49:40Z</time>
      </trkpt>
      <trkpt lat="49.88908" lon="2.47035">
        <ele>43.2</ele>
        <time>2022-10-19T12:49:41Z</time>
      </trkpt>
      <trkpt lat="49.88908" lon="2.47035">
        <ele>43.2</ele>
        <time>2022-10-19T12:49:42Z</time>
      </trkpt>
      <trkpt lat="49.88908" lon="2.47035">
        <ele>43.2</ele>
        <time>2022-10-19T12:49:43Z</time>
      </trkpt>
      <trkpt lat="49.88908" lon="2.47035">
        <ele>43.2</ele>
        <time>2022-10-19T12:49:44Z</time>
      </trkpt>
      <trkpt lat="49.88908" lon="2.47035">
        <ele>43.2</ele>
        <time>2022-10-19T12:49:45Z</time>
      </trkpt>
      <trkpt lat="49.88908" lon="2.47035">
        <ele>43.2</ele>
        <time>2022-10-19T12:49:46Z</time>
      </trkpt>
      <trkpt lat="49.88908" lon="2.47035">
        <ele>43.2</ele>
        <time>2022-10-19T12:49:47Z</time>
      </trkpt>
      <trkpt lat="49.88908" lon="2.47035">
        <ele>43.2</ele>
        <time>2022-10-19T12:49:48Z</time>
      </trkpt>
      <trkpt lat="49.88908" lon="2.47035">
        <ele>43.2</ele>
        <time>2022-10-19T12:49:49Z</time>
      </trkpt>
      <trkpt lat="49.88908" lon="2.47035">
        <ele>43.2</ele>
        <time>2022-10-19T12:49:50Z</time>
      </trkpt>
      <trkpt lat="49.88908" lon="2.47035">
        <ele>43.2</ele>
        <time>2022-10-19T12:49:51Z</time>
      </trkpt>
      <trkpt lat="49.88908" lon="2.47036">
        <ele>43.2</ele>
        <time>2022-10-19T12:49:52Z</time>
      </trkpt>
      <trkpt lat="49.88908" lon="2.47036">
        <ele>43.2</ele>
        <time>2022-10-19T12:49:53Z</time>
      </trkpt>
      <trkpt lat="49.88908" lon="2.47036">
        <ele>43.2</ele>
        <time>2022-10-19T12:49:54Z</time>
      </trkpt>
      <trkpt lat="49.88908" lon="2.47036">
        <ele>43.2</ele>
        <time>2022-10-19T12:49:55Z</time>
      </trkpt>
      <trkpt lat="49.88908" lon="2.47036">
        <ele>43.2</ele>
        <time>2022-10-19T12:49:56Z</time>
      </trkpt>
      <trkpt lat="49.88908" lon="2.47036">
        <ele>43.2</ele>
        <time>2022-10-19T12:49:57Z</time>
      </trkpt>
      <trkpt lat="49.88908" lon="2.47036">
        <ele>43.2</ele>
        <time>2022-10-19T12:49:58Z</time>
      </trkpt>
      <trkpt lat="49.88908" lon="2.47036">
        <ele>43.2</ele>
        <time>2022-10-19T12:49:59Z</time>
      </trkpt>
      <trkpt lat="49.88908" lon="2.47036">
        <ele>43.2</ele>
        <time>2022-10-19T12:50:00Z</time>
      </trkpt>
      <trkpt lat="49.88908" lon="2.47036">
        <ele>43.2</ele>
        <time>2022-10-19T12:50:01Z</time>
      </trkpt>
      <trkpt lat="49.88908" lon="2.47036">
        <ele>43.2</ele>
        <time>2022-10-19T12:50:02Z</time>
      </trkpt>
      <trkpt lat="49.88908" lon="2.47036">
        <ele>43.2</ele>
        <time>2022-10-19T12:50:03Z</time>
      </trkpt>
      <trkpt lat="49.88908" lon="2.47037">
        <ele>43.2</ele>
        <time>2022-10-19T12:50:04Z</time>
      </trkpt>
      <trkpt lat="49.88908" lon="2.4704">
        <ele>43.2</ele>
        <time>2022-10-19T12:50:05Z</time>
      </trkpt>
      <trkpt lat="49.88908" lon="2.47041">
        <ele>43.2</ele>
        <time>2022-10-19T12:50:06Z</time>
      </trkpt>
      <trkpt lat="49.88908" lon="2.4704">
        <ele>43.2</ele>
        <time>2022-10-19T12:50:07Z</time>
      </trkpt>
      <trkpt lat="49.88908" lon="2.47038">
        <ele>43.1</ele>
        <time>2022-10-19T12:50:08Z</time>
      </trkpt>
      <trkpt lat="49.88908" lon="2.47038">
        <ele>43.1</ele>
        <time>2022-10-19T12:50:09Z</time>
      </trkpt>
      <trkpt lat="49.88909" lon="2.47036">
        <ele>43.1</ele>
        <time>2022-10-19T12:50:10Z</time>
      </trkpt>
      <trkpt lat="49.88909" lon="2.47034">
        <ele>43.1</ele>
        <time>2022-10-19T12:50:12Z</time>
      </trkpt>
      <trkpt lat="49.88909" lon="2.47032">
        <ele>43.1</ele>
        <time>2022-10-19T12:50:13Z</time>
      </trkpt>
      <trkpt lat="49.88909" lon="2.47029">
        <ele>43.1</ele>
        <time>2022-10-19T12:50:14Z</time>
      </trkpt>
      <trkpt lat="49.88909" lon="2.47026">
        <ele>43.1</ele>
        <time>2022-10-19T12:50:15Z</time>
      </trkpt>
      <trkpt lat="49.88909" lon="2.47024">
        <ele>43.1</ele>
        <time>2022-10-19T12:50:16Z</time>
      </trkpt>
      <trkpt lat="49.88909" lon="2.47022">
        <ele>43</ele>
        <time>2022-10-19T12:50:17Z</time>
      </trkpt>
      <trkpt lat="49.88909" lon="2.4702">
        <ele>43</ele>
        <time>2022-10-19T12:50:18Z</time>
      </trkpt>
      <trkpt lat="49.88908" lon="2.47018">
        <ele>43</ele>
        <time>2022-10-19T12:50:19Z</time>
      </trkpt>
      <trkpt lat="49.88908" lon="2.47017">
        <ele>42.9</ele>
        <time>2022-10-19T12:50:20Z</time>
      </trkpt>
      <trkpt lat="49.88908" lon="2.47014">
        <ele>42.9</ele>
        <time>2022-10-19T12:50:21Z</time>
      </trkpt>
      <trkpt lat="49.88908" lon="2.47012">
        <ele>42.9</ele>
        <time>2022-10-19T12:50:22Z</time>
      </trkpt>
      <trkpt lat="49.88907" lon="2.47011">
        <ele>42.9</ele>
        <time>2022-10-19T12:50:23Z</time>
      </trkpt>
      <trkpt lat="49.88907" lon="2.47008">
        <ele>42.8</ele>
        <time>2022-10-19T12:50:25Z</time>
      </trkpt>
      <trkpt lat="49.88907" lon="2.47006">
        <ele>42.8</ele>
        <time>2022-10-19T12:50:26Z</time>
      </trkpt>
      <trkpt lat="49.88906" lon="2.47003">
        <ele>42.8</ele>
        <time>2022-10-19T12:50:27Z</time>
      </trkpt>
      <trkpt lat="49.88906" lon="2.47002">
        <ele>42.8</ele>
        <time>2022-10-19T12:50:29Z</time>
      </trkpt>
      <trkpt lat="49.88905" lon="2.47001">
        <ele>42.8</ele>
        <time>2022-10-19T12:50:30Z</time>
      </trkpt>
      <trkpt lat="49.88904" lon="2.46997">
        <ele>42.7</ele>
        <time>2022-10-19T12:50:31Z</time>
      </trkpt>
      <trkpt lat="49.88904" lon="2.46996">
        <ele>42.7</ele>
        <time>2022-10-19T12:50:32Z</time>
      </trkpt>
      <trkpt lat="49.88904" lon="2.46995">
        <ele>42.7</ele>
        <time>2022-10-19T12:50:33Z</time>
      </trkpt>
      <trkpt lat="49.88904" lon="2.46993">
        <ele>42.7</ele>
        <time>2022-10-19T12:50:34Z</time>
      </trkpt>
      <trkpt lat="49.88904" lon="2.46991">
        <ele>42.7</ele>
        <time>2022-10-19T12:50:35Z</time>
      </trkpt>
      <trkpt lat="49.88903" lon="2.46989">
        <ele>42.7</ele>
        <time>2022-10-19T12:50:37Z</time>
      </trkpt>
      <trkpt lat="49.88903" lon="2.46987">
        <ele>42.7</ele>
        <time>2022-10-19T12:50:38Z</time>
      </trkpt>
      <trkpt lat="49.88903" lon="2.46984">
        <ele>42.6</ele>
        <time>2022-10-19T12:50:39Z</time>
      </trkpt>
      <trkpt lat="49.88902" lon="2.46982">
        <ele>42.6</ele>
        <time>2022-10-19T12:50:40Z</time>
      </trkpt>
      <trkpt lat="49.88902" lon="2.4698">
        <ele>42.6</ele>
        <time>2022-10-19T12:50:41Z</time>
      </trkpt>
      <trkpt lat="49.88902" lon="2.46978">
        <ele>42.6</ele>
        <time>2022-10-19T12:50:43Z</time>
      </trkpt>
      <trkpt lat="49.88901" lon="2.46976">
        <ele>42.6</ele>
        <time>2022-10-19T12:50:44Z</time>
      </trkpt>
      <trkpt lat="49.88901" lon="2.46974">
        <ele>42.6</ele>
        <time>2022-10-19T12:50:45Z</time>
      </trkpt>
      <trkpt lat="49.88901" lon="2.46972">
        <ele>42.6</ele>
        <time>2022-10-19T12:50:46Z</time>
      </trkpt>
      <trkpt lat="49.889" lon="2.4697">
        <ele>42.6</ele>
        <time>2022-10-19T12:50:47Z</time>
      </trkpt>
      <trkpt lat="49.889" lon="2.46968">
        <ele>42.5</ele>
        <time>2022-10-19T12:50:48Z</time>
      </trkpt>
      <trkpt lat="49.889" lon="2.46965">
        <ele>42.5</ele>
        <time>2022-10-19T12:50:49Z</time>
      </trkpt>
      <trkpt lat="49.889" lon="2.46963">
        <ele>42.5</ele>
        <time>2022-10-19T12:50:50Z</time>
      </trkpt>
      <trkpt lat="49.889" lon="2.46961">
        <ele>42.5</ele>
        <time>2022-10-19T12:50:51Z</time>
      </trkpt>
      <trkpt lat="49.88899" lon="2.46959">
        <ele>42.5</ele>
        <time>2022-10-19T12:50:53Z</time>
      </trkpt>
      <trkpt lat="49.88899" lon="2.46957">
        <ele>42.5</ele>
        <time>2022-10-19T12:50:54Z</time>
      </trkpt>
      <trkpt lat="49.88899" lon="2.46955">
        <ele>42.5</ele>
        <time>2022-10-19T12:50:55Z</time>
      </trkpt>
      <trkpt lat="49.88899" lon="2.46952">
        <ele>42.5</ele>
        <time>2022-10-19T12:50:56Z</time>
      </trkpt>
      <trkpt lat="49.88899" lon="2.4695">
        <ele>42.5</ele>
        <time>2022-10-19T12:50:57Z</time>
      </trkpt>
      <trkpt lat="49.88898" lon="2.46948">
        <ele>42.4</ele>
        <time>2022-10-19T12:50:59Z</time>
      </trkpt>
      <trkpt lat="49.88898" lon="2.46946">
        <ele>42.4</ele>
        <time>2022-10-19T12:51:00Z</time>
      </trkpt>
      <trkpt lat="49.88898" lon="2.46944">
        <ele>42.4</ele>
        <time>2022-10-19T12:51:01Z</time>
      </trkpt>
      <trkpt lat="49.88898" lon="2.46942">
        <ele>42.4</ele>
        <time>2022-10-19T12:51:02Z</time>
      </trkpt>
      <trkpt lat="49.88898" lon="2.46941">
        <ele>42.4</ele>
        <time>2022-10-19T12:51:03Z</time>
      </trkpt>
      <trkpt lat="49.88897" lon="2.46937">
        <ele>42.3</ele>
        <time>2022-10-19T12:51:05Z</time>
      </trkpt>
      <trkpt lat="49.88897" lon="2.46936">
        <ele>42.3</ele>
        <time>2022-10-19T12:51:06Z</time>
      </trkpt>
      <trkpt lat="49.88897" lon="2.46935">
        <ele>42.3</ele>
        <time>2022-10-19T12:51:07Z</time>
      </trkpt>
      <trkpt lat="49.88896" lon="2.46932">
        <ele>42.3</ele>
        <time>2022-10-19T12:51:08Z</time>
      </trkpt>
      <trkpt lat="49.88895" lon="2.4693">
        <ele>42.2</ele>
        <time>2022-10-19T12:51:10Z</time>
      </trkpt>
      <trkpt lat="49.88895" lon="2.46928">
        <ele>42.2</ele>
        <time>2022-10-19T12:51:11Z</time>
      </trkpt>
      <trkpt lat="49.88895" lon="2.46927">
        <ele>42.2</ele>
        <time>2022-10-19T12:51:12Z</time>
      </trkpt>
      <trkpt lat="49.88894" lon="2.46925">
        <ele>42.2</ele>
        <time>2022-10-19T12:51:13Z</time>
      </trkpt>
      <trkpt lat="49.88894" lon="2.46922">
        <ele>42.1</ele>
        <time>2022-10-19T12:51:14Z</time>
      </trkpt>
      <trkpt lat="49.88893" lon="2.46921">
        <ele>42.1</ele>
        <time>2022-10-19T12:51:15Z</time>
      </trkpt>
      <trkpt lat="49.88893" lon="2.4692">
        <ele>42.1</ele>
        <time>2022-10-19T12:51:16Z</time>
      </trkpt>
      <trkpt lat="49.88893" lon="2.46916">
        <ele>42</ele>
        <time>2022-10-19T12:51:17Z</time>
      </trkpt>
      <trkpt lat="49.88893" lon="2.46915">
        <ele>42</ele>
        <time>2022-10-19T12:51:18Z</time>
      </trkpt>
      <trkpt lat="49.88893" lon="2.46914">
        <ele>42</ele>
        <time>2022-10-19T12:51:19Z</time>
      </trkpt>
      <trkpt lat="49.88892" lon="2.46911">
        <ele>42</ele>
        <time>2022-10-19T12:51:20Z</time>
      </trkpt>
      <trkpt lat="49.88892" lon="2.46909">
        <ele>41.9</ele>
        <time>2022-10-19T12:51:21Z</time>
      </trkpt>
      <trkpt lat="49.88892" lon="2.46907">
        <ele>41.9</ele>
        <time>2022-10-19T12:51:23Z</time>
      </trkpt>
      <trkpt lat="49.88892" lon="2.46906">
        <ele>41.9</ele>
        <time>2022-10-19T12:51:24Z</time>
      </trkpt>
      <trkpt lat="49.88891" lon="2.46904">
        <ele>41.9</ele>
        <time>2022-10-19T12:51:25Z</time>
      </trkpt>
      <trkpt lat="49.88891" lon="2.46903">
        <ele>41.9</ele>
        <time>2022-10-19T12:51:26Z</time>
      </trkpt>
      <trkpt lat="49.88891" lon="2.46899">
        <ele>41.8</ele>
        <time>2022-10-19T12:51:27Z</time>
      </trkpt>
      <trkpt lat="49.88891" lon="2.46898">
        <ele>41.8</ele>
        <time>2022-10-19T12:51:28Z</time>
      </trkpt>
      <trkpt lat="49.8889" lon="2.46897">
        <ele>41.8</ele>
        <time>2022-10-19T12:51:29Z</time>
      </trkpt>
      <trkpt lat="49.8889" lon="2.46895">
        <ele>41.8</ele>
        <time>2022-10-19T12:51:30Z</time>
      </trkpt>
      <trkpt lat="49.88889" lon="2.46894">
        <ele>41.8</ele>
        <time>2022-10-19T12:51:31Z</time>
      </trkpt>
      <trkpt lat="49.88889" lon="2.46892">
        <ele>41.7</ele>
        <time>2022-10-19T12:51:32Z</time>
      </trkpt>
      <trkpt lat="49.88889" lon="2.46889">
        <ele>41.7</ele>
        <time>2022-10-19T12:51:34Z</time>
      </trkpt>
      <trkpt lat="49.88889" lon="2.46887">
        <ele>41.7</ele>
        <time>2022-10-19T12:51:35Z</time>
      </trkpt>
      <trkpt lat="49.88888" lon="2.46886">
        <ele>41.7</ele>
        <time>2022-10-19T12:51:36Z</time>
      </trkpt>
      <trkpt lat="49.88888" lon="2.46884">
        <ele>41.7</ele>
        <time>2022-10-19T12:51:37Z</time>
      </trkpt>
      <trkpt lat="49.88888" lon="2.46882">
        <ele>41.7</ele>
        <time>2022-10-19T12:51:38Z</time>
      </trkpt>
      <trkpt lat="49.88887" lon="2.46879">
        <ele>41.6</ele>
        <time>2022-10-19T12:51:39Z</time>
      </trkpt>
      <trkpt lat="49.88887" lon="2.46878">
        <ele>41.6</ele>
        <time>2022-10-19T12:51:41Z</time>
      </trkpt>
      <trkpt lat="49.88887" lon="2.46877">
        <ele>41.6</ele>
        <time>2022-10-19T12:51:42Z</time>
      </trkpt>
      <trkpt lat="49.88887" lon="2.46875">
        <ele>41.6</ele>
        <time>2022-10-19T12:51:43Z</time>
      </trkpt>
      <trkpt lat="49.88887" lon="2.46874">
        <ele>41.6</ele>
        <time>2022-10-19T12:51:44Z</time>
      </trkpt>
      <trkpt lat="49.88886" lon="2.46872">
        <ele>41.6</ele>
        <time>2022-10-19T12:51:45Z</time>
      </trkpt>
      <trkpt lat="49.88886" lon="2.46869">
        <ele>41.5</ele>
        <time>2022-10-19T12:51:46Z</time>
      </trkpt>
      <trkpt lat="49.88886" lon="2.46867">
        <ele>41.5</ele>
        <time>2022-10-19T12:51:47Z</time>
      </trkpt>
      <trkpt lat="49.88886" lon="2.46866">
        <ele>41.5</ele>
        <time>2022-10-19T12:51:48Z</time>
      </trkpt>
      <trkpt lat="49.88886" lon="2.46864">
        <ele>41.5</ele>
        <time>2022-10-19T12:51:49Z</time>
      </trkpt>
      <trkpt lat="49.88886" lon="2.46862">
        <ele>41.5</ele>
        <time>2022-10-19T12:51:50Z</time>
      </trkpt>
      <trkpt lat="49.88886" lon="2.46859">
        <ele>41.4</ele>
        <time>2022-10-19T12:51:52Z</time>
      </trkpt>
      <trkpt lat="49.88886" lon="2.46856">
        <ele>41.4</ele>
        <time>2022-10-19T12:51:53Z</time>
      </trkpt>
      <trkpt lat="49.88885" lon="2.46855">
        <ele>41.4</ele>
        <time>2022-10-19T12:51:54Z</time>
      </trkpt>
      <trkpt lat="49.88885" lon="2.46853">
        <ele>41.4</ele>
        <time>2022-10-19T12:51:55Z</time>
      </trkpt>
      <trkpt lat="49.88885" lon="2.46851">
        <ele>41.4</ele>
        <time>2022-10-19T12:51:56Z</time>
      </trkpt>
      <trkpt lat="49.88885" lon="2.46849">
        <ele>41.3</ele>
        <time>2022-10-19T12:51:57Z</time>
      </trkpt>
      <trkpt lat="49.88885" lon="2.46847">
        <ele>41.3</ele>
        <time>2022-10-19T12:51:59Z</time>
      </trkpt>
      <trkpt lat="49.88884" lon="2.46844">
        <ele>41.3</ele>
        <time>2022-10-19T12:52:00Z</time>
      </trkpt>
      <trkpt lat="49.88884" lon="2.46843">
        <ele>41.2</ele>
        <time>2022-10-19T12:52:01Z</time>
      </trkpt>
      <trkpt lat="49.88884" lon="2.4684">
        <ele>41.2</ele>
        <time>2022-10-19T12:52:02Z</time>
      </trkpt>
      <trkpt lat="49.88883" lon="2.46838">
        <ele>41.2</ele>
        <time>2022-10-19T12:52:03Z</time>
      </trkpt>
      <trkpt lat="49.88883" lon="2.46835">
        <ele>41.1</ele>
        <time>2022-10-19T12:52:05Z</time>
      </trkpt>
      <trkpt lat="49.88883" lon="2.46834">
        <ele>41.1</ele>
        <time>2022-10-19T12:52:06Z</time>
      </trkpt>
      <trkpt lat="49.88883" lon="2.46832">
        <ele>41.1</ele>
        <time>2022-10-19T12:52:07Z</time>
      </trkpt>
      <trkpt lat="49.88883" lon="2.46831">
        <ele>41.1</ele>
        <time>2022-10-19T12:52:08Z</time>
      </trkpt>
      <trkpt lat="49.88883" lon="2.46829">
        <ele>41.1</ele>
        <time>2022-10-19T12:52:09Z</time>
      </trkpt>
      <trkpt lat="49.88883" lon="2.46828">
        <ele>41</ele>
        <time>2022-10-19T12:52:10Z</time>
      </trkpt>
      <trkpt lat="49.88883" lon="2.46826">
        <ele>41</ele>
        <time>2022-10-19T12:52:11Z</time>
      </trkpt>
      <trkpt lat="49.88883" lon="2.46825">
        <ele>41</ele>
        <time>2022-10-19T12:52:12Z</time>
      </trkpt>
      <trkpt lat="49.88882" lon="2.46823">
        <ele>41</ele>
        <time>2022-10-19T12:52:13Z</time>
      </trkpt>
      <trkpt lat="49.88882" lon="2.46822">
        <ele>41</ele>
        <time>2022-10-19T12:52:14Z</time>
      </trkpt>
      <trkpt lat="49.88882" lon="2.4682">
        <ele>40.9</ele>
        <time>2022-10-19T12:52:15Z</time>
      </trkpt>
      <trkpt lat="49.88881" lon="2.46819">
        <ele>40.9</ele>
        <time>2022-10-19T12:52:17Z</time>
      </trkpt>
      <trkpt lat="49.88881" lon="2.46817">
        <ele>40.9</ele>
        <time>2022-10-19T12:52:18Z</time>
      </trkpt>
      <trkpt lat="49.88881" lon="2.46816">
        <ele>40.9</ele>
        <time>2022-10-19T12:52:19Z</time>
      </trkpt>
      <trkpt lat="49.88881" lon="2.46815">
        <ele>40.9</ele>
        <time>2022-10-19T12:52:20Z</time>
      </trkpt>
      <trkpt lat="49.8888" lon="2.46813">
        <ele>40.9</ele>
        <time>2022-10-19T12:52:21Z</time>
      </trkpt>
      <trkpt lat="49.8888" lon="2.46812">
        <ele>40.9</ele>
        <time>2022-10-19T12:52:22Z</time>
      </trkpt>
      <trkpt lat="49.88879" lon="2.4681">
        <ele>40.8</ele>
        <time>2022-10-19T12:52:23Z</time>
      </trkpt>
      <trkpt lat="49.88879" lon="2.46808">
        <ele>40.8</ele>
        <time>2022-10-19T12:52:24Z</time>
      </trkpt>
      <trkpt lat="49.88878" lon="2.46807">
        <ele>40.8</ele>
        <time>2022-10-19T12:52:26Z</time>
      </trkpt>
      <trkpt lat="49.88878" lon="2.46805">
        <ele>40.8</ele>
        <time>2022-10-19T12:52:27Z</time>
      </trkpt>
      <trkpt lat="49.88878" lon="2.46802">
        <ele>40.8</ele>
        <time>2022-10-19T12:52:28Z</time>
      </trkpt>
      <trkpt lat="49.88878" lon="2.468">
        <ele>40.8</ele>
        <time>2022-10-19T12:52:29Z</time>
      </trkpt>
      <trkpt lat="49.88877" lon="2.46799">
        <ele>40.8</ele>
        <time>2022-10-19T12:52:30Z</time>
      </trkpt>
      <trkpt lat="49.88877" lon="2.46797">
        <ele>40.8</ele>
        <time>2022-10-19T12:52:31Z</time>
      </trkpt>
      <trkpt lat="49.88876" lon="2.46795">
        <ele>40.8</ele>
        <time>2022-10-19T12:52:32Z</time>
      </trkpt>
      <trkpt lat="49.88876" lon="2.46793">
        <ele>40.8</ele>
        <time>2022-10-19T12:52:34Z</time>
      </trkpt>
      <trkpt lat="49.88875" lon="2.46791">
        <ele>40.8</ele>
        <time>2022-10-19T12:52:35Z</time>
      </trkpt>
      <trkpt lat="49.88875" lon="2.46789">
        <ele>40.8</ele>
        <time>2022-10-19T12:52:36Z</time>
      </trkpt>
      <trkpt lat="49.88875" lon="2.46788">
        <ele>40.8</ele>
        <time>2022-10-19T12:52:37Z</time>
      </trkpt>
      <trkpt lat="49.88874" lon="2.46785">
        <ele>40.8</ele>
        <time>2022-10-19T12:52:38Z</time>
      </trkpt>
      <trkpt lat="49.88874" lon="2.46783">
        <ele>40.8</ele>
        <time>2022-10-19T12:52:40Z</time>
      </trkpt>
      <trkpt lat="49.88874" lon="2.46782">
        <ele>40.7</ele>
        <time>2022-10-19T12:52:41Z</time>
      </trkpt>
      <trkpt lat="49.88873" lon="2.46779">
        <ele>40.7</ele>
        <time>2022-10-19T12:52:42Z</time>
      </trkpt>
      <trkpt lat="49.88873" lon="2.46777">
        <ele>40.7</ele>
        <time>2022-10-19T12:52:43Z</time>
      </trkpt>
      <trkpt lat="49.88873" lon="2.46776">
        <ele>40.7</ele>
        <time>2022-10-19T12:52:44Z</time>
      </trkpt>
      <trkpt lat="49.88872" lon="2.46774">
        <ele>40.7</ele>
        <time>2022-10-19T12:52:45Z</time>
      </trkpt>
      <trkpt lat="49.88872" lon="2.46773">
        <ele>40.7</ele>
        <time>2022-10-19T12:52:46Z</time>
      </trkpt>
      <trkpt lat="49.88872" lon="2.46771">
        <ele>40.7</ele>
        <time>2022-10-19T12:52:47Z</time>
      </trkpt>
      <trkpt lat="49.88871" lon="2.46768">
        <ele>40.6</ele>
        <time>2022-10-19T12:52:48Z</time>
      </trkpt>
      <trkpt lat="49.88871" lon="2.46767">
        <ele>40.6</ele>
        <time>2022-10-19T12:52:49Z</time>
      </trkpt>
      <trkpt lat="49.88871" lon="2.46765">
        <ele>40.6</ele>
        <time>2022-10-19T12:52:50Z</time>
      </trkpt>
      <trkpt lat="49.88871" lon="2.46762">
        <ele>40.6</ele>
        <time>2022-10-19T12:52:52Z</time>
      </trkpt>
      <trkpt lat="49.8887" lon="2.46761">
        <ele>40.6</ele>
        <time>2022-10-19T12:52:53Z</time>
      </trkpt>
      <trkpt lat="49.8887" lon="2.46759">
        <ele>40.6</ele>
        <time>2022-10-19T12:52:54Z</time>
      </trkpt>
      <trkpt lat="49.8887" lon="2.46756">
        <ele>40.5</ele>
        <time>2022-10-19T12:52:55Z</time>
      </trkpt>
      <trkpt lat="49.8887" lon="2.46755">
        <ele>40.5</ele>
        <time>2022-10-19T12:52:56Z</time>
      </trkpt>
      <trkpt lat="49.88869" lon="2.46753">
        <ele>40.5</ele>
        <time>2022-10-19T12:52:57Z</time>
      </trkpt>
      <trkpt lat="49.88869" lon="2.4675">
        <ele>40.5</ele>
        <time>2022-10-19T12:52:58Z</time>
      </trkpt>
      <trkpt lat="49.88869" lon="2.46749">
        <ele>40.5</ele>
        <time>2022-10-19T12:52:59Z</time>
      </trkpt>
      <trkpt lat="49.88868" lon="2.46748">
        <ele>40.5</ele>
        <time>2022-10-19T12:53:00Z</time>
      </trkpt>
      <trkpt lat="49.88868" lon="2.46745">
        <ele>40.5</ele>
        <time>2022-10-19T12:53:01Z</time>
      </trkpt>
      <trkpt lat="49.88868" lon="2.46743">
        <ele>40.4</ele>
        <time>2022-10-19T12:53:03Z</time>
      </trkpt>
      <trkpt lat="49.88867" lon="2.46742">
        <ele>40.4</ele>
        <time>2022-10-19T12:53:04Z</time>
      </trkpt>
      <trkpt lat="49.88867" lon="2.46739">
        <ele>40.4</ele>
        <time>2022-10-19T12:53:05Z</time>
      </trkpt>
      <trkpt lat="49.88866" lon="2.46738">
        <ele>40.4</ele>
        <time>2022-10-19T12:53:06Z</time>
      </trkpt>
      <trkpt lat="49.88866" lon="2.46737">
        <ele>40.4</ele>
        <time>2022-10-19T12:53:07Z</time>
      </trkpt>
      <trkpt lat="49.88866" lon="2.46733">
        <ele>40.4</ele>
        <time>2022-10-19T12:53:08Z</time>
      </trkpt>
      <trkpt lat="49.88865" lon="2.46732">
        <ele>40.4</ele>
        <time>2022-10-19T12:53:09Z</time>
      </trkpt>
      <trkpt lat="49.88865" lon="2.46731">
        <ele>40.4</ele>
        <time>2022-10-19T12:53:10Z</time>
      </trkpt>
      <trkpt lat="49.88865" lon="2.46729">
        <ele>40.4</ele>
        <time>2022-10-19T12:53:11Z</time>
      </trkpt>
      <trkpt lat="49.88865" lon="2.46727">
        <ele>40.4</ele>
        <time>2022-10-19T12:53:12Z</time>
      </trkpt>
      <trkpt lat="49.88865" lon="2.46725">
        <ele>40.4</ele>
        <time>2022-10-19T12:53:13Z</time>
      </trkpt>
      <trkpt lat="49.88864" lon="2.46722">
        <ele>40.4</ele>
        <time>2022-10-19T12:53:15Z</time>
      </trkpt>
      <trkpt lat="49.88864" lon="2.46721">
        <ele>40.4</ele>
        <time>2022-10-19T12:53:16Z</time>
      </trkpt>
      <trkpt lat="49.88863" lon="2.4672">
        <ele>40.4</ele>
        <time>2022-10-19T12:53:17Z</time>
      </trkpt>
      <trkpt lat="49.88863" lon="2.46716">
        <ele>40.4</ele>
        <time>2022-10-19T12:53:18Z</time>
      </trkpt>
      <trkpt lat="49.88862" lon="2.46715">
        <ele>40.4</ele>
        <time>2022-10-19T12:53:19Z</time>
      </trkpt>
      <trkpt lat="49.88862" lon="2.46713">
        <ele>40.4</ele>
        <time>2022-10-19T12:53:20Z</time>
      </trkpt>
      <trkpt lat="49.88862" lon="2.46712">
        <ele>40.4</ele>
        <time>2022-10-19T12:53:21Z</time>
      </trkpt>
      <trkpt lat="49.88861" lon="2.4671">
        <ele>40.3</ele>
        <time>2022-10-19T12:53:22Z</time>
      </trkpt>
      <trkpt lat="49.88861" lon="2.46709">
        <ele>40.3</ele>
        <time>2022-10-19T12:53:23Z</time>
      </trkpt>
      <trkpt lat="49.8886" lon="2.46705">
        <ele>40.3</ele>
        <time>2022-10-19T12:53:24Z</time>
      </trkpt>
      <trkpt lat="49.8886" lon="2.46703">
        <ele>40.3</ele>
        <time>2022-10-19T12:53:26Z</time>
      </trkpt>
      <trkpt lat="49.8886" lon="2.46701">
        <ele>40.3</ele>
        <time>2022-10-19T12:53:27Z</time>
      </trkpt>
      <trkpt lat="49.88859" lon="2.467">
        <ele>40.3</ele>
        <time>2022-10-19T12:53:28Z</time>
      </trkpt>
      <trkpt lat="49.88859" lon="2.46698">
        <ele>40.3</ele>
        <time>2022-10-19T12:53:29Z</time>
      </trkpt>
      <trkpt lat="49.88858" lon="2.46697">
        <ele>40.3</ele>
        <time>2022-10-19T12:53:30Z</time>
      </trkpt>
      <trkpt lat="49.88858" lon="2.46695">
        <ele>40.3</ele>
        <time>2022-10-19T12:53:31Z</time>
      </trkpt>
      <trkpt lat="49.88858" lon="2.46694">
        <ele>40.2</ele>
        <time>2022-10-19T12:53:32Z</time>
      </trkpt>
      <trkpt lat="49.88858" lon="2.46691">
        <ele>40.2</ele>
        <time>2022-10-19T12:53:33Z</time>
      </trkpt>
      <trkpt lat="49.88857" lon="2.46689">
        <ele>40.2</ele>
        <time>2022-10-19T12:53:34Z</time>
      </trkpt>
      <trkpt lat="49.88857" lon="2.46688">
        <ele>40.2</ele>
        <time>2022-10-19T12:53:35Z</time>
      </trkpt>
      <trkpt lat="49.88857" lon="2.46686">
        <ele>40.2</ele>
        <time>2022-10-19T12:53:36Z</time>
      </trkpt>
      <trkpt lat="49.88856" lon="2.46683">
        <ele>40.2</ele>
        <time>2022-10-19T12:53:38Z</time>
      </trkpt>
      <trkpt lat="49.88856" lon="2.46681">
        <ele>40.2</ele>
        <time>2022-10-19T12:53:39Z</time>
      </trkpt>
      <trkpt lat="49.88855" lon="2.4668">
        <ele>40.2</ele>
        <time>2022-10-19T12:53:40Z</time>
      </trkpt>
      <trkpt lat="49.88855" lon="2.46677">
        <ele>40.2</ele>
        <time>2022-10-19T12:53:42Z</time>
      </trkpt>
      <trkpt lat="49.88855" lon="2.46675">
        <ele>40.2</ele>
        <time>2022-10-19T12:53:43Z</time>
      </trkpt>
      <trkpt lat="49.88854" lon="2.46673">
        <ele>40.1</ele>
        <time>2022-10-19T12:53:44Z</time>
      </trkpt>
      <trkpt lat="49.88853" lon="2.4667">
        <ele>40.1</ele>
        <time>2022-10-19T12:53:45Z</time>
      </trkpt>
      <trkpt lat="49.88853" lon="2.46669">
        <ele>40.1</ele>
        <time>2022-10-19T12:53:46Z</time>
      </trkpt>
      <trkpt lat="49.88853" lon="2.46668">
        <ele>40.1</ele>
        <time>2022-10-19T12:53:47Z</time>
      </trkpt>
      <trkpt lat="49.88852" lon="2.46665">
        <ele>40.1</ele>
        <time>2022-10-19T12:53:48Z</time>
      </trkpt>
      <trkpt lat="49.88852" lon="2.46663">
        <ele>40.1</ele>
        <time>2022-10-19T12:53:49Z</time>
      </trkpt>
      <trkpt lat="49.88851" lon="2.46662">
        <ele>40.1</ele>
        <time>2022-10-19T12:53:51Z</time>
      </trkpt>
      <trkpt lat="49.88851" lon="2.4666">
        <ele>40.1</ele>
        <time>2022-10-19T12:53:52Z</time>
      </trkpt>
      <trkpt lat="49.8885" lon="2.46659">
        <ele>40.1</ele>
        <time>2022-10-19T12:53:53Z</time>
      </trkpt>
      <trkpt lat="49.8885" lon="2.46657">
        <ele>40.1</ele>
        <time>2022-10-19T12:53:54Z</time>
      </trkpt>
      <trkpt lat="49.88849" lon="2.46655">
        <ele>40.1</ele>
        <time>2022-10-19T12:53:55Z</time>
      </trkpt>
      <trkpt lat="49.88848" lon="2.46654">
        <ele>40.1</ele>
        <time>2022-10-19T12:53:56Z</time>
      </trkpt>
      <trkpt lat="49.88848" lon="2.46653">
        <ele>40.1</ele>
        <time>2022-10-19T12:53:57Z</time>
      </trkpt>
      <trkpt lat="49.88848" lon="2.46651">
        <ele>40.1</ele>
        <time>2022-10-19T12:53:58Z</time>
      </trkpt>
      <trkpt lat="49.88847" lon="2.46649">
        <ele>40.1</ele>
        <time>2022-10-19T12:53:59Z</time>
      </trkpt>
      <trkpt lat="49.88847" lon="2.46648">
        <ele>40</ele>
        <time>2022-10-19T12:54:00Z</time>
      </trkpt>
      <trkpt lat="49.88847" lon="2.46646">
        <ele>40</ele>
        <time>2022-10-19T12:54:01Z</time>
      </trkpt>
      <trkpt lat="49.88846" lon="2.46644">
        <ele>40</ele>
        <time>2022-10-19T12:54:02Z</time>
      </trkpt>
      <trkpt lat="49.88846" lon="2.46642">
        <ele>40</ele>
        <time>2022-10-19T12:54:04Z</time>
      </trkpt>
      <trkpt lat="49.88845" lon="2.46639">
        <ele>40</ele>
        <time>2022-10-19T12:54:05Z</time>
      </trkpt>
      <trkpt lat="49.88845" lon="2.46638">
        <ele>40</ele>
        <time>2022-10-19T12:54:06Z</time>
      </trkpt>
      <trkpt lat="49.88845" lon="2.46637">
        <ele>40</ele>
        <time>2022-10-19T12:54:07Z</time>
      </trkpt>
      <trkpt lat="49.88844" lon="2.46635">
        <ele>40</ele>
        <time>2022-10-19T12:54:08Z</time>
      </trkpt>
      <trkpt lat="49.88844" lon="2.46634">
        <ele>40</ele>
        <time>2022-10-19T12:54:09Z</time>
      </trkpt>
      <trkpt lat="49.88843" lon="2.46632">
        <ele>40</ele>
        <time>2022-10-19T12:54:10Z</time>
      </trkpt>
      <trkpt lat="49.88843" lon="2.46631">
        <ele>40</ele>
        <time>2022-10-19T12:54:11Z</time>
      </trkpt>
      <trkpt lat="49.88843" lon="2.46629">
        <ele>40</ele>
        <time>2022-10-19T12:54:12Z</time>
      </trkpt>
      <trkpt lat="49.88843" lon="2.46628">
        <ele>40.1</ele>
        <time>2022-10-19T12:54:13Z</time>
      </trkpt>
      <trkpt lat="49.88843" lon="2.46626">
        <ele>40.1</ele>
        <time>2022-10-19T12:54:14Z</time>
      </trkpt>
      <trkpt lat="49.88842" lon="2.46624">
        <ele>40.1</ele>
        <time>2022-10-19T12:54:16Z</time>
      </trkpt>
      <trkpt lat="49.88842" lon="2.46622">
        <ele>40.1</ele>
        <time>2022-10-19T12:54:17Z</time>
      </trkpt>
      <trkpt lat="49.88841" lon="2.46621">
        <ele>40.1</ele>
        <time>2022-10-19T12:54:18Z</time>
      </trkpt>
      <trkpt lat="49.88841" lon="2.46619">
        <ele>40.1</ele>
        <time>2022-10-19T12:54:19Z</time>
      </trkpt>
      <trkpt lat="49.8884" lon="2.46617">
        <ele>40.1</ele>
        <time>2022-10-19T12:54:20Z</time>
      </trkpt>
      <trkpt lat="49.8884" lon="2.46615">
        <ele>40.1</ele>
        <time>2022-10-19T12:54:21Z</time>
      </trkpt>
      <trkpt lat="49.8884" lon="2.46613">
        <ele>40.1</ele>
        <time>2022-10-19T12:54:22Z</time>
      </trkpt>
      <trkpt lat="49.88839" lon="2.46612">
        <ele>40.1</ele>
        <time>2022-10-19T12:54:23Z</time>
      </trkpt>
      <trkpt lat="49.88839" lon="2.46609">
        <ele>40.1</ele>
        <time>2022-10-19T12:54:24Z</time>
      </trkpt>
      <trkpt lat="49.88838" lon="2.46608">
        <ele>40.1</ele>
        <time>2022-10-19T12:54:26Z</time>
      </trkpt>
      <trkpt lat="49.88838" lon="2.46607">
        <ele>40.1</ele>
        <time>2022-10-19T12:54:27Z</time>
      </trkpt>
      <trkpt lat="49.88837" lon="2.46604">
        <ele>40.1</ele>
        <time>2022-10-19T12:54:28Z</time>
      </trkpt>
      <trkpt lat="49.88837" lon="2.46603">
        <ele>40.1</ele>
        <time>2022-10-19T12:54:29Z</time>
      </trkpt>
      <trkpt lat="49.88836" lon="2.46602">
        <ele>40.1</ele>
        <time>2022-10-19T12:54:30Z</time>
      </trkpt>
      <trkpt lat="49.88836" lon="2.46599">
        <ele>40.1</ele>
        <time>2022-10-19T12:54:31Z</time>
      </trkpt>
      <trkpt lat="49.88835" lon="2.46597">
        <ele>40.2</ele>
        <time>2022-10-19T12:54:32Z</time>
      </trkpt>
      <trkpt lat="49.88835" lon="2.46594">
        <ele>40.2</ele>
        <time>2022-10-19T12:54:33Z</time>
      </trkpt>
      <trkpt lat="49.88835" lon="2.46593">
        <ele>40.2</ele>
        <time>2022-10-19T12:54:34Z</time>
      </trkpt>
      <trkpt lat="49.88834" lon="2.46592">
        <ele>40.2</ele>
        <time>2022-10-19T12:54:35Z</time>
      </trkpt>
      <trkpt lat="49.88834" lon="2.4659">
        <ele>40.2</ele>
        <time>2022-10-19T12:54:37Z</time>
      </trkpt>
      <trkpt lat="49.88833" lon="2.46588">
        <ele>40.2</ele>
        <time>2022-10-19T12:54:38Z</time>
      </trkpt>
      <trkpt lat="49.88833" lon="2.46586">
        <ele>40.2</ele>
        <time>2022-10-19T12:54:39Z</time>
      </trkpt>
      <trkpt lat="49.88832" lon="2.46584">
        <ele>40.2</ele>
        <time>2022-10-19T12:54:40Z</time>
      </trkpt>
      <trkpt lat="49.88832" lon="2.46582">
        <ele>40.2</ele>
        <time>2022-10-19T12:54:41Z</time>
      </trkpt>
      <trkpt lat="49.88831" lon="2.4658">
        <ele>40.2</ele>
        <time>2022-10-19T12:54:42Z</time>
      </trkpt>
      <trkpt lat="49.88831" lon="2.46579">
        <ele>40.2</ele>
        <time>2022-10-19T12:54:43Z</time>
      </trkpt>
      <trkpt lat="49.8883" lon="2.46578">
        <ele>40.2</ele>
        <time>2022-10-19T12:54:44Z</time>
      </trkpt>
      <trkpt lat="49.8883" lon="2.46576">
        <ele>40.2</ele>
        <time>2022-10-19T12:54:46Z</time>
      </trkpt>
      <trkpt lat="49.8883" lon="2.46574">
        <ele>40.2</ele>
        <time>2022-10-19T12:54:47Z</time>
      </trkpt>
      <trkpt lat="49.8883" lon="2.46573">
        <ele>40.2</ele>
        <time>2022-10-19T12:54:48Z</time>
      </trkpt>
      <trkpt lat="49.88829" lon="2.46571">
        <ele>40.3</ele>
        <time>2022-10-19T12:54:49Z</time>
      </trkpt>
      <trkpt lat="49.88829" lon="2.46569">
        <ele>40.3</ele>
        <time>2022-10-19T12:54:50Z</time>
      </trkpt>
      <trkpt lat="49.88829" lon="2.46567">
        <ele>40.3</ele>
        <time>2022-10-19T12:54:51Z</time>
      </trkpt>
      <trkpt lat="49.88828" lon="2.46566">
        <ele>40.3</ele>
        <time>2022-10-19T12:54:52Z</time>
      </trkpt>
      <trkpt lat="49.88828" lon="2.46564">
        <ele>40.3</ele>
        <time>2022-10-19T12:54:53Z</time>
      </trkpt>
      <trkpt lat="49.88827" lon="2.46562">
        <ele>40.3</ele>
        <time>2022-10-19T12:54:54Z</time>
      </trkpt>
      <trkpt lat="49.88826" lon="2.4656">
        <ele>40.3</ele>
        <time>2022-10-19T12:54:56Z</time>
      </trkpt>
      <trkpt lat="49.88826" lon="2.46559">
        <ele>40.3</ele>
        <time>2022-10-19T12:54:57Z</time>
      </trkpt>
      <trkpt lat="49.88824" lon="2.46557">
        <ele>40.3</ele>
        <time>2022-10-19T12:54:58Z</time>
      </trkpt>
      <trkpt lat="49.88824" lon="2.46556">
        <ele>40.4</ele>
        <time>2022-10-19T12:54:59Z</time>
      </trkpt>
      <trkpt lat="49.88823" lon="2.46555">
        <ele>40.4</ele>
        <time>2022-10-19T12:55:00Z</time>
      </trkpt>
      <trkpt lat="49.88822" lon="2.46552">
        <ele>40.4</ele>
        <time>2022-10-19T12:55:02Z</time>
      </trkpt>
      <trkpt lat="49.88821" lon="2.46551">
        <ele>40.4</ele>
        <time>2022-10-19T12:55:03Z</time>
      </trkpt>
      <trkpt lat="49.88821" lon="2.4655">
        <ele>40.4</ele>
        <time>2022-10-19T12:55:04Z</time>
      </trkpt>
      <trkpt lat="49.8882" lon="2.46549">
        <ele>40.4</ele>
        <time>2022-10-19T12:55:05Z</time>
      </trkpt>
      <trkpt lat="49.8882" lon="2.46547">
        <ele>40.4</ele>
        <time>2022-10-19T12:55:06Z</time>
      </trkpt>
      <trkpt lat="49.88819" lon="2.46545">
        <ele>40.4</ele>
        <time>2022-10-19T12:55:08Z</time>
      </trkpt>
      <trkpt lat="49.88818" lon="2.46543">
        <ele>40.4</ele>
        <time>2022-10-19T12:55:09Z</time>
      </trkpt>
      <trkpt lat="49.88818" lon="2.46541">
        <ele>40.4</ele>
        <time>2022-10-19T12:55:10Z</time>
      </trkpt>
      <trkpt lat="49.88817" lon="2.46538">
        <ele>40.4</ele>
        <time>2022-10-19T12:55:11Z</time>
      </trkpt>
      <trkpt lat="49.88816" lon="2.46537">
        <ele>40.4</ele>
        <time>2022-10-19T12:55:12Z</time>
      </trkpt>
      <trkpt lat="49.88816" lon="2.46536">
        <ele>40.4</ele>
        <time>2022-10-19T12:55:13Z</time>
      </trkpt>
      <trkpt lat="49.88815" lon="2.46533">
        <ele>40.4</ele>
        <time>2022-10-19T12:55:14Z</time>
      </trkpt>
      <trkpt lat="49.88815" lon="2.46531">
        <ele>40.4</ele>
        <time>2022-10-19T12:55:15Z</time>
      </trkpt>
      <trkpt lat="49.88815" lon="2.4653">
        <ele>40.4</ele>
        <time>2022-10-19T12:55:16Z</time>
      </trkpt>
      <trkpt lat="49.88814" lon="2.46527">
        <ele>40.4</ele>
        <time>2022-10-19T12:55:18Z</time>
      </trkpt>
      <trkpt lat="49.88813" lon="2.46526">
        <ele>40.4</ele>
        <time>2022-10-19T12:55:19Z</time>
      </trkpt>
      <trkpt lat="49.88813" lon="2.46525">
        <ele>40.4</ele>
        <time>2022-10-19T12:55:20Z</time>
      </trkpt>
      <trkpt lat="49.88813" lon="2.46523">
        <ele>40.3</ele>
        <time>2022-10-19T12:55:21Z</time>
      </trkpt>
      <trkpt lat="49.88812" lon="2.46521">
        <ele>40.3</ele>
        <time>2022-10-19T12:55:22Z</time>
      </trkpt>
      <trkpt lat="49.88811" lon="2.46518">
        <ele>40.3</ele>
        <time>2022-10-19T12:55:24Z</time>
      </trkpt>
      <trkpt lat="49.8881" lon="2.46516">
        <ele>40.3</ele>
        <time>2022-10-19T12:55:25Z</time>
      </trkpt>
      <trkpt lat="49.8881" lon="2.46515">
        <ele>40.3</ele>
        <time>2022-10-19T12:55:26Z</time>
      </trkpt>
      <trkpt lat="49.8881" lon="2.46514">
        <ele>40.3</ele>
        <time>2022-10-19T12:55:27Z</time>
      </trkpt>
      <trkpt lat="49.8881" lon="2.46513">
        <ele>40.3</ele>
        <time>2022-10-19T12:55:28Z</time>
      </trkpt>
      <trkpt lat="49.88809" lon="2.46511">
        <ele>40.3</ele>
        <time>2022-10-19T12:55:29Z</time>
      </trkpt>
      <trkpt lat="49.88808" lon="2.46508">
        <ele>40.3</ele>
        <time>2022-10-19T12:55:30Z</time>
      </trkpt>
      <trkpt lat="49.88808" lon="2.46507">
        <ele>40.3</ele>
        <time>2022-10-19T12:55:31Z</time>
      </trkpt>
      <trkpt lat="49.88807" lon="2.46506">
        <ele>40.3</ele>
        <time>2022-10-19T12:55:32Z</time>
      </trkpt>
      <trkpt lat="49.88807" lon="2.46504">
        <ele>40.3</ele>
        <time>2022-10-19T12:55:34Z</time>
      </trkpt>
      <trkpt lat="49.88806" lon="2.46502">
        <ele>40.3</ele>
        <time>2022-10-19T12:55:35Z</time>
      </trkpt>
      <trkpt lat="49.88806" lon="2.46501">
        <ele>40.3</ele>
        <time>2022-10-19T12:55:36Z</time>
      </trkpt>
      <trkpt lat="49.88805" lon="2.465">
        <ele>40.2</ele>
        <time>2022-10-19T12:55:37Z</time>
      </trkpt>
      <trkpt lat="49.88804" lon="2.46498">
        <ele>40.2</ele>
        <time>2022-10-19T12:55:38Z</time>
      </trkpt>
      <trkpt lat="49.88804" lon="2.46496">
        <ele>40.2</ele>
        <time>2022-10-19T12:55:39Z</time>
      </trkpt>
      <trkpt lat="49.88803" lon="2.46495">
        <ele>40.2</ele>
        <time>2022-10-19T12:55:40Z</time>
      </trkpt>
      <trkpt lat="49.88802" lon="2.46494">
        <ele>40.2</ele>
        <time>2022-10-19T12:55:41Z</time>
      </trkpt>
      <trkpt lat="49.88802" lon="2.46492">
        <ele>40.2</ele>
        <time>2022-10-19T12:55:42Z</time>
      </trkpt>
      <trkpt lat="49.88801" lon="2.46491">
        <ele>40.2</ele>
        <time>2022-10-19T12:55:43Z</time>
      </trkpt>
      <trkpt lat="49.888" lon="2.46488">
        <ele>40.2</ele>
        <time>2022-10-19T12:55:45Z</time>
      </trkpt>
      <trkpt lat="49.88799" lon="2.46487">
        <ele>40.2</ele>
        <time>2022-10-19T12:55:46Z</time>
      </trkpt>
      <trkpt lat="49.88798" lon="2.46485">
        <ele>40.1</ele>
        <time>2022-10-19T12:55:47Z</time>
      </trkpt>
      <trkpt lat="49.88798" lon="2.46484">
        <ele>40.1</ele>
        <time>2022-10-19T12:55:48Z</time>
      </trkpt>
      <trkpt lat="49.88797" lon="2.46482">
        <ele>40.1</ele>
        <time>2022-10-19T12:55:49Z</time>
      </trkpt>
      <trkpt lat="49.88796" lon="2.46481">
        <ele>40.1</ele>
        <time>2022-10-19T12:55:50Z</time>
      </trkpt>
      <trkpt lat="49.88796" lon="2.46479">
        <ele>40.1</ele>
        <time>2022-10-19T12:55:52Z</time>
      </trkpt>
      <trkpt lat="49.88795" lon="2.46476">
        <ele>40.1</ele>
        <time>2022-10-19T12:55:53Z</time>
      </trkpt>
      <trkpt lat="49.88795" lon="2.46474">
        <ele>40</ele>
        <time>2022-10-19T12:55:54Z</time>
      </trkpt>
      <trkpt lat="49.88794" lon="2.46472">
        <ele>40</ele>
        <time>2022-10-19T12:55:55Z</time>
      </trkpt>
      <trkpt lat="49.88794" lon="2.4647">
        <ele>40</ele>
        <time>2022-10-19T12:55:57Z</time>
      </trkpt>
      <trkpt lat="49.88793" lon="2.46468">
        <ele>40</ele>
        <time>2022-10-19T12:55:58Z</time>
      </trkpt>
      <trkpt lat="49.88793" lon="2.46467">
        <ele>40</ele>
        <time>2022-10-19T12:55:59Z</time>
      </trkpt>
      <trkpt lat="49.88793" lon="2.46465">
        <ele>40</ele>
        <time>2022-10-19T12:56:00Z</time>
      </trkpt>
      <trkpt lat="49.88792" lon="2.46462">
        <ele>40</ele>
        <time>2022-10-19T12:56:01Z</time>
      </trkpt>
      <trkpt lat="49.88792" lon="2.46461">
        <ele>40</ele>
        <time>2022-10-19T12:56:02Z</time>
      </trkpt>
      <trkpt lat="49.88791" lon="2.4646">
        <ele>40</ele>
        <time>2022-10-19T12:56:03Z</time>
      </trkpt>
      <trkpt lat="49.88791" lon="2.46458">
        <ele>40</ele>
        <time>2022-10-19T12:56:04Z</time>
      </trkpt>
      <trkpt lat="49.8879" lon="2.46456">
        <ele>40</ele>
        <time>2022-10-19T12:56:06Z</time>
      </trkpt>
      <trkpt lat="49.8879" lon="2.46454">
        <ele>40</ele>
        <time>2022-10-19T12:56:07Z</time>
      </trkpt>
      <trkpt lat="49.88789" lon="2.46453">
        <ele>40</ele>
        <time>2022-10-19T12:56:08Z</time>
      </trkpt>
      <trkpt lat="49.88789" lon="2.46452">
        <ele>40</ele>
        <time>2022-10-19T12:56:09Z</time>
      </trkpt>
      <trkpt lat="49.88787" lon="2.46449">
        <ele>40</ele>
        <time>2022-10-19T12:56:10Z</time>
      </trkpt>
      <trkpt lat="49.88787" lon="2.46448">
        <ele>40</ele>
        <time>2022-10-19T12:56:12Z</time>
      </trkpt>
      <trkpt lat="49.88786" lon="2.46447">
        <ele>40.1</ele>
        <time>2022-10-19T12:56:13Z</time>
      </trkpt>
      <trkpt lat="49.88786" lon="2.46445">
        <ele>40.1</ele>
        <time>2022-10-19T12:56:14Z</time>
      </trkpt>
      <trkpt lat="49.88785" lon="2.46444">
        <ele>40.1</ele>
        <time>2022-10-19T12:56:15Z</time>
      </trkpt>
      <trkpt lat="49.88784" lon="2.46442">
        <ele>40.1</ele>
        <time>2022-10-19T12:56:16Z</time>
      </trkpt>
      <trkpt lat="49.88784" lon="2.4644">
        <ele>40.1</ele>
        <time>2022-10-19T12:56:17Z</time>
      </trkpt>
      <trkpt lat="49.88783" lon="2.46439">
        <ele>40.1</ele>
        <time>2022-10-19T12:56:18Z</time>
      </trkpt>
      <trkpt lat="49.88783" lon="2.46438">
        <ele>40.1</ele>
        <time>2022-10-19T12:56:20Z</time>
      </trkpt>
      <trkpt lat="49.88782" lon="2.46436">
        <ele>40.1</ele>
        <time>2022-10-19T12:56:21Z</time>
      </trkpt>
      <trkpt lat="49.88782" lon="2.46435">
        <ele>40.1</ele>
        <time>2022-10-19T12:56:22Z</time>
      </trkpt>
      <trkpt lat="49.8878" lon="2.46432">
        <ele>40.1</ele>
        <time>2022-10-19T12:56:23Z</time>
      </trkpt>
      <trkpt lat="49.8878" lon="2.46431">
        <ele>40.1</ele>
        <time>2022-10-19T12:56:24Z</time>
      </trkpt>
      <trkpt lat="49.8878" lon="2.46429">
        <ele>40.1</ele>
        <time>2022-10-19T12:56:25Z</time>
      </trkpt>
      <trkpt lat="49.88779" lon="2.46428">
        <ele>40.1</ele>
        <time>2022-10-19T12:56:26Z</time>
      </trkpt>
      <trkpt lat="49.88779" lon="2.46427">
        <ele>40.1</ele>
        <time>2022-10-19T12:56:28Z</time>
      </trkpt>
      <trkpt lat="49.88778" lon="2.46425">
        <ele>40.1</ele>
        <time>2022-10-19T12:56:29Z</time>
      </trkpt>
      <trkpt lat="49.88777" lon="2.46423">
        <ele>40.1</ele>
        <time>2022-10-19T12:56:30Z</time>
      </trkpt>
      <trkpt lat="49.88777" lon="2.46422">
        <ele>40.1</ele>
        <time>2022-10-19T12:56:31Z</time>
      </trkpt>
      <trkpt lat="49.88776" lon="2.46421">
        <ele>40.1</ele>
        <time>2022-10-19T12:56:32Z</time>
      </trkpt>
      <trkpt lat="49.88775" lon="2.46419">
        <ele>40.1</ele>
        <time>2022-10-19T12:56:33Z</time>
      </trkpt>
      <trkpt lat="49.88774" lon="2.46418">
        <ele>40</ele>
        <time>2022-10-19T12:56:34Z</time>
      </trkpt>
      <trkpt lat="49.88774" lon="2.46417">
        <ele>40</ele>
        <time>2022-10-19T12:56:35Z</time>
      </trkpt>
      <trkpt lat="49.88773" lon="2.46415">
        <ele>40</ele>
        <time>2022-10-19T12:56:36Z</time>
      </trkpt>
      <trkpt lat="49.88773" lon="2.46414">
        <ele>40</ele>
        <time>2022-10-19T12:56:37Z</time>
      </trkpt>
      <trkpt lat="49.88772" lon="2.46412">
        <ele>40</ele>
        <time>2022-10-19T12:56:39Z</time>
      </trkpt>
      <trkpt lat="49.88771" lon="2.46411">
        <ele>40</ele>
        <time>2022-10-19T12:56:40Z</time>
      </trkpt>
      <trkpt lat="49.8877" lon="2.46409">
        <ele>40</ele>
        <time>2022-10-19T12:56:41Z</time>
      </trkpt>
      <trkpt lat="49.8877" lon="2.46408">
        <ele>40</ele>
        <time>2022-10-19T12:56:42Z</time>
      </trkpt>
      <trkpt lat="49.88769" lon="2.46406">
        <ele>39.9</ele>
        <time>2022-10-19T12:56:43Z</time>
      </trkpt>
      <trkpt lat="49.88768" lon="2.46404">
        <ele>39.9</ele>
        <time>2022-10-19T12:56:44Z</time>
      </trkpt>
      <trkpt lat="49.88768" lon="2.46403">
        <ele>39.9</ele>
        <time>2022-10-19T12:56:45Z</time>
      </trkpt>
      <trkpt lat="49.88767" lon="2.464">
        <ele>39.9</ele>
        <time>2022-10-19T12:56:47Z</time>
      </trkpt>
      <trkpt lat="49.88766" lon="2.46399">
        <ele>39.9</ele>
        <time>2022-10-19T12:56:48Z</time>
      </trkpt>
      <trkpt lat="49.88766" lon="2.46398">
        <ele>39.8</ele>
        <time>2022-10-19T12:56:49Z</time>
      </trkpt>
      <trkpt lat="49.88765" lon="2.46397">
        <ele>39.8</ele>
        <time>2022-10-19T12:56:50Z</time>
      </trkpt>
      <trkpt lat="49.88765" lon="2.46395">
        <ele>39.8</ele>
        <time>2022-10-19T12:56:51Z</time>
      </trkpt>
      <trkpt lat="49.88764" lon="2.46394">
        <ele>39.8</ele>
        <time>2022-10-19T12:56:52Z</time>
      </trkpt>
      <trkpt lat="49.88764" lon="2.46393">
        <ele>39.8</ele>
        <time>2022-10-19T12:56:53Z</time>
      </trkpt>
      <trkpt lat="49.88763" lon="2.46391">
        <ele>39.8</ele>
        <time>2022-10-19T12:56:55Z</time>
      </trkpt>
      <trkpt lat="49.88763" lon="2.4639">
        <ele>39.8</ele>
        <time>2022-10-19T12:56:56Z</time>
      </trkpt>
      <trkpt lat="49.88762" lon="2.46388">
        <ele>39.7</ele>
        <time>2022-10-19T12:56:57Z</time>
      </trkpt>
      <trkpt lat="49.88762" lon="2.46386">
        <ele>39.7</ele>
        <time>2022-10-19T12:56:58Z</time>
      </trkpt>
      <trkpt lat="49.88762" lon="2.46384">
        <ele>39.7</ele>
        <time>2022-10-19T12:56:59Z</time>
      </trkpt>
      <trkpt lat="49.88762" lon="2.46383">
        <ele>39.7</ele>
        <time>2022-10-19T12:57:00Z</time>
      </trkpt>
      <trkpt lat="49.88762" lon="2.46381">
        <ele>39.7</ele>
        <time>2022-10-19T12:57:01Z</time>
      </trkpt>
      <trkpt lat="49.88762" lon="2.46379">
        <ele>39.7</ele>
        <time>2022-10-19T12:57:03Z</time>
      </trkpt>
      <trkpt lat="49.88762" lon="2.46378">
        <ele>39.7</ele>
        <time>2022-10-19T12:57:04Z</time>
      </trkpt>
      <trkpt lat="49.88762" lon="2.46377">
        <ele>39.7</ele>
        <time>2022-10-19T12:57:05Z</time>
      </trkpt>
      <trkpt lat="49.88762" lon="2.46376">
        <ele>39.7</ele>
        <time>2022-10-19T12:57:06Z</time>
      </trkpt>
      <trkpt lat="49.88762" lon="2.46376">
        <ele>39.6</ele>
        <time>2022-10-19T12:57:07Z</time>
      </trkpt>
      <trkpt lat="49.88762" lon="2.46375">
        <ele>39.6</ele>
        <time>2022-10-19T12:57:08Z</time>
      </trkpt>
      <trkpt lat="49.88762" lon="2.46375">
        <ele>39.6</ele>
        <time>2022-10-19T12:57:09Z</time>
      </trkpt>
      <trkpt lat="49.88762" lon="2.46375">
        <ele>39.6</ele>
        <time>2022-10-19T12:57:10Z</time>
      </trkpt>
      <trkpt lat="49.88762" lon="2.46374">
        <ele>39.6</ele>
        <time>2022-10-19T12:57:11Z</time>
      </trkpt>
      <trkpt lat="49.88762" lon="2.46375">
        <ele>39.6</ele>
        <time>2022-10-19T12:57:12Z</time>
      </trkpt>
      <trkpt lat="49.88762" lon="2.46375">
        <ele>39.6</ele>
        <time>2022-10-19T12:57:13Z</time>
      </trkpt>
      <trkpt lat="49.88762" lon="2.46375">
        <ele>39.6</ele>
        <time>2022-10-19T12:57:14Z</time>
      </trkpt>
      <trkpt lat="49.88762" lon="2.46375">
        <ele>39.6</ele>
        <time>2022-10-19T12:57:15Z</time>
      </trkpt>
      <trkpt lat="49.88762" lon="2.46375">
        <ele>39.6</ele>
        <time>2022-10-19T12:57:16Z</time>
      </trkpt>
      <trkpt lat="49.88762" lon="2.46375">
        <ele>39.6</ele>
        <time>2022-10-19T12:57:17Z</time>
      </trkpt>
      <trkpt lat="49.88762" lon="2.46375">
        <ele>39.6</ele>
        <time>2022-10-19T12:57:18Z</time>
      </trkpt>
      <trkpt lat="49.88762" lon="2.46375">
        <ele>39.6</ele>
        <time>2022-10-19T12:57:19Z</time>
      </trkpt>
      <trkpt lat="49.88762" lon="2.46375">
        <ele>39.6</ele>
        <time>2022-10-19T12:57:20Z</time>
      </trkpt>
      <trkpt lat="49.88762" lon="2.46375">
        <ele>39.6</ele>
        <time>2022-10-19T12:57:21Z</time>
      </trkpt>
      <trkpt lat="49.88762" lon="2.46375">
        <ele>39.6</ele>
        <time>2022-10-19T12:57:22Z</time>
      </trkpt>
      <trkpt lat="49.88762" lon="2.46375">
        <ele>39.6</ele>
        <time>2022-10-19T12:57:23Z</time>
      </trkpt>
      <trkpt lat="49.88762" lon="2.46375">
        <ele>39.6</ele>
        <time>2022-10-19T12:57:24Z</time>
      </trkpt>
      <trkpt lat="49.88762" lon="2.46376">
        <ele>39.6</ele>
        <time>2022-10-19T12:57:25Z</time>
      </trkpt>
      <trkpt lat="49.88762" lon="2.46376">
        <ele>39.6</ele>
        <time>2022-10-19T12:57:26Z</time>
      </trkpt>
      <trkpt lat="49.88762" lon="2.46376">
        <ele>39.6</ele>
        <time>2022-10-19T12:57:27Z</time>
      </trkpt>
      <trkpt lat="49.88762" lon="2.46376">
        <ele>39.6</ele>
        <time>2022-10-19T12:57:28Z</time>
      </trkpt>
      <trkpt lat="49.88762" lon="2.46376">
        <ele>39.6</ele>
        <time>2022-10-19T12:57:29Z</time>
      </trkpt>
      <trkpt lat="49.88762" lon="2.46376">
        <ele>39.6</ele>
        <time>2022-10-19T12:57:30Z</time>
      </trkpt>
      <trkpt lat="49.88762" lon="2.46376">
        <ele>39.6</ele>
        <time>2022-10-19T12:57:31Z</time>
      </trkpt>
      <trkpt lat="49.88762" lon="2.46376">
        <ele>39.6</ele>
        <time>2022-10-19T12:57:32Z</time>
      </trkpt>
      <trkpt lat="49.88762" lon="2.46376">
        <ele>39.6</ele>
        <time>2022-10-19T12:57:33Z</time>
      </trkpt>
      <trkpt lat="49.88762" lon="2.46376">
        <ele>39.6</ele>
        <time>2022-10-19T12:57:34Z</time>
      </trkpt>
      <trkpt lat="49.88762" lon="2.46376">
        <ele>39.6</ele>
        <time>2022-10-19T12:57:35Z</time>
      </trkpt>
      <trkpt lat="49.88762" lon="2.46376">
        <ele>39.6</ele>
        <time>2022-10-19T12:57:36Z</time>
      </trkpt>
      <trkpt lat="49.88762" lon="2.46376">
        <ele>39.6</ele>
        <time>2022-10-19T12:57:37Z</time>
      </trkpt>
      <trkpt lat="49.88762" lon="2.46376">
        <ele>39.6</ele>
        <time>2022-10-19T12:57:38Z</time>
      </trkpt>
      <trkpt lat="49.88762" lon="2.46376">
        <ele>39.6</ele>
        <time>2022-10-19T12:57:39Z</time>
      </trkpt>
      <trkpt lat="49.88762" lon="2.46376">
        <ele>39.6</ele>
        <time>2022-10-19T12:57:40Z</time>
      </trkpt>
      <trkpt lat="49.88762" lon="2.46376">
        <ele>39.6</ele>
        <time>2022-10-19T12:57:41Z</time>
      </trkpt>
      <trkpt lat="49.88762" lon="2.46376">
        <ele>39.6</ele>
        <time>2022-10-19T12:57:42Z</time>
      </trkpt>
      <trkpt lat="49.88762" lon="2.46376">
        <ele>39.6</ele>
        <time>2022-10-19T12:57:43Z</time>
      </trkpt>
      <trkpt lat="49.88762" lon="2.46376">
        <ele>39.6</ele>
        <time>2022-10-19T12:57:44Z</time>
      </trkpt>
      <trkpt lat="49.88762" lon="2.46376">
        <ele>39.6</ele>
        <time>2022-10-19T12:57:45Z</time>
      </trkpt>
      <trkpt lat="49.88762" lon="2.46376">
        <ele>39.6</ele>
        <time>2022-10-19T12:57:46Z</time>
      </trkpt>
      <trkpt lat="49.88762" lon="2.46376">
        <ele>39.6</ele>
        <time>2022-10-19T12:57:47Z</time>
      </trkpt>
      <trkpt lat="49.88762" lon="2.46376">
        <ele>39.6</ele>
        <time>2022-10-19T12:57:48Z</time>
      </trkpt>
      <trkpt lat="49.88762" lon="2.4638">
        <ele>39.6</ele>
        <time>2022-10-19T12:57:49Z</time>
      </trkpt>
      <trkpt lat="49.88763" lon="2.46382">
        <ele>39.6</ele>
        <time>2022-10-19T12:57:50Z</time>
      </trkpt>
      <trkpt lat="49.88763" lon="2.46383">
        <ele>39.6</ele>
        <time>2022-10-19T12:57:51Z</time>
      </trkpt>
      <trkpt lat="49.88763" lon="2.46383">
        <ele>39.6</ele>
        <time>2022-10-19T12:57:52Z</time>
      </trkpt>
      <trkpt lat="49.88762" lon="2.46382">
        <ele>39.6</ele>
        <time>2022-10-19T12:57:53Z</time>
      </trkpt>
      <trkpt lat="49.88762" lon="2.46382">
        <ele>39.6</ele>
        <time>2022-10-19T12:57:54Z</time>
      </trkpt>
      <trkpt lat="49.88762" lon="2.46381">
        <ele>39.6</ele>
        <time>2022-10-19T12:57:55Z</time>
      </trkpt>
      <trkpt lat="49.88762" lon="2.46381">
        <ele>39.6</ele>
        <time>2022-10-19T12:57:56Z</time>
      </trkpt>
      <trkpt lat="49.88762" lon="2.46381">
        <ele>39.6</ele>
        <time>2022-10-19T12:57:57Z</time>
      </trkpt>
      <trkpt lat="49.88762" lon="2.46381">
        <ele>39.6</ele>
        <time>2022-10-19T12:57:58Z</time>
      </trkpt>
      <trkpt lat="49.88762" lon="2.46381">
        <ele>39.6</ele>
        <time>2022-10-19T12:57:59Z</time>
      </trkpt>
      <trkpt lat="49.88762" lon="2.46381">
        <ele>39.6</ele>
        <time>2022-10-19T12:58:00Z</time>
      </trkpt>
      <trkpt lat="49.88762" lon="2.46381">
        <ele>39.6</ele>
        <time>2022-10-19T12:58:01Z</time>
      </trkpt>
      <trkpt lat="49.88762" lon="2.46381">
        <ele>39.6</ele>
        <time>2022-10-19T12:58:02Z</time>
      </trkpt>
      <trkpt lat="49.88763" lon="2.46381">
        <ele>39.6</ele>
        <time>2022-10-19T12:58:03Z</time>
      </trkpt>
      <trkpt lat="49.88763" lon="2.46381">
        <ele>39.6</ele>
        <time>2022-10-19T12:58:04Z</time>
      </trkpt>
      <trkpt lat="49.88763" lon="2.4638">
        <ele>39.6</ele>
        <time>2022-10-19T12:58:05Z</time>
      </trkpt>
      <trkpt lat="49.88763" lon="2.4638">
        <ele>39.6</ele>
        <time>2022-10-19T12:58:06Z</time>
      </trkpt>
      <trkpt lat="49.88763" lon="2.4638">
        <ele>39.6</ele>
        <time>2022-10-19T12:58:07Z</time>
      </trkpt>
      <trkpt lat="49.88763" lon="2.4638">
        <ele>39.6</ele>
        <time>2022-10-19T12:58:08Z</time>
      </trkpt>
      <trkpt lat="49.88763" lon="2.4638">
        <ele>39.6</ele>
        <time>2022-10-19T12:58:09Z</time>
      </trkpt>
      <trkpt lat="49.88763" lon="2.4638">
        <ele>39.6</ele>
        <time>2022-10-19T12:58:10Z</time>
      </trkpt>
      <trkpt lat="49.88763" lon="2.4638">
        <ele>39.6</ele>
        <time>2022-10-19T12:58:11Z</time>
      </trkpt>
      <trkpt lat="49.88763" lon="2.4638">
        <ele>39.6</ele>
        <time>2022-10-19T12:58:12Z</time>
      </trkpt>
      <trkpt lat="49.88763" lon="2.4638">
        <ele>39.6</ele>
        <time>2022-10-19T12:58:14Z</time>
      </trkpt>
      <trkpt lat="49.88763" lon="2.46378">
        <ele>39.6</ele>
        <time>2022-10-19T12:58:15Z</time>
      </trkpt>
      <trkpt lat="49.88762" lon="2.46378">
        <ele>39.6</ele>
        <time>2022-10-19T12:58:16Z</time>
      </trkpt>
      <trkpt lat="49.88762" lon="2.46376">
        <ele>39.6</ele>
        <time>2022-10-19T12:58:17Z</time>
      </trkpt>
      <trkpt lat="49.88761" lon="2.46375">
        <ele>39.6</ele>
        <time>2022-10-19T12:58:18Z</time>
      </trkpt>
      <trkpt lat="49.8876" lon="2.46372">
        <ele>39.6</ele>
        <time>2022-10-19T12:58:19Z</time>
      </trkpt>
      <trkpt lat="49.8876" lon="2.46371">
        <ele>39.6</ele>
        <time>2022-10-19T12:58:21Z</time>
      </trkpt>
      <trkpt lat="49.88759" lon="2.4637">
        <ele>39.6</ele>
        <time>2022-10-19T12:58:22Z</time>
      </trkpt>
      <trkpt lat="49.88759" lon="2.46368">
        <ele>39.6</ele>
        <time>2022-10-19T12:58:24Z</time>
      </trkpt>
      <trkpt lat="49.88758" lon="2.46367">
        <ele>39.6</ele>
        <time>2022-10-19T12:58:25Z</time>
      </trkpt>
      <trkpt lat="49.88757" lon="2.46366">
        <ele>39.5</ele>
        <time>2022-10-19T12:58:26Z</time>
      </trkpt>
      <trkpt lat="49.88757" lon="2.46364">
        <ele>39.5</ele>
        <time>2022-10-19T12:58:27Z</time>
      </trkpt>
      <trkpt lat="49.88756" lon="2.46363">
        <ele>39.5</ele>
        <time>2022-10-19T12:58:28Z</time>
      </trkpt>
      <trkpt lat="49.88756" lon="2.46361">
        <ele>39.5</ele>
        <time>2022-10-19T12:58:30Z</time>
      </trkpt>
      <trkpt lat="49.88755" lon="2.4636">
        <ele>39.5</ele>
        <time>2022-10-19T12:58:31Z</time>
      </trkpt>
      <trkpt lat="49.88754" lon="2.46359">
        <ele>39.5</ele>
        <time>2022-10-19T12:58:32Z</time>
      </trkpt>
      <trkpt lat="49.88754" lon="2.46357">
        <ele>39.5</ele>
        <time>2022-10-19T12:58:33Z</time>
      </trkpt>
      <trkpt lat="49.88753" lon="2.46356">
        <ele>39.4</ele>
        <time>2022-10-19T12:58:34Z</time>
      </trkpt>
      <trkpt lat="49.88753" lon="2.46355">
        <ele>39.4</ele>
        <time>2022-10-19T12:58:35Z</time>
      </trkpt>
      <trkpt lat="49.88752" lon="2.46354">
        <ele>39.4</ele>
        <time>2022-10-19T12:58:36Z</time>
      </trkpt>
      <trkpt lat="49.88751" lon="2.46352">
        <ele>39.4</ele>
        <time>2022-10-19T12:58:38Z</time>
      </trkpt>
      <trkpt lat="49.88751" lon="2.4635">
        <ele>39.3</ele>
        <time>2022-10-19T12:58:39Z</time>
      </trkpt>
      <trkpt lat="49.8875" lon="2.46349">
        <ele>39.3</ele>
        <time>2022-10-19T12:58:40Z</time>
      </trkpt>
      <trkpt lat="49.88749" lon="2.46348">
        <ele>39.3</ele>
        <time>2022-10-19T12:58:41Z</time>
      </trkpt>
      <trkpt lat="49.88748" lon="2.46345">
        <ele>39.2</ele>
        <time>2022-10-19T12:58:42Z</time>
      </trkpt>
      <trkpt lat="49.88747" lon="2.46344">
        <ele>39.2</ele>
        <time>2022-10-19T12:58:43Z</time>
      </trkpt>
      <trkpt lat="49.88747" lon="2.46343">
        <ele>39.2</ele>
        <time>2022-10-19T12:58:44Z</time>
      </trkpt>
      <trkpt lat="49.88746" lon="2.46341">
        <ele>39.1</ele>
        <time>2022-10-19T12:58:46Z</time>
      </trkpt>
      <trkpt lat="49.88745" lon="2.4634">
        <ele>39.1</ele>
        <time>2022-10-19T12:58:47Z</time>
      </trkpt>
      <trkpt lat="49.88744" lon="2.46339">
        <ele>39.1</ele>
        <time>2022-10-19T12:58:48Z</time>
      </trkpt>
      <trkpt lat="49.88744" lon="2.46337">
        <ele>39</ele>
        <time>2022-10-19T12:58:49Z</time>
      </trkpt>
      <trkpt lat="49.88743" lon="2.46336">
        <ele>39</ele>
        <time>2022-10-19T12:58:51Z</time>
      </trkpt>
      <trkpt lat="49.88742" lon="2.46334">
        <ele>39</ele>
        <time>2022-10-19T12:58:52Z</time>
      </trkpt>
      <trkpt lat="49.88741" lon="2.46333">
        <ele>39</ele>
        <time>2022-10-19T12:58:53Z</time>
      </trkpt>
      <trkpt lat="49.8874" lon="2.46332">
        <ele>38.9</ele>
        <time>2022-10-19T12:58:55Z</time>
      </trkpt>
      <trkpt lat="49.8874" lon="2.46331">
        <ele>38.9</ele>
        <time>2022-10-19T12:58:56Z</time>
      </trkpt>
      <trkpt lat="49.88739" lon="2.46331">
        <ele>39</ele>
        <time>2022-10-19T12:58:57Z</time>
      </trkpt>
      <trkpt lat="49.88739" lon="2.46329">
        <ele>39</ele>
        <time>2022-10-19T12:58:58Z</time>
      </trkpt>
      <trkpt lat="49.88738" lon="2.46328">
        <ele>39</ele>
        <time>2022-10-19T12:59:00Z</time>
      </trkpt>
      <trkpt lat="49.88738" lon="2.46327">
        <ele>39.1</ele>
        <time>2022-10-19T12:59:01Z</time>
      </trkpt>
      <trkpt lat="49.88738" lon="2.46326">
        <ele>39.1</ele>
        <time>2022-10-19T12:59:02Z</time>
      </trkpt>
      <trkpt lat="49.88738" lon="2.46325">
        <ele>39.1</ele>
        <time>2022-10-19T12:59:03Z</time>
      </trkpt>
      <trkpt lat="49.88739" lon="2.46323">
        <ele>39.2</ele>
        <time>2022-10-19T12:59:05Z</time>
      </trkpt>
      <trkpt lat="49.8874" lon="2.46323">
        <ele>39.2</ele>
        <time>2022-10-19T12:59:06Z</time>
      </trkpt>
      <trkpt lat="49.88741" lon="2.46323">
        <ele>39.2</ele>
        <time>2022-10-19T12:59:07Z</time>
      </trkpt>
      <trkpt lat="49.88741" lon="2.46322">
        <ele>39.3</ele>
        <time>2022-10-19T12:59:08Z</time>
      </trkpt>
      <trkpt lat="49.88742" lon="2.46322">
        <ele>39.3</ele>
        <time>2022-10-19T12:59:09Z</time>
      </trkpt>
      <trkpt lat="49.88742" lon="2.46322">
        <ele>39.3</ele>
        <time>2022-10-19T12:59:10Z</time>
      </trkpt>
      <trkpt lat="49.88742" lon="2.46323">
        <ele>39.3</ele>
        <time>2022-10-19T12:59:11Z</time>
      </trkpt>
      <trkpt lat="49.88742" lon="2.46323">
        <ele>39.3</ele>
        <time>2022-10-19T12:59:12Z</time>
      </trkpt>
      <trkpt lat="49.88742" lon="2.46324">
        <ele>39.3</ele>
        <time>2022-10-19T12:59:13Z</time>
      </trkpt>
      <trkpt lat="49.88743" lon="2.46324">
        <ele>39.3</ele>
        <time>2022-10-19T12:59:15Z</time>
      </trkpt>
      <trkpt lat="49.88743" lon="2.46324">
        <ele>39.3</ele>
        <time>2022-10-19T12:59:16Z</time>
      </trkpt>
      <trkpt lat="49.88743" lon="2.46324">
        <ele>39.3</ele>
        <time>2022-10-19T12:59:17Z</time>
      </trkpt>
      <trkpt lat="49.88743" lon="2.46324">
        <ele>39.3</ele>
        <time>2022-10-19T12:59:18Z</time>
      </trkpt>
      <trkpt lat="49.88743" lon="2.46324">
        <ele>39.3</ele>
        <time>2022-10-19T12:59:19Z</time>
      </trkpt>
      <trkpt lat="49.88743" lon="2.46324">
        <ele>39.4</ele>
        <time>2022-10-19T12:59:20Z</time>
      </trkpt>
      <trkpt lat="49.88744" lon="2.46324">
        <ele>39.4</ele>
        <time>2022-10-19T12:59:21Z</time>
      </trkpt>
      <trkpt lat="49.88744" lon="2.46324">
        <ele>39.4</ele>
        <time>2022-10-19T12:59:22Z</time>
      </trkpt>
      <trkpt lat="49.88744" lon="2.46324">
        <ele>39.4</ele>
        <time>2022-10-19T12:59:23Z</time>
      </trkpt>
      <trkpt lat="49.88744" lon="2.46324">
        <ele>39.4</ele>
        <time>2022-10-19T12:59:24Z</time>
      </trkpt>
      <trkpt lat="49.88744" lon="2.46324">
        <ele>39.4</ele>
        <time>2022-10-19T12:59:25Z</time>
      </trkpt>
      <trkpt lat="49.88744" lon="2.46324">
        <ele>39.4</ele>
        <time>2022-10-19T12:59:26Z</time>
      </trkpt>
      <trkpt lat="49.88745" lon="2.46324">
        <ele>39.4</ele>
        <time>2022-10-19T12:59:27Z</time>
      </trkpt>
      <trkpt lat="49.88745" lon="2.46325">
        <ele>39.4</ele>
        <time>2022-10-19T12:59:28Z</time>
      </trkpt>
      <trkpt lat="49.88745" lon="2.46325">
        <ele>39.4</ele>
        <time>2022-10-19T12:59:29Z</time>
      </trkpt>
      <trkpt lat="49.88745" lon="2.46325">
        <ele>39.4</ele>
        <time>2022-10-19T12:59:30Z</time>
      </trkpt>
      <trkpt lat="49.88745" lon="2.46325">
        <ele>39.4</ele>
        <time>2022-10-19T12:59:31Z</time>
      </trkpt>
      <trkpt lat="49.88745" lon="2.46325">
        <ele>39.4</ele>
        <time>2022-10-19T12:59:32Z</time>
      </trkpt>
      <trkpt lat="49.88746" lon="2.46325">
        <ele>39.4</ele>
        <time>2022-10-19T12:59:34Z</time>
      </trkpt>
      <trkpt lat="49.88746" lon="2.46325">
        <ele>39.4</ele>
        <time>2022-10-19T12:59:35Z</time>
      </trkpt>
      <trkpt lat="49.88747" lon="2.46325">
        <ele>39.5</ele>
        <time>2022-10-19T12:59:36Z</time>
      </trkpt>
      <trkpt lat="49.88749" lon="2.46325">
        <ele>39.5</ele>
        <time>2022-10-19T12:59:37Z</time>
      </trkpt>
      <trkpt lat="49.88751" lon="2.46324">
        <ele>39.6</ele>
        <time>2022-10-19T12:59:38Z</time>
      </trkpt>
      <trkpt lat="49.88752" lon="2.46324">
        <ele>39.6</ele>
        <time>2022-10-19T12:59:39Z</time>
      </trkpt>
      <trkpt lat="49.88754" lon="2.46323">
        <ele>39.7</ele>
        <time>2022-10-19T12:59:41Z</time>
      </trkpt>
      <trkpt lat="49.88755" lon="2.46322">
        <ele>39.7</ele>
        <time>2022-10-19T12:59:42Z</time>
      </trkpt>
      <trkpt lat="49.88755" lon="2.46321">
        <ele>39.7</ele>
        <time>2022-10-19T12:59:43Z</time>
      </trkpt>
      <trkpt lat="49.88757" lon="2.4632">
        <ele>39.8</ele>
        <time>2022-10-19T12:59:44Z</time>
      </trkpt>
      <trkpt lat="49.88758" lon="2.46319">
        <ele>39.8</ele>
        <time>2022-10-19T12:59:45Z</time>
      </trkpt>
      <trkpt lat="49.88759" lon="2.46319">
        <ele>39.8</ele>
        <time>2022-10-19T12:59:46Z</time>
      </trkpt>
      <trkpt lat="49.8876" lon="2.46318">
        <ele>39.8</ele>
        <time>2022-10-19T12:59:47Z</time>
      </trkpt>
      <trkpt lat="49.8876" lon="2.46317">
        <ele>39.9</ele>
        <time>2022-10-19T12:59:48Z</time>
      </trkpt>
      <trkpt lat="49.88761" lon="2.46317">
        <ele>39.9</ele>
        <time>2022-10-19T12:59:49Z</time>
      </trkpt>
      <trkpt lat="49.88762" lon="2.46316">
        <ele>39.9</ele>
        <time>2022-10-19T12:59:50Z</time>
      </trkpt>
      <trkpt lat="49.88763" lon="2.46315">
        <ele>40</ele>
        <time>2022-10-19T12:59:51Z</time>
      </trkpt>
      <trkpt lat="49.88764" lon="2.46314">
        <ele>40</ele>
        <time>2022-10-19T12:59:52Z</time>
      </trkpt>
      <trkpt lat="49.88766" lon="2.46312">
        <ele>40</ele>
        <time>2022-10-19T12:59:54Z</time>
      </trkpt>
      <trkpt lat="49.88766" lon="2.46311">
        <ele>40</ele>
        <time>2022-10-19T12:59:55Z</time>
      </trkpt>
      <trkpt lat="49.88767" lon="2.46311">
        <ele>40.1</ele>
        <time>2022-10-19T12:59:56Z</time>
      </trkpt>
      <trkpt lat="49.88768" lon="2.4631">
        <ele>40.1</ele>
        <time>2022-10-19T12:59:57Z</time>
      </trkpt>
      <trkpt lat="49.88769" lon="2.46309">
        <ele>40.1</ele>
        <time>2022-10-19T12:59:58Z</time>
      </trkpt>
      <trkpt lat="49.8877" lon="2.46308">
        <ele>40.1</ele>
        <time>2022-10-19T12:59:59Z</time>
      </trkpt>
      <trkpt lat="49.88771" lon="2.46308">
        <ele>40.1</ele>
        <time>2022-10-19T13:00:01Z</time>
      </trkpt>
      <trkpt lat="49.88772" lon="2.46307">
        <ele>40.2</ele>
        <time>2022-10-19T13:00:02Z</time>
      </trkpt>
      <trkpt lat="49.88774" lon="2.46306">
        <ele>40.2</ele>
        <time>2022-10-19T13:00:03Z</time>
      </trkpt>
      <trkpt lat="49.88775" lon="2.46305">
        <ele>40.2</ele>
        <time>2022-10-19T13:00:04Z</time>
      </trkpt>
      <trkpt lat="49.88776" lon="2.46305">
        <ele>40.3</ele>
        <time>2022-10-19T13:00:05Z</time>
      </trkpt>
      <trkpt lat="49.88777" lon="2.46304">
        <ele>40.3</ele>
        <time>2022-10-19T13:00:06Z</time>
      </trkpt>
      <trkpt lat="49.88778" lon="2.46303">
        <ele>40.3</ele>
        <time>2022-10-19T13:00:07Z</time>
      </trkpt>
      <trkpt lat="49.8878" lon="2.46303">
        <ele>40.3</ele>
        <time>2022-10-19T13:00:09Z</time>
      </trkpt>
      <trkpt lat="49.88781" lon="2.46302">
        <ele>40.4</ele>
        <time>2022-10-19T13:00:10Z</time>
      </trkpt>
      <trkpt lat="49.88783" lon="2.46302">
        <ele>40.4</ele>
        <time>2022-10-19T13:00:11Z</time>
      </trkpt>
      <trkpt lat="49.88784" lon="2.46301">
        <ele>40.4</ele>
        <time>2022-10-19T13:00:12Z</time>
      </trkpt>
      <trkpt lat="49.88785" lon="2.46301">
        <ele>40.4</ele>
        <time>2022-10-19T13:00:13Z</time>
      </trkpt>
      <trkpt lat="49.88786" lon="2.463">
        <ele>40.5</ele>
        <time>2022-10-19T13:00:14Z</time>
      </trkpt>
      <trkpt lat="49.88786" lon="2.46299">
        <ele>40.5</ele>
        <time>2022-10-19T13:00:15Z</time>
      </trkpt>
      <trkpt lat="49.88788" lon="2.46298">
        <ele>40.5</ele>
        <time>2022-10-19T13:00:17Z</time>
      </trkpt>
      <trkpt lat="49.88788" lon="2.46297">
        <ele>40.5</ele>
        <time>2022-10-19T13:00:18Z</time>
      </trkpt>
      <trkpt lat="49.8879" lon="2.46296">
        <ele>40.5</ele>
        <time>2022-10-19T13:00:19Z</time>
      </trkpt>
      <trkpt lat="49.88791" lon="2.46295">
        <ele>40.6</ele>
        <time>2022-10-19T13:00:20Z</time>
      </trkpt>
      <trkpt lat="49.88792" lon="2.46295">
        <ele>40.6</ele>
        <time>2022-10-19T13:00:21Z</time>
      </trkpt>
      <trkpt lat="49.88793" lon="2.46295">
        <ele>40.6</ele>
        <time>2022-10-19T13:00:22Z</time>
      </trkpt>
      <trkpt lat="49.88794" lon="2.46295">
        <ele>40.6</ele>
        <time>2022-10-19T13:00:23Z</time>
      </trkpt>
      <trkpt lat="49.88795" lon="2.46294">
        <ele>40.6</ele>
        <time>2022-10-19T13:00:24Z</time>
      </trkpt>
      <trkpt lat="49.88796" lon="2.46294">
        <ele>40.6</ele>
        <time>2022-10-19T13:00:26Z</time>
      </trkpt>
      <trkpt lat="49.88798" lon="2.46293">
        <ele>40.7</ele>
        <time>2022-10-19T13:00:27Z</time>
      </trkpt>
      <trkpt lat="49.888" lon="2.46292">
        <ele>40.7</ele>
        <time>2022-10-19T13:00:28Z</time>
      </trkpt>
      <trkpt lat="49.88801" lon="2.46292">
        <ele>40.7</ele>
        <time>2022-10-19T13:00:29Z</time>
      </trkpt>
      <trkpt lat="49.88802" lon="2.46291">
        <ele>40.7</ele>
        <time>2022-10-19T13:00:30Z</time>
      </trkpt>
      <trkpt lat="49.88803" lon="2.46291">
        <ele>40.7</ele>
        <time>2022-10-19T13:00:31Z</time>
      </trkpt>
      <trkpt lat="49.88804" lon="2.4629">
        <ele>40.7</ele>
        <time>2022-10-19T13:00:32Z</time>
      </trkpt>
      <trkpt lat="49.88805" lon="2.4629">
        <ele>40.7</ele>
        <time>2022-10-19T13:00:33Z</time>
      </trkpt>
      <trkpt lat="49.88808" lon="2.46289">
        <ele>40.8</ele>
        <time>2022-10-19T13:00:35Z</time>
      </trkpt>
      <trkpt lat="49.88809" lon="2.46289">
        <ele>40.8</ele>
        <time>2022-10-19T13:00:36Z</time>
      </trkpt>
      <trkpt lat="49.8881" lon="2.46288">
        <ele>40.8</ele>
        <time>2022-10-19T13:00:37Z</time>
      </trkpt>
      <trkpt lat="49.88811" lon="2.46288">
        <ele>40.8</ele>
        <time>2022-10-19T13:00:38Z</time>
      </trkpt>
      <trkpt lat="49.88812" lon="2.46287">
        <ele>40.8</ele>
        <time>2022-10-19T13:00:39Z</time>
      </trkpt>
      <trkpt lat="49.88814" lon="2.46286">
        <ele>40.8</ele>
        <time>2022-10-19T13:00:41Z</time>
      </trkpt>
      <trkpt lat="49.88815" lon="2.46285">
        <ele>40.8</ele>
        <time>2022-10-19T13:00:42Z</time>
      </trkpt>
      <trkpt lat="49.88816" lon="2.46285">
        <ele>40.8</ele>
        <time>2022-10-19T13:00:43Z</time>
      </trkpt>
      <trkpt lat="49.88818" lon="2.46283">
        <ele>40.8</ele>
        <time>2022-10-19T13:00:44Z</time>
      </trkpt>
      <trkpt lat="49.88819" lon="2.46283">
        <ele>40.8</ele>
        <time>2022-10-19T13:00:45Z</time>
      </trkpt>
      <trkpt lat="49.88819" lon="2.46282">
        <ele>40.8</ele>
        <time>2022-10-19T13:00:46Z</time>
      </trkpt>
      <trkpt lat="49.8882" lon="2.46281">
        <ele>40.8</ele>
        <time>2022-10-19T13:00:47Z</time>
      </trkpt>
      <trkpt lat="49.88821" lon="2.46281">
        <ele>40.8</ele>
        <time>2022-10-19T13:00:48Z</time>
      </trkpt>
      <trkpt lat="49.88823" lon="2.4628">
        <ele>40.8</ele>
        <time>2022-10-19T13:00:49Z</time>
      </trkpt>
      <trkpt lat="49.88824" lon="2.46279">
        <ele>40.8</ele>
        <time>2022-10-19T13:00:51Z</time>
      </trkpt>
      <trkpt lat="49.88825" lon="2.46278">
        <ele>40.8</ele>
        <time>2022-10-19T13:00:52Z</time>
      </trkpt>
      <trkpt lat="49.88827" lon="2.46277">
        <ele>40.8</ele>
        <time>2022-10-19T13:00:53Z</time>
      </trkpt>
      <trkpt lat="49.88827" lon="2.46277">
        <ele>40.8</ele>
        <time>2022-10-19T13:00:54Z</time>
      </trkpt>
      <trkpt lat="49.88828" lon="2.46276">
        <ele>40.8</ele>
        <time>2022-10-19T13:00:55Z</time>
      </trkpt>
      <trkpt lat="49.88829" lon="2.46276">
        <ele>40.8</ele>
        <time>2022-10-19T13:00:56Z</time>
      </trkpt>
      <trkpt lat="49.88831" lon="2.46274">
        <ele>40.8</ele>
        <time>2022-10-19T13:00:57Z</time>
      </trkpt>
      <trkpt lat="49.88832" lon="2.46274">
        <ele>40.8</ele>
        <time>2022-10-19T13:00:58Z</time>
      </trkpt>
      <trkpt lat="49.88832" lon="2.46273">
        <ele>40.7</ele>
        <time>2022-10-19T13:00:59Z</time>
      </trkpt>
      <trkpt lat="49.88833" lon="2.46273">
        <ele>40.7</ele>
        <time>2022-10-19T13:01:00Z</time>
      </trkpt>
      <trkpt lat="49.88835" lon="2.46272">
        <ele>40.7</ele>
        <time>2022-10-19T13:01:01Z</time>
      </trkpt>
      <trkpt lat="49.88836" lon="2.46271">
        <ele>40.7</ele>
        <time>2022-10-19T13:01:02Z</time>
      </trkpt>
      <trkpt lat="49.88837" lon="2.46271">
        <ele>40.7</ele>
        <time>2022-10-19T13:01:04Z</time>
      </trkpt>
      <trkpt lat="49.88838" lon="2.4627">
        <ele>40.7</ele>
        <time>2022-10-19T13:01:05Z</time>
      </trkpt>
      <trkpt lat="49.88839" lon="2.46269">
        <ele>40.7</ele>
        <time>2022-10-19T13:01:06Z</time>
      </trkpt>
      <trkpt lat="49.8884" lon="2.46269">
        <ele>40.7</ele>
        <time>2022-10-19T13:01:07Z</time>
      </trkpt>
      <trkpt lat="49.88841" lon="2.46268">
        <ele>40.7</ele>
        <time>2022-10-19T13:01:08Z</time>
      </trkpt>
      <trkpt lat="49.88842" lon="2.46267">
        <ele>40.7</ele>
        <time>2022-10-19T13:01:09Z</time>
      </trkpt>
      <trkpt lat="49.88843" lon="2.46267">
        <ele>40.7</ele>
        <time>2022-10-19T13:01:10Z</time>
      </trkpt>
      <trkpt lat="49.88845" lon="2.46265">
        <ele>40.7</ele>
        <time>2022-10-19T13:01:12Z</time>
      </trkpt>
      <trkpt lat="49.88846" lon="2.46264">
        <ele>40.7</ele>
        <time>2022-10-19T13:01:13Z</time>
      </trkpt>
      <trkpt lat="49.88847" lon="2.46264">
        <ele>40.7</ele>
        <time>2022-10-19T13:01:14Z</time>
      </trkpt>
      <trkpt lat="49.88848" lon="2.46263">
        <ele>40.6</ele>
        <time>2022-10-19T13:01:15Z</time>
      </trkpt>
      <trkpt lat="49.8885" lon="2.46261">
        <ele>40.6</ele>
        <time>2022-10-19T13:01:17Z</time>
      </trkpt>
      <trkpt lat="49.88851" lon="2.4626">
        <ele>40.6</ele>
        <time>2022-10-19T13:01:18Z</time>
      </trkpt>
      <trkpt lat="49.88851" lon="2.4626">
        <ele>40.6</ele>
        <time>2022-10-19T13:01:19Z</time>
      </trkpt>
      <trkpt lat="49.88852" lon="2.46259">
        <ele>40.6</ele>
        <time>2022-10-19T13:01:20Z</time>
      </trkpt>
      <trkpt lat="49.88854" lon="2.46258">
        <ele>40.6</ele>
        <time>2022-10-19T13:01:22Z</time>
      </trkpt>
      <trkpt lat="49.88855" lon="2.46257">
        <ele>40.6</ele>
        <time>2022-10-19T13:01:23Z</time>
      </trkpt>
      <trkpt lat="49.88857" lon="2.46256">
        <ele>40.6</ele>
        <time>2022-10-19T13:01:24Z</time>
      </trkpt>
      <trkpt lat="49.88858" lon="2.46256">
        <ele>40.6</ele>
        <time>2022-10-19T13:01:25Z</time>
      </trkpt>
      <trkpt lat="49.88859" lon="2.46255">
        <ele>40.6</ele>
        <time>2022-10-19T13:01:26Z</time>
      </trkpt>
      <trkpt lat="49.8886" lon="2.46254">
        <ele>40.6</ele>
        <time>2022-10-19T13:01:27Z</time>
      </trkpt>
      <trkpt lat="49.88861" lon="2.46253">
        <ele>40.6</ele>
        <time>2022-10-19T13:01:29Z</time>
      </trkpt>
      <trkpt lat="49.88862" lon="2.46253">
        <ele>40.6</ele>
        <time>2022-10-19T13:01:30Z</time>
      </trkpt>
      <trkpt lat="49.88863" lon="2.46252">
        <ele>40.5</ele>
        <time>2022-10-19T13:01:31Z</time>
      </trkpt>
      <trkpt lat="49.88864" lon="2.46252">
        <ele>40.5</ele>
        <time>2022-10-19T13:01:32Z</time>
      </trkpt>
      <trkpt lat="49.88865" lon="2.46251">
        <ele>40.5</ele>
        <time>2022-10-19T13:01:33Z</time>
      </trkpt>
      <trkpt lat="49.88866" lon="2.46251">
        <ele>40.5</ele>
        <time>2022-10-19T13:01:34Z</time>
      </trkpt>
      <trkpt lat="49.88867" lon="2.4625">
        <ele>40.5</ele>
        <time>2022-10-19T13:01:35Z</time>
      </trkpt>
      <trkpt lat="49.88868" lon="2.4625">
        <ele>40.5</ele>
        <time>2022-10-19T13:01:36Z</time>
      </trkpt>
      <trkpt lat="49.8887" lon="2.46249">
        <ele>40.5</ele>
        <time>2022-10-19T13:01:38Z</time>
      </trkpt>
      <trkpt lat="49.88871" lon="2.46248">
        <ele>40.5</ele>
        <time>2022-10-19T13:01:39Z</time>
      </trkpt>
      <trkpt lat="49.88872" lon="2.46248">
        <ele>40.5</ele>
        <time>2022-10-19T13:01:40Z</time>
      </trkpt>
      <trkpt lat="49.88873" lon="2.46248">
        <ele>40.5</ele>
        <time>2022-10-19T13:01:41Z</time>
      </trkpt>
      <trkpt lat="49.88875" lon="2.46247">
        <ele>40.5</ele>
        <time>2022-10-19T13:01:42Z</time>
      </trkpt>
      <trkpt lat="49.88876" lon="2.46247">
        <ele>40.5</ele>
        <time>2022-10-19T13:01:43Z</time>
      </trkpt>
      <trkpt lat="49.88878" lon="2.46245">
        <ele>40.5</ele>
        <time>2022-10-19T13:01:44Z</time>
      </trkpt>
      <trkpt lat="49.88879" lon="2.46245">
        <ele>40.5</ele>
        <time>2022-10-19T13:01:45Z</time>
      </trkpt>
      <trkpt lat="49.8888" lon="2.46244">
        <ele>40.5</ele>
        <time>2022-10-19T13:01:46Z</time>
      </trkpt>
      <trkpt lat="49.88881" lon="2.46244">
        <ele>40.4</ele>
        <time>2022-10-19T13:01:48Z</time>
      </trkpt>
      <trkpt lat="49.88881" lon="2.46243">
        <ele>40.4</ele>
        <time>2022-10-19T13:01:49Z</time>
      </trkpt>
      <trkpt lat="49.88882" lon="2.46242">
        <ele>40.4</ele>
        <time>2022-10-19T13:01:50Z</time>
      </trkpt>
      <trkpt lat="49.88883" lon="2.46241">
        <ele>40.4</ele>
        <time>2022-10-19T13:01:51Z</time>
      </trkpt>
      <trkpt lat="49.88885" lon="2.4624">
        <ele>40.4</ele>
        <time>2022-10-19T13:01:52Z</time>
      </trkpt>
      <trkpt lat="49.88886" lon="2.46239">
        <ele>40.4</ele>
        <time>2022-10-19T13:01:53Z</time>
      </trkpt>
      <trkpt lat="49.88887" lon="2.46238">
        <ele>40.4</ele>
        <time>2022-10-19T13:01:54Z</time>
      </trkpt>
      <trkpt lat="49.88888" lon="2.46237">
        <ele>40.4</ele>
        <time>2022-10-19T13:01:55Z</time>
      </trkpt>
      <trkpt lat="49.88889" lon="2.46236">
        <ele>40.4</ele>
        <time>2022-10-19T13:01:56Z</time>
      </trkpt>
      <trkpt lat="49.88891" lon="2.46234">
        <ele>40.3</ele>
        <time>2022-10-19T13:01:57Z</time>
      </trkpt>
      <trkpt lat="49.88892" lon="2.46233">
        <ele>40.3</ele>
        <time>2022-10-19T13:01:59Z</time>
      </trkpt>
      <trkpt lat="49.88893" lon="2.46233">
        <ele>40.3</ele>
        <time>2022-10-19T13:02:00Z</time>
      </trkpt>
      <trkpt lat="49.88894" lon="2.46232">
        <ele>40.3</ele>
        <time>2022-10-19T13:02:01Z</time>
      </trkpt>
      <trkpt lat="49.88895" lon="2.46231">
        <ele>40.3</ele>
        <time>2022-10-19T13:02:02Z</time>
      </trkpt>
      <trkpt lat="49.88896" lon="2.46231">
        <ele>40.3</ele>
        <time>2022-10-19T13:02:03Z</time>
      </trkpt>
      <trkpt lat="49.88897" lon="2.4623">
        <ele>40.3</ele>
        <time>2022-10-19T13:02:04Z</time>
      </trkpt>
      <trkpt lat="49.88899" lon="2.46229">
        <ele>40.3</ele>
        <time>2022-10-19T13:02:06Z</time>
      </trkpt>
      <trkpt lat="49.88901" lon="2.46227">
        <ele>40.2</ele>
        <time>2022-10-19T13:02:07Z</time>
      </trkpt>
      <trkpt lat="49.88902" lon="2.46226">
        <ele>40.2</ele>
        <time>2022-10-19T13:02:08Z</time>
      </trkpt>
      <trkpt lat="49.88903" lon="2.46226">
        <ele>40.2</ele>
        <time>2022-10-19T13:02:09Z</time>
      </trkpt>
      <trkpt lat="49.88904" lon="2.46225">
        <ele>40.2</ele>
        <time>2022-10-19T13:02:10Z</time>
      </trkpt>
      <trkpt lat="49.88906" lon="2.46223">
        <ele>40.2</ele>
        <time>2022-10-19T13:02:12Z</time>
      </trkpt>
      <trkpt lat="49.88906" lon="2.46223">
        <ele>40.2</ele>
        <time>2022-10-19T13:02:13Z</time>
      </trkpt>
      <trkpt lat="49.88908" lon="2.46222">
        <ele>40.2</ele>
        <time>2022-10-19T13:02:14Z</time>
      </trkpt>
      <trkpt lat="49.88909" lon="2.46221">
        <ele>40.2</ele>
        <time>2022-10-19T13:02:15Z</time>
      </trkpt>
      <trkpt lat="49.8891" lon="2.4622">
        <ele>40.1</ele>
        <time>2022-10-19T13:02:16Z</time>
      </trkpt>
      <trkpt lat="49.88911" lon="2.46219">
        <ele>40.1</ele>
        <time>2022-10-19T13:02:17Z</time>
      </trkpt>
      <trkpt lat="49.88913" lon="2.46218">
        <ele>40.1</ele>
        <time>2022-10-19T13:02:19Z</time>
      </trkpt>
      <trkpt lat="49.88914" lon="2.46218">
        <ele>40.1</ele>
        <time>2022-10-19T13:02:20Z</time>
      </trkpt>
      <trkpt lat="49.88915" lon="2.46217">
        <ele>40.1</ele>
        <time>2022-10-19T13:02:21Z</time>
      </trkpt>
      <trkpt lat="49.88917" lon="2.46216">
        <ele>40.1</ele>
        <time>2022-10-19T13:02:22Z</time>
      </trkpt>
      <trkpt lat="49.88918" lon="2.46215">
        <ele>40.1</ele>
        <time>2022-10-19T13:02:23Z</time>
      </trkpt>
      <trkpt lat="49.88919" lon="2.46214">
        <ele>40.1</ele>
        <time>2022-10-19T13:02:24Z</time>
      </trkpt>
      <trkpt lat="49.8892" lon="2.46213">
        <ele>40</ele>
        <time>2022-10-19T13:02:26Z</time>
      </trkpt>
      <trkpt lat="49.88922" lon="2.46211">
        <ele>40</ele>
        <time>2022-10-19T13:02:27Z</time>
      </trkpt>
      <trkpt lat="49.88924" lon="2.4621">
        <ele>40</ele>
        <time>2022-10-19T13:02:29Z</time>
      </trkpt>
      <trkpt lat="49.88925" lon="2.4621">
        <ele>40</ele>
        <time>2022-10-19T13:02:30Z</time>
      </trkpt>
      <trkpt lat="49.88926" lon="2.46209">
        <ele>40</ele>
        <time>2022-10-19T13:02:31Z</time>
      </trkpt>
      <trkpt lat="49.88928" lon="2.46207">
        <ele>40</ele>
        <time>2022-10-19T13:02:32Z</time>
      </trkpt>
      <trkpt lat="49.88929" lon="2.46207">
        <ele>40</ele>
        <time>2022-10-19T13:02:33Z</time>
      </trkpt>
      <trkpt lat="49.8893" lon="2.46205">
        <ele>40</ele>
        <time>2022-10-19T13:02:34Z</time>
      </trkpt>
      <trkpt lat="49.88931" lon="2.46204">
        <ele>40</ele>
        <time>2022-10-19T13:02:35Z</time>
      </trkpt>
      <trkpt lat="49.88932" lon="2.46204">
        <ele>40</ele>
        <time>2022-10-19T13:02:36Z</time>
      </trkpt>
      <trkpt lat="49.88934" lon="2.46202">
        <ele>40</ele>
        <time>2022-10-19T13:02:38Z</time>
      </trkpt>
      <trkpt lat="49.88934" lon="2.46202">
        <ele>40</ele>
        <time>2022-10-19T13:02:39Z</time>
      </trkpt>
      <trkpt lat="49.88935" lon="2.46201">
        <ele>40</ele>
        <time>2022-10-19T13:02:40Z</time>
      </trkpt>
      <trkpt lat="49.88936" lon="2.46201">
        <ele>39.9</ele>
        <time>2022-10-19T13:02:41Z</time>
      </trkpt>
      <trkpt lat="49.88937" lon="2.462">
        <ele>39.9</ele>
        <time>2022-10-19T13:02:42Z</time>
      </trkpt>
      <trkpt lat="49.88938" lon="2.46199">
        <ele>39.9</ele>
        <time>2022-10-19T13:02:44Z</time>
      </trkpt>
      <trkpt lat="49.8894" lon="2.46198">
        <ele>39.9</ele>
        <time>2022-10-19T13:02:45Z</time>
      </trkpt>
      <trkpt lat="49.88941" lon="2.46197">
        <ele>39.9</ele>
        <time>2022-10-19T13:02:46Z</time>
      </trkpt>
      <trkpt lat="49.88942" lon="2.46197">
        <ele>39.9</ele>
        <time>2022-10-19T13:02:47Z</time>
      </trkpt>
      <trkpt lat="49.88944" lon="2.46195">
        <ele>39.9</ele>
        <time>2022-10-19T13:02:48Z</time>
      </trkpt>
      <trkpt lat="49.88945" lon="2.46195">
        <ele>39.9</ele>
        <time>2022-10-19T13:02:49Z</time>
      </trkpt>
      <trkpt lat="49.88946" lon="2.46194">
        <ele>39.9</ele>
        <time>2022-10-19T13:02:50Z</time>
      </trkpt>
      <trkpt lat="49.88948" lon="2.46194">
        <ele>39.9</ele>
        <time>2022-10-19T13:02:51Z</time>
      </trkpt>
      <trkpt lat="49.88948" lon="2.46194">
        <ele>39.9</ele>
        <time>2022-10-19T13:02:53Z</time>
      </trkpt>
      <trkpt lat="49.88949" lon="2.46193">
        <ele>39.9</ele>
        <time>2022-10-19T13:02:54Z</time>
      </trkpt>
      <trkpt lat="49.88951" lon="2.46192">
        <ele>39.9</ele>
        <time>2022-10-19T13:02:55Z</time>
      </trkpt>
      <trkpt lat="49.88952" lon="2.46192">
        <ele>39.8</ele>
        <time>2022-10-19T13:02:56Z</time>
      </trkpt>
      <trkpt lat="49.88953" lon="2.46191">
        <ele>39.8</ele>
        <time>2022-10-19T13:02:57Z</time>
      </trkpt>
      <trkpt lat="49.88954" lon="2.46191">
        <ele>39.8</ele>
        <time>2022-10-19T13:02:58Z</time>
      </trkpt>
      <trkpt lat="49.88956" lon="2.4619">
        <ele>39.8</ele>
        <time>2022-10-19T13:03:00Z</time>
      </trkpt>
      <trkpt lat="49.88957" lon="2.4619">
        <ele>39.8</ele>
        <time>2022-10-19T13:03:01Z</time>
      </trkpt>
      <trkpt lat="49.88959" lon="2.46189">
        <ele>39.8</ele>
        <time>2022-10-19T13:03:02Z</time>
      </trkpt>
      <trkpt lat="49.8896" lon="2.46188">
        <ele>39.8</ele>
        <time>2022-10-19T13:03:03Z</time>
      </trkpt>
      <trkpt lat="49.88962" lon="2.46187">
        <ele>39.7</ele>
        <time>2022-10-19T13:03:04Z</time>
      </trkpt>
      <trkpt lat="49.88963" lon="2.46187">
        <ele>39.7</ele>
        <time>2022-10-19T13:03:05Z</time>
      </trkpt>
      <trkpt lat="49.88964" lon="2.46186">
        <ele>39.7</ele>
        <time>2022-10-19T13:03:06Z</time>
      </trkpt>
      <trkpt lat="49.88966" lon="2.46186">
        <ele>39.7</ele>
        <time>2022-10-19T13:03:07Z</time>
      </trkpt>
      <trkpt lat="49.88966" lon="2.46185">
        <ele>39.7</ele>
        <time>2022-10-19T13:03:08Z</time>
      </trkpt>
      <trkpt lat="49.88967" lon="2.46185">
        <ele>39.7</ele>
        <time>2022-10-19T13:03:09Z</time>
      </trkpt>
      <trkpt lat="49.88969" lon="2.46184">
        <ele>39.7</ele>
        <time>2022-10-19T13:03:11Z</time>
      </trkpt>
      <trkpt lat="49.88971" lon="2.46183">
        <ele>39.7</ele>
        <time>2022-10-19T13:03:12Z</time>
      </trkpt>
      <trkpt lat="49.88973" lon="2.46181">
        <ele>39.6</ele>
        <time>2022-10-19T13:03:14Z</time>
      </trkpt>
      <trkpt lat="49.88973" lon="2.46181">
        <ele>39.6</ele>
        <time>2022-10-19T13:03:15Z</time>
      </trkpt>
      <trkpt lat="49.88974" lon="2.4618">
        <ele>39.6</ele>
        <time>2022-10-19T13:03:16Z</time>
      </trkpt>
      <trkpt lat="49.88975" lon="2.46179">
        <ele>39.6</ele>
        <time>2022-10-19T13:03:17Z</time>
      </trkpt>
      <trkpt lat="49.88977" lon="2.46178">
        <ele>39.6</ele>
        <time>2022-10-19T13:03:18Z</time>
      </trkpt>
      <trkpt lat="49.88978" lon="2.46177">
        <ele>39.6</ele>
        <time>2022-10-19T13:03:19Z</time>
      </trkpt>
      <trkpt lat="49.88979" lon="2.46176">
        <ele>39.6</ele>
        <time>2022-10-19T13:03:20Z</time>
      </trkpt>
      <trkpt lat="49.8898" lon="2.46175">
        <ele>39.6</ele>
        <time>2022-10-19T13:03:21Z</time>
      </trkpt>
      <trkpt lat="49.88981" lon="2.46174">
        <ele>39.6</ele>
        <time>2022-10-19T13:03:23Z</time>
      </trkpt>
      <trkpt lat="49.88982" lon="2.46173">
        <ele>39.6</ele>
        <time>2022-10-19T13:03:24Z</time>
      </trkpt>
      <trkpt lat="49.88983" lon="2.46172">
        <ele>39.6</ele>
        <time>2022-10-19T13:03:25Z</time>
      </trkpt>
      <trkpt lat="49.88985" lon="2.46171">
        <ele>39.6</ele>
        <time>2022-10-19T13:03:26Z</time>
      </trkpt>
      <trkpt lat="49.88986" lon="2.4617">
        <ele>39.6</ele>
        <time>2022-10-19T13:03:28Z</time>
      </trkpt>
      <trkpt lat="49.88988" lon="2.46169">
        <ele>39.5</ele>
        <time>2022-10-19T13:03:29Z</time>
      </trkpt>
      <trkpt lat="49.88989" lon="2.46168">
        <ele>39.5</ele>
        <time>2022-10-19T13:03:30Z</time>
      </trkpt>
      <trkpt lat="49.88991" lon="2.46167">
        <ele>39.5</ele>
        <time>2022-10-19T13:03:31Z</time>
      </trkpt>
      <trkpt lat="49.88992" lon="2.46166">
        <ele>39.5</ele>
        <time>2022-10-19T13:03:32Z</time>
      </trkpt>
      <trkpt lat="49.88993" lon="2.46166">
        <ele>39.5</ele>
        <time>2022-10-19T13:03:33Z</time>
      </trkpt>
      <trkpt lat="49.88994" lon="2.46165">
        <ele>39.4</ele>
        <time>2022-10-19T13:03:34Z</time>
      </trkpt>
      <trkpt lat="49.88995" lon="2.46164">
        <ele>39.4</ele>
        <time>2022-10-19T13:03:35Z</time>
      </trkpt>
      <trkpt lat="49.88996" lon="2.46163">
        <ele>39.4</ele>
        <time>2022-10-19T13:03:36Z</time>
      </trkpt>
      <trkpt lat="49.88998" lon="2.46162">
        <ele>39.4</ele>
        <time>2022-10-19T13:03:37Z</time>
      </trkpt>
      <trkpt lat="49.88999" lon="2.46162">
        <ele>39.4</ele>
        <time>2022-10-19T13:03:39Z</time>
      </trkpt>
      <trkpt lat="49.89" lon="2.46161">
        <ele>39.4</ele>
        <time>2022-10-19T13:03:40Z</time>
      </trkpt>
      <trkpt lat="49.89001" lon="2.4616">
        <ele>39.3</ele>
        <time>2022-10-19T13:03:41Z</time>
      </trkpt>
      <trkpt lat="49.89004" lon="2.46159">
        <ele>39.3</ele>
        <time>2022-10-19T13:03:43Z</time>
      </trkpt>
      <trkpt lat="49.89006" lon="2.46158">
        <ele>39.3</ele>
        <time>2022-10-19T13:03:44Z</time>
      </trkpt>
      <trkpt lat="49.89006" lon="2.46157">
        <ele>39.3</ele>
        <time>2022-10-19T13:03:45Z</time>
      </trkpt>
      <trkpt lat="49.89007" lon="2.46157">
        <ele>39.3</ele>
        <time>2022-10-19T13:03:46Z</time>
      </trkpt>
      <trkpt lat="49.89008" lon="2.46156">
        <ele>39.3</ele>
        <time>2022-10-19T13:03:47Z</time>
      </trkpt>
      <trkpt lat="49.8901" lon="2.46155">
        <ele>39.3</ele>
        <time>2022-10-19T13:03:48Z</time>
      </trkpt>
      <trkpt lat="49.89011" lon="2.46154">
        <ele>39.2</ele>
        <time>2022-10-19T13:03:49Z</time>
      </trkpt>
      <trkpt lat="49.89012" lon="2.46154">
        <ele>39.2</ele>
        <time>2022-10-19T13:03:50Z</time>
      </trkpt>
      <trkpt lat="49.89013" lon="2.46153">
        <ele>39.2</ele>
        <time>2022-10-19T13:03:51Z</time>
      </trkpt>
      <trkpt lat="49.89015" lon="2.46152">
        <ele>39.2</ele>
        <time>2022-10-19T13:03:52Z</time>
      </trkpt>
      <trkpt lat="49.89016" lon="2.46151">
        <ele>39.2</ele>
        <time>2022-10-19T13:03:54Z</time>
      </trkpt>
      <trkpt lat="49.89017" lon="2.4615">
        <ele>39.2</ele>
        <time>2022-10-19T13:03:55Z</time>
      </trkpt>
      <trkpt lat="49.89017" lon="2.46149">
        <ele>39.2</ele>
        <time>2022-10-19T13:03:56Z</time>
      </trkpt>
      <trkpt lat="49.89018" lon="2.46148">
        <ele>39.2</ele>
        <time>2022-10-19T13:03:57Z</time>
      </trkpt>
      <trkpt lat="49.89019" lon="2.46147">
        <ele>39.2</ele>
        <time>2022-10-19T13:03:58Z</time>
      </trkpt>
      <trkpt lat="49.8902" lon="2.46146">
        <ele>39.2</ele>
        <time>2022-10-19T13:03:59Z</time>
      </trkpt>
      <trkpt lat="49.89021" lon="2.46146">
        <ele>39.2</ele>
        <time>2022-10-19T13:04:00Z</time>
      </trkpt>
      <trkpt lat="49.89023" lon="2.46145">
        <ele>39.1</ele>
        <time>2022-10-19T13:04:02Z</time>
      </trkpt>
      <trkpt lat="49.89024" lon="2.46145">
        <ele>39.1</ele>
        <time>2022-10-19T13:04:03Z</time>
      </trkpt>
      <trkpt lat="49.89025" lon="2.46145">
        <ele>39.1</ele>
        <time>2022-10-19T13:04:04Z</time>
      </trkpt>
      <trkpt lat="49.89026" lon="2.46144">
        <ele>39.1</ele>
        <time>2022-10-19T13:04:05Z</time>
      </trkpt>
      <trkpt lat="49.89027" lon="2.46143">
        <ele>39.1</ele>
        <time>2022-10-19T13:04:06Z</time>
      </trkpt>
      <trkpt lat="49.89028" lon="2.46143">
        <ele>39.1</ele>
        <time>2022-10-19T13:04:07Z</time>
      </trkpt>
      <trkpt lat="49.89029" lon="2.46142">
        <ele>39.1</ele>
        <time>2022-10-19T13:04:08Z</time>
      </trkpt>
      <trkpt lat="49.8903" lon="2.46141">
        <ele>39.1</ele>
        <time>2022-10-19T13:04:09Z</time>
      </trkpt>
      <trkpt lat="49.89031" lon="2.46141">
        <ele>39.1</ele>
        <time>2022-10-19T13:04:10Z</time>
      </trkpt>
      <trkpt lat="49.89032" lon="2.4614">
        <ele>39.1</ele>
        <time>2022-10-19T13:04:11Z</time>
      </trkpt>
      <trkpt lat="49.89033" lon="2.46139">
        <ele>39</ele>
        <time>2022-10-19T13:04:12Z</time>
      </trkpt>
      <trkpt lat="49.89035" lon="2.46138">
        <ele>39</ele>
        <time>2022-10-19T13:04:14Z</time>
      </trkpt>
      <trkpt lat="49.89036" lon="2.46137">
        <ele>39</ele>
        <time>2022-10-19T13:04:15Z</time>
      </trkpt>
      <trkpt lat="49.89037" lon="2.46137">
        <ele>39</ele>
        <time>2022-10-19T13:04:16Z</time>
      </trkpt>
      <trkpt lat="49.89038" lon="2.46136">
        <ele>39</ele>
        <time>2022-10-19T13:04:17Z</time>
      </trkpt>
      <trkpt lat="49.8904" lon="2.46135">
        <ele>39</ele>
        <time>2022-10-19T13:04:18Z</time>
      </trkpt>
      <trkpt lat="49.89041" lon="2.46134">
        <ele>39</ele>
        <time>2022-10-19T13:04:19Z</time>
      </trkpt>
      <trkpt lat="49.89042" lon="2.46134">
        <ele>39</ele>
        <time>2022-10-19T13:04:20Z</time>
      </trkpt>
      <trkpt lat="49.89043" lon="2.46133">
        <ele>38.9</ele>
        <time>2022-10-19T13:04:21Z</time>
      </trkpt>
      <trkpt lat="49.89044" lon="2.46132">
        <ele>38.9</ele>
        <time>2022-10-19T13:04:22Z</time>
      </trkpt>
      <trkpt lat="49.89045" lon="2.46131">
        <ele>38.9</ele>
        <time>2022-10-19T13:04:23Z</time>
      </trkpt>
      <trkpt lat="49.89046" lon="2.46131">
        <ele>38.9</ele>
        <time>2022-10-19T13:04:25Z</time>
      </trkpt>
      <trkpt lat="49.89047" lon="2.4613">
        <ele>38.9</ele>
        <time>2022-10-19T13:04:26Z</time>
      </trkpt>
      <trkpt lat="49.89049" lon="2.46129">
        <ele>38.9</ele>
        <time>2022-10-19T13:04:27Z</time>
      </trkpt>
      <trkpt lat="49.8905" lon="2.46128">
        <ele>38.9</ele>
        <time>2022-10-19T13:04:28Z</time>
      </trkpt>
      <trkpt lat="49.89051" lon="2.46128">
        <ele>38.9</ele>
        <time>2022-10-19T13:04:29Z</time>
      </trkpt>
      <trkpt lat="49.89052" lon="2.46127">
        <ele>38.8</ele>
        <time>2022-10-19T13:04:30Z</time>
      </trkpt>
      <trkpt lat="49.89053" lon="2.46127">
        <ele>38.8</ele>
        <time>2022-10-19T13:04:31Z</time>
      </trkpt>
      <trkpt lat="49.89054" lon="2.46126">
        <ele>38.8</ele>
        <time>2022-10-19T13:04:32Z</time>
      </trkpt>
      <trkpt lat="49.89056" lon="2.46125">
        <ele>38.8</ele>
        <time>2022-10-19T13:04:33Z</time>
      </trkpt>
      <trkpt lat="49.89057" lon="2.46125">
        <ele>38.8</ele>
        <time>2022-10-19T13:04:34Z</time>
      </trkpt>
      <trkpt lat="49.89058" lon="2.46124">
        <ele>38.8</ele>
        <time>2022-10-19T13:04:35Z</time>
      </trkpt>
      <trkpt lat="49.8906" lon="2.46123">
        <ele>38.8</ele>
        <time>2022-10-19T13:04:36Z</time>
      </trkpt>
      <trkpt lat="49.89061" lon="2.46123">
        <ele>38.7</ele>
        <time>2022-10-19T13:04:38Z</time>
      </trkpt>
      <trkpt lat="49.89062" lon="2.46122">
        <ele>38.7</ele>
        <time>2022-10-19T13:04:39Z</time>
      </trkpt>
      <trkpt lat="49.89063" lon="2.46122">
        <ele>38.7</ele>
        <time>2022-10-19T13:04:40Z</time>
      </trkpt>
      <trkpt lat="49.89063" lon="2.46121">
        <ele>38.7</ele>
        <time>2022-10-19T13:04:41Z</time>
      </trkpt>
      <trkpt lat="49.89064" lon="2.46121">
        <ele>38.7</ele>
        <time>2022-10-19T13:04:42Z</time>
      </trkpt>
      <trkpt lat="49.89066" lon="2.4612">
        <ele>38.7</ele>
        <time>2022-10-19T13:04:43Z</time>
      </trkpt>
      <trkpt lat="49.89067" lon="2.46119">
        <ele>38.7</ele>
        <time>2022-10-19T13:04:44Z</time>
      </trkpt>
      <trkpt lat="49.89068" lon="2.46119">
        <ele>38.7</ele>
        <time>2022-10-19T13:04:45Z</time>
      </trkpt>
      <trkpt lat="49.89069" lon="2.46119">
        <ele>38.7</ele>
        <time>2022-10-19T13:04:46Z</time>
      </trkpt>
      <trkpt lat="49.89071" lon="2.46118">
        <ele>38.7</ele>
        <time>2022-10-19T13:04:47Z</time>
      </trkpt>
      <trkpt lat="49.89072" lon="2.46118">
        <ele>38.7</ele>
        <time>2022-10-19T13:04:49Z</time>
      </trkpt>
      <trkpt lat="49.89073" lon="2.46118">
        <ele>38.7</ele>
        <time>2022-10-19T13:04:50Z</time>
      </trkpt>
      <trkpt lat="49.89074" lon="2.46117">
        <ele>38.7</ele>
        <time>2022-10-19T13:04:51Z</time>
      </trkpt>
      <trkpt lat="49.89075" lon="2.46117">
        <ele>38.7</ele>
        <time>2022-10-19T13:04:52Z</time>
      </trkpt>
      <trkpt lat="49.89077" lon="2.46117">
        <ele>38.8</ele>
        <time>2022-10-19T13:04:53Z</time>
      </trkpt>
      <trkpt lat="49.89078" lon="2.46116">
        <ele>38.8</ele>
        <time>2022-10-19T13:04:54Z</time>
      </trkpt>
      <trkpt lat="49.89079" lon="2.46116">
        <ele>38.8</ele>
        <time>2022-10-19T13:04:55Z</time>
      </trkpt>
      <trkpt lat="49.89081" lon="2.46115">
        <ele>38.8</ele>
        <time>2022-10-19T13:04:56Z</time>
      </trkpt>
      <trkpt lat="49.89082" lon="2.46115">
        <ele>38.8</ele>
        <time>2022-10-19T13:04:57Z</time>
      </trkpt>
      <trkpt lat="49.89084" lon="2.46114">
        <ele>38.8</ele>
        <time>2022-10-19T13:04:59Z</time>
      </trkpt>
      <trkpt lat="49.89085" lon="2.46113">
        <ele>38.8</ele>
        <time>2022-10-19T13:05:00Z</time>
      </trkpt>
      <trkpt lat="49.89086" lon="2.46113">
        <ele>38.8</ele>
        <time>2022-10-19T13:05:01Z</time>
      </trkpt>
      <trkpt lat="49.89087" lon="2.46112">
        <ele>38.8</ele>
        <time>2022-10-19T13:05:02Z</time>
      </trkpt>
      <trkpt lat="49.89088" lon="2.46112">
        <ele>38.8</ele>
        <time>2022-10-19T13:05:03Z</time>
      </trkpt>
      <trkpt lat="49.89089" lon="2.46111">
        <ele>38.8</ele>
        <time>2022-10-19T13:05:04Z</time>
      </trkpt>
      <trkpt lat="49.8909" lon="2.4611">
        <ele>38.8</ele>
        <time>2022-10-19T13:05:06Z</time>
      </trkpt>
      <trkpt lat="49.89092" lon="2.46109">
        <ele>38.8</ele>
        <time>2022-10-19T13:05:07Z</time>
      </trkpt>
      <trkpt lat="49.89093" lon="2.46108">
        <ele>38.8</ele>
        <time>2022-10-19T13:05:08Z</time>
      </trkpt>
      <trkpt lat="49.89095" lon="2.46107">
        <ele>38.8</ele>
        <time>2022-10-19T13:05:09Z</time>
      </trkpt>
      <trkpt lat="49.89096" lon="2.46107">
        <ele>38.8</ele>
        <time>2022-10-19T13:05:10Z</time>
      </trkpt>
      <trkpt lat="49.89097" lon="2.46106">
        <ele>38.8</ele>
        <time>2022-10-19T13:05:11Z</time>
      </trkpt>
      <trkpt lat="49.89098" lon="2.46106">
        <ele>38.8</ele>
        <time>2022-10-19T13:05:13Z</time>
      </trkpt>
      <trkpt lat="49.89099" lon="2.46105">
        <ele>38.8</ele>
        <time>2022-10-19T13:05:14Z</time>
      </trkpt>
      <trkpt lat="49.89101" lon="2.46105">
        <ele>38.8</ele>
        <time>2022-10-19T13:05:16Z</time>
      </trkpt>
      <trkpt lat="49.89102" lon="2.46104">
        <ele>38.9</ele>
        <time>2022-10-19T13:05:17Z</time>
      </trkpt>
      <trkpt lat="49.89104" lon="2.46104">
        <ele>38.9</ele>
        <time>2022-10-19T13:05:18Z</time>
      </trkpt>
      <trkpt lat="49.89105" lon="2.46104">
        <ele>38.9</ele>
        <time>2022-10-19T13:05:20Z</time>
      </trkpt>
      <trkpt lat="49.89107" lon="2.46103">
        <ele>38.9</ele>
        <time>2022-10-19T13:05:21Z</time>
      </trkpt>
      <trkpt lat="49.89108" lon="2.46103">
        <ele>38.9</ele>
        <time>2022-10-19T13:05:22Z</time>
      </trkpt>
      <trkpt lat="49.8911" lon="2.46102">
        <ele>38.9</ele>
        <time>2022-10-19T13:05:23Z</time>
      </trkpt>
      <trkpt lat="49.89111" lon="2.46102">
        <ele>38.9</ele>
        <time>2022-10-19T13:05:24Z</time>
      </trkpt>
      <trkpt lat="49.89113" lon="2.46102">
        <ele>38.9</ele>
        <time>2022-10-19T13:05:25Z</time>
      </trkpt>
      <trkpt lat="49.89114" lon="2.46101">
        <ele>38.9</ele>
        <time>2022-10-19T13:05:26Z</time>
      </trkpt>
      <trkpt lat="49.89115" lon="2.46101">
        <ele>38.9</ele>
        <time>2022-10-19T13:05:27Z</time>
      </trkpt>
      <trkpt lat="49.89118" lon="2.46101">
        <ele>38.9</ele>
        <time>2022-10-19T13:05:28Z</time>
      </trkpt>
      <trkpt lat="49.89118" lon="2.46101">
        <ele>38.9</ele>
        <time>2022-10-19T13:05:29Z</time>
      </trkpt>
      <trkpt lat="49.89119" lon="2.46101">
        <ele>38.9</ele>
        <time>2022-10-19T13:05:30Z</time>
      </trkpt>
      <trkpt lat="49.8912" lon="2.461">
        <ele>38.9</ele>
        <time>2022-10-19T13:05:31Z</time>
      </trkpt>
      <trkpt lat="49.89122" lon="2.461">
        <ele>38.9</ele>
        <time>2022-10-19T13:05:33Z</time>
      </trkpt>
      <trkpt lat="49.89124" lon="2.46099">
        <ele>38.9</ele>
        <time>2022-10-19T13:05:34Z</time>
      </trkpt>
      <trkpt lat="49.89125" lon="2.46099">
        <ele>38.9</ele>
        <time>2022-10-19T13:05:35Z</time>
      </trkpt>
      <trkpt lat="49.89127" lon="2.46099">
        <ele>38.9</ele>
        <time>2022-10-19T13:05:36Z</time>
      </trkpt>
      <trkpt lat="49.89128" lon="2.46099">
        <ele>38.9</ele>
        <time>2022-10-19T13:05:37Z</time>
      </trkpt>
      <trkpt lat="49.89129" lon="2.46099">
        <ele>38.9</ele>
        <time>2022-10-19T13:05:38Z</time>
      </trkpt>
      <trkpt lat="49.8913" lon="2.46098">
        <ele>38.9</ele>
        <time>2022-10-19T13:05:39Z</time>
      </trkpt>
      <trkpt lat="49.89131" lon="2.46098">
        <ele>38.9</ele>
        <time>2022-10-19T13:05:40Z</time>
      </trkpt>
      <trkpt lat="49.89132" lon="2.46097">
        <ele>39</ele>
        <time>2022-10-19T13:05:41Z</time>
      </trkpt>
      <trkpt lat="49.89134" lon="2.46096">
        <ele>39</ele>
        <time>2022-10-19T13:05:42Z</time>
      </trkpt>
      <trkpt lat="49.89135" lon="2.46096">
        <ele>39</ele>
        <time>2022-10-19T13:05:43Z</time>
      </trkpt>
      <trkpt lat="49.89136" lon="2.46095">
        <ele>39</ele>
        <time>2022-10-19T13:05:44Z</time>
      </trkpt>
      <trkpt lat="49.89137" lon="2.46094">
        <ele>39</ele>
        <time>2022-10-19T13:05:46Z</time>
      </trkpt>
      <trkpt lat="49.89138" lon="2.46094">
        <ele>39</ele>
        <time>2022-10-19T13:05:47Z</time>
      </trkpt>
      <trkpt lat="49.89141" lon="2.46092">
        <ele>39.1</ele>
        <time>2022-10-19T13:05:48Z</time>
      </trkpt>
      <trkpt lat="49.89141" lon="2.46092">
        <ele>39.1</ele>
        <time>2022-10-19T13:05:49Z</time>
      </trkpt>
      <trkpt lat="49.89142" lon="2.46092">
        <ele>39.1</ele>
        <time>2022-10-19T13:05:50Z</time>
      </trkpt>
      <trkpt lat="49.89144" lon="2.46091">
        <ele>39.2</ele>
        <time>2022-10-19T13:05:51Z</time>
      </trkpt>
      <trkpt lat="49.89145" lon="2.46091">
        <ele>39.2</ele>
        <time>2022-10-19T13:05:52Z</time>
      </trkpt>
      <trkpt lat="49.89146" lon="2.4609">
        <ele>39.2</ele>
        <time>2022-10-19T13:05:53Z</time>
      </trkpt>
      <trkpt lat="49.89148" lon="2.4609">
        <ele>39.2</ele>
        <time>2022-10-19T13:05:54Z</time>
      </trkpt>
      <trkpt lat="49.89148" lon="2.46089">
        <ele>39.3</ele>
        <time>2022-10-19T13:05:56Z</time>
      </trkpt>
      <trkpt lat="49.89149" lon="2.46089">
        <ele>39.3</ele>
        <time>2022-10-19T13:05:57Z</time>
      </trkpt>
      <trkpt lat="49.89152" lon="2.46088">
        <ele>39.3</ele>
        <time>2022-10-19T13:05:59Z</time>
      </trkpt>
      <trkpt lat="49.89153" lon="2.46087">
        <ele>39.4</ele>
        <time>2022-10-19T13:06:00Z</time>
      </trkpt>
      <trkpt lat="49.89155" lon="2.46086">
        <ele>39.4</ele>
        <time>2022-10-19T13:06:01Z</time>
      </trkpt>
      <trkpt lat="49.89156" lon="2.46086">
        <ele>39.4</ele>
        <time>2022-10-19T13:06:03Z</time>
      </trkpt>
      <trkpt lat="49.89157" lon="2.46086">
        <ele>39.5</ele>
        <time>2022-10-19T13:06:04Z</time>
      </trkpt>
      <trkpt lat="49.89158" lon="2.46086">
        <ele>39.5</ele>
        <time>2022-10-19T13:06:05Z</time>
      </trkpt>
      <trkpt lat="49.89159" lon="2.46085">
        <ele>39.5</ele>
        <time>2022-10-19T13:06:06Z</time>
      </trkpt>
      <trkpt lat="49.8916" lon="2.46085">
        <ele>39.5</ele>
        <time>2022-10-19T13:06:07Z</time>
      </trkpt>
      <trkpt lat="49.89161" lon="2.46084">
        <ele>39.6</ele>
        <time>2022-10-19T13:06:08Z</time>
      </trkpt>
      <trkpt lat="49.89162" lon="2.46084">
        <ele>39.6</ele>
        <time>2022-10-19T13:06:09Z</time>
      </trkpt>
      <trkpt lat="49.89163" lon="2.46084">
        <ele>39.6</ele>
        <time>2022-10-19T13:06:10Z</time>
      </trkpt>
      <trkpt lat="49.89165" lon="2.46083">
        <ele>39.6</ele>
        <time>2022-10-19T13:06:11Z</time>
      </trkpt>
      <trkpt lat="49.89166" lon="2.46083">
        <ele>39.7</ele>
        <time>2022-10-19T13:06:13Z</time>
      </trkpt>
      <trkpt lat="49.89167" lon="2.46083">
        <ele>39.7</ele>
        <time>2022-10-19T13:06:14Z</time>
      </trkpt>
      <trkpt lat="49.89168" lon="2.46082">
        <ele>39.7</ele>
        <time>2022-10-19T13:06:15Z</time>
      </trkpt>
      <trkpt lat="49.89169" lon="2.46082">
        <ele>39.7</ele>
        <time>2022-10-19T13:06:16Z</time>
      </trkpt>
      <trkpt lat="49.8917" lon="2.46082">
        <ele>39.7</ele>
        <time>2022-10-19T13:06:17Z</time>
      </trkpt>
      <trkpt lat="49.89171" lon="2.46081">
        <ele>39.7</ele>
        <time>2022-10-19T13:06:18Z</time>
      </trkpt>
      <trkpt lat="49.89172" lon="2.46081">
        <ele>39.8</ele>
        <time>2022-10-19T13:06:19Z</time>
      </trkpt>
      <trkpt lat="49.89173" lon="2.46081">
        <ele>39.8</ele>
        <time>2022-10-19T13:06:20Z</time>
      </trkpt>
      <trkpt lat="49.89175" lon="2.4608">
        <ele>39.8</ele>
        <time>2022-10-19T13:06:21Z</time>
      </trkpt>
      <trkpt lat="49.89176" lon="2.46079">
        <ele>39.8</ele>
        <time>2022-10-19T13:06:22Z</time>
      </trkpt>
      <trkpt lat="49.89177" lon="2.46079">
        <ele>39.8</ele>
        <time>2022-10-19T13:06:23Z</time>
      </trkpt>
      <trkpt lat="49.89178" lon="2.46078">
        <ele>39.8</ele>
        <time>2022-10-19T13:06:25Z</time>
      </trkpt>
      <trkpt lat="49.89179" lon="2.46078">
        <ele>39.8</ele>
        <time>2022-10-19T13:06:26Z</time>
      </trkpt>
      <trkpt lat="49.8918" lon="2.46078">
        <ele>39.8</ele>
        <time>2022-10-19T13:06:27Z</time>
      </trkpt>
      <trkpt lat="49.89182" lon="2.46078">
        <ele>39.9</ele>
        <time>2022-10-19T13:06:28Z</time>
      </trkpt>
      <trkpt lat="49.89183" lon="2.46077">
        <ele>39.9</ele>
        <time>2022-10-19T13:06:29Z</time>
      </trkpt>
      <trkpt lat="49.89184" lon="2.46077">
        <ele>39.9</ele>
        <time>2022-10-19T13:06:30Z</time>
      </trkpt>
      <trkpt lat="49.89186" lon="2.46077">
        <ele>39.9</ele>
        <time>2022-10-19T13:06:31Z</time>
      </trkpt>
      <trkpt lat="49.89186" lon="2.46076">
        <ele>39.9</ele>
        <time>2022-10-19T13:06:32Z</time>
      </trkpt>
      <trkpt lat="49.89187" lon="2.46076">
        <ele>39.9</ele>
        <time>2022-10-19T13:06:33Z</time>
      </trkpt>
      <trkpt lat="49.89189" lon="2.46076">
        <ele>39.9</ele>
        <time>2022-10-19T13:06:34Z</time>
      </trkpt>
      <trkpt lat="49.8919" lon="2.46075">
        <ele>40</ele>
        <time>2022-10-19T13:06:35Z</time>
      </trkpt>
      <trkpt lat="49.89192" lon="2.46074">
        <ele>40</ele>
        <time>2022-10-19T13:06:37Z</time>
      </trkpt>
      <trkpt lat="49.89193" lon="2.46073">
        <ele>40</ele>
        <time>2022-10-19T13:06:38Z</time>
      </trkpt>
      <trkpt lat="49.89194" lon="2.46072">
        <ele>40</ele>
        <time>2022-10-19T13:06:39Z</time>
      </trkpt>
      <trkpt lat="49.89195" lon="2.46072">
        <ele>40</ele>
        <time>2022-10-19T13:06:40Z</time>
      </trkpt>
      <trkpt lat="49.89196" lon="2.46071">
        <ele>40</ele>
        <time>2022-10-19T13:06:41Z</time>
      </trkpt>
      <trkpt lat="49.89198" lon="2.46071">
        <ele>40.1</ele>
        <time>2022-10-19T13:06:42Z</time>
      </trkpt>
      <trkpt lat="49.89198" lon="2.46071">
        <ele>40.1</ele>
        <time>2022-10-19T13:06:43Z</time>
      </trkpt>
      <trkpt lat="49.89199" lon="2.46071">
        <ele>40.1</ele>
        <time>2022-10-19T13:06:44Z</time>
      </trkpt>
      <trkpt lat="49.892" lon="2.46071">
        <ele>40.1</ele>
        <time>2022-10-19T13:06:45Z</time>
      </trkpt>
      <trkpt lat="49.89201" lon="2.46071">
        <ele>40.1</ele>
        <time>2022-10-19T13:06:47Z</time>
      </trkpt>
      <trkpt lat="49.89203" lon="2.4607">
        <ele>40.2</ele>
        <time>2022-10-19T13:06:48Z</time>
      </trkpt>
      <trkpt lat="49.89204" lon="2.4607">
        <ele>40.2</ele>
        <time>2022-10-19T13:06:49Z</time>
      </trkpt>
      <trkpt lat="49.89205" lon="2.46069">
        <ele>40.2</ele>
        <time>2022-10-19T13:06:50Z</time>
      </trkpt>
      <trkpt lat="49.89206" lon="2.46069">
        <ele>40.2</ele>
        <time>2022-10-19T13:06:51Z</time>
      </trkpt>
      <trkpt lat="49.89208" lon="2.46068">
        <ele>40.2</ele>
        <time>2022-10-19T13:06:52Z</time>
      </trkpt>
      <trkpt lat="49.89209" lon="2.46068">
        <ele>40.3</ele>
        <time>2022-10-19T13:06:53Z</time>
      </trkpt>
      <trkpt lat="49.8921" lon="2.46068">
        <ele>40.3</ele>
        <time>2022-10-19T13:06:54Z</time>
      </trkpt>
      <trkpt lat="49.89211" lon="2.46068">
        <ele>40.3</ele>
        <time>2022-10-19T13:06:55Z</time>
      </trkpt>
      <trkpt lat="49.89212" lon="2.46067">
        <ele>40.3</ele>
        <time>2022-10-19T13:06:57Z</time>
      </trkpt>
      <trkpt lat="49.89213" lon="2.46067">
        <ele>40.3</ele>
        <time>2022-10-19T13:06:58Z</time>
      </trkpt>
      <trkpt lat="49.89214" lon="2.46066">
        <ele>40.4</ele>
        <time>2022-10-19T13:06:59Z</time>
      </trkpt>
      <trkpt lat="49.89215" lon="2.46066">
        <ele>40.4</ele>
        <time>2022-10-19T13:07:00Z</time>
      </trkpt>
      <trkpt lat="49.89216" lon="2.46065">
        <ele>40.4</ele>
        <time>2022-10-19T13:07:01Z</time>
      </trkpt>
      <trkpt lat="49.89218" lon="2.46064">
        <ele>40.4</ele>
        <time>2022-10-19T13:07:02Z</time>
      </trkpt>
      <trkpt lat="49.89219" lon="2.46063">
        <ele>40.4</ele>
        <time>2022-10-19T13:07:03Z</time>
      </trkpt>
      <trkpt lat="49.8922" lon="2.46063">
        <ele>40.5</ele>
        <time>2022-10-19T13:07:04Z</time>
      </trkpt>
      <trkpt lat="49.89221" lon="2.46062">
        <ele>40.5</ele>
        <time>2022-10-19T13:07:05Z</time>
      </trkpt>
      <trkpt lat="49.89222" lon="2.46061">
        <ele>40.5</ele>
        <time>2022-10-19T13:07:06Z</time>
      </trkpt>
      <trkpt lat="49.89223" lon="2.46061">
        <ele>40.5</ele>
        <time>2022-10-19T13:07:07Z</time>
      </trkpt>
      <trkpt lat="49.89224" lon="2.46061">
        <ele>40.5</ele>
        <time>2022-10-19T13:07:09Z</time>
      </trkpt>
      <trkpt lat="49.89226" lon="2.4606">
        <ele>40.5</ele>
        <time>2022-10-19T13:07:10Z</time>
      </trkpt>
      <trkpt lat="49.89227" lon="2.4606">
        <ele>40.5</ele>
        <time>2022-10-19T13:07:11Z</time>
      </trkpt>
      <trkpt lat="49.89228" lon="2.4606">
        <ele>40.5</ele>
        <time>2022-10-19T13:07:12Z</time>
      </trkpt>
      <trkpt lat="49.89229" lon="2.46059">
        <ele>40.5</ele>
        <time>2022-10-19T13:07:13Z</time>
      </trkpt>
      <trkpt lat="49.8923" lon="2.46058">
        <ele>40.6</ele>
        <time>2022-10-19T13:07:14Z</time>
      </trkpt>
      <trkpt lat="49.89232" lon="2.46058">
        <ele>40.6</ele>
        <time>2022-10-19T13:07:15Z</time>
      </trkpt>
      <trkpt lat="49.89233" lon="2.46057">
        <ele>40.6</ele>
        <time>2022-10-19T13:07:16Z</time>
      </trkpt>
      <trkpt lat="49.89234" lon="2.46057">
        <ele>40.6</ele>
        <time>2022-10-19T13:07:17Z</time>
      </trkpt>
      <trkpt lat="49.89235" lon="2.46056">
        <ele>40.6</ele>
        <time>2022-10-19T13:07:18Z</time>
      </trkpt>
      <trkpt lat="49.89238" lon="2.46055">
        <ele>40.6</ele>
        <time>2022-10-19T13:07:20Z</time>
      </trkpt>
      <trkpt lat="49.89238" lon="2.46055">
        <ele>40.6</ele>
        <time>2022-10-19T13:07:21Z</time>
      </trkpt>
      <trkpt lat="49.89239" lon="2.46055">
        <ele>40.6</ele>
        <time>2022-10-19T13:07:22Z</time>
      </trkpt>
      <trkpt lat="49.89241" lon="2.46055">
        <ele>40.6</ele>
        <time>2022-10-19T13:07:23Z</time>
      </trkpt>
      <trkpt lat="49.89242" lon="2.46054">
        <ele>40.6</ele>
        <time>2022-10-19T13:07:25Z</time>
      </trkpt>
      <trkpt lat="49.89243" lon="2.46054">
        <ele>40.6</ele>
        <time>2022-10-19T13:07:26Z</time>
      </trkpt>
      <trkpt lat="49.89245" lon="2.46054">
        <ele>40.6</ele>
        <time>2022-10-19T13:07:27Z</time>
      </trkpt>
      <trkpt lat="49.89246" lon="2.46054">
        <ele>40.6</ele>
        <time>2022-10-19T13:07:28Z</time>
      </trkpt>
      <trkpt lat="49.89247" lon="2.46053">
        <ele>40.6</ele>
        <time>2022-10-19T13:07:29Z</time>
      </trkpt>
      <trkpt lat="49.89248" lon="2.46053">
        <ele>40.6</ele>
        <time>2022-10-19T13:07:31Z</time>
      </trkpt>
      <trkpt lat="49.89249" lon="2.46053">
        <ele>40.6</ele>
        <time>2022-10-19T13:07:32Z</time>
      </trkpt>
      <trkpt lat="49.89251" lon="2.46052">
        <ele>40.6</ele>
        <time>2022-10-19T13:07:33Z</time>
      </trkpt>
      <trkpt lat="49.89252" lon="2.46051">
        <ele>40.6</ele>
        <time>2022-10-19T13:07:35Z</time>
      </trkpt>
      <trkpt lat="49.89252" lon="2.46051">
        <ele>40.6</ele>
        <time>2022-10-19T13:07:36Z</time>
      </trkpt>
      <trkpt lat="49.89253" lon="2.4605">
        <ele>40.6</ele>
        <time>2022-10-19T13:07:37Z</time>
      </trkpt>
      <trkpt lat="49.89254" lon="2.46049">
        <ele>40.6</ele>
        <time>2022-10-19T13:07:38Z</time>
      </trkpt>
      <trkpt lat="49.89255" lon="2.46049">
        <ele>40.6</ele>
        <time>2022-10-19T13:07:39Z</time>
      </trkpt>
      <trkpt lat="49.89255" lon="2.46049">
        <ele>40.6</ele>
        <time>2022-10-19T13:07:40Z</time>
      </trkpt>
      <trkpt lat="49.89255" lon="2.46049">
        <ele>40.6</ele>
        <time>2022-10-19T13:07:41Z</time>
      </trkpt>
      <trkpt lat="49.89255" lon="2.46049">
        <ele>40.6</ele>
        <time>2022-10-19T13:07:42Z</time>
      </trkpt>
      <trkpt lat="49.89255" lon="2.46049">
        <ele>40.6</ele>
        <time>2022-10-19T13:07:43Z</time>
      </trkpt>
      <trkpt lat="49.89255" lon="2.46049">
        <ele>40.6</ele>
        <time>2022-10-19T13:07:45Z</time>
      </trkpt>
      <trkpt lat="49.89255" lon="2.46049">
        <ele>40.6</ele>
        <time>2022-10-19T13:07:46Z</time>
      </trkpt>
      <trkpt lat="49.89255" lon="2.46049">
        <ele>40.6</ele>
        <time>2022-10-19T13:07:47Z</time>
      </trkpt>
      <trkpt lat="49.89255" lon="2.46049">
        <ele>40.6</ele>
        <time>2022-10-19T13:07:48Z</time>
      </trkpt>
      <trkpt lat="49.89255" lon="2.46049">
        <ele>40.6</ele>
        <time>2022-10-19T13:07:49Z</time>
      </trkpt>
      <trkpt lat="49.89255" lon="2.46049">
        <ele>40.6</ele>
        <time>2022-10-19T13:07:50Z</time>
      </trkpt>
      <trkpt lat="49.89254" lon="2.46049">
        <ele>40.6</ele>
        <time>2022-10-19T13:07:51Z</time>
      </trkpt>
      <trkpt lat="49.89254" lon="2.4605">
        <ele>40.6</ele>
        <time>2022-10-19T13:07:52Z</time>
      </trkpt>
      <trkpt lat="49.89254" lon="2.4605">
        <ele>40.6</ele>
        <time>2022-10-19T13:07:53Z</time>
      </trkpt>
      <trkpt lat="49.89254" lon="2.4605">
        <ele>40.6</ele>
        <time>2022-10-19T13:07:54Z</time>
      </trkpt>
      <trkpt lat="49.89254" lon="2.4605">
        <ele>40.6</ele>
        <time>2022-10-19T13:07:55Z</time>
      </trkpt>
      <trkpt lat="49.89254" lon="2.4605">
        <ele>40.6</ele>
        <time>2022-10-19T13:07:56Z</time>
      </trkpt>
      <trkpt lat="49.89254" lon="2.4605">
        <ele>40.6</ele>
        <time>2022-10-19T13:07:57Z</time>
      </trkpt>
      <trkpt lat="49.89254" lon="2.4605">
        <ele>40.6</ele>
        <time>2022-10-19T13:07:58Z</time>
      </trkpt>
      <trkpt lat="49.89254" lon="2.4605">
        <ele>40.6</ele>
        <time>2022-10-19T13:07:59Z</time>
      </trkpt>
      <trkpt lat="49.89254" lon="2.4605">
        <ele>40.6</ele>
        <time>2022-10-19T13:08:00Z</time>
      </trkpt>
      <trkpt lat="49.89254" lon="2.4605">
        <ele>40.6</ele>
        <time>2022-10-19T13:08:01Z</time>
      </trkpt>
      <trkpt lat="49.89254" lon="2.4605">
        <ele>40.6</ele>
        <time>2022-10-19T13:08:02Z</time>
      </trkpt>
      <trkpt lat="49.89254" lon="2.4605">
        <ele>40.6</ele>
        <time>2022-10-19T13:08:03Z</time>
      </trkpt>
      <trkpt lat="49.89254" lon="2.4605">
        <ele>40.6</ele>
        <time>2022-10-19T13:08:04Z</time>
      </trkpt>
      <trkpt lat="49.89254" lon="2.4605">
        <ele>40.6</ele>
        <time>2022-10-19T13:08:05Z</time>
      </trkpt>
      <trkpt lat="49.89254" lon="2.4605">
        <ele>40.6</ele>
        <time>2022-10-19T13:08:06Z</time>
      </trkpt>
      <trkpt lat="49.89254" lon="2.4605">
        <ele>40.6</ele>
        <time>2022-10-19T13:08:07Z</time>
      </trkpt>
      <trkpt lat="49.89254" lon="2.4605">
        <ele>40.6</ele>
        <time>2022-10-19T13:08:08Z</time>
      </trkpt>
      <trkpt lat="49.89253" lon="2.46051">
        <ele>40.6</ele>
        <time>2022-10-19T13:08:09Z</time>
      </trkpt>
      <trkpt lat="49.89253" lon="2.46051">
        <ele>40.6</ele>
        <time>2022-10-19T13:08:10Z</time>
      </trkpt>
      <trkpt lat="49.89253" lon="2.46051">
        <ele>40.6</ele>
        <time>2022-10-19T13:08:11Z</time>
      </trkpt>
      <trkpt lat="49.89253" lon="2.46051">
        <ele>40.6</ele>
        <time>2022-10-19T13:08:12Z</time>
      </trkpt>
      <trkpt lat="49.89253" lon="2.46051">
        <ele>40.7</ele>
        <time>2022-10-19T13:08:13Z</time>
      </trkpt>
      <trkpt lat="49.89253" lon="2.46051">
        <ele>40.7</ele>
        <time>2022-10-19T13:08:14Z</time>
      </trkpt>
      <trkpt lat="49.89253" lon="2.46051">
        <ele>40.7</ele>
        <time>2022-10-19T13:08:15Z</time>
      </trkpt>
      <trkpt lat="49.89253" lon="2.46051">
        <ele>40.7</ele>
        <time>2022-10-19T13:08:16Z</time>
      </trkpt>
      <trkpt lat="49.89253" lon="2.46051">
        <ele>40.7</ele>
        <time>2022-10-19T13:08:17Z</time>
      </trkpt>
      <trkpt lat="49.89253" lon="2.46051">
        <ele>40.7</ele>
        <time>2022-10-19T13:08:18Z</time>
      </trkpt>
      <trkpt lat="49.89253" lon="2.46051">
        <ele>40.7</ele>
        <time>2022-10-19T13:08:19Z</time>
      </trkpt>
      <trkpt lat="49.89253" lon="2.46051">
        <ele>40.7</ele>
        <time>2022-10-19T13:08:20Z</time>
      </trkpt>
      <trkpt lat="49.89253" lon="2.46051">
        <ele>40.7</ele>
        <time>2022-10-19T13:08:21Z</time>
      </trkpt>
      <trkpt lat="49.89253" lon="2.46051">
        <ele>40.7</ele>
        <time>2022-10-19T13:08:22Z</time>
      </trkpt>
      <trkpt lat="49.89253" lon="2.46051">
        <ele>40.7</ele>
        <time>2022-10-19T13:08:23Z</time>
      </trkpt>
      <trkpt lat="49.89253" lon="2.46051">
        <ele>40.7</ele>
        <time>2022-10-19T13:08:24Z</time>
      </trkpt>
      <trkpt lat="49.89253" lon="2.46051">
        <ele>40.7</ele>
        <time>2022-10-19T13:08:25Z</time>
      </trkpt>
      <trkpt lat="49.89252" lon="2.46051">
        <ele>40.7</ele>
        <time>2022-10-19T13:08:26Z</time>
      </trkpt>
      <trkpt lat="49.89252" lon="2.46052">
        <ele>40.7</ele>
        <time>2022-10-19T13:08:27Z</time>
      </trkpt>
      <trkpt lat="49.89252" lon="2.46052">
        <ele>40.7</ele>
        <time>2022-10-19T13:08:28Z</time>
      </trkpt>
      <trkpt lat="49.89252" lon="2.46052">
        <ele>40.7</ele>
        <time>2022-10-19T13:08:29Z</time>
      </trkpt>
      <trkpt lat="49.89252" lon="2.46052">
        <ele>40.7</ele>
        <time>2022-10-19T13:08:30Z</time>
      </trkpt>
      <trkpt lat="49.89252" lon="2.46052">
        <ele>40.7</ele>
        <time>2022-10-19T13:08:31Z</time>
      </trkpt>
      <trkpt lat="49.89252" lon="2.46052">
        <ele>40.7</ele>
        <time>2022-10-19T13:08:32Z</time>
      </trkpt>
      <trkpt lat="49.89252" lon="2.46052">
        <ele>40.7</ele>
        <time>2022-10-19T13:08:33Z</time>
      </trkpt>
      <trkpt lat="49.89252" lon="2.46052">
        <ele>40.7</ele>
        <time>2022-10-19T13:08:34Z</time>
      </trkpt>
      <trkpt lat="49.89252" lon="2.46052">
        <ele>40.7</ele>
        <time>2022-10-19T13:08:35Z</time>
      </trkpt>
      <trkpt lat="49.89252" lon="2.46052">
        <ele>40.7</ele>
        <time>2022-10-19T13:08:36Z</time>
      </trkpt>
      <trkpt lat="49.89252" lon="2.46052">
        <ele>40.7</ele>
        <time>2022-10-19T13:08:37Z</time>
      </trkpt>
      <trkpt lat="49.89252" lon="2.46052">
        <ele>40.7</ele>
        <time>2022-10-19T13:08:38Z</time>
      </trkpt>
      <trkpt lat="49.89252" lon="2.46052">
        <ele>40.7</ele>
        <time>2022-10-19T13:08:39Z</time>
      </trkpt>
      <trkpt lat="49.89252" lon="2.46052">
        <ele>40.7</ele>
        <time>2022-10-19T13:08:40Z</time>
      </trkpt>
      <trkpt lat="49.89252" lon="2.46052">
        <ele>40.7</ele>
        <time>2022-10-19T13:08:41Z</time>
      </trkpt>
      <trkpt lat="49.89252" lon="2.46052">
        <ele>40.7</ele>
        <time>2022-10-19T13:08:42Z</time>
      </trkpt>
      <trkpt lat="49.8925" lon="2.46051">
        <ele>40.7</ele>
        <time>2022-10-19T13:08:43Z</time>
      </trkpt>
      <trkpt lat="49.89251" lon="2.46051">
        <ele>40.7</ele>
        <time>2022-10-19T13:08:44Z</time>
      </trkpt>
      <trkpt lat="49.89251" lon="2.4605">
        <ele>40.7</ele>
        <time>2022-10-19T13:08:45Z</time>
      </trkpt>
      <trkpt lat="49.89251" lon="2.4605">
        <ele>40.7</ele>
        <time>2022-10-19T13:08:46Z</time>
      </trkpt>
      <trkpt lat="49.89251" lon="2.4605">
        <ele>40.7</ele>
        <time>2022-10-19T13:08:47Z</time>
      </trkpt>
      <trkpt lat="49.89252" lon="2.4605">
        <ele>40.7</ele>
        <time>2022-10-19T13:08:48Z</time>
      </trkpt>
      <trkpt lat="49.89252" lon="2.4605">
        <ele>40.7</ele>
        <time>2022-10-19T13:08:49Z</time>
      </trkpt>
      <trkpt lat="49.89253" lon="2.4605">
        <ele>40.7</ele>
        <time>2022-10-19T13:08:50Z</time>
      </trkpt>
      <trkpt lat="49.89254" lon="2.4605">
        <ele>40.7</ele>
        <time>2022-10-19T13:08:51Z</time>
      </trkpt>
      <trkpt lat="49.89256" lon="2.4605">
        <ele>40.7</ele>
        <time>2022-10-19T13:08:53Z</time>
      </trkpt>
      <trkpt lat="49.89257" lon="2.46049">
        <ele>40.7</ele>
        <time>2022-10-19T13:08:54Z</time>
      </trkpt>
      <trkpt lat="49.89258" lon="2.46049">
        <ele>40.7</ele>
        <time>2022-10-19T13:08:55Z</time>
      </trkpt>
      <trkpt lat="49.89259" lon="2.46048">
        <ele>40.7</ele>
        <time>2022-10-19T13:08:56Z</time>
      </trkpt>
      <trkpt lat="49.8926" lon="2.46047">
        <ele>40.7</ele>
        <time>2022-10-19T13:08:57Z</time>
      </trkpt>
      <trkpt lat="49.89261" lon="2.46046">
        <ele>40.7</ele>
        <time>2022-10-19T13:08:58Z</time>
      </trkpt>
      <trkpt lat="49.89262" lon="2.46046">
        <ele>40.7</ele>
        <time>2022-10-19T13:08:59Z</time>
      </trkpt>
      <trkpt lat="49.89263" lon="2.46046">
        <ele>40.7</ele>
        <time>2022-10-19T13:09:00Z</time>
      </trkpt>
      <trkpt lat="49.89264" lon="2.46046">
        <ele>40.7</ele>
        <time>2022-10-19T13:09:01Z</time>
      </trkpt>
      <trkpt lat="49.89265" lon="2.46045">
        <ele>40.7</ele>
        <time>2022-10-19T13:09:03Z</time>
      </trkpt>
      <trkpt lat="49.89266" lon="2.46045">
        <ele>40.7</ele>
        <time>2022-10-19T13:09:04Z</time>
      </trkpt>
      <trkpt lat="49.89268" lon="2.46044">
        <ele>40.7</ele>
        <time>2022-10-19T13:09:05Z</time>
      </trkpt>
      <trkpt lat="49.89269" lon="2.46044">
        <ele>40.7</ele>
        <time>2022-10-19T13:09:06Z</time>
      </trkpt>
      <trkpt lat="49.89271" lon="2.46043">
        <ele>40.7</ele>
        <time>2022-10-19T13:09:07Z</time>
      </trkpt>
      <trkpt lat="49.89272" lon="2.46043">
        <ele>40.7</ele>
        <time>2022-10-19T13:09:08Z</time>
      </trkpt>
      <trkpt lat="49.89273" lon="2.46042">
        <ele>40.7</ele>
        <time>2022-10-19T13:09:09Z</time>
      </trkpt>
      <trkpt lat="49.89275" lon="2.46042">
        <ele>40.7</ele>
        <time>2022-10-19T13:09:10Z</time>
      </trkpt>
      <trkpt lat="49.89276" lon="2.46042">
        <ele>40.7</ele>
        <time>2022-10-19T13:09:12Z</time>
      </trkpt>
      <trkpt lat="49.89278" lon="2.46042">
        <ele>40.7</ele>
        <time>2022-10-19T13:09:13Z</time>
      </trkpt>
      <trkpt lat="49.89279" lon="2.46041">
        <ele>40.7</ele>
        <time>2022-10-19T13:09:14Z</time>
      </trkpt>
      <trkpt lat="49.89281" lon="2.46041">
        <ele>40.7</ele>
        <time>2022-10-19T13:09:15Z</time>
      </trkpt>
      <trkpt lat="49.89283" lon="2.4604">
        <ele>40.7</ele>
        <time>2022-10-19T13:09:16Z</time>
      </trkpt>
      <trkpt lat="49.89284" lon="2.4604">
        <ele>40.7</ele>
        <time>2022-10-19T13:09:17Z</time>
      </trkpt>
      <trkpt lat="49.89286" lon="2.46039">
        <ele>40.7</ele>
        <time>2022-10-19T13:09:18Z</time>
      </trkpt>
      <trkpt lat="49.89287" lon="2.46039">
        <ele>40.7</ele>
        <time>2022-10-19T13:09:19Z</time>
      </trkpt>
      <trkpt lat="49.89288" lon="2.46039">
        <ele>40.6</ele>
        <time>2022-10-19T13:09:20Z</time>
      </trkpt>
      <trkpt lat="49.8929" lon="2.46039">
        <ele>40.6</ele>
        <time>2022-10-19T13:09:22Z</time>
      </trkpt>
      <trkpt lat="49.89291" lon="2.46038">
        <ele>40.6</ele>
        <time>2022-10-19T13:09:23Z</time>
      </trkpt>
      <trkpt lat="49.89293" lon="2.46038">
        <ele>40.6</ele>
        <time>2022-10-19T13:09:24Z</time>
      </trkpt>
      <trkpt lat="49.89294" lon="2.46037">
        <ele>40.6</ele>
        <time>2022-10-19T13:09:25Z</time>
      </trkpt>
      <trkpt lat="49.89296" lon="2.46037">
        <ele>40.6</ele>
        <time>2022-10-19T13:09:26Z</time>
      </trkpt>
      <trkpt lat="49.89297" lon="2.46037">
        <ele>40.6</ele>
        <time>2022-10-19T13:09:27Z</time>
      </trkpt>
      <trkpt lat="49.89298" lon="2.46036">
        <ele>40.6</ele>
        <time>2022-10-19T13:09:28Z</time>
      </trkpt>
      <trkpt lat="49.893" lon="2.46036">
        <ele>40.6</ele>
        <time>2022-10-19T13:09:29Z</time>
      </trkpt>
      <trkpt lat="49.89301" lon="2.46035">
        <ele>40.6</ele>
        <time>2022-10-19T13:09:30Z</time>
      </trkpt>
      <trkpt lat="49.89302" lon="2.46035">
        <ele>40.6</ele>
        <time>2022-10-19T13:09:31Z</time>
      </trkpt>
      <trkpt lat="49.89303" lon="2.46035">
        <ele>40.5</ele>
        <time>2022-10-19T13:09:32Z</time>
      </trkpt>
      <trkpt lat="49.89305" lon="2.46034">
        <ele>40.5</ele>
        <time>2022-10-19T13:09:34Z</time>
      </trkpt>
      <trkpt lat="49.89306" lon="2.46033">
        <ele>40.5</ele>
        <time>2022-10-19T13:09:35Z</time>
      </trkpt>
      <trkpt lat="49.89307" lon="2.46032">
        <ele>40.5</ele>
        <time>2022-10-19T13:09:36Z</time>
      </trkpt>
      <trkpt lat="49.89309" lon="2.46032">
        <ele>40.5</ele>
        <time>2022-10-19T13:09:37Z</time>
      </trkpt>
      <trkpt lat="49.8931" lon="2.46032">
        <ele>40.4</ele>
        <time>2022-10-19T13:09:38Z</time>
      </trkpt>
      <trkpt lat="49.89311" lon="2.46031">
        <ele>40.4</ele>
        <time>2022-10-19T13:09:39Z</time>
      </trkpt>
      <trkpt lat="49.89313" lon="2.46031">
        <ele>40.4</ele>
        <time>2022-10-19T13:09:40Z</time>
      </trkpt>
      <trkpt lat="49.89314" lon="2.46032">
        <ele>40.4</ele>
        <time>2022-10-19T13:09:41Z</time>
      </trkpt>
      <trkpt lat="49.89314" lon="2.46033">
        <ele>40.4</ele>
        <time>2022-10-19T13:09:42Z</time>
      </trkpt>
      <trkpt lat="49.89315" lon="2.46033">
        <ele>40.3</ele>
        <time>2022-10-19T13:09:43Z</time>
      </trkpt>
      <trkpt lat="49.89317" lon="2.46033">
        <ele>40.3</ele>
        <time>2022-10-19T13:09:44Z</time>
      </trkpt>
      <trkpt lat="49.89318" lon="2.46034">
        <ele>40.3</ele>
        <time>2022-10-19T13:09:46Z</time>
      </trkpt>
      <trkpt lat="49.8932" lon="2.46034">
        <ele>40.2</ele>
        <time>2022-10-19T13:09:47Z</time>
      </trkpt>
      <trkpt lat="49.89321" lon="2.46034">
        <ele>40.2</ele>
        <time>2022-10-19T13:09:48Z</time>
      </trkpt>
      <trkpt lat="49.89322" lon="2.46034">
        <ele>40.2</ele>
        <time>2022-10-19T13:09:49Z</time>
      </trkpt>
      <trkpt lat="49.89323" lon="2.46034">
        <ele>40.2</ele>
        <time>2022-10-19T13:09:50Z</time>
      </trkpt>
      <trkpt lat="49.89324" lon="2.46033">
        <ele>40.1</ele>
        <time>2022-10-19T13:09:51Z</time>
      </trkpt>
      <trkpt lat="49.89325" lon="2.46033">
        <ele>40.1</ele>
        <time>2022-10-19T13:09:52Z</time>
      </trkpt>
      <trkpt lat="49.89326" lon="2.46032">
        <ele>40.1</ele>
        <time>2022-10-19T13:09:53Z</time>
      </trkpt>
      <trkpt lat="49.89327" lon="2.46032">
        <ele>40.1</ele>
        <time>2022-10-19T13:09:54Z</time>
      </trkpt>
      <trkpt lat="49.89328" lon="2.46031">
        <ele>40</ele>
        <time>2022-10-19T13:09:55Z</time>
      </trkpt>
      <trkpt lat="49.89329" lon="2.46031">
        <ele>40</ele>
        <time>2022-10-19T13:09:57Z</time>
      </trkpt>
      <trkpt lat="49.8933" lon="2.4603">
        <ele>40</ele>
        <time>2022-10-19T13:09:58Z</time>
      </trkpt>
      <trkpt lat="49.89333" lon="2.4603">
        <ele>40</ele>
        <time>2022-10-19T13:09:59Z</time>
      </trkpt>
      <trkpt lat="49.89333" lon="2.4603">
        <ele>39.9</ele>
        <time>2022-10-19T13:10:00Z</time>
      </trkpt>
      <trkpt lat="49.89334" lon="2.4603">
        <ele>39.9</ele>
        <time>2022-10-19T13:10:01Z</time>
      </trkpt>
      <trkpt lat="49.89335" lon="2.46029">
        <ele>39.9</ele>
        <time>2022-10-19T13:10:02Z</time>
      </trkpt>
      <trkpt lat="49.89336" lon="2.46029">
        <ele>39.9</ele>
        <time>2022-10-19T13:10:03Z</time>
      </trkpt>
      <trkpt lat="49.89337" lon="2.46028">
        <ele>39.8</ele>
        <time>2022-10-19T13:10:04Z</time>
      </trkpt>
      <trkpt lat="49.89339" lon="2.46027">
        <ele>39.8</ele>
        <time>2022-10-19T13:10:05Z</time>
      </trkpt>
      <trkpt lat="49.8934" lon="2.46027">
        <ele>39.8</ele>
        <time>2022-10-19T13:10:06Z</time>
      </trkpt>
      <trkpt lat="49.89341" lon="2.46026">
        <ele>39.7</ele>
        <time>2022-10-19T13:10:08Z</time>
      </trkpt>
      <trkpt lat="49.89342" lon="2.46025">
        <ele>39.7</ele>
        <time>2022-10-19T13:10:09Z</time>
      </trkpt>
      <trkpt lat="49.89343" lon="2.46025">
        <ele>39.7</ele>
        <time>2022-10-19T13:10:10Z</time>
      </trkpt>
      <trkpt lat="49.89344" lon="2.46024">
        <ele>39.7</ele>
        <time>2022-10-19T13:10:11Z</time>
      </trkpt>
      <trkpt lat="49.89346" lon="2.46024">
        <ele>39.6</ele>
        <time>2022-10-19T13:10:12Z</time>
      </trkpt>
      <trkpt lat="49.89347" lon="2.46023">
        <ele>39.6</ele>
        <time>2022-10-19T13:10:13Z</time>
      </trkpt>
      <trkpt lat="49.89348" lon="2.46023">
        <ele>39.6</ele>
        <time>2022-10-19T13:10:14Z</time>
      </trkpt>
      <trkpt lat="49.89349" lon="2.46022">
        <ele>39.5</ele>
        <time>2022-10-19T13:10:15Z</time>
      </trkpt>
      <trkpt lat="49.8935" lon="2.46022">
        <ele>39.5</ele>
        <time>2022-10-19T13:10:16Z</time>
      </trkpt>
      <trkpt lat="49.89351" lon="2.46021">
        <ele>39.5</ele>
        <time>2022-10-19T13:10:17Z</time>
      </trkpt>
      <trkpt lat="49.89353" lon="2.4602">
        <ele>39.4</ele>
        <time>2022-10-19T13:10:18Z</time>
      </trkpt>
      <trkpt lat="49.89354" lon="2.4602">
        <ele>39.4</ele>
        <time>2022-10-19T13:10:20Z</time>
      </trkpt>
      <trkpt lat="49.89355" lon="2.46019">
        <ele>39.4</ele>
        <time>2022-10-19T13:10:21Z</time>
      </trkpt>
      <trkpt lat="49.89356" lon="2.46019">
        <ele>39.4</ele>
        <time>2022-10-19T13:10:22Z</time>
      </trkpt>
      <trkpt lat="49.89357" lon="2.46018">
        <ele>39.3</ele>
        <time>2022-10-19T13:10:23Z</time>
      </trkpt>
      <trkpt lat="49.89359" lon="2.46018">
        <ele>39.3</ele>
        <time>2022-10-19T13:10:24Z</time>
      </trkpt>
      <trkpt lat="49.8936" lon="2.46017">
        <ele>39.3</ele>
        <time>2022-10-19T13:10:25Z</time>
      </trkpt>
      <trkpt lat="49.89361" lon="2.46017">
        <ele>39.2</ele>
        <time>2022-10-19T13:10:26Z</time>
      </trkpt>
      <trkpt lat="49.89362" lon="2.46017">
        <ele>39.2</ele>
        <time>2022-10-19T13:10:27Z</time>
      </trkpt>
      <trkpt lat="49.89363" lon="2.46016">
        <ele>39.2</ele>
        <time>2022-10-19T13:10:28Z</time>
      </trkpt>
      <trkpt lat="49.89364" lon="2.46015">
        <ele>39.2</ele>
        <time>2022-10-19T13:10:29Z</time>
      </trkpt>
      <trkpt lat="49.89366" lon="2.46014">
        <ele>39.1</ele>
        <time>2022-10-19T13:10:31Z</time>
      </trkpt>
      <trkpt lat="49.89367" lon="2.46013">
        <ele>39.1</ele>
        <time>2022-10-19T13:10:32Z</time>
      </trkpt>
      <trkpt lat="49.89368" lon="2.46013">
        <ele>39</ele>
        <time>2022-10-19T13:10:33Z</time>
      </trkpt>
      <trkpt lat="49.89369" lon="2.46013">
        <ele>39</ele>
        <time>2022-10-19T13:10:34Z</time>
      </trkpt>
      <trkpt lat="49.89371" lon="2.46012">
        <ele>39</ele>
        <time>2022-10-19T13:10:35Z</time>
      </trkpt>
      <trkpt lat="49.89372" lon="2.46012">
        <ele>38.9</ele>
        <time>2022-10-19T13:10:36Z</time>
      </trkpt>
      <trkpt lat="49.89373" lon="2.46012">
        <ele>38.9</ele>
        <time>2022-10-19T13:10:38Z</time>
      </trkpt>
      <trkpt lat="49.89374" lon="2.46012">
        <ele>38.9</ele>
        <time>2022-10-19T13:10:39Z</time>
      </trkpt>
      <trkpt lat="49.89375" lon="2.46012">
        <ele>38.8</ele>
        <time>2022-10-19T13:10:40Z</time>
      </trkpt>
      <trkpt lat="49.89377" lon="2.46011">
        <ele>38.8</ele>
        <time>2022-10-19T13:10:41Z</time>
      </trkpt>
      <trkpt lat="49.89378" lon="2.46011">
        <ele>38.8</ele>
        <time>2022-10-19T13:10:42Z</time>
      </trkpt>
      <trkpt lat="49.89379" lon="2.46011">
        <ele>38.7</ele>
        <time>2022-10-19T13:10:43Z</time>
      </trkpt>
      <trkpt lat="49.89381" lon="2.46011">
        <ele>38.7</ele>
        <time>2022-10-19T13:10:44Z</time>
      </trkpt>
      <trkpt lat="49.89382" lon="2.4601">
        <ele>38.6</ele>
        <time>2022-10-19T13:10:45Z</time>
      </trkpt>
      <trkpt lat="49.89383" lon="2.4601">
        <ele>38.6</ele>
        <time>2022-10-19T13:10:46Z</time>
      </trkpt>
      <trkpt lat="49.89384" lon="2.46009">
        <ele>38.6</ele>
        <time>2022-10-19T13:10:48Z</time>
      </trkpt>
      <trkpt lat="49.89385" lon="2.46009">
        <ele>38.5</ele>
        <time>2022-10-19T13:10:49Z</time>
      </trkpt>
      <trkpt lat="49.89386" lon="2.46008">
        <ele>38.5</ele>
        <time>2022-10-19T13:10:50Z</time>
      </trkpt>
      <trkpt lat="49.89387" lon="2.46008">
        <ele>38.5</ele>
        <time>2022-10-19T13:10:51Z</time>
      </trkpt>
      <trkpt lat="49.89388" lon="2.46008">
        <ele>38.4</ele>
        <time>2022-10-19T13:10:52Z</time>
      </trkpt>
      <trkpt lat="49.89389" lon="2.46007">
        <ele>38.4</ele>
        <time>2022-10-19T13:10:53Z</time>
      </trkpt>
      <trkpt lat="49.89391" lon="2.46007">
        <ele>38.3</ele>
        <time>2022-10-19T13:10:54Z</time>
      </trkpt>
      <trkpt lat="49.89392" lon="2.46007">
        <ele>38.3</ele>
        <time>2022-10-19T13:10:55Z</time>
      </trkpt>
      <trkpt lat="49.89393" lon="2.46007">
        <ele>38.3</ele>
        <time>2022-10-19T13:10:56Z</time>
      </trkpt>
      <trkpt lat="49.89394" lon="2.46007">
        <ele>38.3</ele>
        <time>2022-10-19T13:10:57Z</time>
      </trkpt>
      <trkpt lat="49.89395" lon="2.46006">
        <ele>38.2</ele>
        <time>2022-10-19T13:10:59Z</time>
      </trkpt>
      <trkpt lat="49.89396" lon="2.46006">
        <ele>38.2</ele>
        <time>2022-10-19T13:11:00Z</time>
      </trkpt>
      <trkpt lat="49.89398" lon="2.46006">
        <ele>38.2</ele>
        <time>2022-10-19T13:11:01Z</time>
      </trkpt>
      <trkpt lat="49.89399" lon="2.46006">
        <ele>38.2</ele>
        <time>2022-10-19T13:11:02Z</time>
      </trkpt>
      <trkpt lat="49.894" lon="2.46005">
        <ele>38.1</ele>
        <time>2022-10-19T13:11:03Z</time>
      </trkpt>
      <trkpt lat="49.89402" lon="2.46005">
        <ele>38.1</ele>
        <time>2022-10-19T13:11:04Z</time>
      </trkpt>
      <trkpt lat="49.89403" lon="2.46005">
        <ele>38.1</ele>
        <time>2022-10-19T13:11:05Z</time>
      </trkpt>
      <trkpt lat="49.89404" lon="2.46004">
        <ele>38</ele>
        <time>2022-10-19T13:11:06Z</time>
      </trkpt>
      <trkpt lat="49.89405" lon="2.46004">
        <ele>38</ele>
        <time>2022-10-19T13:11:07Z</time>
      </trkpt>
      <trkpt lat="49.89406" lon="2.46004">
        <ele>38</ele>
        <time>2022-10-19T13:11:08Z</time>
      </trkpt>
      <trkpt lat="49.89408" lon="2.46004">
        <ele>38</ele>
        <time>2022-10-19T13:11:10Z</time>
      </trkpt>
      <trkpt lat="49.8941" lon="2.46003">
        <ele>37.9</ele>
        <time>2022-10-19T13:11:11Z</time>
      </trkpt>
      <trkpt lat="49.89411" lon="2.46003">
        <ele>37.9</ele>
        <time>2022-10-19T13:11:12Z</time>
      </trkpt>
      <trkpt lat="49.89413" lon="2.46001">
        <ele>37.9</ele>
        <time>2022-10-19T13:11:14Z</time>
      </trkpt>
      <trkpt lat="49.89414" lon="2.46001">
        <ele>37.9</ele>
        <time>2022-10-19T13:11:15Z</time>
      </trkpt>
      <trkpt lat="49.89415" lon="2.46001">
        <ele>37.9</ele>
        <time>2022-10-19T13:11:16Z</time>
      </trkpt>
      <trkpt lat="49.89416" lon="2.46">
        <ele>37.9</ele>
        <time>2022-10-19T13:11:17Z</time>
      </trkpt>
      <trkpt lat="49.89416" lon="2.46">
        <ele>37.9</ele>
        <time>2022-10-19T13:11:18Z</time>
      </trkpt>
      <trkpt lat="49.89418" lon="2.45999">
        <ele>37.9</ele>
        <time>2022-10-19T13:11:19Z</time>
      </trkpt>
      <trkpt lat="49.89419" lon="2.45998">
        <ele>37.8</ele>
        <time>2022-10-19T13:11:20Z</time>
      </trkpt>
      <trkpt lat="49.8942" lon="2.45997">
        <ele>37.8</ele>
        <time>2022-10-19T13:11:21Z</time>
      </trkpt>
      <trkpt lat="49.89421" lon="2.45996">
        <ele>37.8</ele>
        <time>2022-10-19T13:11:23Z</time>
      </trkpt>
      <trkpt lat="49.89423" lon="2.45995">
        <ele>37.8</ele>
        <time>2022-10-19T13:11:24Z</time>
      </trkpt>
      <trkpt lat="49.89424" lon="2.45995">
        <ele>37.8</ele>
        <time>2022-10-19T13:11:25Z</time>
      </trkpt>
      <trkpt lat="49.89426" lon="2.45994">
        <ele>37.8</ele>
        <time>2022-10-19T13:11:26Z</time>
      </trkpt>
      <trkpt lat="49.89427" lon="2.45994">
        <ele>37.8</ele>
        <time>2022-10-19T13:11:27Z</time>
      </trkpt>
      <trkpt lat="49.89428" lon="2.45993">
        <ele>37.8</ele>
        <time>2022-10-19T13:11:28Z</time>
      </trkpt>
      <trkpt lat="49.89429" lon="2.45993">
        <ele>37.8</ele>
        <time>2022-10-19T13:11:29Z</time>
      </trkpt>
      <trkpt lat="49.8943" lon="2.45992">
        <ele>37.8</ele>
        <time>2022-10-19T13:11:30Z</time>
      </trkpt>
      <trkpt lat="49.89432" lon="2.45991">
        <ele>37.8</ele>
        <time>2022-10-19T13:11:31Z</time>
      </trkpt>
      <trkpt lat="49.89433" lon="2.45991">
        <ele>37.8</ele>
        <time>2022-10-19T13:11:32Z</time>
      </trkpt>
      <trkpt lat="49.89434" lon="2.4599">
        <ele>37.8</ele>
        <time>2022-10-19T13:11:33Z</time>
      </trkpt>
      <trkpt lat="49.89435" lon="2.45989">
        <ele>37.8</ele>
        <time>2022-10-19T13:11:34Z</time>
      </trkpt>
      <trkpt lat="49.89437" lon="2.45988">
        <ele>37.8</ele>
        <time>2022-10-19T13:11:35Z</time>
      </trkpt>
      <trkpt lat="49.89438" lon="2.45988">
        <ele>37.8</ele>
        <time>2022-10-19T13:11:37Z</time>
      </trkpt>
      <trkpt lat="49.89439" lon="2.45987">
        <ele>37.8</ele>
        <time>2022-10-19T13:11:38Z</time>
      </trkpt>
      <trkpt lat="49.8944" lon="2.45987">
        <ele>37.7</ele>
        <time>2022-10-19T13:11:39Z</time>
      </trkpt>
      <trkpt lat="49.89442" lon="2.45987">
        <ele>37.7</ele>
        <time>2022-10-19T13:11:40Z</time>
      </trkpt>
      <trkpt lat="49.89443" lon="2.45986">
        <ele>37.7</ele>
        <time>2022-10-19T13:11:41Z</time>
      </trkpt>
      <trkpt lat="49.89444" lon="2.45986">
        <ele>37.7</ele>
        <time>2022-10-19T13:11:42Z</time>
      </trkpt>
      <trkpt lat="49.89447" lon="2.45985">
        <ele>37.7</ele>
        <time>2022-10-19T13:11:43Z</time>
      </trkpt>
      <trkpt lat="49.89447" lon="2.45985">
        <ele>37.7</ele>
        <time>2022-10-19T13:11:45Z</time>
      </trkpt>
      <trkpt lat="49.89448" lon="2.45984">
        <ele>37.7</ele>
        <time>2022-10-19T13:11:46Z</time>
      </trkpt>
      <trkpt lat="49.89449" lon="2.45984">
        <ele>37.7</ele>
        <time>2022-10-19T13:11:47Z</time>
      </trkpt>
      <trkpt lat="49.8945" lon="2.45984">
        <ele>37.7</ele>
        <time>2022-10-19T13:11:48Z</time>
      </trkpt>
      <trkpt lat="49.89451" lon="2.45983">
        <ele>37.7</ele>
        <time>2022-10-19T13:11:49Z</time>
      </trkpt>
      <trkpt lat="49.89454" lon="2.45982">
        <ele>37.6</ele>
        <time>2022-10-19T13:11:50Z</time>
      </trkpt>
      <trkpt lat="49.89455" lon="2.45981">
        <ele>37.6</ele>
        <time>2022-10-19T13:11:52Z</time>
      </trkpt>
      <trkpt lat="49.89456" lon="2.45981">
        <ele>37.6</ele>
        <time>2022-10-19T13:11:53Z</time>
      </trkpt>
      <trkpt lat="49.89457" lon="2.4598">
        <ele>37.6</ele>
        <time>2022-10-19T13:11:54Z</time>
      </trkpt>
      <trkpt lat="49.89458" lon="2.4598">
        <ele>37.6</ele>
        <time>2022-10-19T13:11:55Z</time>
      </trkpt>
      <trkpt lat="49.8946" lon="2.45979">
        <ele>37.6</ele>
        <time>2022-10-19T13:11:56Z</time>
      </trkpt>
      <trkpt lat="49.8946" lon="2.45978">
        <ele>37.6</ele>
        <time>2022-10-19T13:11:57Z</time>
      </trkpt>
      <trkpt lat="49.89461" lon="2.45977">
        <ele>37.6</ele>
        <time>2022-10-19T13:11:58Z</time>
      </trkpt>
      <trkpt lat="49.89462" lon="2.45976">
        <ele>37.6</ele>
        <time>2022-10-19T13:11:59Z</time>
      </trkpt>
      <trkpt lat="49.89463" lon="2.45975">
        <ele>37.6</ele>
        <time>2022-10-19T13:12:00Z</time>
      </trkpt>
      <trkpt lat="49.89464" lon="2.45975">
        <ele>37.6</ele>
        <time>2022-10-19T13:12:01Z</time>
      </trkpt>
      <trkpt lat="49.89465" lon="2.45974">
        <ele>37.6</ele>
        <time>2022-10-19T13:12:03Z</time>
      </trkpt>
      <trkpt lat="49.89467" lon="2.45974">
        <ele>37.6</ele>
        <time>2022-10-19T13:12:04Z</time>
      </trkpt>
      <trkpt lat="49.89468" lon="2.45973">
        <ele>37.6</ele>
        <time>2022-10-19T13:12:05Z</time>
      </trkpt>
      <trkpt lat="49.89469" lon="2.45973">
        <ele>37.6</ele>
        <time>2022-10-19T13:12:06Z</time>
      </trkpt>
      <trkpt lat="49.89471" lon="2.45973">
        <ele>37.6</ele>
        <time>2022-10-19T13:12:07Z</time>
      </trkpt>
      <trkpt lat="49.89472" lon="2.45973">
        <ele>37.6</ele>
        <time>2022-10-19T13:12:08Z</time>
      </trkpt>
      <trkpt lat="49.89472" lon="2.45973">
        <ele>37.6</ele>
        <time>2022-10-19T13:12:09Z</time>
      </trkpt>
      <trkpt lat="49.89473" lon="2.45972">
        <ele>37.6</ele>
        <time>2022-10-19T13:12:10Z</time>
      </trkpt>
      <trkpt lat="49.89475" lon="2.45972">
        <ele>37.6</ele>
        <time>2022-10-19T13:12:12Z</time>
      </trkpt>
      <trkpt lat="49.89475" lon="2.45972">
        <ele>37.6</ele>
        <time>2022-10-19T13:12:13Z</time>
      </trkpt>
      <trkpt lat="49.89476" lon="2.45972">
        <ele>37.7</ele>
        <time>2022-10-19T13:12:14Z</time>
      </trkpt>
      <trkpt lat="49.89478" lon="2.45971">
        <ele>37.7</ele>
        <time>2022-10-19T13:12:15Z</time>
      </trkpt>
      <trkpt lat="49.89479" lon="2.45971">
        <ele>37.7</ele>
        <time>2022-10-19T13:12:16Z</time>
      </trkpt>
      <trkpt lat="49.8948" lon="2.4597">
        <ele>37.7</ele>
        <time>2022-10-19T13:12:17Z</time>
      </trkpt>
      <trkpt lat="49.89481" lon="2.4597">
        <ele>37.7</ele>
        <time>2022-10-19T13:12:18Z</time>
      </trkpt>
      <trkpt lat="49.89482" lon="2.45969">
        <ele>37.7</ele>
        <time>2022-10-19T13:12:19Z</time>
      </trkpt>
      <trkpt lat="49.89483" lon="2.45969">
        <ele>37.7</ele>
        <time>2022-10-19T13:12:20Z</time>
      </trkpt>
      <trkpt lat="49.89485" lon="2.45968">
        <ele>37.8</ele>
        <time>2022-10-19T13:12:22Z</time>
      </trkpt>
      <trkpt lat="49.89486" lon="2.45968">
        <ele>37.8</ele>
        <time>2022-10-19T13:12:23Z</time>
      </trkpt>
      <trkpt lat="49.89487" lon="2.45968">
        <ele>37.8</ele>
        <time>2022-10-19T13:12:24Z</time>
      </trkpt>
      <trkpt lat="49.89488" lon="2.45968">
        <ele>37.8</ele>
        <time>2022-10-19T13:12:25Z</time>
      </trkpt>
      <trkpt lat="49.89489" lon="2.45967">
        <ele>37.8</ele>
        <time>2022-10-19T13:12:26Z</time>
      </trkpt>
      <trkpt lat="49.89491" lon="2.45967">
        <ele>37.8</ele>
        <time>2022-10-19T13:12:28Z</time>
      </trkpt>
      <trkpt lat="49.89492" lon="2.45967">
        <ele>37.8</ele>
        <time>2022-10-19T13:12:29Z</time>
      </trkpt>
      <trkpt lat="49.89493" lon="2.45966">
        <ele>37.8</ele>
        <time>2022-10-19T13:12:30Z</time>
      </trkpt>
      <trkpt lat="49.89494" lon="2.45966">
        <ele>37.8</ele>
        <time>2022-10-19T13:12:31Z</time>
      </trkpt>
      <trkpt lat="49.89495" lon="2.45965">
        <ele>37.8</ele>
        <time>2022-10-19T13:12:32Z</time>
      </trkpt>
      <trkpt lat="49.89496" lon="2.45965">
        <ele>37.8</ele>
        <time>2022-10-19T13:12:33Z</time>
      </trkpt>
      <trkpt lat="49.89497" lon="2.45964">
        <ele>37.8</ele>
        <time>2022-10-19T13:12:35Z</time>
      </trkpt>
      <trkpt lat="49.89498" lon="2.45963">
        <ele>37.8</ele>
        <time>2022-10-19T13:12:36Z</time>
      </trkpt>
      <trkpt lat="49.89501" lon="2.45963">
        <ele>37.8</ele>
        <time>2022-10-19T13:12:37Z</time>
      </trkpt>
      <trkpt lat="49.89501" lon="2.45962">
        <ele>37.8</ele>
        <time>2022-10-19T13:12:38Z</time>
      </trkpt>
      <trkpt lat="49.89502" lon="2.45962">
        <ele>37.8</ele>
        <time>2022-10-19T13:12:39Z</time>
      </trkpt>
      <trkpt lat="49.89504" lon="2.45962">
        <ele>37.8</ele>
        <time>2022-10-19T13:12:40Z</time>
      </trkpt>
      <trkpt lat="49.89505" lon="2.45961">
        <ele>37.8</ele>
        <time>2022-10-19T13:12:42Z</time>
      </trkpt>
      <trkpt lat="49.89506" lon="2.45961">
        <ele>37.8</ele>
        <time>2022-10-19T13:12:43Z</time>
      </trkpt>
      <trkpt lat="49.89508" lon="2.45961">
        <ele>37.8</ele>
        <time>2022-10-19T13:12:44Z</time>
      </trkpt>
      <trkpt lat="49.89509" lon="2.4596">
        <ele>37.8</ele>
        <time>2022-10-19T13:12:45Z</time>
      </trkpt>
      <trkpt lat="49.8951" lon="2.4596">
        <ele>37.8</ele>
        <time>2022-10-19T13:12:46Z</time>
      </trkpt>
      <trkpt lat="49.89512" lon="2.4596">
        <ele>37.8</ele>
        <time>2022-10-19T13:12:47Z</time>
      </trkpt>
      <trkpt lat="49.89512" lon="2.4596">
        <ele>37.8</ele>
        <time>2022-10-19T13:12:48Z</time>
      </trkpt>
      <trkpt lat="49.89513" lon="2.4596">
        <ele>37.7</ele>
        <time>2022-10-19T13:12:49Z</time>
      </trkpt>
      <trkpt lat="49.89514" lon="2.4596">
        <ele>37.7</ele>
        <time>2022-10-19T13:12:51Z</time>
      </trkpt>
      <trkpt lat="49.89515" lon="2.45959">
        <ele>37.7</ele>
        <time>2022-10-19T13:12:52Z</time>
      </trkpt>
      <trkpt lat="49.89515" lon="2.45958">
        <ele>37.7</ele>
        <time>2022-10-19T13:12:53Z</time>
      </trkpt>
      <trkpt lat="49.89516" lon="2.45958">
        <ele>37.7</ele>
        <time>2022-10-19T13:12:54Z</time>
      </trkpt>
      <trkpt lat="49.89518" lon="2.45958">
        <ele>37.7</ele>
        <time>2022-10-19T13:12:55Z</time>
      </trkpt>
      <trkpt lat="49.89519" lon="2.45957">
        <ele>37.7</ele>
        <time>2022-10-19T13:12:56Z</time>
      </trkpt>
      <trkpt lat="49.8952" lon="2.45957">
        <ele>37.7</ele>
        <time>2022-10-19T13:12:57Z</time>
      </trkpt>
      <trkpt lat="49.89521" lon="2.45957">
        <ele>37.7</ele>
        <time>2022-10-19T13:12:58Z</time>
      </trkpt>
      <trkpt lat="49.89522" lon="2.45957">
        <ele>37.7</ele>
        <time>2022-10-19T13:13:00Z</time>
      </trkpt>
      <trkpt lat="49.89523" lon="2.45956">
        <ele>37.7</ele>
        <time>2022-10-19T13:13:01Z</time>
      </trkpt>
      <trkpt lat="49.89525" lon="2.45956">
        <ele>37.7</ele>
        <time>2022-10-19T13:13:02Z</time>
      </trkpt>
      <trkpt lat="49.89526" lon="2.45955">
        <ele>37.7</ele>
        <time>2022-10-19T13:13:03Z</time>
      </trkpt>
      <trkpt lat="49.89527" lon="2.45955">
        <ele>37.7</ele>
        <time>2022-10-19T13:13:04Z</time>
      </trkpt>
      <trkpt lat="49.89528" lon="2.45955">
        <ele>37.7</ele>
        <time>2022-10-19T13:13:05Z</time>
      </trkpt>
      <trkpt lat="49.8953" lon="2.45954">
        <ele>37.7</ele>
        <time>2022-10-19T13:13:06Z</time>
      </trkpt>
      <trkpt lat="49.89531" lon="2.45953">
        <ele>37.7</ele>
        <time>2022-10-19T13:13:07Z</time>
      </trkpt>
      <trkpt lat="49.89532" lon="2.45953">
        <ele>37.7</ele>
        <time>2022-10-19T13:13:09Z</time>
      </trkpt>
      <trkpt lat="49.89533" lon="2.45952">
        <ele>37.7</ele>
        <time>2022-10-19T13:13:10Z</time>
      </trkpt>
      <trkpt lat="49.89534" lon="2.45952">
        <ele>37.7</ele>
        <time>2022-10-19T13:13:11Z</time>
      </trkpt>
      <trkpt lat="49.89535" lon="2.45951">
        <ele>37.7</ele>
        <time>2022-10-19T13:13:12Z</time>
      </trkpt>
      <trkpt lat="49.89536" lon="2.4595">
        <ele>37.7</ele>
        <time>2022-10-19T13:13:13Z</time>
      </trkpt>
      <trkpt lat="49.89537" lon="2.4595">
        <ele>37.7</ele>
        <time>2022-10-19T13:13:14Z</time>
      </trkpt>
      <trkpt lat="49.89538" lon="2.4595">
        <ele>37.7</ele>
        <time>2022-10-19T13:13:15Z</time>
      </trkpt>
      <trkpt lat="49.89538" lon="2.45949">
        <ele>37.7</ele>
        <time>2022-10-19T13:13:16Z</time>
      </trkpt>
      <trkpt lat="49.8954" lon="2.45948">
        <ele>37.7</ele>
        <time>2022-10-19T13:13:18Z</time>
      </trkpt>
      <trkpt lat="49.89541" lon="2.45947">
        <ele>37.7</ele>
        <time>2022-10-19T13:13:19Z</time>
      </trkpt>
      <trkpt lat="49.89541" lon="2.45947">
        <ele>37.7</ele>
        <time>2022-10-19T13:13:20Z</time>
      </trkpt>
      <trkpt lat="49.89542" lon="2.45946">
        <ele>37.7</ele>
        <time>2022-10-19T13:13:21Z</time>
      </trkpt>
      <trkpt lat="49.89544" lon="2.45946">
        <ele>37.7</ele>
        <time>2022-10-19T13:13:22Z</time>
      </trkpt>
      <trkpt lat="49.89544" lon="2.45945">
        <ele>37.6</ele>
        <time>2022-10-19T13:13:23Z</time>
      </trkpt>
      <trkpt lat="49.89547" lon="2.45945">
        <ele>37.6</ele>
        <time>2022-10-19T13:13:24Z</time>
      </trkpt>
      <trkpt lat="49.89548" lon="2.45945">
        <ele>37.6</ele>
        <time>2022-10-19T13:13:26Z</time>
      </trkpt>
      <trkpt lat="49.89548" lon="2.45944">
        <ele>37.6</ele>
        <time>2022-10-19T13:13:27Z</time>
      </trkpt>
      <trkpt lat="49.8955" lon="2.45944">
        <ele>37.6</ele>
        <time>2022-10-19T13:13:28Z</time>
      </trkpt>
      <trkpt lat="49.89551" lon="2.45944">
        <ele>37.6</ele>
        <time>2022-10-19T13:13:29Z</time>
      </trkpt>
      <trkpt lat="49.89553" lon="2.45943">
        <ele>37.6</ele>
        <time>2022-10-19T13:13:30Z</time>
      </trkpt>
      <trkpt lat="49.89554" lon="2.45942">
        <ele>37.5</ele>
        <time>2022-10-19T13:13:31Z</time>
      </trkpt>
      <trkpt lat="49.89556" lon="2.45942">
        <ele>37.5</ele>
        <time>2022-10-19T13:13:32Z</time>
      </trkpt>
      <trkpt lat="49.89557" lon="2.45942">
        <ele>37.5</ele>
        <time>2022-10-19T13:13:33Z</time>
      </trkpt>
      <trkpt lat="49.89558" lon="2.45942">
        <ele>37.5</ele>
        <time>2022-10-19T13:13:34Z</time>
      </trkpt>
      <trkpt lat="49.89559" lon="2.45942">
        <ele>37.4</ele>
        <time>2022-10-19T13:13:35Z</time>
      </trkpt>
      <trkpt lat="49.89561" lon="2.45942">
        <ele>37.4</ele>
        <time>2022-10-19T13:13:37Z</time>
      </trkpt>
      <trkpt lat="49.89563" lon="2.45941">
        <ele>37.4</ele>
        <time>2022-10-19T13:13:38Z</time>
      </trkpt>
      <trkpt lat="49.89564" lon="2.45941">
        <ele>37.4</ele>
        <time>2022-10-19T13:13:39Z</time>
      </trkpt>
      <trkpt lat="49.89565" lon="2.45941">
        <ele>37.3</ele>
        <time>2022-10-19T13:13:40Z</time>
      </trkpt>
      <trkpt lat="49.89567" lon="2.45941">
        <ele>37.3</ele>
        <time>2022-10-19T13:13:41Z</time>
      </trkpt>
      <trkpt lat="49.89568" lon="2.45941">
        <ele>37.3</ele>
        <time>2022-10-19T13:13:42Z</time>
      </trkpt>
      <trkpt lat="49.89569" lon="2.45942">
        <ele>37.3</ele>
        <time>2022-10-19T13:13:44Z</time>
      </trkpt>
      <trkpt lat="49.89568" lon="2.45943">
        <ele>37.3</ele>
        <time>2022-10-19T13:13:45Z</time>
      </trkpt>
      <trkpt lat="49.89568" lon="2.45945">
        <ele>37.2</ele>
        <time>2022-10-19T13:13:46Z</time>
      </trkpt>
      <trkpt lat="49.89569" lon="2.45947">
        <ele>37.2</ele>
        <time>2022-10-19T13:13:48Z</time>
      </trkpt>
      <trkpt lat="49.89569" lon="2.45947">
        <ele>37.2</ele>
        <time>2022-10-19T13:13:49Z</time>
      </trkpt>
      <trkpt lat="49.89571" lon="2.45946">
        <ele>37.2</ele>
        <time>2022-10-19T13:13:50Z</time>
      </trkpt>
      <trkpt lat="49.89572" lon="2.45946">
        <ele>37.2</ele>
        <time>2022-10-19T13:13:51Z</time>
      </trkpt>
      <trkpt lat="49.89574" lon="2.45945">
        <ele>37.1</ele>
        <time>2022-10-19T13:13:52Z</time>
      </trkpt>
      <trkpt lat="49.89574" lon="2.45945">
        <ele>37.1</ele>
        <time>2022-10-19T13:13:53Z</time>
      </trkpt>
      <trkpt lat="49.89575" lon="2.45945">
        <ele>37.1</ele>
        <time>2022-10-19T13:13:54Z</time>
      </trkpt>
      <trkpt lat="49.89577" lon="2.45943">
        <ele>37</ele>
        <time>2022-10-19T13:13:55Z</time>
      </trkpt>
      <trkpt lat="49.89578" lon="2.45942">
        <ele>37</ele>
        <time>2022-10-19T13:13:56Z</time>
      </trkpt>
      <trkpt lat="49.89579" lon="2.45941">
        <ele>37</ele>
        <time>2022-10-19T13:13:57Z</time>
      </trkpt>
      <trkpt lat="49.89581" lon="2.4594">
        <ele>37</ele>
        <time>2022-10-19T13:13:58Z</time>
      </trkpt>
      <trkpt lat="49.89581" lon="2.45939">
        <ele>37</ele>
        <time>2022-10-19T13:14:00Z</time>
      </trkpt>
      <trkpt lat="49.89582" lon="2.45938">
        <ele>36.9</ele>
        <time>2022-10-19T13:14:01Z</time>
      </trkpt>
      <trkpt lat="49.89583" lon="2.45938">
        <ele>36.9</ele>
        <time>2022-10-19T13:14:02Z</time>
      </trkpt>
      <trkpt lat="49.89584" lon="2.45937">
        <ele>36.9</ele>
        <time>2022-10-19T13:14:03Z</time>
      </trkpt>
      <trkpt lat="49.89585" lon="2.45937">
        <ele>36.9</ele>
        <time>2022-10-19T13:14:04Z</time>
      </trkpt>
      <trkpt lat="49.89587" lon="2.45936">
        <ele>36.9</ele>
        <time>2022-10-19T13:14:05Z</time>
      </trkpt>
      <trkpt lat="49.89588" lon="2.45936">
        <ele>36.8</ele>
        <time>2022-10-19T13:14:06Z</time>
      </trkpt>
      <trkpt lat="49.89589" lon="2.45936">
        <ele>36.8</ele>
        <time>2022-10-19T13:14:07Z</time>
      </trkpt>
      <trkpt lat="49.8959" lon="2.45935">
        <ele>36.8</ele>
        <time>2022-10-19T13:14:08Z</time>
      </trkpt>
      <trkpt lat="49.89591" lon="2.45934">
        <ele>36.8</ele>
        <time>2022-10-19T13:14:09Z</time>
      </trkpt>
      <trkpt lat="49.89592" lon="2.45933">
        <ele>36.8</ele>
        <time>2022-10-19T13:14:10Z</time>
      </trkpt>
      <trkpt lat="49.89593" lon="2.45933">
        <ele>36.8</ele>
        <time>2022-10-19T13:14:11Z</time>
      </trkpt>
      <trkpt lat="49.89595" lon="2.45932">
        <ele>36.7</ele>
        <time>2022-10-19T13:14:13Z</time>
      </trkpt>
      <trkpt lat="49.89596" lon="2.45931">
        <ele>36.7</ele>
        <time>2022-10-19T13:14:14Z</time>
      </trkpt>
      <trkpt lat="49.89597" lon="2.45931">
        <ele>36.7</ele>
        <time>2022-10-19T13:14:15Z</time>
      </trkpt>
      <trkpt lat="49.89598" lon="2.45931">
        <ele>36.7</ele>
        <time>2022-10-19T13:14:16Z</time>
      </trkpt>
      <trkpt lat="49.89599" lon="2.4593">
        <ele>36.7</ele>
        <time>2022-10-19T13:14:17Z</time>
      </trkpt>
      <trkpt lat="49.896" lon="2.4593">
        <ele>36.7</ele>
        <time>2022-10-19T13:14:18Z</time>
      </trkpt>
      <trkpt lat="49.89601" lon="2.4593">
        <ele>36.7</ele>
        <time>2022-10-19T13:14:19Z</time>
      </trkpt>
      <trkpt lat="49.89602" lon="2.45929">
        <ele>36.7</ele>
        <time>2022-10-19T13:14:20Z</time>
      </trkpt>
      <trkpt lat="49.89604" lon="2.45929">
        <ele>36.6</ele>
        <time>2022-10-19T13:14:21Z</time>
      </trkpt>
      <trkpt lat="49.89605" lon="2.4593">
        <ele>36.6</ele>
        <time>2022-10-19T13:14:22Z</time>
      </trkpt>
      <trkpt lat="49.89607" lon="2.45929">
        <ele>36.6</ele>
        <time>2022-10-19T13:14:24Z</time>
      </trkpt>
      <trkpt lat="49.89608" lon="2.45929">
        <ele>36.6</ele>
        <time>2022-10-19T13:14:25Z</time>
      </trkpt>
      <trkpt lat="49.8961" lon="2.45929">
        <ele>36.6</ele>
        <time>2022-10-19T13:14:26Z</time>
      </trkpt>
      <trkpt lat="49.89611" lon="2.4593">
        <ele>36.5</ele>
        <time>2022-10-19T13:14:27Z</time>
      </trkpt>
      <trkpt lat="49.89613" lon="2.4593">
        <ele>36.5</ele>
        <time>2022-10-19T13:14:28Z</time>
      </trkpt>
      <trkpt lat="49.89614" lon="2.4593">
        <ele>36.5</ele>
        <time>2022-10-19T13:14:29Z</time>
      </trkpt>
      <trkpt lat="49.89615" lon="2.45931">
        <ele>36.5</ele>
        <time>2022-10-19T13:14:30Z</time>
      </trkpt>
      <trkpt lat="49.89617" lon="2.45931">
        <ele>36.5</ele>
        <time>2022-10-19T13:14:31Z</time>
      </trkpt>
      <trkpt lat="49.89618" lon="2.45931">
        <ele>36.5</ele>
        <time>2022-10-19T13:14:32Z</time>
      </trkpt>
      <trkpt lat="49.8962" lon="2.45931">
        <ele>36.5</ele>
        <time>2022-10-19T13:14:33Z</time>
      </trkpt>
      <trkpt lat="49.89623" lon="2.4593">
        <ele>36.5</ele>
        <time>2022-10-19T13:14:35Z</time>
      </trkpt>
      <trkpt lat="49.89624" lon="2.45929">
        <ele>36.5</ele>
        <time>2022-10-19T13:14:36Z</time>
      </trkpt>
      <trkpt lat="49.89626" lon="2.45929">
        <ele>36.5</ele>
        <time>2022-10-19T13:14:37Z</time>
      </trkpt>
      <trkpt lat="49.89627" lon="2.45929">
        <ele>36.5</ele>
        <time>2022-10-19T13:14:38Z</time>
      </trkpt>
      <trkpt lat="49.89628" lon="2.45928">
        <ele>36.5</ele>
        <time>2022-10-19T13:14:39Z</time>
      </trkpt>
      <trkpt lat="49.89629" lon="2.45928">
        <ele>36.5</ele>
        <time>2022-10-19T13:14:40Z</time>
      </trkpt>
      <trkpt lat="49.89631" lon="2.45928">
        <ele>36.5</ele>
        <time>2022-10-19T13:14:41Z</time>
      </trkpt>
      <trkpt lat="49.89632" lon="2.45928">
        <ele>36.5</ele>
        <time>2022-10-19T13:14:42Z</time>
      </trkpt>
      <trkpt lat="49.89634" lon="2.45928">
        <ele>36.5</ele>
        <time>2022-10-19T13:14:44Z</time>
      </trkpt>
      <trkpt lat="49.89635" lon="2.45927">
        <ele>36.5</ele>
        <time>2022-10-19T13:14:45Z</time>
      </trkpt>
      <trkpt lat="49.89637" lon="2.45926">
        <ele>36.4</ele>
        <time>2022-10-19T13:14:46Z</time>
      </trkpt>
      <trkpt lat="49.89638" lon="2.45926">
        <ele>36.4</ele>
        <time>2022-10-19T13:14:47Z</time>
      </trkpt>
      <trkpt lat="49.89639" lon="2.45926">
        <ele>36.4</ele>
        <time>2022-10-19T13:14:48Z</time>
      </trkpt>
      <trkpt lat="49.8964" lon="2.45925">
        <ele>36.4</ele>
        <time>2022-10-19T13:14:49Z</time>
      </trkpt>
      <trkpt lat="49.89642" lon="2.45924">
        <ele>36.4</ele>
        <time>2022-10-19T13:14:50Z</time>
      </trkpt>
      <trkpt lat="49.89643" lon="2.45924">
        <ele>36.3</ele>
        <time>2022-10-19T13:14:51Z</time>
      </trkpt>
      <trkpt lat="49.89645" lon="2.45924">
        <ele>36.3</ele>
        <time>2022-10-19T13:14:53Z</time>
      </trkpt>
      <trkpt lat="49.89646" lon="2.45923">
        <ele>36.3</ele>
        <time>2022-10-19T13:14:54Z</time>
      </trkpt>
      <trkpt lat="49.89647" lon="2.45923">
        <ele>36.3</ele>
        <time>2022-10-19T13:14:55Z</time>
      </trkpt>
      <trkpt lat="49.89649" lon="2.45922">
        <ele>36.3</ele>
        <time>2022-10-19T13:14:56Z</time>
      </trkpt>
      <trkpt lat="49.89649" lon="2.45922">
        <ele>36.3</ele>
        <time>2022-10-19T13:14:57Z</time>
      </trkpt>
      <trkpt lat="49.89651" lon="2.45922">
        <ele>36.2</ele>
        <time>2022-10-19T13:14:58Z</time>
      </trkpt>
      <trkpt lat="49.89652" lon="2.45922">
        <ele>36.2</ele>
        <time>2022-10-19T13:14:59Z</time>
      </trkpt>
      <trkpt lat="49.89653" lon="2.45922">
        <ele>36.2</ele>
        <time>2022-10-19T13:15:00Z</time>
      </trkpt>
      <trkpt lat="49.89654" lon="2.45921">
        <ele>36.2</ele>
        <time>2022-10-19T13:15:01Z</time>
      </trkpt>
      <trkpt lat="49.89655" lon="2.45921">
        <ele>36.2</ele>
        <time>2022-10-19T13:15:02Z</time>
      </trkpt>
      <trkpt lat="49.89656" lon="2.4592">
        <ele>36.2</ele>
        <time>2022-10-19T13:15:04Z</time>
      </trkpt>
      <trkpt lat="49.89658" lon="2.4592">
        <ele>36.2</ele>
        <time>2022-10-19T13:15:05Z</time>
      </trkpt>
      <trkpt lat="49.89659" lon="2.4592">
        <ele>36.1</ele>
        <time>2022-10-19T13:15:06Z</time>
      </trkpt>
      <trkpt lat="49.8966" lon="2.4592">
        <ele>36.1</ele>
        <time>2022-10-19T13:15:07Z</time>
      </trkpt>
      <trkpt lat="49.89662" lon="2.45919">
        <ele>36.1</ele>
        <time>2022-10-19T13:15:08Z</time>
      </trkpt>
      <trkpt lat="49.89663" lon="2.45919">
        <ele>36.1</ele>
        <time>2022-10-19T13:15:09Z</time>
      </trkpt>
      <trkpt lat="49.89664" lon="2.45919">
        <ele>36</ele>
        <time>2022-10-19T13:15:10Z</time>
      </trkpt>
      <trkpt lat="49.89666" lon="2.45918">
        <ele>36</ele>
        <time>2022-10-19T13:15:11Z</time>
      </trkpt>
      <trkpt lat="49.89667" lon="2.45917">
        <ele>36</ele>
        <time>2022-10-19T13:15:12Z</time>
      </trkpt>
      <trkpt lat="49.89668" lon="2.45917">
        <ele>36</ele>
        <time>2022-10-19T13:15:13Z</time>
      </trkpt>
      <trkpt lat="49.8967" lon="2.45916">
        <ele>35.9</ele>
        <time>2022-10-19T13:15:14Z</time>
      </trkpt>
      <trkpt lat="49.89671" lon="2.45916">
        <ele>35.9</ele>
        <time>2022-10-19T13:15:16Z</time>
      </trkpt>
      <trkpt lat="49.89672" lon="2.45915">
        <ele>35.9</ele>
        <time>2022-10-19T13:15:17Z</time>
      </trkpt>
      <trkpt lat="49.89673" lon="2.45914">
        <ele>35.9</ele>
        <time>2022-10-19T13:15:18Z</time>
      </trkpt>
      <trkpt lat="49.89674" lon="2.45914">
        <ele>35.8</ele>
        <time>2022-10-19T13:15:19Z</time>
      </trkpt>
      <trkpt lat="49.89676" lon="2.45914">
        <ele>35.8</ele>
        <time>2022-10-19T13:15:20Z</time>
      </trkpt>
      <trkpt lat="49.89678" lon="2.45913">
        <ele>35.8</ele>
        <time>2022-10-19T13:15:21Z</time>
      </trkpt>
      <trkpt lat="49.89679" lon="2.45913">
        <ele>35.8</ele>
        <time>2022-10-19T13:15:22Z</time>
      </trkpt>
      <trkpt lat="49.8968" lon="2.45912">
        <ele>35.7</ele>
        <time>2022-10-19T13:15:23Z</time>
      </trkpt>
      <trkpt lat="49.89681" lon="2.45912">
        <ele>35.7</ele>
        <time>2022-10-19T13:15:24Z</time>
      </trkpt>
      <trkpt lat="49.89682" lon="2.45912">
        <ele>35.7</ele>
        <time>2022-10-19T13:15:25Z</time>
      </trkpt>
      <trkpt lat="49.89683" lon="2.45912">
        <ele>35.7</ele>
        <time>2022-10-19T13:15:27Z</time>
      </trkpt>
      <trkpt lat="49.89684" lon="2.45911">
        <ele>35.7</ele>
        <time>2022-10-19T13:15:28Z</time>
      </trkpt>
      <trkpt lat="49.89685" lon="2.45911">
        <ele>35.6</ele>
        <time>2022-10-19T13:15:29Z</time>
      </trkpt>
      <trkpt lat="49.89686" lon="2.45911">
        <ele>35.6</ele>
        <time>2022-10-19T13:15:30Z</time>
      </trkpt>
      <trkpt lat="49.89688" lon="2.4591">
        <ele>35.6</ele>
        <time>2022-10-19T13:15:31Z</time>
      </trkpt>
      <trkpt lat="49.89689" lon="2.4591">
        <ele>35.6</ele>
        <time>2022-10-19T13:15:32Z</time>
      </trkpt>
      <trkpt lat="49.8969" lon="2.45909">
        <ele>35.6</ele>
        <time>2022-10-19T13:15:33Z</time>
      </trkpt>
      <trkpt lat="49.89691" lon="2.45909">
        <ele>35.6</ele>
        <time>2022-10-19T13:15:34Z</time>
      </trkpt>
      <trkpt lat="49.89692" lon="2.45908">
        <ele>35.5</ele>
        <time>2022-10-19T13:15:35Z</time>
      </trkpt>
      <trkpt lat="49.89694" lon="2.45908">
        <ele>35.5</ele>
        <time>2022-10-19T13:15:36Z</time>
      </trkpt>
      <trkpt lat="49.89695" lon="2.45907">
        <ele>35.5</ele>
        <time>2022-10-19T13:15:38Z</time>
      </trkpt>
      <trkpt lat="49.89696" lon="2.45907">
        <ele>35.5</ele>
        <time>2022-10-19T13:15:39Z</time>
      </trkpt>
      <trkpt lat="49.89698" lon="2.45906">
        <ele>35.5</ele>
        <time>2022-10-19T13:15:40Z</time>
      </trkpt>
      <trkpt lat="49.89698" lon="2.45906">
        <ele>35.5</ele>
        <time>2022-10-19T13:15:41Z</time>
      </trkpt>
      <trkpt lat="49.89699" lon="2.45905">
        <ele>35.5</ele>
        <time>2022-10-19T13:15:42Z</time>
      </trkpt>
      <trkpt lat="49.89701" lon="2.45904">
        <ele>35.4</ele>
        <time>2022-10-19T13:15:43Z</time>
      </trkpt>
      <trkpt lat="49.89702" lon="2.45904">
        <ele>35.4</ele>
        <time>2022-10-19T13:15:44Z</time>
      </trkpt>
      <trkpt lat="49.89703" lon="2.45904">
        <ele>35.4</ele>
        <time>2022-10-19T13:15:45Z</time>
      </trkpt>
      <trkpt lat="49.89705" lon="2.45903">
        <ele>35.4</ele>
        <time>2022-10-19T13:15:46Z</time>
      </trkpt>
      <trkpt lat="49.89706" lon="2.45903">
        <ele>35.4</ele>
        <time>2022-10-19T13:15:47Z</time>
      </trkpt>
      <trkpt lat="49.89707" lon="2.45903">
        <ele>35.4</ele>
        <time>2022-10-19T13:15:48Z</time>
      </trkpt>
      <trkpt lat="49.89708" lon="2.45902">
        <ele>35.4</ele>
        <time>2022-10-19T13:15:49Z</time>
      </trkpt>
      <trkpt lat="49.8971" lon="2.45902">
        <ele>35.3</ele>
        <time>2022-10-19T13:15:51Z</time>
      </trkpt>
      <trkpt lat="49.89711" lon="2.45901">
        <ele>35.3</ele>
        <time>2022-10-19T13:15:52Z</time>
      </trkpt>
      <trkpt lat="49.89712" lon="2.45901">
        <ele>35.3</ele>
        <time>2022-10-19T13:15:53Z</time>
      </trkpt>
      <trkpt lat="49.89713" lon="2.45901">
        <ele>35.3</ele>
        <time>2022-10-19T13:15:54Z</time>
      </trkpt>
      <trkpt lat="49.89714" lon="2.459">
        <ele>35.3</ele>
        <time>2022-10-19T13:15:55Z</time>
      </trkpt>
      <trkpt lat="49.89716" lon="2.459">
        <ele>35.3</ele>
        <time>2022-10-19T13:15:56Z</time>
      </trkpt>
      <trkpt lat="49.89717" lon="2.459">
        <ele>35.3</ele>
        <time>2022-10-19T13:15:57Z</time>
      </trkpt>
      <trkpt lat="49.89719" lon="2.45899">
        <ele>35.2</ele>
        <time>2022-10-19T13:15:58Z</time>
      </trkpt>
      <trkpt lat="49.8972" lon="2.45899">
        <ele>35.2</ele>
        <time>2022-10-19T13:15:59Z</time>
      </trkpt>
      <trkpt lat="49.89721" lon="2.45899">
        <ele>35.2</ele>
        <time>2022-10-19T13:16:00Z</time>
      </trkpt>
      <trkpt lat="49.89723" lon="2.45898">
        <ele>35.2</ele>
        <time>2022-10-19T13:16:02Z</time>
      </trkpt>
      <trkpt lat="49.89724" lon="2.45898">
        <ele>35.2</ele>
        <time>2022-10-19T13:16:03Z</time>
      </trkpt>
      <trkpt lat="49.89725" lon="2.45897">
        <ele>35.2</ele>
        <time>2022-10-19T13:16:04Z</time>
      </trkpt>
      <trkpt lat="49.89726" lon="2.45897">
        <ele>35.2</ele>
        <time>2022-10-19T13:16:05Z</time>
      </trkpt>
      <trkpt lat="49.89727" lon="2.45897">
        <ele>35.1</ele>
        <time>2022-10-19T13:16:06Z</time>
      </trkpt>
      <trkpt lat="49.89728" lon="2.45896">
        <ele>35.1</ele>
        <time>2022-10-19T13:16:07Z</time>
      </trkpt>
      <trkpt lat="49.89729" lon="2.45896">
        <ele>35.1</ele>
        <time>2022-10-19T13:16:08Z</time>
      </trkpt>
      <trkpt lat="49.8973" lon="2.45896">
        <ele>35.1</ele>
        <time>2022-10-19T13:16:09Z</time>
      </trkpt>
      <trkpt lat="49.89732" lon="2.45895">
        <ele>35.1</ele>
        <time>2022-10-19T13:16:10Z</time>
      </trkpt>
      <trkpt lat="49.89733" lon="2.45895">
        <ele>35.1</ele>
        <time>2022-10-19T13:16:11Z</time>
      </trkpt>
      <trkpt lat="49.89734" lon="2.45894">
        <ele>35.1</ele>
        <time>2022-10-19T13:16:13Z</time>
      </trkpt>
      <trkpt lat="49.89735" lon="2.45894">
        <ele>35</ele>
        <time>2022-10-19T13:16:14Z</time>
      </trkpt>
      <trkpt lat="49.89736" lon="2.45894">
        <ele>35</ele>
        <time>2022-10-19T13:16:15Z</time>
      </trkpt>
      <trkpt lat="49.89738" lon="2.45893">
        <ele>35</ele>
        <time>2022-10-19T13:16:16Z</time>
      </trkpt>
      <trkpt lat="49.89739" lon="2.45893">
        <ele>35</ele>
        <time>2022-10-19T13:16:17Z</time>
      </trkpt>
      <trkpt lat="49.8974" lon="2.45893">
        <ele>35</ele>
        <time>2022-10-19T13:16:18Z</time>
      </trkpt>
      <trkpt lat="49.89742" lon="2.45893">
        <ele>35</ele>
        <time>2022-10-19T13:16:19Z</time>
      </trkpt>
      <trkpt lat="49.89743" lon="2.45892">
        <ele>35</ele>
        <time>2022-10-19T13:16:20Z</time>
      </trkpt>
      <trkpt lat="49.89744" lon="2.45892">
        <ele>34.9</ele>
        <time>2022-10-19T13:16:21Z</time>
      </trkpt>
      <trkpt lat="49.89745" lon="2.45891">
        <ele>34.9</ele>
        <time>2022-10-19T13:16:22Z</time>
      </trkpt>
      <trkpt lat="49.89747" lon="2.45891">
        <ele>34.9</ele>
        <time>2022-10-19T13:16:24Z</time>
      </trkpt>
      <trkpt lat="49.89748" lon="2.4589">
        <ele>34.9</ele>
        <time>2022-10-19T13:16:25Z</time>
      </trkpt>
      <trkpt lat="49.89749" lon="2.4589">
        <ele>34.9</ele>
        <time>2022-10-19T13:16:26Z</time>
      </trkpt>
      <trkpt lat="49.8975" lon="2.4589">
        <ele>34.9</ele>
        <time>2022-10-19T13:16:27Z</time>
      </trkpt>
      <trkpt lat="49.89752" lon="2.45889">
        <ele>34.8</ele>
        <time>2022-10-19T13:16:28Z</time>
      </trkpt>
      <trkpt lat="49.89753" lon="2.45889">
        <ele>34.8</ele>
        <time>2022-10-19T13:16:30Z</time>
      </trkpt>
      <trkpt lat="49.89754" lon="2.45889">
        <ele>34.8</ele>
        <time>2022-10-19T13:16:31Z</time>
      </trkpt>
      <trkpt lat="49.89756" lon="2.45889">
        <ele>34.8</ele>
        <time>2022-10-19T13:16:32Z</time>
      </trkpt>
      <trkpt lat="49.89756" lon="2.45889">
        <ele>34.8</ele>
        <time>2022-10-19T13:16:33Z</time>
      </trkpt>
      <trkpt lat="49.89757" lon="2.45888">
        <ele>34.8</ele>
        <time>2022-10-19T13:16:34Z</time>
      </trkpt>
      <trkpt lat="49.89759" lon="2.45888">
        <ele>34.7</ele>
        <time>2022-10-19T13:16:35Z</time>
      </trkpt>
      <trkpt lat="49.8976" lon="2.45888">
        <ele>34.7</ele>
        <time>2022-10-19T13:16:36Z</time>
      </trkpt>
      <trkpt lat="49.89761" lon="2.45888">
        <ele>34.7</ele>
        <time>2022-10-19T13:16:37Z</time>
      </trkpt>
      <trkpt lat="49.89762" lon="2.45888">
        <ele>34.7</ele>
        <time>2022-10-19T13:16:38Z</time>
      </trkpt>
      <trkpt lat="49.89763" lon="2.45888">
        <ele>34.7</ele>
        <time>2022-10-19T13:16:39Z</time>
      </trkpt>
      <trkpt lat="49.89765" lon="2.45888">
        <ele>34.7</ele>
        <time>2022-10-19T13:16:41Z</time>
      </trkpt>
      <trkpt lat="49.89766" lon="2.45888">
        <ele>34.7</ele>
        <time>2022-10-19T13:16:42Z</time>
      </trkpt>
      <trkpt lat="49.89768" lon="2.45888">
        <ele>34.6</ele>
        <time>2022-10-19T13:16:43Z</time>
      </trkpt>
      <trkpt lat="49.89769" lon="2.45887">
        <ele>34.6</ele>
        <time>2022-10-19T13:16:44Z</time>
      </trkpt>
      <trkpt lat="49.8977" lon="2.45887">
        <ele>34.6</ele>
        <time>2022-10-19T13:16:45Z</time>
      </trkpt>
      <trkpt lat="49.89772" lon="2.45887">
        <ele>34.6</ele>
        <time>2022-10-19T13:16:46Z</time>
      </trkpt>
      <trkpt lat="49.89773" lon="2.45887">
        <ele>34.6</ele>
        <time>2022-10-19T13:16:47Z</time>
      </trkpt>
      <trkpt lat="49.89774" lon="2.45886">
        <ele>34.6</ele>
        <time>2022-10-19T13:16:48Z</time>
      </trkpt>
      <trkpt lat="49.89776" lon="2.45886">
        <ele>34.5</ele>
        <time>2022-10-19T13:16:49Z</time>
      </trkpt>
      <trkpt lat="49.89777" lon="2.45886">
        <ele>34.5</ele>
        <time>2022-10-19T13:16:51Z</time>
      </trkpt>
      <trkpt lat="49.89778" lon="2.45886">
        <ele>34.5</ele>
        <time>2022-10-19T13:16:52Z</time>
      </trkpt>
      <trkpt lat="49.89779" lon="2.45886">
        <ele>34.5</ele>
        <time>2022-10-19T13:16:53Z</time>
      </trkpt>
      <trkpt lat="49.8978" lon="2.45886">
        <ele>34.5</ele>
        <time>2022-10-19T13:16:54Z</time>
      </trkpt>
      <trkpt lat="49.89781" lon="2.45886">
        <ele>34.5</ele>
        <time>2022-10-19T13:16:55Z</time>
      </trkpt>
      <trkpt lat="49.89783" lon="2.45885">
        <ele>34.5</ele>
        <time>2022-10-19T13:16:56Z</time>
      </trkpt>
      <trkpt lat="49.89784" lon="2.45885">
        <ele>34.4</ele>
        <time>2022-10-19T13:16:58Z</time>
      </trkpt>
      <trkpt lat="49.89785" lon="2.45885">
        <ele>34.4</ele>
        <time>2022-10-19T13:16:59Z</time>
      </trkpt>
      <trkpt lat="49.89786" lon="2.45885">
        <ele>34.4</ele>
        <time>2022-10-19T13:17:00Z</time>
      </trkpt>
      <trkpt lat="49.89787" lon="2.45885">
        <ele>34.4</ele>
        <time>2022-10-19T13:17:01Z</time>
      </trkpt>
      <trkpt lat="49.89788" lon="2.45885">
        <ele>34.4</ele>
        <time>2022-10-19T13:17:02Z</time>
      </trkpt>
      <trkpt lat="49.89789" lon="2.45885">
        <ele>34.4</ele>
        <time>2022-10-19T13:17:03Z</time>
      </trkpt>
      <trkpt lat="49.8979" lon="2.45885">
        <ele>34.4</ele>
        <time>2022-10-19T13:17:04Z</time>
      </trkpt>
      <trkpt lat="49.89791" lon="2.45885">
        <ele>34.4</ele>
        <time>2022-10-19T13:17:05Z</time>
      </trkpt>
      <trkpt lat="49.89792" lon="2.45885">
        <ele>34.3</ele>
        <time>2022-10-19T13:17:06Z</time>
      </trkpt>
      <trkpt lat="49.89792" lon="2.45884">
        <ele>34.3</ele>
        <time>2022-10-19T13:17:07Z</time>
      </trkpt>
      <trkpt lat="49.89793" lon="2.45884">
        <ele>34.3</ele>
        <time>2022-10-19T13:17:08Z</time>
      </trkpt>
      <trkpt lat="49.89794" lon="2.45884">
        <ele>34.3</ele>
        <time>2022-10-19T13:17:10Z</time>
      </trkpt>
      <trkpt lat="49.89795" lon="2.45884">
        <ele>34.3</ele>
        <time>2022-10-19T13:17:11Z</time>
      </trkpt>
      <trkpt lat="49.89796" lon="2.45884">
        <ele>34.3</ele>
        <time>2022-10-19T13:17:12Z</time>
      </trkpt>
      <trkpt lat="49.89796" lon="2.45884">
        <ele>34.3</ele>
        <time>2022-10-19T13:17:13Z</time>
      </trkpt>
      <trkpt lat="49.89797" lon="2.45884">
        <ele>34.3</ele>
        <time>2022-10-19T13:17:14Z</time>
      </trkpt>
      <trkpt lat="49.89798" lon="2.45883">
        <ele>34.2</ele>
        <time>2022-10-19T13:17:15Z</time>
      </trkpt>
      <trkpt lat="49.89798" lon="2.45882">
        <ele>34.2</ele>
        <time>2022-10-19T13:17:16Z</time>
      </trkpt>
      <trkpt lat="49.89799" lon="2.45882">
        <ele>34.2</ele>
        <time>2022-10-19T13:17:18Z</time>
      </trkpt>
      <trkpt lat="49.898" lon="2.45881">
        <ele>34.2</ele>
        <time>2022-10-19T13:17:19Z</time>
      </trkpt>
      <trkpt lat="49.89801" lon="2.45881">
        <ele>34.2</ele>
        <time>2022-10-19T13:17:21Z</time>
      </trkpt>
      <trkpt lat="49.89802" lon="2.45882">
        <ele>34.2</ele>
        <time>2022-10-19T13:17:22Z</time>
      </trkpt>
      <trkpt lat="49.89802" lon="2.45882">
        <ele>34.2</ele>
        <time>2022-10-19T13:17:23Z</time>
      </trkpt>
      <trkpt lat="49.89802" lon="2.45883">
        <ele>34.2</ele>
        <time>2022-10-19T13:17:24Z</time>
      </trkpt>
      <trkpt lat="49.89803" lon="2.45883">
        <ele>34.1</ele>
        <time>2022-10-19T13:17:26Z</time>
      </trkpt>
      <trkpt lat="49.89804" lon="2.45882">
        <ele>34.1</ele>
        <time>2022-10-19T13:17:27Z</time>
      </trkpt>
      <trkpt lat="49.89805" lon="2.45882">
        <ele>34.1</ele>
        <time>2022-10-19T13:17:28Z</time>
      </trkpt>
      <trkpt lat="49.89805" lon="2.45882">
        <ele>34.1</ele>
        <time>2022-10-19T13:17:29Z</time>
      </trkpt>
      <trkpt lat="49.89806" lon="2.45882">
        <ele>34.1</ele>
        <time>2022-10-19T13:17:30Z</time>
      </trkpt>
      <trkpt lat="49.89806" lon="2.45881">
        <ele>34.1</ele>
        <time>2022-10-19T13:17:31Z</time>
      </trkpt>
      <trkpt lat="49.89806" lon="2.45881">
        <ele>34.1</ele>
        <time>2022-10-19T13:17:32Z</time>
      </trkpt>
      <trkpt lat="49.89806" lon="2.45881">
        <ele>34.1</ele>
        <time>2022-10-19T13:17:33Z</time>
      </trkpt>
      <trkpt lat="49.89806" lon="2.45881">
        <ele>34.1</ele>
        <time>2022-10-19T13:17:34Z</time>
      </trkpt>
      <trkpt lat="49.89805" lon="2.45881">
        <ele>34.1</ele>
        <time>2022-10-19T13:17:36Z</time>
      </trkpt>
      <trkpt lat="49.89805" lon="2.4588">
        <ele>34.1</ele>
        <time>2022-10-19T13:17:37Z</time>
      </trkpt>
      <trkpt lat="49.89805" lon="2.4588">
        <ele>34.1</ele>
        <time>2022-10-19T13:17:38Z</time>
      </trkpt>
      <trkpt lat="49.89805" lon="2.4588">
        <ele>34.1</ele>
        <time>2022-10-19T13:17:39Z</time>
      </trkpt>
      <trkpt lat="49.89805" lon="2.4588">
        <ele>34</ele>
        <time>2022-10-19T13:17:40Z</time>
      </trkpt>
      <trkpt lat="49.89805" lon="2.45879">
        <ele>34</ele>
        <time>2022-10-19T13:17:41Z</time>
      </trkpt>
      <trkpt lat="49.89804" lon="2.45879">
        <ele>34</ele>
        <time>2022-10-19T13:17:42Z</time>
      </trkpt>
      <trkpt lat="49.89804" lon="2.45879">
        <ele>34</ele>
        <time>2022-10-19T13:17:43Z</time>
      </trkpt>
      <trkpt lat="49.89804" lon="2.45879">
        <ele>34</ele>
        <time>2022-10-19T13:17:44Z</time>
      </trkpt>
      <trkpt lat="49.89804" lon="2.45879">
        <ele>34</ele>
        <time>2022-10-19T13:17:45Z</time>
      </trkpt>
      <trkpt lat="49.89804" lon="2.45879">
        <ele>34</ele>
        <time>2022-10-19T13:17:46Z</time>
      </trkpt>
      <trkpt lat="49.89803" lon="2.45879">
        <ele>34</ele>
        <time>2022-10-19T13:17:47Z</time>
      </trkpt>
      <trkpt lat="49.89803" lon="2.45879">
        <ele>34</ele>
        <time>2022-10-19T13:17:48Z</time>
      </trkpt>
      <trkpt lat="49.89803" lon="2.45879">
        <ele>34</ele>
        <time>2022-10-19T13:17:49Z</time>
      </trkpt>
      <trkpt lat="49.89803" lon="2.45879">
        <ele>34</ele>
        <time>2022-10-19T13:17:50Z</time>
      </trkpt>
      <trkpt lat="49.89803" lon="2.45879">
        <ele>34</ele>
        <time>2022-10-19T13:17:51Z</time>
      </trkpt>
      <trkpt lat="49.89803" lon="2.45879">
        <ele>34</ele>
        <time>2022-10-19T13:17:52Z</time>
      </trkpt>
      <trkpt lat="49.89803" lon="2.45879">
        <ele>34</ele>
        <time>2022-10-19T13:17:53Z</time>
      </trkpt>
      <trkpt lat="49.89803" lon="2.45879">
        <ele>34</ele>
        <time>2022-10-19T13:17:54Z</time>
      </trkpt>
      <trkpt lat="49.89802" lon="2.45879">
        <ele>34</ele>
        <time>2022-10-19T13:17:55Z</time>
      </trkpt>
      <trkpt lat="49.89802" lon="2.45879">
        <ele>34</ele>
        <time>2022-10-19T13:17:56Z</time>
      </trkpt>
      <trkpt lat="49.89802" lon="2.4588">
        <ele>34</ele>
        <time>2022-10-19T13:17:57Z</time>
      </trkpt>
      <trkpt lat="49.89802" lon="2.4588">
        <ele>34</ele>
        <time>2022-10-19T13:17:58Z</time>
      </trkpt>
      <trkpt lat="49.89802" lon="2.4588">
        <ele>34</ele>
        <time>2022-10-19T13:17:59Z</time>
      </trkpt>
      <trkpt lat="49.89802" lon="2.4588">
        <ele>34</ele>
        <time>2022-10-19T13:18:00Z</time>
      </trkpt>
      <trkpt lat="49.89802" lon="2.4588">
        <ele>34</ele>
        <time>2022-10-19T13:18:01Z</time>
      </trkpt>
      <trkpt lat="49.89802" lon="2.4588">
        <ele>34</ele>
        <time>2022-10-19T13:18:02Z</time>
      </trkpt>
      <trkpt lat="49.89802" lon="2.4588">
        <ele>34</ele>
        <time>2022-10-19T13:18:03Z</time>
      </trkpt>
      <trkpt lat="49.89802" lon="2.4588">
        <ele>34</ele>
        <time>2022-10-19T13:18:04Z</time>
      </trkpt>
      <trkpt lat="49.89801" lon="2.4588">
        <ele>34</ele>
        <time>2022-10-19T13:18:05Z</time>
      </trkpt>
      <trkpt lat="49.89801" lon="2.4588">
        <ele>34</ele>
        <time>2022-10-19T13:18:06Z</time>
      </trkpt>
      <trkpt lat="49.89801" lon="2.4588">
        <ele>34</ele>
        <time>2022-10-19T13:18:07Z</time>
      </trkpt>
      <trkpt lat="49.89801" lon="2.4588">
        <ele>34</ele>
        <time>2022-10-19T13:18:08Z</time>
      </trkpt>
      <trkpt lat="49.89801" lon="2.4588">
        <ele>34</ele>
        <time>2022-10-19T13:18:09Z</time>
      </trkpt>
      <trkpt lat="49.89801" lon="2.4588">
        <ele>34</ele>
        <time>2022-10-19T13:18:10Z</time>
      </trkpt>
      <trkpt lat="49.89801" lon="2.4588">
        <ele>34</ele>
        <time>2022-10-19T13:18:11Z</time>
      </trkpt>
      <trkpt lat="49.89801" lon="2.4588">
        <ele>34</ele>
        <time>2022-10-19T13:18:12Z</time>
      </trkpt>
      <trkpt lat="49.89801" lon="2.45881">
        <ele>34</ele>
        <time>2022-10-19T13:18:13Z</time>
      </trkpt>
      <trkpt lat="49.898" lon="2.45881">
        <ele>34</ele>
        <time>2022-10-19T13:18:14Z</time>
      </trkpt>
      <trkpt lat="49.898" lon="2.45881">
        <ele>33.9</ele>
        <time>2022-10-19T13:18:15Z</time>
      </trkpt>
      <trkpt lat="49.898" lon="2.45881">
        <ele>33.9</ele>
        <time>2022-10-19T13:18:16Z</time>
      </trkpt>
      <trkpt lat="49.898" lon="2.45881">
        <ele>33.9</ele>
        <time>2022-10-19T13:18:17Z</time>
      </trkpt>
      <trkpt lat="49.898" lon="2.45881">
        <ele>33.9</ele>
        <time>2022-10-19T13:18:18Z</time>
      </trkpt>
      <trkpt lat="49.898" lon="2.45881">
        <ele>33.9</ele>
        <time>2022-10-19T13:18:19Z</time>
      </trkpt>
      <trkpt lat="49.898" lon="2.45881">
        <ele>33.9</ele>
        <time>2022-10-19T13:18:20Z</time>
      </trkpt>
      <trkpt lat="49.898" lon="2.45881">
        <ele>33.9</ele>
        <time>2022-10-19T13:18:21Z</time>
      </trkpt>
      <trkpt lat="49.898" lon="2.45881">
        <ele>33.9</ele>
        <time>2022-10-19T13:18:22Z</time>
      </trkpt>
      <trkpt lat="49.898" lon="2.45881">
        <ele>33.9</ele>
        <time>2022-10-19T13:18:23Z</time>
      </trkpt>
      <trkpt lat="49.89799" lon="2.45881">
        <ele>33.9</ele>
        <time>2022-10-19T13:18:24Z</time>
      </trkpt>
      <trkpt lat="49.89799" lon="2.45881">
        <ele>33.9</ele>
        <time>2022-10-19T13:18:25Z</time>
      </trkpt>
      <trkpt lat="49.89799" lon="2.45881">
        <ele>33.9</ele>
        <time>2022-10-19T13:18:26Z</time>
      </trkpt>
      <trkpt lat="49.89799" lon="2.45881">
        <ele>33.9</ele>
        <time>2022-10-19T13:18:27Z</time>
      </trkpt>
      <trkpt lat="49.89797" lon="2.45883">
        <ele>33.9</ele>
        <time>2022-10-19T13:18:28Z</time>
      </trkpt>
      <trkpt lat="49.89797" lon="2.45883">
        <ele>33.9</ele>
        <time>2022-10-19T13:18:29Z</time>
      </trkpt>
      <trkpt lat="49.89796" lon="2.45883">
        <ele>33.9</ele>
        <time>2022-10-19T13:18:30Z</time>
      </trkpt>
      <trkpt lat="49.89796" lon="2.45883">
        <ele>33.9</ele>
        <time>2022-10-19T13:18:31Z</time>
      </trkpt>
      <trkpt lat="49.89796" lon="2.45883">
        <ele>33.9</ele>
        <time>2022-10-19T13:18:32Z</time>
      </trkpt>
      <trkpt lat="49.89796" lon="2.45883">
        <ele>33.9</ele>
        <time>2022-10-19T13:18:33Z</time>
      </trkpt>
      <trkpt lat="49.89796" lon="2.45883">
        <ele>33.9</ele>
        <time>2022-10-19T13:18:34Z</time>
      </trkpt>
      <trkpt lat="49.89796" lon="2.45883">
        <ele>33.9</ele>
        <time>2022-10-19T13:18:35Z</time>
      </trkpt>
      <trkpt lat="49.89796" lon="2.45883">
        <ele>33.9</ele>
        <time>2022-10-19T13:18:36Z</time>
      </trkpt>
      <trkpt lat="49.89796" lon="2.45883">
        <ele>33.9</ele>
        <time>2022-10-19T13:18:37Z</time>
      </trkpt>
      <trkpt lat="49.89796" lon="2.45883">
        <ele>33.9</ele>
        <time>2022-10-19T13:18:38Z</time>
      </trkpt>
      <trkpt lat="49.89796" lon="2.45883">
        <ele>33.9</ele>
        <time>2022-10-19T13:18:39Z</time>
      </trkpt>
      <trkpt lat="49.89796" lon="2.45883">
        <ele>33.9</ele>
        <time>2022-10-19T13:18:40Z</time>
      </trkpt>
      <trkpt lat="49.89796" lon="2.45883">
        <ele>33.9</ele>
        <time>2022-10-19T13:18:41Z</time>
      </trkpt>
      <trkpt lat="49.89796" lon="2.45883">
        <ele>33.9</ele>
        <time>2022-10-19T13:18:42Z</time>
      </trkpt>
      <trkpt lat="49.89796" lon="2.45883">
        <ele>33.9</ele>
        <time>2022-10-19T13:18:43Z</time>
      </trkpt>
      <trkpt lat="49.89796" lon="2.45883">
        <ele>33.9</ele>
        <time>2022-10-19T13:18:44Z</time>
      </trkpt>
      <trkpt lat="49.89796" lon="2.45883">
        <ele>33.9</ele>
        <time>2022-10-19T13:18:45Z</time>
      </trkpt>
      <trkpt lat="49.89796" lon="2.45883">
        <ele>33.9</ele>
        <time>2022-10-19T13:18:46Z</time>
      </trkpt>
      <trkpt lat="49.89796" lon="2.45883">
        <ele>33.9</ele>
        <time>2022-10-19T13:18:47Z</time>
      </trkpt>
      <trkpt lat="49.89796" lon="2.45883">
        <ele>33.9</ele>
        <time>2022-10-19T13:18:48Z</time>
      </trkpt>
      <trkpt lat="49.89796" lon="2.45883">
        <ele>33.9</ele>
        <time>2022-10-19T13:18:49Z</time>
      </trkpt>
      <trkpt lat="49.89796" lon="2.45883">
        <ele>33.9</ele>
        <time>2022-10-19T13:18:50Z</time>
      </trkpt>
      <trkpt lat="49.89796" lon="2.45883">
        <ele>33.9</ele>
        <time>2022-10-19T13:18:51Z</time>
      </trkpt>
      <trkpt lat="49.89796" lon="2.45883">
        <ele>33.9</ele>
        <time>2022-10-19T13:18:52Z</time>
      </trkpt>
      <trkpt lat="49.89796" lon="2.45883">
        <ele>33.9</ele>
        <time>2022-10-19T13:18:53Z</time>
      </trkpt>
      <trkpt lat="49.89796" lon="2.45883">
        <ele>33.9</ele>
        <time>2022-10-19T13:18:54Z</time>
      </trkpt>
      <trkpt lat="49.89796" lon="2.45883">
        <ele>33.9</ele>
        <time>2022-10-19T13:18:55Z</time>
      </trkpt>
      <trkpt lat="49.89796" lon="2.45883">
        <ele>33.9</ele>
        <time>2022-10-19T13:18:56Z</time>
      </trkpt>
      <trkpt lat="49.89796" lon="2.45883">
        <ele>33.9</ele>
        <time>2022-10-19T13:18:57Z</time>
      </trkpt>
      <trkpt lat="49.89796" lon="2.45883">
        <ele>33.9</ele>
        <time>2022-10-19T13:18:58Z</time>
      </trkpt>
      <trkpt lat="49.89796" lon="2.45883">
        <ele>33.9</ele>
        <time>2022-10-19T13:18:59Z</time>
      </trkpt>
      <trkpt lat="49.89796" lon="2.45883">
        <ele>33.9</ele>
        <time>2022-10-19T13:19:00Z</time>
      </trkpt>
      <trkpt lat="49.89796" lon="2.45883">
        <ele>33.9</ele>
        <time>2022-10-19T13:19:01Z</time>
      </trkpt>
      <trkpt lat="49.89796" lon="2.45883">
        <ele>33.9</ele>
        <time>2022-10-19T13:19:02Z</time>
      </trkpt>
      <trkpt lat="49.89796" lon="2.45883">
        <ele>33.9</ele>
        <time>2022-10-19T13:19:03Z</time>
      </trkpt>
      <trkpt lat="49.89796" lon="2.45883">
        <ele>33.9</ele>
        <time>2022-10-19T13:19:04Z</time>
      </trkpt>
      <trkpt lat="49.89796" lon="2.45883">
        <ele>33.9</ele>
        <time>2022-10-19T13:19:05Z</time>
      </trkpt>
      <trkpt lat="49.89796" lon="2.45883">
        <ele>33.9</ele>
        <time>2022-10-19T13:19:06Z</time>
      </trkpt>
      <trkpt lat="49.89796" lon="2.45883">
        <ele>33.9</ele>
        <time>2022-10-19T13:19:07Z</time>
      </trkpt>
      <trkpt lat="49.89796" lon="2.45883">
        <ele>33.9</ele>
        <time>2022-10-19T13:19:08Z</time>
      </trkpt>
      <trkpt lat="49.89796" lon="2.45883">
        <ele>33.9</ele>
        <time>2022-10-19T13:19:09Z</time>
      </trkpt>
      <trkpt lat="49.89796" lon="2.45883">
        <ele>33.9</ele>
        <time>2022-10-19T13:19:10Z</time>
      </trkpt>
      <trkpt lat="49.89796" lon="2.45883">
        <ele>33.9</ele>
        <time>2022-10-19T13:19:11Z</time>
      </trkpt>
      <trkpt lat="49.89796" lon="2.45883">
        <ele>33.9</ele>
        <time>2022-10-19T13:19:12Z</time>
      </trkpt>
      <trkpt lat="49.89796" lon="2.45883">
        <ele>33.9</ele>
        <time>2022-10-19T13:19:13Z</time>
      </trkpt>
      <trkpt lat="49.89796" lon="2.45883">
        <ele>33.9</ele>
        <time>2022-10-19T13:19:14Z</time>
      </trkpt>
      <trkpt lat="49.89796" lon="2.45883">
        <ele>33.9</ele>
        <time>2022-10-19T13:19:15Z</time>
      </trkpt>
      <trkpt lat="49.89796" lon="2.45883">
        <ele>33.9</ele>
        <time>2022-10-19T13:19:16Z</time>
      </trkpt>
      <trkpt lat="49.89796" lon="2.45883">
        <ele>33.9</ele>
        <time>2022-10-19T13:19:17Z</time>
      </trkpt>
      <trkpt lat="49.89796" lon="2.45883">
        <ele>33.9</ele>
        <time>2022-10-19T13:19:18Z</time>
      </trkpt>
      <trkpt lat="49.89796" lon="2.45883">
        <ele>33.9</ele>
        <time>2022-10-19T13:19:19Z</time>
      </trkpt>
      <trkpt lat="49.89796" lon="2.45883">
        <ele>33.9</ele>
        <time>2022-10-19T13:19:20Z</time>
      </trkpt>
      <trkpt lat="49.89796" lon="2.45883">
        <ele>33.9</ele>
        <time>2022-10-19T13:19:21Z</time>
      </trkpt>
      <trkpt lat="49.89796" lon="2.45883">
        <ele>33.9</ele>
        <time>2022-10-19T13:19:22Z</time>
      </trkpt>
      <trkpt lat="49.89796" lon="2.45883">
        <ele>33.9</ele>
        <time>2022-10-19T13:19:23Z</time>
      </trkpt>
      <trkpt lat="49.89796" lon="2.45883">
        <ele>33.9</ele>
        <time>2022-10-19T13:19:24Z</time>
      </trkpt>
      <trkpt lat="49.89796" lon="2.45883">
        <ele>33.9</ele>
        <time>2022-10-19T13:19:25Z</time>
      </trkpt>
      <trkpt lat="49.89796" lon="2.45883">
        <ele>33.9</ele>
        <time>2022-10-19T13:19:26Z</time>
      </trkpt>
      <trkpt lat="49.89797" lon="2.45884">
        <ele>33.8</ele>
        <time>2022-10-19T13:19:27Z</time>
      </trkpt>
      <trkpt lat="49.89798" lon="2.45884">
        <ele>33.8</ele>
        <time>2022-10-19T13:19:28Z</time>
      </trkpt>
      <trkpt lat="49.89799" lon="2.45884">
        <ele>33.8</ele>
        <time>2022-10-19T13:19:29Z</time>
      </trkpt>
      <trkpt lat="49.89799" lon="2.45884">
        <ele>33.8</ele>
        <time>2022-10-19T13:19:30Z</time>
      </trkpt>
      <trkpt lat="49.89799" lon="2.45884">
        <ele>33.8</ele>
        <time>2022-10-19T13:19:31Z</time>
      </trkpt>
      <trkpt lat="49.89799" lon="2.45884">
        <ele>33.8</ele>
        <time>2022-10-19T13:19:32Z</time>
      </trkpt>
      <trkpt lat="49.898" lon="2.45884">
        <ele>33.8</ele>
        <time>2022-10-19T13:19:33Z</time>
      </trkpt>
      <trkpt lat="49.89801" lon="2.45884">
        <ele>33.8</ele>
        <time>2022-10-19T13:19:34Z</time>
      </trkpt>
      <trkpt lat="49.89801" lon="2.45884">
        <ele>33.8</ele>
        <time>2022-10-19T13:19:35Z</time>
      </trkpt>
      <trkpt lat="49.89802" lon="2.45884">
        <ele>33.8</ele>
        <time>2022-10-19T13:19:36Z</time>
      </trkpt>
      <trkpt lat="49.89802" lon="2.45884">
        <ele>33.7</ele>
        <time>2022-10-19T13:19:37Z</time>
      </trkpt>
      <trkpt lat="49.89804" lon="2.45883">
        <ele>33.7</ele>
        <time>2022-10-19T13:19:39Z</time>
      </trkpt>
      <trkpt lat="49.89805" lon="2.45882">
        <ele>33.7</ele>
        <time>2022-10-19T13:19:40Z</time>
      </trkpt>
      <trkpt lat="49.89808" lon="2.45882">
        <ele>33.7</ele>
        <time>2022-10-19T13:19:41Z</time>
      </trkpt>
      <trkpt lat="49.89809" lon="2.45883">
        <ele>33.6</ele>
        <time>2022-10-19T13:19:42Z</time>
      </trkpt>
      <trkpt lat="49.8981" lon="2.45883">
        <ele>33.6</ele>
        <time>2022-10-19T13:19:43Z</time>
      </trkpt>
      <trkpt lat="49.8981" lon="2.45883">
        <ele>33.6</ele>
        <time>2022-10-19T13:19:44Z</time>
      </trkpt>
      <trkpt lat="49.8981" lon="2.45883">
        <ele>33.6</ele>
        <time>2022-10-19T13:19:46Z</time>
      </trkpt>
      <trkpt lat="49.89811" lon="2.45883">
        <ele>33.6</ele>
        <time>2022-10-19T13:19:47Z</time>
      </trkpt>
      <trkpt lat="49.89811" lon="2.45883">
        <ele>33.6</ele>
        <time>2022-10-19T13:19:48Z</time>
      </trkpt>
      <trkpt lat="49.89811" lon="2.45883">
        <ele>33.6</ele>
        <time>2022-10-19T13:19:50Z</time>
      </trkpt>
      <trkpt lat="49.89811" lon="2.45883">
        <ele>33.6</ele>
        <time>2022-10-19T13:19:51Z</time>
      </trkpt>
      <trkpt lat="49.89811" lon="2.45883">
        <ele>33.6</ele>
        <time>2022-10-19T13:19:52Z</time>
      </trkpt>
      <trkpt lat="49.89811" lon="2.45883">
        <ele>33.6</ele>
        <time>2022-10-19T13:19:53Z</time>
      </trkpt>
      <trkpt lat="49.89811" lon="2.45883">
        <ele>33.6</ele>
        <time>2022-10-19T13:19:55Z</time>
      </trkpt>
      <trkpt lat="49.89812" lon="2.45883">
        <ele>33.6</ele>
        <time>2022-10-19T13:19:56Z</time>
      </trkpt>
      <trkpt lat="49.89812" lon="2.45883">
        <ele>33.6</ele>
        <time>2022-10-19T13:19:57Z</time>
      </trkpt>
      <trkpt lat="49.89812" lon="2.45883">
        <ele>33.6</ele>
        <time>2022-10-19T13:19:59Z</time>
      </trkpt>
      <trkpt lat="49.89812" lon="2.45883">
        <ele>33.6</ele>
        <time>2022-10-19T13:20:00Z</time>
      </trkpt>
      <trkpt lat="49.89812" lon="2.45883">
        <ele>33.6</ele>
        <time>2022-10-19T13:20:01Z</time>
      </trkpt>
      <trkpt lat="49.89812" lon="2.45883">
        <ele>33.6</ele>
        <time>2022-10-19T13:20:03Z</time>
      </trkpt>
      <trkpt lat="49.89813" lon="2.45883">
        <ele>33.6</ele>
        <time>2022-10-19T13:20:04Z</time>
      </trkpt>
      <trkpt lat="49.89813" lon="2.45883">
        <ele>33.6</ele>
        <time>2022-10-19T13:20:05Z</time>
      </trkpt>
      <trkpt lat="49.89813" lon="2.45883">
        <ele>33.6</ele>
        <time>2022-10-19T13:20:06Z</time>
      </trkpt>
      <trkpt lat="49.89813" lon="2.45883">
        <ele>33.6</ele>
        <time>2022-10-19T13:20:07Z</time>
      </trkpt>
      <trkpt lat="49.89813" lon="2.45883">
        <ele>33.6</ele>
        <time>2022-10-19T13:20:08Z</time>
      </trkpt>
      <trkpt lat="49.89813" lon="2.45883">
        <ele>33.6</ele>
        <time>2022-10-19T13:20:09Z</time>
      </trkpt>
      <trkpt lat="49.89813" lon="2.45883">
        <ele>33.6</ele>
        <time>2022-10-19T13:20:10Z</time>
      </trkpt>
      <trkpt lat="49.89814" lon="2.45883">
        <ele>33.6</ele>
        <time>2022-10-19T13:20:11Z</time>
      </trkpt>
      <trkpt lat="49.89814" lon="2.45883">
        <ele>33.6</ele>
        <time>2022-10-19T13:20:12Z</time>
      </trkpt>
      <trkpt lat="49.89814" lon="2.45883">
        <ele>33.6</ele>
        <time>2022-10-19T13:20:13Z</time>
      </trkpt>
      <trkpt lat="49.89814" lon="2.45883">
        <ele>33.6</ele>
        <time>2022-10-19T13:20:14Z</time>
      </trkpt>
      <trkpt lat="49.89814" lon="2.45883">
        <ele>33.6</ele>
        <time>2022-10-19T13:20:15Z</time>
      </trkpt>
      <trkpt lat="49.89814" lon="2.45883">
        <ele>33.6</ele>
        <time>2022-10-19T13:20:16Z</time>
      </trkpt>
      <trkpt lat="49.89814" lon="2.45883">
        <ele>33.6</ele>
        <time>2022-10-19T13:20:17Z</time>
      </trkpt>
      <trkpt lat="49.89815" lon="2.45883">
        <ele>33.6</ele>
        <time>2022-10-19T13:20:18Z</time>
      </trkpt>
      <trkpt lat="49.89815" lon="2.45883">
        <ele>33.6</ele>
        <time>2022-10-19T13:20:19Z</time>
      </trkpt>
      <trkpt lat="49.89815" lon="2.45883">
        <ele>33.6</ele>
        <time>2022-10-19T13:20:20Z</time>
      </trkpt>
      <trkpt lat="49.89815" lon="2.45883">
        <ele>33.6</ele>
        <time>2022-10-19T13:20:21Z</time>
      </trkpt>
      <trkpt lat="49.89815" lon="2.45883">
        <ele>33.6</ele>
        <time>2022-10-19T13:20:22Z</time>
      </trkpt>
      <trkpt lat="49.89815" lon="2.45883">
        <ele>33.5</ele>
        <time>2022-10-19T13:20:23Z</time>
      </trkpt>
      <trkpt lat="49.89815" lon="2.45883">
        <ele>33.5</ele>
        <time>2022-10-19T13:20:25Z</time>
      </trkpt>
      <trkpt lat="49.89816" lon="2.45883">
        <ele>33.5</ele>
        <time>2022-10-19T13:20:26Z</time>
      </trkpt>
      <trkpt lat="49.89816" lon="2.45883">
        <ele>33.5</ele>
        <time>2022-10-19T13:20:27Z</time>
      </trkpt>
      <trkpt lat="49.89816" lon="2.45883">
        <ele>33.5</ele>
        <time>2022-10-19T13:20:28Z</time>
      </trkpt>
      <trkpt lat="49.89816" lon="2.45883">
        <ele>33.5</ele>
        <time>2022-10-19T13:20:29Z</time>
      </trkpt>
      <trkpt lat="49.89816" lon="2.45883">
        <ele>33.5</ele>
        <time>2022-10-19T13:20:30Z</time>
      </trkpt>
      <trkpt lat="49.89816" lon="2.45883">
        <ele>33.5</ele>
        <time>2022-10-19T13:20:31Z</time>
      </trkpt>
      <trkpt lat="49.89816" lon="2.45883">
        <ele>33.5</ele>
        <time>2022-10-19T13:20:32Z</time>
      </trkpt>
      <trkpt lat="49.89817" lon="2.45883">
        <ele>33.5</ele>
        <time>2022-10-19T13:20:34Z</time>
      </trkpt>
      <trkpt lat="49.89817" lon="2.45883">
        <ele>33.5</ele>
        <time>2022-10-19T13:20:35Z</time>
      </trkpt>
      <trkpt lat="49.89817" lon="2.45882">
        <ele>33.5</ele>
        <time>2022-10-19T13:20:36Z</time>
      </trkpt>
      <trkpt lat="49.89817" lon="2.45882">
        <ele>33.5</ele>
        <time>2022-10-19T13:20:37Z</time>
      </trkpt>
      <trkpt lat="49.89817" lon="2.45882">
        <ele>33.5</ele>
        <time>2022-10-19T13:20:38Z</time>
      </trkpt>
      <trkpt lat="49.89817" lon="2.45882">
        <ele>33.5</ele>
        <time>2022-10-19T13:20:39Z</time>
      </trkpt>
      <trkpt lat="49.89818" lon="2.45882">
        <ele>33.5</ele>
        <time>2022-10-19T13:20:40Z</time>
      </trkpt>
      <trkpt lat="49.89818" lon="2.45882">
        <ele>33.5</ele>
        <time>2022-10-19T13:20:41Z</time>
      </trkpt>
      <trkpt lat="49.89818" lon="2.45882">
        <ele>33.5</ele>
        <time>2022-10-19T13:20:43Z</time>
      </trkpt>
      <trkpt lat="49.89818" lon="2.45882">
        <ele>33.5</ele>
        <time>2022-10-19T13:20:44Z</time>
      </trkpt>
      <trkpt lat="49.89818" lon="2.45882">
        <ele>33.5</ele>
        <time>2022-10-19T13:20:46Z</time>
      </trkpt>
      <trkpt lat="49.89818" lon="2.45882">
        <ele>33.5</ele>
        <time>2022-10-19T13:20:47Z</time>
      </trkpt>
      <trkpt lat="49.89818" lon="2.45882">
        <ele>33.5</ele>
        <time>2022-10-19T13:20:48Z</time>
      </trkpt>
      <trkpt lat="49.89819" lon="2.45883">
        <ele>33.5</ele>
        <time>2022-10-19T13:20:50Z</time>
      </trkpt>
      <trkpt lat="49.89821" lon="2.45883">
        <ele>33.5</ele>
        <time>2022-10-19T13:20:51Z</time>
      </trkpt>
      <trkpt lat="49.89822" lon="2.45884">
        <ele>33.4</ele>
        <time>2022-10-19T13:20:53Z</time>
      </trkpt>
      <trkpt lat="49.89823" lon="2.45884">
        <ele>33.4</ele>
        <time>2022-10-19T13:20:54Z</time>
      </trkpt>
      <trkpt lat="49.89825" lon="2.45884">
        <ele>33.4</ele>
        <time>2022-10-19T13:20:55Z</time>
      </trkpt>
      <trkpt lat="49.89826" lon="2.45884">
        <ele>33.4</ele>
        <time>2022-10-19T13:20:56Z</time>
      </trkpt>
      <trkpt lat="49.89826" lon="2.45884">
        <ele>33.4</ele>
        <time>2022-10-19T13:20:57Z</time>
      </trkpt>
      <trkpt lat="49.89829" lon="2.45883">
        <ele>33.4</ele>
        <time>2022-10-19T13:20:59Z</time>
      </trkpt>
      <trkpt lat="49.89829" lon="2.45884">
        <ele>33.3</ele>
        <time>2022-10-19T13:21:00Z</time>
      </trkpt>
      <trkpt lat="49.8983" lon="2.45883">
        <ele>33.3</ele>
        <time>2022-10-19T13:21:01Z</time>
      </trkpt>
      <trkpt lat="49.89832" lon="2.45884">
        <ele>33.3</ele>
        <time>2022-10-19T13:21:03Z</time>
      </trkpt>
      <trkpt lat="49.89833" lon="2.45885">
        <ele>33.3</ele>
        <time>2022-10-19T13:21:04Z</time>
      </trkpt>
      <trkpt lat="49.89833" lon="2.45884">
        <ele>33.3</ele>
        <time>2022-10-19T13:21:05Z</time>
      </trkpt>
      <trkpt lat="49.89834" lon="2.45884">
        <ele>33.3</ele>
        <time>2022-10-19T13:21:06Z</time>
      </trkpt>
      <trkpt lat="49.89835" lon="2.45884">
        <ele>33.3</ele>
        <time>2022-10-19T13:21:07Z</time>
      </trkpt>
      <trkpt lat="49.89836" lon="2.45883">
        <ele>33.3</ele>
        <time>2022-10-19T13:21:09Z</time>
      </trkpt>
      <trkpt lat="49.89837" lon="2.45884">
        <ele>33.2</ele>
        <time>2022-10-19T13:21:10Z</time>
      </trkpt>
      <trkpt lat="49.89837" lon="2.45884">
        <ele>33.2</ele>
        <time>2022-10-19T13:21:11Z</time>
      </trkpt>
      <trkpt lat="49.89838" lon="2.45885">
        <ele>33.2</ele>
        <time>2022-10-19T13:21:13Z</time>
      </trkpt>
      <trkpt lat="49.89839" lon="2.45885">
        <ele>33.2</ele>
        <time>2022-10-19T13:21:14Z</time>
      </trkpt>
      <trkpt lat="49.89839" lon="2.45885">
        <ele>33.2</ele>
        <time>2022-10-19T13:21:15Z</time>
      </trkpt>
      <trkpt lat="49.89839" lon="2.45885">
        <ele>33.2</ele>
        <time>2022-10-19T13:21:16Z</time>
      </trkpt>
      <trkpt lat="49.89839" lon="2.45885">
        <ele>33.2</ele>
        <time>2022-10-19T13:21:17Z</time>
      </trkpt>
      <trkpt lat="49.89838" lon="2.45885">
        <ele>33.2</ele>
        <time>2022-10-19T13:21:18Z</time>
      </trkpt>
      <trkpt lat="49.89838" lon="2.45886">
        <ele>33.2</ele>
        <time>2022-10-19T13:21:19Z</time>
      </trkpt>
      <trkpt lat="49.89838" lon="2.45885">
        <ele>33.2</ele>
        <time>2022-10-19T13:21:20Z</time>
      </trkpt>
      <trkpt lat="49.89838" lon="2.45885">
        <ele>33.2</ele>
        <time>2022-10-19T13:21:21Z</time>
      </trkpt>
      <trkpt lat="49.89838" lon="2.45885">
        <ele>33.2</ele>
        <time>2022-10-19T13:21:22Z</time>
      </trkpt>
      <trkpt lat="49.89838" lon="2.45885">
        <ele>33.2</ele>
        <time>2022-10-19T13:21:23Z</time>
      </trkpt>
      <trkpt lat="49.89837" lon="2.45885">
        <ele>33.2</ele>
        <time>2022-10-19T13:21:24Z</time>
      </trkpt>
      <trkpt lat="49.89837" lon="2.45885">
        <ele>33.2</ele>
        <time>2022-10-19T13:21:25Z</time>
      </trkpt>
      <trkpt lat="49.89837" lon="2.45885">
        <ele>33.2</ele>
        <time>2022-10-19T13:21:26Z</time>
      </trkpt>
      <trkpt lat="49.89837" lon="2.45885">
        <ele>33.2</ele>
        <time>2022-10-19T13:21:27Z</time>
      </trkpt>
      <trkpt lat="49.89837" lon="2.45885">
        <ele>33.2</ele>
        <time>2022-10-19T13:21:28Z</time>
      </trkpt>
      <trkpt lat="49.89837" lon="2.45885">
        <ele>33.2</ele>
        <time>2022-10-19T13:21:29Z</time>
      </trkpt>
      <trkpt lat="49.89837" lon="2.45886">
        <ele>33.2</ele>
        <time>2022-10-19T13:21:30Z</time>
      </trkpt>
      <trkpt lat="49.89836" lon="2.45886">
        <ele>33.2</ele>
        <time>2022-10-19T13:21:31Z</time>
      </trkpt>
      <trkpt lat="49.89836" lon="2.45886">
        <ele>33.2</ele>
        <time>2022-10-19T13:21:32Z</time>
      </trkpt>
      <trkpt lat="49.89836" lon="2.45885">
        <ele>33.2</ele>
        <time>2022-10-19T13:21:33Z</time>
      </trkpt>
      <trkpt lat="49.89836" lon="2.45885">
        <ele>33.2</ele>
        <time>2022-10-19T13:21:34Z</time>
      </trkpt>
      <trkpt lat="49.89836" lon="2.45885">
        <ele>33.2</ele>
        <time>2022-10-19T13:21:35Z</time>
      </trkpt>
      <trkpt lat="49.89836" lon="2.45885">
        <ele>33.2</ele>
        <time>2022-10-19T13:21:36Z</time>
      </trkpt>
      <trkpt lat="49.89836" lon="2.45885">
        <ele>33.2</ele>
        <time>2022-10-19T13:21:37Z</time>
      </trkpt>
      <trkpt lat="49.89836" lon="2.45885">
        <ele>33.2</ele>
        <time>2022-10-19T13:21:39Z</time>
      </trkpt>
      <trkpt lat="49.89836" lon="2.45885">
        <ele>33.2</ele>
        <time>2022-10-19T13:21:40Z</time>
      </trkpt>
      <trkpt lat="49.89836" lon="2.45885">
        <ele>33.2</ele>
        <time>2022-10-19T13:21:41Z</time>
      </trkpt>
      <trkpt lat="49.89836" lon="2.45885">
        <ele>33.2</ele>
        <time>2022-10-19T13:21:42Z</time>
      </trkpt>
      <trkpt lat="49.89836" lon="2.45885">
        <ele>33.2</ele>
        <time>2022-10-19T13:21:43Z</time>
      </trkpt>
      <trkpt lat="49.89836" lon="2.45885">
        <ele>33.2</ele>
        <time>2022-10-19T13:21:44Z</time>
      </trkpt>
      <trkpt lat="49.89836" lon="2.45885">
        <ele>33.2</ele>
        <time>2022-10-19T13:21:45Z</time>
      </trkpt>
      <trkpt lat="49.89836" lon="2.45885">
        <ele>33.2</ele>
        <time>2022-10-19T13:21:46Z</time>
      </trkpt>
      <trkpt lat="49.89836" lon="2.45885">
        <ele>33.2</ele>
        <time>2022-10-19T13:21:47Z</time>
      </trkpt>
      <trkpt lat="49.89836" lon="2.45885">
        <ele>33.2</ele>
        <time>2022-10-19T13:21:48Z</time>
      </trkpt>
      <trkpt lat="49.89836" lon="2.45885">
        <ele>33.2</ele>
        <time>2022-10-19T13:21:49Z</time>
      </trkpt>
      <trkpt lat="49.89836" lon="2.45885">
        <ele>33.2</ele>
        <time>2022-10-19T13:21:50Z</time>
      </trkpt>
      <trkpt lat="49.89836" lon="2.45885">
        <ele>33.2</ele>
        <time>2022-10-19T13:21:51Z</time>
      </trkpt>
      <trkpt lat="49.89836" lon="2.45885">
        <ele>33.2</ele>
        <time>2022-10-19T13:21:52Z</time>
      </trkpt>
      <trkpt lat="49.89836" lon="2.45885">
        <ele>33.2</ele>
        <time>2022-10-19T13:21:53Z</time>
      </trkpt>
      <trkpt lat="49.89836" lon="2.45885">
        <ele>33.2</ele>
        <time>2022-10-19T13:21:54Z</time>
      </trkpt>
      <trkpt lat="49.89836" lon="2.45885">
        <ele>33.2</ele>
        <time>2022-10-19T13:21:55Z</time>
      </trkpt>
      <trkpt lat="49.89837" lon="2.45885">
        <ele>33.1</ele>
        <time>2022-10-19T13:21:57Z</time>
      </trkpt>
      <trkpt lat="49.89837" lon="2.45885">
        <ele>33.1</ele>
        <time>2022-10-19T13:21:58Z</time>
      </trkpt>
      <trkpt lat="49.89838" lon="2.45885">
        <ele>33.1</ele>
        <time>2022-10-19T13:21:59Z</time>
      </trkpt>
      <trkpt lat="49.89838" lon="2.45885">
        <ele>33.1</ele>
        <time>2022-10-19T13:22:00Z</time>
      </trkpt>
      <trkpt lat="49.89838" lon="2.45885">
        <ele>33.1</ele>
        <time>2022-10-19T13:22:01Z</time>
      </trkpt>
      <trkpt lat="49.89839" lon="2.45885">
        <ele>33.1</ele>
        <time>2022-10-19T13:22:02Z</time>
      </trkpt>
      <trkpt lat="49.89839" lon="2.45885">
        <ele>33.1</ele>
        <time>2022-10-19T13:22:03Z</time>
      </trkpt>
      <trkpt lat="49.89839" lon="2.45885">
        <ele>33.1</ele>
        <time>2022-10-19T13:22:05Z</time>
      </trkpt>
      <trkpt lat="49.8984" lon="2.45884">
        <ele>33.1</ele>
        <time>2022-10-19T13:22:06Z</time>
      </trkpt>
      <trkpt lat="49.8984" lon="2.45884">
        <ele>33.1</ele>
        <time>2022-10-19T13:22:07Z</time>
      </trkpt>
      <trkpt lat="49.8984" lon="2.45883">
        <ele>33.1</ele>
        <time>2022-10-19T13:22:08Z</time>
      </trkpt>
      <trkpt lat="49.89839" lon="2.45883">
        <ele>33.1</ele>
        <time>2022-10-19T13:22:09Z</time>
      </trkpt>
      <trkpt lat="49.89839" lon="2.45883">
        <ele>33.1</ele>
        <time>2022-10-19T13:22:10Z</time>
      </trkpt>
      <trkpt lat="49.89839" lon="2.45883">
        <ele>33.1</ele>
        <time>2022-10-19T13:22:11Z</time>
      </trkpt>
      <trkpt lat="49.89839" lon="2.45884">
        <ele>33.1</ele>
        <time>2022-10-19T13:22:12Z</time>
      </trkpt>
      <trkpt lat="49.89838" lon="2.45884">
        <ele>33.1</ele>
        <time>2022-10-19T13:22:13Z</time>
      </trkpt>
      <trkpt lat="49.89838" lon="2.45885">
        <ele>33.1</ele>
        <time>2022-10-19T13:22:15Z</time>
      </trkpt>
      <trkpt lat="49.89839" lon="2.45885">
        <ele>33.1</ele>
        <time>2022-10-19T13:22:16Z</time>
      </trkpt>
      <trkpt lat="49.89839" lon="2.45885">
        <ele>33.1</ele>
        <time>2022-10-19T13:22:17Z</time>
      </trkpt>
      <trkpt lat="49.89839" lon="2.45884">
        <ele>33.1</ele>
        <time>2022-10-19T13:22:18Z</time>
      </trkpt>
      <trkpt lat="49.89839" lon="2.45884">
        <ele>33.1</ele>
        <time>2022-10-19T13:22:19Z</time>
      </trkpt>
      <trkpt lat="49.89839" lon="2.45884">
        <ele>33.1</ele>
        <time>2022-10-19T13:22:20Z</time>
      </trkpt>
      <trkpt lat="49.8984" lon="2.45884">
        <ele>33.1</ele>
        <time>2022-10-19T13:22:22Z</time>
      </trkpt>
      <trkpt lat="49.89841" lon="2.45884">
        <ele>33.1</ele>
        <time>2022-10-19T13:22:23Z</time>
      </trkpt>
      <trkpt lat="49.89841" lon="2.45886">
        <ele>33.1</ele>
        <time>2022-10-19T13:22:25Z</time>
      </trkpt>
      <trkpt lat="49.89841" lon="2.45887">
        <ele>33.1</ele>
        <time>2022-10-19T13:22:26Z</time>
      </trkpt>
      <trkpt lat="49.89841" lon="2.45887">
        <ele>33.1</ele>
        <time>2022-10-19T13:22:27Z</time>
      </trkpt>
      <trkpt lat="49.89841" lon="2.45887">
        <ele>33.1</ele>
        <time>2022-10-19T13:22:28Z</time>
      </trkpt>
      <trkpt lat="49.89841" lon="2.45887">
        <ele>33.1</ele>
        <time>2022-10-19T13:22:29Z</time>
      </trkpt>
      <trkpt lat="49.89841" lon="2.45887">
        <ele>33.1</ele>
        <time>2022-10-19T13:22:30Z</time>
      </trkpt>
      <trkpt lat="49.89841" lon="2.45887">
        <ele>33.1</ele>
        <time>2022-10-19T13:22:31Z</time>
      </trkpt>
      <trkpt lat="49.89841" lon="2.45887">
        <ele>33.1</ele>
        <time>2022-10-19T13:22:32Z</time>
      </trkpt>
      <trkpt lat="49.89841" lon="2.45887">
        <ele>33.1</ele>
        <time>2022-10-19T13:22:33Z</time>
      </trkpt>
      <trkpt lat="49.89842" lon="2.45886">
        <ele>33</ele>
        <time>2022-10-19T13:22:34Z</time>
      </trkpt>
      <trkpt lat="49.89842" lon="2.45886">
        <ele>33</ele>
        <time>2022-10-19T13:22:35Z</time>
      </trkpt>
      <trkpt lat="49.89842" lon="2.45886">
        <ele>33</ele>
        <time>2022-10-19T13:22:36Z</time>
      </trkpt>
      <trkpt lat="49.89842" lon="2.45886">
        <ele>33</ele>
        <time>2022-10-19T13:22:37Z</time>
      </trkpt>
      <trkpt lat="49.89842" lon="2.45886">
        <ele>33</ele>
        <time>2022-10-19T13:22:38Z</time>
      </trkpt>
      <trkpt lat="49.89842" lon="2.45886">
        <ele>33</ele>
        <time>2022-10-19T13:22:39Z</time>
      </trkpt>
      <trkpt lat="49.89842" lon="2.45886">
        <ele>33</ele>
        <time>2022-10-19T13:22:40Z</time>
      </trkpt>
      <trkpt lat="49.89842" lon="2.45886">
        <ele>33</ele>
        <time>2022-10-19T13:22:41Z</time>
      </trkpt>
      <trkpt lat="49.89842" lon="2.45886">
        <ele>33</ele>
        <time>2022-10-19T13:22:42Z</time>
      </trkpt>
      <trkpt lat="49.89842" lon="2.45886">
        <ele>33</ele>
        <time>2022-10-19T13:22:43Z</time>
      </trkpt>
      <trkpt lat="49.89842" lon="2.45886">
        <ele>33</ele>
        <time>2022-10-19T13:22:44Z</time>
      </trkpt>
      <trkpt lat="49.89842" lon="2.45886">
        <ele>33</ele>
        <time>2022-10-19T13:22:45Z</time>
      </trkpt>
      <trkpt lat="49.89842" lon="2.45886">
        <ele>33</ele>
        <time>2022-10-19T13:22:46Z</time>
      </trkpt>
      <trkpt lat="49.89842" lon="2.45886">
        <ele>33</ele>
        <time>2022-10-19T13:22:47Z</time>
      </trkpt>
      <trkpt lat="49.89842" lon="2.45886">
        <ele>33</ele>
        <time>2022-10-19T13:22:48Z</time>
      </trkpt>
      <trkpt lat="49.89842" lon="2.45886">
        <ele>33</ele>
        <time>2022-10-19T13:22:49Z</time>
      </trkpt>
      <trkpt lat="49.89842" lon="2.45886">
        <ele>33</ele>
        <time>2022-10-19T13:22:50Z</time>
      </trkpt>
      <trkpt lat="49.89842" lon="2.45886">
        <ele>33</ele>
        <time>2022-10-19T13:22:51Z</time>
      </trkpt>
      <trkpt lat="49.89844" lon="2.45887">
        <ele>33</ele>
        <time>2022-10-19T13:22:52Z</time>
      </trkpt>
      <trkpt lat="49.89847" lon="2.45888">
        <ele>33</ele>
        <time>2022-10-19T13:22:53Z</time>
      </trkpt>
      <trkpt lat="49.89848" lon="2.45888">
        <ele>33</ele>
        <time>2022-10-19T13:22:54Z</time>
      </trkpt>
      <trkpt lat="49.89848" lon="2.45888">
        <ele>33</ele>
        <time>2022-10-19T13:22:55Z</time>
      </trkpt>
      <trkpt lat="49.89849" lon="2.45889">
        <ele>33</ele>
        <time>2022-10-19T13:22:56Z</time>
      </trkpt>
      <trkpt lat="49.89849" lon="2.45889">
        <ele>33</ele>
        <time>2022-10-19T13:22:57Z</time>
      </trkpt>
      <trkpt lat="49.89849" lon="2.45889">
        <ele>33</ele>
        <time>2022-10-19T13:22:58Z</time>
      </trkpt>
      <trkpt lat="49.8985" lon="2.45889">
        <ele>33</ele>
        <time>2022-10-19T13:22:59Z</time>
      </trkpt>
      <trkpt lat="49.8985" lon="2.45889">
        <ele>33</ele>
        <time>2022-10-19T13:23:00Z</time>
      </trkpt>
      <trkpt lat="49.8985" lon="2.45889">
        <ele>33</ele>
        <time>2022-10-19T13:23:01Z</time>
      </trkpt>
      <trkpt lat="49.8985" lon="2.45889">
        <ele>33</ele>
        <time>2022-10-19T13:23:02Z</time>
      </trkpt>
      <trkpt lat="49.8985" lon="2.45889">
        <ele>33</ele>
        <time>2022-10-19T13:23:03Z</time>
      </trkpt>
      <trkpt lat="49.8985" lon="2.45889">
        <ele>33</ele>
        <time>2022-10-19T13:23:04Z</time>
      </trkpt>
      <trkpt lat="49.8985" lon="2.45889">
        <ele>33</ele>
        <time>2022-10-19T13:23:05Z</time>
      </trkpt>
      <trkpt lat="49.8985" lon="2.45889">
        <ele>33</ele>
        <time>2022-10-19T13:23:06Z</time>
      </trkpt>
      <trkpt lat="49.8985" lon="2.45889">
        <ele>33</ele>
        <time>2022-10-19T13:23:07Z</time>
      </trkpt>
      <trkpt lat="49.8985" lon="2.45889">
        <ele>33</ele>
        <time>2022-10-19T13:23:08Z</time>
      </trkpt>
      <trkpt lat="49.8985" lon="2.45889">
        <ele>33</ele>
        <time>2022-10-19T13:23:09Z</time>
      </trkpt>
      <trkpt lat="49.89851" lon="2.45889">
        <ele>33</ele>
        <time>2022-10-19T13:23:10Z</time>
      </trkpt>
      <trkpt lat="49.89851" lon="2.45889">
        <ele>33</ele>
        <time>2022-10-19T13:23:11Z</time>
      </trkpt>
      <trkpt lat="49.89851" lon="2.45889">
        <ele>33</ele>
        <time>2022-10-19T13:23:12Z</time>
      </trkpt>
      <trkpt lat="49.89851" lon="2.45889">
        <ele>33</ele>
        <time>2022-10-19T13:23:13Z</time>
      </trkpt>
      <trkpt lat="49.89851" lon="2.45889">
        <ele>33</ele>
        <time>2022-10-19T13:23:14Z</time>
      </trkpt>
      <trkpt lat="49.89851" lon="2.45889">
        <ele>33</ele>
        <time>2022-10-19T13:23:15Z</time>
      </trkpt>
      <trkpt lat="49.89851" lon="2.45889">
        <ele>33</ele>
        <time>2022-10-19T13:23:17Z</time>
      </trkpt>
      <trkpt lat="49.89851" lon="2.45889">
        <ele>33</ele>
        <time>2022-10-19T13:23:18Z</time>
      </trkpt>
      <trkpt lat="49.89851" lon="2.45889">
        <ele>33</ele>
        <time>2022-10-19T13:23:19Z</time>
      </trkpt>
      <trkpt lat="49.89851" lon="2.45889">
        <ele>33</ele>
        <time>2022-10-19T13:23:21Z</time>
      </trkpt>
      <trkpt lat="49.89851" lon="2.45889">
        <ele>33</ele>
        <time>2022-10-19T13:23:22Z</time>
      </trkpt>
      <trkpt lat="49.89851" lon="2.45889">
        <ele>32.9</ele>
        <time>2022-10-19T13:23:23Z</time>
      </trkpt>
      <trkpt lat="49.89851" lon="2.45889">
        <ele>32.9</ele>
        <time>2022-10-19T13:23:24Z</time>
      </trkpt>
      <trkpt lat="49.89851" lon="2.45889">
        <ele>32.9</ele>
        <time>2022-10-19T13:23:25Z</time>
      </trkpt>
      <trkpt lat="49.89851" lon="2.45889">
        <ele>32.9</ele>
        <time>2022-10-19T13:23:26Z</time>
      </trkpt>
      <trkpt lat="49.89851" lon="2.45889">
        <ele>32.9</ele>
        <time>2022-10-19T13:23:27Z</time>
      </trkpt>
      <trkpt lat="49.89851" lon="2.45889">
        <ele>32.9</ele>
        <time>2022-10-19T13:23:28Z</time>
      </trkpt>
      <trkpt lat="49.89851" lon="2.45889">
        <ele>32.9</ele>
        <time>2022-10-19T13:23:29Z</time>
      </trkpt>
      <trkpt lat="49.89851" lon="2.45889">
        <ele>32.9</ele>
        <time>2022-10-19T13:23:30Z</time>
      </trkpt>
      <trkpt lat="49.89851" lon="2.45889">
        <ele>32.9</ele>
        <time>2022-10-19T13:23:32Z</time>
      </trkpt>
      <trkpt lat="49.89851" lon="2.45889">
        <ele>32.9</ele>
        <time>2022-10-19T13:23:33Z</time>
      </trkpt>
      <trkpt lat="49.89851" lon="2.45889">
        <ele>32.9</ele>
        <time>2022-10-19T13:23:34Z</time>
      </trkpt>
      <trkpt lat="49.89851" lon="2.45889">
        <ele>32.9</ele>
        <time>2022-10-19T13:23:35Z</time>
      </trkpt>
      <trkpt lat="49.89851" lon="2.45889">
        <ele>32.9</ele>
        <time>2022-10-19T13:23:36Z</time>
      </trkpt>
      <trkpt lat="49.89851" lon="2.45889">
        <ele>32.9</ele>
        <time>2022-10-19T13:23:37Z</time>
      </trkpt>
      <trkpt lat="49.89851" lon="2.45889">
        <ele>32.9</ele>
        <time>2022-10-19T13:23:38Z</time>
      </trkpt>
      <trkpt lat="49.89851" lon="2.45889">
        <ele>32.9</ele>
        <time>2022-10-19T13:23:39Z</time>
      </trkpt>
      <trkpt lat="49.89851" lon="2.45889">
        <ele>32.9</ele>
        <time>2022-10-19T13:23:40Z</time>
      </trkpt>
      <trkpt lat="49.89851" lon="2.45889">
        <ele>32.9</ele>
        <time>2022-10-19T13:23:41Z</time>
      </trkpt>
      <trkpt lat="49.89851" lon="2.45889">
        <ele>32.9</ele>
        <time>2022-10-19T13:23:42Z</time>
      </trkpt>
      <trkpt lat="49.89851" lon="2.45889">
        <ele>32.9</ele>
        <time>2022-10-19T13:23:43Z</time>
      </trkpt>
      <trkpt lat="49.89852" lon="2.45889">
        <ele>32.9</ele>
        <time>2022-10-19T13:23:44Z</time>
      </trkpt>
      <trkpt lat="49.89852" lon="2.45889">
        <ele>32.9</ele>
        <time>2022-10-19T13:23:45Z</time>
      </trkpt>
      <trkpt lat="49.89852" lon="2.45889">
        <ele>32.9</ele>
        <time>2022-10-19T13:23:46Z</time>
      </trkpt>
      <trkpt lat="49.89852" lon="2.45889">
        <ele>32.9</ele>
        <time>2022-10-19T13:23:47Z</time>
      </trkpt>
      <trkpt lat="49.89852" lon="2.45889">
        <ele>32.9</ele>
        <time>2022-10-19T13:23:48Z</time>
      </trkpt>
      <trkpt lat="49.89852" lon="2.45889">
        <ele>32.9</ele>
        <time>2022-10-19T13:23:49Z</time>
      </trkpt>
      <trkpt lat="49.89852" lon="2.45889">
        <ele>32.9</ele>
        <time>2022-10-19T13:23:50Z</time>
      </trkpt>
      <trkpt lat="49.89852" lon="2.45889">
        <ele>32.9</ele>
        <time>2022-10-19T13:23:51Z</time>
      </trkpt>
      <trkpt lat="49.89852" lon="2.45889">
        <ele>32.9</ele>
        <time>2022-10-19T13:23:52Z</time>
      </trkpt>
      <trkpt lat="49.89852" lon="2.4589">
        <ele>32.9</ele>
        <time>2022-10-19T13:23:53Z</time>
      </trkpt>
      <trkpt lat="49.89852" lon="2.4589">
        <ele>32.9</ele>
        <time>2022-10-19T13:23:54Z</time>
      </trkpt>
      <trkpt lat="49.89852" lon="2.4589">
        <ele>32.9</ele>
        <time>2022-10-19T13:23:55Z</time>
      </trkpt>
      <trkpt lat="49.89852" lon="2.4589">
        <ele>32.9</ele>
        <time>2022-10-19T13:23:56Z</time>
      </trkpt>
      <trkpt lat="49.89852" lon="2.4589">
        <ele>32.9</ele>
        <time>2022-10-19T13:23:57Z</time>
      </trkpt>
      <trkpt lat="49.89852" lon="2.4589">
        <ele>32.9</ele>
        <time>2022-10-19T13:23:58Z</time>
      </trkpt>
      <trkpt lat="49.89852" lon="2.4589">
        <ele>32.9</ele>
        <time>2022-10-19T13:23:59Z</time>
      </trkpt>
      <trkpt lat="49.89852" lon="2.4589">
        <ele>32.9</ele>
        <time>2022-10-19T13:24:00Z</time>
      </trkpt>
      <trkpt lat="49.89852" lon="2.4589">
        <ele>32.9</ele>
        <time>2022-10-19T13:24:01Z</time>
      </trkpt>
      <trkpt lat="49.89852" lon="2.4589">
        <ele>32.9</ele>
        <time>2022-10-19T13:24:02Z</time>
      </trkpt>
      <trkpt lat="49.89852" lon="2.4589">
        <ele>32.9</ele>
        <time>2022-10-19T13:24:03Z</time>
      </trkpt>
      <trkpt lat="49.89852" lon="2.4589">
        <ele>32.9</ele>
        <time>2022-10-19T13:24:04Z</time>
      </trkpt>
      <trkpt lat="49.89852" lon="2.4589">
        <ele>32.9</ele>
        <time>2022-10-19T13:24:05Z</time>
      </trkpt>
      <trkpt lat="49.89852" lon="2.4589">
        <ele>32.9</ele>
        <time>2022-10-19T13:24:06Z</time>
      </trkpt>
      <trkpt lat="49.89852" lon="2.4589">
        <ele>32.9</ele>
        <time>2022-10-19T13:24:07Z</time>
      </trkpt>
      <trkpt lat="49.89852" lon="2.4589">
        <ele>32.9</ele>
        <time>2022-10-19T13:24:08Z</time>
      </trkpt>
      <trkpt lat="49.89852" lon="2.4589">
        <ele>32.9</ele>
        <time>2022-10-19T13:24:09Z</time>
      </trkpt>
      <trkpt lat="49.89852" lon="2.4589">
        <ele>32.9</ele>
        <time>2022-10-19T13:24:10Z</time>
      </trkpt>
      <trkpt lat="49.89852" lon="2.4589">
        <ele>32.9</ele>
        <time>2022-10-19T13:24:11Z</time>
      </trkpt>
      <trkpt lat="49.89852" lon="2.4589">
        <ele>32.9</ele>
        <time>2022-10-19T13:24:12Z</time>
      </trkpt>
      <trkpt lat="49.89852" lon="2.4589">
        <ele>32.9</ele>
        <time>2022-10-19T13:24:13Z</time>
      </trkpt>
      <trkpt lat="49.89852" lon="2.4589">
        <ele>32.9</ele>
        <time>2022-10-19T13:24:14Z</time>
      </trkpt>
      <trkpt lat="49.89852" lon="2.4589">
        <ele>32.9</ele>
        <time>2022-10-19T13:24:15Z</time>
      </trkpt>
      <trkpt lat="49.89852" lon="2.4589">
        <ele>32.9</ele>
        <time>2022-10-19T13:24:16Z</time>
      </trkpt>
      <trkpt lat="49.89852" lon="2.4589">
        <ele>32.9</ele>
        <time>2022-10-19T13:24:17Z</time>
      </trkpt>
      <trkpt lat="49.89852" lon="2.4589">
        <ele>32.9</ele>
        <time>2022-10-19T13:24:18Z</time>
      </trkpt>
      <trkpt lat="49.89852" lon="2.4589">
        <ele>32.9</ele>
        <time>2022-10-19T13:24:19Z</time>
      </trkpt>
      <trkpt lat="49.89852" lon="2.4589">
        <ele>32.9</ele>
        <time>2022-10-19T13:24:20Z</time>
      </trkpt>
      <trkpt lat="49.89852" lon="2.4589">
        <ele>32.9</ele>
        <time>2022-10-19T13:24:21Z</time>
      </trkpt>
      <trkpt lat="49.89852" lon="2.4589">
        <ele>32.9</ele>
        <time>2022-10-19T13:24:22Z</time>
      </trkpt>
      <trkpt lat="49.89852" lon="2.4589">
        <ele>32.9</ele>
        <time>2022-10-19T13:24:23Z</time>
      </trkpt>
      <trkpt lat="49.89852" lon="2.4589">
        <ele>32.9</ele>
        <time>2022-10-19T13:24:24Z</time>
      </trkpt>
      <trkpt lat="49.89852" lon="2.4589">
        <ele>32.9</ele>
        <time>2022-10-19T13:24:25Z</time>
      </trkpt>
      <trkpt lat="49.89853" lon="2.4589">
        <ele>32.9</ele>
        <time>2022-10-19T13:24:26Z</time>
      </trkpt>
      <trkpt lat="49.89853" lon="2.4589">
        <ele>32.9</ele>
        <time>2022-10-19T13:24:27Z</time>
      </trkpt>
      <trkpt lat="49.89853" lon="2.4589">
        <ele>32.9</ele>
        <time>2022-10-19T13:24:28Z</time>
      </trkpt>
      <trkpt lat="49.89853" lon="2.4589">
        <ele>32.9</ele>
        <time>2022-10-19T13:24:29Z</time>
      </trkpt>
      <trkpt lat="49.89853" lon="2.4589">
        <ele>32.9</ele>
        <time>2022-10-19T13:24:30Z</time>
      </trkpt>
      <trkpt lat="49.89853" lon="2.4589">
        <ele>32.9</ele>
        <time>2022-10-19T13:24:31Z</time>
      </trkpt>
      <trkpt lat="49.89853" lon="2.4589">
        <ele>32.9</ele>
        <time>2022-10-19T13:24:32Z</time>
      </trkpt>
      <trkpt lat="49.89853" lon="2.4589">
        <ele>32.9</ele>
        <time>2022-10-19T13:24:33Z</time>
      </trkpt>
      <trkpt lat="49.89853" lon="2.4589">
        <ele>32.9</ele>
        <time>2022-10-19T13:24:34Z</time>
      </trkpt>
      <trkpt lat="49.89853" lon="2.4589">
        <ele>32.9</ele>
        <time>2022-10-19T13:24:35Z</time>
      </trkpt>
      <trkpt lat="49.89853" lon="2.4589">
        <ele>32.9</ele>
        <time>2022-10-19T13:24:36Z</time>
      </trkpt>
      <trkpt lat="49.89853" lon="2.4589">
        <ele>32.9</ele>
        <time>2022-10-19T13:24:37Z</time>
      </trkpt>
      <trkpt lat="49.89853" lon="2.4589">
        <ele>32.9</ele>
        <time>2022-10-19T13:24:38Z</time>
      </trkpt>
      <trkpt lat="49.89853" lon="2.4589">
        <ele>32.9</ele>
        <time>2022-10-19T13:24:39Z</time>
      </trkpt>
      <trkpt lat="49.89853" lon="2.4589">
        <ele>32.9</ele>
        <time>2022-10-19T13:24:40Z</time>
      </trkpt>
      <trkpt lat="49.89853" lon="2.45891">
        <ele>32.9</ele>
        <time>2022-10-19T13:24:41Z</time>
      </trkpt>
      <trkpt lat="49.89853" lon="2.45891">
        <ele>32.9</ele>
        <time>2022-10-19T13:24:42Z</time>
      </trkpt>
      <trkpt lat="49.89853" lon="2.45891">
        <ele>32.9</ele>
        <time>2022-10-19T13:24:43Z</time>
      </trkpt>
      <trkpt lat="49.89853" lon="2.45891">
        <ele>32.9</ele>
        <time>2022-10-19T13:24:44Z</time>
      </trkpt>
      <trkpt lat="49.89853" lon="2.45891">
        <ele>32.9</ele>
        <time>2022-10-19T13:24:45Z</time>
      </trkpt>
      <trkpt lat="49.89853" lon="2.45891">
        <ele>32.9</ele>
        <time>2022-10-19T13:24:46Z</time>
      </trkpt>
      <trkpt lat="49.89853" lon="2.45891">
        <ele>32.9</ele>
        <time>2022-10-19T13:24:47Z</time>
      </trkpt>
      <trkpt lat="49.89853" lon="2.45891">
        <ele>32.9</ele>
        <time>2022-10-19T13:24:48Z</time>
      </trkpt>
      <trkpt lat="49.89853" lon="2.45891">
        <ele>32.9</ele>
        <time>2022-10-19T13:24:49Z</time>
      </trkpt>
      <trkpt lat="49.89853" lon="2.45891">
        <ele>32.9</ele>
        <time>2022-10-19T13:24:50Z</time>
      </trkpt>
      <trkpt lat="49.89853" lon="2.45891">
        <ele>32.9</ele>
        <time>2022-10-19T13:24:51Z</time>
      </trkpt>
      <trkpt lat="49.89853" lon="2.45891">
        <ele>32.9</ele>
        <time>2022-10-19T13:24:52Z</time>
      </trkpt>
      <trkpt lat="49.89853" lon="2.45891">
        <ele>32.9</ele>
        <time>2022-10-19T13:24:53Z</time>
      </trkpt>
      <trkpt lat="49.89853" lon="2.45891">
        <ele>32.9</ele>
        <time>2022-10-19T13:24:54Z</time>
      </trkpt>
      <trkpt lat="49.89853" lon="2.45891">
        <ele>32.9</ele>
        <time>2022-10-19T13:24:55Z</time>
      </trkpt>
      <trkpt lat="49.89853" lon="2.45891">
        <ele>32.9</ele>
        <time>2022-10-19T13:24:56Z</time>
      </trkpt>
      <trkpt lat="49.89853" lon="2.45891">
        <ele>32.9</ele>
        <time>2022-10-19T13:24:57Z</time>
      </trkpt>
      <trkpt lat="49.89853" lon="2.45891">
        <ele>32.9</ele>
        <time>2022-10-19T13:24:58Z</time>
      </trkpt>
      <trkpt lat="49.89853" lon="2.45891">
        <ele>32.9</ele>
        <time>2022-10-19T13:24:59Z</time>
      </trkpt>
      <trkpt lat="49.89853" lon="2.45891">
        <ele>32.9</ele>
        <time>2022-10-19T13:25:00Z</time>
      </trkpt>
      <trkpt lat="49.89853" lon="2.45891">
        <ele>32.9</ele>
        <time>2022-10-19T13:25:01Z</time>
      </trkpt>
      <trkpt lat="49.89853" lon="2.45891">
        <ele>32.9</ele>
        <time>2022-10-19T13:25:02Z</time>
      </trkpt>
      <trkpt lat="49.89853" lon="2.45891">
        <ele>32.9</ele>
        <time>2022-10-19T13:25:03Z</time>
      </trkpt>
      <trkpt lat="49.89853" lon="2.45891">
        <ele>32.9</ele>
        <time>2022-10-19T13:25:04Z</time>
      </trkpt>
      <trkpt lat="49.89853" lon="2.45891">
        <ele>32.9</ele>
        <time>2022-10-19T13:25:05Z</time>
      </trkpt>
      <trkpt lat="49.89853" lon="2.45891">
        <ele>32.9</ele>
        <time>2022-10-19T13:25:06Z</time>
      </trkpt>
      <trkpt lat="49.89854" lon="2.45891">
        <ele>32.9</ele>
        <time>2022-10-19T13:25:07Z</time>
      </trkpt>
      <trkpt lat="49.89854" lon="2.45891">
        <ele>32.9</ele>
        <time>2022-10-19T13:25:08Z</time>
      </trkpt>
      <trkpt lat="49.89854" lon="2.45891">
        <ele>32.9</ele>
        <time>2022-10-19T13:25:09Z</time>
      </trkpt>
      <trkpt lat="49.89854" lon="2.45891">
        <ele>32.9</ele>
        <time>2022-10-19T13:25:10Z</time>
      </trkpt>
      <trkpt lat="49.89854" lon="2.45891">
        <ele>32.9</ele>
        <time>2022-10-19T13:25:11Z</time>
      </trkpt>
      <trkpt lat="49.89854" lon="2.45891">
        <ele>32.9</ele>
        <time>2022-10-19T13:25:12Z</time>
      </trkpt>
      <trkpt lat="49.89854" lon="2.45891">
        <ele>32.9</ele>
        <time>2022-10-19T13:25:13Z</time>
      </trkpt>
      <trkpt lat="49.89854" lon="2.45891">
        <ele>32.9</ele>
        <time>2022-10-19T13:25:14Z</time>
      </trkpt>
      <trkpt lat="49.89854" lon="2.45891">
        <ele>32.9</ele>
        <time>2022-10-19T13:25:15Z</time>
      </trkpt>
      <trkpt lat="49.89854" lon="2.45891">
        <ele>32.9</ele>
        <time>2022-10-19T13:25:16Z</time>
      </trkpt>
      <trkpt lat="49.89854" lon="2.45891">
        <ele>32.9</ele>
        <time>2022-10-19T13:25:17Z</time>
      </trkpt>
      <trkpt lat="49.89854" lon="2.45891">
        <ele>32.9</ele>
        <time>2022-10-19T13:25:18Z</time>
      </trkpt>
      <trkpt lat="49.89854" lon="2.45891">
        <ele>32.9</ele>
        <time>2022-10-19T13:25:19Z</time>
      </trkpt>
      <trkpt lat="49.89854" lon="2.45891">
        <ele>32.9</ele>
        <time>2022-10-19T13:25:20Z</time>
      </trkpt>
      <trkpt lat="49.89854" lon="2.45891">
        <ele>32.9</ele>
        <time>2022-10-19T13:25:21Z</time>
      </trkpt>
      <trkpt lat="49.89854" lon="2.45891">
        <ele>32.9</ele>
        <time>2022-10-19T13:25:22Z</time>
      </trkpt>
      <trkpt lat="49.89854" lon="2.45891">
        <ele>32.9</ele>
        <time>2022-10-19T13:25:23Z</time>
      </trkpt>
      <trkpt lat="49.89854" lon="2.45891">
        <ele>32.9</ele>
        <time>2022-10-19T13:25:24Z</time>
      </trkpt>
      <trkpt lat="49.89854" lon="2.45891">
        <ele>32.9</ele>
        <time>2022-10-19T13:25:25Z</time>
      </trkpt>
      <trkpt lat="49.89854" lon="2.45891">
        <ele>32.9</ele>
        <time>2022-10-19T13:25:26Z</time>
      </trkpt>
      <trkpt lat="49.89854" lon="2.45891">
        <ele>32.9</ele>
        <time>2022-10-19T13:25:27Z</time>
      </trkpt>
      <trkpt lat="49.89854" lon="2.45891">
        <ele>32.9</ele>
        <time>2022-10-19T13:25:28Z</time>
      </trkpt>
      <trkpt lat="49.89854" lon="2.45892">
        <ele>32.9</ele>
        <time>2022-10-19T13:25:29Z</time>
      </trkpt>
      <trkpt lat="49.89854" lon="2.45892">
        <ele>32.9</ele>
        <time>2022-10-19T13:25:30Z</time>
      </trkpt>
      <trkpt lat="49.89854" lon="2.45892">
        <ele>32.9</ele>
        <time>2022-10-19T13:25:31Z</time>
      </trkpt>
      <trkpt lat="49.89854" lon="2.45892">
        <ele>32.9</ele>
        <time>2022-10-19T13:25:32Z</time>
      </trkpt>
      <trkpt lat="49.89854" lon="2.45892">
        <ele>32.9</ele>
        <time>2022-10-19T13:25:33Z</time>
      </trkpt>
      <trkpt lat="49.89854" lon="2.45892">
        <ele>32.9</ele>
        <time>2022-10-19T13:25:34Z</time>
      </trkpt>
      <trkpt lat="49.89854" lon="2.45892">
        <ele>32.9</ele>
        <time>2022-10-19T13:25:35Z</time>
      </trkpt>
      <trkpt lat="49.89854" lon="2.45892">
        <ele>32.9</ele>
        <time>2022-10-19T13:25:36Z</time>
      </trkpt>
      <trkpt lat="49.89854" lon="2.45892">
        <ele>32.9</ele>
        <time>2022-10-19T13:25:37Z</time>
      </trkpt>
      <trkpt lat="49.89854" lon="2.45892">
        <ele>32.9</ele>
        <time>2022-10-19T13:25:38Z</time>
      </trkpt>
      <trkpt lat="49.89854" lon="2.45892">
        <ele>32.9</ele>
        <time>2022-10-19T13:25:39Z</time>
      </trkpt>
      <trkpt lat="49.89854" lon="2.45892">
        <ele>32.9</ele>
        <time>2022-10-19T13:25:40Z</time>
      </trkpt>
      <trkpt lat="49.89854" lon="2.45892">
        <ele>32.9</ele>
        <time>2022-10-19T13:25:41Z</time>
      </trkpt>
      <trkpt lat="49.89854" lon="2.45892">
        <ele>32.9</ele>
        <time>2022-10-19T13:25:42Z</time>
      </trkpt>
      <trkpt lat="49.89854" lon="2.45892">
        <ele>32.9</ele>
        <time>2022-10-19T13:25:43Z</time>
      </trkpt>
      <trkpt lat="49.89854" lon="2.45892">
        <ele>32.9</ele>
        <time>2022-10-19T13:25:44Z</time>
      </trkpt>
      <trkpt lat="49.89854" lon="2.45892">
        <ele>32.9</ele>
        <time>2022-10-19T13:25:45Z</time>
      </trkpt>
      <trkpt lat="49.89854" lon="2.45892">
        <ele>32.9</ele>
        <time>2022-10-19T13:25:46Z</time>
      </trkpt>
      <trkpt lat="49.89854" lon="2.45892">
        <ele>32.9</ele>
        <time>2022-10-19T13:25:47Z</time>
      </trkpt>
      <trkpt lat="49.89855" lon="2.45892">
        <ele>32.9</ele>
        <time>2022-10-19T13:25:48Z</time>
      </trkpt>
      <trkpt lat="49.89855" lon="2.45892">
        <ele>32.9</ele>
        <time>2022-10-19T13:25:49Z</time>
      </trkpt>
      <trkpt lat="49.89855" lon="2.45892">
        <ele>32.9</ele>
        <time>2022-10-19T13:25:50Z</time>
      </trkpt>
      <trkpt lat="49.89855" lon="2.45892">
        <ele>32.9</ele>
        <time>2022-10-19T13:25:51Z</time>
      </trkpt>
      <trkpt lat="49.89855" lon="2.45892">
        <ele>32.9</ele>
        <time>2022-10-19T13:25:52Z</time>
      </trkpt>
      <trkpt lat="49.89855" lon="2.45892">
        <ele>32.9</ele>
        <time>2022-10-19T13:25:53Z</time>
      </trkpt>
      <trkpt lat="49.89855" lon="2.45892">
        <ele>32.9</ele>
        <time>2022-10-19T13:25:54Z</time>
      </trkpt>
      <trkpt lat="49.89855" lon="2.45892">
        <ele>32.9</ele>
        <time>2022-10-19T13:25:55Z</time>
      </trkpt>
      <trkpt lat="49.89856" lon="2.45893">
        <ele>32.9</ele>
        <time>2022-10-19T13:25:56Z</time>
      </trkpt>
      <trkpt lat="49.89857" lon="2.45894">
        <ele>32.9</ele>
        <time>2022-10-19T13:25:57Z</time>
      </trkpt>
      <trkpt lat="49.89858" lon="2.45895">
        <ele>32.8</ele>
        <time>2022-10-19T13:25:58Z</time>
      </trkpt>
      <trkpt lat="49.89859" lon="2.45895">
        <ele>32.8</ele>
        <time>2022-10-19T13:25:59Z</time>
      </trkpt>
      <trkpt lat="49.89861" lon="2.45896">
        <ele>32.8</ele>
        <time>2022-10-19T13:26:00Z</time>
      </trkpt>
      <trkpt lat="49.89863" lon="2.45896">
        <ele>32.8</ele>
        <time>2022-10-19T13:26:01Z</time>
      </trkpt>
      <trkpt lat="49.89864" lon="2.45896">
        <ele>32.8</ele>
        <time>2022-10-19T13:26:02Z</time>
      </trkpt>
      <trkpt lat="49.89865" lon="2.45896">
        <ele>32.7</ele>
        <time>2022-10-19T13:26:03Z</time>
      </trkpt>
      <trkpt lat="49.89868" lon="2.45896">
        <ele>32.7</ele>
        <time>2022-10-19T13:26:04Z</time>
      </trkpt>
      <trkpt lat="49.89869" lon="2.45897">
        <ele>32.7</ele>
        <time>2022-10-19T13:26:05Z</time>
      </trkpt>
      <trkpt lat="49.89872" lon="2.45897">
        <ele>32.6</ele>
        <time>2022-10-19T13:26:06Z</time>
      </trkpt>
      <trkpt lat="49.89873" lon="2.45897">
        <ele>32.6</ele>
        <time>2022-10-19T13:26:07Z</time>
      </trkpt>
      <trkpt lat="49.89874" lon="2.45897">
        <ele>32.6</ele>
        <time>2022-10-19T13:26:08Z</time>
      </trkpt>
      <trkpt lat="49.89875" lon="2.45897">
        <ele>32.6</ele>
        <time>2022-10-19T13:26:09Z</time>
      </trkpt>
      <trkpt lat="49.89875" lon="2.45897">
        <ele>32.6</ele>
        <time>2022-10-19T13:26:10Z</time>
      </trkpt>
      <trkpt lat="49.89876" lon="2.45897">
        <ele>32.6</ele>
        <time>2022-10-19T13:26:11Z</time>
      </trkpt>
      <trkpt lat="49.89877" lon="2.45897">
        <ele>32.6</ele>
        <time>2022-10-19T13:26:12Z</time>
      </trkpt>
      <trkpt lat="49.89879" lon="2.45897">
        <ele>32.5</ele>
        <time>2022-10-19T13:26:13Z</time>
      </trkpt>
      <trkpt lat="49.8988" lon="2.45898">
        <ele>32.5</ele>
        <time>2022-10-19T13:26:14Z</time>
      </trkpt>
      <trkpt lat="49.89881" lon="2.45898">
        <ele>32.5</ele>
        <time>2022-10-19T13:26:15Z</time>
      </trkpt>
      <trkpt lat="49.89883" lon="2.45899">
        <ele>32.5</ele>
        <time>2022-10-19T13:26:16Z</time>
      </trkpt>
      <trkpt lat="49.89885" lon="2.45899">
        <ele>32.5</ele>
        <time>2022-10-19T13:26:17Z</time>
      </trkpt>
      <trkpt lat="49.89886" lon="2.459">
        <ele>32.4</ele>
        <time>2022-10-19T13:26:19Z</time>
      </trkpt>
      <trkpt lat="49.89888" lon="2.45901">
        <ele>32.4</ele>
        <time>2022-10-19T13:26:20Z</time>
      </trkpt>
      <trkpt lat="49.89889" lon="2.45901">
        <ele>32.4</ele>
        <time>2022-10-19T13:26:21Z</time>
      </trkpt>
      <trkpt lat="49.8989" lon="2.45903">
        <ele>32.4</ele>
        <time>2022-10-19T13:26:22Z</time>
      </trkpt>
      <trkpt lat="49.89892" lon="2.45904">
        <ele>32.4</ele>
        <time>2022-10-19T13:26:23Z</time>
      </trkpt>
      <trkpt lat="49.89894" lon="2.45907">
        <ele>32.4</ele>
        <time>2022-10-19T13:26:24Z</time>
      </trkpt>
      <trkpt lat="49.89895" lon="2.45908">
        <ele>32.4</ele>
        <time>2022-10-19T13:26:25Z</time>
      </trkpt>
      <trkpt lat="49.89897" lon="2.4591">
        <ele>32.4</ele>
        <time>2022-10-19T13:26:27Z</time>
      </trkpt>
      <trkpt lat="49.89898" lon="2.45911">
        <ele>32.4</ele>
        <time>2022-10-19T13:26:28Z</time>
      </trkpt>
      <trkpt lat="49.899" lon="2.45913">
        <ele>32.4</ele>
        <time>2022-10-19T13:26:29Z</time>
      </trkpt>
      <trkpt lat="49.89901" lon="2.45914">
        <ele>32.4</ele>
        <time>2022-10-19T13:26:30Z</time>
      </trkpt>
      <trkpt lat="49.89902" lon="2.45916">
        <ele>32.4</ele>
        <time>2022-10-19T13:26:32Z</time>
      </trkpt>
      <trkpt lat="49.89903" lon="2.45917">
        <ele>32.4</ele>
        <time>2022-10-19T13:26:33Z</time>
      </trkpt>
      <trkpt lat="49.89905" lon="2.45919">
        <ele>32.4</ele>
        <time>2022-10-19T13:26:34Z</time>
      </trkpt>
      <trkpt lat="49.89906" lon="2.4592">
        <ele>32.4</ele>
        <time>2022-10-19T13:26:35Z</time>
      </trkpt>
      <trkpt lat="49.89907" lon="2.45921">
        <ele>32.4</ele>
        <time>2022-10-19T13:26:36Z</time>
      </trkpt>
      <trkpt lat="49.89908" lon="2.45923">
        <ele>32.4</ele>
        <time>2022-10-19T13:26:37Z</time>
      </trkpt>
      <trkpt lat="49.89909" lon="2.45923">
        <ele>32.4</ele>
        <time>2022-10-19T13:26:38Z</time>
      </trkpt>
      <trkpt lat="49.8991" lon="2.45924">
        <ele>32.4</ele>
        <time>2022-10-19T13:26:39Z</time>
      </trkpt>
      <trkpt lat="49.89911" lon="2.45926">
        <ele>32.4</ele>
        <time>2022-10-19T13:26:41Z</time>
      </trkpt>
      <trkpt lat="49.89911" lon="2.45927">
        <ele>32.4</ele>
        <time>2022-10-19T13:26:42Z</time>
      </trkpt>
      <trkpt lat="49.89912" lon="2.45928">
        <ele>32.4</ele>
        <time>2022-10-19T13:26:43Z</time>
      </trkpt>
      <trkpt lat="49.89913" lon="2.45929">
        <ele>32.4</ele>
        <time>2022-10-19T13:26:44Z</time>
      </trkpt>
      <trkpt lat="49.89914" lon="2.45931">
        <ele>32.4</ele>
        <time>2022-10-19T13:26:45Z</time>
      </trkpt>
      <trkpt lat="49.89914" lon="2.45933">
        <ele>32.4</ele>
        <time>2022-10-19T13:26:47Z</time>
      </trkpt>
      <trkpt lat="49.89915" lon="2.45934">
        <ele>32.4</ele>
        <time>2022-10-19T13:26:48Z</time>
      </trkpt>
      <trkpt lat="49.89916" lon="2.45935">
        <ele>32.4</ele>
        <time>2022-10-19T13:26:49Z</time>
      </trkpt>
      <trkpt lat="49.89917" lon="2.45936">
        <ele>32.4</ele>
        <time>2022-10-19T13:26:50Z</time>
      </trkpt>
      <trkpt lat="49.89917" lon="2.45938">
        <ele>32.4</ele>
        <time>2022-10-19T13:26:51Z</time>
      </trkpt>
      <trkpt lat="49.89918" lon="2.45939">
        <ele>32.4</ele>
        <time>2022-10-19T13:26:52Z</time>
      </trkpt>
      <trkpt lat="49.89919" lon="2.45941">
        <ele>32.4</ele>
        <time>2022-10-19T13:26:53Z</time>
      </trkpt>
      <trkpt lat="49.8992" lon="2.45942">
        <ele>32.4</ele>
        <time>2022-10-19T13:26:54Z</time>
      </trkpt>
      <trkpt lat="49.89922" lon="2.45946">
        <ele>32.4</ele>
        <time>2022-10-19T13:26:56Z</time>
      </trkpt>
      <trkpt lat="49.89922" lon="2.45946">
        <ele>32.4</ele>
        <time>2022-10-19T13:26:57Z</time>
      </trkpt>
      <trkpt lat="49.89923" lon="2.45947">
        <ele>32.4</ele>
        <time>2022-10-19T13:26:58Z</time>
      </trkpt>
      <trkpt lat="49.89924" lon="2.45949">
        <ele>32.4</ele>
        <time>2022-10-19T13:26:59Z</time>
      </trkpt>
      <trkpt lat="49.89924" lon="2.4595">
        <ele>32.4</ele>
        <time>2022-10-19T13:27:00Z</time>
      </trkpt>
      <trkpt lat="49.89925" lon="2.45952">
        <ele>32.4</ele>
        <time>2022-10-19T13:27:01Z</time>
      </trkpt>
      <trkpt lat="49.89926" lon="2.45952">
        <ele>32.4</ele>
        <time>2022-10-19T13:27:02Z</time>
      </trkpt>
      <trkpt lat="49.89927" lon="2.45954">
        <ele>32.4</ele>
        <time>2022-10-19T13:27:04Z</time>
      </trkpt>
      <trkpt lat="49.89928" lon="2.45956">
        <ele>32.4</ele>
        <time>2022-10-19T13:27:05Z</time>
      </trkpt>
      <trkpt lat="49.89929" lon="2.45957">
        <ele>32.4</ele>
        <time>2022-10-19T13:27:06Z</time>
      </trkpt>
      <trkpt lat="49.8993" lon="2.45958">
        <ele>32.4</ele>
        <time>2022-10-19T13:27:07Z</time>
      </trkpt>
      <trkpt lat="49.89931" lon="2.45959">
        <ele>32.4</ele>
        <time>2022-10-19T13:27:08Z</time>
      </trkpt>
      <trkpt lat="49.89931" lon="2.4596">
        <ele>32.4</ele>
        <time>2022-10-19T13:27:09Z</time>
      </trkpt>
      <trkpt lat="49.89932" lon="2.4596">
        <ele>32.4</ele>
        <time>2022-10-19T13:27:10Z</time>
      </trkpt>
      <trkpt lat="49.89931" lon="2.45959">
        <ele>32.4</ele>
        <time>2022-10-19T13:27:11Z</time>
      </trkpt>
      <trkpt lat="49.89931" lon="2.4596">
        <ele>32.4</ele>
        <time>2022-10-19T13:27:13Z</time>
      </trkpt>
      <trkpt lat="49.89932" lon="2.45961">
        <ele>32.4</ele>
        <time>2022-10-19T13:27:14Z</time>
      </trkpt>
      <trkpt lat="49.89932" lon="2.45962">
        <ele>32.4</ele>
        <time>2022-10-19T13:27:15Z</time>
      </trkpt>
      <trkpt lat="49.89934" lon="2.45965">
        <ele>32.4</ele>
        <time>2022-10-19T13:27:16Z</time>
      </trkpt>
      <trkpt lat="49.89935" lon="2.45966">
        <ele>32.4</ele>
        <time>2022-10-19T13:27:17Z</time>
      </trkpt>
      <trkpt lat="49.89936" lon="2.45969">
        <ele>32.4</ele>
        <time>2022-10-19T13:27:19Z</time>
      </trkpt>
      <trkpt lat="49.89937" lon="2.4597">
        <ele>32.4</ele>
        <time>2022-10-19T13:27:20Z</time>
      </trkpt>
      <trkpt lat="49.89938" lon="2.45971">
        <ele>32.4</ele>
        <time>2022-10-19T13:27:21Z</time>
      </trkpt>
      <trkpt lat="49.8994" lon="2.45974">
        <ele>32.4</ele>
        <time>2022-10-19T13:27:22Z</time>
      </trkpt>
      <trkpt lat="49.8994" lon="2.45975">
        <ele>32.4</ele>
        <time>2022-10-19T13:27:23Z</time>
      </trkpt>
      <trkpt lat="49.89942" lon="2.45978">
        <ele>32.5</ele>
        <time>2022-10-19T13:27:24Z</time>
      </trkpt>
      <trkpt lat="49.89943" lon="2.4598">
        <ele>32.5</ele>
        <time>2022-10-19T13:27:26Z</time>
      </trkpt>
      <trkpt lat="49.89944" lon="2.45982">
        <ele>32.5</ele>
        <time>2022-10-19T13:27:27Z</time>
      </trkpt>
      <trkpt lat="49.89945" lon="2.45984">
        <ele>32.5</ele>
        <time>2022-10-19T13:27:28Z</time>
      </trkpt>
      <trkpt lat="49.89947" lon="2.45987">
        <ele>32.5</ele>
        <time>2022-10-19T13:27:29Z</time>
      </trkpt>
      <trkpt lat="49.89947" lon="2.45988">
        <ele>32.5</ele>
        <time>2022-10-19T13:27:30Z</time>
      </trkpt>
      <trkpt lat="49.89948" lon="2.45989">
        <ele>32.5</ele>
        <time>2022-10-19T13:27:31Z</time>
      </trkpt>
      <trkpt lat="49.89949" lon="2.45991">
        <ele>32.6</ele>
        <time>2022-10-19T13:27:32Z</time>
      </trkpt>
      <trkpt lat="49.8995" lon="2.45993">
        <ele>32.6</ele>
        <time>2022-10-19T13:27:33Z</time>
      </trkpt>
      <trkpt lat="49.89951" lon="2.45996">
        <ele>32.6</ele>
        <time>2022-10-19T13:27:35Z</time>
      </trkpt>
      <trkpt lat="49.89952" lon="2.45997">
        <ele>32.6</ele>
        <time>2022-10-19T13:27:36Z</time>
      </trkpt>
      <trkpt lat="49.89954" lon="2.46">
        <ele>32.6</ele>
        <time>2022-10-19T13:27:37Z</time>
      </trkpt>
      <trkpt lat="49.89954" lon="2.46001">
        <ele>32.7</ele>
        <time>2022-10-19T13:27:38Z</time>
      </trkpt>
      <trkpt lat="49.89955" lon="2.46002">
        <ele>32.7</ele>
        <time>2022-10-19T13:27:39Z</time>
      </trkpt>
      <trkpt lat="49.89956" lon="2.46004">
        <ele>32.7</ele>
        <time>2022-10-19T13:27:40Z</time>
      </trkpt>
      <trkpt lat="49.89957" lon="2.46005">
        <ele>32.7</ele>
        <time>2022-10-19T13:27:41Z</time>
      </trkpt>
      <trkpt lat="49.89958" lon="2.46006">
        <ele>32.7</ele>
        <time>2022-10-19T13:27:43Z</time>
      </trkpt>
      <trkpt lat="49.89959" lon="2.46007">
        <ele>32.7</ele>
        <time>2022-10-19T13:27:44Z</time>
      </trkpt>
      <trkpt lat="49.89959" lon="2.46008">
        <ele>32.8</ele>
        <time>2022-10-19T13:27:45Z</time>
      </trkpt>
      <trkpt lat="49.89961" lon="2.46011">
        <ele>32.8</ele>
        <time>2022-10-19T13:27:46Z</time>
      </trkpt>
      <trkpt lat="49.89961" lon="2.46012">
        <ele>32.8</ele>
        <time>2022-10-19T13:27:47Z</time>
      </trkpt>
      <trkpt lat="49.89962" lon="2.46012">
        <ele>32.8</ele>
        <time>2022-10-19T13:27:48Z</time>
      </trkpt>
      <trkpt lat="49.89963" lon="2.46014">
        <ele>32.8</ele>
        <time>2022-10-19T13:27:49Z</time>
      </trkpt>
      <trkpt lat="49.89964" lon="2.46015">
        <ele>32.9</ele>
        <time>2022-10-19T13:27:50Z</time>
      </trkpt>
      <trkpt lat="49.89965" lon="2.46017">
        <ele>32.9</ele>
        <time>2022-10-19T13:27:52Z</time>
      </trkpt>
      <trkpt lat="49.89966" lon="2.46018">
        <ele>32.9</ele>
        <time>2022-10-19T13:27:53Z</time>
      </trkpt>
      <trkpt lat="49.89966" lon="2.46018">
        <ele>32.9</ele>
        <time>2022-10-19T13:27:54Z</time>
      </trkpt>
      <trkpt lat="49.89967" lon="2.46019">
        <ele>32.9</ele>
        <time>2022-10-19T13:27:55Z</time>
      </trkpt>
      <trkpt lat="49.89968" lon="2.4602">
        <ele>33</ele>
        <time>2022-10-19T13:27:56Z</time>
      </trkpt>
      <trkpt lat="49.89969" lon="2.46021">
        <ele>33</ele>
        <time>2022-10-19T13:27:57Z</time>
      </trkpt>
      <trkpt lat="49.89969" lon="2.46023">
        <ele>33</ele>
        <time>2022-10-19T13:27:58Z</time>
      </trkpt>
      <trkpt lat="49.8997" lon="2.46024">
        <ele>33</ele>
        <time>2022-10-19T13:27:59Z</time>
      </trkpt>
      <trkpt lat="49.89971" lon="2.46026">
        <ele>33</ele>
        <time>2022-10-19T13:28:00Z</time>
      </trkpt>
      <trkpt lat="49.89972" lon="2.46027">
        <ele>33.1</ele>
        <time>2022-10-19T13:28:02Z</time>
      </trkpt>
      <trkpt lat="49.89972" lon="2.46028">
        <ele>33.1</ele>
        <time>2022-10-19T13:28:03Z</time>
      </trkpt>
      <trkpt lat="49.89972" lon="2.4603">
        <ele>33.1</ele>
        <time>2022-10-19T13:28:04Z</time>
      </trkpt>
      <trkpt lat="49.89971" lon="2.46031">
        <ele>33.1</ele>
        <time>2022-10-19T13:28:05Z</time>
      </trkpt>
      <trkpt lat="49.89971" lon="2.46032">
        <ele>33.1</ele>
        <time>2022-10-19T13:28:06Z</time>
      </trkpt>
      <trkpt lat="49.89971" lon="2.46034">
        <ele>33.2</ele>
        <time>2022-10-19T13:28:08Z</time>
      </trkpt>
      <trkpt lat="49.89972" lon="2.46035">
        <ele>33.2</ele>
        <time>2022-10-19T13:28:09Z</time>
      </trkpt>
      <trkpt lat="49.89973" lon="2.46036">
        <ele>33.2</ele>
        <time>2022-10-19T13:28:10Z</time>
      </trkpt>
      <trkpt lat="49.89974" lon="2.46037">
        <ele>33.2</ele>
        <time>2022-10-19T13:28:11Z</time>
      </trkpt>
      <trkpt lat="49.89975" lon="2.46038">
        <ele>33.2</ele>
        <time>2022-10-19T13:28:12Z</time>
      </trkpt>
      <trkpt lat="49.89976" lon="2.46038">
        <ele>33.3</ele>
        <time>2022-10-19T13:28:13Z</time>
      </trkpt>
      <trkpt lat="49.89977" lon="2.46039">
        <ele>33.3</ele>
        <time>2022-10-19T13:28:14Z</time>
      </trkpt>
      <trkpt lat="49.89979" lon="2.46041">
        <ele>33.3</ele>
        <time>2022-10-19T13:28:16Z</time>
      </trkpt>
      <trkpt lat="49.8998" lon="2.46042">
        <ele>33.3</ele>
        <time>2022-10-19T13:28:17Z</time>
      </trkpt>
      <trkpt lat="49.89981" lon="2.46043">
        <ele>33.4</ele>
        <time>2022-10-19T13:28:18Z</time>
      </trkpt>
      <trkpt lat="49.89982" lon="2.46044">
        <ele>33.4</ele>
        <time>2022-10-19T13:28:20Z</time>
      </trkpt>
      <trkpt lat="49.89983" lon="2.46045">
        <ele>33.4</ele>
        <time>2022-10-19T13:28:21Z</time>
      </trkpt>
      <trkpt lat="49.89984" lon="2.46046">
        <ele>33.4</ele>
        <time>2022-10-19T13:28:22Z</time>
      </trkpt>
      <trkpt lat="49.89985" lon="2.46047">
        <ele>33.5</ele>
        <time>2022-10-19T13:28:23Z</time>
      </trkpt>
      <trkpt lat="49.89986" lon="2.46048">
        <ele>33.5</ele>
        <time>2022-10-19T13:28:24Z</time>
      </trkpt>
      <trkpt lat="49.89987" lon="2.46049">
        <ele>33.5</ele>
        <time>2022-10-19T13:28:25Z</time>
      </trkpt>
      <trkpt lat="49.89988" lon="2.4605">
        <ele>33.5</ele>
        <time>2022-10-19T13:28:26Z</time>
      </trkpt>
      <trkpt lat="49.89989" lon="2.46051">
        <ele>33.5</ele>
        <time>2022-10-19T13:28:27Z</time>
      </trkpt>
      <trkpt lat="49.8999" lon="2.46053">
        <ele>33.6</ele>
        <time>2022-10-19T13:28:29Z</time>
      </trkpt>
      <trkpt lat="49.89991" lon="2.46054">
        <ele>33.6</ele>
        <time>2022-10-19T13:28:30Z</time>
      </trkpt>
      <trkpt lat="49.89992" lon="2.46056">
        <ele>33.6</ele>
        <time>2022-10-19T13:28:31Z</time>
      </trkpt>
      <trkpt lat="49.89993" lon="2.46057">
        <ele>33.6</ele>
        <time>2022-10-19T13:28:32Z</time>
      </trkpt>
      <trkpt lat="49.89993" lon="2.46059">
        <ele>33.7</ele>
        <time>2022-10-19T13:28:33Z</time>
      </trkpt>
      <trkpt lat="49.89994" lon="2.4606">
        <ele>33.7</ele>
        <time>2022-10-19T13:28:34Z</time>
      </trkpt>
      <trkpt lat="49.89995" lon="2.46062">
        <ele>33.7</ele>
        <time>2022-10-19T13:28:35Z</time>
      </trkpt>
      <trkpt lat="49.89996" lon="2.46064">
        <ele>33.7</ele>
        <time>2022-10-19T13:28:36Z</time>
      </trkpt>
      <trkpt lat="49.89996" lon="2.46065">
        <ele>33.7</ele>
        <time>2022-10-19T13:28:37Z</time>
      </trkpt>
      <trkpt lat="49.89997" lon="2.46068">
        <ele>33.8</ele>
        <time>2022-10-19T13:28:39Z</time>
      </trkpt>
      <trkpt lat="49.89998" lon="2.46069">
        <ele>33.8</ele>
        <time>2022-10-19T13:28:40Z</time>
      </trkpt>
      <trkpt lat="49.89998" lon="2.4607">
        <ele>33.8</ele>
        <time>2022-10-19T13:28:41Z</time>
      </trkpt>
      <trkpt lat="49.89999" lon="2.46072">
        <ele>33.8</ele>
        <time>2022-10-19T13:28:42Z</time>
      </trkpt>
      <trkpt lat="49.9" lon="2.46073">
        <ele>33.8</ele>
        <time>2022-10-19T13:28:43Z</time>
      </trkpt>
      <trkpt lat="49.9" lon="2.46074">
        <ele>33.8</ele>
        <time>2022-10-19T13:28:44Z</time>
      </trkpt>
      <trkpt lat="49.90002" lon="2.46076">
        <ele>33.9</ele>
        <time>2022-10-19T13:28:45Z</time>
      </trkpt>
      <trkpt lat="49.90003" lon="2.46077">
        <ele>33.9</ele>
        <time>2022-10-19T13:28:46Z</time>
      </trkpt>
      <trkpt lat="49.90004" lon="2.46079">
        <ele>33.9</ele>
        <time>2022-10-19T13:28:48Z</time>
      </trkpt>
      <trkpt lat="49.90004" lon="2.4608">
        <ele>33.9</ele>
        <time>2022-10-19T13:28:49Z</time>
      </trkpt>
      <trkpt lat="49.90005" lon="2.46081">
        <ele>33.9</ele>
        <time>2022-10-19T13:28:50Z</time>
      </trkpt>
      <trkpt lat="49.90006" lon="2.46082">
        <ele>33.9</ele>
        <time>2022-10-19T13:28:51Z</time>
      </trkpt>
      <trkpt lat="49.90006" lon="2.46083">
        <ele>34</ele>
        <time>2022-10-19T13:28:52Z</time>
      </trkpt>
      <trkpt lat="49.90007" lon="2.46085">
        <ele>34</ele>
        <time>2022-10-19T13:28:53Z</time>
      </trkpt>
      <trkpt lat="49.90007" lon="2.46086">
        <ele>34</ele>
        <time>2022-10-19T13:28:54Z</time>
      </trkpt>
      <trkpt lat="49.90008" lon="2.46088">
        <ele>34</ele>
        <time>2022-10-19T13:28:55Z</time>
      </trkpt>
      <trkpt lat="49.90009" lon="2.4609">
        <ele>34</ele>
        <time>2022-10-19T13:28:57Z</time>
      </trkpt>
      <trkpt lat="49.90009" lon="2.46091">
        <ele>34</ele>
        <time>2022-10-19T13:28:58Z</time>
      </trkpt>
      <trkpt lat="49.9001" lon="2.46093">
        <ele>34</ele>
        <time>2022-10-19T13:28:59Z</time>
      </trkpt>
      <trkpt lat="49.90011" lon="2.46094">
        <ele>34.1</ele>
        <time>2022-10-19T13:29:00Z</time>
      </trkpt>
      <trkpt lat="49.90012" lon="2.46097">
        <ele>34.1</ele>
        <time>2022-10-19T13:29:01Z</time>
      </trkpt>
      <trkpt lat="49.90013" lon="2.46098">
        <ele>34.1</ele>
        <time>2022-10-19T13:29:02Z</time>
      </trkpt>
      <trkpt lat="49.90013" lon="2.46099">
        <ele>34.1</ele>
        <time>2022-10-19T13:29:03Z</time>
      </trkpt>
      <trkpt lat="49.90014" lon="2.46101">
        <ele>34.1</ele>
        <time>2022-10-19T13:29:04Z</time>
      </trkpt>
      <trkpt lat="49.90015" lon="2.46102">
        <ele>34.2</ele>
        <time>2022-10-19T13:29:05Z</time>
      </trkpt>
      <trkpt lat="49.90016" lon="2.46105">
        <ele>34.2</ele>
        <time>2022-10-19T13:29:06Z</time>
      </trkpt>
      <trkpt lat="49.90017" lon="2.46106">
        <ele>34.2</ele>
        <time>2022-10-19T13:29:08Z</time>
      </trkpt>
      <trkpt lat="49.90018" lon="2.46108">
        <ele>34.2</ele>
        <time>2022-10-19T13:29:09Z</time>
      </trkpt>
      <trkpt lat="49.90019" lon="2.46109">
        <ele>34.3</ele>
        <time>2022-10-19T13:29:10Z</time>
      </trkpt>
      <trkpt lat="49.9002" lon="2.4611">
        <ele>34.3</ele>
        <time>2022-10-19T13:29:11Z</time>
      </trkpt>
      <trkpt lat="49.9002" lon="2.46111">
        <ele>34.3</ele>
        <time>2022-10-19T13:29:13Z</time>
      </trkpt>
      <trkpt lat="49.90021" lon="2.46113">
        <ele>34.3</ele>
        <time>2022-10-19T13:29:14Z</time>
      </trkpt>
      <trkpt lat="49.90021" lon="2.46114">
        <ele>34.3</ele>
        <time>2022-10-19T13:29:15Z</time>
      </trkpt>
      <trkpt lat="49.90022" lon="2.46115">
        <ele>34.3</ele>
        <time>2022-10-19T13:29:16Z</time>
      </trkpt>
      <trkpt lat="49.90023" lon="2.46117">
        <ele>34.4</ele>
        <time>2022-10-19T13:29:17Z</time>
      </trkpt>
      <trkpt lat="49.90024" lon="2.46118">
        <ele>34.4</ele>
        <time>2022-10-19T13:29:18Z</time>
      </trkpt>
      <trkpt lat="49.90025" lon="2.46119">
        <ele>34.4</ele>
        <time>2022-10-19T13:29:19Z</time>
      </trkpt>
      <trkpt lat="49.90025" lon="2.4612">
        <ele>34.4</ele>
        <time>2022-10-19T13:29:20Z</time>
      </trkpt>
      <trkpt lat="49.90026" lon="2.46123">
        <ele>34.4</ele>
        <time>2022-10-19T13:29:22Z</time>
      </trkpt>
      <trkpt lat="49.90027" lon="2.46124">
        <ele>34.5</ele>
        <time>2022-10-19T13:29:23Z</time>
      </trkpt>
      <trkpt lat="49.90027" lon="2.46125">
        <ele>34.5</ele>
        <time>2022-10-19T13:29:24Z</time>
      </trkpt>
      <trkpt lat="49.90028" lon="2.46127">
        <ele>34.5</ele>
        <time>2022-10-19T13:29:25Z</time>
      </trkpt>
      <trkpt lat="49.90028" lon="2.46128">
        <ele>34.5</ele>
        <time>2022-10-19T13:29:26Z</time>
      </trkpt>
      <trkpt lat="49.90029" lon="2.4613">
        <ele>34.5</ele>
        <time>2022-10-19T13:29:27Z</time>
      </trkpt>
      <trkpt lat="49.90029" lon="2.46132">
        <ele>34.6</ele>
        <time>2022-10-19T13:29:29Z</time>
      </trkpt>
      <trkpt lat="49.9003" lon="2.46135">
        <ele>34.6</ele>
        <time>2022-10-19T13:29:30Z</time>
      </trkpt>
      <trkpt lat="49.9003" lon="2.46136">
        <ele>34.6</ele>
        <time>2022-10-19T13:29:31Z</time>
      </trkpt>
      <trkpt lat="49.90031" lon="2.46137">
        <ele>34.6</ele>
        <time>2022-10-19T13:29:32Z</time>
      </trkpt>
      <trkpt lat="49.90031" lon="2.46139">
        <ele>34.6</ele>
        <time>2022-10-19T13:29:33Z</time>
      </trkpt>
      <trkpt lat="49.90032" lon="2.4614">
        <ele>34.7</ele>
        <time>2022-10-19T13:29:34Z</time>
      </trkpt>
      <trkpt lat="49.90032" lon="2.46142">
        <ele>34.7</ele>
        <time>2022-10-19T13:29:35Z</time>
      </trkpt>
      <trkpt lat="49.90033" lon="2.46144">
        <ele>34.7</ele>
        <time>2022-10-19T13:29:37Z</time>
      </trkpt>
      <trkpt lat="49.90034" lon="2.46146">
        <ele>34.7</ele>
        <time>2022-10-19T13:29:38Z</time>
      </trkpt>
      <trkpt lat="49.90035" lon="2.46148">
        <ele>34.8</ele>
        <time>2022-10-19T13:29:39Z</time>
      </trkpt>
      <trkpt lat="49.90036" lon="2.46149">
        <ele>34.8</ele>
        <time>2022-10-19T13:29:40Z</time>
      </trkpt>
      <trkpt lat="49.90036" lon="2.4615">
        <ele>34.8</ele>
        <time>2022-10-19T13:29:41Z</time>
      </trkpt>
      <trkpt lat="49.90038" lon="2.46153">
        <ele>34.9</ele>
        <time>2022-10-19T13:29:42Z</time>
      </trkpt>
      <trkpt lat="49.90038" lon="2.46155">
        <ele>34.9</ele>
        <time>2022-10-19T13:29:44Z</time>
      </trkpt>
      <trkpt lat="49.90039" lon="2.46156">
        <ele>34.9</ele>
        <time>2022-10-19T13:29:45Z</time>
      </trkpt>
      <trkpt lat="49.9004" lon="2.46157">
        <ele>34.9</ele>
        <time>2022-10-19T13:29:46Z</time>
      </trkpt>
      <trkpt lat="49.9004" lon="2.46158">
        <ele>35</ele>
        <time>2022-10-19T13:29:47Z</time>
      </trkpt>
      <trkpt lat="49.90041" lon="2.46159">
        <ele>35</ele>
        <time>2022-10-19T13:29:48Z</time>
      </trkpt>
      <trkpt lat="49.90042" lon="2.4616">
        <ele>35</ele>
        <time>2022-10-19T13:29:49Z</time>
      </trkpt>
      <trkpt lat="49.90042" lon="2.46162">
        <ele>35</ele>
        <time>2022-10-19T13:29:50Z</time>
      </trkpt>
      <trkpt lat="49.90043" lon="2.46163">
        <ele>35.1</ele>
        <time>2022-10-19T13:29:51Z</time>
      </trkpt>
      <trkpt lat="49.90044" lon="2.46165">
        <ele>35.1</ele>
        <time>2022-10-19T13:29:52Z</time>
      </trkpt>
      <trkpt lat="49.90045" lon="2.46166">
        <ele>35.1</ele>
        <time>2022-10-19T13:29:53Z</time>
      </trkpt>
      <trkpt lat="49.90046" lon="2.46168">
        <ele>35.1</ele>
        <time>2022-10-19T13:29:55Z</time>
      </trkpt>
      <trkpt lat="49.90047" lon="2.46169">
        <ele>35.2</ele>
        <time>2022-10-19T13:29:56Z</time>
      </trkpt>
      <trkpt lat="49.90047" lon="2.4617">
        <ele>35.2</ele>
        <time>2022-10-19T13:29:57Z</time>
      </trkpt>
      <trkpt lat="49.90048" lon="2.46171">
        <ele>35.2</ele>
        <time>2022-10-19T13:29:58Z</time>
      </trkpt>
      <trkpt lat="49.90049" lon="2.46172">
        <ele>35.2</ele>
        <time>2022-10-19T13:29:59Z</time>
      </trkpt>
      <trkpt lat="49.9005" lon="2.46174">
        <ele>35.3</ele>
        <time>2022-10-19T13:30:00Z</time>
      </trkpt>
      <trkpt lat="49.90051" lon="2.46176">
        <ele>35.3</ele>
        <time>2022-10-19T13:30:01Z</time>
      </trkpt>
      <trkpt lat="49.90052" lon="2.46177">
        <ele>35.3</ele>
        <time>2022-10-19T13:30:03Z</time>
      </trkpt>
      <trkpt lat="49.90052" lon="2.46178">
        <ele>35.3</ele>
        <time>2022-10-19T13:30:04Z</time>
      </trkpt>
      <trkpt lat="49.90054" lon="2.4618">
        <ele>35.4</ele>
        <time>2022-10-19T13:30:05Z</time>
      </trkpt>
      <trkpt lat="49.90054" lon="2.46181">
        <ele>35.4</ele>
        <time>2022-10-19T13:30:06Z</time>
      </trkpt>
      <trkpt lat="49.90055" lon="2.46182">
        <ele>35.4</ele>
        <time>2022-10-19T13:30:07Z</time>
      </trkpt>
      <trkpt lat="49.90056" lon="2.46183">
        <ele>35.5</ele>
        <time>2022-10-19T13:30:08Z</time>
      </trkpt>
      <trkpt lat="49.90057" lon="2.46184">
        <ele>35.5</ele>
        <time>2022-10-19T13:30:09Z</time>
      </trkpt>
      <trkpt lat="49.90058" lon="2.46185">
        <ele>35.5</ele>
        <time>2022-10-19T13:30:11Z</time>
      </trkpt>
      <trkpt lat="49.90059" lon="2.46187">
        <ele>35.6</ele>
        <time>2022-10-19T13:30:12Z</time>
      </trkpt>
      <trkpt lat="49.90059" lon="2.46188">
        <ele>35.6</ele>
        <time>2022-10-19T13:30:13Z</time>
      </trkpt>
      <trkpt lat="49.9006" lon="2.46189">
        <ele>35.6</ele>
        <time>2022-10-19T13:30:14Z</time>
      </trkpt>
      <trkpt lat="49.90061" lon="2.46191">
        <ele>35.6</ele>
        <time>2022-10-19T13:30:15Z</time>
      </trkpt>
      <trkpt lat="49.90062" lon="2.46192">
        <ele>35.7</ele>
        <time>2022-10-19T13:30:16Z</time>
      </trkpt>
      <trkpt lat="49.90062" lon="2.46193">
        <ele>35.7</ele>
        <time>2022-10-19T13:30:17Z</time>
      </trkpt>
      <trkpt lat="49.90063" lon="2.46195">
        <ele>35.7</ele>
        <time>2022-10-19T13:30:18Z</time>
      </trkpt>
      <trkpt lat="49.90064" lon="2.46196">
        <ele>35.8</ele>
        <time>2022-10-19T13:30:20Z</time>
      </trkpt>
      <trkpt lat="49.90065" lon="2.46197">
        <ele>35.8</ele>
        <time>2022-10-19T13:30:21Z</time>
      </trkpt>
      <trkpt lat="49.90066" lon="2.462">
        <ele>35.8</ele>
        <time>2022-10-19T13:30:22Z</time>
      </trkpt>
      <trkpt lat="49.90067" lon="2.46201">
        <ele>35.9</ele>
        <time>2022-10-19T13:30:23Z</time>
      </trkpt>
      <trkpt lat="49.90067" lon="2.46202">
        <ele>35.9</ele>
        <time>2022-10-19T13:30:24Z</time>
      </trkpt>
      <trkpt lat="49.90068" lon="2.46204">
        <ele>35.9</ele>
        <time>2022-10-19T13:30:25Z</time>
      </trkpt>
      <trkpt lat="49.90069" lon="2.46206">
        <ele>35.9</ele>
        <time>2022-10-19T13:30:26Z</time>
      </trkpt>
      <trkpt lat="49.90069" lon="2.46207">
        <ele>36</ele>
        <time>2022-10-19T13:30:27Z</time>
      </trkpt>
      <trkpt lat="49.9007" lon="2.46208">
        <ele>36</ele>
        <time>2022-10-19T13:30:29Z</time>
      </trkpt>
      <trkpt lat="49.9007" lon="2.4621">
        <ele>36</ele>
        <time>2022-10-19T13:30:30Z</time>
      </trkpt>
      <trkpt lat="49.90071" lon="2.46211">
        <ele>36.1</ele>
        <time>2022-10-19T13:30:31Z</time>
      </trkpt>
      <trkpt lat="49.90072" lon="2.46215">
        <ele>36.1</ele>
        <time>2022-10-19T13:30:32Z</time>
      </trkpt>
      <trkpt lat="49.90073" lon="2.46217">
        <ele>36.2</ele>
        <time>2022-10-19T13:30:34Z</time>
      </trkpt>
      <trkpt lat="49.90074" lon="2.46219">
        <ele>36.2</ele>
        <time>2022-10-19T13:30:35Z</time>
      </trkpt>
      <trkpt lat="49.90074" lon="2.46221">
        <ele>36.2</ele>
        <time>2022-10-19T13:30:36Z</time>
      </trkpt>
      <trkpt lat="49.90075" lon="2.46222">
        <ele>36.3</ele>
        <time>2022-10-19T13:30:37Z</time>
      </trkpt>
      <trkpt lat="49.90075" lon="2.46223">
        <ele>36.3</ele>
        <time>2022-10-19T13:30:38Z</time>
      </trkpt>
      <trkpt lat="49.90076" lon="2.46225">
        <ele>36.3</ele>
        <time>2022-10-19T13:30:39Z</time>
      </trkpt>
      <trkpt lat="49.90076" lon="2.46226">
        <ele>36.4</ele>
        <time>2022-10-19T13:30:40Z</time>
      </trkpt>
      <trkpt lat="49.90077" lon="2.46228">
        <ele>36.4</ele>
        <time>2022-10-19T13:30:41Z</time>
      </trkpt>
      <trkpt lat="49.90078" lon="2.4623">
        <ele>36.5</ele>
        <time>2022-10-19T13:30:43Z</time>
      </trkpt>
      <trkpt lat="49.90078" lon="2.46231">
        <ele>36.5</ele>
        <time>2022-10-19T13:30:44Z</time>
      </trkpt>
      <trkpt lat="49.90079" lon="2.46234">
        <ele>36.6</ele>
        <time>2022-10-19T13:30:45Z</time>
      </trkpt>
      <trkpt lat="49.9008" lon="2.46235">
        <ele>36.6</ele>
        <time>2022-10-19T13:30:46Z</time>
      </trkpt>
      <trkpt lat="49.90081" lon="2.46237">
        <ele>36.7</ele>
        <time>2022-10-19T13:30:47Z</time>
      </trkpt>
      <trkpt lat="49.90081" lon="2.46238">
        <ele>36.7</ele>
        <time>2022-10-19T13:30:48Z</time>
      </trkpt>
      <trkpt lat="49.90081" lon="2.46239">
        <ele>36.7</ele>
        <time>2022-10-19T13:30:49Z</time>
      </trkpt>
      <trkpt lat="49.90082" lon="2.46241">
        <ele>36.8</ele>
        <time>2022-10-19T13:30:50Z</time>
      </trkpt>
      <trkpt lat="49.90083" lon="2.46244">
        <ele>36.8</ele>
        <time>2022-10-19T13:30:52Z</time>
      </trkpt>
      <trkpt lat="49.90084" lon="2.46245">
        <ele>36.9</ele>
        <time>2022-10-19T13:30:53Z</time>
      </trkpt>
      <trkpt lat="49.90084" lon="2.46246">
        <ele>36.9</ele>
        <time>2022-10-19T13:30:54Z</time>
      </trkpt>
      <trkpt lat="49.90085" lon="2.46247">
        <ele>37</ele>
        <time>2022-10-19T13:30:55Z</time>
      </trkpt>
      <trkpt lat="49.90087" lon="2.46249">
        <ele>37</ele>
        <time>2022-10-19T13:30:57Z</time>
      </trkpt>
      <trkpt lat="49.90088" lon="2.4625">
        <ele>37.1</ele>
        <time>2022-10-19T13:30:58Z</time>
      </trkpt>
      <trkpt lat="49.90088" lon="2.46252">
        <ele>37.1</ele>
        <time>2022-10-19T13:30:59Z</time>
      </trkpt>
      <trkpt lat="49.90089" lon="2.46253">
        <ele>37.2</ele>
        <time>2022-10-19T13:31:01Z</time>
      </trkpt>
      <trkpt lat="49.9009" lon="2.46255">
        <ele>37.3</ele>
        <time>2022-10-19T13:31:02Z</time>
      </trkpt>
      <trkpt lat="49.90091" lon="2.46257">
        <ele>37.3</ele>
        <time>2022-10-19T13:31:03Z</time>
      </trkpt>
      <trkpt lat="49.90091" lon="2.46258">
        <ele>37.3</ele>
        <time>2022-10-19T13:31:04Z</time>
      </trkpt>
      <trkpt lat="49.90091" lon="2.4626">
        <ele>37.4</ele>
        <time>2022-10-19T13:31:05Z</time>
      </trkpt>
      <trkpt lat="49.90092" lon="2.46261">
        <ele>37.4</ele>
        <time>2022-10-19T13:31:06Z</time>
      </trkpt>
      <trkpt lat="49.90093" lon="2.46265">
        <ele>37.5</ele>
        <time>2022-10-19T13:31:08Z</time>
      </trkpt>
      <trkpt lat="49.90093" lon="2.46266">
        <ele>37.6</ele>
        <time>2022-10-19T13:31:09Z</time>
      </trkpt>
      <trkpt lat="49.90093" lon="2.46267">
        <ele>37.6</ele>
        <time>2022-10-19T13:31:10Z</time>
      </trkpt>
      <trkpt lat="49.90094" lon="2.46268">
        <ele>37.6</ele>
        <time>2022-10-19T13:31:11Z</time>
      </trkpt>
      <trkpt lat="49.90095" lon="2.46269">
        <ele>37.7</ele>
        <time>2022-10-19T13:31:12Z</time>
      </trkpt>
      <trkpt lat="49.90095" lon="2.46269">
        <ele>37.7</ele>
        <time>2022-10-19T13:31:13Z</time>
      </trkpt>
      <trkpt lat="49.90096" lon="2.46269">
        <ele>37.7</ele>
        <time>2022-10-19T13:31:14Z</time>
      </trkpt>
      <trkpt lat="49.90097" lon="2.4627">
        <ele>37.8</ele>
        <time>2022-10-19T13:31:15Z</time>
      </trkpt>
      <trkpt lat="49.90098" lon="2.46272">
        <ele>37.8</ele>
        <time>2022-10-19T13:31:17Z</time>
      </trkpt>
      <trkpt lat="49.90098" lon="2.46273">
        <ele>37.8</ele>
        <time>2022-10-19T13:31:18Z</time>
      </trkpt>
      <trkpt lat="49.90098" lon="2.46274">
        <ele>37.9</ele>
        <time>2022-10-19T13:31:19Z</time>
      </trkpt>
      <trkpt lat="49.90099" lon="2.46275">
        <ele>37.9</ele>
        <time>2022-10-19T13:31:20Z</time>
      </trkpt>
      <trkpt lat="49.90099" lon="2.46276">
        <ele>38</ele>
        <time>2022-10-19T13:31:21Z</time>
      </trkpt>
      <trkpt lat="49.90099" lon="2.46277">
        <ele>38</ele>
        <time>2022-10-19T13:31:22Z</time>
      </trkpt>
      <trkpt lat="49.901" lon="2.46278">
        <ele>38</ele>
        <time>2022-10-19T13:31:24Z</time>
      </trkpt>
      <trkpt lat="49.901" lon="2.46279">
        <ele>38</ele>
        <time>2022-10-19T13:31:25Z</time>
      </trkpt>
      <trkpt lat="49.901" lon="2.4628">
        <ele>38</ele>
        <time>2022-10-19T13:31:26Z</time>
      </trkpt>
      <trkpt lat="49.901" lon="2.46282">
        <ele>38</ele>
        <time>2022-10-19T13:31:28Z</time>
      </trkpt>
      <trkpt lat="49.90101" lon="2.46282">
        <ele>38</ele>
        <time>2022-10-19T13:31:29Z</time>
      </trkpt>
      <trkpt lat="49.90101" lon="2.46282">
        <ele>38</ele>
        <time>2022-10-19T13:31:30Z</time>
      </trkpt>
      <trkpt lat="49.90102" lon="2.46282">
        <ele>37.9</ele>
        <time>2022-10-19T13:31:31Z</time>
      </trkpt>
      <trkpt lat="49.90103" lon="2.46282">
        <ele>37.9</ele>
        <time>2022-10-19T13:31:33Z</time>
      </trkpt>
      <trkpt lat="49.90103" lon="2.46282">
        <ele>37.9</ele>
        <time>2022-10-19T13:31:34Z</time>
      </trkpt>
      <trkpt lat="49.90104" lon="2.46282">
        <ele>37.9</ele>
        <time>2022-10-19T13:31:35Z</time>
      </trkpt>
      <trkpt lat="49.90104" lon="2.46282">
        <ele>37.9</ele>
        <time>2022-10-19T13:31:36Z</time>
      </trkpt>
      <trkpt lat="49.90104" lon="2.46282">
        <ele>37.9</ele>
        <time>2022-10-19T13:31:37Z</time>
      </trkpt>
      <trkpt lat="49.90104" lon="2.46282">
        <ele>37.9</ele>
        <time>2022-10-19T13:31:38Z</time>
      </trkpt>
      <trkpt lat="49.90104" lon="2.46281">
        <ele>37.9</ele>
        <time>2022-10-19T13:31:39Z</time>
      </trkpt>
      <trkpt lat="49.90104" lon="2.46281">
        <ele>37.9</ele>
        <time>2022-10-19T13:31:40Z</time>
      </trkpt>
      <trkpt lat="49.90104" lon="2.46281">
        <ele>37.9</ele>
        <time>2022-10-19T13:31:41Z</time>
      </trkpt>
      <trkpt lat="49.90104" lon="2.46281">
        <ele>37.9</ele>
        <time>2022-10-19T13:31:42Z</time>
      </trkpt>
      <trkpt lat="49.90104" lon="2.46281">
        <ele>37.9</ele>
        <time>2022-10-19T13:31:43Z</time>
      </trkpt>
      <trkpt lat="49.90104" lon="2.46281">
        <ele>37.9</ele>
        <time>2022-10-19T13:31:44Z</time>
      </trkpt>
      <trkpt lat="49.90104" lon="2.46281">
        <ele>37.9</ele>
        <time>2022-10-19T13:31:45Z</time>
      </trkpt>
      <trkpt lat="49.90104" lon="2.46281">
        <ele>37.9</ele>
        <time>2022-10-19T13:31:47Z</time>
      </trkpt>
      <trkpt lat="49.90105" lon="2.4628">
        <ele>37.9</ele>
        <time>2022-10-19T13:31:48Z</time>
      </trkpt>
      <trkpt lat="49.90106" lon="2.4628">
        <ele>37.9</ele>
        <time>2022-10-19T13:31:49Z</time>
      </trkpt>
      <trkpt lat="49.90108" lon="2.46279">
        <ele>37.9</ele>
        <time>2022-10-19T13:31:50Z</time>
      </trkpt>
      <trkpt lat="49.90109" lon="2.46278">
        <ele>37.8</ele>
        <time>2022-10-19T13:31:51Z</time>
      </trkpt>
      <trkpt lat="49.90109" lon="2.46278">
        <ele>37.8</ele>
        <time>2022-10-19T13:31:52Z</time>
      </trkpt>
      <trkpt lat="49.9011" lon="2.46276">
        <ele>37.8</ele>
        <time>2022-10-19T13:31:53Z</time>
      </trkpt>
      <trkpt lat="49.90111" lon="2.46275">
        <ele>37.8</ele>
        <time>2022-10-19T13:31:55Z</time>
      </trkpt>
      <trkpt lat="49.90111" lon="2.46273">
        <ele>37.7</ele>
        <time>2022-10-19T13:31:56Z</time>
      </trkpt>
      <trkpt lat="49.90113" lon="2.4627">
        <ele>37.7</ele>
        <time>2022-10-19T13:31:57Z</time>
      </trkpt>
      <trkpt lat="49.90114" lon="2.46269">
        <ele>37.7</ele>
        <time>2022-10-19T13:31:59Z</time>
      </trkpt>
      <trkpt lat="49.90115" lon="2.46268">
        <ele>37.6</ele>
        <time>2022-10-19T13:32:00Z</time>
      </trkpt>
      <trkpt lat="49.90116" lon="2.46267">
        <ele>37.6</ele>
        <time>2022-10-19T13:32:01Z</time>
      </trkpt>
      <trkpt lat="49.90117" lon="2.46266">
        <ele>37.6</ele>
        <time>2022-10-19T13:32:02Z</time>
      </trkpt>
      <trkpt lat="49.90117" lon="2.46266">
        <ele>37.6</ele>
        <time>2022-10-19T13:32:03Z</time>
      </trkpt>
      <trkpt lat="49.90118" lon="2.46265">
        <ele>37.5</ele>
        <time>2022-10-19T13:32:04Z</time>
      </trkpt>
      <trkpt lat="49.90118" lon="2.46264">
        <ele>37.5</ele>
        <time>2022-10-19T13:32:05Z</time>
      </trkpt>
      <trkpt lat="49.9012" lon="2.46263">
        <ele>37.5</ele>
        <time>2022-10-19T13:32:07Z</time>
      </trkpt>
      <trkpt lat="49.90121" lon="2.46261">
        <ele>37.5</ele>
        <time>2022-10-19T13:32:08Z</time>
      </trkpt>
      <trkpt lat="49.90121" lon="2.46261">
        <ele>37.4</ele>
        <time>2022-10-19T13:32:09Z</time>
      </trkpt>
      <trkpt lat="49.90122" lon="2.4626">
        <ele>37.4</ele>
        <time>2022-10-19T13:32:10Z</time>
      </trkpt>
      <trkpt lat="49.90123" lon="2.46259">
        <ele>37.4</ele>
        <time>2022-10-19T13:32:11Z</time>
      </trkpt>
      <trkpt lat="49.90124" lon="2.46258">
        <ele>37.3</ele>
        <time>2022-10-19T13:32:12Z</time>
      </trkpt>
      <trkpt lat="49.90125" lon="2.46258">
        <ele>37.3</ele>
        <time>2022-10-19T13:32:14Z</time>
      </trkpt>
      <trkpt lat="49.90126" lon="2.46257">
        <ele>37.3</ele>
        <time>2022-10-19T13:32:15Z</time>
      </trkpt>
      <trkpt lat="49.90127" lon="2.46256">
        <ele>37.2</ele>
        <time>2022-10-19T13:32:16Z</time>
      </trkpt>
      <trkpt lat="49.90127" lon="2.46255">
        <ele>37.2</ele>
        <time>2022-10-19T13:32:17Z</time>
      </trkpt>
      <trkpt lat="49.90128" lon="2.46254">
        <ele>37.2</ele>
        <time>2022-10-19T13:32:18Z</time>
      </trkpt>
      <trkpt lat="49.90129" lon="2.46253">
        <ele>37.2</ele>
        <time>2022-10-19T13:32:19Z</time>
      </trkpt>
      <trkpt lat="49.90129" lon="2.46252">
        <ele>37.1</ele>
        <time>2022-10-19T13:32:20Z</time>
      </trkpt>
      <trkpt lat="49.9013" lon="2.46251">
        <ele>37.1</ele>
        <time>2022-10-19T13:32:21Z</time>
      </trkpt>
      <trkpt lat="49.90131" lon="2.46249">
        <ele>37.1</ele>
        <time>2022-10-19T13:32:22Z</time>
      </trkpt>
      <trkpt lat="49.90132" lon="2.46248">
        <ele>37</ele>
        <time>2022-10-19T13:32:23Z</time>
      </trkpt>
      <trkpt lat="49.90133" lon="2.46247">
        <ele>37</ele>
        <time>2022-10-19T13:32:24Z</time>
      </trkpt>
      <trkpt lat="49.90134" lon="2.46246">
        <ele>37</ele>
        <time>2022-10-19T13:32:25Z</time>
      </trkpt>
      <trkpt lat="49.90134" lon="2.46244">
        <ele>36.9</ele>
        <time>2022-10-19T13:32:27Z</time>
      </trkpt>
      <trkpt lat="49.90135" lon="2.46243">
        <ele>36.9</ele>
        <time>2022-10-19T13:32:28Z</time>
      </trkpt>
      <trkpt lat="49.90136" lon="2.46242">
        <ele>36.9</ele>
        <time>2022-10-19T13:32:29Z</time>
      </trkpt>
      <trkpt lat="49.90136" lon="2.4624">
        <ele>36.8</ele>
        <time>2022-10-19T13:32:30Z</time>
      </trkpt>
      <trkpt lat="49.90137" lon="2.46239">
        <ele>36.8</ele>
        <time>2022-10-19T13:32:31Z</time>
      </trkpt>
      <trkpt lat="49.90138" lon="2.46238">
        <ele>36.8</ele>
        <time>2022-10-19T13:32:32Z</time>
      </trkpt>
      <trkpt lat="49.90139" lon="2.46236">
        <ele>36.7</ele>
        <time>2022-10-19T13:32:33Z</time>
      </trkpt>
      <trkpt lat="49.9014" lon="2.46234">
        <ele>36.7</ele>
        <time>2022-10-19T13:32:34Z</time>
      </trkpt>
      <trkpt lat="49.90141" lon="2.46234">
        <ele>36.7</ele>
        <time>2022-10-19T13:32:35Z</time>
      </trkpt>
      <trkpt lat="49.90142" lon="2.46233">
        <ele>36.7</ele>
        <time>2022-10-19T13:32:36Z</time>
      </trkpt>
      <trkpt lat="49.90143" lon="2.46231">
        <ele>36.6</ele>
        <time>2022-10-19T13:32:38Z</time>
      </trkpt>
      <trkpt lat="49.90144" lon="2.4623">
        <ele>36.6</ele>
        <time>2022-10-19T13:32:39Z</time>
      </trkpt>
      <trkpt lat="49.90145" lon="2.46229">
        <ele>36.5</ele>
        <time>2022-10-19T13:32:40Z</time>
      </trkpt>
      <trkpt lat="49.90145" lon="2.46227">
        <ele>36.5</ele>
        <time>2022-10-19T13:32:42Z</time>
      </trkpt>
      <trkpt lat="49.90146" lon="2.46226">
        <ele>36.5</ele>
        <time>2022-10-19T13:32:43Z</time>
      </trkpt>
      <trkpt lat="49.90146" lon="2.46225">
        <ele>36.5</ele>
        <time>2022-10-19T13:32:44Z</time>
      </trkpt>
      <trkpt lat="49.90146" lon="2.46225">
        <ele>36.5</ele>
        <time>2022-10-19T13:32:45Z</time>
      </trkpt>
      <trkpt lat="49.90146" lon="2.46225">
        <ele>36.5</ele>
        <time>2022-10-19T13:32:46Z</time>
      </trkpt>
      <trkpt lat="49.90147" lon="2.46225">
        <ele>36.5</ele>
        <time>2022-10-19T13:32:47Z</time>
      </trkpt>
      <trkpt lat="49.90147" lon="2.46225">
        <ele>36.5</ele>
        <time>2022-10-19T13:32:48Z</time>
      </trkpt>
      <trkpt lat="49.90147" lon="2.46225">
        <ele>36.5</ele>
        <time>2022-10-19T13:32:49Z</time>
      </trkpt>
      <trkpt lat="49.90147" lon="2.46225">
        <ele>36.5</ele>
        <time>2022-10-19T13:32:50Z</time>
      </trkpt>
      <trkpt lat="49.90147" lon="2.46225">
        <ele>36.5</ele>
        <time>2022-10-19T13:32:51Z</time>
      </trkpt>
      <trkpt lat="49.90147" lon="2.46225">
        <ele>36.5</ele>
        <time>2022-10-19T13:32:52Z</time>
      </trkpt>
      <trkpt lat="49.90147" lon="2.46225">
        <ele>36.5</ele>
        <time>2022-10-19T13:32:53Z</time>
      </trkpt>
      <trkpt lat="49.90147" lon="2.46225">
        <ele>36.5</ele>
        <time>2022-10-19T13:32:54Z</time>
      </trkpt>
      <trkpt lat="49.90148" lon="2.46226">
        <ele>36.5</ele>
        <time>2022-10-19T13:32:56Z</time>
      </trkpt>
      <trkpt lat="49.90148" lon="2.46226">
        <ele>36.5</ele>
        <time>2022-10-19T13:32:57Z</time>
      </trkpt>
      <trkpt lat="49.90149" lon="2.46227">
        <ele>36.5</ele>
        <time>2022-10-19T13:32:58Z</time>
      </trkpt>
      <trkpt lat="49.90149" lon="2.4623">
        <ele>36.5</ele>
        <time>2022-10-19T13:32:59Z</time>
      </trkpt>
      <trkpt lat="49.9015" lon="2.46231">
        <ele>36.5</ele>
        <time>2022-10-19T13:33:00Z</time>
      </trkpt>
      <trkpt lat="49.9015" lon="2.46232">
        <ele>36.5</ele>
        <time>2022-10-19T13:33:01Z</time>
      </trkpt>
      <trkpt lat="49.90151" lon="2.46233">
        <ele>36.5</ele>
        <time>2022-10-19T13:33:02Z</time>
      </trkpt>
      <trkpt lat="49.90151" lon="2.46236">
        <ele>36.5</ele>
        <time>2022-10-19T13:33:03Z</time>
      </trkpt>
      <trkpt lat="49.90152" lon="2.46238">
        <ele>36.5</ele>
        <time>2022-10-19T13:33:05Z</time>
      </trkpt>
      <trkpt lat="49.90153" lon="2.4624">
        <ele>36.5</ele>
        <time>2022-10-19T13:33:06Z</time>
      </trkpt>
      <trkpt lat="49.90154" lon="2.46242">
        <ele>36.5</ele>
        <time>2022-10-19T13:33:07Z</time>
      </trkpt>
      <trkpt lat="49.90155" lon="2.46244">
        <ele>36.5</ele>
        <time>2022-10-19T13:33:08Z</time>
      </trkpt>
      <trkpt lat="49.90156" lon="2.46246">
        <ele>36.5</ele>
        <time>2022-10-19T13:33:09Z</time>
      </trkpt>
      <trkpt lat="49.90157" lon="2.46248">
        <ele>36.5</ele>
        <time>2022-10-19T13:33:10Z</time>
      </trkpt>
      <trkpt lat="49.90158" lon="2.4625">
        <ele>36.5</ele>
        <time>2022-10-19T13:33:12Z</time>
      </trkpt>
      <trkpt lat="49.9016" lon="2.46252">
        <ele>36.6</ele>
        <time>2022-10-19T13:33:13Z</time>
      </trkpt>
      <trkpt lat="49.90161" lon="2.46253">
        <ele>36.6</ele>
        <time>2022-10-19T13:33:14Z</time>
      </trkpt>
      <trkpt lat="49.90162" lon="2.46255">
        <ele>36.6</ele>
        <time>2022-10-19T13:33:15Z</time>
      </trkpt>
      <trkpt lat="49.90163" lon="2.46256">
        <ele>36.6</ele>
        <time>2022-10-19T13:33:16Z</time>
      </trkpt>
      <trkpt lat="49.90164" lon="2.46258">
        <ele>36.6</ele>
        <time>2022-10-19T13:33:17Z</time>
      </trkpt>
      <trkpt lat="49.90165" lon="2.4626">
        <ele>36.6</ele>
        <time>2022-10-19T13:33:18Z</time>
      </trkpt>
      <trkpt lat="49.90165" lon="2.46261">
        <ele>36.6</ele>
        <time>2022-10-19T13:33:19Z</time>
      </trkpt>
      <trkpt lat="49.90166" lon="2.46262">
        <ele>36.7</ele>
        <time>2022-10-19T13:33:20Z</time>
      </trkpt>
      <trkpt lat="49.90167" lon="2.46264">
        <ele>36.7</ele>
        <time>2022-10-19T13:33:22Z</time>
      </trkpt>
      <trkpt lat="49.90169" lon="2.46266">
        <ele>36.7</ele>
        <time>2022-10-19T13:33:23Z</time>
      </trkpt>
      <trkpt lat="49.90169" lon="2.46267">
        <ele>36.7</ele>
        <time>2022-10-19T13:33:24Z</time>
      </trkpt>
      <trkpt lat="49.9017" lon="2.4627">
        <ele>36.7</ele>
        <time>2022-10-19T13:33:25Z</time>
      </trkpt>
      <trkpt lat="49.90171" lon="2.46271">
        <ele>36.7</ele>
        <time>2022-10-19T13:33:26Z</time>
      </trkpt>
      <trkpt lat="49.90171" lon="2.46272">
        <ele>36.7</ele>
        <time>2022-10-19T13:33:27Z</time>
      </trkpt>
      <trkpt lat="49.90172" lon="2.46274">
        <ele>36.8</ele>
        <time>2022-10-19T13:33:28Z</time>
      </trkpt>
      <trkpt lat="49.90173" lon="2.46275">
        <ele>36.8</ele>
        <time>2022-10-19T13:33:29Z</time>
      </trkpt>
      <trkpt lat="49.90173" lon="2.46277">
        <ele>36.8</ele>
        <time>2022-10-19T13:33:31Z</time>
      </trkpt>
      <trkpt lat="49.90174" lon="2.46279">
        <ele>36.8</ele>
        <time>2022-10-19T13:33:32Z</time>
      </trkpt>
      <trkpt lat="49.90174" lon="2.46281">
        <ele>36.8</ele>
        <time>2022-10-19T13:33:33Z</time>
      </trkpt>
      <trkpt lat="49.90175" lon="2.46282">
        <ele>36.8</ele>
        <time>2022-10-19T13:33:34Z</time>
      </trkpt>
      <trkpt lat="49.90175" lon="2.46284">
        <ele>36.8</ele>
        <time>2022-10-19T13:33:35Z</time>
      </trkpt>
      <trkpt lat="49.90176" lon="2.46285">
        <ele>36.8</ele>
        <time>2022-10-19T13:33:36Z</time>
      </trkpt>
      <trkpt lat="49.90177" lon="2.46287">
        <ele>36.9</ele>
        <time>2022-10-19T13:33:37Z</time>
      </trkpt>
      <trkpt lat="49.90177" lon="2.46289">
        <ele>36.9</ele>
        <time>2022-10-19T13:33:38Z</time>
      </trkpt>
      <trkpt lat="49.90178" lon="2.4629">
        <ele>36.9</ele>
        <time>2022-10-19T13:33:39Z</time>
      </trkpt>
      <trkpt lat="49.90178" lon="2.46292">
        <ele>36.9</ele>
        <time>2022-10-19T13:33:40Z</time>
      </trkpt>
      <trkpt lat="49.90179" lon="2.46294">
        <ele>36.9</ele>
        <time>2022-10-19T13:33:42Z</time>
      </trkpt>
      <trkpt lat="49.9018" lon="2.46296">
        <ele>36.9</ele>
        <time>2022-10-19T13:33:43Z</time>
      </trkpt>
      <trkpt lat="49.90181" lon="2.46297">
        <ele>36.9</ele>
        <time>2022-10-19T13:33:44Z</time>
      </trkpt>
      <trkpt lat="49.90182" lon="2.463">
        <ele>37</ele>
        <time>2022-10-19T13:33:45Z</time>
      </trkpt>
      <trkpt lat="49.90183" lon="2.46301">
        <ele>37</ele>
        <time>2022-10-19T13:33:46Z</time>
      </trkpt>
      <trkpt lat="49.90183" lon="2.46302">
        <ele>37</ele>
        <time>2022-10-19T13:33:47Z</time>
      </trkpt>
      <trkpt lat="49.90185" lon="2.46305">
        <ele>37</ele>
        <time>2022-10-19T13:33:48Z</time>
      </trkpt>
      <trkpt lat="49.90186" lon="2.46305">
        <ele>37.1</ele>
        <time>2022-10-19T13:33:49Z</time>
      </trkpt>
      <trkpt lat="49.90186" lon="2.46306">
        <ele>37.1</ele>
        <time>2022-10-19T13:33:50Z</time>
      </trkpt>
      <trkpt lat="49.90188" lon="2.46309">
        <ele>37.1</ele>
        <time>2022-10-19T13:33:52Z</time>
      </trkpt>
      <trkpt lat="49.90188" lon="2.4631">
        <ele>37.1</ele>
        <time>2022-10-19T13:33:53Z</time>
      </trkpt>
      <trkpt lat="49.90189" lon="2.46312">
        <ele>37.1</ele>
        <time>2022-10-19T13:33:54Z</time>
      </trkpt>
      <trkpt lat="49.9019" lon="2.46314">
        <ele>37.2</ele>
        <time>2022-10-19T13:33:56Z</time>
      </trkpt>
      <trkpt lat="49.90191" lon="2.46315">
        <ele>37.2</ele>
        <time>2022-10-19T13:33:57Z</time>
      </trkpt>
      <trkpt lat="49.90192" lon="2.46317">
        <ele>37.2</ele>
        <time>2022-10-19T13:33:58Z</time>
      </trkpt>
      <trkpt lat="49.90194" lon="2.46319">
        <ele>37.3</ele>
        <time>2022-10-19T13:33:59Z</time>
      </trkpt>
      <trkpt lat="49.90194" lon="2.46319">
        <ele>37.3</ele>
        <time>2022-10-19T13:34:00Z</time>
      </trkpt>
      <trkpt lat="49.90195" lon="2.4632">
        <ele>37.3</ele>
        <time>2022-10-19T13:34:01Z</time>
      </trkpt>
      <trkpt lat="49.90195" lon="2.46321">
        <ele>37.4</ele>
        <time>2022-10-19T13:34:02Z</time>
      </trkpt>
      <trkpt lat="49.90197" lon="2.46323">
        <ele>37.4</ele>
        <time>2022-10-19T13:34:04Z</time>
      </trkpt>
      <trkpt lat="49.90198" lon="2.46324">
        <ele>37.4</ele>
        <time>2022-10-19T13:34:05Z</time>
      </trkpt>
      <trkpt lat="49.90198" lon="2.46325">
        <ele>37.5</ele>
        <time>2022-10-19T13:34:06Z</time>
      </trkpt>
      <trkpt lat="49.90199" lon="2.46326">
        <ele>37.5</ele>
        <time>2022-10-19T13:34:07Z</time>
      </trkpt>
      <trkpt lat="49.902" lon="2.46328">
        <ele>37.6</ele>
        <time>2022-10-19T13:34:08Z</time>
      </trkpt>
      <trkpt lat="49.90201" lon="2.46328">
        <ele>37.6</ele>
        <time>2022-10-19T13:34:09Z</time>
      </trkpt>
      <trkpt lat="49.90202" lon="2.4633">
        <ele>37.6</ele>
        <time>2022-10-19T13:34:10Z</time>
      </trkpt>
      <trkpt lat="49.90202" lon="2.46331">
        <ele>37.6</ele>
        <time>2022-10-19T13:34:11Z</time>
      </trkpt>
      <trkpt lat="49.90203" lon="2.46333">
        <ele>37.7</ele>
        <time>2022-10-19T13:34:13Z</time>
      </trkpt>
      <trkpt lat="49.90204" lon="2.46335">
        <ele>37.7</ele>
        <time>2022-10-19T13:34:14Z</time>
      </trkpt>
      <trkpt lat="49.90205" lon="2.46337">
        <ele>37.8</ele>
        <time>2022-10-19T13:34:15Z</time>
      </trkpt>
      <trkpt lat="49.90206" lon="2.46339">
        <ele>37.8</ele>
        <time>2022-10-19T13:34:16Z</time>
      </trkpt>
      <trkpt lat="49.90206" lon="2.4634">
        <ele>37.8</ele>
        <time>2022-10-19T13:34:17Z</time>
      </trkpt>
      <trkpt lat="49.90207" lon="2.46342">
        <ele>37.9</ele>
        <time>2022-10-19T13:34:19Z</time>
      </trkpt>
      <trkpt lat="49.90208" lon="2.46343">
        <ele>37.9</ele>
        <time>2022-10-19T13:34:20Z</time>
      </trkpt>
      <trkpt lat="49.90209" lon="2.46346">
        <ele>38</ele>
        <time>2022-10-19T13:34:21Z</time>
      </trkpt>
      <trkpt lat="49.9021" lon="2.46347">
        <ele>38</ele>
        <time>2022-10-19T13:34:22Z</time>
      </trkpt>
      <trkpt lat="49.90211" lon="2.46349">
        <ele>38</ele>
        <time>2022-10-19T13:34:23Z</time>
      </trkpt>
      <trkpt lat="49.90212" lon="2.46351">
        <ele>38.1</ele>
        <time>2022-10-19T13:34:24Z</time>
      </trkpt>
      <trkpt lat="49.90212" lon="2.46353">
        <ele>38.1</ele>
        <time>2022-10-19T13:34:25Z</time>
      </trkpt>
      <trkpt lat="49.90213" lon="2.46354">
        <ele>38.1</ele>
        <time>2022-10-19T13:34:26Z</time>
      </trkpt>
      <trkpt lat="49.90214" lon="2.46356">
        <ele>38.2</ele>
        <time>2022-10-19T13:34:28Z</time>
      </trkpt>
      <trkpt lat="49.90214" lon="2.46357">
        <ele>38.2</ele>
        <time>2022-10-19T13:34:29Z</time>
      </trkpt>
      <trkpt lat="49.90215" lon="2.46359">
        <ele>38.2</ele>
        <time>2022-10-19T13:34:30Z</time>
      </trkpt>
      <trkpt lat="49.90216" lon="2.4636">
        <ele>38.3</ele>
        <time>2022-10-19T13:34:31Z</time>
      </trkpt>
      <trkpt lat="49.90216" lon="2.46361">
        <ele>38.3</ele>
        <time>2022-10-19T13:34:32Z</time>
      </trkpt>
      <trkpt lat="49.90218" lon="2.46364">
        <ele>38.4</ele>
        <time>2022-10-19T13:34:33Z</time>
      </trkpt>
      <trkpt lat="49.90219" lon="2.46365">
        <ele>38.4</ele>
        <time>2022-10-19T13:34:34Z</time>
      </trkpt>
      <trkpt lat="49.90219" lon="2.46365">
        <ele>38.4</ele>
        <time>2022-10-19T13:34:35Z</time>
      </trkpt>
      <trkpt lat="49.9022" lon="2.46367">
        <ele>38.5</ele>
        <time>2022-10-19T13:34:37Z</time>
      </trkpt>
      <trkpt lat="49.90221" lon="2.46368">
        <ele>38.5</ele>
        <time>2022-10-19T13:34:38Z</time>
      </trkpt>
      <trkpt lat="49.90222" lon="2.46369">
        <ele>38.5</ele>
        <time>2022-10-19T13:34:39Z</time>
      </trkpt>
      <trkpt lat="49.90222" lon="2.46371">
        <ele>38.6</ele>
        <time>2022-10-19T13:34:41Z</time>
      </trkpt>
      <trkpt lat="49.90223" lon="2.46372">
        <ele>38.6</ele>
        <time>2022-10-19T13:34:42Z</time>
      </trkpt>
      <trkpt lat="49.90225" lon="2.46376">
        <ele>38.7</ele>
        <time>2022-10-19T13:34:43Z</time>
      </trkpt>
      <trkpt lat="49.90225" lon="2.46377">
        <ele>38.7</ele>
        <time>2022-10-19T13:34:45Z</time>
      </trkpt>
      <trkpt lat="49.90226" lon="2.46378">
        <ele>38.7</ele>
        <time>2022-10-19T13:34:46Z</time>
      </trkpt>
      <trkpt lat="49.90227" lon="2.46379">
        <ele>38.7</ele>
        <time>2022-10-19T13:34:47Z</time>
      </trkpt>
      <trkpt lat="49.90227" lon="2.4638">
        <ele>38.7</ele>
        <time>2022-10-19T13:34:48Z</time>
      </trkpt>
      <trkpt lat="49.90228" lon="2.46382">
        <ele>38.7</ele>
        <time>2022-10-19T13:34:49Z</time>
      </trkpt>
      <trkpt lat="49.90228" lon="2.46383">
        <ele>38.7</ele>
        <time>2022-10-19T13:34:50Z</time>
      </trkpt>
      <trkpt lat="49.90229" lon="2.46385">
        <ele>38.8</ele>
        <time>2022-10-19T13:34:51Z</time>
      </trkpt>
      <trkpt lat="49.90229" lon="2.46386">
        <ele>38.8</ele>
        <time>2022-10-19T13:34:53Z</time>
      </trkpt>
      <trkpt lat="49.9023" lon="2.46388">
        <ele>38.8</ele>
        <time>2022-10-19T13:34:54Z</time>
      </trkpt>
      <trkpt lat="49.90231" lon="2.4639">
        <ele>38.8</ele>
        <time>2022-10-19T13:34:55Z</time>
      </trkpt>
      <trkpt lat="49.90232" lon="2.46391">
        <ele>38.8</ele>
        <time>2022-10-19T13:34:56Z</time>
      </trkpt>
      <trkpt lat="49.90233" lon="2.46392">
        <ele>38.8</ele>
        <time>2022-10-19T13:34:57Z</time>
      </trkpt>
      <trkpt lat="49.90234" lon="2.46395">
        <ele>38.8</ele>
        <time>2022-10-19T13:34:58Z</time>
      </trkpt>
      <trkpt lat="49.90234" lon="2.46396">
        <ele>38.9</ele>
        <time>2022-10-19T13:34:59Z</time>
      </trkpt>
      <trkpt lat="49.90234" lon="2.46397">
        <ele>38.9</ele>
        <time>2022-10-19T13:35:00Z</time>
      </trkpt>
      <trkpt lat="49.90236" lon="2.464">
        <ele>38.9</ele>
        <time>2022-10-19T13:35:01Z</time>
      </trkpt>
      <trkpt lat="49.90236" lon="2.46401">
        <ele>38.9</ele>
        <time>2022-10-19T13:35:03Z</time>
      </trkpt>
      <trkpt lat="49.90236" lon="2.46403">
        <ele>38.9</ele>
        <time>2022-10-19T13:35:04Z</time>
      </trkpt>
      <trkpt lat="49.90237" lon="2.46404">
        <ele>38.9</ele>
        <time>2022-10-19T13:35:05Z</time>
      </trkpt>
      <trkpt lat="49.90237" lon="2.46405">
        <ele>38.9</ele>
        <time>2022-10-19T13:35:06Z</time>
      </trkpt>
      <trkpt lat="49.90238" lon="2.46407">
        <ele>38.9</ele>
        <time>2022-10-19T13:35:07Z</time>
      </trkpt>
      <trkpt lat="49.90239" lon="2.4641">
        <ele>38.9</ele>
        <time>2022-10-19T13:35:08Z</time>
      </trkpt>
      <trkpt lat="49.9024" lon="2.46411">
        <ele>38.9</ele>
        <time>2022-10-19T13:35:09Z</time>
      </trkpt>
      <trkpt lat="49.9024" lon="2.46412">
        <ele>38.9</ele>
        <time>2022-10-19T13:35:10Z</time>
      </trkpt>
      <trkpt lat="49.90241" lon="2.46414">
        <ele>38.9</ele>
        <time>2022-10-19T13:35:11Z</time>
      </trkpt>
      <trkpt lat="49.90242" lon="2.46415">
        <ele>38.9</ele>
        <time>2022-10-19T13:35:13Z</time>
      </trkpt>
      <trkpt lat="49.90243" lon="2.46417">
        <ele>38.9</ele>
        <time>2022-10-19T13:35:14Z</time>
      </trkpt>
      <trkpt lat="49.90243" lon="2.46419">
        <ele>38.9</ele>
        <time>2022-10-19T13:35:15Z</time>
      </trkpt>
      <trkpt lat="49.90244" lon="2.4642">
        <ele>38.9</ele>
        <time>2022-10-19T13:35:16Z</time>
      </trkpt>
      <trkpt lat="49.90244" lon="2.46421">
        <ele>38.9</ele>
        <time>2022-10-19T13:35:17Z</time>
      </trkpt>
      <trkpt lat="49.90245" lon="2.46423">
        <ele>38.9</ele>
        <time>2022-10-19T13:35:18Z</time>
      </trkpt>
      <trkpt lat="49.90245" lon="2.46424">
        <ele>38.9</ele>
        <time>2022-10-19T13:35:19Z</time>
      </trkpt>
      <trkpt lat="49.90246" lon="2.46426">
        <ele>38.9</ele>
        <time>2022-10-19T13:35:20Z</time>
      </trkpt>
      <trkpt lat="49.90247" lon="2.46427">
        <ele>38.9</ele>
        <time>2022-10-19T13:35:21Z</time>
      </trkpt>
      <trkpt lat="49.90247" lon="2.46428">
        <ele>38.9</ele>
        <time>2022-10-19T13:35:23Z</time>
      </trkpt>
      <trkpt lat="49.90248" lon="2.4643">
        <ele>38.9</ele>
        <time>2022-10-19T13:35:24Z</time>
      </trkpt>
      <trkpt lat="49.90249" lon="2.46431">
        <ele>38.9</ele>
        <time>2022-10-19T13:35:25Z</time>
      </trkpt>
      <trkpt lat="49.90249" lon="2.46432">
        <ele>38.9</ele>
        <time>2022-10-19T13:35:26Z</time>
      </trkpt>
      <trkpt lat="49.9025" lon="2.46433">
        <ele>38.9</ele>
        <time>2022-10-19T13:35:27Z</time>
      </trkpt>
      <trkpt lat="49.90251" lon="2.46435">
        <ele>38.9</ele>
        <time>2022-10-19T13:35:28Z</time>
      </trkpt>
      <trkpt lat="49.90252" lon="2.46435">
        <ele>38.9</ele>
        <time>2022-10-19T13:35:30Z</time>
      </trkpt>
      <trkpt lat="49.90253" lon="2.46436">
        <ele>38.9</ele>
        <time>2022-10-19T13:35:31Z</time>
      </trkpt>
      <trkpt lat="49.90254" lon="2.46438">
        <ele>38.9</ele>
        <time>2022-10-19T13:35:32Z</time>
      </trkpt>
      <trkpt lat="49.90255" lon="2.46439">
        <ele>38.9</ele>
        <time>2022-10-19T13:35:33Z</time>
      </trkpt>
      <trkpt lat="49.90256" lon="2.46441">
        <ele>38.9</ele>
        <time>2022-10-19T13:35:34Z</time>
      </trkpt>
      <trkpt lat="49.90256" lon="2.46443">
        <ele>38.9</ele>
        <time>2022-10-19T13:35:35Z</time>
      </trkpt>
      <trkpt lat="49.90257" lon="2.46444">
        <ele>38.9</ele>
        <time>2022-10-19T13:35:36Z</time>
      </trkpt>
      <trkpt lat="49.90257" lon="2.46446">
        <ele>38.9</ele>
        <time>2022-10-19T13:35:37Z</time>
      </trkpt>
      <trkpt lat="49.90258" lon="2.46448">
        <ele>38.9</ele>
        <time>2022-10-19T13:35:38Z</time>
      </trkpt>
      <trkpt lat="49.90258" lon="2.46449">
        <ele>38.9</ele>
        <time>2022-10-19T13:35:39Z</time>
      </trkpt>
      <trkpt lat="49.90259" lon="2.4645">
        <ele>38.9</ele>
        <time>2022-10-19T13:35:40Z</time>
      </trkpt>
      <trkpt lat="49.9026" lon="2.46453">
        <ele>38.9</ele>
        <time>2022-10-19T13:35:41Z</time>
      </trkpt>
      <trkpt lat="49.9026" lon="2.46455">
        <ele>38.9</ele>
        <time>2022-10-19T13:35:43Z</time>
      </trkpt>
      <trkpt lat="49.90261" lon="2.46456">
        <ele>38.9</ele>
        <time>2022-10-19T13:35:44Z</time>
      </trkpt>
      <trkpt lat="49.90261" lon="2.46458">
        <ele>38.9</ele>
        <time>2022-10-19T13:35:45Z</time>
      </trkpt>
      <trkpt lat="49.90261" lon="2.46459">
        <ele>38.8</ele>
        <time>2022-10-19T13:35:46Z</time>
      </trkpt>
      <trkpt lat="49.90262" lon="2.46461">
        <ele>38.8</ele>
        <time>2022-10-19T13:35:47Z</time>
      </trkpt>
      <trkpt lat="49.90262" lon="2.46462">
        <ele>38.8</ele>
        <time>2022-10-19T13:35:48Z</time>
      </trkpt>
      <trkpt lat="49.90263" lon="2.46464">
        <ele>38.8</ele>
        <time>2022-10-19T13:35:49Z</time>
      </trkpt>
      <trkpt lat="49.90264" lon="2.46465">
        <ele>38.8</ele>
        <time>2022-10-19T13:35:50Z</time>
      </trkpt>
      <trkpt lat="49.90265" lon="2.46468">
        <ele>38.8</ele>
        <time>2022-10-19T13:35:52Z</time>
      </trkpt>
      <trkpt lat="49.90265" lon="2.46469">
        <ele>38.7</ele>
        <time>2022-10-19T13:35:53Z</time>
      </trkpt>
      <trkpt lat="49.90265" lon="2.4647">
        <ele>38.7</ele>
        <time>2022-10-19T13:35:54Z</time>
      </trkpt>
      <trkpt lat="49.90266" lon="2.46473">
        <ele>38.7</ele>
        <time>2022-10-19T13:35:55Z</time>
      </trkpt>
      <trkpt lat="49.90267" lon="2.46474">
        <ele>38.7</ele>
        <time>2022-10-19T13:35:56Z</time>
      </trkpt>
      <trkpt lat="49.90268" lon="2.46475">
        <ele>38.7</ele>
        <time>2022-10-19T13:35:57Z</time>
      </trkpt>
      <trkpt lat="49.90269" lon="2.46478">
        <ele>38.7</ele>
        <time>2022-10-19T13:35:58Z</time>
      </trkpt>
      <trkpt lat="49.90269" lon="2.46479">
        <ele>38.7</ele>
        <time>2022-10-19T13:35:59Z</time>
      </trkpt>
      <trkpt lat="49.9027" lon="2.4648">
        <ele>38.7</ele>
        <time>2022-10-19T13:36:01Z</time>
      </trkpt>
      <trkpt lat="49.9027" lon="2.46482">
        <ele>38.6</ele>
        <time>2022-10-19T13:36:02Z</time>
      </trkpt>
      <trkpt lat="49.90271" lon="2.46483">
        <ele>38.6</ele>
        <time>2022-10-19T13:36:03Z</time>
      </trkpt>
      <trkpt lat="49.90272" lon="2.46485">
        <ele>38.6</ele>
        <time>2022-10-19T13:36:04Z</time>
      </trkpt>
      <trkpt lat="49.90273" lon="2.46487">
        <ele>38.6</ele>
        <time>2022-10-19T13:36:05Z</time>
      </trkpt>
      <trkpt lat="49.90273" lon="2.46488">
        <ele>38.6</ele>
        <time>2022-10-19T13:36:07Z</time>
      </trkpt>
      <trkpt lat="49.90273" lon="2.4649">
        <ele>38.6</ele>
        <time>2022-10-19T13:36:08Z</time>
      </trkpt>
      <trkpt lat="49.90274" lon="2.46492">
        <ele>38.6</ele>
        <time>2022-10-19T13:36:09Z</time>
      </trkpt>
      <trkpt lat="49.90275" lon="2.46494">
        <ele>38.6</ele>
        <time>2022-10-19T13:36:10Z</time>
      </trkpt>
      <trkpt lat="49.90276" lon="2.46497">
        <ele>38.6</ele>
        <time>2022-10-19T13:36:11Z</time>
      </trkpt>
      <trkpt lat="49.90276" lon="2.46498">
        <ele>38.5</ele>
        <time>2022-10-19T13:36:12Z</time>
      </trkpt>
      <trkpt lat="49.90276" lon="2.46499">
        <ele>38.5</ele>
        <time>2022-10-19T13:36:13Z</time>
      </trkpt>
      <trkpt lat="49.90277" lon="2.46501">
        <ele>38.5</ele>
        <time>2022-10-19T13:36:14Z</time>
      </trkpt>
      <trkpt lat="49.90277" lon="2.46503">
        <ele>38.5</ele>
        <time>2022-10-19T13:36:15Z</time>
      </trkpt>
      <trkpt lat="49.90277" lon="2.46504">
        <ele>38.5</ele>
        <time>2022-10-19T13:36:16Z</time>
      </trkpt>
      <trkpt lat="49.90277" lon="2.46508">
        <ele>38.5</ele>
        <time>2022-10-19T13:36:18Z</time>
      </trkpt>
      <trkpt lat="49.90278" lon="2.46509">
        <ele>38.5</ele>
        <time>2022-10-19T13:36:19Z</time>
      </trkpt>
      <trkpt lat="49.90278" lon="2.46511">
        <ele>38.5</ele>
        <time>2022-10-19T13:36:20Z</time>
      </trkpt>
      <trkpt lat="49.90278" lon="2.46512">
        <ele>38.5</ele>
        <time>2022-10-19T13:36:21Z</time>
      </trkpt>
      <trkpt lat="49.90279" lon="2.46513">
        <ele>38.5</ele>
        <time>2022-10-19T13:36:22Z</time>
      </trkpt>
      <trkpt lat="49.90279" lon="2.46515">
        <ele>38.5</ele>
        <time>2022-10-19T13:36:23Z</time>
      </trkpt>
      <trkpt lat="49.90279" lon="2.46517">
        <ele>38.5</ele>
        <time>2022-10-19T13:36:24Z</time>
      </trkpt>
      <trkpt lat="49.9028" lon="2.46518">
        <ele>38.5</ele>
        <time>2022-10-19T13:36:25Z</time>
      </trkpt>
      <trkpt lat="49.9028" lon="2.46519">
        <ele>38.5</ele>
        <time>2022-10-19T13:36:26Z</time>
      </trkpt>
      <trkpt lat="49.90281" lon="2.46521">
        <ele>38.4</ele>
        <time>2022-10-19T13:36:27Z</time>
      </trkpt>
      <trkpt lat="49.90282" lon="2.46523">
        <ele>38.4</ele>
        <time>2022-10-19T13:36:28Z</time>
      </trkpt>
      <trkpt lat="49.90283" lon="2.46526">
        <ele>38.4</ele>
        <time>2022-10-19T13:36:30Z</time>
      </trkpt>
      <trkpt lat="49.90283" lon="2.46527">
        <ele>38.4</ele>
        <time>2022-10-19T13:36:31Z</time>
      </trkpt>
      <trkpt lat="49.90284" lon="2.4653">
        <ele>38.4</ele>
        <time>2022-10-19T13:36:32Z</time>
      </trkpt>
      <trkpt lat="49.90285" lon="2.46531">
        <ele>38.4</ele>
        <time>2022-10-19T13:36:33Z</time>
      </trkpt>
      <trkpt lat="49.90285" lon="2.46532">
        <ele>38.4</ele>
        <time>2022-10-19T13:36:34Z</time>
      </trkpt>
      <trkpt lat="49.90286" lon="2.46534">
        <ele>38.4</ele>
        <time>2022-10-19T13:36:35Z</time>
      </trkpt>
      <trkpt lat="49.90287" lon="2.46535">
        <ele>38.4</ele>
        <time>2022-10-19T13:36:36Z</time>
      </trkpt>
      <trkpt lat="49.90289" lon="2.46537">
        <ele>38.4</ele>
        <time>2022-10-19T13:36:37Z</time>
      </trkpt>
      <trkpt lat="49.90289" lon="2.46538">
        <ele>38.4</ele>
        <time>2022-10-19T13:36:38Z</time>
      </trkpt>
      <trkpt lat="49.9029" lon="2.4654">
        <ele>38.4</ele>
        <time>2022-10-19T13:36:39Z</time>
      </trkpt>
      <trkpt lat="49.90291" lon="2.46541">
        <ele>38.4</ele>
        <time>2022-10-19T13:36:41Z</time>
      </trkpt>
      <trkpt lat="49.90291" lon="2.46542">
        <ele>38.4</ele>
        <time>2022-10-19T13:36:42Z</time>
      </trkpt>
      <trkpt lat="49.90292" lon="2.46544">
        <ele>38.4</ele>
        <time>2022-10-19T13:36:43Z</time>
      </trkpt>
      <trkpt lat="49.90293" lon="2.46545">
        <ele>38.3</ele>
        <time>2022-10-19T13:36:44Z</time>
      </trkpt>
      <trkpt lat="49.90294" lon="2.46547">
        <ele>38.3</ele>
        <time>2022-10-19T13:36:45Z</time>
      </trkpt>
      <trkpt lat="49.90295" lon="2.46549">
        <ele>38.3</ele>
        <time>2022-10-19T13:36:46Z</time>
      </trkpt>
      <trkpt lat="49.90296" lon="2.4655">
        <ele>38.3</ele>
        <time>2022-10-19T13:36:47Z</time>
      </trkpt>
      <trkpt lat="49.90296" lon="2.46551">
        <ele>38.3</ele>
        <time>2022-10-19T13:36:48Z</time>
      </trkpt>
      <trkpt lat="49.90297" lon="2.46553">
        <ele>38.3</ele>
        <time>2022-10-19T13:36:49Z</time>
      </trkpt>
      <trkpt lat="49.90298" lon="2.46554">
        <ele>38.3</ele>
        <time>2022-10-19T13:36:50Z</time>
      </trkpt>
      <trkpt lat="49.90299" lon="2.46557">
        <ele>38.3</ele>
        <time>2022-10-19T13:36:51Z</time>
      </trkpt>
      <trkpt lat="49.903" lon="2.46558">
        <ele>38.3</ele>
        <time>2022-10-19T13:36:53Z</time>
      </trkpt>
      <trkpt lat="49.903" lon="2.46559">
        <ele>38.3</ele>
        <time>2022-10-19T13:36:54Z</time>
      </trkpt>
      <trkpt lat="49.90301" lon="2.46563">
        <ele>38.3</ele>
        <time>2022-10-19T13:36:55Z</time>
      </trkpt>
      <trkpt lat="49.90302" lon="2.46564">
        <ele>38.3</ele>
        <time>2022-10-19T13:36:56Z</time>
      </trkpt>
      <trkpt lat="49.90302" lon="2.46565">
        <ele>38.3</ele>
        <time>2022-10-19T13:36:57Z</time>
      </trkpt>
      <trkpt lat="49.90303" lon="2.46567">
        <ele>38.3</ele>
        <time>2022-10-19T13:36:58Z</time>
      </trkpt>
      <trkpt lat="49.90303" lon="2.46568">
        <ele>38.3</ele>
        <time>2022-10-19T13:36:59Z</time>
      </trkpt>
      <trkpt lat="49.90304" lon="2.4657">
        <ele>38.3</ele>
        <time>2022-10-19T13:37:00Z</time>
      </trkpt>
      <trkpt lat="49.90304" lon="2.46571">
        <ele>38.3</ele>
        <time>2022-10-19T13:37:01Z</time>
      </trkpt>
      <trkpt lat="49.90305" lon="2.46573">
        <ele>38.3</ele>
        <time>2022-10-19T13:37:02Z</time>
      </trkpt>
      <trkpt lat="49.90306" lon="2.46575">
        <ele>38.3</ele>
        <time>2022-10-19T13:37:04Z</time>
      </trkpt>
      <trkpt lat="49.90306" lon="2.46577">
        <ele>38.3</ele>
        <time>2022-10-19T13:37:05Z</time>
      </trkpt>
      <trkpt lat="49.90307" lon="2.4658">
        <ele>38.3</ele>
        <time>2022-10-19T13:37:06Z</time>
      </trkpt>
      <trkpt lat="49.90307" lon="2.46581">
        <ele>38.3</ele>
        <time>2022-10-19T13:37:07Z</time>
      </trkpt>
      <trkpt lat="49.90308" lon="2.46582">
        <ele>38.3</ele>
        <time>2022-10-19T13:37:08Z</time>
      </trkpt>
      <trkpt lat="49.90308" lon="2.46584">
        <ele>38.3</ele>
        <time>2022-10-19T13:37:09Z</time>
      </trkpt>
      <trkpt lat="49.90309" lon="2.46587">
        <ele>38.3</ele>
        <time>2022-10-19T13:37:10Z</time>
      </trkpt>
      <trkpt lat="49.90309" lon="2.46588">
        <ele>38.3</ele>
        <time>2022-10-19T13:37:11Z</time>
      </trkpt>
      <trkpt lat="49.9031" lon="2.46589">
        <ele>38.3</ele>
        <time>2022-10-19T13:37:12Z</time>
      </trkpt>
      <trkpt lat="49.90311" lon="2.46591">
        <ele>38.3</ele>
        <time>2022-10-19T13:37:13Z</time>
      </trkpt>
      <trkpt lat="49.90312" lon="2.46594">
        <ele>38.3</ele>
        <time>2022-10-19T13:37:14Z</time>
      </trkpt>
      <trkpt lat="49.90313" lon="2.46595">
        <ele>38.3</ele>
        <time>2022-10-19T13:37:16Z</time>
      </trkpt>
      <trkpt lat="49.90313" lon="2.46597">
        <ele>38.3</ele>
        <time>2022-10-19T13:37:17Z</time>
      </trkpt>
      <trkpt lat="49.90314" lon="2.46598">
        <ele>38.3</ele>
        <time>2022-10-19T13:37:18Z</time>
      </trkpt>
      <trkpt lat="49.90314" lon="2.46599">
        <ele>38.3</ele>
        <time>2022-10-19T13:37:19Z</time>
      </trkpt>
      <trkpt lat="49.90316" lon="2.46602">
        <ele>38.3</ele>
        <time>2022-10-19T13:37:20Z</time>
      </trkpt>
      <trkpt lat="49.90316" lon="2.46603">
        <ele>38.3</ele>
        <time>2022-10-19T13:37:21Z</time>
      </trkpt>
      <trkpt lat="49.90317" lon="2.46604">
        <ele>38.3</ele>
        <time>2022-10-19T13:37:22Z</time>
      </trkpt>
      <trkpt lat="49.90317" lon="2.46605">
        <ele>38.3</ele>
        <time>2022-10-19T13:37:23Z</time>
      </trkpt>
      <trkpt lat="49.90318" lon="2.46606">
        <ele>38.3</ele>
        <time>2022-10-19T13:37:24Z</time>
      </trkpt>
      <trkpt lat="49.90319" lon="2.46607">
        <ele>38.3</ele>
        <time>2022-10-19T13:37:25Z</time>
      </trkpt>
      <trkpt lat="49.90319" lon="2.46609">
        <ele>38.3</ele>
        <time>2022-10-19T13:37:26Z</time>
      </trkpt>
      <trkpt lat="49.9032" lon="2.4661">
        <ele>38.3</ele>
        <time>2022-10-19T13:37:28Z</time>
      </trkpt>
      <trkpt lat="49.90321" lon="2.46612">
        <ele>38.4</ele>
        <time>2022-10-19T13:37:29Z</time>
      </trkpt>
      <trkpt lat="49.90322" lon="2.46615">
        <ele>38.4</ele>
        <time>2022-10-19T13:37:30Z</time>
      </trkpt>
      <trkpt lat="49.90322" lon="2.46616">
        <ele>38.4</ele>
        <time>2022-10-19T13:37:31Z</time>
      </trkpt>
      <trkpt lat="49.90323" lon="2.46617">
        <ele>38.4</ele>
        <time>2022-10-19T13:37:32Z</time>
      </trkpt>
      <trkpt lat="49.90324" lon="2.4662">
        <ele>38.4</ele>
        <time>2022-10-19T13:37:33Z</time>
      </trkpt>
      <trkpt lat="49.90324" lon="2.46621">
        <ele>38.4</ele>
        <time>2022-10-19T13:37:34Z</time>
      </trkpt>
      <trkpt lat="49.90325" lon="2.46622">
        <ele>38.4</ele>
        <time>2022-10-19T13:37:35Z</time>
      </trkpt>
      <trkpt lat="49.90325" lon="2.46623">
        <ele>38.4</ele>
        <time>2022-10-19T13:37:36Z</time>
      </trkpt>
      <trkpt lat="49.90326" lon="2.46624">
        <ele>38.4</ele>
        <time>2022-10-19T13:37:38Z</time>
      </trkpt>
      <trkpt lat="49.90326" lon="2.46626">
        <ele>38.4</ele>
        <time>2022-10-19T13:37:39Z</time>
      </trkpt>
      <trkpt lat="49.90327" lon="2.46628">
        <ele>38.4</ele>
        <time>2022-10-19T13:37:40Z</time>
      </trkpt>
      <trkpt lat="49.90328" lon="2.4663">
        <ele>38.4</ele>
        <time>2022-10-19T13:37:41Z</time>
      </trkpt>
      <trkpt lat="49.90329" lon="2.46632">
        <ele>38.4</ele>
        <time>2022-10-19T13:37:42Z</time>
      </trkpt>
      <trkpt lat="49.90329" lon="2.46633">
        <ele>38.4</ele>
        <time>2022-10-19T13:37:43Z</time>
      </trkpt>
      <trkpt lat="49.9033" lon="2.46634">
        <ele>38.4</ele>
        <time>2022-10-19T13:37:44Z</time>
      </trkpt>
      <trkpt lat="49.90331" lon="2.46636">
        <ele>38.4</ele>
        <time>2022-10-19T13:37:46Z</time>
      </trkpt>
      <trkpt lat="49.90331" lon="2.46639">
        <ele>38.4</ele>
        <time>2022-10-19T13:37:47Z</time>
      </trkpt>
      <trkpt lat="49.90331" lon="2.46642">
        <ele>38.3</ele>
        <time>2022-10-19T13:37:48Z</time>
      </trkpt>
      <trkpt lat="49.90331" lon="2.46643">
        <ele>38.3</ele>
        <time>2022-10-19T13:37:49Z</time>
      </trkpt>
      <trkpt lat="49.90331" lon="2.46645">
        <ele>38.3</ele>
        <time>2022-10-19T13:37:50Z</time>
      </trkpt>
      <trkpt lat="49.90332" lon="2.46646">
        <ele>38.3</ele>
        <time>2022-10-19T13:37:51Z</time>
      </trkpt>
      <trkpt lat="49.90332" lon="2.46648">
        <ele>38.3</ele>
        <time>2022-10-19T13:37:52Z</time>
      </trkpt>
      <trkpt lat="49.90333" lon="2.4665">
        <ele>38.3</ele>
        <time>2022-10-19T13:37:54Z</time>
      </trkpt>
      <trkpt lat="49.90333" lon="2.46651">
        <ele>38.3</ele>
        <time>2022-10-19T13:37:55Z</time>
      </trkpt>
      <trkpt lat="49.90334" lon="2.46652">
        <ele>38.3</ele>
        <time>2022-10-19T13:37:56Z</time>
      </trkpt>
      <trkpt lat="49.90335" lon="2.46653">
        <ele>38.3</ele>
        <time>2022-10-19T13:37:57Z</time>
      </trkpt>
      <trkpt lat="49.90336" lon="2.46656">
        <ele>38.3</ele>
        <time>2022-10-19T13:37:58Z</time>
      </trkpt>
      <trkpt lat="49.90337" lon="2.46657">
        <ele>38.3</ele>
        <time>2022-10-19T13:37:59Z</time>
      </trkpt>
      <trkpt lat="49.90337" lon="2.46658">
        <ele>38.3</ele>
        <time>2022-10-19T13:38:00Z</time>
      </trkpt>
      <trkpt lat="49.90337" lon="2.46659">
        <ele>38.3</ele>
        <time>2022-10-19T13:38:01Z</time>
      </trkpt>
      <trkpt lat="49.90338" lon="2.46661">
        <ele>38.3</ele>
        <time>2022-10-19T13:38:02Z</time>
      </trkpt>
      <trkpt lat="49.90339" lon="2.46663">
        <ele>38.3</ele>
        <time>2022-10-19T13:38:04Z</time>
      </trkpt>
      <trkpt lat="49.9034" lon="2.46665">
        <ele>38.3</ele>
        <time>2022-10-19T13:38:05Z</time>
      </trkpt>
      <trkpt lat="49.9034" lon="2.46666">
        <ele>38.3</ele>
        <time>2022-10-19T13:38:06Z</time>
      </trkpt>
      <trkpt lat="49.90341" lon="2.46669">
        <ele>38.3</ele>
        <time>2022-10-19T13:38:07Z</time>
      </trkpt>
      <trkpt lat="49.90342" lon="2.46671">
        <ele>38.2</ele>
        <time>2022-10-19T13:38:09Z</time>
      </trkpt>
      <trkpt lat="49.90342" lon="2.46672">
        <ele>38.2</ele>
        <time>2022-10-19T13:38:10Z</time>
      </trkpt>
      <trkpt lat="49.90343" lon="2.46674">
        <ele>38.2</ele>
        <time>2022-10-19T13:38:11Z</time>
      </trkpt>
      <trkpt lat="49.90344" lon="2.46676">
        <ele>38.2</ele>
        <time>2022-10-19T13:38:12Z</time>
      </trkpt>
      <trkpt lat="49.90345" lon="2.46679">
        <ele>38.1</ele>
        <time>2022-10-19T13:38:13Z</time>
      </trkpt>
      <trkpt lat="49.90345" lon="2.4668">
        <ele>38.1</ele>
        <time>2022-10-19T13:38:14Z</time>
      </trkpt>
      <trkpt lat="49.90345" lon="2.46681">
        <ele>38.1</ele>
        <time>2022-10-19T13:38:15Z</time>
      </trkpt>
      <trkpt lat="49.90346" lon="2.46684">
        <ele>38.1</ele>
        <time>2022-10-19T13:38:16Z</time>
      </trkpt>
      <trkpt lat="49.90347" lon="2.46686">
        <ele>38</ele>
        <time>2022-10-19T13:38:17Z</time>
      </trkpt>
      <trkpt lat="49.90347" lon="2.46687">
        <ele>38</ele>
        <time>2022-10-19T13:38:19Z</time>
      </trkpt>
      <trkpt lat="49.90348" lon="2.46689">
        <ele>38</ele>
        <time>2022-10-19T13:38:20Z</time>
      </trkpt>
      <trkpt lat="49.90348" lon="2.4669">
        <ele>38</ele>
        <time>2022-10-19T13:38:21Z</time>
      </trkpt>
      <trkpt lat="49.90348" lon="2.46692">
        <ele>38</ele>
        <time>2022-10-19T13:38:22Z</time>
      </trkpt>
      <trkpt lat="49.90349" lon="2.46695">
        <ele>37.9</ele>
        <time>2022-10-19T13:38:23Z</time>
      </trkpt>
      <trkpt lat="49.90349" lon="2.46696">
        <ele>37.9</ele>
        <time>2022-10-19T13:38:24Z</time>
      </trkpt>
      <trkpt lat="49.9035" lon="2.46697">
        <ele>37.9</ele>
        <time>2022-10-19T13:38:25Z</time>
      </trkpt>
      <trkpt lat="49.90349" lon="2.46699">
        <ele>37.9</ele>
        <time>2022-10-19T13:38:26Z</time>
      </trkpt>
      <trkpt lat="49.9035" lon="2.467">
        <ele>37.9</ele>
        <time>2022-10-19T13:38:27Z</time>
      </trkpt>
      <trkpt lat="49.9035" lon="2.46702">
        <ele>37.8</ele>
        <time>2022-10-19T13:38:29Z</time>
      </trkpt>
      <trkpt lat="49.9035" lon="2.46704">
        <ele>37.8</ele>
        <time>2022-10-19T13:38:30Z</time>
      </trkpt>
      <trkpt lat="49.9035" lon="2.46707">
        <ele>37.8</ele>
        <time>2022-10-19T13:38:31Z</time>
      </trkpt>
      <trkpt lat="49.90351" lon="2.46708">
        <ele>37.8</ele>
        <time>2022-10-19T13:38:32Z</time>
      </trkpt>
      <trkpt lat="49.90351" lon="2.46709">
        <ele>37.8</ele>
        <time>2022-10-19T13:38:33Z</time>
      </trkpt>
      <trkpt lat="49.90352" lon="2.46711">
        <ele>37.7</ele>
        <time>2022-10-19T13:38:34Z</time>
      </trkpt>
      <trkpt lat="49.90353" lon="2.46712">
        <ele>37.7</ele>
        <time>2022-10-19T13:38:35Z</time>
      </trkpt>
      <trkpt lat="49.90353" lon="2.46714">
        <ele>37.7</ele>
        <time>2022-10-19T13:38:36Z</time>
      </trkpt>
      <trkpt lat="49.90353" lon="2.46715">
        <ele>37.7</ele>
        <time>2022-10-19T13:38:37Z</time>
      </trkpt>
      <trkpt lat="49.90354" lon="2.46718">
        <ele>37.6</ele>
        <time>2022-10-19T13:38:39Z</time>
      </trkpt>
      <trkpt lat="49.90354" lon="2.4672">
        <ele>37.6</ele>
        <time>2022-10-19T13:38:40Z</time>
      </trkpt>
      <trkpt lat="49.90354" lon="2.46721">
        <ele>37.6</ele>
        <time>2022-10-19T13:38:41Z</time>
      </trkpt>
      <trkpt lat="49.90355" lon="2.46723">
        <ele>37.6</ele>
        <time>2022-10-19T13:38:42Z</time>
      </trkpt>
      <trkpt lat="49.90356" lon="2.46725">
        <ele>37.6</ele>
        <time>2022-10-19T13:38:43Z</time>
      </trkpt>
      <trkpt lat="49.90357" lon="2.46726">
        <ele>37.6</ele>
        <time>2022-10-19T13:38:44Z</time>
      </trkpt>
      <trkpt lat="49.90357" lon="2.46727">
        <ele>37.5</ele>
        <time>2022-10-19T13:38:45Z</time>
      </trkpt>
      <trkpt lat="49.90358" lon="2.46728">
        <ele>37.5</ele>
        <time>2022-10-19T13:38:46Z</time>
      </trkpt>
      <trkpt lat="49.90359" lon="2.46729">
        <ele>37.5</ele>
        <time>2022-10-19T13:38:47Z</time>
      </trkpt>
      <trkpt lat="49.9036" lon="2.46732">
        <ele>37.5</ele>
        <time>2022-10-19T13:38:48Z</time>
      </trkpt>
      <trkpt lat="49.90361" lon="2.46733">
        <ele>37.4</ele>
        <time>2022-10-19T13:38:50Z</time>
      </trkpt>
      <trkpt lat="49.90362" lon="2.46735">
        <ele>37.4</ele>
        <time>2022-10-19T13:38:51Z</time>
      </trkpt>
      <trkpt lat="49.90363" lon="2.46736">
        <ele>37.4</ele>
        <time>2022-10-19T13:38:52Z</time>
      </trkpt>
      <trkpt lat="49.90363" lon="2.46737">
        <ele>37.4</ele>
        <time>2022-10-19T13:38:53Z</time>
      </trkpt>
      <trkpt lat="49.90365" lon="2.4674">
        <ele>37.3</ele>
        <time>2022-10-19T13:38:54Z</time>
      </trkpt>
      <trkpt lat="49.90365" lon="2.46741">
        <ele>37.3</ele>
        <time>2022-10-19T13:38:55Z</time>
      </trkpt>
      <trkpt lat="49.90366" lon="2.46742">
        <ele>37.3</ele>
        <time>2022-10-19T13:38:56Z</time>
      </trkpt>
      <trkpt lat="49.90367" lon="2.46744">
        <ele>37.3</ele>
        <time>2022-10-19T13:38:57Z</time>
      </trkpt>
      <trkpt lat="49.90368" lon="2.46745">
        <ele>37.2</ele>
        <time>2022-10-19T13:38:59Z</time>
      </trkpt>
      <trkpt lat="49.90369" lon="2.46746">
        <ele>37.2</ele>
        <time>2022-10-19T13:39:00Z</time>
      </trkpt>
      <trkpt lat="49.9037" lon="2.46749">
        <ele>37.2</ele>
        <time>2022-10-19T13:39:01Z</time>
      </trkpt>
      <trkpt lat="49.9037" lon="2.4675">
        <ele>37.2</ele>
        <time>2022-10-19T13:39:02Z</time>
      </trkpt>
      <trkpt lat="49.90371" lon="2.46751">
        <ele>37.1</ele>
        <time>2022-10-19T13:39:03Z</time>
      </trkpt>
      <trkpt lat="49.90372" lon="2.46753">
        <ele>37.1</ele>
        <time>2022-10-19T13:39:04Z</time>
      </trkpt>
      <trkpt lat="49.90372" lon="2.46755">
        <ele>37.1</ele>
        <time>2022-10-19T13:39:05Z</time>
      </trkpt>
      <trkpt lat="49.90373" lon="2.46757">
        <ele>37.1</ele>
        <time>2022-10-19T13:39:06Z</time>
      </trkpt>
      <trkpt lat="49.90373" lon="2.46758">
        <ele>37</ele>
        <time>2022-10-19T13:39:07Z</time>
      </trkpt>
      <trkpt lat="49.90374" lon="2.4676">
        <ele>37</ele>
        <time>2022-10-19T13:39:08Z</time>
      </trkpt>
      <trkpt lat="49.90374" lon="2.46762">
        <ele>37</ele>
        <time>2022-10-19T13:39:10Z</time>
      </trkpt>
      <trkpt lat="49.90374" lon="2.46763">
        <ele>37</ele>
        <time>2022-10-19T13:39:11Z</time>
      </trkpt>
      <trkpt lat="49.90375" lon="2.46765">
        <ele>36.9</ele>
        <time>2022-10-19T13:39:12Z</time>
      </trkpt>
      <trkpt lat="49.90375" lon="2.46767">
        <ele>36.9</ele>
        <time>2022-10-19T13:39:13Z</time>
      </trkpt>
      <trkpt lat="49.90375" lon="2.46768">
        <ele>36.9</ele>
        <time>2022-10-19T13:39:14Z</time>
      </trkpt>
      <trkpt lat="49.90376" lon="2.4677">
        <ele>36.9</ele>
        <time>2022-10-19T13:39:15Z</time>
      </trkpt>
      <trkpt lat="49.90376" lon="2.46772">
        <ele>36.9</ele>
        <time>2022-10-19T13:39:16Z</time>
      </trkpt>
      <trkpt lat="49.90376" lon="2.46773">
        <ele>36.9</ele>
        <time>2022-10-19T13:39:17Z</time>
      </trkpt>
      <trkpt lat="49.90377" lon="2.46774">
        <ele>36.8</ele>
        <time>2022-10-19T13:39:18Z</time>
      </trkpt>
      <trkpt lat="49.90377" lon="2.46776">
        <ele>36.8</ele>
        <time>2022-10-19T13:39:20Z</time>
      </trkpt>
      <trkpt lat="49.90377" lon="2.46778">
        <ele>36.8</ele>
        <time>2022-10-19T13:39:21Z</time>
      </trkpt>
      <trkpt lat="49.90377" lon="2.4678">
        <ele>36.8</ele>
        <time>2022-10-19T13:39:22Z</time>
      </trkpt>
      <trkpt lat="49.90378" lon="2.46781">
        <ele>36.8</ele>
        <time>2022-10-19T13:39:23Z</time>
      </trkpt>
      <trkpt lat="49.90378" lon="2.46783">
        <ele>36.7</ele>
        <time>2022-10-19T13:39:24Z</time>
      </trkpt>
      <trkpt lat="49.90379" lon="2.46785">
        <ele>36.7</ele>
        <time>2022-10-19T13:39:25Z</time>
      </trkpt>
      <trkpt lat="49.90379" lon="2.46787">
        <ele>36.7</ele>
        <time>2022-10-19T13:39:26Z</time>
      </trkpt>
      <trkpt lat="49.90379" lon="2.46788">
        <ele>36.7</ele>
        <time>2022-10-19T13:39:27Z</time>
      </trkpt>
      <trkpt lat="49.9038" lon="2.46789">
        <ele>36.7</ele>
        <time>2022-10-19T13:39:28Z</time>
      </trkpt>
      <trkpt lat="49.9038" lon="2.46791">
        <ele>36.7</ele>
        <time>2022-10-19T13:39:29Z</time>
      </trkpt>
      <trkpt lat="49.90381" lon="2.46792">
        <ele>36.6</ele>
        <time>2022-10-19T13:39:31Z</time>
      </trkpt>
      <trkpt lat="49.90381" lon="2.46794">
        <ele>36.6</ele>
        <time>2022-10-19T13:39:32Z</time>
      </trkpt>
      <trkpt lat="49.90382" lon="2.46797">
        <ele>36.6</ele>
        <time>2022-10-19T13:39:33Z</time>
      </trkpt>
      <trkpt lat="49.90382" lon="2.46799">
        <ele>36.6</ele>
        <time>2022-10-19T13:39:34Z</time>
      </trkpt>
      <trkpt lat="49.90382" lon="2.468">
        <ele>36.5</ele>
        <time>2022-10-19T13:39:35Z</time>
      </trkpt>
      <trkpt lat="49.90383" lon="2.46803">
        <ele>36.5</ele>
        <time>2022-10-19T13:39:36Z</time>
      </trkpt>
      <trkpt lat="49.90383" lon="2.46805">
        <ele>36.5</ele>
        <time>2022-10-19T13:39:37Z</time>
      </trkpt>
      <trkpt lat="49.90383" lon="2.46806">
        <ele>36.5</ele>
        <time>2022-10-19T13:39:38Z</time>
      </trkpt>
      <trkpt lat="49.90383" lon="2.46808">
        <ele>36.5</ele>
        <time>2022-10-19T13:39:39Z</time>
      </trkpt>
      <trkpt lat="49.90384" lon="2.46809">
        <ele>36.4</ele>
        <time>2022-10-19T13:39:40Z</time>
      </trkpt>
      <trkpt lat="49.90384" lon="2.46811">
        <ele>36.4</ele>
        <time>2022-10-19T13:39:41Z</time>
      </trkpt>
      <trkpt lat="49.90385" lon="2.46814">
        <ele>36.4</ele>
        <time>2022-10-19T13:39:43Z</time>
      </trkpt>
      <trkpt lat="49.90385" lon="2.46816">
        <ele>36.4</ele>
        <time>2022-10-19T13:39:44Z</time>
      </trkpt>
      <trkpt lat="49.90385" lon="2.46817">
        <ele>36.3</ele>
        <time>2022-10-19T13:39:45Z</time>
      </trkpt>
      <trkpt lat="49.90386" lon="2.4682">
        <ele>36.3</ele>
        <time>2022-10-19T13:39:46Z</time>
      </trkpt>
      <trkpt lat="49.90386" lon="2.46821">
        <ele>36.3</ele>
        <time>2022-10-19T13:39:47Z</time>
      </trkpt>
      <trkpt lat="49.90387" lon="2.46823">
        <ele>36.3</ele>
        <time>2022-10-19T13:39:48Z</time>
      </trkpt>
      <trkpt lat="49.90388" lon="2.46826">
        <ele>36.2</ele>
        <time>2022-10-19T13:39:49Z</time>
      </trkpt>
      <trkpt lat="49.90388" lon="2.46827">
        <ele>36.2</ele>
        <time>2022-10-19T13:39:50Z</time>
      </trkpt>
      <trkpt lat="49.90388" lon="2.46828">
        <ele>36.2</ele>
        <time>2022-10-19T13:39:51Z</time>
      </trkpt>
      <trkpt lat="49.90389" lon="2.46829">
        <ele>36.2</ele>
        <time>2022-10-19T13:39:52Z</time>
      </trkpt>
      <trkpt lat="49.90389" lon="2.46831">
        <ele>36.2</ele>
        <time>2022-10-19T13:39:53Z</time>
      </trkpt>
      <trkpt lat="49.9039" lon="2.46833">
        <ele>36.2</ele>
        <time>2022-10-19T13:39:54Z</time>
      </trkpt>
      <trkpt lat="49.9039" lon="2.46835">
        <ele>36.2</ele>
        <time>2022-10-19T13:39:56Z</time>
      </trkpt>
      <trkpt lat="49.9039" lon="2.46838">
        <ele>36.1</ele>
        <time>2022-10-19T13:39:57Z</time>
      </trkpt>
      <trkpt lat="49.90391" lon="2.46841">
        <ele>36.1</ele>
        <time>2022-10-19T13:39:58Z</time>
      </trkpt>
      <trkpt lat="49.90391" lon="2.46842">
        <ele>36.1</ele>
        <time>2022-10-19T13:39:59Z</time>
      </trkpt>
      <trkpt lat="49.90391" lon="2.46843">
        <ele>36.1</ele>
        <time>2022-10-19T13:40:00Z</time>
      </trkpt>
      <trkpt lat="49.90392" lon="2.46847">
        <ele>36.1</ele>
        <time>2022-10-19T13:40:01Z</time>
      </trkpt>
      <trkpt lat="49.90393" lon="2.46847">
        <ele>36.1</ele>
        <time>2022-10-19T13:40:02Z</time>
      </trkpt>
      <trkpt lat="49.90393" lon="2.46849">
        <ele>36.1</ele>
        <time>2022-10-19T13:40:03Z</time>
      </trkpt>
      <trkpt lat="49.90393" lon="2.4685">
        <ele>36.1</ele>
        <time>2022-10-19T13:40:04Z</time>
      </trkpt>
      <trkpt lat="49.90393" lon="2.46852">
        <ele>36.1</ele>
        <time>2022-10-19T13:40:05Z</time>
      </trkpt>
      <trkpt lat="49.90394" lon="2.46856">
        <ele>36.1</ele>
        <time>2022-10-19T13:40:06Z</time>
      </trkpt>
      <trkpt lat="49.90394" lon="2.46857">
        <ele>36.1</ele>
        <time>2022-10-19T13:40:08Z</time>
      </trkpt>
      <trkpt lat="49.90394" lon="2.46858">
        <ele>36.1</ele>
        <time>2022-10-19T13:40:09Z</time>
      </trkpt>
      <trkpt lat="49.90394" lon="2.4686">
        <ele>36</ele>
        <time>2022-10-19T13:40:10Z</time>
      </trkpt>
      <trkpt lat="49.90395" lon="2.46862">
        <ele>36</ele>
        <time>2022-10-19T13:40:11Z</time>
      </trkpt>
      <trkpt lat="49.90396" lon="2.46865">
        <ele>36</ele>
        <time>2022-10-19T13:40:12Z</time>
      </trkpt>
      <trkpt lat="49.90396" lon="2.46866">
        <ele>36</ele>
        <time>2022-10-19T13:40:13Z</time>
      </trkpt>
      <trkpt lat="49.90396" lon="2.46868">
        <ele>36</ele>
        <time>2022-10-19T13:40:14Z</time>
      </trkpt>
      <trkpt lat="49.90396" lon="2.46869">
        <ele>36</ele>
        <time>2022-10-19T13:40:15Z</time>
      </trkpt>
      <trkpt lat="49.90397" lon="2.46871">
        <ele>36</ele>
        <time>2022-10-19T13:40:16Z</time>
      </trkpt>
      <trkpt lat="49.90397" lon="2.46872">
        <ele>36</ele>
        <time>2022-10-19T13:40:17Z</time>
      </trkpt>
      <trkpt lat="49.90397" lon="2.46874">
        <ele>36</ele>
        <time>2022-10-19T13:40:18Z</time>
      </trkpt>
      <trkpt lat="49.90397" lon="2.46876">
        <ele>36</ele>
        <time>2022-10-19T13:40:19Z</time>
      </trkpt>
      <trkpt lat="49.90398" lon="2.46878">
        <ele>36</ele>
        <time>2022-10-19T13:40:21Z</time>
      </trkpt>
      <trkpt lat="49.90398" lon="2.46881">
        <ele>35.9</ele>
        <time>2022-10-19T13:40:22Z</time>
      </trkpt>
      <trkpt lat="49.90398" lon="2.46882">
        <ele>35.9</ele>
        <time>2022-10-19T13:40:23Z</time>
      </trkpt>
      <trkpt lat="49.90398" lon="2.46884">
        <ele>35.9</ele>
        <time>2022-10-19T13:40:24Z</time>
      </trkpt>
      <trkpt lat="49.90399" lon="2.46886">
        <ele>35.9</ele>
        <time>2022-10-19T13:40:25Z</time>
      </trkpt>
      <trkpt lat="49.90399" lon="2.46889">
        <ele>35.9</ele>
        <time>2022-10-19T13:40:26Z</time>
      </trkpt>
      <trkpt lat="49.90399" lon="2.46889">
        <ele>35.9</ele>
        <time>2022-10-19T13:40:27Z</time>
      </trkpt>
      <trkpt lat="49.90399" lon="2.46891">
        <ele>35.9</ele>
        <time>2022-10-19T13:40:28Z</time>
      </trkpt>
      <trkpt lat="49.904" lon="2.46892">
        <ele>35.9</ele>
        <time>2022-10-19T13:40:29Z</time>
      </trkpt>
      <trkpt lat="49.904" lon="2.46894">
        <ele>35.9</ele>
        <time>2022-10-19T13:40:30Z</time>
      </trkpt>
      <trkpt lat="49.90401" lon="2.46897">
        <ele>35.9</ele>
        <time>2022-10-19T13:40:31Z</time>
      </trkpt>
      <trkpt lat="49.90401" lon="2.46898">
        <ele>35.9</ele>
        <time>2022-10-19T13:40:33Z</time>
      </trkpt>
      <trkpt lat="49.90401" lon="2.46899">
        <ele>35.9</ele>
        <time>2022-10-19T13:40:34Z</time>
      </trkpt>
      <trkpt lat="49.90401" lon="2.46903">
        <ele>35.9</ele>
        <time>2022-10-19T13:40:35Z</time>
      </trkpt>
      <trkpt lat="49.90401" lon="2.46904">
        <ele>35.9</ele>
        <time>2022-10-19T13:40:36Z</time>
      </trkpt>
      <trkpt lat="49.90402" lon="2.46906">
        <ele>35.9</ele>
        <time>2022-10-19T13:40:37Z</time>
      </trkpt>
      <trkpt lat="49.90402" lon="2.46909">
        <ele>35.9</ele>
        <time>2022-10-19T13:40:38Z</time>
      </trkpt>
      <trkpt lat="49.90402" lon="2.4691">
        <ele>35.9</ele>
        <time>2022-10-19T13:40:39Z</time>
      </trkpt>
      <trkpt lat="49.90402" lon="2.46911">
        <ele>35.9</ele>
        <time>2022-10-19T13:40:40Z</time>
      </trkpt>
      <trkpt lat="49.90403" lon="2.46913">
        <ele>35.9</ele>
        <time>2022-10-19T13:40:41Z</time>
      </trkpt>
      <trkpt lat="49.90403" lon="2.46914">
        <ele>35.9</ele>
        <time>2022-10-19T13:40:42Z</time>
      </trkpt>
      <trkpt lat="49.90404" lon="2.46916">
        <ele>35.9</ele>
        <time>2022-10-19T13:40:43Z</time>
      </trkpt>
      <trkpt lat="49.90405" lon="2.46919">
        <ele>35.9</ele>
        <time>2022-10-19T13:40:45Z</time>
      </trkpt>
      <trkpt lat="49.90405" lon="2.4692">
        <ele>35.9</ele>
        <time>2022-10-19T13:40:46Z</time>
      </trkpt>
      <trkpt lat="49.90405" lon="2.46922">
        <ele>35.9</ele>
        <time>2022-10-19T13:40:47Z</time>
      </trkpt>
      <trkpt lat="49.90406" lon="2.46923">
        <ele>35.9</ele>
        <time>2022-10-19T13:40:48Z</time>
      </trkpt>
      <trkpt lat="49.90406" lon="2.46925">
        <ele>35.9</ele>
        <time>2022-10-19T13:40:49Z</time>
      </trkpt>
      <trkpt lat="49.90407" lon="2.46926">
        <ele>35.9</ele>
        <time>2022-10-19T13:40:50Z</time>
      </trkpt>
      <trkpt lat="49.90407" lon="2.46929">
        <ele>35.8</ele>
        <time>2022-10-19T13:40:52Z</time>
      </trkpt>
      <trkpt lat="49.90408" lon="2.46931">
        <ele>35.8</ele>
        <time>2022-10-19T13:40:53Z</time>
      </trkpt>
      <trkpt lat="49.90408" lon="2.46933">
        <ele>35.8</ele>
        <time>2022-10-19T13:40:54Z</time>
      </trkpt>
      <trkpt lat="49.90408" lon="2.46934">
        <ele>35.8</ele>
        <time>2022-10-19T13:40:55Z</time>
      </trkpt>
      <trkpt lat="49.90409" lon="2.46936">
        <ele>35.8</ele>
        <time>2022-10-19T13:40:56Z</time>
      </trkpt>
      <trkpt lat="49.9041" lon="2.46938">
        <ele>35.8</ele>
        <time>2022-10-19T13:40:57Z</time>
      </trkpt>
      <trkpt lat="49.9041" lon="2.4694">
        <ele>35.8</ele>
        <time>2022-10-19T13:40:58Z</time>
      </trkpt>
      <trkpt lat="49.9041" lon="2.46943">
        <ele>35.8</ele>
        <time>2022-10-19T13:40:59Z</time>
      </trkpt>
      <trkpt lat="49.90411" lon="2.46945">
        <ele>35.8</ele>
        <time>2022-10-19T13:41:00Z</time>
      </trkpt>
      <trkpt lat="49.90411" lon="2.46946">
        <ele>35.7</ele>
        <time>2022-10-19T13:41:01Z</time>
      </trkpt>
      <trkpt lat="49.90411" lon="2.46947">
        <ele>35.7</ele>
        <time>2022-10-19T13:41:03Z</time>
      </trkpt>
      <trkpt lat="49.90412" lon="2.46949">
        <ele>35.7</ele>
        <time>2022-10-19T13:41:04Z</time>
      </trkpt>
      <trkpt lat="49.90413" lon="2.46951">
        <ele>35.7</ele>
        <time>2022-10-19T13:41:05Z</time>
      </trkpt>
      <trkpt lat="49.90413" lon="2.46953">
        <ele>35.7</ele>
        <time>2022-10-19T13:41:06Z</time>
      </trkpt>
      <trkpt lat="49.90414" lon="2.46955">
        <ele>35.7</ele>
        <time>2022-10-19T13:41:07Z</time>
      </trkpt>
      <trkpt lat="49.90414" lon="2.46956">
        <ele>35.6</ele>
        <time>2022-10-19T13:41:09Z</time>
      </trkpt>
      <trkpt lat="49.90415" lon="2.46959">
        <ele>35.6</ele>
        <time>2022-10-19T13:41:10Z</time>
      </trkpt>
      <trkpt lat="49.90415" lon="2.46962">
        <ele>35.6</ele>
        <time>2022-10-19T13:41:12Z</time>
      </trkpt>
      <trkpt lat="49.90416" lon="2.46964">
        <ele>35.6</ele>
        <time>2022-10-19T13:41:13Z</time>
      </trkpt>
      <trkpt lat="49.90417" lon="2.46966">
        <ele>35.5</ele>
        <time>2022-10-19T13:41:14Z</time>
      </trkpt>
      <trkpt lat="49.90417" lon="2.46968">
        <ele>35.5</ele>
        <time>2022-10-19T13:41:15Z</time>
      </trkpt>
      <trkpt lat="49.90418" lon="2.46969">
        <ele>35.5</ele>
        <time>2022-10-19T13:41:16Z</time>
      </trkpt>
      <trkpt lat="49.90418" lon="2.46971">
        <ele>35.5</ele>
        <time>2022-10-19T13:41:17Z</time>
      </trkpt>
      <trkpt lat="49.90419" lon="2.46974">
        <ele>35.4</ele>
        <time>2022-10-19T13:41:18Z</time>
      </trkpt>
      <trkpt lat="49.9042" lon="2.46976">
        <ele>35.4</ele>
        <time>2022-10-19T13:41:19Z</time>
      </trkpt>
      <trkpt lat="49.9042" lon="2.46977">
        <ele>35.4</ele>
        <time>2022-10-19T13:41:20Z</time>
      </trkpt>
      <trkpt lat="49.90421" lon="2.46979">
        <ele>35.4</ele>
        <time>2022-10-19T13:41:22Z</time>
      </trkpt>
      <trkpt lat="49.90421" lon="2.46981">
        <ele>35.4</ele>
        <time>2022-10-19T13:41:23Z</time>
      </trkpt>
      <trkpt lat="49.90421" lon="2.46983">
        <ele>35.4</ele>
        <time>2022-10-19T13:41:24Z</time>
      </trkpt>
      <trkpt lat="49.90422" lon="2.46985">
        <ele>35.4</ele>
        <time>2022-10-19T13:41:25Z</time>
      </trkpt>
      <trkpt lat="49.90422" lon="2.46987">
        <ele>35.3</ele>
        <time>2022-10-19T13:41:26Z</time>
      </trkpt>
      <trkpt lat="49.90423" lon="2.46988">
        <ele>35.3</ele>
        <time>2022-10-19T13:41:27Z</time>
      </trkpt>
      <trkpt lat="49.90424" lon="2.4699">
        <ele>35.3</ele>
        <time>2022-10-19T13:41:28Z</time>
      </trkpt>
      <trkpt lat="49.90424" lon="2.46991">
        <ele>35.3</ele>
        <time>2022-10-19T13:41:29Z</time>
      </trkpt>
      <trkpt lat="49.90425" lon="2.46992">
        <ele>35.3</ele>
        <time>2022-10-19T13:41:30Z</time>
      </trkpt>
      <trkpt lat="49.90426" lon="2.46994">
        <ele>35.3</ele>
        <time>2022-10-19T13:41:31Z</time>
      </trkpt>
      <trkpt lat="49.90426" lon="2.46996">
        <ele>35.3</ele>
        <time>2022-10-19T13:41:33Z</time>
      </trkpt>
      <trkpt lat="49.90427" lon="2.46997">
        <ele>35.3</ele>
        <time>2022-10-19T13:41:34Z</time>
      </trkpt>
      <trkpt lat="49.90427" lon="2.46999">
        <ele>35.3</ele>
        <time>2022-10-19T13:41:35Z</time>
      </trkpt>
      <trkpt lat="49.90428" lon="2.47">
        <ele>35.2</ele>
        <time>2022-10-19T13:41:36Z</time>
      </trkpt>
      <trkpt lat="49.90429" lon="2.47002">
        <ele>35.2</ele>
        <time>2022-10-19T13:41:37Z</time>
      </trkpt>
      <trkpt lat="49.9043" lon="2.47003">
        <ele>35.2</ele>
        <time>2022-10-19T13:41:38Z</time>
      </trkpt>
      <trkpt lat="49.9043" lon="2.47005">
        <ele>35.2</ele>
        <time>2022-10-19T13:41:39Z</time>
      </trkpt>
      <trkpt lat="49.90431" lon="2.47006">
        <ele>35.2</ele>
        <time>2022-10-19T13:41:40Z</time>
      </trkpt>
      <trkpt lat="49.90432" lon="2.47009">
        <ele>35.2</ele>
        <time>2022-10-19T13:41:41Z</time>
      </trkpt>
      <trkpt lat="49.90432" lon="2.4701">
        <ele>35.2</ele>
        <time>2022-10-19T13:41:42Z</time>
      </trkpt>
      <trkpt lat="49.90432" lon="2.47012">
        <ele>35.2</ele>
        <time>2022-10-19T13:41:44Z</time>
      </trkpt>
      <trkpt lat="49.90433" lon="2.47013">
        <ele>35.2</ele>
        <time>2022-10-19T13:41:45Z</time>
      </trkpt>
      <trkpt lat="49.90433" lon="2.47015">
        <ele>35.2</ele>
        <time>2022-10-19T13:41:46Z</time>
      </trkpt>
      <trkpt lat="49.90433" lon="2.47017">
        <ele>35.1</ele>
        <time>2022-10-19T13:41:47Z</time>
      </trkpt>
      <trkpt lat="49.90433" lon="2.47017">
        <ele>35.1</ele>
        <time>2022-10-19T13:41:48Z</time>
      </trkpt>
      <trkpt lat="49.90434" lon="2.47019">
        <ele>35.1</ele>
        <time>2022-10-19T13:41:49Z</time>
      </trkpt>
      <trkpt lat="49.90434" lon="2.4702">
        <ele>35.1</ele>
        <time>2022-10-19T13:41:50Z</time>
      </trkpt>
      <trkpt lat="49.90434" lon="2.47022">
        <ele>35.1</ele>
        <time>2022-10-19T13:41:51Z</time>
      </trkpt>
      <trkpt lat="49.90434" lon="2.47024">
        <ele>35.1</ele>
        <time>2022-10-19T13:41:52Z</time>
      </trkpt>
      <trkpt lat="49.90434" lon="2.47025">
        <ele>35.1</ele>
        <time>2022-10-19T13:41:53Z</time>
      </trkpt>
      <trkpt lat="49.90435" lon="2.47027">
        <ele>35.1</ele>
        <time>2022-10-19T13:41:54Z</time>
      </trkpt>
      <trkpt lat="49.90435" lon="2.4703">
        <ele>35.1</ele>
        <time>2022-10-19T13:41:55Z</time>
      </trkpt>
      <trkpt lat="49.90436" lon="2.47032">
        <ele>35.1</ele>
        <time>2022-10-19T13:41:57Z</time>
      </trkpt>
      <trkpt lat="49.90436" lon="2.47033">
        <ele>35.1</ele>
        <time>2022-10-19T13:41:58Z</time>
      </trkpt>
      <trkpt lat="49.90436" lon="2.47035">
        <ele>35.1</ele>
        <time>2022-10-19T13:41:59Z</time>
      </trkpt>
      <trkpt lat="49.90437" lon="2.47037">
        <ele>35.1</ele>
        <time>2022-10-19T13:42:00Z</time>
      </trkpt>
      <trkpt lat="49.90438" lon="2.47039">
        <ele>35.1</ele>
        <time>2022-10-19T13:42:01Z</time>
      </trkpt>
      <trkpt lat="49.90439" lon="2.47041">
        <ele>35.1</ele>
        <time>2022-10-19T13:42:02Z</time>
      </trkpt>
      <trkpt lat="49.90439" lon="2.47042">
        <ele>35.1</ele>
        <time>2022-10-19T13:42:03Z</time>
      </trkpt>
      <trkpt lat="49.90439" lon="2.47043">
        <ele>35</ele>
        <time>2022-10-19T13:42:04Z</time>
      </trkpt>
      <trkpt lat="49.9044" lon="2.47045">
        <ele>35</ele>
        <time>2022-10-19T13:42:05Z</time>
      </trkpt>
      <trkpt lat="49.90441" lon="2.47047">
        <ele>35</ele>
        <time>2022-10-19T13:42:06Z</time>
      </trkpt>
      <trkpt lat="49.90441" lon="2.4705">
        <ele>35</ele>
        <time>2022-10-19T13:42:08Z</time>
      </trkpt>
      <trkpt lat="49.90442" lon="2.47052">
        <ele>35</ele>
        <time>2022-10-19T13:42:09Z</time>
      </trkpt>
      <trkpt lat="49.90442" lon="2.47054">
        <ele>35</ele>
        <time>2022-10-19T13:42:10Z</time>
      </trkpt>
      <trkpt lat="49.90443" lon="2.47056">
        <ele>35</ele>
        <time>2022-10-19T13:42:11Z</time>
      </trkpt>
      <trkpt lat="49.90443" lon="2.47058">
        <ele>35</ele>
        <time>2022-10-19T13:42:12Z</time>
      </trkpt>
      <trkpt lat="49.90444" lon="2.47059">
        <ele>34.9</ele>
        <time>2022-10-19T13:42:13Z</time>
      </trkpt>
      <trkpt lat="49.90445" lon="2.47061">
        <ele>34.9</ele>
        <time>2022-10-19T13:42:15Z</time>
      </trkpt>
      <trkpt lat="49.90445" lon="2.47063">
        <ele>34.9</ele>
        <time>2022-10-19T13:42:16Z</time>
      </trkpt>
      <trkpt lat="49.90447" lon="2.47065">
        <ele>34.9</ele>
        <time>2022-10-19T13:42:17Z</time>
      </trkpt>
      <trkpt lat="49.90447" lon="2.47066">
        <ele>34.9</ele>
        <time>2022-10-19T13:42:18Z</time>
      </trkpt>
      <trkpt lat="49.90447" lon="2.47067">
        <ele>34.9</ele>
        <time>2022-10-19T13:42:19Z</time>
      </trkpt>
      <trkpt lat="49.90448" lon="2.47069">
        <ele>34.9</ele>
        <time>2022-10-19T13:42:20Z</time>
      </trkpt>
      <trkpt lat="49.90448" lon="2.47071">
        <ele>34.8</ele>
        <time>2022-10-19T13:42:21Z</time>
      </trkpt>
      <trkpt lat="49.90449" lon="2.47074">
        <ele>34.8</ele>
        <time>2022-10-19T13:42:22Z</time>
      </trkpt>
      <trkpt lat="49.90449" lon="2.47075">
        <ele>34.8</ele>
        <time>2022-10-19T13:42:23Z</time>
      </trkpt>
      <trkpt lat="49.9045" lon="2.47077">
        <ele>34.8</ele>
        <time>2022-10-19T13:42:24Z</time>
      </trkpt>
      <trkpt lat="49.9045" lon="2.47079">
        <ele>34.8</ele>
        <time>2022-10-19T13:42:25Z</time>
      </trkpt>
      <trkpt lat="49.90451" lon="2.47083">
        <ele>34.7</ele>
        <time>2022-10-19T13:42:27Z</time>
      </trkpt>
      <trkpt lat="49.90451" lon="2.47084">
        <ele>34.7</ele>
        <time>2022-10-19T13:42:28Z</time>
      </trkpt>
      <trkpt lat="49.90452" lon="2.47085">
        <ele>34.7</ele>
        <time>2022-10-19T13:42:29Z</time>
      </trkpt>
      <trkpt lat="49.90453" lon="2.47088">
        <ele>34.7</ele>
        <time>2022-10-19T13:42:30Z</time>
      </trkpt>
      <trkpt lat="49.90453" lon="2.4709">
        <ele>34.6</ele>
        <time>2022-10-19T13:42:31Z</time>
      </trkpt>
      <trkpt lat="49.90454" lon="2.47091">
        <ele>34.6</ele>
        <time>2022-10-19T13:42:32Z</time>
      </trkpt>
      <trkpt lat="49.90454" lon="2.47092">
        <ele>34.6</ele>
        <time>2022-10-19T13:42:33Z</time>
      </trkpt>
      <trkpt lat="49.90455" lon="2.47094">
        <ele>34.6</ele>
        <time>2022-10-19T13:42:34Z</time>
      </trkpt>
      <trkpt lat="49.90455" lon="2.47096">
        <ele>34.6</ele>
        <time>2022-10-19T13:42:35Z</time>
      </trkpt>
      <trkpt lat="49.90456" lon="2.47098">
        <ele>34.5</ele>
        <time>2022-10-19T13:42:36Z</time>
      </trkpt>
      <trkpt lat="49.90457" lon="2.471">
        <ele>34.5</ele>
        <time>2022-10-19T13:42:37Z</time>
      </trkpt>
      <trkpt lat="49.90457" lon="2.47101">
        <ele>34.5</ele>
        <time>2022-10-19T13:42:38Z</time>
      </trkpt>
      <trkpt lat="49.90458" lon="2.47103">
        <ele>34.5</ele>
        <time>2022-10-19T13:42:40Z</time>
      </trkpt>
      <trkpt lat="49.90458" lon="2.47105">
        <ele>34.5</ele>
        <time>2022-10-19T13:42:41Z</time>
      </trkpt>
      <trkpt lat="49.90459" lon="2.47108">
        <ele>34.4</ele>
        <time>2022-10-19T13:42:42Z</time>
      </trkpt>
      <trkpt lat="49.90459" lon="2.47109">
        <ele>34.4</ele>
        <time>2022-10-19T13:42:43Z</time>
      </trkpt>
      <trkpt lat="49.9046" lon="2.4711">
        <ele>34.4</ele>
        <time>2022-10-19T13:42:44Z</time>
      </trkpt>
      <trkpt lat="49.9046" lon="2.47113">
        <ele>34.3</ele>
        <time>2022-10-19T13:42:45Z</time>
      </trkpt>
      <trkpt lat="49.90461" lon="2.47114">
        <ele>34.3</ele>
        <time>2022-10-19T13:42:46Z</time>
      </trkpt>
      <trkpt lat="49.90461" lon="2.47115">
        <ele>34.3</ele>
        <time>2022-10-19T13:42:47Z</time>
      </trkpt>
      <trkpt lat="49.90462" lon="2.47117">
        <ele>34.3</ele>
        <time>2022-10-19T13:42:48Z</time>
      </trkpt>
      <trkpt lat="49.90462" lon="2.47119">
        <ele>34.2</ele>
        <time>2022-10-19T13:42:49Z</time>
      </trkpt>
      <trkpt lat="49.90462" lon="2.47121">
        <ele>34.2</ele>
        <time>2022-10-19T13:42:51Z</time>
      </trkpt>
      <trkpt lat="49.90463" lon="2.47122">
        <ele>34.2</ele>
        <time>2022-10-19T13:42:52Z</time>
      </trkpt>
      <trkpt lat="49.90463" lon="2.47124">
        <ele>34.2</ele>
        <time>2022-10-19T13:42:53Z</time>
      </trkpt>
      <trkpt lat="49.90463" lon="2.47125">
        <ele>34.1</ele>
        <time>2022-10-19T13:42:54Z</time>
      </trkpt>
      <trkpt lat="49.90464" lon="2.47129">
        <ele>34.1</ele>
        <time>2022-10-19T13:42:55Z</time>
      </trkpt>
      <trkpt lat="49.90465" lon="2.4713">
        <ele>34</ele>
        <time>2022-10-19T13:42:56Z</time>
      </trkpt>
      <trkpt lat="49.90465" lon="2.47132">
        <ele>34</ele>
        <time>2022-10-19T13:42:57Z</time>
      </trkpt>
      <trkpt lat="49.90465" lon="2.47132">
        <ele>34</ele>
        <time>2022-10-19T13:42:58Z</time>
      </trkpt>
      <trkpt lat="49.90466" lon="2.47134">
        <ele>34</ele>
        <time>2022-10-19T13:42:59Z</time>
      </trkpt>
      <trkpt lat="49.90466" lon="2.47136">
        <ele>33.9</ele>
        <time>2022-10-19T13:43:00Z</time>
      </trkpt>
      <trkpt lat="49.90467" lon="2.47138">
        <ele>33.9</ele>
        <time>2022-10-19T13:43:02Z</time>
      </trkpt>
      <trkpt lat="49.90468" lon="2.4714">
        <ele>33.9</ele>
        <time>2022-10-19T13:43:03Z</time>
      </trkpt>
      <trkpt lat="49.90468" lon="2.47142">
        <ele>33.8</ele>
        <time>2022-10-19T13:43:04Z</time>
      </trkpt>
      <trkpt lat="49.90469" lon="2.47143">
        <ele>33.8</ele>
        <time>2022-10-19T13:43:05Z</time>
      </trkpt>
      <trkpt lat="49.90469" lon="2.47145">
        <ele>33.8</ele>
        <time>2022-10-19T13:43:06Z</time>
      </trkpt>
      <trkpt lat="49.90469" lon="2.47147">
        <ele>33.8</ele>
        <time>2022-10-19T13:43:07Z</time>
      </trkpt>
      <trkpt lat="49.9047" lon="2.47149">
        <ele>33.7</ele>
        <time>2022-10-19T13:43:08Z</time>
      </trkpt>
      <trkpt lat="49.9047" lon="2.47151">
        <ele>33.7</ele>
        <time>2022-10-19T13:43:10Z</time>
      </trkpt>
      <trkpt lat="49.90471" lon="2.47155">
        <ele>33.7</ele>
        <time>2022-10-19T13:43:11Z</time>
      </trkpt>
      <trkpt lat="49.90471" lon="2.47156">
        <ele>33.7</ele>
        <time>2022-10-19T13:43:12Z</time>
      </trkpt>
      <trkpt lat="49.90472" lon="2.47158">
        <ele>33.7</ele>
        <time>2022-10-19T13:43:13Z</time>
      </trkpt>
      <trkpt lat="49.90472" lon="2.47159">
        <ele>33.6</ele>
        <time>2022-10-19T13:43:15Z</time>
      </trkpt>
      <trkpt lat="49.90473" lon="2.47161">
        <ele>33.6</ele>
        <time>2022-10-19T13:43:16Z</time>
      </trkpt>
      <trkpt lat="49.90473" lon="2.47163">
        <ele>33.6</ele>
        <time>2022-10-19T13:43:17Z</time>
      </trkpt>
      <trkpt lat="49.90474" lon="2.47164">
        <ele>33.6</ele>
        <time>2022-10-19T13:43:18Z</time>
      </trkpt>
      <trkpt lat="49.90474" lon="2.47166">
        <ele>33.6</ele>
        <time>2022-10-19T13:43:19Z</time>
      </trkpt>
      <trkpt lat="49.90475" lon="2.47169">
        <ele>33.5</ele>
        <time>2022-10-19T13:43:20Z</time>
      </trkpt>
      <trkpt lat="49.90476" lon="2.4717">
        <ele>33.5</ele>
        <time>2022-10-19T13:43:21Z</time>
      </trkpt>
      <trkpt lat="49.90476" lon="2.47172">
        <ele>33.5</ele>
        <time>2022-10-19T13:43:22Z</time>
      </trkpt>
      <trkpt lat="49.90476" lon="2.47173">
        <ele>33.5</ele>
        <time>2022-10-19T13:43:23Z</time>
      </trkpt>
      <trkpt lat="49.90477" lon="2.47175">
        <ele>33.5</ele>
        <time>2022-10-19T13:43:24Z</time>
      </trkpt>
      <trkpt lat="49.90477" lon="2.47178">
        <ele>33.5</ele>
        <time>2022-10-19T13:43:26Z</time>
      </trkpt>
      <trkpt lat="49.90477" lon="2.47179">
        <ele>33.5</ele>
        <time>2022-10-19T13:43:27Z</time>
      </trkpt>
      <trkpt lat="49.90477" lon="2.47181">
        <ele>33.4</ele>
        <time>2022-10-19T13:43:28Z</time>
      </trkpt>
      <trkpt lat="49.90478" lon="2.47183">
        <ele>33.4</ele>
        <time>2022-10-19T13:43:29Z</time>
      </trkpt>
      <trkpt lat="49.90478" lon="2.47184">
        <ele>33.4</ele>
        <time>2022-10-19T13:43:30Z</time>
      </trkpt>
      <trkpt lat="49.90479" lon="2.47188">
        <ele>33.3</ele>
        <time>2022-10-19T13:43:32Z</time>
      </trkpt>
      <trkpt lat="49.90479" lon="2.47189">
        <ele>33.3</ele>
        <time>2022-10-19T13:43:33Z</time>
      </trkpt>
      <trkpt lat="49.90479" lon="2.47191">
        <ele>33.3</ele>
        <time>2022-10-19T13:43:34Z</time>
      </trkpt>
      <trkpt lat="49.90479" lon="2.47193">
        <ele>33.3</ele>
        <time>2022-10-19T13:43:35Z</time>
      </trkpt>
      <trkpt lat="49.9048" lon="2.47195">
        <ele>33.3</ele>
        <time>2022-10-19T13:43:36Z</time>
      </trkpt>
      <trkpt lat="49.90481" lon="2.47198">
        <ele>33.2</ele>
        <time>2022-10-19T13:43:37Z</time>
      </trkpt>
      <trkpt lat="49.90481" lon="2.47199">
        <ele>33.2</ele>
        <time>2022-10-19T13:43:39Z</time>
      </trkpt>
      <trkpt lat="49.90481" lon="2.472">
        <ele>33.2</ele>
        <time>2022-10-19T13:43:40Z</time>
      </trkpt>
      <trkpt lat="49.90481" lon="2.47202">
        <ele>33.2</ele>
        <time>2022-10-19T13:43:41Z</time>
      </trkpt>
      <trkpt lat="49.90482" lon="2.47206">
        <ele>33.1</ele>
        <time>2022-10-19T13:43:42Z</time>
      </trkpt>
      <trkpt lat="49.90482" lon="2.47207">
        <ele>33.1</ele>
        <time>2022-10-19T13:43:43Z</time>
      </trkpt>
      <trkpt lat="49.90483" lon="2.47211">
        <ele>33.1</ele>
        <time>2022-10-19T13:43:44Z</time>
      </trkpt>
      <trkpt lat="49.90484" lon="2.47213">
        <ele>33.1</ele>
        <time>2022-10-19T13:43:46Z</time>
      </trkpt>
      <trkpt lat="49.90484" lon="2.47215">
        <ele>33</ele>
        <time>2022-10-19T13:43:48Z</time>
      </trkpt>
      <trkpt lat="49.90485" lon="2.47217">
        <ele>33</ele>
        <time>2022-10-19T13:43:49Z</time>
      </trkpt>
      <trkpt lat="49.90485" lon="2.4722">
        <ele>33</ele>
        <time>2022-10-19T13:43:51Z</time>
      </trkpt>
      <trkpt lat="49.90486" lon="2.47221">
        <ele>33</ele>
        <time>2022-10-19T13:43:52Z</time>
      </trkpt>
      <trkpt lat="49.90487" lon="2.47223">
        <ele>33</ele>
        <time>2022-10-19T13:43:53Z</time>
      </trkpt>
      <trkpt lat="49.90487" lon="2.47224">
        <ele>32.9</ele>
        <time>2022-10-19T13:43:54Z</time>
      </trkpt>
      <trkpt lat="49.90488" lon="2.47226">
        <ele>32.9</ele>
        <time>2022-10-19T13:43:55Z</time>
      </trkpt>
      <trkpt lat="49.90489" lon="2.47229">
        <ele>32.9</ele>
        <time>2022-10-19T13:43:56Z</time>
      </trkpt>
      <trkpt lat="49.90489" lon="2.4723">
        <ele>32.9</ele>
        <time>2022-10-19T13:43:57Z</time>
      </trkpt>
      <trkpt lat="49.9049" lon="2.47231">
        <ele>32.8</ele>
        <time>2022-10-19T13:43:58Z</time>
      </trkpt>
      <trkpt lat="49.9049" lon="2.47234">
        <ele>32.8</ele>
        <time>2022-10-19T13:43:59Z</time>
      </trkpt>
      <trkpt lat="49.90491" lon="2.47236">
        <ele>32.8</ele>
        <time>2022-10-19T13:44:00Z</time>
      </trkpt>
      <trkpt lat="49.90491" lon="2.47237">
        <ele>32.8</ele>
        <time>2022-10-19T13:44:01Z</time>
      </trkpt>
      <trkpt lat="49.90491" lon="2.47239">
        <ele>32.7</ele>
        <time>2022-10-19T13:44:03Z</time>
      </trkpt>
      <trkpt lat="49.90492" lon="2.47241">
        <ele>32.7</ele>
        <time>2022-10-19T13:44:04Z</time>
      </trkpt>
      <trkpt lat="49.90492" lon="2.47242">
        <ele>32.7</ele>
        <time>2022-10-19T13:44:05Z</time>
      </trkpt>
      <trkpt lat="49.90493" lon="2.47244">
        <ele>32.7</ele>
        <time>2022-10-19T13:44:06Z</time>
      </trkpt>
      <trkpt lat="49.90494" lon="2.47246">
        <ele>32.6</ele>
        <time>2022-10-19T13:44:07Z</time>
      </trkpt>
      <trkpt lat="49.90494" lon="2.47248">
        <ele>32.6</ele>
        <time>2022-10-19T13:44:09Z</time>
      </trkpt>
      <trkpt lat="49.90495" lon="2.47249">
        <ele>32.6</ele>
        <time>2022-10-19T13:44:10Z</time>
      </trkpt>
      <trkpt lat="49.90496" lon="2.47251">
        <ele>32.6</ele>
        <time>2022-10-19T13:44:11Z</time>
      </trkpt>
      <trkpt lat="49.90496" lon="2.47253">
        <ele>32.6</ele>
        <time>2022-10-19T13:44:12Z</time>
      </trkpt>
      <trkpt lat="49.90497" lon="2.47256">
        <ele>32.5</ele>
        <time>2022-10-19T13:44:13Z</time>
      </trkpt>
      <trkpt lat="49.90497" lon="2.47257">
        <ele>32.5</ele>
        <time>2022-10-19T13:44:14Z</time>
      </trkpt>
      <trkpt lat="49.90498" lon="2.47259">
        <ele>32.5</ele>
        <time>2022-10-19T13:44:15Z</time>
      </trkpt>
      <trkpt lat="49.90498" lon="2.4726">
        <ele>32.5</ele>
        <time>2022-10-19T13:44:16Z</time>
      </trkpt>
      <trkpt lat="49.90499" lon="2.47264">
        <ele>32.5</ele>
        <time>2022-10-19T13:44:17Z</time>
      </trkpt>
      <trkpt lat="49.90499" lon="2.47265">
        <ele>32.5</ele>
        <time>2022-10-19T13:44:19Z</time>
      </trkpt>
      <trkpt lat="49.90499" lon="2.47266">
        <ele>32.5</ele>
        <time>2022-10-19T13:44:20Z</time>
      </trkpt>
      <trkpt lat="49.905" lon="2.4727">
        <ele>32.5</ele>
        <time>2022-10-19T13:44:21Z</time>
      </trkpt>
      <trkpt lat="49.905" lon="2.47271">
        <ele>32.5</ele>
        <time>2022-10-19T13:44:22Z</time>
      </trkpt>
      <trkpt lat="49.90501" lon="2.47272">
        <ele>32.5</ele>
        <time>2022-10-19T13:44:23Z</time>
      </trkpt>
      <trkpt lat="49.90501" lon="2.47274">
        <ele>32.5</ele>
        <time>2022-10-19T13:44:24Z</time>
      </trkpt>
      <trkpt lat="49.90501" lon="2.47275">
        <ele>32.5</ele>
        <time>2022-10-19T13:44:25Z</time>
      </trkpt>
      <trkpt lat="49.90501" lon="2.47277">
        <ele>32.5</ele>
        <time>2022-10-19T13:44:26Z</time>
      </trkpt>
      <trkpt lat="49.90502" lon="2.4728">
        <ele>32.5</ele>
        <time>2022-10-19T13:44:27Z</time>
      </trkpt>
      <trkpt lat="49.90503" lon="2.47281">
        <ele>32.5</ele>
        <time>2022-10-19T13:44:29Z</time>
      </trkpt>
      <trkpt lat="49.90503" lon="2.47282">
        <ele>32.5</ele>
        <time>2022-10-19T13:44:30Z</time>
      </trkpt>
      <trkpt lat="49.90503" lon="2.47286">
        <ele>32.5</ele>
        <time>2022-10-19T13:44:31Z</time>
      </trkpt>
      <trkpt lat="49.90504" lon="2.47287">
        <ele>32.5</ele>
        <time>2022-10-19T13:44:32Z</time>
      </trkpt>
      <trkpt lat="49.90504" lon="2.47288">
        <ele>32.5</ele>
        <time>2022-10-19T13:44:33Z</time>
      </trkpt>
      <trkpt lat="49.90504" lon="2.4729">
        <ele>32.5</ele>
        <time>2022-10-19T13:44:34Z</time>
      </trkpt>
      <trkpt lat="49.90505" lon="2.47291">
        <ele>32.5</ele>
        <time>2022-10-19T13:44:35Z</time>
      </trkpt>
      <trkpt lat="49.90505" lon="2.47293">
        <ele>32.5</ele>
        <time>2022-10-19T13:44:36Z</time>
      </trkpt>
      <trkpt lat="49.90505" lon="2.47295">
        <ele>32.5</ele>
        <time>2022-10-19T13:44:37Z</time>
      </trkpt>
      <trkpt lat="49.90506" lon="2.47297">
        <ele>32.6</ele>
        <time>2022-10-19T13:44:38Z</time>
      </trkpt>
      <trkpt lat="49.90507" lon="2.473">
        <ele>32.6</ele>
        <time>2022-10-19T13:44:40Z</time>
      </trkpt>
      <trkpt lat="49.90508" lon="2.47301">
        <ele>32.6</ele>
        <time>2022-10-19T13:44:41Z</time>
      </trkpt>
      <trkpt lat="49.90508" lon="2.47303">
        <ele>32.6</ele>
        <time>2022-10-19T13:44:42Z</time>
      </trkpt>
      <trkpt lat="49.90509" lon="2.47306">
        <ele>32.6</ele>
        <time>2022-10-19T13:44:43Z</time>
      </trkpt>
      <trkpt lat="49.90509" lon="2.47307">
        <ele>32.6</ele>
        <time>2022-10-19T13:44:44Z</time>
      </trkpt>
      <trkpt lat="49.9051" lon="2.47309">
        <ele>32.6</ele>
        <time>2022-10-19T13:44:45Z</time>
      </trkpt>
      <trkpt lat="49.9051" lon="2.47311">
        <ele>32.6</ele>
        <time>2022-10-19T13:44:46Z</time>
      </trkpt>
      <trkpt lat="49.90511" lon="2.47312">
        <ele>32.6</ele>
        <time>2022-10-19T13:44:47Z</time>
      </trkpt>
      <trkpt lat="49.90511" lon="2.47314">
        <ele>32.6</ele>
        <time>2022-10-19T13:44:48Z</time>
      </trkpt>
      <trkpt lat="49.90512" lon="2.47315">
        <ele>32.7</ele>
        <time>2022-10-19T13:44:49Z</time>
      </trkpt>
      <trkpt lat="49.90512" lon="2.47317">
        <ele>32.7</ele>
        <time>2022-10-19T13:44:51Z</time>
      </trkpt>
      <trkpt lat="49.90513" lon="2.47319">
        <ele>32.7</ele>
        <time>2022-10-19T13:44:52Z</time>
      </trkpt>
      <trkpt lat="49.90514" lon="2.47322">
        <ele>32.7</ele>
        <time>2022-10-19T13:44:53Z</time>
      </trkpt>
      <trkpt lat="49.90514" lon="2.47323">
        <ele>32.7</ele>
        <time>2022-10-19T13:44:54Z</time>
      </trkpt>
      <trkpt lat="49.90515" lon="2.47325">
        <ele>32.7</ele>
        <time>2022-10-19T13:44:55Z</time>
      </trkpt>
      <trkpt lat="49.90515" lon="2.47327">
        <ele>32.7</ele>
        <time>2022-10-19T13:44:56Z</time>
      </trkpt>
      <trkpt lat="49.90516" lon="2.4733">
        <ele>32.8</ele>
        <time>2022-10-19T13:44:57Z</time>
      </trkpt>
      <trkpt lat="49.90517" lon="2.47331">
        <ele>32.8</ele>
        <time>2022-10-19T13:44:58Z</time>
      </trkpt>
      <trkpt lat="49.90517" lon="2.47333">
        <ele>32.8</ele>
        <time>2022-10-19T13:45:00Z</time>
      </trkpt>
      <trkpt lat="49.90518" lon="2.47334">
        <ele>32.8</ele>
        <time>2022-10-19T13:45:01Z</time>
      </trkpt>
      <trkpt lat="49.90518" lon="2.47336">
        <ele>32.8</ele>
        <time>2022-10-19T13:45:02Z</time>
      </trkpt>
      <trkpt lat="49.90519" lon="2.47338">
        <ele>32.9</ele>
        <time>2022-10-19T13:45:03Z</time>
      </trkpt>
      <trkpt lat="49.90519" lon="2.47338">
        <ele>32.9</ele>
        <time>2022-10-19T13:45:04Z</time>
      </trkpt>
      <trkpt lat="49.90519" lon="2.4734">
        <ele>32.9</ele>
        <time>2022-10-19T13:45:05Z</time>
      </trkpt>
      <trkpt lat="49.9052" lon="2.47341">
        <ele>32.9</ele>
        <time>2022-10-19T13:45:06Z</time>
      </trkpt>
      <trkpt lat="49.90521" lon="2.47343">
        <ele>32.9</ele>
        <time>2022-10-19T13:45:08Z</time>
      </trkpt>
      <trkpt lat="49.90521" lon="2.47345">
        <ele>33</ele>
        <time>2022-10-19T13:45:09Z</time>
      </trkpt>
      <trkpt lat="49.90522" lon="2.47348">
        <ele>33</ele>
        <time>2022-10-19T13:45:10Z</time>
      </trkpt>
      <trkpt lat="49.90523" lon="2.47349">
        <ele>33.1</ele>
        <time>2022-10-19T13:45:11Z</time>
      </trkpt>
      <trkpt lat="49.90523" lon="2.4735">
        <ele>33.1</ele>
        <time>2022-10-19T13:45:12Z</time>
      </trkpt>
      <trkpt lat="49.90524" lon="2.47353">
        <ele>33.2</ele>
        <time>2022-10-19T13:45:13Z</time>
      </trkpt>
      <trkpt lat="49.90524" lon="2.47355">
        <ele>33.2</ele>
        <time>2022-10-19T13:45:15Z</time>
      </trkpt>
      <trkpt lat="49.90524" lon="2.47356">
        <ele>33.2</ele>
        <time>2022-10-19T13:45:16Z</time>
      </trkpt>
      <trkpt lat="49.90525" lon="2.47359">
        <ele>33.3</ele>
        <time>2022-10-19T13:45:17Z</time>
      </trkpt>
      <trkpt lat="49.90525" lon="2.4736">
        <ele>33.4</ele>
        <time>2022-10-19T13:45:18Z</time>
      </trkpt>
      <trkpt lat="49.90525" lon="2.47361">
        <ele>33.4</ele>
        <time>2022-10-19T13:45:19Z</time>
      </trkpt>
      <trkpt lat="49.90526" lon="2.47363">
        <ele>33.4</ele>
        <time>2022-10-19T13:45:20Z</time>
      </trkpt>
      <trkpt lat="49.90526" lon="2.47364">
        <ele>33.5</ele>
        <time>2022-10-19T13:45:21Z</time>
      </trkpt>
      <trkpt lat="49.90527" lon="2.47366">
        <ele>33.5</ele>
        <time>2022-10-19T13:45:23Z</time>
      </trkpt>
      <trkpt lat="49.90527" lon="2.47368">
        <ele>33.6</ele>
        <time>2022-10-19T13:45:24Z</time>
      </trkpt>
      <trkpt lat="49.90527" lon="2.47369">
        <ele>33.6</ele>
        <time>2022-10-19T13:45:25Z</time>
      </trkpt>
      <trkpt lat="49.90527" lon="2.4737">
        <ele>33.7</ele>
        <time>2022-10-19T13:45:26Z</time>
      </trkpt>
      <trkpt lat="49.90528" lon="2.47372">
        <ele>33.7</ele>
        <time>2022-10-19T13:45:27Z</time>
      </trkpt>
      <trkpt lat="49.90528" lon="2.47375">
        <ele>33.8</ele>
        <time>2022-10-19T13:45:28Z</time>
      </trkpt>
      <trkpt lat="49.90529" lon="2.47376">
        <ele>33.8</ele>
        <time>2022-10-19T13:45:29Z</time>
      </trkpt>
      <trkpt lat="49.90529" lon="2.47377">
        <ele>33.8</ele>
        <time>2022-10-19T13:45:30Z</time>
      </trkpt>
      <trkpt lat="49.90529" lon="2.47379">
        <ele>33.9</ele>
        <time>2022-10-19T13:45:32Z</time>
      </trkpt>
      <trkpt lat="49.9053" lon="2.47381">
        <ele>33.9</ele>
        <time>2022-10-19T13:45:33Z</time>
      </trkpt>
      <trkpt lat="49.9053" lon="2.47383">
        <ele>34</ele>
        <time>2022-10-19T13:45:34Z</time>
      </trkpt>
      <trkpt lat="49.9053" lon="2.47384">
        <ele>34</ele>
        <time>2022-10-19T13:45:35Z</time>
      </trkpt>
      <trkpt lat="49.90531" lon="2.47387">
        <ele>34.1</ele>
        <time>2022-10-19T13:45:36Z</time>
      </trkpt>
      <trkpt lat="49.90531" lon="2.47389">
        <ele>34.1</ele>
        <time>2022-10-19T13:45:37Z</time>
      </trkpt>
      <trkpt lat="49.90531" lon="2.4739">
        <ele>34.1</ele>
        <time>2022-10-19T13:45:38Z</time>
      </trkpt>
      <trkpt lat="49.90532" lon="2.47393">
        <ele>34.2</ele>
        <time>2022-10-19T13:45:40Z</time>
      </trkpt>
      <trkpt lat="49.90532" lon="2.47394">
        <ele>34.2</ele>
        <time>2022-10-19T13:45:41Z</time>
      </trkpt>
      <trkpt lat="49.90532" lon="2.47396">
        <ele>34.2</ele>
        <time>2022-10-19T13:45:42Z</time>
      </trkpt>
      <trkpt lat="49.90533" lon="2.47399">
        <ele>34.3</ele>
        <time>2022-10-19T13:45:43Z</time>
      </trkpt>
      <trkpt lat="49.90533" lon="2.474">
        <ele>34.3</ele>
        <time>2022-10-19T13:45:44Z</time>
      </trkpt>
      <trkpt lat="49.90533" lon="2.47404">
        <ele>34.3</ele>
        <time>2022-10-19T13:45:45Z</time>
      </trkpt>
      <trkpt lat="49.90534" lon="2.47405">
        <ele>34.3</ele>
        <time>2022-10-19T13:45:46Z</time>
      </trkpt>
      <trkpt lat="49.90534" lon="2.47406">
        <ele>34.3</ele>
        <time>2022-10-19T13:45:47Z</time>
      </trkpt>
      <trkpt lat="49.90534" lon="2.4741">
        <ele>34.4</ele>
        <time>2022-10-19T13:45:49Z</time>
      </trkpt>
      <trkpt lat="49.90534" lon="2.47411">
        <ele>34.4</ele>
        <time>2022-10-19T13:45:50Z</time>
      </trkpt>
      <trkpt lat="49.90534" lon="2.47412">
        <ele>34.4</ele>
        <time>2022-10-19T13:45:51Z</time>
      </trkpt>
      <trkpt lat="49.90535" lon="2.47416">
        <ele>34.4</ele>
        <time>2022-10-19T13:45:52Z</time>
      </trkpt>
      <trkpt lat="49.90535" lon="2.47418">
        <ele>34.4</ele>
        <time>2022-10-19T13:45:53Z</time>
      </trkpt>
      <trkpt lat="49.90534" lon="2.47418">
        <ele>34.4</ele>
        <time>2022-10-19T13:45:54Z</time>
      </trkpt>
      <trkpt lat="49.90534" lon="2.47419">
        <ele>34.4</ele>
        <time>2022-10-19T13:45:55Z</time>
      </trkpt>
      <trkpt lat="49.90534" lon="2.4742">
        <ele>34.4</ele>
        <time>2022-10-19T13:45:57Z</time>
      </trkpt>
      <trkpt lat="49.90535" lon="2.47422">
        <ele>34.5</ele>
        <time>2022-10-19T13:45:58Z</time>
      </trkpt>
      <trkpt lat="49.90535" lon="2.47423">
        <ele>34.5</ele>
        <time>2022-10-19T13:45:59Z</time>
      </trkpt>
      <trkpt lat="49.90535" lon="2.47427">
        <ele>34.5</ele>
        <time>2022-10-19T13:46:00Z</time>
      </trkpt>
      <trkpt lat="49.90535" lon="2.47428">
        <ele>34.5</ele>
        <time>2022-10-19T13:46:01Z</time>
      </trkpt>
      <trkpt lat="49.90536" lon="2.4743">
        <ele>34.5</ele>
        <time>2022-10-19T13:46:02Z</time>
      </trkpt>
      <trkpt lat="49.90537" lon="2.47433">
        <ele>34.5</ele>
        <time>2022-10-19T13:46:03Z</time>
      </trkpt>
      <trkpt lat="49.90537" lon="2.47434">
        <ele>34.5</ele>
        <time>2022-10-19T13:46:04Z</time>
      </trkpt>
      <trkpt lat="49.90538" lon="2.47437">
        <ele>34.5</ele>
        <time>2022-10-19T13:46:06Z</time>
      </trkpt>
      <trkpt lat="49.90538" lon="2.47438">
        <ele>34.5</ele>
        <time>2022-10-19T13:46:07Z</time>
      </trkpt>
      <trkpt lat="49.90539" lon="2.47439">
        <ele>34.5</ele>
        <time>2022-10-19T13:46:08Z</time>
      </trkpt>
      <trkpt lat="49.9054" lon="2.47442">
        <ele>34.6</ele>
        <time>2022-10-19T13:46:09Z</time>
      </trkpt>
      <trkpt lat="49.9054" lon="2.47443">
        <ele>34.6</ele>
        <time>2022-10-19T13:46:10Z</time>
      </trkpt>
      <trkpt lat="49.9054" lon="2.47445">
        <ele>34.6</ele>
        <time>2022-10-19T13:46:11Z</time>
      </trkpt>
      <trkpt lat="49.90541" lon="2.47448">
        <ele>34.6</ele>
        <time>2022-10-19T13:46:12Z</time>
      </trkpt>
      <trkpt lat="49.90542" lon="2.4745">
        <ele>34.6</ele>
        <time>2022-10-19T13:46:14Z</time>
      </trkpt>
      <trkpt lat="49.90542" lon="2.47451">
        <ele>34.6</ele>
        <time>2022-10-19T13:46:15Z</time>
      </trkpt>
      <trkpt lat="49.90543" lon="2.47453">
        <ele>34.6</ele>
        <time>2022-10-19T13:46:16Z</time>
      </trkpt>
      <trkpt lat="49.90543" lon="2.47455">
        <ele>34.6</ele>
        <time>2022-10-19T13:46:17Z</time>
      </trkpt>
      <trkpt lat="49.90544" lon="2.47456">
        <ele>34.6</ele>
        <time>2022-10-19T13:46:18Z</time>
      </trkpt>
      <trkpt lat="49.90545" lon="2.47458">
        <ele>34.7</ele>
        <time>2022-10-19T13:46:19Z</time>
      </trkpt>
      <trkpt lat="49.90545" lon="2.4746">
        <ele>34.7</ele>
        <time>2022-10-19T13:46:21Z</time>
      </trkpt>
      <trkpt lat="49.90546" lon="2.47462">
        <ele>34.7</ele>
        <time>2022-10-19T13:46:22Z</time>
      </trkpt>
      <trkpt lat="49.90547" lon="2.47464">
        <ele>34.7</ele>
        <time>2022-10-19T13:46:23Z</time>
      </trkpt>
      <trkpt lat="49.90548" lon="2.47466">
        <ele>34.7</ele>
        <time>2022-10-19T13:46:24Z</time>
      </trkpt>
      <trkpt lat="49.90549" lon="2.47468">
        <ele>34.7</ele>
        <time>2022-10-19T13:46:25Z</time>
      </trkpt>
      <trkpt lat="49.9055" lon="2.4747">
        <ele>34.7</ele>
        <time>2022-10-19T13:46:26Z</time>
      </trkpt>
      <trkpt lat="49.9055" lon="2.47471">
        <ele>34.7</ele>
        <time>2022-10-19T13:46:27Z</time>
      </trkpt>
      <trkpt lat="49.90551" lon="2.47472">
        <ele>34.7</ele>
        <time>2022-10-19T13:46:28Z</time>
      </trkpt>
      <trkpt lat="49.90552" lon="2.47473">
        <ele>34.7</ele>
        <time>2022-10-19T13:46:30Z</time>
      </trkpt>
      <trkpt lat="49.90553" lon="2.47474">
        <ele>34.7</ele>
        <time>2022-10-19T13:46:31Z</time>
      </trkpt>
      <trkpt lat="49.90553" lon="2.47475">
        <ele>34.8</ele>
        <time>2022-10-19T13:46:32Z</time>
      </trkpt>
      <trkpt lat="49.90554" lon="2.47476">
        <ele>34.8</ele>
        <time>2022-10-19T13:46:33Z</time>
      </trkpt>
      <trkpt lat="49.90553" lon="2.47477">
        <ele>34.8</ele>
        <time>2022-10-19T13:46:34Z</time>
      </trkpt>
      <trkpt lat="49.90552" lon="2.47478">
        <ele>34.8</ele>
        <time>2022-10-19T13:46:35Z</time>
      </trkpt>
      <trkpt lat="49.90552" lon="2.47479">
        <ele>34.8</ele>
        <time>2022-10-19T13:46:36Z</time>
      </trkpt>
      <trkpt lat="49.90552" lon="2.47481">
        <ele>34.8</ele>
        <time>2022-10-19T13:46:37Z</time>
      </trkpt>
      <trkpt lat="49.90552" lon="2.47484">
        <ele>34.8</ele>
        <time>2022-10-19T13:46:38Z</time>
      </trkpt>
      <trkpt lat="49.90552" lon="2.47486">
        <ele>34.8</ele>
        <time>2022-10-19T13:46:39Z</time>
      </trkpt>
      <trkpt lat="49.90552" lon="2.47488">
        <ele>34.8</ele>
        <time>2022-10-19T13:46:41Z</time>
      </trkpt>
      <trkpt lat="49.90553" lon="2.4749">
        <ele>34.8</ele>
        <time>2022-10-19T13:46:42Z</time>
      </trkpt>
      <trkpt lat="49.90553" lon="2.47492">
        <ele>34.8</ele>
        <time>2022-10-19T13:46:43Z</time>
      </trkpt>
      <trkpt lat="49.90555" lon="2.47494">
        <ele>34.8</ele>
        <time>2022-10-19T13:46:44Z</time>
      </trkpt>
      <trkpt lat="49.90555" lon="2.47495">
        <ele>34.8</ele>
        <time>2022-10-19T13:46:45Z</time>
      </trkpt>
      <trkpt lat="49.90555" lon="2.47497">
        <ele>34.8</ele>
        <time>2022-10-19T13:46:47Z</time>
      </trkpt>
      <trkpt lat="49.90556" lon="2.47499">
        <ele>34.8</ele>
        <time>2022-10-19T13:46:48Z</time>
      </trkpt>
      <trkpt lat="49.90556" lon="2.47502">
        <ele>34.7</ele>
        <time>2022-10-19T13:46:49Z</time>
      </trkpt>
      <trkpt lat="49.90557" lon="2.47505">
        <ele>34.7</ele>
        <time>2022-10-19T13:46:50Z</time>
      </trkpt>
      <trkpt lat="49.90557" lon="2.47506">
        <ele>34.7</ele>
        <time>2022-10-19T13:46:51Z</time>
      </trkpt>
      <trkpt lat="49.90557" lon="2.47507">
        <ele>34.7</ele>
        <time>2022-10-19T13:46:52Z</time>
      </trkpt>
      <trkpt lat="49.90557" lon="2.47511">
        <ele>34.7</ele>
        <time>2022-10-19T13:46:54Z</time>
      </trkpt>
      <trkpt lat="49.90557" lon="2.47512">
        <ele>34.7</ele>
        <time>2022-10-19T13:46:55Z</time>
      </trkpt>
      <trkpt lat="49.90558" lon="2.47515">
        <ele>34.7</ele>
        <time>2022-10-19T13:46:56Z</time>
      </trkpt>
      <trkpt lat="49.90559" lon="2.47516">
        <ele>34.7</ele>
        <time>2022-10-19T13:46:57Z</time>
      </trkpt>
      <trkpt lat="49.90559" lon="2.47517">
        <ele>34.7</ele>
        <time>2022-10-19T13:46:58Z</time>
      </trkpt>
      <trkpt lat="49.9056" lon="2.4752">
        <ele>34.7</ele>
        <time>2022-10-19T13:46:59Z</time>
      </trkpt>
      <trkpt lat="49.9056" lon="2.47521">
        <ele>34.7</ele>
        <time>2022-10-19T13:47:00Z</time>
      </trkpt>
      <trkpt lat="49.90561" lon="2.47522">
        <ele>34.7</ele>
        <time>2022-10-19T13:47:01Z</time>
      </trkpt>
      <trkpt lat="49.90561" lon="2.47524">
        <ele>34.7</ele>
        <time>2022-10-19T13:47:03Z</time>
      </trkpt>
      <trkpt lat="49.90562" lon="2.47527">
        <ele>34.7</ele>
        <time>2022-10-19T13:47:04Z</time>
      </trkpt>
      <trkpt lat="49.90563" lon="2.47527">
        <ele>34.7</ele>
        <time>2022-10-19T13:47:05Z</time>
      </trkpt>
      <trkpt lat="49.90563" lon="2.47527">
        <ele>34.7</ele>
        <time>2022-10-19T13:47:06Z</time>
      </trkpt>
      <trkpt lat="49.90564" lon="2.47528">
        <ele>34.7</ele>
        <time>2022-10-19T13:47:07Z</time>
      </trkpt>
      <trkpt lat="49.90565" lon="2.47529">
        <ele>34.7</ele>
        <time>2022-10-19T13:47:08Z</time>
      </trkpt>
      <trkpt lat="49.90565" lon="2.47532">
        <ele>34.7</ele>
        <time>2022-10-19T13:47:09Z</time>
      </trkpt>
      <trkpt lat="49.90565" lon="2.47533">
        <ele>34.7</ele>
        <time>2022-10-19T13:47:11Z</time>
      </trkpt>
      <trkpt lat="49.90565" lon="2.47535">
        <ele>34.7</ele>
        <time>2022-10-19T13:47:12Z</time>
      </trkpt>
      <trkpt lat="49.90566" lon="2.47537">
        <ele>34.7</ele>
        <time>2022-10-19T13:47:13Z</time>
      </trkpt>
      <trkpt lat="49.90566" lon="2.47539">
        <ele>34.7</ele>
        <time>2022-10-19T13:47:15Z</time>
      </trkpt>
      <trkpt lat="49.90566" lon="2.4754">
        <ele>34.7</ele>
        <time>2022-10-19T13:47:16Z</time>
      </trkpt>
      <trkpt lat="49.90566" lon="2.47542">
        <ele>34.7</ele>
        <time>2022-10-19T13:47:17Z</time>
      </trkpt>
      <trkpt lat="49.90566" lon="2.47543">
        <ele>34.7</ele>
        <time>2022-10-19T13:47:18Z</time>
      </trkpt>
      <trkpt lat="49.90566" lon="2.47544">
        <ele>34.7</ele>
        <time>2022-10-19T13:47:19Z</time>
      </trkpt>
      <trkpt lat="49.90566" lon="2.47544">
        <ele>34.7</ele>
        <time>2022-10-19T13:47:20Z</time>
      </trkpt>
      <trkpt lat="49.90567" lon="2.47545">
        <ele>34.7</ele>
        <time>2022-10-19T13:47:22Z</time>
      </trkpt>
      <trkpt lat="49.90568" lon="2.47545">
        <ele>34.7</ele>
        <time>2022-10-19T13:47:23Z</time>
      </trkpt>
      <trkpt lat="49.90567" lon="2.47546">
        <ele>34.7</ele>
        <time>2022-10-19T13:47:24Z</time>
      </trkpt>
      <trkpt lat="49.90567" lon="2.47547">
        <ele>34.7</ele>
        <time>2022-10-19T13:47:25Z</time>
      </trkpt>
      <trkpt lat="49.90567" lon="2.47548">
        <ele>34.7</ele>
        <time>2022-10-19T13:47:26Z</time>
      </trkpt>
      <trkpt lat="49.90568" lon="2.4755">
        <ele>34.7</ele>
        <time>2022-10-19T13:47:27Z</time>
      </trkpt>
      <trkpt lat="49.90569" lon="2.47552">
        <ele>34.6</ele>
        <time>2022-10-19T13:47:29Z</time>
      </trkpt>
      <trkpt lat="49.90569" lon="2.47553">
        <ele>34.6</ele>
        <time>2022-10-19T13:47:30Z</time>
      </trkpt>
      <trkpt lat="49.90568" lon="2.47553">
        <ele>34.6</ele>
        <time>2022-10-19T13:47:31Z</time>
      </trkpt>
      <trkpt lat="49.90568" lon="2.47553">
        <ele>34.6</ele>
        <time>2022-10-19T13:47:32Z</time>
      </trkpt>
      <trkpt lat="49.90567" lon="2.47552">
        <ele>34.6</ele>
        <time>2022-10-19T13:47:33Z</time>
      </trkpt>
      <trkpt lat="49.90567" lon="2.47552">
        <ele>34.6</ele>
        <time>2022-10-19T13:47:34Z</time>
      </trkpt>
      <trkpt lat="49.90567" lon="2.47552">
        <ele>34.6</ele>
        <time>2022-10-19T13:47:35Z</time>
      </trkpt>
      <trkpt lat="49.90567" lon="2.47551">
        <ele>34.6</ele>
        <time>2022-10-19T13:47:36Z</time>
      </trkpt>
      <trkpt lat="49.90567" lon="2.47551">
        <ele>34.6</ele>
        <time>2022-10-19T13:47:37Z</time>
      </trkpt>
      <trkpt lat="49.90567" lon="2.47551">
        <ele>34.6</ele>
        <time>2022-10-19T13:47:38Z</time>
      </trkpt>
      <trkpt lat="49.90567" lon="2.47551">
        <ele>34.6</ele>
        <time>2022-10-19T13:47:39Z</time>
      </trkpt>
      <trkpt lat="49.90567" lon="2.47551">
        <ele>34.6</ele>
        <time>2022-10-19T13:47:40Z</time>
      </trkpt>
      <trkpt lat="49.90567" lon="2.47551">
        <ele>34.6</ele>
        <time>2022-10-19T13:47:41Z</time>
      </trkpt>
      <trkpt lat="49.90567" lon="2.47551">
        <ele>34.6</ele>
        <time>2022-10-19T13:47:42Z</time>
      </trkpt>
      <trkpt lat="49.90567" lon="2.47551">
        <ele>34.6</ele>
        <time>2022-10-19T13:47:43Z</time>
      </trkpt>
      <trkpt lat="49.90566" lon="2.47551">
        <ele>34.6</ele>
        <time>2022-10-19T13:47:44Z</time>
      </trkpt>
      <trkpt lat="49.90566" lon="2.47551">
        <ele>34.6</ele>
        <time>2022-10-19T13:47:45Z</time>
      </trkpt>
      <trkpt lat="49.90566" lon="2.47551">
        <ele>34.6</ele>
        <time>2022-10-19T13:47:46Z</time>
      </trkpt>
      <trkpt lat="49.90566" lon="2.47551">
        <ele>34.6</ele>
        <time>2022-10-19T13:47:47Z</time>
      </trkpt>
      <trkpt lat="49.90567" lon="2.47551">
        <ele>34.6</ele>
        <time>2022-10-19T13:47:48Z</time>
      </trkpt>
      <trkpt lat="49.90567" lon="2.4755">
        <ele>34.6</ele>
        <time>2022-10-19T13:47:49Z</time>
      </trkpt>
      <trkpt lat="49.90567" lon="2.4755">
        <ele>34.6</ele>
        <time>2022-10-19T13:47:50Z</time>
      </trkpt>
      <trkpt lat="49.90567" lon="2.4755">
        <ele>34.6</ele>
        <time>2022-10-19T13:47:51Z</time>
      </trkpt>
      <trkpt lat="49.90567" lon="2.4755">
        <ele>34.6</ele>
        <time>2022-10-19T13:47:52Z</time>
      </trkpt>
      <trkpt lat="49.90567" lon="2.4755">
        <ele>34.6</ele>
        <time>2022-10-19T13:47:53Z</time>
      </trkpt>
      <trkpt lat="49.90567" lon="2.4755">
        <ele>34.6</ele>
        <time>2022-10-19T13:47:54Z</time>
      </trkpt>
      <trkpt lat="49.90567" lon="2.4755">
        <ele>34.6</ele>
        <time>2022-10-19T13:47:55Z</time>
      </trkpt>
      <trkpt lat="49.90567" lon="2.4755">
        <ele>34.6</ele>
        <time>2022-10-19T13:47:56Z</time>
      </trkpt>
      <trkpt lat="49.90567" lon="2.4755">
        <ele>34.6</ele>
        <time>2022-10-19T13:47:57Z</time>
      </trkpt>
      <trkpt lat="49.90567" lon="2.4755">
        <ele>34.6</ele>
        <time>2022-10-19T13:47:58Z</time>
      </trkpt>
      <trkpt lat="49.90567" lon="2.4755">
        <ele>34.6</ele>
        <time>2022-10-19T13:47:59Z</time>
      </trkpt>
      <trkpt lat="49.90567" lon="2.4755">
        <ele>34.6</ele>
        <time>2022-10-19T13:48:00Z</time>
      </trkpt>
      <trkpt lat="49.90567" lon="2.4755">
        <ele>34.6</ele>
        <time>2022-10-19T13:48:01Z</time>
      </trkpt>
      <trkpt lat="49.90567" lon="2.4755">
        <ele>34.6</ele>
        <time>2022-10-19T13:48:02Z</time>
      </trkpt>
      <trkpt lat="49.90567" lon="2.4755">
        <ele>34.6</ele>
        <time>2022-10-19T13:48:03Z</time>
      </trkpt>
      <trkpt lat="49.90567" lon="2.4755">
        <ele>34.6</ele>
        <time>2022-10-19T13:48:04Z</time>
      </trkpt>
      <trkpt lat="49.90567" lon="2.4755">
        <ele>34.6</ele>
        <time>2022-10-19T13:48:05Z</time>
      </trkpt>
      <trkpt lat="49.90567" lon="2.4755">
        <ele>34.6</ele>
        <time>2022-10-19T13:48:06Z</time>
      </trkpt>
      <trkpt lat="49.90567" lon="2.4755">
        <ele>34.6</ele>
        <time>2022-10-19T13:48:07Z</time>
      </trkpt>
      <trkpt lat="49.90567" lon="2.4755">
        <ele>34.6</ele>
        <time>2022-10-19T13:48:08Z</time>
      </trkpt>
      <trkpt lat="49.90567" lon="2.4755">
        <ele>34.6</ele>
        <time>2022-10-19T13:48:09Z</time>
      </trkpt>
      <trkpt lat="49.90568" lon="2.47548">
        <ele>34.5</ele>
        <time>2022-10-19T13:48:10Z</time>
      </trkpt>
      <trkpt lat="49.90568" lon="2.47548">
        <ele>34.5</ele>
        <time>2022-10-19T13:48:11Z</time>
      </trkpt>
      <trkpt lat="49.90568" lon="2.47549">
        <ele>34.5</ele>
        <time>2022-10-19T13:48:12Z</time>
      </trkpt>
      <trkpt lat="49.90568" lon="2.4755">
        <ele>34.5</ele>
        <time>2022-10-19T13:48:13Z</time>
      </trkpt>
      <trkpt lat="49.90568" lon="2.4755">
        <ele>34.5</ele>
        <time>2022-10-19T13:48:15Z</time>
      </trkpt>
      <trkpt lat="49.90568" lon="2.4755">
        <ele>34.5</ele>
        <time>2022-10-19T13:48:16Z</time>
      </trkpt>
      <trkpt lat="49.90569" lon="2.4755">
        <ele>34.5</ele>
        <time>2022-10-19T13:48:17Z</time>
      </trkpt>
      <trkpt lat="49.9057" lon="2.47551">
        <ele>34.5</ele>
        <time>2022-10-19T13:48:18Z</time>
      </trkpt>
      <trkpt lat="49.90572" lon="2.47554">
        <ele>34.4</ele>
        <time>2022-10-19T13:48:19Z</time>
      </trkpt>
      <trkpt lat="49.90573" lon="2.47556">
        <ele>34.4</ele>
        <time>2022-10-19T13:48:20Z</time>
      </trkpt>
      <trkpt lat="49.90574" lon="2.47559">
        <ele>34.3</ele>
        <time>2022-10-19T13:48:21Z</time>
      </trkpt>
      <trkpt lat="49.90574" lon="2.4756">
        <ele>34.3</ele>
        <time>2022-10-19T13:48:22Z</time>
      </trkpt>
      <trkpt lat="49.90574" lon="2.47562">
        <ele>34.3</ele>
        <time>2022-10-19T13:48:23Z</time>
      </trkpt>
      <trkpt lat="49.90574" lon="2.47565">
        <ele>34.2</ele>
        <time>2022-10-19T13:48:24Z</time>
      </trkpt>
      <trkpt lat="49.90574" lon="2.47567">
        <ele>34.2</ele>
        <time>2022-10-19T13:48:25Z</time>
      </trkpt>
      <trkpt lat="49.90574" lon="2.47569">
        <ele>34.1</ele>
        <time>2022-10-19T13:48:26Z</time>
      </trkpt>
      <trkpt lat="49.90574" lon="2.47571">
        <ele>34.1</ele>
        <time>2022-10-19T13:48:28Z</time>
      </trkpt>
      <trkpt lat="49.90575" lon="2.47573">
        <ele>34</ele>
        <time>2022-10-19T13:48:29Z</time>
      </trkpt>
      <trkpt lat="49.90575" lon="2.47574">
        <ele>34</ele>
        <time>2022-10-19T13:48:30Z</time>
      </trkpt>
      <trkpt lat="49.90575" lon="2.47576">
        <ele>34</ele>
        <time>2022-10-19T13:48:31Z</time>
      </trkpt>
      <trkpt lat="49.90575" lon="2.47577">
        <ele>33.9</ele>
        <time>2022-10-19T13:48:32Z</time>
      </trkpt>
      <trkpt lat="49.90576" lon="2.47579">
        <ele>33.9</ele>
        <time>2022-10-19T13:48:34Z</time>
      </trkpt>
      <trkpt lat="49.90577" lon="2.4758">
        <ele>33.8</ele>
        <time>2022-10-19T13:48:35Z</time>
      </trkpt>
      <trkpt lat="49.90577" lon="2.47583">
        <ele>33.8</ele>
        <time>2022-10-19T13:48:36Z</time>
      </trkpt>
      <trkpt lat="49.90578" lon="2.47584">
        <ele>33.8</ele>
        <time>2022-10-19T13:48:37Z</time>
      </trkpt>
      <trkpt lat="49.90578" lon="2.47586">
        <ele>33.7</ele>
        <time>2022-10-19T13:48:38Z</time>
      </trkpt>
      <trkpt lat="49.90579" lon="2.47587">
        <ele>33.7</ele>
        <time>2022-10-19T13:48:39Z</time>
      </trkpt>
      <trkpt lat="49.90579" lon="2.47589">
        <ele>33.7</ele>
        <time>2022-10-19T13:48:40Z</time>
      </trkpt>
      <trkpt lat="49.90579" lon="2.4759">
        <ele>33.6</ele>
        <time>2022-10-19T13:48:41Z</time>
      </trkpt>
      <trkpt lat="49.9058" lon="2.47594">
        <ele>33.6</ele>
        <time>2022-10-19T13:48:43Z</time>
      </trkpt>
      <trkpt lat="49.9058" lon="2.47595">
        <ele>33.5</ele>
        <time>2022-10-19T13:48:44Z</time>
      </trkpt>
      <trkpt lat="49.9058" lon="2.47596">
        <ele>33.5</ele>
        <time>2022-10-19T13:48:45Z</time>
      </trkpt>
      <trkpt lat="49.90581" lon="2.47598">
        <ele>33.5</ele>
        <time>2022-10-19T13:48:46Z</time>
      </trkpt>
      <trkpt lat="49.90581" lon="2.476">
        <ele>33.4</ele>
        <time>2022-10-19T13:48:47Z</time>
      </trkpt>
      <trkpt lat="49.90582" lon="2.47601">
        <ele>33.4</ele>
        <time>2022-10-19T13:48:48Z</time>
      </trkpt>
      <trkpt lat="49.90583" lon="2.47604">
        <ele>33.3</ele>
        <time>2022-10-19T13:48:49Z</time>
      </trkpt>
      <trkpt lat="49.90583" lon="2.47605">
        <ele>33.3</ele>
        <time>2022-10-19T13:48:50Z</time>
      </trkpt>
      <trkpt lat="49.90584" lon="2.47606">
        <ele>33.3</ele>
        <time>2022-10-19T13:48:51Z</time>
      </trkpt>
      <trkpt lat="49.90585" lon="2.47608">
        <ele>33.2</ele>
        <time>2022-10-19T13:48:53Z</time>
      </trkpt>
      <trkpt lat="49.90585" lon="2.4761">
        <ele>33.2</ele>
        <time>2022-10-19T13:48:54Z</time>
      </trkpt>
      <trkpt lat="49.90586" lon="2.47613">
        <ele>33.1</ele>
        <time>2022-10-19T13:48:55Z</time>
      </trkpt>
      <trkpt lat="49.90587" lon="2.47614">
        <ele>33.1</ele>
        <time>2022-10-19T13:48:56Z</time>
      </trkpt>
      <trkpt lat="49.90587" lon="2.47615">
        <ele>33</ele>
        <time>2022-10-19T13:48:57Z</time>
      </trkpt>
      <trkpt lat="49.90587" lon="2.47617">
        <ele>33</ele>
        <time>2022-10-19T13:48:58Z</time>
      </trkpt>
      <trkpt lat="49.90587" lon="2.47618">
        <ele>32.9</ele>
        <time>2022-10-19T13:48:59Z</time>
      </trkpt>
      <trkpt lat="49.90588" lon="2.4762">
        <ele>32.9</ele>
        <time>2022-10-19T13:49:01Z</time>
      </trkpt>
      <trkpt lat="49.90588" lon="2.47621">
        <ele>32.8</ele>
        <time>2022-10-19T13:49:02Z</time>
      </trkpt>
      <trkpt lat="49.90589" lon="2.47623">
        <ele>32.8</ele>
        <time>2022-10-19T13:49:03Z</time>
      </trkpt>
      <trkpt lat="49.90589" lon="2.47625">
        <ele>32.7</ele>
        <time>2022-10-19T13:49:04Z</time>
      </trkpt>
      <trkpt lat="49.9059" lon="2.47627">
        <ele>32.6</ele>
        <time>2022-10-19T13:49:05Z</time>
      </trkpt>
      <trkpt lat="49.9059" lon="2.47628">
        <ele>32.6</ele>
        <time>2022-10-19T13:49:06Z</time>
      </trkpt>
      <trkpt lat="49.90591" lon="2.47629">
        <ele>32.5</ele>
        <time>2022-10-19T13:49:07Z</time>
      </trkpt>
      <trkpt lat="49.90591" lon="2.4763">
        <ele>32.5</ele>
        <time>2022-10-19T13:49:08Z</time>
      </trkpt>
      <trkpt lat="49.90592" lon="2.47632">
        <ele>32.4</ele>
        <time>2022-10-19T13:49:09Z</time>
      </trkpt>
      <trkpt lat="49.90593" lon="2.47633">
        <ele>32.4</ele>
        <time>2022-10-19T13:49:11Z</time>
      </trkpt>
      <trkpt lat="49.90593" lon="2.47635">
        <ele>32.3</ele>
        <time>2022-10-19T13:49:12Z</time>
      </trkpt>
      <trkpt lat="49.90594" lon="2.47636">
        <ele>32.2</ele>
        <time>2022-10-19T13:49:13Z</time>
      </trkpt>
      <trkpt lat="49.90595" lon="2.47638">
        <ele>32.2</ele>
        <time>2022-10-19T13:49:14Z</time>
      </trkpt>
      <trkpt lat="49.90595" lon="2.47639">
        <ele>32.1</ele>
        <time>2022-10-19T13:49:15Z</time>
      </trkpt>
      <trkpt lat="49.90596" lon="2.4764">
        <ele>32.1</ele>
        <time>2022-10-19T13:49:16Z</time>
      </trkpt>
      <trkpt lat="49.90596" lon="2.47642">
        <ele>32</ele>
        <time>2022-10-19T13:49:17Z</time>
      </trkpt>
      <trkpt lat="49.90597" lon="2.47644">
        <ele>31.9</ele>
        <time>2022-10-19T13:49:19Z</time>
      </trkpt>
      <trkpt lat="49.90598" lon="2.47646">
        <ele>31.9</ele>
        <time>2022-10-19T13:49:20Z</time>
      </trkpt>
      <trkpt lat="49.90598" lon="2.47648">
        <ele>31.8</ele>
        <time>2022-10-19T13:49:21Z</time>
      </trkpt>
      <trkpt lat="49.90598" lon="2.47649">
        <ele>31.7</ele>
        <time>2022-10-19T13:49:22Z</time>
      </trkpt>
      <trkpt lat="49.90599" lon="2.47651">
        <ele>31.7</ele>
        <time>2022-10-19T13:49:24Z</time>
      </trkpt>
      <trkpt lat="49.906" lon="2.47652">
        <ele>31.6</ele>
        <time>2022-10-19T13:49:25Z</time>
      </trkpt>
      <trkpt lat="49.906" lon="2.47654">
        <ele>31.6</ele>
        <time>2022-10-19T13:49:26Z</time>
      </trkpt>
      <trkpt lat="49.906" lon="2.47655">
        <ele>31.5</ele>
        <time>2022-10-19T13:49:27Z</time>
      </trkpt>
      <trkpt lat="49.90601" lon="2.47656">
        <ele>31.5</ele>
        <time>2022-10-19T13:49:28Z</time>
      </trkpt>
      <trkpt lat="49.90601" lon="2.47658">
        <ele>31.4</ele>
        <time>2022-10-19T13:49:29Z</time>
      </trkpt>
      <trkpt lat="49.90602" lon="2.47659">
        <ele>31.4</ele>
        <time>2022-10-19T13:49:30Z</time>
      </trkpt>
      <trkpt lat="49.90602" lon="2.47661">
        <ele>31.3</ele>
        <time>2022-10-19T13:49:31Z</time>
      </trkpt>
      <trkpt lat="49.90603" lon="2.47662">
        <ele>31.3</ele>
        <time>2022-10-19T13:49:32Z</time>
      </trkpt>
      <trkpt lat="49.90604" lon="2.47664">
        <ele>31.2</ele>
        <time>2022-10-19T13:49:34Z</time>
      </trkpt>
      <trkpt lat="49.90604" lon="2.47665">
        <ele>31.2</ele>
        <time>2022-10-19T13:49:35Z</time>
      </trkpt>
      <trkpt lat="49.90605" lon="2.47666">
        <ele>31.1</ele>
        <time>2022-10-19T13:49:36Z</time>
      </trkpt>
      <trkpt lat="49.90605" lon="2.47667">
        <ele>31.1</ele>
        <time>2022-10-19T13:49:37Z</time>
      </trkpt>
      <trkpt lat="49.90606" lon="2.47669">
        <ele>31</ele>
        <time>2022-10-19T13:49:38Z</time>
      </trkpt>
      <trkpt lat="49.90606" lon="2.4767">
        <ele>31</ele>
        <time>2022-10-19T13:49:39Z</time>
      </trkpt>
      <trkpt lat="49.90607" lon="2.47672">
        <ele>30.9</ele>
        <time>2022-10-19T13:49:40Z</time>
      </trkpt>
      <trkpt lat="49.90608" lon="2.47673">
        <ele>30.9</ele>
        <time>2022-10-19T13:49:41Z</time>
      </trkpt>
      <trkpt lat="49.90609" lon="2.47674">
        <ele>30.8</ele>
        <time>2022-10-19T13:49:42Z</time>
      </trkpt>
      <trkpt lat="49.9061" lon="2.47676">
        <ele>30.8</ele>
        <time>2022-10-19T13:49:44Z</time>
      </trkpt>
      <trkpt lat="49.90611" lon="2.47677">
        <ele>30.7</ele>
        <time>2022-10-19T13:49:45Z</time>
      </trkpt>
      <trkpt lat="49.90611" lon="2.47678">
        <ele>30.7</ele>
        <time>2022-10-19T13:49:46Z</time>
      </trkpt>
      <trkpt lat="49.90612" lon="2.4768">
        <ele>30.6</ele>
        <time>2022-10-19T13:49:47Z</time>
      </trkpt>
      <trkpt lat="49.90613" lon="2.47683">
        <ele>30.6</ele>
        <time>2022-10-19T13:49:48Z</time>
      </trkpt>
      <trkpt lat="49.90613" lon="2.47684">
        <ele>30.5</ele>
        <time>2022-10-19T13:49:49Z</time>
      </trkpt>
      <trkpt lat="49.90614" lon="2.47685">
        <ele>30.5</ele>
        <time>2022-10-19T13:49:50Z</time>
      </trkpt>
      <trkpt lat="49.90614" lon="2.47688">
        <ele>30.4</ele>
        <time>2022-10-19T13:49:51Z</time>
      </trkpt>
      <trkpt lat="49.90615" lon="2.47689">
        <ele>30.4</ele>
        <time>2022-10-19T13:49:53Z</time>
      </trkpt>
      <trkpt lat="49.90615" lon="2.47691">
        <ele>30.4</ele>
        <time>2022-10-19T13:49:54Z</time>
      </trkpt>
      <trkpt lat="49.90615" lon="2.47693">
        <ele>30.3</ele>
        <time>2022-10-19T13:49:55Z</time>
      </trkpt>
      <trkpt lat="49.90616" lon="2.47694">
        <ele>30.3</ele>
        <time>2022-10-19T13:49:56Z</time>
      </trkpt>
      <trkpt lat="49.90616" lon="2.47695">
        <ele>30.3</ele>
        <time>2022-10-19T13:49:57Z</time>
      </trkpt>
      <trkpt lat="49.90616" lon="2.47696">
        <ele>30.2</ele>
        <time>2022-10-19T13:49:58Z</time>
      </trkpt>
      <trkpt lat="49.90616" lon="2.47698">
        <ele>30.2</ele>
        <time>2022-10-19T13:49:59Z</time>
      </trkpt>
      <trkpt lat="49.90616" lon="2.47701">
        <ele>30.2</ele>
        <time>2022-10-19T13:50:00Z</time>
      </trkpt>
      <trkpt lat="49.90615" lon="2.47703">
        <ele>30.2</ele>
        <time>2022-10-19T13:50:01Z</time>
      </trkpt>
      <trkpt lat="49.90615" lon="2.47705">
        <ele>30.2</ele>
        <time>2022-10-19T13:50:02Z</time>
      </trkpt>
      <trkpt lat="49.90614" lon="2.47707">
        <ele>30.2</ele>
        <time>2022-10-19T13:50:04Z</time>
      </trkpt>
      <trkpt lat="49.90614" lon="2.47709">
        <ele>30.3</ele>
        <time>2022-10-19T13:50:05Z</time>
      </trkpt>
      <trkpt lat="49.90614" lon="2.4771">
        <ele>30.3</ele>
        <time>2022-10-19T13:50:06Z</time>
      </trkpt>
      <trkpt lat="49.90613" lon="2.47712">
        <ele>30.3</ele>
        <time>2022-10-19T13:50:07Z</time>
      </trkpt>
      <trkpt lat="49.90613" lon="2.47715">
        <ele>30.3</ele>
        <time>2022-10-19T13:50:08Z</time>
      </trkpt>
      <trkpt lat="49.90612" lon="2.47717">
        <ele>30.3</ele>
        <time>2022-10-19T13:50:09Z</time>
      </trkpt>
      <trkpt lat="49.90612" lon="2.47718">
        <ele>30.3</ele>
        <time>2022-10-19T13:50:10Z</time>
      </trkpt>
      <trkpt lat="49.90611" lon="2.47721">
        <ele>30.3</ele>
        <time>2022-10-19T13:50:11Z</time>
      </trkpt>
      <trkpt lat="49.9061" lon="2.47722">
        <ele>30.3</ele>
        <time>2022-10-19T13:50:12Z</time>
      </trkpt>
      <trkpt lat="49.90609" lon="2.47723">
        <ele>30.3</ele>
        <time>2022-10-19T13:50:13Z</time>
      </trkpt>
      <trkpt lat="49.90608" lon="2.47725">
        <ele>30.3</ele>
        <time>2022-10-19T13:50:15Z</time>
      </trkpt>
      <trkpt lat="49.90607" lon="2.47726">
        <ele>30.3</ele>
        <time>2022-10-19T13:50:16Z</time>
      </trkpt>
      <trkpt lat="49.90606" lon="2.47727">
        <ele>30.3</ele>
        <time>2022-10-19T13:50:17Z</time>
      </trkpt>
      <trkpt lat="49.90605" lon="2.47728">
        <ele>30.3</ele>
        <time>2022-10-19T13:50:18Z</time>
      </trkpt>
      <trkpt lat="49.90605" lon="2.4773">
        <ele>30.3</ele>
        <time>2022-10-19T13:50:19Z</time>
      </trkpt>
      <trkpt lat="49.90604" lon="2.47731">
        <ele>30.3</ele>
        <time>2022-10-19T13:50:20Z</time>
      </trkpt>
      <trkpt lat="49.90603" lon="2.47732">
        <ele>30.3</ele>
        <time>2022-10-19T13:50:21Z</time>
      </trkpt>
      <trkpt lat="49.90602" lon="2.47734">
        <ele>30.3</ele>
        <time>2022-10-19T13:50:23Z</time>
      </trkpt>
      <trkpt lat="49.90601" lon="2.47735">
        <ele>30.3</ele>
        <time>2022-10-19T13:50:24Z</time>
      </trkpt>
      <trkpt lat="49.90601" lon="2.47737">
        <ele>30.3</ele>
        <time>2022-10-19T13:50:25Z</time>
      </trkpt>
      <trkpt lat="49.906" lon="2.47738">
        <ele>30.3</ele>
        <time>2022-10-19T13:50:26Z</time>
      </trkpt>
      <trkpt lat="49.90599" lon="2.4774">
        <ele>30.3</ele>
        <time>2022-10-19T13:50:27Z</time>
      </trkpt>
      <trkpt lat="49.90598" lon="2.47741">
        <ele>30.3</ele>
        <time>2022-10-19T13:50:28Z</time>
      </trkpt>
      <trkpt lat="49.90597" lon="2.47742">
        <ele>30.3</ele>
        <time>2022-10-19T13:50:30Z</time>
      </trkpt>
      <trkpt lat="49.90596" lon="2.47742">
        <ele>30.3</ele>
        <time>2022-10-19T13:50:31Z</time>
      </trkpt>
      <trkpt lat="49.90595" lon="2.47742">
        <ele>30.3</ele>
        <time>2022-10-19T13:50:32Z</time>
      </trkpt>
      <trkpt lat="49.90594" lon="2.47742">
        <ele>30.3</ele>
        <time>2022-10-19T13:50:33Z</time>
      </trkpt>
      <trkpt lat="49.90594" lon="2.47743">
        <ele>30.3</ele>
        <time>2022-10-19T13:50:34Z</time>
      </trkpt>
      <trkpt lat="49.90593" lon="2.47743">
        <ele>30.2</ele>
        <time>2022-10-19T13:50:35Z</time>
      </trkpt>
      <trkpt lat="49.90592" lon="2.47744">
        <ele>30.2</ele>
        <time>2022-10-19T13:50:36Z</time>
      </trkpt>
      <trkpt lat="49.90592" lon="2.47744">
        <ele>30.2</ele>
        <time>2022-10-19T13:50:37Z</time>
      </trkpt>
      <trkpt lat="49.90591" lon="2.47745">
        <ele>30.2</ele>
        <time>2022-10-19T13:50:38Z</time>
      </trkpt>
      <trkpt lat="49.9059" lon="2.47746">
        <ele>30.2</ele>
        <time>2022-10-19T13:50:40Z</time>
      </trkpt>
      <trkpt lat="49.9059" lon="2.47747">
        <ele>30.2</ele>
        <time>2022-10-19T13:50:41Z</time>
      </trkpt>
      <trkpt lat="49.90589" lon="2.47748">
        <ele>30.2</ele>
        <time>2022-10-19T13:50:42Z</time>
      </trkpt>
      <trkpt lat="49.90588" lon="2.47749">
        <ele>30.2</ele>
        <time>2022-10-19T13:50:43Z</time>
      </trkpt>
      <trkpt lat="49.90588" lon="2.47751">
        <ele>30.2</ele>
        <time>2022-10-19T13:50:44Z</time>
      </trkpt>
      <trkpt lat="49.90587" lon="2.47752">
        <ele>30.2</ele>
        <time>2022-10-19T13:50:45Z</time>
      </trkpt>
      <trkpt lat="49.90585" lon="2.47755">
        <ele>30.2</ele>
        <time>2022-10-19T13:50:46Z</time>
      </trkpt>
      <trkpt lat="49.90585" lon="2.47756">
        <ele>30.2</ele>
        <time>2022-10-19T13:50:47Z</time>
      </trkpt>
      <trkpt lat="49.90584" lon="2.47757">
        <ele>30.2</ele>
        <time>2022-10-19T13:50:48Z</time>
      </trkpt>
      <trkpt lat="49.90583" lon="2.4776">
        <ele>30.2</ele>
        <time>2022-10-19T13:50:49Z</time>
      </trkpt>
      <trkpt lat="49.90583" lon="2.47761">
        <ele>30.2</ele>
        <time>2022-10-19T13:50:51Z</time>
      </trkpt>
      <trkpt lat="49.90582" lon="2.47762">
        <ele>30.2</ele>
        <time>2022-10-19T13:50:52Z</time>
      </trkpt>
      <trkpt lat="49.90582" lon="2.47764">
        <ele>30.2</ele>
        <time>2022-10-19T13:50:53Z</time>
      </trkpt>
      <trkpt lat="49.90581" lon="2.47765">
        <ele>30.2</ele>
        <time>2022-10-19T13:50:54Z</time>
      </trkpt>
      <trkpt lat="49.90581" lon="2.47767">
        <ele>30.2</ele>
        <time>2022-10-19T13:50:55Z</time>
      </trkpt>
      <trkpt lat="49.9058" lon="2.4777">
        <ele>30.2</ele>
        <time>2022-10-19T13:50:56Z</time>
      </trkpt>
      <trkpt lat="49.90579" lon="2.47771">
        <ele>30.2</ele>
        <time>2022-10-19T13:50:57Z</time>
      </trkpt>
      <trkpt lat="49.90579" lon="2.47772">
        <ele>30.2</ele>
        <time>2022-10-19T13:50:58Z</time>
      </trkpt>
      <trkpt lat="49.90578" lon="2.47774">
        <ele>30.2</ele>
        <time>2022-10-19T13:50:59Z</time>
      </trkpt>
      <trkpt lat="49.90578" lon="2.47776">
        <ele>30.2</ele>
        <time>2022-10-19T13:51:00Z</time>
      </trkpt>
      <trkpt lat="49.90578" lon="2.47778">
        <ele>30.2</ele>
        <time>2022-10-19T13:51:02Z</time>
      </trkpt>
      <trkpt lat="49.90577" lon="2.47779">
        <ele>30.2</ele>
        <time>2022-10-19T13:51:03Z</time>
      </trkpt>
      <trkpt lat="49.90577" lon="2.47781">
        <ele>30.2</ele>
        <time>2022-10-19T13:51:04Z</time>
      </trkpt>
      <trkpt lat="49.90576" lon="2.47782">
        <ele>30.2</ele>
        <time>2022-10-19T13:51:05Z</time>
      </trkpt>
      <trkpt lat="49.90575" lon="2.47785">
        <ele>30.2</ele>
        <time>2022-10-19T13:51:06Z</time>
      </trkpt>
      <trkpt lat="49.90575" lon="2.47787">
        <ele>30.2</ele>
        <time>2022-10-19T13:51:07Z</time>
      </trkpt>
      <trkpt lat="49.90575" lon="2.47788">
        <ele>30.2</ele>
        <time>2022-10-19T13:51:08Z</time>
      </trkpt>
      <trkpt lat="49.90575" lon="2.4779">
        <ele>30.2</ele>
        <time>2022-10-19T13:51:09Z</time>
      </trkpt>
      <trkpt lat="49.90574" lon="2.47792">
        <ele>30.2</ele>
        <time>2022-10-19T13:51:10Z</time>
      </trkpt>
      <trkpt lat="49.90574" lon="2.47794">
        <ele>30.2</ele>
        <time>2022-10-19T13:51:11Z</time>
      </trkpt>
      <trkpt lat="49.90574" lon="2.47796">
        <ele>30.2</ele>
        <time>2022-10-19T13:51:13Z</time>
      </trkpt>
      <trkpt lat="49.90573" lon="2.47799">
        <ele>30.2</ele>
        <time>2022-10-19T13:51:14Z</time>
      </trkpt>
      <trkpt lat="49.90573" lon="2.478">
        <ele>30.2</ele>
        <time>2022-10-19T13:51:15Z</time>
      </trkpt>
      <trkpt lat="49.90572" lon="2.47801">
        <ele>30.2</ele>
        <time>2022-10-19T13:51:16Z</time>
      </trkpt>
      <trkpt lat="49.90571" lon="2.47803">
        <ele>30.2</ele>
        <time>2022-10-19T13:51:17Z</time>
      </trkpt>
      <trkpt lat="49.9057" lon="2.47804">
        <ele>30.2</ele>
        <time>2022-10-19T13:51:18Z</time>
      </trkpt>
      <trkpt lat="49.90569" lon="2.47808">
        <ele>30.2</ele>
        <time>2022-10-19T13:51:19Z</time>
      </trkpt>
      <trkpt lat="49.90568" lon="2.47809">
        <ele>30.3</ele>
        <time>2022-10-19T13:51:21Z</time>
      </trkpt>
      <trkpt lat="49.90568" lon="2.47811">
        <ele>30.3</ele>
        <time>2022-10-19T13:51:22Z</time>
      </trkpt>
      <trkpt lat="49.90568" lon="2.47812">
        <ele>30.3</ele>
        <time>2022-10-19T13:51:23Z</time>
      </trkpt>
      <trkpt lat="49.90567" lon="2.47813">
        <ele>30.3</ele>
        <time>2022-10-19T13:51:24Z</time>
      </trkpt>
      <trkpt lat="49.90566" lon="2.47816">
        <ele>30.3</ele>
        <time>2022-10-19T13:51:25Z</time>
      </trkpt>
      <trkpt lat="49.90566" lon="2.47817">
        <ele>30.3</ele>
        <time>2022-10-19T13:51:26Z</time>
      </trkpt>
      <trkpt lat="49.90565" lon="2.47818">
        <ele>30.3</ele>
        <time>2022-10-19T13:51:27Z</time>
      </trkpt>
      <trkpt lat="49.90564" lon="2.4782">
        <ele>30.3</ele>
        <time>2022-10-19T13:51:28Z</time>
      </trkpt>
      <trkpt lat="49.90564" lon="2.47822">
        <ele>30.3</ele>
        <time>2022-10-19T13:51:29Z</time>
      </trkpt>
      <trkpt lat="49.90563" lon="2.47823">
        <ele>30.3</ele>
        <time>2022-10-19T13:51:30Z</time>
      </trkpt>
      <trkpt lat="49.90563" lon="2.47826">
        <ele>30.3</ele>
        <time>2022-10-19T13:51:31Z</time>
      </trkpt>
      <trkpt lat="49.90562" lon="2.47828">
        <ele>30.3</ele>
        <time>2022-10-19T13:51:33Z</time>
      </trkpt>
      <trkpt lat="49.90562" lon="2.47829">
        <ele>30.3</ele>
        <time>2022-10-19T13:51:34Z</time>
      </trkpt>
      <trkpt lat="49.90562" lon="2.47831">
        <ele>30.3</ele>
        <time>2022-10-19T13:51:35Z</time>
      </trkpt>
      <trkpt lat="49.90562" lon="2.47832">
        <ele>30.3</ele>
        <time>2022-10-19T13:51:36Z</time>
      </trkpt>
      <trkpt lat="49.90561" lon="2.47834">
        <ele>30.3</ele>
        <time>2022-10-19T13:51:37Z</time>
      </trkpt>
      <trkpt lat="49.90561" lon="2.47838">
        <ele>30.3</ele>
        <time>2022-10-19T13:51:38Z</time>
      </trkpt>
      <trkpt lat="49.90561" lon="2.47839">
        <ele>30.3</ele>
        <time>2022-10-19T13:51:40Z</time>
      </trkpt>
      <trkpt lat="49.9056" lon="2.4784">
        <ele>30.3</ele>
        <time>2022-10-19T13:51:41Z</time>
      </trkpt>
      <trkpt lat="49.9056" lon="2.47843">
        <ele>30.3</ele>
        <time>2022-10-19T13:51:42Z</time>
      </trkpt>
      <trkpt lat="49.9056" lon="2.47844">
        <ele>30.3</ele>
        <time>2022-10-19T13:51:43Z</time>
      </trkpt>
      <trkpt lat="49.9056" lon="2.47847">
        <ele>30.3</ele>
        <time>2022-10-19T13:51:44Z</time>
      </trkpt>
      <trkpt lat="49.90559" lon="2.47849">
        <ele>30.3</ele>
        <time>2022-10-19T13:51:46Z</time>
      </trkpt>
      <trkpt lat="49.90559" lon="2.47851">
        <ele>30.3</ele>
        <time>2022-10-19T13:51:47Z</time>
      </trkpt>
      <trkpt lat="49.90559" lon="2.47852">
        <ele>30.3</ele>
        <time>2022-10-19T13:51:48Z</time>
      </trkpt>
      <trkpt lat="49.90559" lon="2.47854">
        <ele>30.3</ele>
        <time>2022-10-19T13:51:49Z</time>
      </trkpt>
      <trkpt lat="49.90559" lon="2.47855">
        <ele>30.3</ele>
        <time>2022-10-19T13:51:50Z</time>
      </trkpt>
      <trkpt lat="49.90559" lon="2.47857">
        <ele>30.3</ele>
        <time>2022-10-19T13:51:51Z</time>
      </trkpt>
      <trkpt lat="49.90559" lon="2.47858">
        <ele>30.3</ele>
        <time>2022-10-19T13:51:52Z</time>
      </trkpt>
      <trkpt lat="49.90559" lon="2.47862">
        <ele>30.3</ele>
        <time>2022-10-19T13:51:53Z</time>
      </trkpt>
      <trkpt lat="49.9056" lon="2.47863">
        <ele>30.3</ele>
        <time>2022-10-19T13:51:54Z</time>
      </trkpt>
      <trkpt lat="49.9056" lon="2.47864">
        <ele>30.3</ele>
        <time>2022-10-19T13:51:55Z</time>
      </trkpt>
      <trkpt lat="49.9056" lon="2.47866">
        <ele>30.3</ele>
        <time>2022-10-19T13:51:56Z</time>
      </trkpt>
      <trkpt lat="49.9056" lon="2.47868">
        <ele>30.3</ele>
        <time>2022-10-19T13:51:57Z</time>
      </trkpt>
      <trkpt lat="49.9056" lon="2.4787">
        <ele>30.3</ele>
        <time>2022-10-19T13:51:59Z</time>
      </trkpt>
      <trkpt lat="49.9056" lon="2.47872">
        <ele>30.3</ele>
        <time>2022-10-19T13:52:00Z</time>
      </trkpt>
      <trkpt lat="49.9056" lon="2.47873">
        <ele>30.3</ele>
        <time>2022-10-19T13:52:01Z</time>
      </trkpt>
      <trkpt lat="49.90561" lon="2.47875">
        <ele>30.3</ele>
        <time>2022-10-19T13:52:02Z</time>
      </trkpt>
      <trkpt lat="49.90561" lon="2.47876">
        <ele>30.3</ele>
        <time>2022-10-19T13:52:03Z</time>
      </trkpt>
      <trkpt lat="49.90561" lon="2.47878">
        <ele>30.3</ele>
        <time>2022-10-19T13:52:04Z</time>
      </trkpt>
      <trkpt lat="49.90561" lon="2.4788">
        <ele>30.3</ele>
        <time>2022-10-19T13:52:05Z</time>
      </trkpt>
      <trkpt lat="49.90561" lon="2.47882">
        <ele>30.3</ele>
        <time>2022-10-19T13:52:06Z</time>
      </trkpt>
      <trkpt lat="49.90561" lon="2.47883">
        <ele>30.3</ele>
        <time>2022-10-19T13:52:07Z</time>
      </trkpt>
      <trkpt lat="49.90561" lon="2.47885">
        <ele>30.3</ele>
        <time>2022-10-19T13:52:08Z</time>
      </trkpt>
      <trkpt lat="49.90561" lon="2.47886">
        <ele>30.4</ele>
        <time>2022-10-19T13:52:09Z</time>
      </trkpt>
      <trkpt lat="49.90562" lon="2.47888">
        <ele>30.4</ele>
        <time>2022-10-19T13:52:10Z</time>
      </trkpt>
      <trkpt lat="49.90562" lon="2.4789">
        <ele>30.4</ele>
        <time>2022-10-19T13:52:12Z</time>
      </trkpt>
      <trkpt lat="49.90562" lon="2.47892">
        <ele>30.4</ele>
        <time>2022-10-19T13:52:13Z</time>
      </trkpt>
      <trkpt lat="49.90562" lon="2.47894">
        <ele>30.4</ele>
        <time>2022-10-19T13:52:14Z</time>
      </trkpt>
      <trkpt lat="49.90562" lon="2.47896">
        <ele>30.4</ele>
        <time>2022-10-19T13:52:15Z</time>
      </trkpt>
      <trkpt lat="49.90562" lon="2.47897">
        <ele>30.4</ele>
        <time>2022-10-19T13:52:16Z</time>
      </trkpt>
      <trkpt lat="49.90562" lon="2.47899">
        <ele>30.4</ele>
        <time>2022-10-19T13:52:17Z</time>
      </trkpt>
      <trkpt lat="49.90562" lon="2.47901">
        <ele>30.4</ele>
        <time>2022-10-19T13:52:18Z</time>
      </trkpt>
      <trkpt lat="49.90562" lon="2.47903">
        <ele>30.4</ele>
        <time>2022-10-19T13:52:19Z</time>
      </trkpt>
      <trkpt lat="49.90562" lon="2.47905">
        <ele>30.4</ele>
        <time>2022-10-19T13:52:20Z</time>
      </trkpt>
      <trkpt lat="49.90562" lon="2.47907">
        <ele>30.4</ele>
        <time>2022-10-19T13:52:22Z</time>
      </trkpt>
      <trkpt lat="49.90562" lon="2.47909">
        <ele>30.4</ele>
        <time>2022-10-19T13:52:23Z</time>
      </trkpt>
      <trkpt lat="49.90562" lon="2.47911">
        <ele>30.4</ele>
        <time>2022-10-19T13:52:24Z</time>
      </trkpt>
      <trkpt lat="49.90562" lon="2.47912">
        <ele>30.4</ele>
        <time>2022-10-19T13:52:25Z</time>
      </trkpt>
      <trkpt lat="49.90562" lon="2.47916">
        <ele>30.4</ele>
        <time>2022-10-19T13:52:26Z</time>
      </trkpt>
      <trkpt lat="49.90562" lon="2.47917">
        <ele>30.4</ele>
        <time>2022-10-19T13:52:27Z</time>
      </trkpt>
      <trkpt lat="49.90562" lon="2.47918">
        <ele>30.4</ele>
        <time>2022-10-19T13:52:28Z</time>
      </trkpt>
      <trkpt lat="49.90561" lon="2.4792">
        <ele>30.4</ele>
        <time>2022-10-19T13:52:29Z</time>
      </trkpt>
      <trkpt lat="49.90561" lon="2.47922">
        <ele>30.4</ele>
        <time>2022-10-19T13:52:30Z</time>
      </trkpt>
      <trkpt lat="49.90562" lon="2.47923">
        <ele>30.4</ele>
        <time>2022-10-19T13:52:31Z</time>
      </trkpt>
      <trkpt lat="49.90562" lon="2.47925">
        <ele>30.4</ele>
        <time>2022-10-19T13:52:32Z</time>
      </trkpt>
      <trkpt lat="49.90562" lon="2.47927">
        <ele>30.4</ele>
        <time>2022-10-19T13:52:33Z</time>
      </trkpt>
      <trkpt lat="49.90563" lon="2.47928">
        <ele>30.4</ele>
        <time>2022-10-19T13:52:34Z</time>
      </trkpt>
      <trkpt lat="49.90563" lon="2.4793">
        <ele>30.4</ele>
        <time>2022-10-19T13:52:35Z</time>
      </trkpt>
      <trkpt lat="49.90563" lon="2.47932">
        <ele>30.5</ele>
        <time>2022-10-19T13:52:36Z</time>
      </trkpt>
      <trkpt lat="49.90563" lon="2.47934">
        <ele>30.5</ele>
        <time>2022-10-19T13:52:38Z</time>
      </trkpt>
      <trkpt lat="49.90562" lon="2.47936">
        <ele>30.5</ele>
        <time>2022-10-19T13:52:39Z</time>
      </trkpt>
      <trkpt lat="49.90562" lon="2.47938">
        <ele>30.5</ele>
        <time>2022-10-19T13:52:40Z</time>
      </trkpt>
      <trkpt lat="49.90561" lon="2.47941">
        <ele>30.5</ele>
        <time>2022-10-19T13:52:41Z</time>
      </trkpt>
      <trkpt lat="49.90561" lon="2.47943">
        <ele>30.5</ele>
        <time>2022-10-19T13:52:42Z</time>
      </trkpt>
      <trkpt lat="49.90561" lon="2.47946">
        <ele>30.5</ele>
        <time>2022-10-19T13:52:44Z</time>
      </trkpt>
      <trkpt lat="49.9056" lon="2.47947">
        <ele>30.5</ele>
        <time>2022-10-19T13:52:45Z</time>
      </trkpt>
      <trkpt lat="49.9056" lon="2.47948">
        <ele>30.5</ele>
        <time>2022-10-19T13:52:46Z</time>
      </trkpt>
      <trkpt lat="49.9056" lon="2.4795">
        <ele>30.5</ele>
        <time>2022-10-19T13:52:47Z</time>
      </trkpt>
      <trkpt lat="49.9056" lon="2.47952">
        <ele>30.6</ele>
        <time>2022-10-19T13:52:48Z</time>
      </trkpt>
      <trkpt lat="49.90559" lon="2.47953">
        <ele>30.6</ele>
        <time>2022-10-19T13:52:49Z</time>
      </trkpt>
      <trkpt lat="49.90559" lon="2.47955">
        <ele>30.6</ele>
        <time>2022-10-19T13:52:50Z</time>
      </trkpt>
      <trkpt lat="49.9056" lon="2.47957">
        <ele>30.6</ele>
        <time>2022-10-19T13:52:51Z</time>
      </trkpt>
      <trkpt lat="49.9056" lon="2.47959">
        <ele>30.6</ele>
        <time>2022-10-19T13:52:53Z</time>
      </trkpt>
      <trkpt lat="49.9056" lon="2.47961">
        <ele>30.6</ele>
        <time>2022-10-19T13:52:54Z</time>
      </trkpt>
      <trkpt lat="49.90561" lon="2.47962">
        <ele>30.6</ele>
        <time>2022-10-19T13:52:55Z</time>
      </trkpt>
      <trkpt lat="49.90561" lon="2.47964">
        <ele>30.6</ele>
        <time>2022-10-19T13:52:56Z</time>
      </trkpt>
      <trkpt lat="49.90562" lon="2.47965">
        <ele>30.6</ele>
        <time>2022-10-19T13:52:57Z</time>
      </trkpt>
      <trkpt lat="49.90563" lon="2.47966">
        <ele>30.6</ele>
        <time>2022-10-19T13:52:58Z</time>
      </trkpt>
      <trkpt lat="49.90563" lon="2.47967">
        <ele>30.6</ele>
        <time>2022-10-19T13:52:59Z</time>
      </trkpt>
      <trkpt lat="49.90564" lon="2.47967">
        <ele>30.7</ele>
        <time>2022-10-19T13:53:00Z</time>
      </trkpt>
      <trkpt lat="49.90565" lon="2.47967">
        <ele>30.7</ele>
        <time>2022-10-19T13:53:01Z</time>
      </trkpt>
      <trkpt lat="49.90566" lon="2.47968">
        <ele>30.7</ele>
        <time>2022-10-19T13:53:02Z</time>
      </trkpt>
      <trkpt lat="49.90567" lon="2.47968">
        <ele>30.7</ele>
        <time>2022-10-19T13:53:03Z</time>
      </trkpt>
      <trkpt lat="49.90567" lon="2.47968">
        <ele>30.7</ele>
        <time>2022-10-19T13:53:04Z</time>
      </trkpt>
      <trkpt lat="49.90568" lon="2.47968">
        <ele>30.7</ele>
        <time>2022-10-19T13:53:05Z</time>
      </trkpt>
      <trkpt lat="49.90568" lon="2.47968">
        <ele>30.7</ele>
        <time>2022-10-19T13:53:06Z</time>
      </trkpt>
      <trkpt lat="49.90568" lon="2.47968">
        <ele>30.7</ele>
        <time>2022-10-19T13:53:07Z</time>
      </trkpt>
      <trkpt lat="49.90569" lon="2.47969">
        <ele>30.7</ele>
        <time>2022-10-19T13:53:09Z</time>
      </trkpt>
      <trkpt lat="49.90569" lon="2.4797">
        <ele>30.7</ele>
        <time>2022-10-19T13:53:10Z</time>
      </trkpt>
      <trkpt lat="49.90569" lon="2.47971">
        <ele>30.7</ele>
        <time>2022-10-19T13:53:12Z</time>
      </trkpt>
      <trkpt lat="49.90569" lon="2.47972">
        <ele>30.7</ele>
        <time>2022-10-19T13:53:13Z</time>
      </trkpt>
      <trkpt lat="49.9057" lon="2.47973">
        <ele>30.7</ele>
        <time>2022-10-19T13:53:14Z</time>
      </trkpt>
      <trkpt lat="49.90569" lon="2.47974">
        <ele>30.7</ele>
        <time>2022-10-19T13:53:15Z</time>
      </trkpt>
      <trkpt lat="49.90568" lon="2.47975">
        <ele>30.7</ele>
        <time>2022-10-19T13:53:16Z</time>
      </trkpt>
      <trkpt lat="49.90568" lon="2.47975">
        <ele>30.7</ele>
        <time>2022-10-19T13:53:17Z</time>
      </trkpt>
      <trkpt lat="49.90567" lon="2.47976">
        <ele>30.7</ele>
        <time>2022-10-19T13:53:18Z</time>
      </trkpt>
      <trkpt lat="49.90566" lon="2.47976">
        <ele>30.7</ele>
        <time>2022-10-19T13:53:19Z</time>
      </trkpt>
      <trkpt lat="49.90565" lon="2.47974">
        <ele>30.7</ele>
        <time>2022-10-19T13:53:20Z</time>
      </trkpt>
      <trkpt lat="49.90565" lon="2.47974">
        <ele>30.7</ele>
        <time>2022-10-19T13:53:21Z</time>
      </trkpt>
      <trkpt lat="49.90564" lon="2.47973">
        <ele>30.7</ele>
        <time>2022-10-19T13:53:22Z</time>
      </trkpt>
      <trkpt lat="49.90564" lon="2.47972">
        <ele>30.7</ele>
        <time>2022-10-19T13:53:23Z</time>
      </trkpt>
      <trkpt lat="49.90563" lon="2.47969">
        <ele>30.7</ele>
        <time>2022-10-19T13:53:25Z</time>
      </trkpt>
      <trkpt lat="49.90563" lon="2.47969">
        <ele>30.7</ele>
        <time>2022-10-19T13:53:26Z</time>
      </trkpt>
      <trkpt lat="49.90563" lon="2.47969">
        <ele>30.8</ele>
        <time>2022-10-19T13:53:28Z</time>
      </trkpt>
      <trkpt lat="49.90563" lon="2.47969">
        <ele>30.8</ele>
        <time>2022-10-19T13:53:29Z</time>
      </trkpt>
      <trkpt lat="49.90562" lon="2.47969">
        <ele>30.8</ele>
        <time>2022-10-19T13:53:30Z</time>
      </trkpt>
      <trkpt lat="49.90562" lon="2.47969">
        <ele>30.8</ele>
        <time>2022-10-19T13:53:31Z</time>
      </trkpt>
      <trkpt lat="49.90561" lon="2.47968">
        <ele>30.8</ele>
        <time>2022-10-19T13:53:32Z</time>
      </trkpt>
      <trkpt lat="49.9056" lon="2.47968">
        <ele>30.8</ele>
        <time>2022-10-19T13:53:33Z</time>
      </trkpt>
      <trkpt lat="49.9056" lon="2.47967">
        <ele>30.8</ele>
        <time>2022-10-19T13:53:34Z</time>
      </trkpt>
      <trkpt lat="49.9056" lon="2.47967">
        <ele>30.8</ele>
        <time>2022-10-19T13:53:35Z</time>
      </trkpt>
      <trkpt lat="49.90559" lon="2.47966">
        <ele>30.8</ele>
        <time>2022-10-19T13:53:37Z</time>
      </trkpt>
      <trkpt lat="49.90559" lon="2.47965">
        <ele>30.8</ele>
        <time>2022-10-19T13:53:38Z</time>
      </trkpt>
      <trkpt lat="49.90559" lon="2.47965">
        <ele>30.8</ele>
        <time>2022-10-19T13:53:39Z</time>
      </trkpt>
      <trkpt lat="49.90558" lon="2.47966">
        <ele>30.8</ele>
        <time>2022-10-19T13:53:40Z</time>
      </trkpt>
      <trkpt lat="49.90557" lon="2.47966">
        <ele>30.8</ele>
        <time>2022-10-19T13:53:41Z</time>
      </trkpt>
      <trkpt lat="49.90556" lon="2.47968">
        <ele>30.7</ele>
        <time>2022-10-19T13:53:42Z</time>
      </trkpt>
      <trkpt lat="49.90556" lon="2.4797">
        <ele>30.7</ele>
        <time>2022-10-19T13:53:43Z</time>
      </trkpt>
      <trkpt lat="49.90555" lon="2.47971">
        <ele>30.7</ele>
        <time>2022-10-19T13:53:45Z</time>
      </trkpt>
      <trkpt lat="49.90555" lon="2.47973">
        <ele>30.7</ele>
        <time>2022-10-19T13:53:46Z</time>
      </trkpt>
      <trkpt lat="49.90554" lon="2.47974">
        <ele>30.7</ele>
        <time>2022-10-19T13:53:47Z</time>
      </trkpt>
      <trkpt lat="49.90554" lon="2.47975">
        <ele>30.7</ele>
        <time>2022-10-19T13:53:48Z</time>
      </trkpt>
      <trkpt lat="49.90553" lon="2.47978">
        <ele>30.7</ele>
        <time>2022-10-19T13:53:49Z</time>
      </trkpt>
      <trkpt lat="49.90552" lon="2.47979">
        <ele>30.7</ele>
        <time>2022-10-19T13:53:50Z</time>
      </trkpt>
      <trkpt lat="49.90552" lon="2.47981">
        <ele>30.7</ele>
        <time>2022-10-19T13:53:52Z</time>
      </trkpt>
      <trkpt lat="49.90552" lon="2.47982">
        <ele>30.7</ele>
        <time>2022-10-19T13:53:53Z</time>
      </trkpt>
      <trkpt lat="49.90551" lon="2.47984">
        <ele>30.7</ele>
        <time>2022-10-19T13:53:54Z</time>
      </trkpt>
      <trkpt lat="49.90551" lon="2.47985">
        <ele>30.7</ele>
        <time>2022-10-19T13:53:55Z</time>
      </trkpt>
      <trkpt lat="49.9055" lon="2.47988">
        <ele>30.7</ele>
        <time>2022-10-19T13:53:56Z</time>
      </trkpt>
      <trkpt lat="49.9055" lon="2.4799">
        <ele>30.7</ele>
        <time>2022-10-19T13:53:57Z</time>
      </trkpt>
      <trkpt lat="49.90549" lon="2.47993">
        <ele>30.7</ele>
        <time>2022-10-19T13:53:58Z</time>
      </trkpt>
      <trkpt lat="49.90549" lon="2.47995">
        <ele>30.7</ele>
        <time>2022-10-19T13:53:59Z</time>
      </trkpt>
      <trkpt lat="49.90548" lon="2.47998">
        <ele>30.7</ele>
        <time>2022-10-19T13:54:01Z</time>
      </trkpt>
      <trkpt lat="49.90548" lon="2.48">
        <ele>30.7</ele>
        <time>2022-10-19T13:54:02Z</time>
      </trkpt>
      <trkpt lat="49.90547" lon="2.48002">
        <ele>30.7</ele>
        <time>2022-10-19T13:54:03Z</time>
      </trkpt>
      <trkpt lat="49.90547" lon="2.48004">
        <ele>30.7</ele>
        <time>2022-10-19T13:54:04Z</time>
      </trkpt>
      <trkpt lat="49.90546" lon="2.48006">
        <ele>30.7</ele>
        <time>2022-10-19T13:54:06Z</time>
      </trkpt>
      <trkpt lat="49.90546" lon="2.48008">
        <ele>30.7</ele>
        <time>2022-10-19T13:54:07Z</time>
      </trkpt>
      <trkpt lat="49.90545" lon="2.4801">
        <ele>30.7</ele>
        <time>2022-10-19T13:54:08Z</time>
      </trkpt>
      <trkpt lat="49.90545" lon="2.48012">
        <ele>30.7</ele>
        <time>2022-10-19T13:54:09Z</time>
      </trkpt>
      <trkpt lat="49.90544" lon="2.48016">
        <ele>30.7</ele>
        <time>2022-10-19T13:54:10Z</time>
      </trkpt>
      <trkpt lat="49.90543" lon="2.48017">
        <ele>30.6</ele>
        <time>2022-10-19T13:54:11Z</time>
      </trkpt>
      <trkpt lat="49.90542" lon="2.4802">
        <ele>30.6</ele>
        <time>2022-10-19T13:54:12Z</time>
      </trkpt>
      <trkpt lat="49.90541" lon="2.48023">
        <ele>30.6</ele>
        <time>2022-10-19T13:54:14Z</time>
      </trkpt>
      <trkpt lat="49.90541" lon="2.48025">
        <ele>30.6</ele>
        <time>2022-10-19T13:54:15Z</time>
      </trkpt>
      <trkpt lat="49.9054" lon="2.48028">
        <ele>30.6</ele>
        <time>2022-10-19T13:54:16Z</time>
      </trkpt>
      <trkpt lat="49.90539" lon="2.4803">
        <ele>30.6</ele>
        <time>2022-10-19T13:54:17Z</time>
      </trkpt>
      <trkpt lat="49.90539" lon="2.48032">
        <ele>30.6</ele>
        <time>2022-10-19T13:54:18Z</time>
      </trkpt>
      <trkpt lat="49.90538" lon="2.48035">
        <ele>30.6</ele>
        <time>2022-10-19T13:54:19Z</time>
      </trkpt>
      <trkpt lat="49.90537" lon="2.48036">
        <ele>30.6</ele>
        <time>2022-10-19T13:54:20Z</time>
      </trkpt>
      <trkpt lat="49.90536" lon="2.48038">
        <ele>30.6</ele>
        <time>2022-10-19T13:54:21Z</time>
      </trkpt>
      <trkpt lat="49.90536" lon="2.48039">
        <ele>30.6</ele>
        <time>2022-10-19T13:54:22Z</time>
      </trkpt>
      <trkpt lat="49.90535" lon="2.4804">
        <ele>30.6</ele>
        <time>2022-10-19T13:54:23Z</time>
      </trkpt>
      <trkpt lat="49.90534" lon="2.48043">
        <ele>30.6</ele>
        <time>2022-10-19T13:54:24Z</time>
      </trkpt>
      <trkpt lat="49.90534" lon="2.48044">
        <ele>30.6</ele>
        <time>2022-10-19T13:54:25Z</time>
      </trkpt>
      <trkpt lat="49.90534" lon="2.48045">
        <ele>30.6</ele>
        <time>2022-10-19T13:54:26Z</time>
      </trkpt>
      <trkpt lat="49.90532" lon="2.48048">
        <ele>30.6</ele>
        <time>2022-10-19T13:54:28Z</time>
      </trkpt>
      <trkpt lat="49.90532" lon="2.48049">
        <ele>30.6</ele>
        <time>2022-10-19T13:54:29Z</time>
      </trkpt>
      <trkpt lat="49.90531" lon="2.4805">
        <ele>30.6</ele>
        <time>2022-10-19T13:54:30Z</time>
      </trkpt>
      <trkpt lat="49.9053" lon="2.48052">
        <ele>30.6</ele>
        <time>2022-10-19T13:54:31Z</time>
      </trkpt>
      <trkpt lat="49.90529" lon="2.48053">
        <ele>30.6</ele>
        <time>2022-10-19T13:54:32Z</time>
      </trkpt>
      <trkpt lat="49.90528" lon="2.48054">
        <ele>30.6</ele>
        <time>2022-10-19T13:54:33Z</time>
      </trkpt>
      <trkpt lat="49.90528" lon="2.48055">
        <ele>30.6</ele>
        <time>2022-10-19T13:54:34Z</time>
      </trkpt>
      <trkpt lat="49.90527" lon="2.48056">
        <ele>30.6</ele>
        <time>2022-10-19T13:54:35Z</time>
      </trkpt>
      <trkpt lat="49.90526" lon="2.48057">
        <ele>30.6</ele>
        <time>2022-10-19T13:54:36Z</time>
      </trkpt>
      <trkpt lat="49.90526" lon="2.48058">
        <ele>30.6</ele>
        <time>2022-10-19T13:54:37Z</time>
      </trkpt>
      <trkpt lat="49.90525" lon="2.48059">
        <ele>30.6</ele>
        <time>2022-10-19T13:54:38Z</time>
      </trkpt>
      <trkpt lat="49.90524" lon="2.48061">
        <ele>30.6</ele>
        <time>2022-10-19T13:54:40Z</time>
      </trkpt>
      <trkpt lat="49.90523" lon="2.48063">
        <ele>30.6</ele>
        <time>2022-10-19T13:54:41Z</time>
      </trkpt>
      <trkpt lat="49.90522" lon="2.48064">
        <ele>30.6</ele>
        <time>2022-10-19T13:54:42Z</time>
      </trkpt>
      <trkpt lat="49.90521" lon="2.48065">
        <ele>30.6</ele>
        <time>2022-10-19T13:54:43Z</time>
      </trkpt>
      <trkpt lat="49.9052" lon="2.48066">
        <ele>30.6</ele>
        <time>2022-10-19T13:54:44Z</time>
      </trkpt>
      <trkpt lat="49.90519" lon="2.48068">
        <ele>30.6</ele>
        <time>2022-10-19T13:54:46Z</time>
      </trkpt>
      <trkpt lat="49.90518" lon="2.48069">
        <ele>30.6</ele>
        <time>2022-10-19T13:54:47Z</time>
      </trkpt>
      <trkpt lat="49.90517" lon="2.4807">
        <ele>30.6</ele>
        <time>2022-10-19T13:54:48Z</time>
      </trkpt>
      <trkpt lat="49.90517" lon="2.48071">
        <ele>30.6</ele>
        <time>2022-10-19T13:54:49Z</time>
      </trkpt>
      <trkpt lat="49.90516" lon="2.48072">
        <ele>30.6</ele>
        <time>2022-10-19T13:54:50Z</time>
      </trkpt>
      <trkpt lat="49.90515" lon="2.48073">
        <ele>30.6</ele>
        <time>2022-10-19T13:54:51Z</time>
      </trkpt>
      <trkpt lat="49.90514" lon="2.48074">
        <ele>30.6</ele>
        <time>2022-10-19T13:54:52Z</time>
      </trkpt>
      <trkpt lat="49.90513" lon="2.48075">
        <ele>30.6</ele>
        <time>2022-10-19T13:54:53Z</time>
      </trkpt>
      <trkpt lat="49.90512" lon="2.48076">
        <ele>30.6</ele>
        <time>2022-10-19T13:54:54Z</time>
      </trkpt>
      <trkpt lat="49.90511" lon="2.48077">
        <ele>30.6</ele>
        <time>2022-10-19T13:54:55Z</time>
      </trkpt>
      <trkpt lat="49.9051" lon="2.48078">
        <ele>30.6</ele>
        <time>2022-10-19T13:54:56Z</time>
      </trkpt>
      <trkpt lat="49.90509" lon="2.4808">
        <ele>30.6</ele>
        <time>2022-10-19T13:54:58Z</time>
      </trkpt>
      <trkpt lat="49.90508" lon="2.48081">
        <ele>30.6</ele>
        <time>2022-10-19T13:54:59Z</time>
      </trkpt>
      <trkpt lat="49.90507" lon="2.48082">
        <ele>30.6</ele>
        <time>2022-10-19T13:55:00Z</time>
      </trkpt>
      <trkpt lat="49.90506" lon="2.48083">
        <ele>30.6</ele>
        <time>2022-10-19T13:55:01Z</time>
      </trkpt>
      <trkpt lat="49.90505" lon="2.48084">
        <ele>30.6</ele>
        <time>2022-10-19T13:55:02Z</time>
      </trkpt>
      <trkpt lat="49.90504" lon="2.48085">
        <ele>30.6</ele>
        <time>2022-10-19T13:55:03Z</time>
      </trkpt>
      <trkpt lat="49.90503" lon="2.48086">
        <ele>30.6</ele>
        <time>2022-10-19T13:55:04Z</time>
      </trkpt>
      <trkpt lat="49.90502" lon="2.48087">
        <ele>30.6</ele>
        <time>2022-10-19T13:55:05Z</time>
      </trkpt>
      <trkpt lat="49.90501" lon="2.48088">
        <ele>30.6</ele>
        <time>2022-10-19T13:55:06Z</time>
      </trkpt>
      <trkpt lat="49.905" lon="2.48089">
        <ele>30.6</ele>
        <time>2022-10-19T13:55:07Z</time>
      </trkpt>
      <trkpt lat="49.90499" lon="2.48091">
        <ele>30.6</ele>
        <time>2022-10-19T13:55:08Z</time>
      </trkpt>
      <trkpt lat="49.90498" lon="2.48092">
        <ele>30.6</ele>
        <time>2022-10-19T13:55:10Z</time>
      </trkpt>
      <trkpt lat="49.90497" lon="2.48093">
        <ele>30.6</ele>
        <time>2022-10-19T13:55:11Z</time>
      </trkpt>
      <trkpt lat="49.90497" lon="2.48095">
        <ele>30.6</ele>
        <time>2022-10-19T13:55:12Z</time>
      </trkpt>
      <trkpt lat="49.90496" lon="2.48097">
        <ele>30.6</ele>
        <time>2022-10-19T13:55:13Z</time>
      </trkpt>
      <trkpt lat="49.90494" lon="2.48099">
        <ele>30.6</ele>
        <time>2022-10-19T13:55:15Z</time>
      </trkpt>
      <trkpt lat="49.90493" lon="2.48101">
        <ele>30.6</ele>
        <time>2022-10-19T13:55:16Z</time>
      </trkpt>
      <trkpt lat="49.90492" lon="2.48102">
        <ele>30.6</ele>
        <time>2022-10-19T13:55:17Z</time>
      </trkpt>
      <trkpt lat="49.90492" lon="2.48103">
        <ele>30.6</ele>
        <time>2022-10-19T13:55:18Z</time>
      </trkpt>
      <trkpt lat="49.90491" lon="2.48106">
        <ele>30.7</ele>
        <time>2022-10-19T13:55:19Z</time>
      </trkpt>
      <trkpt lat="49.9049" lon="2.48107">
        <ele>30.7</ele>
        <time>2022-10-19T13:55:20Z</time>
      </trkpt>
      <trkpt lat="49.9049" lon="2.48108">
        <ele>30.7</ele>
        <time>2022-10-19T13:55:21Z</time>
      </trkpt>
      <trkpt lat="49.90489" lon="2.48109">
        <ele>30.7</ele>
        <time>2022-10-19T13:55:23Z</time>
      </trkpt>
      <trkpt lat="49.90488" lon="2.4811">
        <ele>30.7</ele>
        <time>2022-10-19T13:55:24Z</time>
      </trkpt>
      <trkpt lat="49.90487" lon="2.48111">
        <ele>30.7</ele>
        <time>2022-10-19T13:55:25Z</time>
      </trkpt>
      <trkpt lat="49.90486" lon="2.48112">
        <ele>30.7</ele>
        <time>2022-10-19T13:55:26Z</time>
      </trkpt>
      <trkpt lat="49.90485" lon="2.48113">
        <ele>30.7</ele>
        <time>2022-10-19T13:55:27Z</time>
      </trkpt>
      <trkpt lat="49.90484" lon="2.48114">
        <ele>30.7</ele>
        <time>2022-10-19T13:55:28Z</time>
      </trkpt>
      <trkpt lat="49.90483" lon="2.48115">
        <ele>30.7</ele>
        <time>2022-10-19T13:55:29Z</time>
      </trkpt>
      <trkpt lat="49.90482" lon="2.48116">
        <ele>30.7</ele>
        <time>2022-10-19T13:55:30Z</time>
      </trkpt>
      <trkpt lat="49.90481" lon="2.48117">
        <ele>30.7</ele>
        <time>2022-10-19T13:55:32Z</time>
      </trkpt>
      <trkpt lat="49.9048" lon="2.48119">
        <ele>30.7</ele>
        <time>2022-10-19T13:55:33Z</time>
      </trkpt>
      <trkpt lat="49.90479" lon="2.4812">
        <ele>30.7</ele>
        <time>2022-10-19T13:55:34Z</time>
      </trkpt>
      <trkpt lat="49.90478" lon="2.4812">
        <ele>30.7</ele>
        <time>2022-10-19T13:55:35Z</time>
      </trkpt>
      <trkpt lat="49.90477" lon="2.48121">
        <ele>30.7</ele>
        <time>2022-10-19T13:55:36Z</time>
      </trkpt>
      <trkpt lat="49.90476" lon="2.48123">
        <ele>30.7</ele>
        <time>2022-10-19T13:55:37Z</time>
      </trkpt>
      <trkpt lat="49.90475" lon="2.48123">
        <ele>30.8</ele>
        <time>2022-10-19T13:55:39Z</time>
      </trkpt>
      <trkpt lat="49.90475" lon="2.48122">
        <ele>30.8</ele>
        <time>2022-10-19T13:55:40Z</time>
      </trkpt>
      <trkpt lat="49.90476" lon="2.48121">
        <ele>30.7</ele>
        <time>2022-10-19T13:55:41Z</time>
      </trkpt>
      <trkpt lat="49.90476" lon="2.48119">
        <ele>30.8</ele>
        <time>2022-10-19T13:55:42Z</time>
      </trkpt>
      <trkpt lat="49.90477" lon="2.48118">
        <ele>30.8</ele>
        <time>2022-10-19T13:55:43Z</time>
      </trkpt>
      <trkpt lat="49.90477" lon="2.48118">
        <ele>30.8</ele>
        <time>2022-10-19T13:55:44Z</time>
      </trkpt>
      <trkpt lat="49.90478" lon="2.48117">
        <ele>30.8</ele>
        <time>2022-10-19T13:55:45Z</time>
      </trkpt>
      <trkpt lat="49.90478" lon="2.48117">
        <ele>30.8</ele>
        <time>2022-10-19T13:55:46Z</time>
      </trkpt>
      <trkpt lat="49.90479" lon="2.48116">
        <ele>30.8</ele>
        <time>2022-10-19T13:55:47Z</time>
      </trkpt>
      <trkpt lat="49.90479" lon="2.48116">
        <ele>30.8</ele>
        <time>2022-10-19T13:55:48Z</time>
      </trkpt>
      <trkpt lat="49.90479" lon="2.48116">
        <ele>30.8</ele>
        <time>2022-10-19T13:55:49Z</time>
      </trkpt>
      <trkpt lat="49.90479" lon="2.48117">
        <ele>30.8</ele>
        <time>2022-10-19T13:55:50Z</time>
      </trkpt>
      <trkpt lat="49.90479" lon="2.48117">
        <ele>30.8</ele>
        <time>2022-10-19T13:55:51Z</time>
      </trkpt>
      <trkpt lat="49.90479" lon="2.48117">
        <ele>30.8</ele>
        <time>2022-10-19T13:55:52Z</time>
      </trkpt>
      <trkpt lat="49.90479" lon="2.48117">
        <ele>30.8</ele>
        <time>2022-10-19T13:55:53Z</time>
      </trkpt>
      <trkpt lat="49.90479" lon="2.48117">
        <ele>30.8</ele>
        <time>2022-10-19T13:55:54Z</time>
      </trkpt>
      <trkpt lat="49.90479" lon="2.48117">
        <ele>30.8</ele>
        <time>2022-10-19T13:55:55Z</time>
      </trkpt>
      <trkpt lat="49.90479" lon="2.48117">
        <ele>30.8</ele>
        <time>2022-10-19T13:55:56Z</time>
      </trkpt>
      <trkpt lat="49.90479" lon="2.48117">
        <ele>30.8</ele>
        <time>2022-10-19T13:55:57Z</time>
      </trkpt>
      <trkpt lat="49.90479" lon="2.48117">
        <ele>30.8</ele>
        <time>2022-10-19T13:55:58Z</time>
      </trkpt>
      <trkpt lat="49.90479" lon="2.48117">
        <ele>30.8</ele>
        <time>2022-10-19T13:55:59Z</time>
      </trkpt>
      <trkpt lat="49.90479" lon="2.48118">
        <ele>30.8</ele>
        <time>2022-10-19T13:56:00Z</time>
      </trkpt>
      <trkpt lat="49.90479" lon="2.48118">
        <ele>30.8</ele>
        <time>2022-10-19T13:56:01Z</time>
      </trkpt>
      <trkpt lat="49.90479" lon="2.48119">
        <ele>30.8</ele>
        <time>2022-10-19T13:56:02Z</time>
      </trkpt>
      <trkpt lat="49.90479" lon="2.48119">
        <ele>30.8</ele>
        <time>2022-10-19T13:56:03Z</time>
      </trkpt>
      <trkpt lat="49.90479" lon="2.48119">
        <ele>30.8</ele>
        <time>2022-10-19T13:56:04Z</time>
      </trkpt>
      <trkpt lat="49.90479" lon="2.48119">
        <ele>30.8</ele>
        <time>2022-10-19T13:56:05Z</time>
      </trkpt>
      <trkpt lat="49.90479" lon="2.48119">
        <ele>30.8</ele>
        <time>2022-10-19T13:56:06Z</time>
      </trkpt>
      <trkpt lat="49.90479" lon="2.48119">
        <ele>30.8</ele>
        <time>2022-10-19T13:56:07Z</time>
      </trkpt>
      <trkpt lat="49.90479" lon="2.48119">
        <ele>30.8</ele>
        <time>2022-10-19T13:56:08Z</time>
      </trkpt>
      <trkpt lat="49.90479" lon="2.48119">
        <ele>30.8</ele>
        <time>2022-10-19T13:56:09Z</time>
      </trkpt>
      <trkpt lat="49.90479" lon="2.48119">
        <ele>30.8</ele>
        <time>2022-10-19T13:56:10Z</time>
      </trkpt>
      <trkpt lat="49.90479" lon="2.48119">
        <ele>30.8</ele>
        <time>2022-10-19T13:56:11Z</time>
      </trkpt>
      <trkpt lat="49.90479" lon="2.48119">
        <ele>30.8</ele>
        <time>2022-10-19T13:56:12Z</time>
      </trkpt>
      <trkpt lat="49.90479" lon="2.48119">
        <ele>30.8</ele>
        <time>2022-10-19T13:56:13Z</time>
      </trkpt>
      <trkpt lat="49.90479" lon="2.48119">
        <ele>30.8</ele>
        <time>2022-10-19T13:56:14Z</time>
      </trkpt>
      <trkpt lat="49.90479" lon="2.48119">
        <ele>30.8</ele>
        <time>2022-10-19T13:56:15Z</time>
      </trkpt>
      <trkpt lat="49.90479" lon="2.48119">
        <ele>30.8</ele>
        <time>2022-10-19T13:56:16Z</time>
      </trkpt>
      <trkpt lat="49.90479" lon="2.48119">
        <ele>30.8</ele>
        <time>2022-10-19T13:56:17Z</time>
      </trkpt>
      <trkpt lat="49.90479" lon="2.48119">
        <ele>30.8</ele>
        <time>2022-10-19T13:56:18Z</time>
      </trkpt>
      <trkpt lat="49.90479" lon="2.48119">
        <ele>30.8</ele>
        <time>2022-10-19T13:56:19Z</time>
      </trkpt>
      <trkpt lat="49.90479" lon="2.48119">
        <ele>30.8</ele>
        <time>2022-10-19T13:56:20Z</time>
      </trkpt>
      <trkpt lat="49.90479" lon="2.48119">
        <ele>30.8</ele>
        <time>2022-10-19T13:56:21Z</time>
      </trkpt>
      <trkpt lat="49.90479" lon="2.48119">
        <ele>30.8</ele>
        <time>2022-10-19T13:56:22Z</time>
      </trkpt>
      <trkpt lat="49.90479" lon="2.48119">
        <ele>30.8</ele>
        <time>2022-10-19T13:56:23Z</time>
      </trkpt>
      <trkpt lat="49.90479" lon="2.48119">
        <ele>30.8</ele>
        <time>2022-10-19T13:56:24Z</time>
      </trkpt>
      <trkpt lat="49.90479" lon="2.48119">
        <ele>30.8</ele>
        <time>2022-10-19T13:56:25Z</time>
      </trkpt>
      <trkpt lat="49.90479" lon="2.48119">
        <ele>30.8</ele>
        <time>2022-10-19T13:56:26Z</time>
      </trkpt>
      <trkpt lat="49.90479" lon="2.48119">
        <ele>30.8</ele>
        <time>2022-10-19T13:56:27Z</time>
      </trkpt>
      <trkpt lat="49.90479" lon="2.48119">
        <ele>30.8</ele>
        <time>2022-10-19T13:56:28Z</time>
      </trkpt>
      <trkpt lat="49.90479" lon="2.48119">
        <ele>30.8</ele>
        <time>2022-10-19T13:56:29Z</time>
      </trkpt>
      <trkpt lat="49.90479" lon="2.48119">
        <ele>30.8</ele>
        <time>2022-10-19T13:56:30Z</time>
      </trkpt>
      <trkpt lat="49.90479" lon="2.48119">
        <ele>30.8</ele>
        <time>2022-10-19T13:56:31Z</time>
      </trkpt>
      <trkpt lat="49.90479" lon="2.48119">
        <ele>30.8</ele>
        <time>2022-10-19T13:56:32Z</time>
      </trkpt>
      <trkpt lat="49.90479" lon="2.48119">
        <ele>30.8</ele>
        <time>2022-10-19T13:56:33Z</time>
      </trkpt>
      <trkpt lat="49.90479" lon="2.4812">
        <ele>30.7</ele>
        <time>2022-10-19T13:56:34Z</time>
      </trkpt>
      <trkpt lat="49.90479" lon="2.48121">
        <ele>30.7</ele>
        <time>2022-10-19T13:56:35Z</time>
      </trkpt>
      <trkpt lat="49.90478" lon="2.48121">
        <ele>30.7</ele>
        <time>2022-10-19T13:56:36Z</time>
      </trkpt>
      <trkpt lat="49.90478" lon="2.48121">
        <ele>30.7</ele>
        <time>2022-10-19T13:56:37Z</time>
      </trkpt>
      <trkpt lat="49.90477" lon="2.48121">
        <ele>30.7</ele>
        <time>2022-10-19T13:56:38Z</time>
      </trkpt>
      <trkpt lat="49.90477" lon="2.48121">
        <ele>30.7</ele>
        <time>2022-10-19T13:56:39Z</time>
      </trkpt>
      <trkpt lat="49.90477" lon="2.48121">
        <ele>30.7</ele>
        <time>2022-10-19T13:56:40Z</time>
      </trkpt>
      <trkpt lat="49.90476" lon="2.48121">
        <ele>30.7</ele>
        <time>2022-10-19T13:56:41Z</time>
      </trkpt>
      <trkpt lat="49.90476" lon="2.48122">
        <ele>30.7</ele>
        <time>2022-10-19T13:56:42Z</time>
      </trkpt>
      <trkpt lat="49.90476" lon="2.48122">
        <ele>30.7</ele>
        <time>2022-10-19T13:56:43Z</time>
      </trkpt>
      <trkpt lat="49.90475" lon="2.48125">
        <ele>30.6</ele>
        <time>2022-10-19T13:56:45Z</time>
      </trkpt>
      <trkpt lat="49.90475" lon="2.48126">
        <ele>30.6</ele>
        <time>2022-10-19T13:56:46Z</time>
      </trkpt>
      <trkpt lat="49.90474" lon="2.48128">
        <ele>30.6</ele>
        <time>2022-10-19T13:56:47Z</time>
      </trkpt>
      <trkpt lat="49.90474" lon="2.48128">
        <ele>30.6</ele>
        <time>2022-10-19T13:56:49Z</time>
      </trkpt>
      <trkpt lat="49.90473" lon="2.48128">
        <ele>30.6</ele>
        <time>2022-10-19T13:56:50Z</time>
      </trkpt>
      <trkpt lat="49.90472" lon="2.48128">
        <ele>30.6</ele>
        <time>2022-10-19T13:56:51Z</time>
      </trkpt>
      <trkpt lat="49.90472" lon="2.48127">
        <ele>30.6</ele>
        <time>2022-10-19T13:56:52Z</time>
      </trkpt>
      <trkpt lat="49.90472" lon="2.48127">
        <ele>30.6</ele>
        <time>2022-10-19T13:56:53Z</time>
      </trkpt>
      <trkpt lat="49.90472" lon="2.48126">
        <ele>30.6</ele>
        <time>2022-10-19T13:56:54Z</time>
      </trkpt>
      <trkpt lat="49.90472" lon="2.48126">
        <ele>30.6</ele>
        <time>2022-10-19T13:56:55Z</time>
      </trkpt>
      <trkpt lat="49.90473" lon="2.48126">
        <ele>30.6</ele>
        <time>2022-10-19T13:56:56Z</time>
      </trkpt>
      <trkpt lat="49.90473" lon="2.48125">
        <ele>30.6</ele>
        <time>2022-10-19T13:56:57Z</time>
      </trkpt>
      <trkpt lat="49.90473" lon="2.48125">
        <ele>30.6</ele>
        <time>2022-10-19T13:56:58Z</time>
      </trkpt>
      <trkpt lat="49.90473" lon="2.48125">
        <ele>30.6</ele>
        <time>2022-10-19T13:56:59Z</time>
      </trkpt>
      <trkpt lat="49.90473" lon="2.48125">
        <ele>30.6</ele>
        <time>2022-10-19T13:57:00Z</time>
      </trkpt>
      <trkpt lat="49.90473" lon="2.48125">
        <ele>30.6</ele>
        <time>2022-10-19T13:57:01Z</time>
      </trkpt>
      <trkpt lat="49.90473" lon="2.48125">
        <ele>30.6</ele>
        <time>2022-10-19T13:57:02Z</time>
      </trkpt>
      <trkpt lat="49.90473" lon="2.48125">
        <ele>30.6</ele>
        <time>2022-10-19T13:57:03Z</time>
      </trkpt>
      <trkpt lat="49.90473" lon="2.48125">
        <ele>30.6</ele>
        <time>2022-10-19T13:57:04Z</time>
      </trkpt>
      <trkpt lat="49.90473" lon="2.48125">
        <ele>30.6</ele>
        <time>2022-10-19T13:57:05Z</time>
      </trkpt>
      <trkpt lat="49.90473" lon="2.48124">
        <ele>30.6</ele>
        <time>2022-10-19T13:57:06Z</time>
      </trkpt>
      <trkpt lat="49.90473" lon="2.48124">
        <ele>30.6</ele>
        <time>2022-10-19T13:57:07Z</time>
      </trkpt>
      <trkpt lat="49.90474" lon="2.48125">
        <ele>30.6</ele>
        <time>2022-10-19T13:57:08Z</time>
      </trkpt>
      <trkpt lat="49.90474" lon="2.48125">
        <ele>30.6</ele>
        <time>2022-10-19T13:57:09Z</time>
      </trkpt>
      <trkpt lat="49.90474" lon="2.48125">
        <ele>30.6</ele>
        <time>2022-10-19T13:57:10Z</time>
      </trkpt>
      <trkpt lat="49.90474" lon="2.48125">
        <ele>30.6</ele>
        <time>2022-10-19T13:57:11Z</time>
      </trkpt>
      <trkpt lat="49.90474" lon="2.48125">
        <ele>30.6</ele>
        <time>2022-10-19T13:57:12Z</time>
      </trkpt>
      <trkpt lat="49.90474" lon="2.48125">
        <ele>30.6</ele>
        <time>2022-10-19T13:57:13Z</time>
      </trkpt>
      <trkpt lat="49.90474" lon="2.48125">
        <ele>30.6</ele>
        <time>2022-10-19T13:57:14Z</time>
      </trkpt>
      <trkpt lat="49.90474" lon="2.48125">
        <ele>30.6</ele>
        <time>2022-10-19T13:57:15Z</time>
      </trkpt>
      <trkpt lat="49.90474" lon="2.48125">
        <ele>30.6</ele>
        <time>2022-10-19T13:57:16Z</time>
      </trkpt>
      <trkpt lat="49.90474" lon="2.48125">
        <ele>30.6</ele>
        <time>2022-10-19T13:57:17Z</time>
      </trkpt>
      <trkpt lat="49.90474" lon="2.48125">
        <ele>30.6</ele>
        <time>2022-10-19T13:57:18Z</time>
      </trkpt>
      <trkpt lat="49.90474" lon="2.48125">
        <ele>30.6</ele>
        <time>2022-10-19T13:57:19Z</time>
      </trkpt>
      <trkpt lat="49.90474" lon="2.48125">
        <ele>30.6</ele>
        <time>2022-10-19T13:57:20Z</time>
      </trkpt>
      <trkpt lat="49.90474" lon="2.48125">
        <ele>30.6</ele>
        <time>2022-10-19T13:57:21Z</time>
      </trkpt>
      <trkpt lat="49.90474" lon="2.48125">
        <ele>30.6</ele>
        <time>2022-10-19T13:57:22Z</time>
      </trkpt>
      <trkpt lat="49.90474" lon="2.48125">
        <ele>30.6</ele>
        <time>2022-10-19T13:57:23Z</time>
      </trkpt>
      <trkpt lat="49.90474" lon="2.48125">
        <ele>30.6</ele>
        <time>2022-10-19T13:57:24Z</time>
      </trkpt>
      <trkpt lat="49.90474" lon="2.48125">
        <ele>30.6</ele>
        <time>2022-10-19T13:57:25Z</time>
      </trkpt>
      <trkpt lat="49.90474" lon="2.48125">
        <ele>30.6</ele>
        <time>2022-10-19T13:57:26Z</time>
      </trkpt>
      <trkpt lat="49.90474" lon="2.48125">
        <ele>30.6</ele>
        <time>2022-10-19T13:57:27Z</time>
      </trkpt>
      <trkpt lat="49.90474" lon="2.48125">
        <ele>30.6</ele>
        <time>2022-10-19T13:57:28Z</time>
      </trkpt>
      <trkpt lat="49.90474" lon="2.48125">
        <ele>30.6</ele>
        <time>2022-10-19T13:57:29Z</time>
      </trkpt>
      <trkpt lat="49.90474" lon="2.48125">
        <ele>30.6</ele>
        <time>2022-10-19T13:57:30Z</time>
      </trkpt>
      <trkpt lat="49.90474" lon="2.48125">
        <ele>30.6</ele>
        <time>2022-10-19T13:57:31Z</time>
      </trkpt>
      <trkpt lat="49.90474" lon="2.48125">
        <ele>30.6</ele>
        <time>2022-10-19T13:57:32Z</time>
      </trkpt>
      <trkpt lat="49.90474" lon="2.48125">
        <ele>30.6</ele>
        <time>2022-10-19T13:57:33Z</time>
      </trkpt>
      <trkpt lat="49.90474" lon="2.48125">
        <ele>30.6</ele>
        <time>2022-10-19T13:57:34Z</time>
      </trkpt>
      <trkpt lat="49.90474" lon="2.48125">
        <ele>30.6</ele>
        <time>2022-10-19T13:57:35Z</time>
      </trkpt>
      <trkpt lat="49.90474" lon="2.48125">
        <ele>30.6</ele>
        <time>2022-10-19T13:57:36Z</time>
      </trkpt>
      <trkpt lat="49.90474" lon="2.48125">
        <ele>30.6</ele>
        <time>2022-10-19T13:57:37Z</time>
      </trkpt>
      <trkpt lat="49.90474" lon="2.48125">
        <ele>30.6</ele>
        <time>2022-10-19T13:57:38Z</time>
      </trkpt>
      <trkpt lat="49.90474" lon="2.48125">
        <ele>30.6</ele>
        <time>2022-10-19T13:57:39Z</time>
      </trkpt>
      <trkpt lat="49.90474" lon="2.48125">
        <ele>30.6</ele>
        <time>2022-10-19T13:57:40Z</time>
      </trkpt>
      <trkpt lat="49.90474" lon="2.48125">
        <ele>30.6</ele>
        <time>2022-10-19T13:57:41Z</time>
      </trkpt>
      <trkpt lat="49.90476" lon="2.48125">
        <ele>30.6</ele>
        <time>2022-10-19T13:57:42Z</time>
      </trkpt>
      <trkpt lat="49.90477" lon="2.48126">
        <ele>30.6</ele>
        <time>2022-10-19T13:57:43Z</time>
      </trkpt>
      <trkpt lat="49.90478" lon="2.48126">
        <ele>30.6</ele>
        <time>2022-10-19T13:57:44Z</time>
      </trkpt>
      <trkpt lat="49.90478" lon="2.48128">
        <ele>30.6</ele>
        <time>2022-10-19T13:57:45Z</time>
      </trkpt>
      <trkpt lat="49.90478" lon="2.48129">
        <ele>30.5</ele>
        <time>2022-10-19T13:57:46Z</time>
      </trkpt>
      <trkpt lat="49.90478" lon="2.48129">
        <ele>30.5</ele>
        <time>2022-10-19T13:57:47Z</time>
      </trkpt>
      <trkpt lat="49.90478" lon="2.4813">
        <ele>30.5</ele>
        <time>2022-10-19T13:57:48Z</time>
      </trkpt>
      <trkpt lat="49.90478" lon="2.48131">
        <ele>30.5</ele>
        <time>2022-10-19T13:57:49Z</time>
      </trkpt>
      <trkpt lat="49.90478" lon="2.48132">
        <ele>30.5</ele>
        <time>2022-10-19T13:57:50Z</time>
      </trkpt>
      <trkpt lat="49.90478" lon="2.48133">
        <ele>30.4</ele>
        <time>2022-10-19T13:57:52Z</time>
      </trkpt>
      <trkpt lat="49.90478" lon="2.48135">
        <ele>30.4</ele>
        <time>2022-10-19T13:57:53Z</time>
      </trkpt>
      <trkpt lat="49.90479" lon="2.48137">
        <ele>30.4</ele>
        <time>2022-10-19T13:57:54Z</time>
      </trkpt>
      <trkpt lat="49.90479" lon="2.4814">
        <ele>30.4</ele>
        <time>2022-10-19T13:57:55Z</time>
      </trkpt>
      <trkpt lat="49.9048" lon="2.48142">
        <ele>30.3</ele>
        <time>2022-10-19T13:57:56Z</time>
      </trkpt>
      <trkpt lat="49.90481" lon="2.48144">
        <ele>30.3</ele>
        <time>2022-10-19T13:57:58Z</time>
      </trkpt>
      <trkpt lat="49.90482" lon="2.48145">
        <ele>30.2</ele>
        <time>2022-10-19T13:57:59Z</time>
      </trkpt>
      <trkpt lat="49.90483" lon="2.48146">
        <ele>30.2</ele>
        <time>2022-10-19T13:58:00Z</time>
      </trkpt>
      <trkpt lat="49.90485" lon="2.48147">
        <ele>30.2</ele>
        <time>2022-10-19T13:58:01Z</time>
      </trkpt>
      <trkpt lat="49.90486" lon="2.48148">
        <ele>30.2</ele>
        <time>2022-10-19T13:58:03Z</time>
      </trkpt>
      <trkpt lat="49.90487" lon="2.48149">
        <ele>30.2</ele>
        <time>2022-10-19T13:58:04Z</time>
      </trkpt>
      <trkpt lat="49.90488" lon="2.4815">
        <ele>30.1</ele>
        <time>2022-10-19T13:58:05Z</time>
      </trkpt>
      <trkpt lat="49.90489" lon="2.48151">
        <ele>30.1</ele>
        <time>2022-10-19T13:58:06Z</time>
      </trkpt>
      <trkpt lat="49.9049" lon="2.48152">
        <ele>30.1</ele>
        <time>2022-10-19T13:58:07Z</time>
      </trkpt>
      <trkpt lat="49.90491" lon="2.48152">
        <ele>30.1</ele>
        <time>2022-10-19T13:58:09Z</time>
      </trkpt>
      <trkpt lat="49.90492" lon="2.48153">
        <ele>30.1</ele>
        <time>2022-10-19T13:58:10Z</time>
      </trkpt>
      <trkpt lat="49.90493" lon="2.48154">
        <ele>30.1</ele>
        <time>2022-10-19T13:58:11Z</time>
      </trkpt>
      <trkpt lat="49.90493" lon="2.48155">
        <ele>30.1</ele>
        <time>2022-10-19T13:58:12Z</time>
      </trkpt>
      <trkpt lat="49.90494" lon="2.48156">
        <ele>30.1</ele>
        <time>2022-10-19T13:58:13Z</time>
      </trkpt>
      <trkpt lat="49.90495" lon="2.48157">
        <ele>30.1</ele>
        <time>2022-10-19T13:58:14Z</time>
      </trkpt>
      <trkpt lat="49.90496" lon="2.48158">
        <ele>30.1</ele>
        <time>2022-10-19T13:58:15Z</time>
      </trkpt>
      <trkpt lat="49.90497" lon="2.48159">
        <ele>30</ele>
        <time>2022-10-19T13:58:16Z</time>
      </trkpt>
      <trkpt lat="49.90498" lon="2.4816">
        <ele>30</ele>
        <time>2022-10-19T13:58:18Z</time>
      </trkpt>
      <trkpt lat="49.90499" lon="2.48161">
        <ele>30</ele>
        <time>2022-10-19T13:58:19Z</time>
      </trkpt>
      <trkpt lat="49.90499" lon="2.48163">
        <ele>30</ele>
        <time>2022-10-19T13:58:20Z</time>
      </trkpt>
      <trkpt lat="49.905" lon="2.48164">
        <ele>30</ele>
        <time>2022-10-19T13:58:21Z</time>
      </trkpt>
      <trkpt lat="49.905" lon="2.48166">
        <ele>30</ele>
        <time>2022-10-19T13:58:22Z</time>
      </trkpt>
      <trkpt lat="49.905" lon="2.48167">
        <ele>29.9</ele>
        <time>2022-10-19T13:58:23Z</time>
      </trkpt>
      <trkpt lat="49.905" lon="2.48168">
        <ele>29.9</ele>
        <time>2022-10-19T13:58:24Z</time>
      </trkpt>
      <trkpt lat="49.905" lon="2.4817">
        <ele>29.9</ele>
        <time>2022-10-19T13:58:25Z</time>
      </trkpt>
      <trkpt lat="49.905" lon="2.48171">
        <ele>29.9</ele>
        <time>2022-10-19T13:58:26Z</time>
      </trkpt>
      <trkpt lat="49.905" lon="2.48173">
        <ele>29.8</ele>
        <time>2022-10-19T13:58:28Z</time>
      </trkpt>
      <trkpt lat="49.905" lon="2.48174">
        <ele>29.8</ele>
        <time>2022-10-19T13:58:29Z</time>
      </trkpt>
      <trkpt lat="49.905" lon="2.48175">
        <ele>29.8</ele>
        <time>2022-10-19T13:58:30Z</time>
      </trkpt>
      <trkpt lat="49.905" lon="2.48175">
        <ele>29.8</ele>
        <time>2022-10-19T13:58:31Z</time>
      </trkpt>
      <trkpt lat="49.90499" lon="2.48176">
        <ele>29.8</ele>
        <time>2022-10-19T13:58:33Z</time>
      </trkpt>
      <trkpt lat="49.90499" lon="2.48176">
        <ele>29.8</ele>
        <time>2022-10-19T13:58:34Z</time>
      </trkpt>
      <trkpt lat="49.90497" lon="2.48175">
        <ele>29.7</ele>
        <time>2022-10-19T13:58:36Z</time>
      </trkpt>
      <trkpt lat="49.90496" lon="2.48175">
        <ele>29.7</ele>
        <time>2022-10-19T13:58:37Z</time>
      </trkpt>
      <trkpt lat="49.90496" lon="2.48175">
        <ele>29.7</ele>
        <time>2022-10-19T13:58:38Z</time>
      </trkpt>
      <trkpt lat="49.90495" lon="2.48175">
        <ele>29.7</ele>
        <time>2022-10-19T13:58:40Z</time>
      </trkpt>
      <trkpt lat="49.90495" lon="2.48176">
        <ele>29.7</ele>
        <time>2022-10-19T13:58:41Z</time>
      </trkpt>
      <trkpt lat="49.90494" lon="2.48177">
        <ele>29.7</ele>
        <time>2022-10-19T13:58:42Z</time>
      </trkpt>
      <trkpt lat="49.90493" lon="2.48177">
        <ele>29.7</ele>
        <time>2022-10-19T13:58:43Z</time>
      </trkpt>
      <trkpt lat="49.90492" lon="2.48178">
        <ele>29.7</ele>
        <time>2022-10-19T13:58:45Z</time>
      </trkpt>
      <trkpt lat="49.90492" lon="2.48179">
        <ele>29.6</ele>
        <time>2022-10-19T13:58:46Z</time>
      </trkpt>
      <trkpt lat="49.90491" lon="2.48179">
        <ele>29.6</ele>
        <time>2022-10-19T13:58:47Z</time>
      </trkpt>
      <trkpt lat="49.90491" lon="2.48179">
        <ele>29.6</ele>
        <time>2022-10-19T13:58:48Z</time>
      </trkpt>
      <trkpt lat="49.9049" lon="2.4818">
        <ele>29.6</ele>
        <time>2022-10-19T13:58:49Z</time>
      </trkpt>
      <trkpt lat="49.90489" lon="2.4818">
        <ele>29.6</ele>
        <time>2022-10-19T13:58:51Z</time>
      </trkpt>
      <trkpt lat="49.90488" lon="2.48181">
        <ele>29.6</ele>
        <time>2022-10-19T13:58:52Z</time>
      </trkpt>
      <trkpt lat="49.90487" lon="2.48182">
        <ele>29.6</ele>
        <time>2022-10-19T13:58:53Z</time>
      </trkpt>
      <trkpt lat="49.90487" lon="2.48183">
        <ele>29.6</ele>
        <time>2022-10-19T13:58:54Z</time>
      </trkpt>
      <trkpt lat="49.90486" lon="2.48184">
        <ele>29.6</ele>
        <time>2022-10-19T13:58:55Z</time>
      </trkpt>
      <trkpt lat="49.90485" lon="2.48185">
        <ele>29.6</ele>
        <time>2022-10-19T13:58:57Z</time>
      </trkpt>
      <trkpt lat="49.90484" lon="2.48186">
        <ele>29.6</ele>
        <time>2022-10-19T13:58:58Z</time>
      </trkpt>
      <trkpt lat="49.90483" lon="2.48187">
        <ele>29.6</ele>
        <time>2022-10-19T13:58:59Z</time>
      </trkpt>
      <trkpt lat="49.90482" lon="2.48188">
        <ele>29.5</ele>
        <time>2022-10-19T13:59:00Z</time>
      </trkpt>
      <trkpt lat="49.90482" lon="2.48189">
        <ele>29.5</ele>
        <time>2022-10-19T13:59:01Z</time>
      </trkpt>
      <trkpt lat="49.90481" lon="2.48189">
        <ele>29.5</ele>
        <time>2022-10-19T13:59:02Z</time>
      </trkpt>
      <trkpt lat="49.9048" lon="2.4819">
        <ele>29.5</ele>
        <time>2022-10-19T13:59:03Z</time>
      </trkpt>
      <trkpt lat="49.90479" lon="2.48191">
        <ele>29.5</ele>
        <time>2022-10-19T13:59:04Z</time>
      </trkpt>
      <trkpt lat="49.90478" lon="2.48193">
        <ele>29.5</ele>
        <time>2022-10-19T13:59:05Z</time>
      </trkpt>
      <trkpt lat="49.90477" lon="2.48193">
        <ele>29.5</ele>
        <time>2022-10-19T13:59:07Z</time>
      </trkpt>
      <trkpt lat="49.90476" lon="2.48194">
        <ele>29.5</ele>
        <time>2022-10-19T13:59:08Z</time>
      </trkpt>
      <trkpt lat="49.90474" lon="2.48196">
        <ele>29.5</ele>
        <time>2022-10-19T13:59:09Z</time>
      </trkpt>
      <trkpt lat="49.90474" lon="2.48196">
        <ele>29.5</ele>
        <time>2022-10-19T13:59:10Z</time>
      </trkpt>
      <trkpt lat="49.90473" lon="2.48197">
        <ele>29.5</ele>
        <time>2022-10-19T13:59:11Z</time>
      </trkpt>
      <trkpt lat="49.90472" lon="2.48199">
        <ele>29.5</ele>
        <time>2022-10-19T13:59:12Z</time>
      </trkpt>
      <trkpt lat="49.90471" lon="2.482">
        <ele>29.5</ele>
        <time>2022-10-19T13:59:13Z</time>
      </trkpt>
      <trkpt lat="49.9047" lon="2.482">
        <ele>29.5</ele>
        <time>2022-10-19T13:59:14Z</time>
      </trkpt>
      <trkpt lat="49.90469" lon="2.48202">
        <ele>29.5</ele>
        <time>2022-10-19T13:59:15Z</time>
      </trkpt>
      <trkpt lat="49.90468" lon="2.48203">
        <ele>29.5</ele>
        <time>2022-10-19T13:59:17Z</time>
      </trkpt>
      <trkpt lat="49.90467" lon="2.48204">
        <ele>29.5</ele>
        <time>2022-10-19T13:59:18Z</time>
      </trkpt>
      <trkpt lat="49.90466" lon="2.48206">
        <ele>29.5</ele>
        <time>2022-10-19T13:59:19Z</time>
      </trkpt>
      <trkpt lat="49.90466" lon="2.48207">
        <ele>29.5</ele>
        <time>2022-10-19T13:59:20Z</time>
      </trkpt>
      <trkpt lat="49.90465" lon="2.48208">
        <ele>29.5</ele>
        <time>2022-10-19T13:59:21Z</time>
      </trkpt>
      <trkpt lat="49.90464" lon="2.48209">
        <ele>29.5</ele>
        <time>2022-10-19T13:59:22Z</time>
      </trkpt>
      <trkpt lat="49.90463" lon="2.4821">
        <ele>29.5</ele>
        <time>2022-10-19T13:59:23Z</time>
      </trkpt>
      <trkpt lat="49.90462" lon="2.48211">
        <ele>29.5</ele>
        <time>2022-10-19T13:59:24Z</time>
      </trkpt>
      <trkpt lat="49.9046" lon="2.48212">
        <ele>29.5</ele>
        <time>2022-10-19T13:59:26Z</time>
      </trkpt>
      <trkpt lat="49.90459" lon="2.48213">
        <ele>29.5</ele>
        <time>2022-10-19T13:59:27Z</time>
      </trkpt>
      <trkpt lat="49.90458" lon="2.48214">
        <ele>29.5</ele>
        <time>2022-10-19T13:59:28Z</time>
      </trkpt>
      <trkpt lat="49.90457" lon="2.48214">
        <ele>29.5</ele>
        <time>2022-10-19T13:59:29Z</time>
      </trkpt>
      <trkpt lat="49.90456" lon="2.48216">
        <ele>29.5</ele>
        <time>2022-10-19T13:59:30Z</time>
      </trkpt>
      <trkpt lat="49.90454" lon="2.48217">
        <ele>29.5</ele>
        <time>2022-10-19T13:59:31Z</time>
      </trkpt>
      <trkpt lat="49.90453" lon="2.48218">
        <ele>29.5</ele>
        <time>2022-10-19T13:59:32Z</time>
      </trkpt>
      <trkpt lat="49.90453" lon="2.48219">
        <ele>29.5</ele>
        <time>2022-10-19T13:59:33Z</time>
      </trkpt>
      <trkpt lat="49.90451" lon="2.48221">
        <ele>29.5</ele>
        <time>2022-10-19T13:59:34Z</time>
      </trkpt>
      <trkpt lat="49.9045" lon="2.48222">
        <ele>29.5</ele>
        <time>2022-10-19T13:59:36Z</time>
      </trkpt>
      <trkpt lat="49.9045" lon="2.48223">
        <ele>29.5</ele>
        <time>2022-10-19T13:59:37Z</time>
      </trkpt>
      <trkpt lat="49.90448" lon="2.48225">
        <ele>29.5</ele>
        <time>2022-10-19T13:59:38Z</time>
      </trkpt>
      <trkpt lat="49.90448" lon="2.48226">
        <ele>29.4</ele>
        <time>2022-10-19T13:59:39Z</time>
      </trkpt>
      <trkpt lat="49.90447" lon="2.48227">
        <ele>29.4</ele>
        <time>2022-10-19T13:59:40Z</time>
      </trkpt>
      <trkpt lat="49.90445" lon="2.48229">
        <ele>29.4</ele>
        <time>2022-10-19T13:59:41Z</time>
      </trkpt>
      <trkpt lat="49.90445" lon="2.4823">
        <ele>29.4</ele>
        <time>2022-10-19T13:59:42Z</time>
      </trkpt>
      <trkpt lat="49.90444" lon="2.48231">
        <ele>29.4</ele>
        <time>2022-10-19T13:59:44Z</time>
      </trkpt>
      <trkpt lat="49.90443" lon="2.48232">
        <ele>29.4</ele>
        <time>2022-10-19T13:59:45Z</time>
      </trkpt>
      <trkpt lat="49.90442" lon="2.48232">
        <ele>29.4</ele>
        <time>2022-10-19T13:59:46Z</time>
      </trkpt>
      <trkpt lat="49.90442" lon="2.48233">
        <ele>29.4</ele>
        <time>2022-10-19T13:59:47Z</time>
      </trkpt>
      <trkpt lat="49.90441" lon="2.48235">
        <ele>29.4</ele>
        <time>2022-10-19T13:59:48Z</time>
      </trkpt>
      <trkpt lat="49.9044" lon="2.48236">
        <ele>29.4</ele>
        <time>2022-10-19T13:59:49Z</time>
      </trkpt>
      <trkpt lat="49.90439" lon="2.48236">
        <ele>29.4</ele>
        <time>2022-10-19T13:59:50Z</time>
      </trkpt>
      <trkpt lat="49.90438" lon="2.48237">
        <ele>29.4</ele>
        <time>2022-10-19T13:59:51Z</time>
      </trkpt>
      <trkpt lat="49.90437" lon="2.48238">
        <ele>29.4</ele>
        <time>2022-10-19T13:59:52Z</time>
      </trkpt>
      <trkpt lat="49.90436" lon="2.48239">
        <ele>29.4</ele>
        <time>2022-10-19T13:59:54Z</time>
      </trkpt>
      <trkpt lat="49.90435" lon="2.4824">
        <ele>29.4</ele>
        <time>2022-10-19T13:59:55Z</time>
      </trkpt>
      <trkpt lat="49.90433" lon="2.48242">
        <ele>29.4</ele>
        <time>2022-10-19T13:59:56Z</time>
      </trkpt>
      <trkpt lat="49.90433" lon="2.48243">
        <ele>29.4</ele>
        <time>2022-10-19T13:59:57Z</time>
      </trkpt>
      <trkpt lat="49.90432" lon="2.48243">
        <ele>29.4</ele>
        <time>2022-10-19T13:59:58Z</time>
      </trkpt>
      <trkpt lat="49.90431" lon="2.48244">
        <ele>29.4</ele>
        <time>2022-10-19T13:59:59Z</time>
      </trkpt>
      <trkpt lat="49.9043" lon="2.48245">
        <ele>29.4</ele>
        <time>2022-10-19T14:00:00Z</time>
      </trkpt>
      <trkpt lat="49.90429" lon="2.48247">
        <ele>29.4</ele>
        <time>2022-10-19T14:00:01Z</time>
      </trkpt>
      <trkpt lat="49.90428" lon="2.48248">
        <ele>29.4</ele>
        <time>2022-10-19T14:00:03Z</time>
      </trkpt>
      <trkpt lat="49.90426" lon="2.48251">
        <ele>29.4</ele>
        <time>2022-10-19T14:00:04Z</time>
      </trkpt>
      <trkpt lat="49.90426" lon="2.48252">
        <ele>29.4</ele>
        <time>2022-10-19T14:00:05Z</time>
      </trkpt>
      <trkpt lat="49.90425" lon="2.48253">
        <ele>29.4</ele>
        <time>2022-10-19T14:00:06Z</time>
      </trkpt>
      <trkpt lat="49.90423" lon="2.48254">
        <ele>29.4</ele>
        <time>2022-10-19T14:00:07Z</time>
      </trkpt>
      <trkpt lat="49.90423" lon="2.48255">
        <ele>29.4</ele>
        <time>2022-10-19T14:00:08Z</time>
      </trkpt>
      <trkpt lat="49.90422" lon="2.48256">
        <ele>29.4</ele>
        <time>2022-10-19T14:00:09Z</time>
      </trkpt>
      <trkpt lat="49.90421" lon="2.48257">
        <ele>29.4</ele>
        <time>2022-10-19T14:00:11Z</time>
      </trkpt>
      <trkpt lat="49.9042" lon="2.48258">
        <ele>29.4</ele>
        <time>2022-10-19T14:00:12Z</time>
      </trkpt>
      <trkpt lat="49.90419" lon="2.48259">
        <ele>29.4</ele>
        <time>2022-10-19T14:00:13Z</time>
      </trkpt>
      <trkpt lat="49.90419" lon="2.4826">
        <ele>29.4</ele>
        <time>2022-10-19T14:00:14Z</time>
      </trkpt>
      <trkpt lat="49.90418" lon="2.48261">
        <ele>29.4</ele>
        <time>2022-10-19T14:00:15Z</time>
      </trkpt>
      <trkpt lat="49.90417" lon="2.48262">
        <ele>29.4</ele>
        <time>2022-10-19T14:00:16Z</time>
      </trkpt>
      <trkpt lat="49.90416" lon="2.48263">
        <ele>29.4</ele>
        <time>2022-10-19T14:00:17Z</time>
      </trkpt>
      <trkpt lat="49.90414" lon="2.48265">
        <ele>29.4</ele>
        <time>2022-10-19T14:00:18Z</time>
      </trkpt>
      <trkpt lat="49.90413" lon="2.48266">
        <ele>29.4</ele>
        <time>2022-10-19T14:00:20Z</time>
      </trkpt>
      <trkpt lat="49.90413" lon="2.48267">
        <ele>29.4</ele>
        <time>2022-10-19T14:00:21Z</time>
      </trkpt>
      <trkpt lat="49.90411" lon="2.48268">
        <ele>29.4</ele>
        <time>2022-10-19T14:00:22Z</time>
      </trkpt>
      <trkpt lat="49.9041" lon="2.48269">
        <ele>29.4</ele>
        <time>2022-10-19T14:00:23Z</time>
      </trkpt>
      <trkpt lat="49.9041" lon="2.4827">
        <ele>29.4</ele>
        <time>2022-10-19T14:00:24Z</time>
      </trkpt>
      <trkpt lat="49.90408" lon="2.48271">
        <ele>29.4</ele>
        <time>2022-10-19T14:00:25Z</time>
      </trkpt>
      <trkpt lat="49.90407" lon="2.48272">
        <ele>29.4</ele>
        <time>2022-10-19T14:00:26Z</time>
      </trkpt>
      <trkpt lat="49.90407" lon="2.48273">
        <ele>29.4</ele>
        <time>2022-10-19T14:00:27Z</time>
      </trkpt>
      <trkpt lat="49.90405" lon="2.48274">
        <ele>29.4</ele>
        <time>2022-10-19T14:00:29Z</time>
      </trkpt>
      <trkpt lat="49.90404" lon="2.48275">
        <ele>29.5</ele>
        <time>2022-10-19T14:00:30Z</time>
      </trkpt>
      <trkpt lat="49.90403" lon="2.48277">
        <ele>29.5</ele>
        <time>2022-10-19T14:00:31Z</time>
      </trkpt>
      <trkpt lat="49.90401" lon="2.48279">
        <ele>29.5</ele>
        <time>2022-10-19T14:00:32Z</time>
      </trkpt>
      <trkpt lat="49.90401" lon="2.48279">
        <ele>29.5</ele>
        <time>2022-10-19T14:00:33Z</time>
      </trkpt>
      <trkpt lat="49.904" lon="2.4828">
        <ele>29.5</ele>
        <time>2022-10-19T14:00:34Z</time>
      </trkpt>
      <trkpt lat="49.90399" lon="2.48282">
        <ele>29.5</ele>
        <time>2022-10-19T14:00:35Z</time>
      </trkpt>
      <trkpt lat="49.90397" lon="2.48284">
        <ele>29.5</ele>
        <time>2022-10-19T14:00:37Z</time>
      </trkpt>
      <trkpt lat="49.90397" lon="2.48285">
        <ele>29.5</ele>
        <time>2022-10-19T14:00:38Z</time>
      </trkpt>
      <trkpt lat="49.90396" lon="2.48285">
        <ele>29.5</ele>
        <time>2022-10-19T14:00:39Z</time>
      </trkpt>
      <trkpt lat="49.90395" lon="2.48287">
        <ele>29.5</ele>
        <time>2022-10-19T14:00:40Z</time>
      </trkpt>
      <trkpt lat="49.90394" lon="2.48288">
        <ele>29.5</ele>
        <time>2022-10-19T14:00:41Z</time>
      </trkpt>
      <trkpt lat="49.90394" lon="2.48289">
        <ele>29.5</ele>
        <time>2022-10-19T14:00:42Z</time>
      </trkpt>
      <trkpt lat="49.90393" lon="2.4829">
        <ele>29.5</ele>
        <time>2022-10-19T14:00:43Z</time>
      </trkpt>
      <trkpt lat="49.90392" lon="2.48291">
        <ele>29.5</ele>
        <time>2022-10-19T14:00:44Z</time>
      </trkpt>
      <trkpt lat="49.90391" lon="2.48293">
        <ele>29.5</ele>
        <time>2022-10-19T14:00:46Z</time>
      </trkpt>
      <trkpt lat="49.9039" lon="2.48294">
        <ele>29.5</ele>
        <time>2022-10-19T14:00:47Z</time>
      </trkpt>
      <trkpt lat="49.9039" lon="2.48295">
        <ele>29.5</ele>
        <time>2022-10-19T14:00:48Z</time>
      </trkpt>
      <trkpt lat="49.90389" lon="2.48296">
        <ele>29.5</ele>
        <time>2022-10-19T14:00:49Z</time>
      </trkpt>
      <trkpt lat="49.90388" lon="2.48299">
        <ele>29.5</ele>
        <time>2022-10-19T14:00:50Z</time>
      </trkpt>
      <trkpt lat="49.90387" lon="2.483">
        <ele>29.5</ele>
        <time>2022-10-19T14:00:52Z</time>
      </trkpt>
      <trkpt lat="49.90386" lon="2.48301">
        <ele>29.5</ele>
        <time>2022-10-19T14:00:53Z</time>
      </trkpt>
      <trkpt lat="49.90385" lon="2.48303">
        <ele>29.5</ele>
        <time>2022-10-19T14:00:54Z</time>
      </trkpt>
      <trkpt lat="49.90384" lon="2.48304">
        <ele>29.5</ele>
        <time>2022-10-19T14:00:55Z</time>
      </trkpt>
      <trkpt lat="49.90383" lon="2.48305">
        <ele>29.5</ele>
        <time>2022-10-19T14:00:56Z</time>
      </trkpt>
      <trkpt lat="49.90382" lon="2.48306">
        <ele>29.4</ele>
        <time>2022-10-19T14:00:57Z</time>
      </trkpt>
      <trkpt lat="49.90381" lon="2.48307">
        <ele>29.4</ele>
        <time>2022-10-19T14:00:58Z</time>
      </trkpt>
      <trkpt lat="49.9038" lon="2.48308">
        <ele>29.4</ele>
        <time>2022-10-19T14:00:59Z</time>
      </trkpt>
      <trkpt lat="49.90379" lon="2.48309">
        <ele>29.4</ele>
        <time>2022-10-19T14:01:00Z</time>
      </trkpt>
      <trkpt lat="49.90378" lon="2.4831">
        <ele>29.4</ele>
        <time>2022-10-19T14:01:01Z</time>
      </trkpt>
      <trkpt lat="49.90377" lon="2.48311">
        <ele>29.4</ele>
        <time>2022-10-19T14:01:02Z</time>
      </trkpt>
      <trkpt lat="49.90376" lon="2.48313">
        <ele>29.4</ele>
        <time>2022-10-19T14:01:03Z</time>
      </trkpt>
      <trkpt lat="49.90374" lon="2.48315">
        <ele>29.4</ele>
        <time>2022-10-19T14:01:05Z</time>
      </trkpt>
      <trkpt lat="49.90373" lon="2.48317">
        <ele>29.4</ele>
        <time>2022-10-19T14:01:07Z</time>
      </trkpt>
      <trkpt lat="49.90372" lon="2.48318">
        <ele>29.4</ele>
        <time>2022-10-19T14:01:08Z</time>
      </trkpt>
      <trkpt lat="49.90371" lon="2.4832">
        <ele>29.4</ele>
        <time>2022-10-19T14:01:09Z</time>
      </trkpt>
      <trkpt lat="49.9037" lon="2.48321">
        <ele>29.4</ele>
        <time>2022-10-19T14:01:10Z</time>
      </trkpt>
      <trkpt lat="49.90368" lon="2.48323">
        <ele>29.4</ele>
        <time>2022-10-19T14:01:11Z</time>
      </trkpt>
      <trkpt lat="49.90367" lon="2.48324">
        <ele>29.4</ele>
        <time>2022-10-19T14:01:12Z</time>
      </trkpt>
      <trkpt lat="49.90367" lon="2.48324">
        <ele>29.4</ele>
        <time>2022-10-19T14:01:13Z</time>
      </trkpt>
      <trkpt lat="49.90366" lon="2.48325">
        <ele>29.4</ele>
        <time>2022-10-19T14:01:14Z</time>
      </trkpt>
      <trkpt lat="49.90365" lon="2.48326">
        <ele>29.4</ele>
        <time>2022-10-19T14:01:15Z</time>
      </trkpt>
      <trkpt lat="49.90364" lon="2.48327">
        <ele>29.4</ele>
        <time>2022-10-19T14:01:16Z</time>
      </trkpt>
      <trkpt lat="49.90363" lon="2.48329">
        <ele>29.4</ele>
        <time>2022-10-19T14:01:17Z</time>
      </trkpt>
      <trkpt lat="49.90363" lon="2.4833">
        <ele>29.4</ele>
        <time>2022-10-19T14:01:18Z</time>
      </trkpt>
      <trkpt lat="49.90362" lon="2.48331">
        <ele>29.4</ele>
        <time>2022-10-19T14:01:20Z</time>
      </trkpt>
      <trkpt lat="49.9036" lon="2.48332">
        <ele>29.4</ele>
        <time>2022-10-19T14:01:21Z</time>
      </trkpt>
      <trkpt lat="49.90359" lon="2.48333">
        <ele>29.5</ele>
        <time>2022-10-19T14:01:23Z</time>
      </trkpt>
      <trkpt lat="49.90358" lon="2.48334">
        <ele>29.5</ele>
        <time>2022-10-19T14:01:24Z</time>
      </trkpt>
      <trkpt lat="49.90357" lon="2.48336">
        <ele>29.5</ele>
        <time>2022-10-19T14:01:25Z</time>
      </trkpt>
      <trkpt lat="49.90355" lon="2.48337">
        <ele>29.5</ele>
        <time>2022-10-19T14:01:27Z</time>
      </trkpt>
      <trkpt lat="49.90354" lon="2.48338">
        <ele>29.5</ele>
        <time>2022-10-19T14:01:28Z</time>
      </trkpt>
      <trkpt lat="49.90353" lon="2.48339">
        <ele>29.5</ele>
        <time>2022-10-19T14:01:29Z</time>
      </trkpt>
      <trkpt lat="49.90352" lon="2.4834">
        <ele>29.5</ele>
        <time>2022-10-19T14:01:30Z</time>
      </trkpt>
      <trkpt lat="49.90351" lon="2.48342">
        <ele>29.6</ele>
        <time>2022-10-19T14:01:31Z</time>
      </trkpt>
      <trkpt lat="49.9035" lon="2.48344">
        <ele>29.6</ele>
        <time>2022-10-19T14:01:32Z</time>
      </trkpt>
      <trkpt lat="49.9035" lon="2.48345">
        <ele>29.6</ele>
        <time>2022-10-19T14:01:33Z</time>
      </trkpt>
      <trkpt lat="49.90349" lon="2.48346">
        <ele>29.6</ele>
        <time>2022-10-19T14:01:34Z</time>
      </trkpt>
      <trkpt lat="49.90348" lon="2.48347">
        <ele>29.6</ele>
        <time>2022-10-19T14:01:35Z</time>
      </trkpt>
      <trkpt lat="49.90348" lon="2.48349">
        <ele>29.6</ele>
        <time>2022-10-19T14:01:36Z</time>
      </trkpt>
      <trkpt lat="49.90347" lon="2.4835">
        <ele>29.6</ele>
        <time>2022-10-19T14:01:37Z</time>
      </trkpt>
      <trkpt lat="49.90346" lon="2.48351">
        <ele>29.6</ele>
        <time>2022-10-19T14:01:38Z</time>
      </trkpt>
      <trkpt lat="49.90345" lon="2.48352">
        <ele>29.6</ele>
        <time>2022-10-19T14:01:39Z</time>
      </trkpt>
      <trkpt lat="49.90343" lon="2.48354">
        <ele>29.6</ele>
        <time>2022-10-19T14:01:41Z</time>
      </trkpt>
      <trkpt lat="49.90342" lon="2.48354">
        <ele>29.6</ele>
        <time>2022-10-19T14:01:42Z</time>
      </trkpt>
      <trkpt lat="49.90341" lon="2.48355">
        <ele>29.6</ele>
        <time>2022-10-19T14:01:43Z</time>
      </trkpt>
      <trkpt lat="49.9034" lon="2.48356">
        <ele>29.6</ele>
        <time>2022-10-19T14:01:44Z</time>
      </trkpt>
      <trkpt lat="49.9034" lon="2.48356">
        <ele>29.6</ele>
        <time>2022-10-19T14:01:45Z</time>
      </trkpt>
      <trkpt lat="49.90338" lon="2.48358">
        <ele>29.6</ele>
        <time>2022-10-19T14:01:46Z</time>
      </trkpt>
      <trkpt lat="49.90336" lon="2.48359">
        <ele>29.6</ele>
        <time>2022-10-19T14:01:47Z</time>
      </trkpt>
      <trkpt lat="49.90336" lon="2.4836">
        <ele>29.6</ele>
        <time>2022-10-19T14:01:49Z</time>
      </trkpt>
      <trkpt lat="49.90335" lon="2.48361">
        <ele>29.6</ele>
        <time>2022-10-19T14:01:50Z</time>
      </trkpt>
      <trkpt lat="49.90334" lon="2.48363">
        <ele>29.6</ele>
        <time>2022-10-19T14:01:51Z</time>
      </trkpt>
      <trkpt lat="49.90332" lon="2.48364">
        <ele>29.6</ele>
        <time>2022-10-19T14:01:52Z</time>
      </trkpt>
      <trkpt lat="49.90331" lon="2.48365">
        <ele>29.6</ele>
        <time>2022-10-19T14:01:53Z</time>
      </trkpt>
      <trkpt lat="49.9033" lon="2.48367">
        <ele>29.6</ele>
        <time>2022-10-19T14:01:54Z</time>
      </trkpt>
      <trkpt lat="49.90329" lon="2.48368">
        <ele>29.6</ele>
        <time>2022-10-19T14:01:56Z</time>
      </trkpt>
      <trkpt lat="49.90328" lon="2.48369">
        <ele>29.7</ele>
        <time>2022-10-19T14:01:57Z</time>
      </trkpt>
      <trkpt lat="49.90326" lon="2.48371">
        <ele>29.7</ele>
        <time>2022-10-19T14:01:58Z</time>
      </trkpt>
      <trkpt lat="49.90325" lon="2.48372">
        <ele>29.7</ele>
        <time>2022-10-19T14:01:59Z</time>
      </trkpt>
      <trkpt lat="49.90324" lon="2.48373">
        <ele>29.7</ele>
        <time>2022-10-19T14:02:00Z</time>
      </trkpt>
      <trkpt lat="49.90323" lon="2.48375">
        <ele>29.7</ele>
        <time>2022-10-19T14:02:02Z</time>
      </trkpt>
      <trkpt lat="49.90322" lon="2.48376">
        <ele>29.7</ele>
        <time>2022-10-19T14:02:03Z</time>
      </trkpt>
      <trkpt lat="49.90321" lon="2.48378">
        <ele>29.7</ele>
        <time>2022-10-19T14:02:04Z</time>
      </trkpt>
      <trkpt lat="49.9032" lon="2.48379">
        <ele>29.7</ele>
        <time>2022-10-19T14:02:05Z</time>
      </trkpt>
      <trkpt lat="49.90319" lon="2.4838">
        <ele>29.7</ele>
        <time>2022-10-19T14:02:06Z</time>
      </trkpt>
      <trkpt lat="49.90318" lon="2.48381">
        <ele>29.8</ele>
        <time>2022-10-19T14:02:07Z</time>
      </trkpt>
      <trkpt lat="49.90317" lon="2.48383">
        <ele>29.8</ele>
        <time>2022-10-19T14:02:09Z</time>
      </trkpt>
      <trkpt lat="49.90316" lon="2.48385">
        <ele>29.8</ele>
        <time>2022-10-19T14:02:10Z</time>
      </trkpt>
      <trkpt lat="49.90315" lon="2.48386">
        <ele>29.8</ele>
        <time>2022-10-19T14:02:11Z</time>
      </trkpt>
      <trkpt lat="49.90314" lon="2.48387">
        <ele>29.8</ele>
        <time>2022-10-19T14:02:12Z</time>
      </trkpt>
      <trkpt lat="49.90314" lon="2.48388">
        <ele>29.8</ele>
        <time>2022-10-19T14:02:13Z</time>
      </trkpt>
      <trkpt lat="49.90313" lon="2.48389">
        <ele>29.8</ele>
        <time>2022-10-19T14:02:14Z</time>
      </trkpt>
      <trkpt lat="49.90312" lon="2.4839">
        <ele>29.9</ele>
        <time>2022-10-19T14:02:15Z</time>
      </trkpt>
      <trkpt lat="49.9031" lon="2.48393">
        <ele>29.9</ele>
        <time>2022-10-19T14:02:16Z</time>
      </trkpt>
      <trkpt lat="49.9031" lon="2.48394">
        <ele>29.9</ele>
        <time>2022-10-19T14:02:18Z</time>
      </trkpt>
      <trkpt lat="49.90309" lon="2.48395">
        <ele>29.9</ele>
        <time>2022-10-19T14:02:19Z</time>
      </trkpt>
      <trkpt lat="49.90307" lon="2.48396">
        <ele>29.9</ele>
        <time>2022-10-19T14:02:21Z</time>
      </trkpt>
      <trkpt lat="49.90306" lon="2.48397">
        <ele>29.9</ele>
        <time>2022-10-19T14:02:22Z</time>
      </trkpt>
      <trkpt lat="49.90304" lon="2.48399">
        <ele>30</ele>
        <time>2022-10-19T14:02:23Z</time>
      </trkpt>
      <trkpt lat="49.90304" lon="2.484">
        <ele>30</ele>
        <time>2022-10-19T14:02:24Z</time>
      </trkpt>
      <trkpt lat="49.90303" lon="2.484">
        <ele>30</ele>
        <time>2022-10-19T14:02:25Z</time>
      </trkpt>
      <trkpt lat="49.90302" lon="2.48401">
        <ele>30</ele>
        <time>2022-10-19T14:02:26Z</time>
      </trkpt>
      <trkpt lat="49.90301" lon="2.48402">
        <ele>30</ele>
        <time>2022-10-19T14:02:27Z</time>
      </trkpt>
      <trkpt lat="49.903" lon="2.48402">
        <ele>30</ele>
        <time>2022-10-19T14:02:28Z</time>
      </trkpt>
      <trkpt lat="49.903" lon="2.48403">
        <ele>30</ele>
        <time>2022-10-19T14:02:29Z</time>
      </trkpt>
      <trkpt lat="49.90299" lon="2.48403">
        <ele>30</ele>
        <time>2022-10-19T14:02:30Z</time>
      </trkpt>
      <trkpt lat="49.90298" lon="2.48403">
        <ele>30</ele>
        <time>2022-10-19T14:02:31Z</time>
      </trkpt>
      <trkpt lat="49.90296" lon="2.48405">
        <ele>30</ele>
        <time>2022-10-19T14:02:32Z</time>
      </trkpt>
      <trkpt lat="49.90295" lon="2.48406">
        <ele>30</ele>
        <time>2022-10-19T14:02:34Z</time>
      </trkpt>
      <trkpt lat="49.90295" lon="2.48407">
        <ele>30</ele>
        <time>2022-10-19T14:02:35Z</time>
      </trkpt>
      <trkpt lat="49.90293" lon="2.48409">
        <ele>30.1</ele>
        <time>2022-10-19T14:02:36Z</time>
      </trkpt>
      <trkpt lat="49.90293" lon="2.4841">
        <ele>30.1</ele>
        <time>2022-10-19T14:02:37Z</time>
      </trkpt>
      <trkpt lat="49.90292" lon="2.48411">
        <ele>30.1</ele>
        <time>2022-10-19T14:02:38Z</time>
      </trkpt>
      <trkpt lat="49.90291" lon="2.48412">
        <ele>30.1</ele>
        <time>2022-10-19T14:02:39Z</time>
      </trkpt>
      <trkpt lat="49.90291" lon="2.48414">
        <ele>30.1</ele>
        <time>2022-10-19T14:02:40Z</time>
      </trkpt>
      <trkpt lat="49.9029" lon="2.48415">
        <ele>30.1</ele>
        <time>2022-10-19T14:02:41Z</time>
      </trkpt>
      <trkpt lat="49.90288" lon="2.48417">
        <ele>30.1</ele>
        <time>2022-10-19T14:02:42Z</time>
      </trkpt>
      <trkpt lat="49.90287" lon="2.48418">
        <ele>30.2</ele>
        <time>2022-10-19T14:02:43Z</time>
      </trkpt>
      <trkpt lat="49.90287" lon="2.48419">
        <ele>30.2</ele>
        <time>2022-10-19T14:02:44Z</time>
      </trkpt>
      <trkpt lat="49.90286" lon="2.4842">
        <ele>30.2</ele>
        <time>2022-10-19T14:02:46Z</time>
      </trkpt>
      <trkpt lat="49.90284" lon="2.48422">
        <ele>30.2</ele>
        <time>2022-10-19T14:02:47Z</time>
      </trkpt>
      <trkpt lat="49.90283" lon="2.48423">
        <ele>30.2</ele>
        <time>2022-10-19T14:02:48Z</time>
      </trkpt>
      <trkpt lat="49.90282" lon="2.48424">
        <ele>30.2</ele>
        <time>2022-10-19T14:02:49Z</time>
      </trkpt>
      <trkpt lat="49.90281" lon="2.48425">
        <ele>30.2</ele>
        <time>2022-10-19T14:02:50Z</time>
      </trkpt>
      <trkpt lat="49.9028" lon="2.48426">
        <ele>30.3</ele>
        <time>2022-10-19T14:02:51Z</time>
      </trkpt>
      <trkpt lat="49.90279" lon="2.48428">
        <ele>30.3</ele>
        <time>2022-10-19T14:02:52Z</time>
      </trkpt>
      <trkpt lat="49.90279" lon="2.48428">
        <ele>30.3</ele>
        <time>2022-10-19T14:02:53Z</time>
      </trkpt>
      <trkpt lat="49.90278" lon="2.48429">
        <ele>30.3</ele>
        <time>2022-10-19T14:02:54Z</time>
      </trkpt>
      <trkpt lat="49.90277" lon="2.48431">
        <ele>30.3</ele>
        <time>2022-10-19T14:02:56Z</time>
      </trkpt>
      <trkpt lat="49.90276" lon="2.48432">
        <ele>30.3</ele>
        <time>2022-10-19T14:02:57Z</time>
      </trkpt>
      <trkpt lat="49.90274" lon="2.48433">
        <ele>30.3</ele>
        <time>2022-10-19T14:02:58Z</time>
      </trkpt>
      <trkpt lat="49.90273" lon="2.48434">
        <ele>30.3</ele>
        <time>2022-10-19T14:02:59Z</time>
      </trkpt>
      <trkpt lat="49.90272" lon="2.48435">
        <ele>30.4</ele>
        <time>2022-10-19T14:03:00Z</time>
      </trkpt>
      <trkpt lat="49.90272" lon="2.48437">
        <ele>30.4</ele>
        <time>2022-10-19T14:03:01Z</time>
      </trkpt>
      <trkpt lat="49.9027" lon="2.48438">
        <ele>30.4</ele>
        <time>2022-10-19T14:03:02Z</time>
      </trkpt>
      <trkpt lat="49.9027" lon="2.48439">
        <ele>30.4</ele>
        <time>2022-10-19T14:03:03Z</time>
      </trkpt>
      <trkpt lat="49.90269" lon="2.4844">
        <ele>30.4</ele>
        <time>2022-10-19T14:03:04Z</time>
      </trkpt>
      <trkpt lat="49.90268" lon="2.48441">
        <ele>30.4</ele>
        <time>2022-10-19T14:03:05Z</time>
      </trkpt>
      <trkpt lat="49.90267" lon="2.48442">
        <ele>30.4</ele>
        <time>2022-10-19T14:03:06Z</time>
      </trkpt>
      <trkpt lat="49.90266" lon="2.48444">
        <ele>30.4</ele>
        <time>2022-10-19T14:03:08Z</time>
      </trkpt>
      <trkpt lat="49.90265" lon="2.48445">
        <ele>30.4</ele>
        <time>2022-10-19T14:03:09Z</time>
      </trkpt>
      <trkpt lat="49.90264" lon="2.48446">
        <ele>30.4</ele>
        <time>2022-10-19T14:03:10Z</time>
      </trkpt>
      <trkpt lat="49.90263" lon="2.48448">
        <ele>30.4</ele>
        <time>2022-10-19T14:03:11Z</time>
      </trkpt>
      <trkpt lat="49.90262" lon="2.4845">
        <ele>30.4</ele>
        <time>2022-10-19T14:03:12Z</time>
      </trkpt>
      <trkpt lat="49.90261" lon="2.48451">
        <ele>30.4</ele>
        <time>2022-10-19T14:03:14Z</time>
      </trkpt>
      <trkpt lat="49.90261" lon="2.48452">
        <ele>30.4</ele>
        <time>2022-10-19T14:03:15Z</time>
      </trkpt>
      <trkpt lat="49.9026" lon="2.48453">
        <ele>30.4</ele>
        <time>2022-10-19T14:03:16Z</time>
      </trkpt>
      <trkpt lat="49.90259" lon="2.48456">
        <ele>30.4</ele>
        <time>2022-10-19T14:03:18Z</time>
      </trkpt>
      <trkpt lat="49.90258" lon="2.48457">
        <ele>30.4</ele>
        <time>2022-10-19T14:03:19Z</time>
      </trkpt>
      <trkpt lat="49.90257" lon="2.48458">
        <ele>30.4</ele>
        <time>2022-10-19T14:03:20Z</time>
      </trkpt>
      <trkpt lat="49.90256" lon="2.48459">
        <ele>30.4</ele>
        <time>2022-10-19T14:03:21Z</time>
      </trkpt>
      <trkpt lat="49.90255" lon="2.48461">
        <ele>30.4</ele>
        <time>2022-10-19T14:03:22Z</time>
      </trkpt>
      <trkpt lat="49.90254" lon="2.48462">
        <ele>30.4</ele>
        <time>2022-10-19T14:03:23Z</time>
      </trkpt>
      <trkpt lat="49.90252" lon="2.48463">
        <ele>30.5</ele>
        <time>2022-10-19T14:03:24Z</time>
      </trkpt>
      <trkpt lat="49.90251" lon="2.48464">
        <ele>30.5</ele>
        <time>2022-10-19T14:03:25Z</time>
      </trkpt>
      <trkpt lat="49.9025" lon="2.48465">
        <ele>30.5</ele>
        <time>2022-10-19T14:03:26Z</time>
      </trkpt>
      <trkpt lat="49.90248" lon="2.48467">
        <ele>30.5</ele>
        <time>2022-10-19T14:03:28Z</time>
      </trkpt>
      <trkpt lat="49.90248" lon="2.48467">
        <ele>30.5</ele>
        <time>2022-10-19T14:03:29Z</time>
      </trkpt>
      <trkpt lat="49.90247" lon="2.48468">
        <ele>30.5</ele>
        <time>2022-10-19T14:03:30Z</time>
      </trkpt>
      <trkpt lat="49.90245" lon="2.4847">
        <ele>30.5</ele>
        <time>2022-10-19T14:03:31Z</time>
      </trkpt>
      <trkpt lat="49.90245" lon="2.4847">
        <ele>30.5</ele>
        <time>2022-10-19T14:03:32Z</time>
      </trkpt>
      <trkpt lat="49.90244" lon="2.48471">
        <ele>30.5</ele>
        <time>2022-10-19T14:03:33Z</time>
      </trkpt>
      <trkpt lat="49.90243" lon="2.48472">
        <ele>30.5</ele>
        <time>2022-10-19T14:03:34Z</time>
      </trkpt>
      <trkpt lat="49.90242" lon="2.48473">
        <ele>30.5</ele>
        <time>2022-10-19T14:03:35Z</time>
      </trkpt>
      <trkpt lat="49.90241" lon="2.48475">
        <ele>30.5</ele>
        <time>2022-10-19T14:03:36Z</time>
      </trkpt>
      <trkpt lat="49.90239" lon="2.48477">
        <ele>30.5</ele>
        <time>2022-10-19T14:03:37Z</time>
      </trkpt>
      <trkpt lat="49.90239" lon="2.48478">
        <ele>30.5</ele>
        <time>2022-10-19T14:03:38Z</time>
      </trkpt>
      <trkpt lat="49.90238" lon="2.48478">
        <ele>30.5</ele>
        <time>2022-10-19T14:03:39Z</time>
      </trkpt>
      <trkpt lat="49.90236" lon="2.4848">
        <ele>30.5</ele>
        <time>2022-10-19T14:03:41Z</time>
      </trkpt>
      <trkpt lat="49.90236" lon="2.48481">
        <ele>30.5</ele>
        <time>2022-10-19T14:03:42Z</time>
      </trkpt>
      <trkpt lat="49.90235" lon="2.48482">
        <ele>30.5</ele>
        <time>2022-10-19T14:03:43Z</time>
      </trkpt>
      <trkpt lat="49.90234" lon="2.48483">
        <ele>30.4</ele>
        <time>2022-10-19T14:03:44Z</time>
      </trkpt>
      <trkpt lat="49.90233" lon="2.48484">
        <ele>30.4</ele>
        <time>2022-10-19T14:03:45Z</time>
      </trkpt>
      <trkpt lat="49.90232" lon="2.48485">
        <ele>30.4</ele>
        <time>2022-10-19T14:03:46Z</time>
      </trkpt>
      <trkpt lat="49.90231" lon="2.48486">
        <ele>30.4</ele>
        <time>2022-10-19T14:03:48Z</time>
      </trkpt>
      <trkpt lat="49.9023" lon="2.48487">
        <ele>30.4</ele>
        <time>2022-10-19T14:03:49Z</time>
      </trkpt>
      <trkpt lat="49.90229" lon="2.48488">
        <ele>30.4</ele>
        <time>2022-10-19T14:03:50Z</time>
      </trkpt>
      <trkpt lat="49.90229" lon="2.48489">
        <ele>30.4</ele>
        <time>2022-10-19T14:03:51Z</time>
      </trkpt>
      <trkpt lat="49.90228" lon="2.4849">
        <ele>30.4</ele>
        <time>2022-10-19T14:03:52Z</time>
      </trkpt>
      <trkpt lat="49.90227" lon="2.4849">
        <ele>30.4</ele>
        <time>2022-10-19T14:03:53Z</time>
      </trkpt>
      <trkpt lat="49.90227" lon="2.4849">
        <ele>30.4</ele>
        <time>2022-10-19T14:03:54Z</time>
      </trkpt>
      <trkpt lat="49.90226" lon="2.48491">
        <ele>30.3</ele>
        <time>2022-10-19T14:03:55Z</time>
      </trkpt>
      <trkpt lat="49.90226" lon="2.48491">
        <ele>30.3</ele>
        <time>2022-10-19T14:03:56Z</time>
      </trkpt>
      <trkpt lat="49.90225" lon="2.48493">
        <ele>30.3</ele>
        <time>2022-10-19T14:03:58Z</time>
      </trkpt>
      <trkpt lat="49.90224" lon="2.48494">
        <ele>30.3</ele>
        <time>2022-10-19T14:03:59Z</time>
      </trkpt>
      <trkpt lat="49.90224" lon="2.48495">
        <ele>30.3</ele>
        <time>2022-10-19T14:04:00Z</time>
      </trkpt>
      <trkpt lat="49.90223" lon="2.48496">
        <ele>30.3</ele>
        <time>2022-10-19T14:04:01Z</time>
      </trkpt>
      <trkpt lat="49.90222" lon="2.48497">
        <ele>30.3</ele>
        <time>2022-10-19T14:04:02Z</time>
      </trkpt>
      <trkpt lat="49.90221" lon="2.48499">
        <ele>30.3</ele>
        <time>2022-10-19T14:04:03Z</time>
      </trkpt>
      <trkpt lat="49.90219" lon="2.485">
        <ele>30.2</ele>
        <time>2022-10-19T14:04:04Z</time>
      </trkpt>
      <trkpt lat="49.90218" lon="2.48501">
        <ele>30.2</ele>
        <time>2022-10-19T14:04:05Z</time>
      </trkpt>
      <trkpt lat="49.90218" lon="2.48501">
        <ele>30.2</ele>
        <time>2022-10-19T14:04:06Z</time>
      </trkpt>
      <trkpt lat="49.90215" lon="2.48503">
        <ele>30.2</ele>
        <time>2022-10-19T14:04:07Z</time>
      </trkpt>
      <trkpt lat="49.90214" lon="2.48504">
        <ele>30.2</ele>
        <time>2022-10-19T14:04:09Z</time>
      </trkpt>
      <trkpt lat="49.90213" lon="2.48505">
        <ele>30.2</ele>
        <time>2022-10-19T14:04:10Z</time>
      </trkpt>
      <trkpt lat="49.90213" lon="2.48506">
        <ele>30.2</ele>
        <time>2022-10-19T14:04:11Z</time>
      </trkpt>
      <trkpt lat="49.90212" lon="2.48506">
        <ele>30.2</ele>
        <time>2022-10-19T14:04:12Z</time>
      </trkpt>
      <trkpt lat="49.9021" lon="2.48509">
        <ele>30.1</ele>
        <time>2022-10-19T14:04:13Z</time>
      </trkpt>
      <trkpt lat="49.90209" lon="2.4851">
        <ele>30.1</ele>
        <time>2022-10-19T14:04:15Z</time>
      </trkpt>
      <trkpt lat="49.90208" lon="2.4851">
        <ele>30.1</ele>
        <time>2022-10-19T14:04:16Z</time>
      </trkpt>
      <trkpt lat="49.90207" lon="2.48511">
        <ele>30.1</ele>
        <time>2022-10-19T14:04:17Z</time>
      </trkpt>
      <trkpt lat="49.90206" lon="2.48512">
        <ele>30.1</ele>
        <time>2022-10-19T14:04:18Z</time>
      </trkpt>
      <trkpt lat="49.90205" lon="2.48513">
        <ele>30.2</ele>
        <time>2022-10-19T14:04:19Z</time>
      </trkpt>
      <trkpt lat="49.90204" lon="2.48514">
        <ele>30.2</ele>
        <time>2022-10-19T14:04:21Z</time>
      </trkpt>
      <trkpt lat="49.90202" lon="2.48515">
        <ele>30.2</ele>
        <time>2022-10-19T14:04:22Z</time>
      </trkpt>
      <trkpt lat="49.90201" lon="2.48517">
        <ele>30.2</ele>
        <time>2022-10-19T14:04:23Z</time>
      </trkpt>
      <trkpt lat="49.90201" lon="2.48518">
        <ele>30.2</ele>
        <time>2022-10-19T14:04:24Z</time>
      </trkpt>
      <trkpt lat="49.902" lon="2.48519">
        <ele>30.2</ele>
        <time>2022-10-19T14:04:25Z</time>
      </trkpt>
      <trkpt lat="49.90199" lon="2.4852">
        <ele>30.2</ele>
        <time>2022-10-19T14:04:26Z</time>
      </trkpt>
      <trkpt lat="49.90197" lon="2.48522">
        <ele>30.2</ele>
        <time>2022-10-19T14:04:27Z</time>
      </trkpt>
      <trkpt lat="49.90196" lon="2.48523">
        <ele>30.2</ele>
        <time>2022-10-19T14:04:28Z</time>
      </trkpt>
      <trkpt lat="49.90195" lon="2.48525">
        <ele>30.2</ele>
        <time>2022-10-19T14:04:29Z</time>
      </trkpt>
      <trkpt lat="49.90194" lon="2.48526">
        <ele>30.2</ele>
        <time>2022-10-19T14:04:30Z</time>
      </trkpt>
      <trkpt lat="49.90194" lon="2.48528">
        <ele>30.2</ele>
        <time>2022-10-19T14:04:32Z</time>
      </trkpt>
      <trkpt lat="49.90192" lon="2.4853">
        <ele>30.2</ele>
        <time>2022-10-19T14:04:33Z</time>
      </trkpt>
      <trkpt lat="49.90192" lon="2.4853">
        <ele>30.2</ele>
        <time>2022-10-19T14:04:34Z</time>
      </trkpt>
      <trkpt lat="49.90191" lon="2.48531">
        <ele>30.2</ele>
        <time>2022-10-19T14:04:35Z</time>
      </trkpt>
      <trkpt lat="49.9019" lon="2.48533">
        <ele>30.2</ele>
        <time>2022-10-19T14:04:36Z</time>
      </trkpt>
      <trkpt lat="49.90188" lon="2.48536">
        <ele>30.2</ele>
        <time>2022-10-19T14:04:38Z</time>
      </trkpt>
      <trkpt lat="49.90187" lon="2.48537">
        <ele>30.2</ele>
        <time>2022-10-19T14:04:39Z</time>
      </trkpt>
      <trkpt lat="49.90186" lon="2.48538">
        <ele>30.2</ele>
        <time>2022-10-19T14:04:40Z</time>
      </trkpt>
      <trkpt lat="49.90185" lon="2.48539">
        <ele>30.1</ele>
        <time>2022-10-19T14:04:41Z</time>
      </trkpt>
      <trkpt lat="49.90184" lon="2.48541">
        <ele>30.1</ele>
        <time>2022-10-19T14:04:43Z</time>
      </trkpt>
      <trkpt lat="49.90182" lon="2.48542">
        <ele>30.1</ele>
        <time>2022-10-19T14:04:44Z</time>
      </trkpt>
      <trkpt lat="49.90182" lon="2.48543">
        <ele>30.1</ele>
        <time>2022-10-19T14:04:45Z</time>
      </trkpt>
      <trkpt lat="49.90181" lon="2.48543">
        <ele>30.1</ele>
        <time>2022-10-19T14:04:46Z</time>
      </trkpt>
      <trkpt lat="49.90181" lon="2.48544">
        <ele>30.1</ele>
        <time>2022-10-19T14:04:47Z</time>
      </trkpt>
      <trkpt lat="49.90179" lon="2.48546">
        <ele>30.1</ele>
        <time>2022-10-19T14:04:48Z</time>
      </trkpt>
      <trkpt lat="49.90178" lon="2.48546">
        <ele>30.1</ele>
        <time>2022-10-19T14:04:49Z</time>
      </trkpt>
      <trkpt lat="49.90177" lon="2.48547">
        <ele>30.1</ele>
        <time>2022-10-19T14:04:50Z</time>
      </trkpt>
      <trkpt lat="49.90175" lon="2.48548">
        <ele>30.1</ele>
        <time>2022-10-19T14:04:52Z</time>
      </trkpt>
      <trkpt lat="49.90175" lon="2.48549">
        <ele>30.1</ele>
        <time>2022-10-19T14:04:53Z</time>
      </trkpt>
      <trkpt lat="49.90174" lon="2.48549">
        <ele>30.1</ele>
        <time>2022-10-19T14:04:54Z</time>
      </trkpt>
      <trkpt lat="49.90173" lon="2.4855">
        <ele>30.1</ele>
        <time>2022-10-19T14:04:55Z</time>
      </trkpt>
      <trkpt lat="49.90172" lon="2.48551">
        <ele>30.1</ele>
        <time>2022-10-19T14:04:56Z</time>
      </trkpt>
      <trkpt lat="49.90171" lon="2.48552">
        <ele>30.1</ele>
        <time>2022-10-19T14:04:57Z</time>
      </trkpt>
      <trkpt lat="49.90169" lon="2.48553">
        <ele>30.1</ele>
        <time>2022-10-19T14:04:58Z</time>
      </trkpt>
      <trkpt lat="49.90168" lon="2.48554">
        <ele>30.1</ele>
        <time>2022-10-19T14:04:59Z</time>
      </trkpt>
      <trkpt lat="49.90168" lon="2.48554">
        <ele>30.2</ele>
        <time>2022-10-19T14:05:00Z</time>
      </trkpt>
      <trkpt lat="49.90166" lon="2.48556">
        <ele>30.2</ele>
        <time>2022-10-19T14:05:02Z</time>
      </trkpt>
      <trkpt lat="49.90165" lon="2.48557">
        <ele>30.2</ele>
        <time>2022-10-19T14:05:03Z</time>
      </trkpt>
      <trkpt lat="49.90165" lon="2.48558">
        <ele>30.2</ele>
        <time>2022-10-19T14:05:04Z</time>
      </trkpt>
      <trkpt lat="49.90163" lon="2.4856">
        <ele>30.2</ele>
        <time>2022-10-19T14:05:05Z</time>
      </trkpt>
      <trkpt lat="49.90162" lon="2.48561">
        <ele>30.2</ele>
        <time>2022-10-19T14:05:06Z</time>
      </trkpt>
      <trkpt lat="49.90162" lon="2.48561">
        <ele>30.2</ele>
        <time>2022-10-19T14:05:07Z</time>
      </trkpt>
      <trkpt lat="49.90161" lon="2.48562">
        <ele>30.2</ele>
        <time>2022-10-19T14:05:08Z</time>
      </trkpt>
      <trkpt lat="49.9016" lon="2.48563">
        <ele>30.3</ele>
        <time>2022-10-19T14:05:09Z</time>
      </trkpt>
      <trkpt lat="49.9016" lon="2.48564">
        <ele>30.3</ele>
        <time>2022-10-19T14:05:10Z</time>
      </trkpt>
      <trkpt lat="49.90159" lon="2.48565">
        <ele>30.3</ele>
        <time>2022-10-19T14:05:11Z</time>
      </trkpt>
      <trkpt lat="49.90158" lon="2.48566">
        <ele>30.3</ele>
        <time>2022-10-19T14:05:13Z</time>
      </trkpt>
      <trkpt lat="49.90157" lon="2.48567">
        <ele>30.3</ele>
        <time>2022-10-19T14:05:14Z</time>
      </trkpt>
      <trkpt lat="49.90156" lon="2.48568">
        <ele>30.3</ele>
        <time>2022-10-19T14:05:15Z</time>
      </trkpt>
      <trkpt lat="49.90155" lon="2.48569">
        <ele>30.3</ele>
        <time>2022-10-19T14:05:16Z</time>
      </trkpt>
      <trkpt lat="49.90155" lon="2.4857">
        <ele>30.3</ele>
        <time>2022-10-19T14:05:17Z</time>
      </trkpt>
      <trkpt lat="49.90154" lon="2.48571">
        <ele>30.3</ele>
        <time>2022-10-19T14:05:18Z</time>
      </trkpt>
      <trkpt lat="49.90153" lon="2.48572">
        <ele>30.3</ele>
        <time>2022-10-19T14:05:19Z</time>
      </trkpt>
      <trkpt lat="49.90152" lon="2.48574">
        <ele>30.3</ele>
        <time>2022-10-19T14:05:21Z</time>
      </trkpt>
      <trkpt lat="49.90151" lon="2.48575">
        <ele>30.3</ele>
        <time>2022-10-19T14:05:22Z</time>
      </trkpt>
      <trkpt lat="49.90151" lon="2.48577">
        <ele>30.3</ele>
        <time>2022-10-19T14:05:23Z</time>
      </trkpt>
      <trkpt lat="49.9015" lon="2.48578">
        <ele>30.4</ele>
        <time>2022-10-19T14:05:24Z</time>
      </trkpt>
      <trkpt lat="49.9015" lon="2.48579">
        <ele>30.4</ele>
        <time>2022-10-19T14:05:25Z</time>
      </trkpt>
      <trkpt lat="49.90149" lon="2.4858">
        <ele>30.4</ele>
        <time>2022-10-19T14:05:26Z</time>
      </trkpt>
      <trkpt lat="49.90149" lon="2.48581">
        <ele>30.4</ele>
        <time>2022-10-19T14:05:27Z</time>
      </trkpt>
      <trkpt lat="49.90149" lon="2.48581">
        <ele>30.4</ele>
        <time>2022-10-19T14:05:28Z</time>
      </trkpt>
      <trkpt lat="49.90149" lon="2.48581">
        <ele>30.4</ele>
        <time>2022-10-19T14:05:29Z</time>
      </trkpt>
      <trkpt lat="49.90149" lon="2.48581">
        <ele>30.4</ele>
        <time>2022-10-19T14:05:30Z</time>
      </trkpt>
      <trkpt lat="49.90149" lon="2.48581">
        <ele>30.4</ele>
        <time>2022-10-19T14:05:31Z</time>
      </trkpt>
      <trkpt lat="49.90149" lon="2.48581">
        <ele>30.4</ele>
        <time>2022-10-19T14:05:32Z</time>
      </trkpt>
      <trkpt lat="49.90149" lon="2.48581">
        <ele>30.4</ele>
        <time>2022-10-19T14:05:33Z</time>
      </trkpt>
      <trkpt lat="49.90149" lon="2.48581">
        <ele>30.4</ele>
        <time>2022-10-19T14:05:34Z</time>
      </trkpt>
      <trkpt lat="49.90149" lon="2.4858">
        <ele>30.4</ele>
        <time>2022-10-19T14:05:35Z</time>
      </trkpt>
      <trkpt lat="49.90149" lon="2.4858">
        <ele>30.4</ele>
        <time>2022-10-19T14:05:36Z</time>
      </trkpt>
      <trkpt lat="49.90149" lon="2.4858">
        <ele>30.4</ele>
        <time>2022-10-19T14:05:37Z</time>
      </trkpt>
      <trkpt lat="49.90149" lon="2.48581">
        <ele>30.4</ele>
        <time>2022-10-19T14:05:38Z</time>
      </trkpt>
      <trkpt lat="49.90149" lon="2.4858">
        <ele>30.4</ele>
        <time>2022-10-19T14:05:39Z</time>
      </trkpt>
      <trkpt lat="49.90149" lon="2.4858">
        <ele>30.4</ele>
        <time>2022-10-19T14:05:40Z</time>
      </trkpt>
      <trkpt lat="49.90149" lon="2.4858">
        <ele>30.4</ele>
        <time>2022-10-19T14:05:41Z</time>
      </trkpt>
      <trkpt lat="49.90149" lon="2.4858">
        <ele>30.4</ele>
        <time>2022-10-19T14:05:42Z</time>
      </trkpt>
      <trkpt lat="49.90149" lon="2.4858">
        <ele>30.4</ele>
        <time>2022-10-19T14:05:44Z</time>
      </trkpt>
      <trkpt lat="49.90148" lon="2.4858">
        <ele>30.4</ele>
        <time>2022-10-19T14:05:45Z</time>
      </trkpt>
      <trkpt lat="49.90148" lon="2.4858">
        <ele>30.4</ele>
        <time>2022-10-19T14:05:46Z</time>
      </trkpt>
      <trkpt lat="49.90146" lon="2.4858">
        <ele>30.4</ele>
        <time>2022-10-19T14:05:47Z</time>
      </trkpt>
      <trkpt lat="49.90146" lon="2.48581">
        <ele>30.4</ele>
        <time>2022-10-19T14:05:49Z</time>
      </trkpt>
      <trkpt lat="49.90145" lon="2.48581">
        <ele>30.4</ele>
        <time>2022-10-19T14:05:50Z</time>
      </trkpt>
      <trkpt lat="49.90144" lon="2.48582">
        <ele>30.4</ele>
        <time>2022-10-19T14:05:51Z</time>
      </trkpt>
      <trkpt lat="49.90142" lon="2.48583">
        <ele>30.4</ele>
        <time>2022-10-19T14:05:52Z</time>
      </trkpt>
      <trkpt lat="49.90142" lon="2.48584">
        <ele>30.4</ele>
        <time>2022-10-19T14:05:54Z</time>
      </trkpt>
      <trkpt lat="49.90141" lon="2.48585">
        <ele>30.4</ele>
        <time>2022-10-19T14:05:55Z</time>
      </trkpt>
      <trkpt lat="49.9014" lon="2.48587">
        <ele>30.4</ele>
        <time>2022-10-19T14:05:56Z</time>
      </trkpt>
      <trkpt lat="49.90139" lon="2.48588">
        <ele>30.4</ele>
        <time>2022-10-19T14:05:58Z</time>
      </trkpt>
      <trkpt lat="49.90139" lon="2.48589">
        <ele>30.4</ele>
        <time>2022-10-19T14:05:59Z</time>
      </trkpt>
      <trkpt lat="49.90138" lon="2.48591">
        <ele>30.4</ele>
        <time>2022-10-19T14:06:00Z</time>
      </trkpt>
      <trkpt lat="49.90137" lon="2.48592">
        <ele>30.4</ele>
        <time>2022-10-19T14:06:01Z</time>
      </trkpt>
      <trkpt lat="49.90136" lon="2.48594">
        <ele>30.4</ele>
        <time>2022-10-19T14:06:02Z</time>
      </trkpt>
      <trkpt lat="49.90135" lon="2.48595">
        <ele>30.4</ele>
        <time>2022-10-19T14:06:03Z</time>
      </trkpt>
      <trkpt lat="49.90135" lon="2.48596">
        <ele>30.4</ele>
        <time>2022-10-19T14:06:04Z</time>
      </trkpt>
      <trkpt lat="49.90133" lon="2.48598">
        <ele>30.4</ele>
        <time>2022-10-19T14:06:05Z</time>
      </trkpt>
      <trkpt lat="49.90133" lon="2.48599">
        <ele>30.4</ele>
        <time>2022-10-19T14:06:07Z</time>
      </trkpt>
      <trkpt lat="49.90132" lon="2.486">
        <ele>30.4</ele>
        <time>2022-10-19T14:06:08Z</time>
      </trkpt>
      <trkpt lat="49.90131" lon="2.48601">
        <ele>30.4</ele>
        <time>2022-10-19T14:06:09Z</time>
      </trkpt>
      <trkpt lat="49.90131" lon="2.48601">
        <ele>30.4</ele>
        <time>2022-10-19T14:06:10Z</time>
      </trkpt>
      <trkpt lat="49.9013" lon="2.48602">
        <ele>30.4</ele>
        <time>2022-10-19T14:06:11Z</time>
      </trkpt>
      <trkpt lat="49.90129" lon="2.48603">
        <ele>30.2</ele>
        <time>2022-10-19T14:06:13Z</time>
      </trkpt>
      <trkpt lat="49.90128" lon="2.48604">
        <ele>30.5</ele>
        <time>2022-10-19T14:06:14Z</time>
      </trkpt>
      <trkpt lat="49.90127" lon="2.48605">
        <ele>30.5</ele>
        <time>2022-10-19T14:06:15Z</time>
      </trkpt>
      <trkpt lat="49.90126" lon="2.48605">
        <ele>30.5</ele>
        <time>2022-10-19T14:06:16Z</time>
      </trkpt>
      <trkpt lat="49.90125" lon="2.48606">
        <ele>30.6</ele>
        <time>2022-10-19T14:06:18Z</time>
      </trkpt>
      <trkpt lat="49.90123" lon="2.48607">
        <ele>30.6</ele>
        <time>2022-10-19T14:06:19Z</time>
      </trkpt>
      <trkpt lat="49.90123" lon="2.48607">
        <ele>30.6</ele>
        <time>2022-10-19T14:06:20Z</time>
      </trkpt>
      <trkpt lat="49.90122" lon="2.48607">
        <ele>30.6</ele>
        <time>2022-10-19T14:06:21Z</time>
      </trkpt>
      <trkpt lat="49.90121" lon="2.48607">
        <ele>30.6</ele>
        <time>2022-10-19T14:06:22Z</time>
      </trkpt>
      <trkpt lat="49.90121" lon="2.48606">
        <ele>30.7</ele>
        <time>2022-10-19T14:06:23Z</time>
      </trkpt>
      <trkpt lat="49.9012" lon="2.48606">
        <ele>30.7</ele>
        <time>2022-10-19T14:06:25Z</time>
      </trkpt>
      <trkpt lat="49.90119" lon="2.48607">
        <ele>30.7</ele>
        <time>2022-10-19T14:06:26Z</time>
      </trkpt>
      <trkpt lat="49.90118" lon="2.48606">
        <ele>30.7</ele>
        <time>2022-10-19T14:06:27Z</time>
      </trkpt>
      <trkpt lat="49.90118" lon="2.48605">
        <ele>30.7</ele>
        <time>2022-10-19T14:06:29Z</time>
      </trkpt>
      <trkpt lat="49.90118" lon="2.48604">
        <ele>30.7</ele>
        <time>2022-10-19T14:06:30Z</time>
      </trkpt>
      <trkpt lat="49.90116" lon="2.48602">
        <ele>30.8</ele>
        <time>2022-10-19T14:06:31Z</time>
      </trkpt>
      <trkpt lat="49.90116" lon="2.48601">
        <ele>30.8</ele>
        <time>2022-10-19T14:06:32Z</time>
      </trkpt>
      <trkpt lat="49.90115" lon="2.48599">
        <ele>30.8</ele>
        <time>2022-10-19T14:06:33Z</time>
      </trkpt>
      <trkpt lat="49.90114" lon="2.48596">
        <ele>30.9</ele>
        <time>2022-10-19T14:06:35Z</time>
      </trkpt>
      <trkpt lat="49.90114" lon="2.48595">
        <ele>30.9</ele>
        <time>2022-10-19T14:06:36Z</time>
      </trkpt>
      <trkpt lat="49.90113" lon="2.48594">
        <ele>30.9</ele>
        <time>2022-10-19T14:06:37Z</time>
      </trkpt>
      <trkpt lat="49.90113" lon="2.48592">
        <ele>31</ele>
        <time>2022-10-19T14:06:38Z</time>
      </trkpt>
      <trkpt lat="49.90112" lon="2.4859">
        <ele>31</ele>
        <time>2022-10-19T14:06:39Z</time>
      </trkpt>
      <trkpt lat="49.90111" lon="2.48589">
        <ele>31</ele>
        <time>2022-10-19T14:06:40Z</time>
      </trkpt>
      <trkpt lat="49.90111" lon="2.48588">
        <ele>31.1</ele>
        <time>2022-10-19T14:06:41Z</time>
      </trkpt>
      <trkpt lat="49.9011" lon="2.48587">
        <ele>31.1</ele>
        <time>2022-10-19T14:06:42Z</time>
      </trkpt>
      <trkpt lat="49.90109" lon="2.48585">
        <ele>31.1</ele>
        <time>2022-10-19T14:06:43Z</time>
      </trkpt>
      <trkpt lat="49.90108" lon="2.48584">
        <ele>31.2</ele>
        <time>2022-10-19T14:06:44Z</time>
      </trkpt>
      <trkpt lat="49.90107" lon="2.48582">
        <ele>31.2</ele>
        <time>2022-10-19T14:06:46Z</time>
      </trkpt>
      <trkpt lat="49.90106" lon="2.48581">
        <ele>31.2</ele>
        <time>2022-10-19T14:06:47Z</time>
      </trkpt>
      <trkpt lat="49.90106" lon="2.4858">
        <ele>31.3</ele>
        <time>2022-10-19T14:06:48Z</time>
      </trkpt>
      <trkpt lat="49.90105" lon="2.48578">
        <ele>31.3</ele>
        <time>2022-10-19T14:06:49Z</time>
      </trkpt>
      <trkpt lat="49.90105" lon="2.48578">
        <ele>31.3</ele>
        <time>2022-10-19T14:06:50Z</time>
      </trkpt>
      <trkpt lat="49.90104" lon="2.48577">
        <ele>31.4</ele>
        <time>2022-10-19T14:06:51Z</time>
      </trkpt>
      <trkpt lat="49.90103" lon="2.48576">
        <ele>31.4</ele>
        <time>2022-10-19T14:06:52Z</time>
      </trkpt>
      <trkpt lat="49.90102" lon="2.48574">
        <ele>31.4</ele>
        <time>2022-10-19T14:06:53Z</time>
      </trkpt>
      <trkpt lat="49.90101" lon="2.48572">
        <ele>31.5</ele>
        <time>2022-10-19T14:06:54Z</time>
      </trkpt>
      <trkpt lat="49.901" lon="2.48571">
        <ele>31.6</ele>
        <time>2022-10-19T14:06:56Z</time>
      </trkpt>
      <trkpt lat="49.90099" lon="2.4857">
        <ele>31.6</ele>
        <time>2022-10-19T14:06:57Z</time>
      </trkpt>
      <trkpt lat="49.90098" lon="2.48569">
        <ele>31.6</ele>
        <time>2022-10-19T14:06:58Z</time>
      </trkpt>
      <trkpt lat="49.90098" lon="2.48567">
        <ele>31.7</ele>
        <time>2022-10-19T14:06:59Z</time>
      </trkpt>
      <trkpt lat="49.90097" lon="2.48566">
        <ele>31.7</ele>
        <time>2022-10-19T14:07:00Z</time>
      </trkpt>
      <trkpt lat="49.90096" lon="2.48564">
        <ele>31.8</ele>
        <time>2022-10-19T14:07:02Z</time>
      </trkpt>
      <trkpt lat="49.90095" lon="2.48563">
        <ele>31.8</ele>
        <time>2022-10-19T14:07:03Z</time>
      </trkpt>
      <trkpt lat="49.90094" lon="2.48562">
        <ele>31.9</ele>
        <time>2022-10-19T14:07:04Z</time>
      </trkpt>
      <trkpt lat="49.90093" lon="2.48561">
        <ele>31.9</ele>
        <time>2022-10-19T14:07:05Z</time>
      </trkpt>
      <trkpt lat="49.90093" lon="2.48559">
        <ele>32</ele>
        <time>2022-10-19T14:07:06Z</time>
      </trkpt>
      <trkpt lat="49.90092" lon="2.48558">
        <ele>32</ele>
        <time>2022-10-19T14:07:07Z</time>
      </trkpt>
      <trkpt lat="49.90091" lon="2.48557">
        <ele>32.1</ele>
        <time>2022-10-19T14:07:09Z</time>
      </trkpt>
      <trkpt lat="49.9009" lon="2.48556">
        <ele>32.1</ele>
        <time>2022-10-19T14:07:10Z</time>
      </trkpt>
      <trkpt lat="49.90089" lon="2.48555">
        <ele>32.2</ele>
        <time>2022-10-19T14:07:11Z</time>
      </trkpt>
      <trkpt lat="49.90088" lon="2.48554">
        <ele>32.2</ele>
        <time>2022-10-19T14:07:12Z</time>
      </trkpt>
      <trkpt lat="49.90087" lon="2.48553">
        <ele>32.2</ele>
        <time>2022-10-19T14:07:13Z</time>
      </trkpt>
      <trkpt lat="49.90085" lon="2.48551">
        <ele>32.3</ele>
        <time>2022-10-19T14:07:14Z</time>
      </trkpt>
      <trkpt lat="49.90085" lon="2.4855">
        <ele>32.4</ele>
        <time>2022-10-19T14:07:16Z</time>
      </trkpt>
      <trkpt lat="49.90084" lon="2.48549">
        <ele>32.4</ele>
        <time>2022-10-19T14:07:17Z</time>
      </trkpt>
      <trkpt lat="49.90083" lon="2.48548">
        <ele>32.4</ele>
        <time>2022-10-19T14:07:18Z</time>
      </trkpt>
      <trkpt lat="49.90083" lon="2.48547">
        <ele>32.5</ele>
        <time>2022-10-19T14:07:19Z</time>
      </trkpt>
      <trkpt lat="49.90082" lon="2.48545">
        <ele>32.6</ele>
        <time>2022-10-19T14:07:20Z</time>
      </trkpt>
      <trkpt lat="49.90081" lon="2.48544">
        <ele>32.6</ele>
        <time>2022-10-19T14:07:21Z</time>
      </trkpt>
      <trkpt lat="49.90081" lon="2.48542">
        <ele>32.6</ele>
        <time>2022-10-19T14:07:22Z</time>
      </trkpt>
      <trkpt lat="49.9008" lon="2.48541">
        <ele>32.7</ele>
        <time>2022-10-19T14:07:23Z</time>
      </trkpt>
      <trkpt lat="49.90079" lon="2.48539">
        <ele>32.7</ele>
        <time>2022-10-19T14:07:25Z</time>
      </trkpt>
      <trkpt lat="49.90078" lon="2.48536">
        <ele>32.8</ele>
        <time>2022-10-19T14:07:26Z</time>
      </trkpt>
      <trkpt lat="49.90077" lon="2.48535">
        <ele>32.9</ele>
        <time>2022-10-19T14:07:27Z</time>
      </trkpt>
      <trkpt lat="49.90077" lon="2.48534">
        <ele>32.9</ele>
        <time>2022-10-19T14:07:28Z</time>
      </trkpt>
      <trkpt lat="49.90076" lon="2.48531">
        <ele>33</ele>
        <time>2022-10-19T14:07:29Z</time>
      </trkpt>
      <trkpt lat="49.90075" lon="2.4853">
        <ele>33</ele>
        <time>2022-10-19T14:07:30Z</time>
      </trkpt>
      <trkpt lat="49.90075" lon="2.48529">
        <ele>33.1</ele>
        <time>2022-10-19T14:07:32Z</time>
      </trkpt>
      <trkpt lat="49.90074" lon="2.48527">
        <ele>33.1</ele>
        <time>2022-10-19T14:07:33Z</time>
      </trkpt>
      <trkpt lat="49.90074" lon="2.48526">
        <ele>33.1</ele>
        <time>2022-10-19T14:07:34Z</time>
      </trkpt>
      <trkpt lat="49.90073" lon="2.48525">
        <ele>33.2</ele>
        <time>2022-10-19T14:07:35Z</time>
      </trkpt>
      <trkpt lat="49.90073" lon="2.48524">
        <ele>33.2</ele>
        <time>2022-10-19T14:07:36Z</time>
      </trkpt>
      <trkpt lat="49.90073" lon="2.48523">
        <ele>33.2</ele>
        <time>2022-10-19T14:07:37Z</time>
      </trkpt>
      <trkpt lat="49.90073" lon="2.48521">
        <ele>33.2</ele>
        <time>2022-10-19T14:07:39Z</time>
      </trkpt>
      <trkpt lat="49.90073" lon="2.4852">
        <ele>33.3</ele>
        <time>2022-10-19T14:07:40Z</time>
      </trkpt>
      <trkpt lat="49.90073" lon="2.48518">
        <ele>33.3</ele>
        <time>2022-10-19T14:07:41Z</time>
      </trkpt>
      <trkpt lat="49.90073" lon="2.48517">
        <ele>33.3</ele>
        <time>2022-10-19T14:07:42Z</time>
      </trkpt>
      <trkpt lat="49.90073" lon="2.48516">
        <ele>33.4</ele>
        <time>2022-10-19T14:07:43Z</time>
      </trkpt>
      <trkpt lat="49.90073" lon="2.48514">
        <ele>33.4</ele>
        <time>2022-10-19T14:07:45Z</time>
      </trkpt>
      <trkpt lat="49.90072" lon="2.48511">
        <ele>33.4</ele>
        <time>2022-10-19T14:07:46Z</time>
      </trkpt>
      <trkpt lat="49.90072" lon="2.4851">
        <ele>33.5</ele>
        <time>2022-10-19T14:07:47Z</time>
      </trkpt>
      <trkpt lat="49.90072" lon="2.48508">
        <ele>33.5</ele>
        <time>2022-10-19T14:07:48Z</time>
      </trkpt>
      <trkpt lat="49.90072" lon="2.48507">
        <ele>33.5</ele>
        <time>2022-10-19T14:07:49Z</time>
      </trkpt>
      <trkpt lat="49.90072" lon="2.48505">
        <ele>33.6</ele>
        <time>2022-10-19T14:07:50Z</time>
      </trkpt>
      <trkpt lat="49.90072" lon="2.48503">
        <ele>33.6</ele>
        <time>2022-10-19T14:07:51Z</time>
      </trkpt>
      <trkpt lat="49.90072" lon="2.48502">
        <ele>33.6</ele>
        <time>2022-10-19T14:07:52Z</time>
      </trkpt>
      <trkpt lat="49.90071" lon="2.485">
        <ele>33.6</ele>
        <time>2022-10-19T14:07:53Z</time>
      </trkpt>
      <trkpt lat="49.90071" lon="2.48498">
        <ele>33.7</ele>
        <time>2022-10-19T14:07:54Z</time>
      </trkpt>
      <trkpt lat="49.90071" lon="2.48495">
        <ele>33.7</ele>
        <time>2022-10-19T14:07:55Z</time>
      </trkpt>
      <trkpt lat="49.9007" lon="2.48493">
        <ele>33.8</ele>
        <time>2022-10-19T14:07:57Z</time>
      </trkpt>
      <trkpt lat="49.9007" lon="2.48491">
        <ele>33.8</ele>
        <time>2022-10-19T14:07:58Z</time>
      </trkpt>
      <trkpt lat="49.9007" lon="2.4849">
        <ele>33.8</ele>
        <time>2022-10-19T14:07:59Z</time>
      </trkpt>
      <trkpt lat="49.90069" lon="2.48488">
        <ele>33.8</ele>
        <time>2022-10-19T14:08:00Z</time>
      </trkpt>
      <trkpt lat="49.90069" lon="2.48487">
        <ele>33.8</ele>
        <time>2022-10-19T14:08:01Z</time>
      </trkpt>
      <trkpt lat="49.90069" lon="2.48485">
        <ele>33.9</ele>
        <time>2022-10-19T14:08:02Z</time>
      </trkpt>
      <trkpt lat="49.90069" lon="2.48483">
        <ele>33.9</ele>
        <time>2022-10-19T14:08:03Z</time>
      </trkpt>
      <trkpt lat="49.90068" lon="2.48482">
        <ele>33.9</ele>
        <time>2022-10-19T14:08:04Z</time>
      </trkpt>
      <trkpt lat="49.90067" lon="2.4848">
        <ele>33.9</ele>
        <time>2022-10-19T14:08:05Z</time>
      </trkpt>
      <trkpt lat="49.90067" lon="2.48479">
        <ele>34</ele>
        <time>2022-10-19T14:08:07Z</time>
      </trkpt>
      <trkpt lat="49.90065" lon="2.48476">
        <ele>34</ele>
        <time>2022-10-19T14:08:08Z</time>
      </trkpt>
      <trkpt lat="49.90065" lon="2.48475">
        <ele>34</ele>
        <time>2022-10-19T14:08:09Z</time>
      </trkpt>
      <trkpt lat="49.90064" lon="2.48474">
        <ele>34.1</ele>
        <time>2022-10-19T14:08:10Z</time>
      </trkpt>
      <trkpt lat="49.90064" lon="2.48472">
        <ele>34.1</ele>
        <time>2022-10-19T14:08:11Z</time>
      </trkpt>
      <trkpt lat="49.90063" lon="2.4847">
        <ele>34.1</ele>
        <time>2022-10-19T14:08:12Z</time>
      </trkpt>
      <trkpt lat="49.90062" lon="2.48467">
        <ele>34.2</ele>
        <time>2022-10-19T14:08:13Z</time>
      </trkpt>
      <trkpt lat="49.90061" lon="2.48466">
        <ele>34.2</ele>
        <time>2022-10-19T14:08:14Z</time>
      </trkpt>
      <trkpt lat="49.9006" lon="2.48464">
        <ele>34.2</ele>
        <time>2022-10-19T14:08:15Z</time>
      </trkpt>
      <trkpt lat="49.90059" lon="2.48461">
        <ele>34.3</ele>
        <time>2022-10-19T14:08:16Z</time>
      </trkpt>
      <trkpt lat="49.90058" lon="2.48459">
        <ele>34.3</ele>
        <time>2022-10-19T14:08:18Z</time>
      </trkpt>
      <trkpt lat="49.90058" lon="2.48457">
        <ele>34.3</ele>
        <time>2022-10-19T14:08:19Z</time>
      </trkpt>
      <trkpt lat="49.90057" lon="2.48455">
        <ele>34.4</ele>
        <time>2022-10-19T14:08:20Z</time>
      </trkpt>
      <trkpt lat="49.90056" lon="2.48453">
        <ele>34.4</ele>
        <time>2022-10-19T14:08:21Z</time>
      </trkpt>
      <trkpt lat="49.90056" lon="2.48451">
        <ele>34.4</ele>
        <time>2022-10-19T14:08:22Z</time>
      </trkpt>
      <trkpt lat="49.90055" lon="2.4845">
        <ele>34.5</ele>
        <time>2022-10-19T14:08:23Z</time>
      </trkpt>
      <trkpt lat="49.90054" lon="2.48447">
        <ele>34.5</ele>
        <time>2022-10-19T14:08:24Z</time>
      </trkpt>
      <trkpt lat="49.90054" lon="2.48446">
        <ele>34.5</ele>
        <time>2022-10-19T14:08:25Z</time>
      </trkpt>
      <trkpt lat="49.90054" lon="2.48445">
        <ele>34.6</ele>
        <time>2022-10-19T14:08:26Z</time>
      </trkpt>
      <trkpt lat="49.90053" lon="2.48443">
        <ele>34.6</ele>
        <time>2022-10-19T14:08:28Z</time>
      </trkpt>
      <trkpt lat="49.90052" lon="2.48441">
        <ele>34.6</ele>
        <time>2022-10-19T14:08:29Z</time>
      </trkpt>
      <trkpt lat="49.90052" lon="2.48437">
        <ele>34.7</ele>
        <time>2022-10-19T14:08:30Z</time>
      </trkpt>
      <trkpt lat="49.90052" lon="2.48436">
        <ele>34.7</ele>
        <time>2022-10-19T14:08:31Z</time>
      </trkpt>
      <trkpt lat="49.90051" lon="2.48433">
        <ele>34.7</ele>
        <time>2022-10-19T14:08:32Z</time>
      </trkpt>
      <trkpt lat="49.90051" lon="2.48432">
        <ele>34.7</ele>
        <time>2022-10-19T14:08:33Z</time>
      </trkpt>
      <trkpt lat="49.90051" lon="2.48431">
        <ele>34.8</ele>
        <time>2022-10-19T14:08:34Z</time>
      </trkpt>
      <trkpt lat="49.9005" lon="2.48429">
        <ele>34.8</ele>
        <time>2022-10-19T14:08:36Z</time>
      </trkpt>
      <trkpt lat="49.90051" lon="2.48427">
        <ele>34.8</ele>
        <time>2022-10-19T14:08:37Z</time>
      </trkpt>
      <trkpt lat="49.90051" lon="2.48426">
        <ele>34.8</ele>
        <time>2022-10-19T14:08:38Z</time>
      </trkpt>
      <trkpt lat="49.90051" lon="2.48425">
        <ele>34.9</ele>
        <time>2022-10-19T14:08:39Z</time>
      </trkpt>
      <trkpt lat="49.90051" lon="2.48423">
        <ele>34.9</ele>
        <time>2022-10-19T14:08:40Z</time>
      </trkpt>
      <trkpt lat="49.90051" lon="2.48422">
        <ele>34.9</ele>
        <time>2022-10-19T14:08:41Z</time>
      </trkpt>
      <trkpt lat="49.90051" lon="2.4842">
        <ele>34.9</ele>
        <time>2022-10-19T14:08:42Z</time>
      </trkpt>
      <trkpt lat="49.9005" lon="2.48419">
        <ele>35</ele>
        <time>2022-10-19T14:08:43Z</time>
      </trkpt>
      <trkpt lat="49.9005" lon="2.48417">
        <ele>35</ele>
        <time>2022-10-19T14:08:45Z</time>
      </trkpt>
      <trkpt lat="49.9005" lon="2.48415">
        <ele>35</ele>
        <time>2022-10-19T14:08:46Z</time>
      </trkpt>
      <trkpt lat="49.90049" lon="2.48413">
        <ele>35</ele>
        <time>2022-10-19T14:08:47Z</time>
      </trkpt>
      <trkpt lat="49.90049" lon="2.48411">
        <ele>35.1</ele>
        <time>2022-10-19T14:08:48Z</time>
      </trkpt>
      <trkpt lat="49.90048" lon="2.48408">
        <ele>35.1</ele>
        <time>2022-10-19T14:08:49Z</time>
      </trkpt>
      <trkpt lat="49.90048" lon="2.48407">
        <ele>35.1</ele>
        <time>2022-10-19T14:08:50Z</time>
      </trkpt>
      <trkpt lat="49.90048" lon="2.48406">
        <ele>35.2</ele>
        <time>2022-10-19T14:08:51Z</time>
      </trkpt>
      <trkpt lat="49.90047" lon="2.48403">
        <ele>35.2</ele>
        <time>2022-10-19T14:08:53Z</time>
      </trkpt>
      <trkpt lat="49.90046" lon="2.48402">
        <ele>35.2</ele>
        <time>2022-10-19T14:08:54Z</time>
      </trkpt>
      <trkpt lat="49.90046" lon="2.48401">
        <ele>35.3</ele>
        <time>2022-10-19T14:08:55Z</time>
      </trkpt>
      <trkpt lat="49.90045" lon="2.484">
        <ele>35.3</ele>
        <time>2022-10-19T14:08:56Z</time>
      </trkpt>
      <trkpt lat="49.90045" lon="2.48398">
        <ele>35.3</ele>
        <time>2022-10-19T14:08:57Z</time>
      </trkpt>
      <trkpt lat="49.90044" lon="2.48397">
        <ele>35.3</ele>
        <time>2022-10-19T14:08:58Z</time>
      </trkpt>
      <trkpt lat="49.90043" lon="2.48394">
        <ele>35.4</ele>
        <time>2022-10-19T14:08:59Z</time>
      </trkpt>
      <trkpt lat="49.90042" lon="2.48393">
        <ele>35.4</ele>
        <time>2022-10-19T14:09:01Z</time>
      </trkpt>
      <trkpt lat="49.90042" lon="2.48392">
        <ele>35.4</ele>
        <time>2022-10-19T14:09:02Z</time>
      </trkpt>
      <trkpt lat="49.90041" lon="2.48388">
        <ele>35.5</ele>
        <time>2022-10-19T14:09:03Z</time>
      </trkpt>
      <trkpt lat="49.9004" lon="2.48386">
        <ele>35.5</ele>
        <time>2022-10-19T14:09:04Z</time>
      </trkpt>
      <trkpt lat="49.9004" lon="2.48385">
        <ele>35.5</ele>
        <time>2022-10-19T14:09:05Z</time>
      </trkpt>
      <trkpt lat="49.90039" lon="2.48384">
        <ele>35.5</ele>
        <time>2022-10-19T14:09:06Z</time>
      </trkpt>
      <trkpt lat="49.90039" lon="2.48382">
        <ele>35.6</ele>
        <time>2022-10-19T14:09:07Z</time>
      </trkpt>
      <trkpt lat="49.90039" lon="2.4838">
        <ele>35.6</ele>
        <time>2022-10-19T14:09:08Z</time>
      </trkpt>
      <trkpt lat="49.90038" lon="2.48378">
        <ele>35.6</ele>
        <time>2022-10-19T14:09:10Z</time>
      </trkpt>
      <trkpt lat="49.90038" lon="2.48377">
        <ele>35.6</ele>
        <time>2022-10-19T14:09:11Z</time>
      </trkpt>
      <trkpt lat="49.90038" lon="2.48375">
        <ele>35.7</ele>
        <time>2022-10-19T14:09:12Z</time>
      </trkpt>
      <trkpt lat="49.90037" lon="2.48373">
        <ele>35.7</ele>
        <time>2022-10-19T14:09:13Z</time>
      </trkpt>
      <trkpt lat="49.90036" lon="2.48371">
        <ele>35.7</ele>
        <time>2022-10-19T14:09:14Z</time>
      </trkpt>
      <trkpt lat="49.90036" lon="2.4837">
        <ele>35.7</ele>
        <time>2022-10-19T14:09:15Z</time>
      </trkpt>
      <trkpt lat="49.90036" lon="2.48369">
        <ele>35.7</ele>
        <time>2022-10-19T14:09:16Z</time>
      </trkpt>
      <trkpt lat="49.90035" lon="2.48367">
        <ele>35.8</ele>
        <time>2022-10-19T14:09:17Z</time>
      </trkpt>
      <trkpt lat="49.90035" lon="2.48366">
        <ele>35.8</ele>
        <time>2022-10-19T14:09:19Z</time>
      </trkpt>
      <trkpt lat="49.90035" lon="2.48364">
        <ele>35.8</ele>
        <time>2022-10-19T14:09:20Z</time>
      </trkpt>
      <trkpt lat="49.90035" lon="2.48362">
        <ele>35.8</ele>
        <time>2022-10-19T14:09:21Z</time>
      </trkpt>
      <trkpt lat="49.90034" lon="2.48361">
        <ele>35.8</ele>
        <time>2022-10-19T14:09:22Z</time>
      </trkpt>
      <trkpt lat="49.90033" lon="2.48358">
        <ele>35.9</ele>
        <time>2022-10-19T14:09:23Z</time>
      </trkpt>
      <trkpt lat="49.90033" lon="2.48357">
        <ele>35.9</ele>
        <time>2022-10-19T14:09:24Z</time>
      </trkpt>
      <trkpt lat="49.90033" lon="2.48355">
        <ele>35.9</ele>
        <time>2022-10-19T14:09:25Z</time>
      </trkpt>
      <trkpt lat="49.90032" lon="2.48354">
        <ele>35.9</ele>
        <time>2022-10-19T14:09:26Z</time>
      </trkpt>
      <trkpt lat="49.90032" lon="2.48353">
        <ele>35.9</ele>
        <time>2022-10-19T14:09:27Z</time>
      </trkpt>
      <trkpt lat="49.90032" lon="2.48351">
        <ele>36</ele>
        <time>2022-10-19T14:09:29Z</time>
      </trkpt>
      <trkpt lat="49.90031" lon="2.4835">
        <ele>36</ele>
        <time>2022-10-19T14:09:30Z</time>
      </trkpt>
      <trkpt lat="49.90031" lon="2.48348">
        <ele>36</ele>
        <time>2022-10-19T14:09:31Z</time>
      </trkpt>
      <trkpt lat="49.9003" lon="2.48347">
        <ele>36</ele>
        <time>2022-10-19T14:09:32Z</time>
      </trkpt>
      <trkpt lat="49.9003" lon="2.48346">
        <ele>36.1</ele>
        <time>2022-10-19T14:09:33Z</time>
      </trkpt>
      <trkpt lat="49.90029" lon="2.48345">
        <ele>36.1</ele>
        <time>2022-10-19T14:09:35Z</time>
      </trkpt>
      <trkpt lat="49.90029" lon="2.48343">
        <ele>36.1</ele>
        <time>2022-10-19T14:09:36Z</time>
      </trkpt>
      <trkpt lat="49.90028" lon="2.48342">
        <ele>36.1</ele>
        <time>2022-10-19T14:09:37Z</time>
      </trkpt>
      <trkpt lat="49.90028" lon="2.48341">
        <ele>36.2</ele>
        <time>2022-10-19T14:09:39Z</time>
      </trkpt>
      <trkpt lat="49.90027" lon="2.48339">
        <ele>36.2</ele>
        <time>2022-10-19T14:09:40Z</time>
      </trkpt>
      <trkpt lat="49.90026" lon="2.48338">
        <ele>36.2</ele>
        <time>2022-10-19T14:09:41Z</time>
      </trkpt>
      <trkpt lat="49.90026" lon="2.48338">
        <ele>36.2</ele>
        <time>2022-10-19T14:09:42Z</time>
      </trkpt>
      <trkpt lat="49.90025" lon="2.48337">
        <ele>36.2</ele>
        <time>2022-10-19T14:09:43Z</time>
      </trkpt>
      <trkpt lat="49.90024" lon="2.48337">
        <ele>36.2</ele>
        <time>2022-10-19T14:09:44Z</time>
      </trkpt>
      <trkpt lat="49.90023" lon="2.48339">
        <ele>36.3</ele>
        <time>2022-10-19T14:09:45Z</time>
      </trkpt>
      <trkpt lat="49.90023" lon="2.48339">
        <ele>36.3</ele>
        <time>2022-10-19T14:09:46Z</time>
      </trkpt>
      <trkpt lat="49.90023" lon="2.48339">
        <ele>36.3</ele>
        <time>2022-10-19T14:09:47Z</time>
      </trkpt>
      <trkpt lat="49.90023" lon="2.48339">
        <ele>36.3</ele>
        <time>2022-10-19T14:09:48Z</time>
      </trkpt>
      <trkpt lat="49.90023" lon="2.48339">
        <ele>36.3</ele>
        <time>2022-10-19T14:09:50Z</time>
      </trkpt>
      <trkpt lat="49.90023" lon="2.48339">
        <ele>36.3</ele>
        <time>2022-10-19T14:09:51Z</time>
      </trkpt>
      <trkpt lat="49.90022" lon="2.48339">
        <ele>36.3</ele>
        <time>2022-10-19T14:09:52Z</time>
      </trkpt>
      <trkpt lat="49.90022" lon="2.48338">
        <ele>36.3</ele>
        <time>2022-10-19T14:09:53Z</time>
      </trkpt>
      <trkpt lat="49.90022" lon="2.48338">
        <ele>36.3</ele>
        <time>2022-10-19T14:09:54Z</time>
      </trkpt>
      <trkpt lat="49.90021" lon="2.48339">
        <ele>36.3</ele>
        <time>2022-10-19T14:09:56Z</time>
      </trkpt>
      <trkpt lat="49.90021" lon="2.48339">
        <ele>36.3</ele>
        <time>2022-10-19T14:09:57Z</time>
      </trkpt>
      <trkpt lat="49.90022" lon="2.48339">
        <ele>36.3</ele>
        <time>2022-10-19T14:09:58Z</time>
      </trkpt>
      <trkpt lat="49.90022" lon="2.48339">
        <ele>36.4</ele>
        <time>2022-10-19T14:10:00Z</time>
      </trkpt>
      <trkpt lat="49.90022" lon="2.48338">
        <ele>36.4</ele>
        <time>2022-10-19T14:10:01Z</time>
      </trkpt>
      <trkpt lat="49.90022" lon="2.48338">
        <ele>36.4</ele>
        <time>2022-10-19T14:10:02Z</time>
      </trkpt>
      <trkpt lat="49.90021" lon="2.48337">
        <ele>36.4</ele>
        <time>2022-10-19T14:10:03Z</time>
      </trkpt>
      <trkpt lat="49.90021" lon="2.48336">
        <ele>36.4</ele>
        <time>2022-10-19T14:10:04Z</time>
      </trkpt>
      <trkpt lat="49.90019" lon="2.48333">
        <ele>36.4</ele>
        <time>2022-10-19T14:10:05Z</time>
      </trkpt>
      <trkpt lat="49.90019" lon="2.48332">
        <ele>36.4</ele>
        <time>2022-10-19T14:10:06Z</time>
      </trkpt>
      <trkpt lat="49.90018" lon="2.48331">
        <ele>36.4</ele>
        <time>2022-10-19T14:10:08Z</time>
      </trkpt>
      <trkpt lat="49.90017" lon="2.4833">
        <ele>36.4</ele>
        <time>2022-10-19T14:10:09Z</time>
      </trkpt>
      <trkpt lat="49.90016" lon="2.48329">
        <ele>36.5</ele>
        <time>2022-10-19T14:10:10Z</time>
      </trkpt>
      <trkpt lat="49.90015" lon="2.48328">
        <ele>36.5</ele>
        <time>2022-10-19T14:10:11Z</time>
      </trkpt>
      <trkpt lat="49.90014" lon="2.48327">
        <ele>36.5</ele>
        <time>2022-10-19T14:10:12Z</time>
      </trkpt>
      <trkpt lat="49.90013" lon="2.48326">
        <ele>36.5</ele>
        <time>2022-10-19T14:10:13Z</time>
      </trkpt>
      <trkpt lat="49.90012" lon="2.48326">
        <ele>36.5</ele>
        <time>2022-10-19T14:10:14Z</time>
      </trkpt>
      <trkpt lat="49.9001" lon="2.48324">
        <ele>36.5</ele>
        <time>2022-10-19T14:10:16Z</time>
      </trkpt>
      <trkpt lat="49.90009" lon="2.48324">
        <ele>36.5</ele>
        <time>2022-10-19T14:10:17Z</time>
      </trkpt>
      <trkpt lat="49.90009" lon="2.48323">
        <ele>36.5</ele>
        <time>2022-10-19T14:10:18Z</time>
      </trkpt>
      <trkpt lat="49.90008" lon="2.48322">
        <ele>36.6</ele>
        <time>2022-10-19T14:10:19Z</time>
      </trkpt>
      <trkpt lat="49.90007" lon="2.48322">
        <ele>36.6</ele>
        <time>2022-10-19T14:10:20Z</time>
      </trkpt>
      <trkpt lat="49.90006" lon="2.4832">
        <ele>36.6</ele>
        <time>2022-10-19T14:10:21Z</time>
      </trkpt>
      <trkpt lat="49.90005" lon="2.48319">
        <ele>36.6</ele>
        <time>2022-10-19T14:10:22Z</time>
      </trkpt>
      <trkpt lat="49.90005" lon="2.48319">
        <ele>36.6</ele>
        <time>2022-10-19T14:10:23Z</time>
      </trkpt>
      <trkpt lat="49.90004" lon="2.48318">
        <ele>36.6</ele>
        <time>2022-10-19T14:10:24Z</time>
      </trkpt>
      <trkpt lat="49.90002" lon="2.48316">
        <ele>36.6</ele>
        <time>2022-10-19T14:10:26Z</time>
      </trkpt>
      <trkpt lat="49.90002" lon="2.48315">
        <ele>36.6</ele>
        <time>2022-10-19T14:10:27Z</time>
      </trkpt>
      <trkpt lat="49.90001" lon="2.48314">
        <ele>36.6</ele>
        <time>2022-10-19T14:10:28Z</time>
      </trkpt>
      <trkpt lat="49.90001" lon="2.48312">
        <ele>36.6</ele>
        <time>2022-10-19T14:10:29Z</time>
      </trkpt>
      <trkpt lat="49.9" lon="2.48311">
        <ele>36.6</ele>
        <time>2022-10-19T14:10:30Z</time>
      </trkpt>
      <trkpt lat="49.9" lon="2.48309">
        <ele>36.6</ele>
        <time>2022-10-19T14:10:32Z</time>
      </trkpt>
      <trkpt lat="49.9" lon="2.48307">
        <ele>36.6</ele>
        <time>2022-10-19T14:10:33Z</time>
      </trkpt>
      <trkpt lat="49.90001" lon="2.48306">
        <ele>36.6</ele>
        <time>2022-10-19T14:10:34Z</time>
      </trkpt>
      <trkpt lat="49.90001" lon="2.48305">
        <ele>36.6</ele>
        <time>2022-10-19T14:10:35Z</time>
      </trkpt>
      <trkpt lat="49.90002" lon="2.48303">
        <ele>36.6</ele>
        <time>2022-10-19T14:10:37Z</time>
      </trkpt>
      <trkpt lat="49.90002" lon="2.48302">
        <ele>36.6</ele>
        <time>2022-10-19T14:10:38Z</time>
      </trkpt>
      <trkpt lat="49.90002" lon="2.48301">
        <ele>36.6</ele>
        <time>2022-10-19T14:10:39Z</time>
      </trkpt>
      <trkpt lat="49.90001" lon="2.483">
        <ele>36.6</ele>
        <time>2022-10-19T14:10:40Z</time>
      </trkpt>
      <trkpt lat="49.9" lon="2.48299">
        <ele>36.6</ele>
        <time>2022-10-19T14:10:41Z</time>
      </trkpt>
      <trkpt lat="49.89998" lon="2.48299">
        <ele>36.6</ele>
        <time>2022-10-19T14:10:42Z</time>
      </trkpt>
      <trkpt lat="49.89997" lon="2.483">
        <ele>36.6</ele>
        <time>2022-10-19T14:10:43Z</time>
      </trkpt>
      <trkpt lat="49.89996" lon="2.483">
        <ele>36.6</ele>
        <time>2022-10-19T14:10:45Z</time>
      </trkpt>
      <trkpt lat="49.89996" lon="2.48301">
        <ele>36.6</ele>
        <time>2022-10-19T14:10:46Z</time>
      </trkpt>
      <trkpt lat="49.89995" lon="2.48302">
        <ele>36.6</ele>
        <time>2022-10-19T14:10:47Z</time>
      </trkpt>
      <trkpt lat="49.89994" lon="2.48302">
        <ele>36.6</ele>
        <time>2022-10-19T14:10:48Z</time>
      </trkpt>
      <trkpt lat="49.89993" lon="2.48305">
        <ele>36.6</ele>
        <time>2022-10-19T14:10:49Z</time>
      </trkpt>
      <trkpt lat="49.89993" lon="2.48306">
        <ele>36.6</ele>
        <time>2022-10-19T14:10:50Z</time>
      </trkpt>
      <trkpt lat="49.89992" lon="2.48307">
        <ele>36.6</ele>
        <time>2022-10-19T14:10:51Z</time>
      </trkpt>
      <trkpt lat="49.89991" lon="2.48308">
        <ele>36.6</ele>
        <time>2022-10-19T14:10:52Z</time>
      </trkpt>
      <trkpt lat="49.89991" lon="2.48309">
        <ele>36.6</ele>
        <time>2022-10-19T14:10:53Z</time>
      </trkpt>
      <trkpt lat="49.8999" lon="2.48311">
        <ele>36.6</ele>
        <time>2022-10-19T14:10:54Z</time>
      </trkpt>
      <trkpt lat="49.89989" lon="2.48312">
        <ele>36.6</ele>
        <time>2022-10-19T14:10:55Z</time>
      </trkpt>
      <trkpt lat="49.89988" lon="2.48313">
        <ele>36.6</ele>
        <time>2022-10-19T14:10:56Z</time>
      </trkpt>
      <trkpt lat="49.89988" lon="2.48314">
        <ele>36.6</ele>
        <time>2022-10-19T14:10:57Z</time>
      </trkpt>
      <trkpt lat="49.89986" lon="2.48315">
        <ele>36.6</ele>
        <time>2022-10-19T14:10:58Z</time>
      </trkpt>
      <trkpt lat="49.89985" lon="2.48316">
        <ele>36.6</ele>
        <time>2022-10-19T14:11:00Z</time>
      </trkpt>
      <trkpt lat="49.89984" lon="2.48317">
        <ele>36.6</ele>
        <time>2022-10-19T14:11:01Z</time>
      </trkpt>
      <trkpt lat="49.89983" lon="2.48318">
        <ele>36.6</ele>
        <time>2022-10-19T14:11:02Z</time>
      </trkpt>
      <trkpt lat="49.89983" lon="2.48318">
        <ele>36.6</ele>
        <time>2022-10-19T14:11:03Z</time>
      </trkpt>
      <trkpt lat="49.89982" lon="2.48319">
        <ele>36.6</ele>
        <time>2022-10-19T14:11:04Z</time>
      </trkpt>
      <trkpt lat="49.89981" lon="2.48319">
        <ele>36.6</ele>
        <time>2022-10-19T14:11:05Z</time>
      </trkpt>
      <trkpt lat="49.8998" lon="2.4832">
        <ele>36.6</ele>
        <time>2022-10-19T14:11:07Z</time>
      </trkpt>
      <trkpt lat="49.89979" lon="2.4832">
        <ele>36.6</ele>
        <time>2022-10-19T14:11:08Z</time>
      </trkpt>
      <trkpt lat="49.89978" lon="2.48321">
        <ele>36.6</ele>
        <time>2022-10-19T14:11:09Z</time>
      </trkpt>
      <trkpt lat="49.89977" lon="2.48321">
        <ele>36.6</ele>
        <time>2022-10-19T14:11:10Z</time>
      </trkpt>
      <trkpt lat="49.89976" lon="2.48321">
        <ele>36.6</ele>
        <time>2022-10-19T14:11:11Z</time>
      </trkpt>
      <trkpt lat="49.89975" lon="2.4832">
        <ele>36.6</ele>
        <time>2022-10-19T14:11:12Z</time>
      </trkpt>
      <trkpt lat="49.89974" lon="2.4832">
        <ele>36.6</ele>
        <time>2022-10-19T14:11:13Z</time>
      </trkpt>
      <trkpt lat="49.89973" lon="2.4832">
        <ele>36.6</ele>
        <time>2022-10-19T14:11:14Z</time>
      </trkpt>
      <trkpt lat="49.89972" lon="2.4832">
        <ele>36.6</ele>
        <time>2022-10-19T14:11:15Z</time>
      </trkpt>
      <trkpt lat="49.89971" lon="2.4832">
        <ele>36.6</ele>
        <time>2022-10-19T14:11:16Z</time>
      </trkpt>
      <trkpt lat="49.89969" lon="2.4832">
        <ele>36.6</ele>
        <time>2022-10-19T14:11:17Z</time>
      </trkpt>
      <trkpt lat="49.89968" lon="2.48321">
        <ele>36.6</ele>
        <time>2022-10-19T14:11:18Z</time>
      </trkpt>
      <trkpt lat="49.89968" lon="2.48321">
        <ele>36.6</ele>
        <time>2022-10-19T14:11:19Z</time>
      </trkpt>
      <trkpt lat="49.89967" lon="2.48321">
        <ele>36.6</ele>
        <time>2022-10-19T14:11:20Z</time>
      </trkpt>
      <trkpt lat="49.89965" lon="2.48322">
        <ele>36.6</ele>
        <time>2022-10-19T14:11:22Z</time>
      </trkpt>
      <trkpt lat="49.89964" lon="2.48323">
        <ele>36.6</ele>
        <time>2022-10-19T14:11:23Z</time>
      </trkpt>
      <trkpt lat="49.89963" lon="2.48323">
        <ele>36.6</ele>
        <time>2022-10-19T14:11:24Z</time>
      </trkpt>
      <trkpt lat="49.89962" lon="2.48324">
        <ele>36.6</ele>
        <time>2022-10-19T14:11:25Z</time>
      </trkpt>
      <trkpt lat="49.89961" lon="2.48325">
        <ele>36.6</ele>
        <time>2022-10-19T14:11:26Z</time>
      </trkpt>
      <trkpt lat="49.8996" lon="2.48326">
        <ele>36.6</ele>
        <time>2022-10-19T14:11:27Z</time>
      </trkpt>
      <trkpt lat="49.89959" lon="2.48326">
        <ele>36.6</ele>
        <time>2022-10-19T14:11:29Z</time>
      </trkpt>
      <trkpt lat="49.89958" lon="2.48327">
        <ele>36.6</ele>
        <time>2022-10-19T14:11:30Z</time>
      </trkpt>
      <trkpt lat="49.89957" lon="2.48328">
        <ele>36.6</ele>
        <time>2022-10-19T14:11:31Z</time>
      </trkpt>
      <trkpt lat="49.89957" lon="2.48329">
        <ele>36.6</ele>
        <time>2022-10-19T14:11:32Z</time>
      </trkpt>
      <trkpt lat="49.89956" lon="2.4833">
        <ele>36.6</ele>
        <time>2022-10-19T14:11:34Z</time>
      </trkpt>
      <trkpt lat="49.89954" lon="2.4833">
        <ele>36.6</ele>
        <time>2022-10-19T14:11:35Z</time>
      </trkpt>
      <trkpt lat="49.89954" lon="2.4833">
        <ele>36.6</ele>
        <time>2022-10-19T14:11:36Z</time>
      </trkpt>
      <trkpt lat="49.89953" lon="2.4833">
        <ele>36.6</ele>
        <time>2022-10-19T14:11:37Z</time>
      </trkpt>
      <trkpt lat="49.89953" lon="2.4833">
        <ele>36.6</ele>
        <time>2022-10-19T14:11:38Z</time>
      </trkpt>
      <trkpt lat="49.89952" lon="2.4833">
        <ele>36.6</ele>
        <time>2022-10-19T14:11:39Z</time>
      </trkpt>
      <trkpt lat="49.89952" lon="2.4833">
        <ele>36.6</ele>
        <time>2022-10-19T14:11:40Z</time>
      </trkpt>
      <trkpt lat="49.89952" lon="2.4833">
        <ele>36.6</ele>
        <time>2022-10-19T14:11:41Z</time>
      </trkpt>
      <trkpt lat="49.89952" lon="2.4833">
        <ele>36.6</ele>
        <time>2022-10-19T14:11:42Z</time>
      </trkpt>
      <trkpt lat="49.89952" lon="2.4833">
        <ele>36.6</ele>
        <time>2022-10-19T14:11:43Z</time>
      </trkpt>
      <trkpt lat="49.89952" lon="2.4833">
        <ele>36.6</ele>
        <time>2022-10-19T14:11:44Z</time>
      </trkpt>
      <trkpt lat="49.89952" lon="2.4833">
        <ele>36.6</ele>
        <time>2022-10-19T14:11:45Z</time>
      </trkpt>
      <trkpt lat="49.89953" lon="2.4833">
        <ele>36.6</ele>
        <time>2022-10-19T14:11:46Z</time>
      </trkpt>
      <trkpt lat="49.89953" lon="2.4833">
        <ele>36.6</ele>
        <time>2022-10-19T14:11:47Z</time>
      </trkpt>
      <trkpt lat="49.89953" lon="2.4833">
        <ele>36.6</ele>
        <time>2022-10-19T14:11:48Z</time>
      </trkpt>
      <trkpt lat="49.89953" lon="2.4833">
        <ele>36.6</ele>
        <time>2022-10-19T14:11:49Z</time>
      </trkpt>
      <trkpt lat="49.89953" lon="2.4833">
        <ele>36.6</ele>
        <time>2022-10-19T14:11:50Z</time>
      </trkpt>
      <trkpt lat="49.89953" lon="2.4833">
        <ele>36.6</ele>
        <time>2022-10-19T14:11:51Z</time>
      </trkpt>
      <trkpt lat="49.89953" lon="2.4833">
        <ele>36.6</ele>
        <time>2022-10-19T14:11:53Z</time>
      </trkpt>
      <trkpt lat="49.89953" lon="2.4833">
        <ele>36.6</ele>
        <time>2022-10-19T14:11:54Z</time>
      </trkpt>
      <trkpt lat="49.89953" lon="2.4833">
        <ele>36.6</ele>
        <time>2022-10-19T14:11:55Z</time>
      </trkpt>
      <trkpt lat="49.89953" lon="2.48329">
        <ele>36.6</ele>
        <time>2022-10-19T14:11:56Z</time>
      </trkpt>
      <trkpt lat="49.89953" lon="2.48329">
        <ele>36.6</ele>
        <time>2022-10-19T14:11:57Z</time>
      </trkpt>
      <trkpt lat="49.89953" lon="2.48327">
        <ele>36.6</ele>
        <time>2022-10-19T14:11:59Z</time>
      </trkpt>
      <trkpt lat="49.89954" lon="2.48326">
        <ele>36.6</ele>
        <time>2022-10-19T14:12:00Z</time>
      </trkpt>
      <trkpt lat="49.89955" lon="2.48324">
        <ele>36.6</ele>
        <time>2022-10-19T14:12:01Z</time>
      </trkpt>
      <trkpt lat="49.89956" lon="2.48324">
        <ele>36.6</ele>
        <time>2022-10-19T14:12:03Z</time>
      </trkpt>
      <trkpt lat="49.89957" lon="2.48324">
        <ele>36.6</ele>
        <time>2022-10-19T14:12:04Z</time>
      </trkpt>
      <trkpt lat="49.89958" lon="2.48325">
        <ele>36.6</ele>
        <time>2022-10-19T14:12:05Z</time>
      </trkpt>
      <trkpt lat="49.89958" lon="2.48326">
        <ele>36.6</ele>
        <time>2022-10-19T14:12:06Z</time>
      </trkpt>
      <trkpt lat="49.89957" lon="2.48327">
        <ele>36.6</ele>
        <time>2022-10-19T14:12:07Z</time>
      </trkpt>
      <trkpt lat="49.89957" lon="2.48327">
        <ele>36.6</ele>
        <time>2022-10-19T14:12:08Z</time>
      </trkpt>
      <trkpt lat="49.89957" lon="2.48327">
        <ele>36.6</ele>
        <time>2022-10-19T14:12:09Z</time>
      </trkpt>
      <trkpt lat="49.89957" lon="2.48328">
        <ele>36.6</ele>
        <time>2022-10-19T14:12:10Z</time>
      </trkpt>
      <trkpt lat="49.89958" lon="2.48329">
        <ele>36.6</ele>
        <time>2022-10-19T14:12:11Z</time>
      </trkpt>
      <trkpt lat="49.89958" lon="2.48329">
        <ele>36.6</ele>
        <time>2022-10-19T14:12:12Z</time>
      </trkpt>
      <trkpt lat="49.89958" lon="2.48329">
        <ele>36.6</ele>
        <time>2022-10-19T14:12:13Z</time>
      </trkpt>
      <trkpt lat="49.89959" lon="2.48329">
        <ele>36.6</ele>
        <time>2022-10-19T14:12:14Z</time>
      </trkpt>
      <trkpt lat="49.89959" lon="2.48329">
        <ele>36.6</ele>
        <time>2022-10-19T14:12:15Z</time>
      </trkpt>
      <trkpt lat="49.89959" lon="2.48329">
        <ele>36.6</ele>
        <time>2022-10-19T14:12:16Z</time>
      </trkpt>
      <trkpt lat="49.89959" lon="2.48329">
        <ele>36.6</ele>
        <time>2022-10-19T14:12:17Z</time>
      </trkpt>
      <trkpt lat="49.89959" lon="2.48329">
        <ele>36.6</ele>
        <time>2022-10-19T14:12:18Z</time>
      </trkpt>
      <trkpt lat="49.89959" lon="2.48329">
        <ele>36.6</ele>
        <time>2022-10-19T14:12:19Z</time>
      </trkpt>
      <trkpt lat="49.89959" lon="2.4833">
        <ele>36.6</ele>
        <time>2022-10-19T14:12:20Z</time>
      </trkpt>
      <trkpt lat="49.89959" lon="2.4833">
        <ele>36.6</ele>
        <time>2022-10-19T14:12:22Z</time>
      </trkpt>
      <trkpt lat="49.8996" lon="2.4833">
        <ele>36.6</ele>
        <time>2022-10-19T14:12:23Z</time>
      </trkpt>
      <trkpt lat="49.8996" lon="2.4833">
        <ele>36.6</ele>
        <time>2022-10-19T14:12:24Z</time>
      </trkpt>
      <trkpt lat="49.8996" lon="2.4833">
        <ele>36.6</ele>
        <time>2022-10-19T14:12:25Z</time>
      </trkpt>
      <trkpt lat="49.8996" lon="2.4833">
        <ele>36.6</ele>
        <time>2022-10-19T14:12:26Z</time>
      </trkpt>
      <trkpt lat="49.8996" lon="2.4833">
        <ele>36.6</ele>
        <time>2022-10-19T14:12:27Z</time>
      </trkpt>
      <trkpt lat="49.8996" lon="2.4833">
        <ele>36.6</ele>
        <time>2022-10-19T14:12:28Z</time>
      </trkpt>
      <trkpt lat="49.8996" lon="2.4833">
        <ele>36.6</ele>
        <time>2022-10-19T14:12:29Z</time>
      </trkpt>
      <trkpt lat="49.8996" lon="2.4833">
        <ele>36.6</ele>
        <time>2022-10-19T14:12:30Z</time>
      </trkpt>
      <trkpt lat="49.8996" lon="2.4833">
        <ele>36.6</ele>
        <time>2022-10-19T14:12:31Z</time>
      </trkpt>
      <trkpt lat="49.8996" lon="2.4833">
        <ele>36.6</ele>
        <time>2022-10-19T14:12:32Z</time>
      </trkpt>
      <trkpt lat="49.8996" lon="2.4833">
        <ele>36.6</ele>
        <time>2022-10-19T14:12:33Z</time>
      </trkpt>
      <trkpt lat="49.8996" lon="2.4833">
        <ele>36.6</ele>
        <time>2022-10-19T14:12:34Z</time>
      </trkpt>
      <trkpt lat="49.8996" lon="2.4833">
        <ele>36.6</ele>
        <time>2022-10-19T14:12:35Z</time>
      </trkpt>
      <trkpt lat="49.8996" lon="2.4833">
        <ele>36.6</ele>
        <time>2022-10-19T14:12:36Z</time>
      </trkpt>
      <trkpt lat="49.8996" lon="2.4833">
        <ele>36.6</ele>
        <time>2022-10-19T14:12:37Z</time>
      </trkpt>
      <trkpt lat="49.8996" lon="2.4833">
        <ele>36.6</ele>
        <time>2022-10-19T14:12:38Z</time>
      </trkpt>
      <trkpt lat="49.8996" lon="2.4833">
        <ele>36.6</ele>
        <time>2022-10-19T14:12:39Z</time>
      </trkpt>
      <trkpt lat="49.8996" lon="2.4833">
        <ele>36.6</ele>
        <time>2022-10-19T14:12:40Z</time>
      </trkpt>
      <trkpt lat="49.8996" lon="2.4833">
        <ele>36.6</ele>
        <time>2022-10-19T14:12:41Z</time>
      </trkpt>
      <trkpt lat="49.8996" lon="2.4833">
        <ele>36.6</ele>
        <time>2022-10-19T14:12:42Z</time>
      </trkpt>
      <trkpt lat="49.8996" lon="2.4833">
        <ele>36.6</ele>
        <time>2022-10-19T14:12:43Z</time>
      </trkpt>
      <trkpt lat="49.8996" lon="2.4833">
        <ele>36.6</ele>
        <time>2022-10-19T14:12:44Z</time>
      </trkpt>
      <trkpt lat="49.8996" lon="2.4833">
        <ele>36.6</ele>
        <time>2022-10-19T14:12:46Z</time>
      </trkpt>
      <trkpt lat="49.8996" lon="2.48331">
        <ele>36.6</ele>
        <time>2022-10-19T14:12:47Z</time>
      </trkpt>
      <trkpt lat="49.8996" lon="2.48331">
        <ele>36.6</ele>
        <time>2022-10-19T14:12:48Z</time>
      </trkpt>
      <trkpt lat="49.89959" lon="2.48332">
        <ele>36.6</ele>
        <time>2022-10-19T14:12:49Z</time>
      </trkpt>
      <trkpt lat="49.89959" lon="2.48332">
        <ele>36.6</ele>
        <time>2022-10-19T14:12:50Z</time>
      </trkpt>
      <trkpt lat="49.89959" lon="2.48332">
        <ele>36.6</ele>
        <time>2022-10-19T14:12:51Z</time>
      </trkpt>
      <trkpt lat="49.89959" lon="2.48332">
        <ele>36.6</ele>
        <time>2022-10-19T14:12:52Z</time>
      </trkpt>
      <trkpt lat="49.89959" lon="2.48332">
        <ele>36.6</ele>
        <time>2022-10-19T14:12:53Z</time>
      </trkpt>
      <trkpt lat="49.89959" lon="2.48332">
        <ele>36.6</ele>
        <time>2022-10-19T14:12:54Z</time>
      </trkpt>
      <trkpt lat="49.89959" lon="2.48332">
        <ele>36.6</ele>
        <time>2022-10-19T14:12:55Z</time>
      </trkpt>
      <trkpt lat="49.89959" lon="2.48332">
        <ele>36.6</ele>
        <time>2022-10-19T14:12:56Z</time>
      </trkpt>
      <trkpt lat="49.89959" lon="2.48332">
        <ele>36.6</ele>
        <time>2022-10-19T14:12:57Z</time>
      </trkpt>
      <trkpt lat="49.89959" lon="2.48332">
        <ele>36.6</ele>
        <time>2022-10-19T14:12:58Z</time>
      </trkpt>
      <trkpt lat="49.89959" lon="2.48332">
        <ele>36.6</ele>
        <time>2022-10-19T14:12:59Z</time>
      </trkpt>
      <trkpt lat="49.89959" lon="2.48332">
        <ele>36.6</ele>
        <time>2022-10-19T14:13:00Z</time>
      </trkpt>
      <trkpt lat="49.89959" lon="2.48333">
        <ele>36.6</ele>
        <time>2022-10-19T14:13:01Z</time>
      </trkpt>
      <trkpt lat="49.89959" lon="2.48333">
        <ele>36.6</ele>
        <time>2022-10-19T14:13:02Z</time>
      </trkpt>
      <trkpt lat="49.89959" lon="2.48333">
        <ele>36.6</ele>
        <time>2022-10-19T14:13:04Z</time>
      </trkpt>
      <trkpt lat="49.89959" lon="2.48333">
        <ele>36.6</ele>
        <time>2022-10-19T14:13:05Z</time>
      </trkpt>
      <trkpt lat="49.89959" lon="2.48333">
        <ele>36.6</ele>
        <time>2022-10-19T14:13:06Z</time>
      </trkpt>
      <trkpt lat="49.89959" lon="2.48332">
        <ele>36.6</ele>
        <time>2022-10-19T14:13:07Z</time>
      </trkpt>
      <trkpt lat="49.89959" lon="2.48332">
        <ele>36.6</ele>
        <time>2022-10-19T14:13:08Z</time>
      </trkpt>
      <trkpt lat="49.89959" lon="2.48332">
        <ele>36.6</ele>
        <time>2022-10-19T14:13:09Z</time>
      </trkpt>
      <trkpt lat="49.89959" lon="2.48332">
        <ele>36.6</ele>
        <time>2022-10-19T14:13:10Z</time>
      </trkpt>
      <trkpt lat="49.89959" lon="2.48332">
        <ele>36.6</ele>
        <time>2022-10-19T14:13:11Z</time>
      </trkpt>
      <trkpt lat="49.89959" lon="2.48332">
        <ele>36.6</ele>
        <time>2022-10-19T14:13:12Z</time>
      </trkpt>
      <trkpt lat="49.89959" lon="2.48332">
        <ele>36.6</ele>
        <time>2022-10-19T14:13:13Z</time>
      </trkpt>
      <trkpt lat="49.89959" lon="2.48332">
        <ele>36.6</ele>
        <time>2022-10-19T14:13:14Z</time>
      </trkpt>
      <trkpt lat="49.89959" lon="2.48332">
        <ele>36.6</ele>
        <time>2022-10-19T14:13:15Z</time>
      </trkpt>
      <trkpt lat="49.89959" lon="2.48332">
        <ele>36.6</ele>
        <time>2022-10-19T14:13:16Z</time>
      </trkpt>
      <trkpt lat="49.89959" lon="2.48332">
        <ele>36.6</ele>
        <time>2022-10-19T14:13:17Z</time>
      </trkpt>
      <trkpt lat="49.89959" lon="2.48331">
        <ele>36.6</ele>
        <time>2022-10-19T14:13:18Z</time>
      </trkpt>
      <trkpt lat="49.89959" lon="2.48331">
        <ele>36.6</ele>
        <time>2022-10-19T14:13:19Z</time>
      </trkpt>
      <trkpt lat="49.89959" lon="2.48331">
        <ele>36.6</ele>
        <time>2022-10-19T14:13:20Z</time>
      </trkpt>
      <trkpt lat="49.89959" lon="2.48331">
        <ele>36.6</ele>
        <time>2022-10-19T14:13:21Z</time>
      </trkpt>
      <trkpt lat="49.89959" lon="2.48331">
        <ele>36.6</ele>
        <time>2022-10-19T14:13:22Z</time>
      </trkpt>
      <trkpt lat="49.89959" lon="2.48331">
        <ele>36.6</ele>
        <time>2022-10-19T14:13:23Z</time>
      </trkpt>
      <trkpt lat="49.89959" lon="2.48331">
        <ele>36.6</ele>
        <time>2022-10-19T14:13:24Z</time>
      </trkpt>
      <trkpt lat="49.89959" lon="2.48331">
        <ele>36.6</ele>
        <time>2022-10-19T14:13:25Z</time>
      </trkpt>
      <trkpt lat="49.89959" lon="2.48331">
        <ele>36.6</ele>
        <time>2022-10-19T14:13:26Z</time>
      </trkpt>
      <trkpt lat="49.89959" lon="2.48331">
        <ele>36.6</ele>
        <time>2022-10-19T14:13:27Z</time>
      </trkpt>
      <trkpt lat="49.89959" lon="2.48331">
        <ele>36.6</ele>
        <time>2022-10-19T14:13:28Z</time>
      </trkpt>
      <trkpt lat="49.89959" lon="2.48331">
        <ele>36.6</ele>
        <time>2022-10-19T14:13:29Z</time>
      </trkpt>
      <trkpt lat="49.89959" lon="2.48331">
        <ele>36.6</ele>
        <time>2022-10-19T14:13:30Z</time>
      </trkpt>
      <trkpt lat="49.89959" lon="2.48331">
        <ele>36.6</ele>
        <time>2022-10-19T14:13:31Z</time>
      </trkpt>
      <trkpt lat="49.89959" lon="2.48331">
        <ele>36.6</ele>
        <time>2022-10-19T14:13:32Z</time>
      </trkpt>
      <trkpt lat="49.89959" lon="2.48331">
        <ele>36.6</ele>
        <time>2022-10-19T14:13:33Z</time>
      </trkpt>
      <trkpt lat="49.89959" lon="2.48331">
        <ele>36.6</ele>
        <time>2022-10-19T14:13:34Z</time>
      </trkpt>
      <trkpt lat="49.89959" lon="2.48331">
        <ele>36.6</ele>
        <time>2022-10-19T14:13:35Z</time>
      </trkpt>
      <trkpt lat="49.89959" lon="2.48331">
        <ele>36.6</ele>
        <time>2022-10-19T14:13:36Z</time>
      </trkpt>
      <trkpt lat="49.89959" lon="2.48331">
        <ele>36.6</ele>
        <time>2022-10-19T14:13:37Z</time>
      </trkpt>
      <trkpt lat="49.89959" lon="2.48331">
        <ele>36.6</ele>
        <time>2022-10-19T14:13:38Z</time>
      </trkpt>
      <trkpt lat="49.89959" lon="2.48331">
        <ele>36.6</ele>
        <time>2022-10-19T14:13:39Z</time>
      </trkpt>
      <trkpt lat="49.89959" lon="2.48331">
        <ele>36.6</ele>
        <time>2022-10-19T14:13:40Z</time>
      </trkpt>
      <trkpt lat="49.89959" lon="2.48331">
        <ele>36.6</ele>
        <time>2022-10-19T14:13:41Z</time>
      </trkpt>
      <trkpt lat="49.89959" lon="2.48331">
        <ele>36.6</ele>
        <time>2022-10-19T14:13:42Z</time>
      </trkpt>
      <trkpt lat="49.89959" lon="2.48331">
        <ele>36.6</ele>
        <time>2022-10-19T14:13:43Z</time>
      </trkpt>
      <trkpt lat="49.89959" lon="2.48332">
        <ele>36.6</ele>
        <time>2022-10-19T14:13:44Z</time>
      </trkpt>
      <trkpt lat="49.89959" lon="2.48332">
        <ele>36.6</ele>
        <time>2022-10-19T14:13:45Z</time>
      </trkpt>
      <trkpt lat="49.89959" lon="2.48332">
        <ele>36.6</ele>
        <time>2022-10-19T14:13:46Z</time>
      </trkpt>
      <trkpt lat="49.8996" lon="2.48331">
        <ele>36.6</ele>
        <time>2022-10-19T14:13:48Z</time>
      </trkpt>
      <trkpt lat="49.89961" lon="2.4833">
        <ele>36.6</ele>
        <time>2022-10-19T14:13:49Z</time>
      </trkpt>
      <trkpt lat="49.8996" lon="2.48332">
        <ele>36.6</ele>
        <time>2022-10-19T14:13:50Z</time>
      </trkpt>
      <trkpt lat="49.89959" lon="2.48332">
        <ele>36.6</ele>
        <time>2022-10-19T14:13:51Z</time>
      </trkpt>
      <trkpt lat="49.89959" lon="2.48332">
        <ele>36.6</ele>
        <time>2022-10-19T14:13:52Z</time>
      </trkpt>
      <trkpt lat="49.89959" lon="2.48332">
        <ele>36.6</ele>
        <time>2022-10-19T14:13:53Z</time>
      </trkpt>
      <trkpt lat="49.89959" lon="2.48332">
        <ele>36.6</ele>
        <time>2022-10-19T14:13:54Z</time>
      </trkpt>
      <trkpt lat="49.89959" lon="2.48332">
        <ele>36.6</ele>
        <time>2022-10-19T14:13:55Z</time>
      </trkpt>
      <trkpt lat="49.89959" lon="2.48332">
        <ele>36.6</ele>
        <time>2022-10-19T14:13:56Z</time>
      </trkpt>
      <trkpt lat="49.89959" lon="2.48332">
        <ele>36.6</ele>
        <time>2022-10-19T14:13:57Z</time>
      </trkpt>
      <trkpt lat="49.89959" lon="2.48332">
        <ele>36.6</ele>
        <time>2022-10-19T14:13:58Z</time>
      </trkpt>
      <trkpt lat="49.89959" lon="2.48332">
        <ele>36.6</ele>
        <time>2022-10-19T14:13:59Z</time>
      </trkpt>
      <trkpt lat="49.89959" lon="2.48332">
        <ele>36.6</ele>
        <time>2022-10-19T14:14:00Z</time>
      </trkpt>
      <trkpt lat="49.89959" lon="2.48332">
        <ele>36.6</ele>
        <time>2022-10-19T14:14:01Z</time>
      </trkpt>
      <trkpt lat="49.89959" lon="2.48332">
        <ele>36.6</ele>
        <time>2022-10-19T14:14:02Z</time>
      </trkpt>
      <trkpt lat="49.89959" lon="2.48332">
        <ele>36.6</ele>
        <time>2022-10-19T14:14:03Z</time>
      </trkpt>
      <trkpt lat="49.89959" lon="2.48332">
        <ele>36.6</ele>
        <time>2022-10-19T14:14:04Z</time>
      </trkpt>
      <trkpt lat="49.89959" lon="2.48332">
        <ele>36.6</ele>
        <time>2022-10-19T14:14:05Z</time>
      </trkpt>
      <trkpt lat="49.89959" lon="2.48331">
        <ele>36.6</ele>
        <time>2022-10-19T14:14:06Z</time>
      </trkpt>
      <trkpt lat="49.89959" lon="2.48331">
        <ele>36.6</ele>
        <time>2022-10-19T14:14:07Z</time>
      </trkpt>
      <trkpt lat="49.89959" lon="2.48331">
        <ele>36.6</ele>
        <time>2022-10-19T14:14:08Z</time>
      </trkpt>
      <trkpt lat="49.89959" lon="2.48331">
        <ele>36.6</ele>
        <time>2022-10-19T14:14:09Z</time>
      </trkpt>
      <trkpt lat="49.89959" lon="2.48331">
        <ele>36.6</ele>
        <time>2022-10-19T14:14:10Z</time>
      </trkpt>
      <trkpt lat="49.89959" lon="2.48331">
        <ele>36.6</ele>
        <time>2022-10-19T14:14:11Z</time>
      </trkpt>
      <trkpt lat="49.89959" lon="2.48331">
        <ele>36.6</ele>
        <time>2022-10-19T14:14:12Z</time>
      </trkpt>
      <trkpt lat="49.89959" lon="2.48331">
        <ele>36.6</ele>
        <time>2022-10-19T14:14:13Z</time>
      </trkpt>
      <trkpt lat="49.89959" lon="2.48331">
        <ele>36.6</ele>
        <time>2022-10-19T14:14:14Z</time>
      </trkpt>
      <trkpt lat="49.89959" lon="2.48331">
        <ele>36.6</ele>
        <time>2022-10-19T14:14:15Z</time>
      </trkpt>
      <trkpt lat="49.89959" lon="2.48331">
        <ele>36.6</ele>
        <time>2022-10-19T14:14:16Z</time>
      </trkpt>
      <trkpt lat="49.89959" lon="2.48331">
        <ele>36.6</ele>
        <time>2022-10-19T14:14:17Z</time>
      </trkpt>
      <trkpt lat="49.89959" lon="2.48331">
        <ele>36.6</ele>
        <time>2022-10-19T14:14:18Z</time>
      </trkpt>
      <trkpt lat="49.89959" lon="2.48331">
        <ele>36.6</ele>
        <time>2022-10-19T14:14:19Z</time>
      </trkpt>
      <trkpt lat="49.89959" lon="2.48331">
        <ele>36.6</ele>
        <time>2022-10-19T14:14:20Z</time>
      </trkpt>
      <trkpt lat="49.89959" lon="2.48331">
        <ele>36.6</ele>
        <time>2022-10-19T14:14:21Z</time>
      </trkpt>
      <trkpt lat="49.89959" lon="2.48331">
        <ele>36.6</ele>
        <time>2022-10-19T14:14:22Z</time>
      </trkpt>
      <trkpt lat="49.89959" lon="2.48331">
        <ele>36.6</ele>
        <time>2022-10-19T14:14:23Z</time>
      </trkpt>
      <trkpt lat="49.89959" lon="2.48332">
        <ele>36.6</ele>
        <time>2022-10-19T14:14:24Z</time>
      </trkpt>
      <trkpt lat="49.89958" lon="2.48332">
        <ele>36.6</ele>
        <time>2022-10-19T14:14:25Z</time>
      </trkpt>
      <trkpt lat="49.89959" lon="2.48333">
        <ele>36.6</ele>
        <time>2022-10-19T14:14:26Z</time>
      </trkpt>
      <trkpt lat="49.89959" lon="2.48333">
        <ele>36.6</ele>
        <time>2022-10-19T14:14:27Z</time>
      </trkpt>
      <trkpt lat="49.89958" lon="2.48333">
        <ele>36.6</ele>
        <time>2022-10-19T14:14:28Z</time>
      </trkpt>
      <trkpt lat="49.89958" lon="2.48333">
        <ele>36.6</ele>
        <time>2022-10-19T14:14:29Z</time>
      </trkpt>
      <trkpt lat="49.89958" lon="2.48332">
        <ele>36.6</ele>
        <time>2022-10-19T14:14:30Z</time>
      </trkpt>
      <trkpt lat="49.89957" lon="2.48332">
        <ele>36.6</ele>
        <time>2022-10-19T14:14:32Z</time>
      </trkpt>
      <trkpt lat="49.89957" lon="2.48332">
        <ele>36.6</ele>
        <time>2022-10-19T14:14:33Z</time>
      </trkpt>
      <trkpt lat="49.89957" lon="2.48331">
        <ele>36.6</ele>
        <time>2022-10-19T14:14:34Z</time>
      </trkpt>
      <trkpt lat="49.89957" lon="2.4833">
        <ele>36.6</ele>
        <time>2022-10-19T14:14:35Z</time>
      </trkpt>
      <trkpt lat="49.89957" lon="2.4833">
        <ele>36.6</ele>
        <time>2022-10-19T14:14:36Z</time>
      </trkpt>
      <trkpt lat="49.89957" lon="2.4833">
        <ele>36.6</ele>
        <time>2022-10-19T14:14:37Z</time>
      </trkpt>
      <trkpt lat="49.89957" lon="2.4833">
        <ele>36.6</ele>
        <time>2022-10-19T14:14:38Z</time>
      </trkpt>
      <trkpt lat="49.89957" lon="2.4833">
        <ele>36.6</ele>
        <time>2022-10-19T14:14:39Z</time>
      </trkpt>
      <trkpt lat="49.89957" lon="2.4833">
        <ele>36.6</ele>
        <time>2022-10-19T14:14:40Z</time>
      </trkpt>
      <trkpt lat="49.89957" lon="2.4833">
        <ele>36.6</ele>
        <time>2022-10-19T14:14:41Z</time>
      </trkpt>
      <trkpt lat="49.89957" lon="2.4833">
        <ele>36.6</ele>
        <time>2022-10-19T14:14:42Z</time>
      </trkpt>
      <trkpt lat="49.89957" lon="2.4833">
        <ele>36.6</ele>
        <time>2022-10-19T14:14:43Z</time>
      </trkpt>
      <trkpt lat="49.89958" lon="2.4833">
        <ele>36.6</ele>
        <time>2022-10-19T14:14:45Z</time>
      </trkpt>
      <trkpt lat="49.89958" lon="2.48331">
        <ele>36.6</ele>
        <time>2022-10-19T14:14:46Z</time>
      </trkpt>
      <trkpt lat="49.89958" lon="2.48331">
        <ele>36.6</ele>
        <time>2022-10-19T14:14:47Z</time>
      </trkpt>
      <trkpt lat="49.89958" lon="2.48331">
        <ele>36.6</ele>
        <time>2022-10-19T14:14:48Z</time>
      </trkpt>
      <trkpt lat="49.89958" lon="2.48332">
        <ele>36.6</ele>
        <time>2022-10-19T14:14:50Z</time>
      </trkpt>
      <trkpt lat="49.89959" lon="2.48333">
        <ele>36.6</ele>
        <time>2022-10-19T14:14:51Z</time>
      </trkpt>
      <trkpt lat="49.89959" lon="2.48333">
        <ele>36.6</ele>
        <time>2022-10-19T14:14:52Z</time>
      </trkpt>
      <trkpt lat="49.89959" lon="2.48333">
        <ele>36.6</ele>
        <time>2022-10-19T14:14:53Z</time>
      </trkpt>
      <trkpt lat="49.89959" lon="2.48333">
        <ele>36.6</ele>
        <time>2022-10-19T14:14:54Z</time>
      </trkpt>
      <trkpt lat="49.89959" lon="2.48334">
        <ele>36.6</ele>
        <time>2022-10-19T14:14:55Z</time>
      </trkpt>
      <trkpt lat="49.8996" lon="2.48334">
        <ele>36.6</ele>
        <time>2022-10-19T14:14:56Z</time>
      </trkpt>
      <trkpt lat="49.8996" lon="2.48334">
        <ele>36.6</ele>
        <time>2022-10-19T14:14:57Z</time>
      </trkpt>
      <trkpt lat="49.8996" lon="2.48334">
        <ele>36.6</ele>
        <time>2022-10-19T14:14:58Z</time>
      </trkpt>
      <trkpt lat="49.8996" lon="2.48333">
        <ele>36.6</ele>
        <time>2022-10-19T14:14:59Z</time>
      </trkpt>
      <trkpt lat="49.89959" lon="2.48333">
        <ele>36.6</ele>
        <time>2022-10-19T14:15:00Z</time>
      </trkpt>
      <trkpt lat="49.89959" lon="2.48333">
        <ele>36.6</ele>
        <time>2022-10-19T14:15:01Z</time>
      </trkpt>
      <trkpt lat="49.89959" lon="2.48333">
        <ele>36.6</ele>
        <time>2022-10-19T14:15:02Z</time>
      </trkpt>
      <trkpt lat="49.89959" lon="2.48333">
        <ele>36.6</ele>
        <time>2022-10-19T14:15:03Z</time>
      </trkpt>
      <trkpt lat="49.89959" lon="2.48333">
        <ele>36.6</ele>
        <time>2022-10-19T14:15:04Z</time>
      </trkpt>
      <trkpt lat="49.89959" lon="2.48333">
        <ele>36.6</ele>
        <time>2022-10-19T14:15:05Z</time>
      </trkpt>
      <trkpt lat="49.89959" lon="2.48332">
        <ele>36.6</ele>
        <time>2022-10-19T14:15:06Z</time>
      </trkpt>
      <trkpt lat="49.89959" lon="2.48332">
        <ele>36.6</ele>
        <time>2022-10-19T14:15:07Z</time>
      </trkpt>
      <trkpt lat="49.89959" lon="2.48332">
        <ele>36.6</ele>
        <time>2022-10-19T14:15:08Z</time>
      </trkpt>
      <trkpt lat="49.89959" lon="2.48332">
        <ele>36.6</ele>
        <time>2022-10-19T14:15:10Z</time>
      </trkpt>
      <trkpt lat="49.89959" lon="2.48331">
        <ele>36.6</ele>
        <time>2022-10-19T14:15:11Z</time>
      </trkpt>
      <trkpt lat="49.89959" lon="2.48331">
        <ele>36.6</ele>
        <time>2022-10-19T14:15:12Z</time>
      </trkpt>
      <trkpt lat="49.89959" lon="2.4833">
        <ele>36.6</ele>
        <time>2022-10-19T14:15:13Z</time>
      </trkpt>
      <trkpt lat="49.89959" lon="2.48329">
        <ele>36.6</ele>
        <time>2022-10-19T14:15:14Z</time>
      </trkpt>
      <trkpt lat="49.89959" lon="2.48328">
        <ele>36.6</ele>
        <time>2022-10-19T14:15:15Z</time>
      </trkpt>
      <trkpt lat="49.89958" lon="2.48328">
        <ele>36.6</ele>
        <time>2022-10-19T14:15:16Z</time>
      </trkpt>
      <trkpt lat="49.89958" lon="2.48328">
        <ele>36.6</ele>
        <time>2022-10-19T14:15:17Z</time>
      </trkpt>
      <trkpt lat="49.89957" lon="2.48329">
        <ele>36.6</ele>
        <time>2022-10-19T14:15:18Z</time>
      </trkpt>
      <trkpt lat="49.89956" lon="2.48332">
        <ele>36.6</ele>
        <time>2022-10-19T14:15:22Z</time>
      </trkpt>
      <trkpt lat="49.89957" lon="2.48332">
        <ele>36.6</ele>
        <time>2022-10-19T14:15:23Z</time>
      </trkpt>
      <trkpt lat="49.89957" lon="2.48332">
        <ele>36.6</ele>
        <time>2022-10-19T14:15:24Z</time>
      </trkpt>
      <trkpt lat="49.89957" lon="2.48332">
        <ele>36.6</ele>
        <time>2022-10-19T14:15:25Z</time>
      </trkpt>
      <trkpt lat="49.89958" lon="2.48332">
        <ele>36.6</ele>
        <time>2022-10-19T14:15:26Z</time>
      </trkpt>
      <trkpt lat="49.89958" lon="2.48332">
        <ele>36.6</ele>
        <time>2022-10-19T14:15:27Z</time>
      </trkpt>
      <trkpt lat="49.89958" lon="2.48332">
        <ele>36.6</ele>
        <time>2022-10-19T14:15:28Z</time>
      </trkpt>
      <trkpt lat="49.89958" lon="2.48332">
        <ele>36.6</ele>
        <time>2022-10-19T14:15:29Z</time>
      </trkpt>
      <trkpt lat="49.89958" lon="2.48332">
        <ele>36.6</ele>
        <time>2022-10-19T14:15:30Z</time>
      </trkpt>
      <trkpt lat="49.89958" lon="2.48332">
        <ele>36.6</ele>
        <time>2022-10-19T14:15:31Z</time>
      </trkpt>
      <trkpt lat="49.89958" lon="2.48332">
        <ele>36.6</ele>
        <time>2022-10-19T14:15:32Z</time>
      </trkpt>
      <trkpt lat="49.89958" lon="2.48332">
        <ele>36.6</ele>
        <time>2022-10-19T14:15:33Z</time>
      </trkpt>
      <trkpt lat="49.89958" lon="2.48332">
        <ele>36.6</ele>
        <time>2022-10-19T14:15:34Z</time>
      </trkpt>
      <trkpt lat="49.89958" lon="2.48332">
        <ele>36.6</ele>
        <time>2022-10-19T14:15:35Z</time>
      </trkpt>
      <trkpt lat="49.89958" lon="2.48332">
        <ele>36.6</ele>
        <time>2022-10-19T14:15:36Z</time>
      </trkpt>
      <trkpt lat="49.89958" lon="2.48332">
        <ele>36.6</ele>
        <time>2022-10-19T14:15:37Z</time>
      </trkpt>
      <trkpt lat="49.89959" lon="2.48332">
        <ele>36.6</ele>
        <time>2022-10-19T14:15:38Z</time>
      </trkpt>
      <trkpt lat="49.89959" lon="2.48332">
        <ele>36.6</ele>
        <time>2022-10-19T14:15:39Z</time>
      </trkpt>
      <trkpt lat="49.89959" lon="2.48332">
        <ele>36.6</ele>
        <time>2022-10-19T14:15:40Z</time>
      </trkpt>
      <trkpt lat="49.89959" lon="2.48332">
        <ele>36.6</ele>
        <time>2022-10-19T14:15:41Z</time>
      </trkpt>
      <trkpt lat="49.89959" lon="2.48332">
        <ele>36.6</ele>
        <time>2022-10-19T14:15:42Z</time>
      </trkpt>
      <trkpt lat="49.89959" lon="2.48332">
        <ele>36.6</ele>
        <time>2022-10-19T14:15:43Z</time>
      </trkpt>
      <trkpt lat="49.89959" lon="2.48332">
        <ele>36.6</ele>
        <time>2022-10-19T14:15:44Z</time>
      </trkpt>
      <trkpt lat="49.89959" lon="2.48332">
        <ele>36.6</ele>
        <time>2022-10-19T14:15:45Z</time>
      </trkpt>
      <trkpt lat="49.89959" lon="2.48332">
        <ele>36.6</ele>
        <time>2022-10-19T14:15:46Z</time>
      </trkpt>
      <trkpt lat="49.89959" lon="2.48332">
        <ele>36.6</ele>
        <time>2022-10-19T14:15:47Z</time>
      </trkpt>
      <trkpt lat="49.89959" lon="2.48332">
        <ele>36.6</ele>
        <time>2022-10-19T14:15:48Z</time>
      </trkpt>
      <trkpt lat="49.89959" lon="2.48332">
        <ele>36.6</ele>
        <time>2022-10-19T14:15:49Z</time>
      </trkpt>
      <trkpt lat="49.89959" lon="2.48332">
        <ele>36.6</ele>
        <time>2022-10-19T14:15:50Z</time>
      </trkpt>
      <trkpt lat="49.89959" lon="2.48332">
        <ele>36.6</ele>
        <time>2022-10-19T14:15:51Z</time>
      </trkpt>
      <trkpt lat="49.89959" lon="2.48331">
        <ele>36.6</ele>
        <time>2022-10-19T14:15:52Z</time>
      </trkpt>
      <trkpt lat="49.89959" lon="2.48331">
        <ele>36.6</ele>
        <time>2022-10-19T14:15:53Z</time>
      </trkpt>
      <trkpt lat="49.89959" lon="2.48331">
        <ele>36.6</ele>
        <time>2022-10-19T14:15:54Z</time>
      </trkpt>
      <trkpt lat="49.89959" lon="2.48331">
        <ele>36.6</ele>
        <time>2022-10-19T14:15:55Z</time>
      </trkpt>
      <trkpt lat="49.89959" lon="2.48331">
        <ele>36.6</ele>
        <time>2022-10-19T14:15:57Z</time>
      </trkpt>
      <trkpt lat="49.89959" lon="2.48331">
        <ele>36.6</ele>
        <time>2022-10-19T14:15:58Z</time>
      </trkpt>
      <trkpt lat="49.89959" lon="2.48331">
        <ele>36.6</ele>
        <time>2022-10-19T14:15:59Z</time>
      </trkpt>
      <trkpt lat="49.89959" lon="2.48331">
        <ele>36.6</ele>
        <time>2022-10-19T14:16:00Z</time>
      </trkpt>
      <trkpt lat="49.8996" lon="2.4833">
        <ele>36.6</ele>
        <time>2022-10-19T14:16:01Z</time>
      </trkpt>
      <trkpt lat="49.8996" lon="2.4833">
        <ele>36.6</ele>
        <time>2022-10-19T14:16:03Z</time>
      </trkpt>
      <trkpt lat="49.89961" lon="2.48329">
        <ele>36.6</ele>
        <time>2022-10-19T14:16:04Z</time>
      </trkpt>
      <trkpt lat="49.89962" lon="2.48328">
        <ele>36.6</ele>
        <time>2022-10-19T14:16:05Z</time>
      </trkpt>
      <trkpt lat="49.89962" lon="2.48328">
        <ele>36.6</ele>
        <time>2022-10-19T14:16:06Z</time>
      </trkpt>
      <trkpt lat="49.89963" lon="2.48328">
        <ele>36.6</ele>
        <time>2022-10-19T14:16:07Z</time>
      </trkpt>
      <trkpt lat="49.89963" lon="2.48328">
        <ele>36.6</ele>
        <time>2022-10-19T14:16:08Z</time>
      </trkpt>
      <trkpt lat="49.89964" lon="2.48328">
        <ele>36.6</ele>
        <time>2022-10-19T14:16:10Z</time>
      </trkpt>
      <trkpt lat="49.89964" lon="2.48328">
        <ele>36.6</ele>
        <time>2022-10-19T14:16:11Z</time>
      </trkpt>
      <trkpt lat="49.89964" lon="2.48328">
        <ele>36.6</ele>
        <time>2022-10-19T14:16:12Z</time>
      </trkpt>
      <trkpt lat="49.89964" lon="2.48328">
        <ele>36.6</ele>
        <time>2022-10-19T14:16:13Z</time>
      </trkpt>
      <trkpt lat="49.89965" lon="2.48328">
        <ele>36.6</ele>
        <time>2022-10-19T14:16:14Z</time>
      </trkpt>
    </trkseg>
  </trk>
</gpx>